<?xml version="1.0" encoding="UTF-8" standalone="no" ?>
<gpx xmlns="http://www.topografix.com/GPX/1/1" xmlns:xsi="http://www.w3.org/2001/XMLSchema-instance" xsi:schemaLocation="http://www.topografix.com/GPX/1/1 http://www.topografix.com/GPX/1/1/gpx.xsd" version="1.1" creator="VisuGPX - https://www.visugpx.com">
  <metadata>
    <name>rando generac 14 km</name>
  </metadata>
  <trk>
    <name><![CDATA[rando generac 14 km_1]]></name>
    <trkseg>
      <trkpt lat="45.13982" lon="-0.5429">
        <ele>45.4</ele>
        <time>2020-09-03T06:19:57Z</time>
      </trkpt>
      <trkpt lat="45.13983" lon="-0.5429">
        <ele>45.4</ele>
        <time>2020-09-03T06:19:58Z</time>
      </trkpt>
      <trkpt lat="45.13984" lon="-0.5429">
        <ele>45.4</ele>
        <time>2020-09-03T06:20:01Z</time>
      </trkpt>
      <trkpt lat="45.13985" lon="-0.5429">
        <ele>45.4</ele>
        <time>2020-09-03T06:20:03Z</time>
      </trkpt>
      <trkpt lat="45.13985" lon="-0.54289">
        <ele>45.4</ele>
        <time>2020-09-03T06:20:04Z</time>
      </trkpt>
      <trkpt lat="45.13985" lon="-0.54289">
        <ele>45.4</ele>
        <time>2020-09-03T06:20:05Z</time>
      </trkpt>
      <trkpt lat="45.13989" lon="-0.54285">
        <ele>45.4</ele>
        <time>2020-09-03T06:20:07Z</time>
      </trkpt>
      <trkpt lat="45.1399" lon="-0.54284">
        <ele>45.4</ele>
        <time>2020-09-03T06:20:09Z</time>
      </trkpt>
      <trkpt lat="45.13991" lon="-0.54284">
        <ele>45.4</ele>
        <time>2020-09-03T06:20:11Z</time>
      </trkpt>
      <trkpt lat="45.13992" lon="-0.54283">
        <ele>45.4</ele>
        <time>2020-09-03T06:20:13Z</time>
      </trkpt>
      <trkpt lat="45.13994" lon="-0.54284">
        <ele>45.4</ele>
        <time>2020-09-03T06:20:15Z</time>
      </trkpt>
      <trkpt lat="45.13994" lon="-0.54284">
        <ele>45.4</ele>
        <time>2020-09-03T06:20:17Z</time>
      </trkpt>
      <trkpt lat="45.13994" lon="-0.54284">
        <ele>45.4</ele>
        <time>2020-09-03T06:20:18Z</time>
      </trkpt>
      <trkpt lat="45.13994" lon="-0.54284">
        <ele>45.4</ele>
        <time>2020-09-03T06:20:20Z</time>
      </trkpt>
      <trkpt lat="45.13994" lon="-0.54284">
        <ele>45.4</ele>
        <time>2020-09-03T06:20:21Z</time>
      </trkpt>
      <trkpt lat="45.13994" lon="-0.54285">
        <ele>45.4</ele>
        <time>2020-09-03T06:20:23Z</time>
      </trkpt>
      <trkpt lat="45.13994" lon="-0.54285">
        <ele>45.4</ele>
        <time>2020-09-03T06:20:25Z</time>
      </trkpt>
      <trkpt lat="45.13994" lon="-0.54285">
        <ele>45.4</ele>
        <time>2020-09-03T06:20:26Z</time>
      </trkpt>
      <trkpt lat="45.13994" lon="-0.54285">
        <ele>45.4</ele>
        <time>2020-09-03T06:20:28Z</time>
      </trkpt>
      <trkpt lat="45.13994" lon="-0.54285">
        <ele>45.4</ele>
        <time>2020-09-03T06:20:29Z</time>
      </trkpt>
      <trkpt lat="45.13994" lon="-0.54285">
        <ele>45.4</ele>
        <time>2020-09-03T06:20:31Z</time>
      </trkpt>
      <trkpt lat="45.13994" lon="-0.54285">
        <ele>45.4</ele>
        <time>2020-09-03T06:20:32Z</time>
      </trkpt>
      <trkpt lat="45.13994" lon="-0.54285">
        <ele>45.4</ele>
        <time>2020-09-03T06:20:33Z</time>
      </trkpt>
      <trkpt lat="45.13994" lon="-0.54285">
        <ele>45.4</ele>
        <time>2020-09-03T06:20:34Z</time>
      </trkpt>
      <trkpt lat="45.13994" lon="-0.54285">
        <ele>45.4</ele>
        <time>2020-09-03T06:20:35Z</time>
      </trkpt>
      <trkpt lat="45.13994" lon="-0.54285">
        <ele>45.4</ele>
        <time>2020-09-03T06:20:36Z</time>
      </trkpt>
      <trkpt lat="45.13993" lon="-0.54285">
        <ele>45.4</ele>
        <time>2020-09-03T06:20:38Z</time>
      </trkpt>
      <trkpt lat="45.13993" lon="-0.54287">
        <ele>45.4</ele>
        <time>2020-09-03T06:20:40Z</time>
      </trkpt>
      <trkpt lat="45.13992" lon="-0.54288">
        <ele>45.4</ele>
        <time>2020-09-03T06:20:41Z</time>
      </trkpt>
      <trkpt lat="45.13992" lon="-0.54289">
        <ele>45.4</ele>
        <time>2020-09-03T06:20:43Z</time>
      </trkpt>
      <trkpt lat="45.13992" lon="-0.54289">
        <ele>45.4</ele>
        <time>2020-09-03T06:20:45Z</time>
      </trkpt>
      <trkpt lat="45.13992" lon="-0.54288">
        <ele>45.4</ele>
        <time>2020-09-03T06:20:47Z</time>
      </trkpt>
      <trkpt lat="45.13993" lon="-0.54287">
        <ele>45.4</ele>
        <time>2020-09-03T06:20:48Z</time>
      </trkpt>
      <trkpt lat="45.13993" lon="-0.54286">
        <ele>45.4</ele>
        <time>2020-09-03T06:20:49Z</time>
      </trkpt>
      <trkpt lat="45.13993" lon="-0.54283">
        <ele>45.4</ele>
        <time>2020-09-03T06:20:50Z</time>
      </trkpt>
      <trkpt lat="45.13994" lon="-0.54282">
        <ele>45.4</ele>
        <time>2020-09-03T06:20:51Z</time>
      </trkpt>
      <trkpt lat="45.13995" lon="-0.5428">
        <ele>45.4</ele>
        <time>2020-09-03T06:20:52Z</time>
      </trkpt>
      <trkpt lat="45.13995" lon="-0.5428">
        <ele>45.4</ele>
        <time>2020-09-03T06:20:53Z</time>
      </trkpt>
      <trkpt lat="45.13996" lon="-0.54278">
        <ele>45.4</ele>
        <time>2020-09-03T06:20:54Z</time>
      </trkpt>
      <trkpt lat="45.13997" lon="-0.54278">
        <ele>45.4</ele>
        <time>2020-09-03T06:20:55Z</time>
      </trkpt>
      <trkpt lat="45.13998" lon="-0.54277">
        <ele>45.4</ele>
        <time>2020-09-03T06:20:56Z</time>
      </trkpt>
      <trkpt lat="45.13999" lon="-0.54277">
        <ele>45.4</ele>
        <time>2020-09-03T06:20:57Z</time>
      </trkpt>
      <trkpt lat="45.14001" lon="-0.54278">
        <ele>45.4</ele>
        <time>2020-09-03T06:20:59Z</time>
      </trkpt>
      <trkpt lat="45.14003" lon="-0.54279">
        <ele>45.4</ele>
        <time>2020-09-03T06:21:00Z</time>
      </trkpt>
      <trkpt lat="45.14004" lon="-0.5428">
        <ele>45.4</ele>
        <time>2020-09-03T06:21:01Z</time>
      </trkpt>
      <trkpt lat="45.14006" lon="-0.54283">
        <ele>45.4</ele>
        <time>2020-09-03T06:21:03Z</time>
      </trkpt>
      <trkpt lat="45.14007" lon="-0.54285">
        <ele>45.4</ele>
        <time>2020-09-03T06:21:04Z</time>
      </trkpt>
      <trkpt lat="45.14008" lon="-0.54287">
        <ele>45.4</ele>
        <time>2020-09-03T06:21:05Z</time>
      </trkpt>
      <trkpt lat="45.14008" lon="-0.54289">
        <ele>45.4</ele>
        <time>2020-09-03T06:21:06Z</time>
      </trkpt>
      <trkpt lat="45.14009" lon="-0.5429">
        <ele>45.4</ele>
        <time>2020-09-03T06:21:07Z</time>
      </trkpt>
      <trkpt lat="45.1401" lon="-0.54292">
        <ele>45.4</ele>
        <time>2020-09-03T06:21:08Z</time>
      </trkpt>
      <trkpt lat="45.1401" lon="-0.54294">
        <ele>45.4</ele>
        <time>2020-09-03T06:21:09Z</time>
      </trkpt>
      <trkpt lat="45.14011" lon="-0.54296">
        <ele>45.5</ele>
        <time>2020-09-03T06:21:11Z</time>
      </trkpt>
      <trkpt lat="45.14011" lon="-0.54297">
        <ele>45.4</ele>
        <time>2020-09-03T06:21:12Z</time>
      </trkpt>
      <trkpt lat="45.14012" lon="-0.54298">
        <ele>45.4</ele>
        <time>2020-09-03T06:21:13Z</time>
      </trkpt>
      <trkpt lat="45.14013" lon="-0.54301">
        <ele>45.3</ele>
        <time>2020-09-03T06:21:14Z</time>
      </trkpt>
      <trkpt lat="45.14014" lon="-0.54302">
        <ele>45.3</ele>
        <time>2020-09-03T06:21:15Z</time>
      </trkpt>
      <trkpt lat="45.14014" lon="-0.54303">
        <ele>45.3</ele>
        <time>2020-09-03T06:21:16Z</time>
      </trkpt>
      <trkpt lat="45.14016" lon="-0.54305">
        <ele>45.2</ele>
        <time>2020-09-03T06:21:18Z</time>
      </trkpt>
      <trkpt lat="45.14016" lon="-0.54307">
        <ele>45.2</ele>
        <time>2020-09-03T06:21:20Z</time>
      </trkpt>
      <trkpt lat="45.14017" lon="-0.54308">
        <ele>45.2</ele>
        <time>2020-09-03T06:21:21Z</time>
      </trkpt>
      <trkpt lat="45.14019" lon="-0.54312">
        <ele>45.1</ele>
        <time>2020-09-03T06:21:23Z</time>
      </trkpt>
      <trkpt lat="45.14019" lon="-0.54315">
        <ele>45</ele>
        <time>2020-09-03T06:21:24Z</time>
      </trkpt>
      <trkpt lat="45.1402" lon="-0.54317">
        <ele>45</ele>
        <time>2020-09-03T06:21:26Z</time>
      </trkpt>
      <trkpt lat="45.1402" lon="-0.54319">
        <ele>44.9</ele>
        <time>2020-09-03T06:21:27Z</time>
      </trkpt>
      <trkpt lat="45.1402" lon="-0.5432">
        <ele>44.9</ele>
        <time>2020-09-03T06:21:28Z</time>
      </trkpt>
      <trkpt lat="45.1402" lon="-0.54322">
        <ele>44.8</ele>
        <time>2020-09-03T06:21:29Z</time>
      </trkpt>
      <trkpt lat="45.1402" lon="-0.54325">
        <ele>44.7</ele>
        <time>2020-09-03T06:21:30Z</time>
      </trkpt>
      <trkpt lat="45.14019" lon="-0.54326">
        <ele>44.7</ele>
        <time>2020-09-03T06:21:32Z</time>
      </trkpt>
      <trkpt lat="45.14019" lon="-0.54327">
        <ele>44.7</ele>
        <time>2020-09-03T06:21:33Z</time>
      </trkpt>
      <trkpt lat="45.14019" lon="-0.5433">
        <ele>44.7</ele>
        <time>2020-09-03T06:21:34Z</time>
      </trkpt>
      <trkpt lat="45.14019" lon="-0.54332">
        <ele>44.6</ele>
        <time>2020-09-03T06:21:35Z</time>
      </trkpt>
      <trkpt lat="45.14019" lon="-0.54334">
        <ele>44.6</ele>
        <time>2020-09-03T06:21:36Z</time>
      </trkpt>
      <trkpt lat="45.1402" lon="-0.54338">
        <ele>44.6</ele>
        <time>2020-09-03T06:21:38Z</time>
      </trkpt>
      <trkpt lat="45.1402" lon="-0.54341">
        <ele>44.5</ele>
        <time>2020-09-03T06:21:40Z</time>
      </trkpt>
      <trkpt lat="45.14021" lon="-0.54343">
        <ele>44.5</ele>
        <time>2020-09-03T06:21:41Z</time>
      </trkpt>
      <trkpt lat="45.14021" lon="-0.54346">
        <ele>44.4</ele>
        <time>2020-09-03T06:21:42Z</time>
      </trkpt>
      <trkpt lat="45.14021" lon="-0.54349">
        <ele>44.4</ele>
        <time>2020-09-03T06:21:44Z</time>
      </trkpt>
      <trkpt lat="45.1402" lon="-0.54351">
        <ele>44.3</ele>
        <time>2020-09-03T06:21:45Z</time>
      </trkpt>
      <trkpt lat="45.1402" lon="-0.54354">
        <ele>44.3</ele>
        <time>2020-09-03T06:21:47Z</time>
      </trkpt>
      <trkpt lat="45.1402" lon="-0.54355">
        <ele>44.3</ele>
        <time>2020-09-03T06:21:48Z</time>
      </trkpt>
      <trkpt lat="45.1402" lon="-0.54357">
        <ele>44.3</ele>
        <time>2020-09-03T06:21:49Z</time>
      </trkpt>
      <trkpt lat="45.1402" lon="-0.54358">
        <ele>44.2</ele>
        <time>2020-09-03T06:21:51Z</time>
      </trkpt>
      <trkpt lat="45.1402" lon="-0.54359">
        <ele>44.2</ele>
        <time>2020-09-03T06:21:52Z</time>
      </trkpt>
      <trkpt lat="45.14019" lon="-0.54361">
        <ele>44.2</ele>
        <time>2020-09-03T06:21:53Z</time>
      </trkpt>
      <trkpt lat="45.14019" lon="-0.54364">
        <ele>44.1</ele>
        <time>2020-09-03T06:21:55Z</time>
      </trkpt>
      <trkpt lat="45.14019" lon="-0.54366">
        <ele>44.1</ele>
        <time>2020-09-03T06:21:56Z</time>
      </trkpt>
      <trkpt lat="45.14019" lon="-0.54368">
        <ele>44.1</ele>
        <time>2020-09-03T06:21:57Z</time>
      </trkpt>
      <trkpt lat="45.14019" lon="-0.54371">
        <ele>44</ele>
        <time>2020-09-03T06:21:59Z</time>
      </trkpt>
      <trkpt lat="45.14018" lon="-0.54375">
        <ele>43.9</ele>
        <time>2020-09-03T06:22:00Z</time>
      </trkpt>
      <trkpt lat="45.14018" lon="-0.54376">
        <ele>43.9</ele>
        <time>2020-09-03T06:22:01Z</time>
      </trkpt>
      <trkpt lat="45.14016" lon="-0.54381">
        <ele>43.8</ele>
        <time>2020-09-03T06:22:03Z</time>
      </trkpt>
      <trkpt lat="45.14016" lon="-0.54382">
        <ele>43.8</ele>
        <time>2020-09-03T06:22:04Z</time>
      </trkpt>
      <trkpt lat="45.14016" lon="-0.54384">
        <ele>43.8</ele>
        <time>2020-09-03T06:22:06Z</time>
      </trkpt>
      <trkpt lat="45.14015" lon="-0.54386">
        <ele>43.8</ele>
        <time>2020-09-03T06:22:07Z</time>
      </trkpt>
      <trkpt lat="45.14015" lon="-0.54389">
        <ele>43.7</ele>
        <time>2020-09-03T06:22:09Z</time>
      </trkpt>
      <trkpt lat="45.14014" lon="-0.54391">
        <ele>43.7</ele>
        <time>2020-09-03T06:22:10Z</time>
      </trkpt>
      <trkpt lat="45.14014" lon="-0.54393">
        <ele>43.7</ele>
        <time>2020-09-03T06:22:12Z</time>
      </trkpt>
      <trkpt lat="45.14014" lon="-0.54394">
        <ele>43.6</ele>
        <time>2020-09-03T06:22:13Z</time>
      </trkpt>
      <trkpt lat="45.14014" lon="-0.54395">
        <ele>43.6</ele>
        <time>2020-09-03T06:22:14Z</time>
      </trkpt>
      <trkpt lat="45.14013" lon="-0.54397">
        <ele>43.6</ele>
        <time>2020-09-03T06:22:15Z</time>
      </trkpt>
      <trkpt lat="45.14013" lon="-0.544">
        <ele>43.5</ele>
        <time>2020-09-03T06:22:17Z</time>
      </trkpt>
      <trkpt lat="45.14013" lon="-0.54404">
        <ele>43.5</ele>
        <time>2020-09-03T06:22:18Z</time>
      </trkpt>
      <trkpt lat="45.14013" lon="-0.54405">
        <ele>43.5</ele>
        <time>2020-09-03T06:22:20Z</time>
      </trkpt>
      <trkpt lat="45.14013" lon="-0.54407">
        <ele>43.4</ele>
        <time>2020-09-03T06:22:21Z</time>
      </trkpt>
      <trkpt lat="45.14012" lon="-0.5441">
        <ele>43.4</ele>
        <time>2020-09-03T06:22:22Z</time>
      </trkpt>
      <trkpt lat="45.14012" lon="-0.54412">
        <ele>43.4</ele>
        <time>2020-09-03T06:22:24Z</time>
      </trkpt>
      <trkpt lat="45.14012" lon="-0.54414">
        <ele>43.3</ele>
        <time>2020-09-03T06:22:25Z</time>
      </trkpt>
      <trkpt lat="45.14012" lon="-0.54418">
        <ele>43.3</ele>
        <time>2020-09-03T06:22:26Z</time>
      </trkpt>
      <trkpt lat="45.14012" lon="-0.54419">
        <ele>43.3</ele>
        <time>2020-09-03T06:22:27Z</time>
      </trkpt>
      <trkpt lat="45.14011" lon="-0.54421">
        <ele>43.2</ele>
        <time>2020-09-03T06:22:28Z</time>
      </trkpt>
      <trkpt lat="45.14011" lon="-0.54424">
        <ele>43.2</ele>
        <time>2020-09-03T06:22:29Z</time>
      </trkpt>
      <trkpt lat="45.14011" lon="-0.54427">
        <ele>43.2</ele>
        <time>2020-09-03T06:22:31Z</time>
      </trkpt>
      <trkpt lat="45.14011" lon="-0.54429">
        <ele>43.1</ele>
        <time>2020-09-03T06:22:32Z</time>
      </trkpt>
      <trkpt lat="45.14011" lon="-0.54431">
        <ele>43.1</ele>
        <time>2020-09-03T06:22:33Z</time>
      </trkpt>
      <trkpt lat="45.14011" lon="-0.54433">
        <ele>43.1</ele>
        <time>2020-09-03T06:22:34Z</time>
      </trkpt>
      <trkpt lat="45.14012" lon="-0.54434">
        <ele>43.1</ele>
        <time>2020-09-03T06:22:35Z</time>
      </trkpt>
      <trkpt lat="45.14012" lon="-0.54437">
        <ele>43</ele>
        <time>2020-09-03T06:22:36Z</time>
      </trkpt>
      <trkpt lat="45.14013" lon="-0.54439">
        <ele>43</ele>
        <time>2020-09-03T06:22:38Z</time>
      </trkpt>
      <trkpt lat="45.14013" lon="-0.5444">
        <ele>43</ele>
        <time>2020-09-03T06:22:39Z</time>
      </trkpt>
      <trkpt lat="45.14013" lon="-0.54442">
        <ele>43</ele>
        <time>2020-09-03T06:22:40Z</time>
      </trkpt>
      <trkpt lat="45.14014" lon="-0.54443">
        <ele>42.9</ele>
        <time>2020-09-03T06:22:41Z</time>
      </trkpt>
      <trkpt lat="45.14015" lon="-0.54446">
        <ele>42.9</ele>
        <time>2020-09-03T06:22:43Z</time>
      </trkpt>
      <trkpt lat="45.14016" lon="-0.54448">
        <ele>42.9</ele>
        <time>2020-09-03T06:22:44Z</time>
      </trkpt>
      <trkpt lat="45.14017" lon="-0.54449">
        <ele>42.9</ele>
        <time>2020-09-03T06:22:46Z</time>
      </trkpt>
      <trkpt lat="45.14018" lon="-0.54451">
        <ele>42.8</ele>
        <time>2020-09-03T06:22:47Z</time>
      </trkpt>
      <trkpt lat="45.14018" lon="-0.54453">
        <ele>42.8</ele>
        <time>2020-09-03T06:22:49Z</time>
      </trkpt>
      <trkpt lat="45.14019" lon="-0.54455">
        <ele>42.8</ele>
        <time>2020-09-03T06:22:50Z</time>
      </trkpt>
      <trkpt lat="45.1402" lon="-0.54457">
        <ele>42.8</ele>
        <time>2020-09-03T06:22:52Z</time>
      </trkpt>
      <trkpt lat="45.1402" lon="-0.54458">
        <ele>42.8</ele>
        <time>2020-09-03T06:22:53Z</time>
      </trkpt>
      <trkpt lat="45.14021" lon="-0.54463">
        <ele>42.7</ele>
        <time>2020-09-03T06:22:54Z</time>
      </trkpt>
      <trkpt lat="45.14021" lon="-0.54465">
        <ele>42.7</ele>
        <time>2020-09-03T06:22:56Z</time>
      </trkpt>
      <trkpt lat="45.14021" lon="-0.54466">
        <ele>42.7</ele>
        <time>2020-09-03T06:22:57Z</time>
      </trkpt>
      <trkpt lat="45.14022" lon="-0.54468">
        <ele>42.6</ele>
        <time>2020-09-03T06:22:58Z</time>
      </trkpt>
      <trkpt lat="45.14022" lon="-0.54471">
        <ele>42.6</ele>
        <time>2020-09-03T06:23:00Z</time>
      </trkpt>
      <trkpt lat="45.14022" lon="-0.54472">
        <ele>42.6</ele>
        <time>2020-09-03T06:23:01Z</time>
      </trkpt>
      <trkpt lat="45.14023" lon="-0.54476">
        <ele>42.6</ele>
        <time>2020-09-03T06:23:02Z</time>
      </trkpt>
      <trkpt lat="45.14023" lon="-0.54478">
        <ele>42.6</ele>
        <time>2020-09-03T06:23:03Z</time>
      </trkpt>
      <trkpt lat="45.14023" lon="-0.5448">
        <ele>42.6</ele>
        <time>2020-09-03T06:23:05Z</time>
      </trkpt>
      <trkpt lat="45.14024" lon="-0.54482">
        <ele>42.6</ele>
        <time>2020-09-03T06:23:06Z</time>
      </trkpt>
      <trkpt lat="45.14024" lon="-0.54483">
        <ele>42.6</ele>
        <time>2020-09-03T06:23:07Z</time>
      </trkpt>
      <trkpt lat="45.14024" lon="-0.54485">
        <ele>42.6</ele>
        <time>2020-09-03T06:23:08Z</time>
      </trkpt>
      <trkpt lat="45.14024" lon="-0.54487">
        <ele>42.6</ele>
        <time>2020-09-03T06:23:10Z</time>
      </trkpt>
      <trkpt lat="45.14024" lon="-0.54489">
        <ele>42.6</ele>
        <time>2020-09-03T06:23:11Z</time>
      </trkpt>
      <trkpt lat="45.14024" lon="-0.54491">
        <ele>42.6</ele>
        <time>2020-09-03T06:23:12Z</time>
      </trkpt>
      <trkpt lat="45.14025" lon="-0.54493">
        <ele>42.5</ele>
        <time>2020-09-03T06:23:13Z</time>
      </trkpt>
      <trkpt lat="45.14025" lon="-0.54495">
        <ele>42.5</ele>
        <time>2020-09-03T06:23:14Z</time>
      </trkpt>
      <trkpt lat="45.14026" lon="-0.54497">
        <ele>42.5</ele>
        <time>2020-09-03T06:23:15Z</time>
      </trkpt>
      <trkpt lat="45.14026" lon="-0.54498">
        <ele>42.5</ele>
        <time>2020-09-03T06:23:16Z</time>
      </trkpt>
      <trkpt lat="45.14026" lon="-0.545">
        <ele>42.5</ele>
        <time>2020-09-03T06:23:17Z</time>
      </trkpt>
      <trkpt lat="45.14027" lon="-0.54503">
        <ele>42.5</ele>
        <time>2020-09-03T06:23:18Z</time>
      </trkpt>
      <trkpt lat="45.14027" lon="-0.54504">
        <ele>42.5</ele>
        <time>2020-09-03T06:23:19Z</time>
      </trkpt>
      <trkpt lat="45.14027" lon="-0.54505">
        <ele>42.5</ele>
        <time>2020-09-03T06:23:21Z</time>
      </trkpt>
      <trkpt lat="45.14028" lon="-0.54506">
        <ele>42.5</ele>
        <time>2020-09-03T06:23:22Z</time>
      </trkpt>
      <trkpt lat="45.14028" lon="-0.54508">
        <ele>42.5</ele>
        <time>2020-09-03T06:23:23Z</time>
      </trkpt>
      <trkpt lat="45.14028" lon="-0.54511">
        <ele>42.5</ele>
        <time>2020-09-03T06:23:24Z</time>
      </trkpt>
      <trkpt lat="45.14028" lon="-0.54513">
        <ele>42.4</ele>
        <time>2020-09-03T06:23:25Z</time>
      </trkpt>
      <trkpt lat="45.14029" lon="-0.54516">
        <ele>42.4</ele>
        <time>2020-09-03T06:23:27Z</time>
      </trkpt>
      <trkpt lat="45.14029" lon="-0.54518">
        <ele>42.4</ele>
        <time>2020-09-03T06:23:28Z</time>
      </trkpt>
      <trkpt lat="45.14029" lon="-0.54521">
        <ele>42.4</ele>
        <time>2020-09-03T06:23:29Z</time>
      </trkpt>
      <trkpt lat="45.14029" lon="-0.54523">
        <ele>42.4</ele>
        <time>2020-09-03T06:23:30Z</time>
      </trkpt>
      <trkpt lat="45.1403" lon="-0.54526">
        <ele>42.4</ele>
        <time>2020-09-03T06:23:32Z</time>
      </trkpt>
      <trkpt lat="45.1403" lon="-0.5453">
        <ele>42.3</ele>
        <time>2020-09-03T06:23:34Z</time>
      </trkpt>
      <trkpt lat="45.14031" lon="-0.54532">
        <ele>42.3</ele>
        <time>2020-09-03T06:23:35Z</time>
      </trkpt>
      <trkpt lat="45.14031" lon="-0.54534">
        <ele>42.3</ele>
        <time>2020-09-03T06:23:36Z</time>
      </trkpt>
      <trkpt lat="45.14031" lon="-0.54535">
        <ele>42.3</ele>
        <time>2020-09-03T06:23:37Z</time>
      </trkpt>
      <trkpt lat="45.14032" lon="-0.5454">
        <ele>42.3</ele>
        <time>2020-09-03T06:23:39Z</time>
      </trkpt>
      <trkpt lat="45.14032" lon="-0.54541">
        <ele>42.3</ele>
        <time>2020-09-03T06:23:40Z</time>
      </trkpt>
      <trkpt lat="45.14032" lon="-0.54543">
        <ele>42.2</ele>
        <time>2020-09-03T06:23:41Z</time>
      </trkpt>
      <trkpt lat="45.14032" lon="-0.54546">
        <ele>42.2</ele>
        <time>2020-09-03T06:23:43Z</time>
      </trkpt>
      <trkpt lat="45.14033" lon="-0.54547">
        <ele>42.2</ele>
        <time>2020-09-03T06:23:44Z</time>
      </trkpt>
      <trkpt lat="45.14033" lon="-0.5455">
        <ele>42.2</ele>
        <time>2020-09-03T06:23:45Z</time>
      </trkpt>
      <trkpt lat="45.14034" lon="-0.54551">
        <ele>42.2</ele>
        <time>2020-09-03T06:23:46Z</time>
      </trkpt>
      <trkpt lat="45.14034" lon="-0.54554">
        <ele>42.2</ele>
        <time>2020-09-03T06:23:48Z</time>
      </trkpt>
      <trkpt lat="45.14034" lon="-0.54556">
        <ele>42.2</ele>
        <time>2020-09-03T06:23:49Z</time>
      </trkpt>
      <trkpt lat="45.14034" lon="-0.54557">
        <ele>42.2</ele>
        <time>2020-09-03T06:23:50Z</time>
      </trkpt>
      <trkpt lat="45.14035" lon="-0.54559">
        <ele>42.2</ele>
        <time>2020-09-03T06:23:51Z</time>
      </trkpt>
      <trkpt lat="45.14035" lon="-0.5456">
        <ele>42.1</ele>
        <time>2020-09-03T06:23:52Z</time>
      </trkpt>
      <trkpt lat="45.14036" lon="-0.54563">
        <ele>42.1</ele>
        <time>2020-09-03T06:23:54Z</time>
      </trkpt>
      <trkpt lat="45.14038" lon="-0.54566">
        <ele>42.1</ele>
        <time>2020-09-03T06:23:56Z</time>
      </trkpt>
      <trkpt lat="45.14038" lon="-0.54568">
        <ele>42.1</ele>
        <time>2020-09-03T06:23:57Z</time>
      </trkpt>
      <trkpt lat="45.14039" lon="-0.54569">
        <ele>42.1</ele>
        <time>2020-09-03T06:23:58Z</time>
      </trkpt>
      <trkpt lat="45.1404" lon="-0.54573">
        <ele>42.1</ele>
        <time>2020-09-03T06:24:00Z</time>
      </trkpt>
      <trkpt lat="45.14041" lon="-0.54574">
        <ele>42.1</ele>
        <time>2020-09-03T06:24:01Z</time>
      </trkpt>
      <trkpt lat="45.14041" lon="-0.54575">
        <ele>42.1</ele>
        <time>2020-09-03T06:24:02Z</time>
      </trkpt>
      <trkpt lat="45.14042" lon="-0.54575">
        <ele>42.1</ele>
        <time>2020-09-03T06:24:04Z</time>
      </trkpt>
      <trkpt lat="45.14042" lon="-0.54577">
        <ele>42</ele>
        <time>2020-09-03T06:24:05Z</time>
      </trkpt>
      <trkpt lat="45.14043" lon="-0.54579">
        <ele>42</ele>
        <time>2020-09-03T06:24:06Z</time>
      </trkpt>
      <trkpt lat="45.14044" lon="-0.54581">
        <ele>42</ele>
        <time>2020-09-03T06:24:07Z</time>
      </trkpt>
      <trkpt lat="45.14044" lon="-0.54583">
        <ele>42</ele>
        <time>2020-09-03T06:24:09Z</time>
      </trkpt>
      <trkpt lat="45.14044" lon="-0.54585">
        <ele>42</ele>
        <time>2020-09-03T06:24:10Z</time>
      </trkpt>
      <trkpt lat="45.14044" lon="-0.54588">
        <ele>42</ele>
        <time>2020-09-03T06:24:11Z</time>
      </trkpt>
      <trkpt lat="45.14044" lon="-0.54591">
        <ele>42</ele>
        <time>2020-09-03T06:24:13Z</time>
      </trkpt>
      <trkpt lat="45.14045" lon="-0.54595">
        <ele>42</ele>
        <time>2020-09-03T06:24:14Z</time>
      </trkpt>
      <trkpt lat="45.14045" lon="-0.54597">
        <ele>42</ele>
        <time>2020-09-03T06:24:16Z</time>
      </trkpt>
      <trkpt lat="45.14045" lon="-0.54599">
        <ele>42</ele>
        <time>2020-09-03T06:24:17Z</time>
      </trkpt>
      <trkpt lat="45.14045" lon="-0.54603">
        <ele>42</ele>
        <time>2020-09-03T06:24:18Z</time>
      </trkpt>
      <trkpt lat="45.14045" lon="-0.54604">
        <ele>42</ele>
        <time>2020-09-03T06:24:19Z</time>
      </trkpt>
      <trkpt lat="45.14045" lon="-0.54606">
        <ele>42</ele>
        <time>2020-09-03T06:24:21Z</time>
      </trkpt>
      <trkpt lat="45.14045" lon="-0.54608">
        <ele>42</ele>
        <time>2020-09-03T06:24:22Z</time>
      </trkpt>
      <trkpt lat="45.14046" lon="-0.54611">
        <ele>42</ele>
        <time>2020-09-03T06:24:24Z</time>
      </trkpt>
      <trkpt lat="45.14046" lon="-0.54613">
        <ele>42</ele>
        <time>2020-09-03T06:24:25Z</time>
      </trkpt>
      <trkpt lat="45.14046" lon="-0.54615">
        <ele>42</ele>
        <time>2020-09-03T06:24:26Z</time>
      </trkpt>
      <trkpt lat="45.14046" lon="-0.54616">
        <ele>42</ele>
        <time>2020-09-03T06:24:27Z</time>
      </trkpt>
      <trkpt lat="45.14047" lon="-0.54618">
        <ele>42</ele>
        <time>2020-09-03T06:24:28Z</time>
      </trkpt>
      <trkpt lat="45.14047" lon="-0.54623">
        <ele>42</ele>
        <time>2020-09-03T06:24:30Z</time>
      </trkpt>
      <trkpt lat="45.14048" lon="-0.54623">
        <ele>42</ele>
        <time>2020-09-03T06:24:31Z</time>
      </trkpt>
      <trkpt lat="45.14048" lon="-0.54626">
        <ele>42</ele>
        <time>2020-09-03T06:24:32Z</time>
      </trkpt>
      <trkpt lat="45.14049" lon="-0.54627">
        <ele>42</ele>
        <time>2020-09-03T06:24:34Z</time>
      </trkpt>
      <trkpt lat="45.14049" lon="-0.54629">
        <ele>42</ele>
        <time>2020-09-03T06:24:35Z</time>
      </trkpt>
      <trkpt lat="45.14049" lon="-0.54631">
        <ele>42</ele>
        <time>2020-09-03T06:24:36Z</time>
      </trkpt>
      <trkpt lat="45.1405" lon="-0.54634">
        <ele>42</ele>
        <time>2020-09-03T06:24:38Z</time>
      </trkpt>
      <trkpt lat="45.1405" lon="-0.54636">
        <ele>42</ele>
        <time>2020-09-03T06:24:39Z</time>
      </trkpt>
      <trkpt lat="45.1405" lon="-0.54638">
        <ele>42</ele>
        <time>2020-09-03T06:24:40Z</time>
      </trkpt>
      <trkpt lat="45.1405" lon="-0.5464">
        <ele>42</ele>
        <time>2020-09-03T06:24:41Z</time>
      </trkpt>
      <trkpt lat="45.1405" lon="-0.54642">
        <ele>42</ele>
        <time>2020-09-03T06:24:42Z</time>
      </trkpt>
      <trkpt lat="45.1405" lon="-0.54643">
        <ele>42</ele>
        <time>2020-09-03T06:24:43Z</time>
      </trkpt>
      <trkpt lat="45.1405" lon="-0.54644">
        <ele>42</ele>
        <time>2020-09-03T06:24:44Z</time>
      </trkpt>
      <trkpt lat="45.1405" lon="-0.54646">
        <ele>42</ele>
        <time>2020-09-03T06:24:46Z</time>
      </trkpt>
      <trkpt lat="45.14049" lon="-0.54649">
        <ele>42</ele>
        <time>2020-09-03T06:24:47Z</time>
      </trkpt>
      <trkpt lat="45.1405" lon="-0.54652">
        <ele>42</ele>
        <time>2020-09-03T06:24:48Z</time>
      </trkpt>
      <trkpt lat="45.1405" lon="-0.54653">
        <ele>42</ele>
        <time>2020-09-03T06:24:50Z</time>
      </trkpt>
      <trkpt lat="45.1405" lon="-0.54655">
        <ele>42</ele>
        <time>2020-09-03T06:24:51Z</time>
      </trkpt>
      <trkpt lat="45.1405" lon="-0.54657">
        <ele>42</ele>
        <time>2020-09-03T06:24:52Z</time>
      </trkpt>
      <trkpt lat="45.1405" lon="-0.54658">
        <ele>42</ele>
        <time>2020-09-03T06:24:53Z</time>
      </trkpt>
      <trkpt lat="45.1405" lon="-0.54662">
        <ele>42</ele>
        <time>2020-09-03T06:24:55Z</time>
      </trkpt>
      <trkpt lat="45.14049" lon="-0.54663">
        <ele>42</ele>
        <time>2020-09-03T06:24:56Z</time>
      </trkpt>
      <trkpt lat="45.14049" lon="-0.54665">
        <ele>42</ele>
        <time>2020-09-03T06:24:57Z</time>
      </trkpt>
      <trkpt lat="45.14049" lon="-0.54667">
        <ele>42</ele>
        <time>2020-09-03T06:24:58Z</time>
      </trkpt>
      <trkpt lat="45.14049" lon="-0.54669">
        <ele>42</ele>
        <time>2020-09-03T06:24:59Z</time>
      </trkpt>
      <trkpt lat="45.14049" lon="-0.54671">
        <ele>42</ele>
        <time>2020-09-03T06:25:00Z</time>
      </trkpt>
      <trkpt lat="45.1405" lon="-0.54675">
        <ele>42.1</ele>
        <time>2020-09-03T06:25:01Z</time>
      </trkpt>
      <trkpt lat="45.1405" lon="-0.54677">
        <ele>42.1</ele>
        <time>2020-09-03T06:25:03Z</time>
      </trkpt>
      <trkpt lat="45.1405" lon="-0.54679">
        <ele>42.1</ele>
        <time>2020-09-03T06:25:05Z</time>
      </trkpt>
      <trkpt lat="45.1405" lon="-0.54681">
        <ele>42.1</ele>
        <time>2020-09-03T06:25:06Z</time>
      </trkpt>
      <trkpt lat="45.14051" lon="-0.54685">
        <ele>42.1</ele>
        <time>2020-09-03T06:25:08Z</time>
      </trkpt>
      <trkpt lat="45.14051" lon="-0.54686">
        <ele>42.1</ele>
        <time>2020-09-03T06:25:09Z</time>
      </trkpt>
      <trkpt lat="45.14052" lon="-0.5469">
        <ele>42.1</ele>
        <time>2020-09-03T06:25:11Z</time>
      </trkpt>
      <trkpt lat="45.14052" lon="-0.54693">
        <ele>42.2</ele>
        <time>2020-09-03T06:25:12Z</time>
      </trkpt>
      <trkpt lat="45.14052" lon="-0.54696">
        <ele>42.2</ele>
        <time>2020-09-03T06:25:14Z</time>
      </trkpt>
      <trkpt lat="45.14052" lon="-0.547">
        <ele>42.2</ele>
        <time>2020-09-03T06:25:15Z</time>
      </trkpt>
      <trkpt lat="45.14052" lon="-0.54701">
        <ele>42.2</ele>
        <time>2020-09-03T06:25:16Z</time>
      </trkpt>
      <trkpt lat="45.14052" lon="-0.54703">
        <ele>42.2</ele>
        <time>2020-09-03T06:25:17Z</time>
      </trkpt>
      <trkpt lat="45.14053" lon="-0.54705">
        <ele>42.2</ele>
        <time>2020-09-03T06:25:19Z</time>
      </trkpt>
      <trkpt lat="45.14053" lon="-0.54707">
        <ele>42.2</ele>
        <time>2020-09-03T06:25:20Z</time>
      </trkpt>
      <trkpt lat="45.14052" lon="-0.54709">
        <ele>42.2</ele>
        <time>2020-09-03T06:25:21Z</time>
      </trkpt>
      <trkpt lat="45.14052" lon="-0.5471">
        <ele>42.2</ele>
        <time>2020-09-03T06:25:22Z</time>
      </trkpt>
      <trkpt lat="45.14052" lon="-0.54713">
        <ele>42.2</ele>
        <time>2020-09-03T06:25:24Z</time>
      </trkpt>
      <trkpt lat="45.14051" lon="-0.54715">
        <ele>42.2</ele>
        <time>2020-09-03T06:25:25Z</time>
      </trkpt>
      <trkpt lat="45.14051" lon="-0.54717">
        <ele>42.2</ele>
        <time>2020-09-03T06:25:26Z</time>
      </trkpt>
      <trkpt lat="45.14051" lon="-0.54719">
        <ele>42.2</ele>
        <time>2020-09-03T06:25:28Z</time>
      </trkpt>
      <trkpt lat="45.14051" lon="-0.54722">
        <ele>42.2</ele>
        <time>2020-09-03T06:25:29Z</time>
      </trkpt>
      <trkpt lat="45.14051" lon="-0.54724">
        <ele>42.2</ele>
        <time>2020-09-03T06:25:30Z</time>
      </trkpt>
      <trkpt lat="45.14051" lon="-0.54727">
        <ele>42.2</ele>
        <time>2020-09-03T06:25:32Z</time>
      </trkpt>
      <trkpt lat="45.14051" lon="-0.54728">
        <ele>42.2</ele>
        <time>2020-09-03T06:25:34Z</time>
      </trkpt>
      <trkpt lat="45.14051" lon="-0.5473">
        <ele>42.2</ele>
        <time>2020-09-03T06:25:35Z</time>
      </trkpt>
      <trkpt lat="45.14051" lon="-0.54732">
        <ele>42.2</ele>
        <time>2020-09-03T06:25:36Z</time>
      </trkpt>
      <trkpt lat="45.14051" lon="-0.54734">
        <ele>42.2</ele>
        <time>2020-09-03T06:25:37Z</time>
      </trkpt>
      <trkpt lat="45.14051" lon="-0.54736">
        <ele>42.2</ele>
        <time>2020-09-03T06:25:39Z</time>
      </trkpt>
      <trkpt lat="45.14053" lon="-0.54738">
        <ele>42.2</ele>
        <time>2020-09-03T06:25:40Z</time>
      </trkpt>
      <trkpt lat="45.14053" lon="-0.5474">
        <ele>42.2</ele>
        <time>2020-09-03T06:25:42Z</time>
      </trkpt>
      <trkpt lat="45.14053" lon="-0.54742">
        <ele>42.2</ele>
        <time>2020-09-03T06:25:43Z</time>
      </trkpt>
      <trkpt lat="45.14053" lon="-0.54746">
        <ele>42.2</ele>
        <time>2020-09-03T06:25:45Z</time>
      </trkpt>
      <trkpt lat="45.14053" lon="-0.54749">
        <ele>42.2</ele>
        <time>2020-09-03T06:25:46Z</time>
      </trkpt>
      <trkpt lat="45.14054" lon="-0.5475">
        <ele>42.2</ele>
        <time>2020-09-03T06:25:47Z</time>
      </trkpt>
      <trkpt lat="45.14054" lon="-0.54752">
        <ele>42.2</ele>
        <time>2020-09-03T06:25:48Z</time>
      </trkpt>
      <trkpt lat="45.14055" lon="-0.54754">
        <ele>42.2</ele>
        <time>2020-09-03T06:25:49Z</time>
      </trkpt>
      <trkpt lat="45.14056" lon="-0.54756">
        <ele>42.2</ele>
        <time>2020-09-03T06:25:50Z</time>
      </trkpt>
      <trkpt lat="45.14057" lon="-0.54759">
        <ele>42.2</ele>
        <time>2020-09-03T06:25:52Z</time>
      </trkpt>
      <trkpt lat="45.14058" lon="-0.54762">
        <ele>42.2</ele>
        <time>2020-09-03T06:25:54Z</time>
      </trkpt>
      <trkpt lat="45.1406" lon="-0.54767">
        <ele>42.2</ele>
        <time>2020-09-03T06:25:55Z</time>
      </trkpt>
      <trkpt lat="45.1406" lon="-0.54768">
        <ele>42.2</ele>
        <time>2020-09-03T06:25:56Z</time>
      </trkpt>
      <trkpt lat="45.14061" lon="-0.54773">
        <ele>42.2</ele>
        <time>2020-09-03T06:25:58Z</time>
      </trkpt>
      <trkpt lat="45.14061" lon="-0.54774">
        <ele>42.2</ele>
        <time>2020-09-03T06:25:59Z</time>
      </trkpt>
      <trkpt lat="45.14062" lon="-0.54776">
        <ele>42.2</ele>
        <time>2020-09-03T06:26:00Z</time>
      </trkpt>
      <trkpt lat="45.14062" lon="-0.54777">
        <ele>42.2</ele>
        <time>2020-09-03T06:26:02Z</time>
      </trkpt>
      <trkpt lat="45.14062" lon="-0.54779">
        <ele>42.2</ele>
        <time>2020-09-03T06:26:03Z</time>
      </trkpt>
      <trkpt lat="45.14061" lon="-0.54783">
        <ele>42.2</ele>
        <time>2020-09-03T06:26:04Z</time>
      </trkpt>
      <trkpt lat="45.14061" lon="-0.54785">
        <ele>42.2</ele>
        <time>2020-09-03T06:26:05Z</time>
      </trkpt>
      <trkpt lat="45.1406" lon="-0.54788">
        <ele>42.3</ele>
        <time>2020-09-03T06:26:07Z</time>
      </trkpt>
      <trkpt lat="45.1406" lon="-0.5479">
        <ele>42.3</ele>
        <time>2020-09-03T06:26:08Z</time>
      </trkpt>
      <trkpt lat="45.14059" lon="-0.54794">
        <ele>42.3</ele>
        <time>2020-09-03T06:26:10Z</time>
      </trkpt>
      <trkpt lat="45.14058" lon="-0.54796">
        <ele>42.3</ele>
        <time>2020-09-03T06:26:11Z</time>
      </trkpt>
      <trkpt lat="45.14058" lon="-0.54798">
        <ele>42.3</ele>
        <time>2020-09-03T06:26:12Z</time>
      </trkpt>
      <trkpt lat="45.14057" lon="-0.54799">
        <ele>42.3</ele>
        <time>2020-09-03T06:26:13Z</time>
      </trkpt>
      <trkpt lat="45.14055" lon="-0.54802">
        <ele>42.3</ele>
        <time>2020-09-03T06:26:14Z</time>
      </trkpt>
      <trkpt lat="45.14054" lon="-0.54804">
        <ele>42.3</ele>
        <time>2020-09-03T06:26:16Z</time>
      </trkpt>
      <trkpt lat="45.14053" lon="-0.54805">
        <ele>42.3</ele>
        <time>2020-09-03T06:26:17Z</time>
      </trkpt>
      <trkpt lat="45.14052" lon="-0.54807">
        <ele>42.3</ele>
        <time>2020-09-03T06:26:19Z</time>
      </trkpt>
      <trkpt lat="45.14052" lon="-0.54808">
        <ele>42.3</ele>
        <time>2020-09-03T06:26:20Z</time>
      </trkpt>
      <trkpt lat="45.14051" lon="-0.5481">
        <ele>42.3</ele>
        <time>2020-09-03T06:26:22Z</time>
      </trkpt>
      <trkpt lat="45.1405" lon="-0.54811">
        <ele>42.3</ele>
        <time>2020-09-03T06:26:23Z</time>
      </trkpt>
      <trkpt lat="45.14049" lon="-0.54813">
        <ele>42.3</ele>
        <time>2020-09-03T06:26:24Z</time>
      </trkpt>
      <trkpt lat="45.14048" lon="-0.54814">
        <ele>42.3</ele>
        <time>2020-09-03T06:26:25Z</time>
      </trkpt>
      <trkpt lat="45.14047" lon="-0.54816">
        <ele>42.3</ele>
        <time>2020-09-03T06:26:26Z</time>
      </trkpt>
      <trkpt lat="45.14045" lon="-0.54817">
        <ele>42.3</ele>
        <time>2020-09-03T06:26:28Z</time>
      </trkpt>
      <trkpt lat="45.14044" lon="-0.54819">
        <ele>42.3</ele>
        <time>2020-09-03T06:26:29Z</time>
      </trkpt>
      <trkpt lat="45.14043" lon="-0.5482">
        <ele>42.3</ele>
        <time>2020-09-03T06:26:30Z</time>
      </trkpt>
      <trkpt lat="45.14041" lon="-0.54822">
        <ele>42.3</ele>
        <time>2020-09-03T06:26:32Z</time>
      </trkpt>
      <trkpt lat="45.1404" lon="-0.54823">
        <ele>42.3</ele>
        <time>2020-09-03T06:26:33Z</time>
      </trkpt>
      <trkpt lat="45.1404" lon="-0.54824">
        <ele>42.3</ele>
        <time>2020-09-03T06:26:34Z</time>
      </trkpt>
      <trkpt lat="45.14039" lon="-0.54826">
        <ele>42.3</ele>
        <time>2020-09-03T06:26:35Z</time>
      </trkpt>
      <trkpt lat="45.14038" lon="-0.54828">
        <ele>42.3</ele>
        <time>2020-09-03T06:26:36Z</time>
      </trkpt>
      <trkpt lat="45.14038" lon="-0.5483">
        <ele>42.2</ele>
        <time>2020-09-03T06:26:37Z</time>
      </trkpt>
      <trkpt lat="45.14039" lon="-0.54833">
        <ele>42.2</ele>
        <time>2020-09-03T06:26:39Z</time>
      </trkpt>
      <trkpt lat="45.1404" lon="-0.54837">
        <ele>42.2</ele>
        <time>2020-09-03T06:26:40Z</time>
      </trkpt>
      <trkpt lat="45.14041" lon="-0.54839">
        <ele>42.1</ele>
        <time>2020-09-03T06:26:42Z</time>
      </trkpt>
      <trkpt lat="45.14042" lon="-0.54841">
        <ele>42.1</ele>
        <time>2020-09-03T06:26:43Z</time>
      </trkpt>
      <trkpt lat="45.14042" lon="-0.54842">
        <ele>42.1</ele>
        <time>2020-09-03T06:26:44Z</time>
      </trkpt>
      <trkpt lat="45.14044" lon="-0.54844">
        <ele>42.1</ele>
        <time>2020-09-03T06:26:45Z</time>
      </trkpt>
      <trkpt lat="45.14045" lon="-0.54847">
        <ele>42.1</ele>
        <time>2020-09-03T06:26:47Z</time>
      </trkpt>
      <trkpt lat="45.14046" lon="-0.54848">
        <ele>42.1</ele>
        <time>2020-09-03T06:26:48Z</time>
      </trkpt>
      <trkpt lat="45.14047" lon="-0.54851">
        <ele>42</ele>
        <time>2020-09-03T06:26:49Z</time>
      </trkpt>
      <trkpt lat="45.14048" lon="-0.54853">
        <ele>42</ele>
        <time>2020-09-03T06:26:50Z</time>
      </trkpt>
      <trkpt lat="45.14049" lon="-0.54855">
        <ele>42</ele>
        <time>2020-09-03T06:26:52Z</time>
      </trkpt>
      <trkpt lat="45.14049" lon="-0.54856">
        <ele>42</ele>
        <time>2020-09-03T06:26:53Z</time>
      </trkpt>
      <trkpt lat="45.14049" lon="-0.54857">
        <ele>42</ele>
        <time>2020-09-03T06:26:54Z</time>
      </trkpt>
      <trkpt lat="45.1405" lon="-0.5486">
        <ele>41.9</ele>
        <time>2020-09-03T06:26:56Z</time>
      </trkpt>
      <trkpt lat="45.14051" lon="-0.54862">
        <ele>41.9</ele>
        <time>2020-09-03T06:26:57Z</time>
      </trkpt>
      <trkpt lat="45.14051" lon="-0.54864">
        <ele>41.9</ele>
        <time>2020-09-03T06:26:59Z</time>
      </trkpt>
      <trkpt lat="45.14051" lon="-0.54866">
        <ele>41.9</ele>
        <time>2020-09-03T06:27:00Z</time>
      </trkpt>
      <trkpt lat="45.14052" lon="-0.54869">
        <ele>41.9</ele>
        <time>2020-09-03T06:27:02Z</time>
      </trkpt>
      <trkpt lat="45.14053" lon="-0.54873">
        <ele>41.8</ele>
        <time>2020-09-03T06:27:04Z</time>
      </trkpt>
      <trkpt lat="45.14054" lon="-0.54875">
        <ele>41.8</ele>
        <time>2020-09-03T06:27:05Z</time>
      </trkpt>
      <trkpt lat="45.14055" lon="-0.54877">
        <ele>41.8</ele>
        <time>2020-09-03T06:27:06Z</time>
      </trkpt>
      <trkpt lat="45.14055" lon="-0.54878">
        <ele>41.8</ele>
        <time>2020-09-03T06:27:07Z</time>
      </trkpt>
      <trkpt lat="45.14055" lon="-0.54883">
        <ele>41.7</ele>
        <time>2020-09-03T06:27:09Z</time>
      </trkpt>
      <trkpt lat="45.14055" lon="-0.54885">
        <ele>41.7</ele>
        <time>2020-09-03T06:27:10Z</time>
      </trkpt>
      <trkpt lat="45.14055" lon="-0.54889">
        <ele>41.7</ele>
        <time>2020-09-03T06:27:12Z</time>
      </trkpt>
      <trkpt lat="45.14056" lon="-0.54893">
        <ele>41.7</ele>
        <time>2020-09-03T06:27:13Z</time>
      </trkpt>
      <trkpt lat="45.14057" lon="-0.54894">
        <ele>41.6</ele>
        <time>2020-09-03T06:27:14Z</time>
      </trkpt>
      <trkpt lat="45.14057" lon="-0.54897">
        <ele>41.6</ele>
        <time>2020-09-03T06:27:16Z</time>
      </trkpt>
      <trkpt lat="45.14057" lon="-0.54898">
        <ele>41.6</ele>
        <time>2020-09-03T06:27:17Z</time>
      </trkpt>
      <trkpt lat="45.14057" lon="-0.549">
        <ele>41.6</ele>
        <time>2020-09-03T06:27:18Z</time>
      </trkpt>
      <trkpt lat="45.14057" lon="-0.54902">
        <ele>41.6</ele>
        <time>2020-09-03T06:27:19Z</time>
      </trkpt>
      <trkpt lat="45.14057" lon="-0.54903">
        <ele>41.5</ele>
        <time>2020-09-03T06:27:20Z</time>
      </trkpt>
      <trkpt lat="45.14057" lon="-0.54906">
        <ele>41.5</ele>
        <time>2020-09-03T06:27:21Z</time>
      </trkpt>
      <trkpt lat="45.14057" lon="-0.54907">
        <ele>41.5</ele>
        <time>2020-09-03T06:27:23Z</time>
      </trkpt>
      <trkpt lat="45.14058" lon="-0.5491">
        <ele>41.5</ele>
        <time>2020-09-03T06:27:24Z</time>
      </trkpt>
      <trkpt lat="45.14058" lon="-0.54912">
        <ele>41.4</ele>
        <time>2020-09-03T06:27:25Z</time>
      </trkpt>
      <trkpt lat="45.14059" lon="-0.54916">
        <ele>41.4</ele>
        <time>2020-09-03T06:27:27Z</time>
      </trkpt>
      <trkpt lat="45.1406" lon="-0.54917">
        <ele>41.4</ele>
        <time>2020-09-03T06:27:28Z</time>
      </trkpt>
      <trkpt lat="45.1406" lon="-0.5492">
        <ele>41.3</ele>
        <time>2020-09-03T06:27:29Z</time>
      </trkpt>
      <trkpt lat="45.1406" lon="-0.54921">
        <ele>41.3</ele>
        <time>2020-09-03T06:27:30Z</time>
      </trkpt>
      <trkpt lat="45.1406" lon="-0.54922">
        <ele>41.3</ele>
        <time>2020-09-03T06:27:31Z</time>
      </trkpt>
      <trkpt lat="45.14061" lon="-0.54924">
        <ele>41.3</ele>
        <time>2020-09-03T06:27:32Z</time>
      </trkpt>
      <trkpt lat="45.14061" lon="-0.54926">
        <ele>41.3</ele>
        <time>2020-09-03T06:27:34Z</time>
      </trkpt>
      <trkpt lat="45.14062" lon="-0.54927">
        <ele>41.3</ele>
        <time>2020-09-03T06:27:35Z</time>
      </trkpt>
      <trkpt lat="45.14063" lon="-0.54932">
        <ele>41.2</ele>
        <time>2020-09-03T06:27:37Z</time>
      </trkpt>
      <trkpt lat="45.14064" lon="-0.54934">
        <ele>41.2</ele>
        <time>2020-09-03T06:27:39Z</time>
      </trkpt>
      <trkpt lat="45.14065" lon="-0.54936">
        <ele>41.2</ele>
        <time>2020-09-03T06:27:40Z</time>
      </trkpt>
      <trkpt lat="45.14065" lon="-0.54937">
        <ele>41.1</ele>
        <time>2020-09-03T06:27:41Z</time>
      </trkpt>
      <trkpt lat="45.14066" lon="-0.54939">
        <ele>41.1</ele>
        <time>2020-09-03T06:27:43Z</time>
      </trkpt>
      <trkpt lat="45.14066" lon="-0.54941">
        <ele>41.1</ele>
        <time>2020-09-03T06:27:44Z</time>
      </trkpt>
      <trkpt lat="45.14067" lon="-0.54942">
        <ele>41.1</ele>
        <time>2020-09-03T06:27:45Z</time>
      </trkpt>
      <trkpt lat="45.14067" lon="-0.54944">
        <ele>41.1</ele>
        <time>2020-09-03T06:27:46Z</time>
      </trkpt>
      <trkpt lat="45.14067" lon="-0.54947">
        <ele>41</ele>
        <time>2020-09-03T06:27:48Z</time>
      </trkpt>
      <trkpt lat="45.14068" lon="-0.54948">
        <ele>41</ele>
        <time>2020-09-03T06:27:49Z</time>
      </trkpt>
      <trkpt lat="45.14068" lon="-0.5495">
        <ele>41</ele>
        <time>2020-09-03T06:27:50Z</time>
      </trkpt>
      <trkpt lat="45.14069" lon="-0.54954">
        <ele>40.9</ele>
        <time>2020-09-03T06:27:51Z</time>
      </trkpt>
      <trkpt lat="45.1407" lon="-0.54957">
        <ele>40.9</ele>
        <time>2020-09-03T06:27:53Z</time>
      </trkpt>
      <trkpt lat="45.14071" lon="-0.54958">
        <ele>40.9</ele>
        <time>2020-09-03T06:27:54Z</time>
      </trkpt>
      <trkpt lat="45.14071" lon="-0.5496">
        <ele>40.9</ele>
        <time>2020-09-03T06:27:55Z</time>
      </trkpt>
      <trkpt lat="45.14072" lon="-0.54963">
        <ele>40.8</ele>
        <time>2020-09-03T06:27:57Z</time>
      </trkpt>
      <trkpt lat="45.14073" lon="-0.54964">
        <ele>40.8</ele>
        <time>2020-09-03T06:27:58Z</time>
      </trkpt>
      <trkpt lat="45.14074" lon="-0.54966">
        <ele>40.8</ele>
        <time>2020-09-03T06:27:59Z</time>
      </trkpt>
      <trkpt lat="45.14075" lon="-0.54968">
        <ele>40.7</ele>
        <time>2020-09-03T06:28:01Z</time>
      </trkpt>
      <trkpt lat="45.14076" lon="-0.54971">
        <ele>40.7</ele>
        <time>2020-09-03T06:28:02Z</time>
      </trkpt>
      <trkpt lat="45.14077" lon="-0.54973">
        <ele>40.7</ele>
        <time>2020-09-03T06:28:04Z</time>
      </trkpt>
      <trkpt lat="45.14079" lon="-0.54977">
        <ele>40.6</ele>
        <time>2020-09-03T06:28:06Z</time>
      </trkpt>
      <trkpt lat="45.1408" lon="-0.54978">
        <ele>40.6</ele>
        <time>2020-09-03T06:28:07Z</time>
      </trkpt>
      <trkpt lat="45.14081" lon="-0.5498">
        <ele>40.6</ele>
        <time>2020-09-03T06:28:08Z</time>
      </trkpt>
      <trkpt lat="45.14082" lon="-0.54981">
        <ele>40.6</ele>
        <time>2020-09-03T06:28:10Z</time>
      </trkpt>
      <trkpt lat="45.14085" lon="-0.54984">
        <ele>40.5</ele>
        <time>2020-09-03T06:28:11Z</time>
      </trkpt>
      <trkpt lat="45.14086" lon="-0.54985">
        <ele>40.5</ele>
        <time>2020-09-03T06:28:12Z</time>
      </trkpt>
      <trkpt lat="45.14088" lon="-0.54987">
        <ele>40.5</ele>
        <time>2020-09-03T06:28:13Z</time>
      </trkpt>
      <trkpt lat="45.14088" lon="-0.54987">
        <ele>40.4</ele>
        <time>2020-09-03T06:28:14Z</time>
      </trkpt>
      <trkpt lat="45.14089" lon="-0.54988">
        <ele>40.4</ele>
        <time>2020-09-03T06:28:15Z</time>
      </trkpt>
      <trkpt lat="45.14091" lon="-0.5499">
        <ele>40.4</ele>
        <time>2020-09-03T06:28:17Z</time>
      </trkpt>
      <trkpt lat="45.14092" lon="-0.5499">
        <ele>40.4</ele>
        <time>2020-09-03T06:28:18Z</time>
      </trkpt>
      <trkpt lat="45.14093" lon="-0.54991">
        <ele>40.4</ele>
        <time>2020-09-03T06:28:19Z</time>
      </trkpt>
      <trkpt lat="45.14095" lon="-0.54992">
        <ele>40.3</ele>
        <time>2020-09-03T06:28:21Z</time>
      </trkpt>
      <trkpt lat="45.14097" lon="-0.54993">
        <ele>40.3</ele>
        <time>2020-09-03T06:28:22Z</time>
      </trkpt>
      <trkpt lat="45.14098" lon="-0.54994">
        <ele>40.3</ele>
        <time>2020-09-03T06:28:23Z</time>
      </trkpt>
      <trkpt lat="45.14098" lon="-0.54994">
        <ele>40.3</ele>
        <time>2020-09-03T06:28:24Z</time>
      </trkpt>
      <trkpt lat="45.14099" lon="-0.54995">
        <ele>40.2</ele>
        <time>2020-09-03T06:28:25Z</time>
      </trkpt>
      <trkpt lat="45.14102" lon="-0.54997">
        <ele>40.2</ele>
        <time>2020-09-03T06:28:27Z</time>
      </trkpt>
      <trkpt lat="45.14102" lon="-0.54998">
        <ele>40.2</ele>
        <time>2020-09-03T06:28:28Z</time>
      </trkpt>
      <trkpt lat="45.14103" lon="-0.54999">
        <ele>40.2</ele>
        <time>2020-09-03T06:28:29Z</time>
      </trkpt>
      <trkpt lat="45.14104" lon="-0.55">
        <ele>40.2</ele>
        <time>2020-09-03T06:28:31Z</time>
      </trkpt>
      <trkpt lat="45.14106" lon="-0.55002">
        <ele>40.1</ele>
        <time>2020-09-03T06:28:33Z</time>
      </trkpt>
      <trkpt lat="45.14107" lon="-0.55002">
        <ele>40.1</ele>
        <time>2020-09-03T06:28:34Z</time>
      </trkpt>
      <trkpt lat="45.14108" lon="-0.55004">
        <ele>40.1</ele>
        <time>2020-09-03T06:28:35Z</time>
      </trkpt>
      <trkpt lat="45.14109" lon="-0.55004">
        <ele>40.1</ele>
        <time>2020-09-03T06:28:36Z</time>
      </trkpt>
      <trkpt lat="45.1411" lon="-0.55005">
        <ele>40</ele>
        <time>2020-09-03T06:28:37Z</time>
      </trkpt>
      <trkpt lat="45.14111" lon="-0.55006">
        <ele>40</ele>
        <time>2020-09-03T06:28:39Z</time>
      </trkpt>
      <trkpt lat="45.14112" lon="-0.55007">
        <ele>40</ele>
        <time>2020-09-03T06:28:40Z</time>
      </trkpt>
      <trkpt lat="45.14114" lon="-0.55008">
        <ele>40</ele>
        <time>2020-09-03T06:28:42Z</time>
      </trkpt>
      <trkpt lat="45.14113" lon="-0.55008">
        <ele>40</ele>
        <time>2020-09-03T06:28:43Z</time>
      </trkpt>
      <trkpt lat="45.14112" lon="-0.55008">
        <ele>39.9</ele>
        <time>2020-09-03T06:28:44Z</time>
      </trkpt>
      <trkpt lat="45.14112" lon="-0.55008">
        <ele>39.9</ele>
        <time>2020-09-03T06:28:45Z</time>
      </trkpt>
      <trkpt lat="45.14113" lon="-0.55009">
        <ele>39.9</ele>
        <time>2020-09-03T06:28:47Z</time>
      </trkpt>
      <trkpt lat="45.14115" lon="-0.5501">
        <ele>39.9</ele>
        <time>2020-09-03T06:28:48Z</time>
      </trkpt>
      <trkpt lat="45.14116" lon="-0.5501">
        <ele>39.9</ele>
        <time>2020-09-03T06:28:49Z</time>
      </trkpt>
      <trkpt lat="45.14119" lon="-0.55012">
        <ele>39.8</ele>
        <time>2020-09-03T06:28:51Z</time>
      </trkpt>
      <trkpt lat="45.1412" lon="-0.55013">
        <ele>39.8</ele>
        <time>2020-09-03T06:28:52Z</time>
      </trkpt>
      <trkpt lat="45.14123" lon="-0.55016">
        <ele>39.7</ele>
        <time>2020-09-03T06:28:54Z</time>
      </trkpt>
      <trkpt lat="45.14124" lon="-0.55016">
        <ele>39.7</ele>
        <time>2020-09-03T06:28:55Z</time>
      </trkpt>
      <trkpt lat="45.14127" lon="-0.55018">
        <ele>39.7</ele>
        <time>2020-09-03T06:28:57Z</time>
      </trkpt>
      <trkpt lat="45.14128" lon="-0.55019">
        <ele>39.7</ele>
        <time>2020-09-03T06:28:58Z</time>
      </trkpt>
      <trkpt lat="45.14129" lon="-0.5502">
        <ele>39.6</ele>
        <time>2020-09-03T06:28:59Z</time>
      </trkpt>
      <trkpt lat="45.14132" lon="-0.55023">
        <ele>39.6</ele>
        <time>2020-09-03T06:29:01Z</time>
      </trkpt>
      <trkpt lat="45.14133" lon="-0.55023">
        <ele>39.6</ele>
        <time>2020-09-03T06:29:02Z</time>
      </trkpt>
      <trkpt lat="45.14134" lon="-0.55024">
        <ele>39.5</ele>
        <time>2020-09-03T06:29:03Z</time>
      </trkpt>
      <trkpt lat="45.14135" lon="-0.55025">
        <ele>39.5</ele>
        <time>2020-09-03T06:29:04Z</time>
      </trkpt>
      <trkpt lat="45.14136" lon="-0.55026">
        <ele>39.5</ele>
        <time>2020-09-03T06:29:06Z</time>
      </trkpt>
      <trkpt lat="45.14138" lon="-0.55028">
        <ele>39.5</ele>
        <time>2020-09-03T06:29:07Z</time>
      </trkpt>
      <trkpt lat="45.14139" lon="-0.55029">
        <ele>39.5</ele>
        <time>2020-09-03T06:29:08Z</time>
      </trkpt>
      <trkpt lat="45.14141" lon="-0.55031">
        <ele>39.4</ele>
        <time>2020-09-03T06:29:10Z</time>
      </trkpt>
      <trkpt lat="45.14142" lon="-0.55032">
        <ele>39.4</ele>
        <time>2020-09-03T06:29:11Z</time>
      </trkpt>
      <trkpt lat="45.14143" lon="-0.55033">
        <ele>39.4</ele>
        <time>2020-09-03T06:29:12Z</time>
      </trkpt>
      <trkpt lat="45.14144" lon="-0.55033">
        <ele>39.4</ele>
        <time>2020-09-03T06:29:13Z</time>
      </trkpt>
      <trkpt lat="45.14145" lon="-0.55034">
        <ele>39.3</ele>
        <time>2020-09-03T06:29:14Z</time>
      </trkpt>
      <trkpt lat="45.14146" lon="-0.55034">
        <ele>39.3</ele>
        <time>2020-09-03T06:29:16Z</time>
      </trkpt>
      <trkpt lat="45.14149" lon="-0.55036">
        <ele>39.3</ele>
        <time>2020-09-03T06:29:17Z</time>
      </trkpt>
      <trkpt lat="45.1415" lon="-0.55036">
        <ele>39.3</ele>
        <time>2020-09-03T06:29:18Z</time>
      </trkpt>
      <trkpt lat="45.1415" lon="-0.55036">
        <ele>39.3</ele>
        <time>2020-09-03T06:29:19Z</time>
      </trkpt>
      <trkpt lat="45.14152" lon="-0.55037">
        <ele>39.2</ele>
        <time>2020-09-03T06:29:20Z</time>
      </trkpt>
      <trkpt lat="45.14154" lon="-0.55038">
        <ele>39.2</ele>
        <time>2020-09-03T06:29:22Z</time>
      </trkpt>
      <trkpt lat="45.14156" lon="-0.55039">
        <ele>39.2</ele>
        <time>2020-09-03T06:29:23Z</time>
      </trkpt>
      <trkpt lat="45.14157" lon="-0.55039">
        <ele>39.1</ele>
        <time>2020-09-03T06:29:25Z</time>
      </trkpt>
      <trkpt lat="45.14158" lon="-0.55039">
        <ele>39.1</ele>
        <time>2020-09-03T06:29:26Z</time>
      </trkpt>
      <trkpt lat="45.1416" lon="-0.5504">
        <ele>39.1</ele>
        <time>2020-09-03T06:29:27Z</time>
      </trkpt>
      <trkpt lat="45.14161" lon="-0.5504">
        <ele>39.1</ele>
        <time>2020-09-03T06:29:28Z</time>
      </trkpt>
      <trkpt lat="45.14163" lon="-0.55039">
        <ele>39</ele>
        <time>2020-09-03T06:29:29Z</time>
      </trkpt>
      <trkpt lat="45.14164" lon="-0.55038">
        <ele>39</ele>
        <time>2020-09-03T06:29:30Z</time>
      </trkpt>
      <trkpt lat="45.14165" lon="-0.55038">
        <ele>39</ele>
        <time>2020-09-03T06:29:31Z</time>
      </trkpt>
      <trkpt lat="45.14166" lon="-0.55037">
        <ele>39</ele>
        <time>2020-09-03T06:29:33Z</time>
      </trkpt>
      <trkpt lat="45.14166" lon="-0.55037">
        <ele>39</ele>
        <time>2020-09-03T06:29:35Z</time>
      </trkpt>
      <trkpt lat="45.14167" lon="-0.55037">
        <ele>39</ele>
        <time>2020-09-03T06:29:36Z</time>
      </trkpt>
      <trkpt lat="45.14167" lon="-0.55037">
        <ele>39</ele>
        <time>2020-09-03T06:29:37Z</time>
      </trkpt>
      <trkpt lat="45.14168" lon="-0.55037">
        <ele>39</ele>
        <time>2020-09-03T06:29:39Z</time>
      </trkpt>
      <trkpt lat="45.14168" lon="-0.55037">
        <ele>38.9</ele>
        <time>2020-09-03T06:29:41Z</time>
      </trkpt>
      <trkpt lat="45.14169" lon="-0.55037">
        <ele>38.9</ele>
        <time>2020-09-03T06:29:42Z</time>
      </trkpt>
      <trkpt lat="45.14171" lon="-0.55038">
        <ele>38.9</ele>
        <time>2020-09-03T06:29:44Z</time>
      </trkpt>
      <trkpt lat="45.14172" lon="-0.55038">
        <ele>38.9</ele>
        <time>2020-09-03T06:29:45Z</time>
      </trkpt>
      <trkpt lat="45.14174" lon="-0.55038">
        <ele>38.9</ele>
        <time>2020-09-03T06:29:46Z</time>
      </trkpt>
      <trkpt lat="45.14177" lon="-0.55038">
        <ele>38.8</ele>
        <time>2020-09-03T06:29:48Z</time>
      </trkpt>
      <trkpt lat="45.14178" lon="-0.55038">
        <ele>38.8</ele>
        <time>2020-09-03T06:29:49Z</time>
      </trkpt>
      <trkpt lat="45.1418" lon="-0.55038">
        <ele>38.8</ele>
        <time>2020-09-03T06:29:50Z</time>
      </trkpt>
      <trkpt lat="45.14184" lon="-0.55039">
        <ele>38.7</ele>
        <time>2020-09-03T06:29:52Z</time>
      </trkpt>
      <trkpt lat="45.14185" lon="-0.55039">
        <ele>38.7</ele>
        <time>2020-09-03T06:29:53Z</time>
      </trkpt>
      <trkpt lat="45.14186" lon="-0.55039">
        <ele>38.7</ele>
        <time>2020-09-03T06:29:54Z</time>
      </trkpt>
      <trkpt lat="45.14186" lon="-0.55039">
        <ele>38.7</ele>
        <time>2020-09-03T06:29:55Z</time>
      </trkpt>
      <trkpt lat="45.1419" lon="-0.55038">
        <ele>38.6</ele>
        <time>2020-09-03T06:29:57Z</time>
      </trkpt>
      <trkpt lat="45.1419" lon="-0.55038">
        <ele>38.6</ele>
        <time>2020-09-03T06:29:58Z</time>
      </trkpt>
      <trkpt lat="45.14192" lon="-0.55038">
        <ele>38.6</ele>
        <time>2020-09-03T06:30:00Z</time>
      </trkpt>
      <trkpt lat="45.14193" lon="-0.55038">
        <ele>38.6</ele>
        <time>2020-09-03T06:30:01Z</time>
      </trkpt>
      <trkpt lat="45.14195" lon="-0.55038">
        <ele>38.5</ele>
        <time>2020-09-03T06:30:02Z</time>
      </trkpt>
      <trkpt lat="45.14196" lon="-0.55038">
        <ele>38.5</ele>
        <time>2020-09-03T06:30:03Z</time>
      </trkpt>
      <trkpt lat="45.14199" lon="-0.55038">
        <ele>38.5</ele>
        <time>2020-09-03T06:30:04Z</time>
      </trkpt>
      <trkpt lat="45.14199" lon="-0.55038">
        <ele>38.5</ele>
        <time>2020-09-03T06:30:05Z</time>
      </trkpt>
      <trkpt lat="45.142" lon="-0.55038">
        <ele>38.4</ele>
        <time>2020-09-03T06:30:06Z</time>
      </trkpt>
      <trkpt lat="45.14202" lon="-0.55038">
        <ele>38.4</ele>
        <time>2020-09-03T06:30:08Z</time>
      </trkpt>
      <trkpt lat="45.14203" lon="-0.55038">
        <ele>38.4</ele>
        <time>2020-09-03T06:30:09Z</time>
      </trkpt>
      <trkpt lat="45.14204" lon="-0.55038">
        <ele>38.4</ele>
        <time>2020-09-03T06:30:10Z</time>
      </trkpt>
      <trkpt lat="45.14208" lon="-0.55038">
        <ele>38.3</ele>
        <time>2020-09-03T06:30:12Z</time>
      </trkpt>
      <trkpt lat="45.14208" lon="-0.55038">
        <ele>38.3</ele>
        <time>2020-09-03T06:30:13Z</time>
      </trkpt>
      <trkpt lat="45.1421" lon="-0.55038">
        <ele>38.3</ele>
        <time>2020-09-03T06:30:14Z</time>
      </trkpt>
      <trkpt lat="45.14211" lon="-0.55038">
        <ele>38.3</ele>
        <time>2020-09-03T06:30:15Z</time>
      </trkpt>
      <trkpt lat="45.14213" lon="-0.55037">
        <ele>38.2</ele>
        <time>2020-09-03T06:30:17Z</time>
      </trkpt>
      <trkpt lat="45.14214" lon="-0.55037">
        <ele>38.2</ele>
        <time>2020-09-03T06:30:18Z</time>
      </trkpt>
      <trkpt lat="45.14216" lon="-0.55036">
        <ele>38.2</ele>
        <time>2020-09-03T06:30:20Z</time>
      </trkpt>
      <trkpt lat="45.14217" lon="-0.55036">
        <ele>38.2</ele>
        <time>2020-09-03T06:30:21Z</time>
      </trkpt>
      <trkpt lat="45.14219" lon="-0.55035">
        <ele>38.1</ele>
        <time>2020-09-03T06:30:22Z</time>
      </trkpt>
      <trkpt lat="45.1422" lon="-0.55035">
        <ele>38.1</ele>
        <time>2020-09-03T06:30:23Z</time>
      </trkpt>
      <trkpt lat="45.14221" lon="-0.55035">
        <ele>38.1</ele>
        <time>2020-09-03T06:30:25Z</time>
      </trkpt>
      <trkpt lat="45.14223" lon="-0.55035">
        <ele>38.1</ele>
        <time>2020-09-03T06:30:26Z</time>
      </trkpt>
      <trkpt lat="45.14225" lon="-0.55035">
        <ele>38</ele>
        <time>2020-09-03T06:30:27Z</time>
      </trkpt>
      <trkpt lat="45.14227" lon="-0.55035">
        <ele>38</ele>
        <time>2020-09-03T06:30:29Z</time>
      </trkpt>
      <trkpt lat="45.14228" lon="-0.55035">
        <ele>38</ele>
        <time>2020-09-03T06:30:30Z</time>
      </trkpt>
      <trkpt lat="45.14229" lon="-0.55035">
        <ele>38</ele>
        <time>2020-09-03T06:30:31Z</time>
      </trkpt>
      <trkpt lat="45.14231" lon="-0.55035">
        <ele>37.9</ele>
        <time>2020-09-03T06:30:33Z</time>
      </trkpt>
      <trkpt lat="45.14232" lon="-0.55035">
        <ele>37.9</ele>
        <time>2020-09-03T06:30:34Z</time>
      </trkpt>
      <trkpt lat="45.14233" lon="-0.55035">
        <ele>37.9</ele>
        <time>2020-09-03T06:30:35Z</time>
      </trkpt>
      <trkpt lat="45.14236" lon="-0.55034">
        <ele>37.9</ele>
        <time>2020-09-03T06:30:37Z</time>
      </trkpt>
      <trkpt lat="45.14238" lon="-0.55034">
        <ele>37.8</ele>
        <time>2020-09-03T06:30:39Z</time>
      </trkpt>
      <trkpt lat="45.14239" lon="-0.55033">
        <ele>37.8</ele>
        <time>2020-09-03T06:30:40Z</time>
      </trkpt>
      <trkpt lat="45.1424" lon="-0.55033">
        <ele>37.8</ele>
        <time>2020-09-03T06:30:41Z</time>
      </trkpt>
      <trkpt lat="45.14242" lon="-0.55032">
        <ele>37.8</ele>
        <time>2020-09-03T06:30:42Z</time>
      </trkpt>
      <trkpt lat="45.14244" lon="-0.55032">
        <ele>37.7</ele>
        <time>2020-09-03T06:30:44Z</time>
      </trkpt>
      <trkpt lat="45.14245" lon="-0.55032">
        <ele>37.7</ele>
        <time>2020-09-03T06:30:45Z</time>
      </trkpt>
      <trkpt lat="45.14248" lon="-0.55032">
        <ele>37.7</ele>
        <time>2020-09-03T06:30:46Z</time>
      </trkpt>
      <trkpt lat="45.14249" lon="-0.55032">
        <ele>37.7</ele>
        <time>2020-09-03T06:30:47Z</time>
      </trkpt>
      <trkpt lat="45.1425" lon="-0.55032">
        <ele>37.6</ele>
        <time>2020-09-03T06:30:49Z</time>
      </trkpt>
      <trkpt lat="45.14252" lon="-0.55031">
        <ele>37.6</ele>
        <time>2020-09-03T06:30:50Z</time>
      </trkpt>
      <trkpt lat="45.14253" lon="-0.55031">
        <ele>37.6</ele>
        <time>2020-09-03T06:30:51Z</time>
      </trkpt>
      <trkpt lat="45.14255" lon="-0.55031">
        <ele>37.6</ele>
        <time>2020-09-03T06:30:52Z</time>
      </trkpt>
      <trkpt lat="45.14257" lon="-0.5503">
        <ele>37.5</ele>
        <time>2020-09-03T06:30:54Z</time>
      </trkpt>
      <trkpt lat="45.14258" lon="-0.55031">
        <ele>37.5</ele>
        <time>2020-09-03T06:30:55Z</time>
      </trkpt>
      <trkpt lat="45.14259" lon="-0.55031">
        <ele>37.5</ele>
        <time>2020-09-03T06:30:56Z</time>
      </trkpt>
      <trkpt lat="45.14261" lon="-0.55031">
        <ele>37.5</ele>
        <time>2020-09-03T06:30:57Z</time>
      </trkpt>
      <trkpt lat="45.14263" lon="-0.55031">
        <ele>37.4</ele>
        <time>2020-09-03T06:30:59Z</time>
      </trkpt>
      <trkpt lat="45.14265" lon="-0.55032">
        <ele>37.4</ele>
        <time>2020-09-03T06:31:00Z</time>
      </trkpt>
      <trkpt lat="45.14266" lon="-0.55032">
        <ele>37.4</ele>
        <time>2020-09-03T06:31:01Z</time>
      </trkpt>
      <trkpt lat="45.1427" lon="-0.55032">
        <ele>37.3</ele>
        <time>2020-09-03T06:31:03Z</time>
      </trkpt>
      <trkpt lat="45.14271" lon="-0.55032">
        <ele>37.3</ele>
        <time>2020-09-03T06:31:05Z</time>
      </trkpt>
      <trkpt lat="45.14272" lon="-0.55032">
        <ele>37.3</ele>
        <time>2020-09-03T06:31:06Z</time>
      </trkpt>
      <trkpt lat="45.14273" lon="-0.55032">
        <ele>37.3</ele>
        <time>2020-09-03T06:31:07Z</time>
      </trkpt>
      <trkpt lat="45.14274" lon="-0.55032">
        <ele>37.3</ele>
        <time>2020-09-03T06:31:08Z</time>
      </trkpt>
      <trkpt lat="45.14276" lon="-0.55032">
        <ele>37.2</ele>
        <time>2020-09-03T06:31:09Z</time>
      </trkpt>
      <trkpt lat="45.14277" lon="-0.55032">
        <ele>37.2</ele>
        <time>2020-09-03T06:31:10Z</time>
      </trkpt>
      <trkpt lat="45.14279" lon="-0.55031">
        <ele>37.2</ele>
        <time>2020-09-03T06:31:12Z</time>
      </trkpt>
      <trkpt lat="45.14281" lon="-0.55031">
        <ele>37.1</ele>
        <time>2020-09-03T06:31:13Z</time>
      </trkpt>
      <trkpt lat="45.14282" lon="-0.5503">
        <ele>37.1</ele>
        <time>2020-09-03T06:31:14Z</time>
      </trkpt>
      <trkpt lat="45.14283" lon="-0.5503">
        <ele>37.1</ele>
        <time>2020-09-03T06:31:16Z</time>
      </trkpt>
      <trkpt lat="45.14285" lon="-0.5503">
        <ele>37.1</ele>
        <time>2020-09-03T06:31:17Z</time>
      </trkpt>
      <trkpt lat="45.14287" lon="-0.5503">
        <ele>37.1</ele>
        <time>2020-09-03T06:31:18Z</time>
      </trkpt>
      <trkpt lat="45.14288" lon="-0.55029">
        <ele>37</ele>
        <time>2020-09-03T06:31:19Z</time>
      </trkpt>
      <trkpt lat="45.1429" lon="-0.55029">
        <ele>37</ele>
        <time>2020-09-03T06:31:21Z</time>
      </trkpt>
      <trkpt lat="45.14292" lon="-0.55028">
        <ele>37</ele>
        <time>2020-09-03T06:31:22Z</time>
      </trkpt>
      <trkpt lat="45.14293" lon="-0.55028">
        <ele>36.9</ele>
        <time>2020-09-03T06:31:23Z</time>
      </trkpt>
      <trkpt lat="45.14295" lon="-0.55028">
        <ele>36.9</ele>
        <time>2020-09-03T06:31:24Z</time>
      </trkpt>
      <trkpt lat="45.14296" lon="-0.55028">
        <ele>36.9</ele>
        <time>2020-09-03T06:31:25Z</time>
      </trkpt>
      <trkpt lat="45.14299" lon="-0.55028">
        <ele>36.9</ele>
        <time>2020-09-03T06:31:27Z</time>
      </trkpt>
      <trkpt lat="45.143" lon="-0.55028">
        <ele>36.8</ele>
        <time>2020-09-03T06:31:28Z</time>
      </trkpt>
      <trkpt lat="45.14301" lon="-0.55028">
        <ele>36.8</ele>
        <time>2020-09-03T06:31:29Z</time>
      </trkpt>
      <trkpt lat="45.14303" lon="-0.55028">
        <ele>36.8</ele>
        <time>2020-09-03T06:31:31Z</time>
      </trkpt>
      <trkpt lat="45.14305" lon="-0.55027">
        <ele>36.8</ele>
        <time>2020-09-03T06:31:32Z</time>
      </trkpt>
      <trkpt lat="45.14306" lon="-0.55027">
        <ele>36.7</ele>
        <time>2020-09-03T06:31:34Z</time>
      </trkpt>
      <trkpt lat="45.14307" lon="-0.55027">
        <ele>36.7</ele>
        <time>2020-09-03T06:31:35Z</time>
      </trkpt>
      <trkpt lat="45.14309" lon="-0.55027">
        <ele>36.7</ele>
        <time>2020-09-03T06:31:36Z</time>
      </trkpt>
      <trkpt lat="45.14311" lon="-0.55027">
        <ele>36.7</ele>
        <time>2020-09-03T06:31:37Z</time>
      </trkpt>
      <trkpt lat="45.14312" lon="-0.55027">
        <ele>36.6</ele>
        <time>2020-09-03T06:31:38Z</time>
      </trkpt>
      <trkpt lat="45.14313" lon="-0.55028">
        <ele>36.6</ele>
        <time>2020-09-03T06:31:40Z</time>
      </trkpt>
      <trkpt lat="45.14315" lon="-0.55028">
        <ele>36.6</ele>
        <time>2020-09-03T06:31:41Z</time>
      </trkpt>
      <trkpt lat="45.14317" lon="-0.55028">
        <ele>36.6</ele>
        <time>2020-09-03T06:31:42Z</time>
      </trkpt>
      <trkpt lat="45.14319" lon="-0.55028">
        <ele>36.5</ele>
        <time>2020-09-03T06:31:44Z</time>
      </trkpt>
      <trkpt lat="45.14321" lon="-0.55027">
        <ele>36.5</ele>
        <time>2020-09-03T06:31:45Z</time>
      </trkpt>
      <trkpt lat="45.14322" lon="-0.55027">
        <ele>36.5</ele>
        <time>2020-09-03T06:31:46Z</time>
      </trkpt>
      <trkpt lat="45.14323" lon="-0.55027">
        <ele>36.5</ele>
        <time>2020-09-03T06:31:47Z</time>
      </trkpt>
      <trkpt lat="45.14324" lon="-0.55027">
        <ele>36.5</ele>
        <time>2020-09-03T06:31:48Z</time>
      </trkpt>
      <trkpt lat="45.14325" lon="-0.55027">
        <ele>36.4</ele>
        <time>2020-09-03T06:31:49Z</time>
      </trkpt>
      <trkpt lat="45.14327" lon="-0.55027">
        <ele>36.4</ele>
        <time>2020-09-03T06:31:51Z</time>
      </trkpt>
      <trkpt lat="45.14329" lon="-0.55027">
        <ele>36.4</ele>
        <time>2020-09-03T06:31:52Z</time>
      </trkpt>
      <trkpt lat="45.1433" lon="-0.55027">
        <ele>36.4</ele>
        <time>2020-09-03T06:31:54Z</time>
      </trkpt>
      <trkpt lat="45.14332" lon="-0.55027">
        <ele>36.3</ele>
        <time>2020-09-03T06:31:55Z</time>
      </trkpt>
      <trkpt lat="45.14333" lon="-0.55027">
        <ele>36.3</ele>
        <time>2020-09-03T06:31:56Z</time>
      </trkpt>
      <trkpt lat="45.14334" lon="-0.55027">
        <ele>36.3</ele>
        <time>2020-09-03T06:31:57Z</time>
      </trkpt>
      <trkpt lat="45.14336" lon="-0.55027">
        <ele>36.3</ele>
        <time>2020-09-03T06:31:58Z</time>
      </trkpt>
      <trkpt lat="45.14337" lon="-0.55027">
        <ele>36.2</ele>
        <time>2020-09-03T06:31:59Z</time>
      </trkpt>
      <trkpt lat="45.14338" lon="-0.55027">
        <ele>36.2</ele>
        <time>2020-09-03T06:32:00Z</time>
      </trkpt>
      <trkpt lat="45.1434" lon="-0.55027">
        <ele>36.2</ele>
        <time>2020-09-03T06:32:02Z</time>
      </trkpt>
      <trkpt lat="45.14341" lon="-0.55027">
        <ele>36.2</ele>
        <time>2020-09-03T06:32:03Z</time>
      </trkpt>
      <trkpt lat="45.14342" lon="-0.55027">
        <ele>36.2</ele>
        <time>2020-09-03T06:32:04Z</time>
      </trkpt>
      <trkpt lat="45.14342" lon="-0.55026">
        <ele>36.2</ele>
        <time>2020-09-03T06:32:06Z</time>
      </trkpt>
      <trkpt lat="45.14341" lon="-0.55026">
        <ele>36.2</ele>
        <time>2020-09-03T06:32:08Z</time>
      </trkpt>
      <trkpt lat="45.14341" lon="-0.55025">
        <ele>36.1</ele>
        <time>2020-09-03T06:32:10Z</time>
      </trkpt>
      <trkpt lat="45.14341" lon="-0.55025">
        <ele>36.1</ele>
        <time>2020-09-03T06:32:11Z</time>
      </trkpt>
      <trkpt lat="45.14342" lon="-0.55025">
        <ele>36.1</ele>
        <time>2020-09-03T06:32:13Z</time>
      </trkpt>
      <trkpt lat="45.14342" lon="-0.55025">
        <ele>36.1</ele>
        <time>2020-09-03T06:32:14Z</time>
      </trkpt>
      <trkpt lat="45.14342" lon="-0.55025">
        <ele>36.1</ele>
        <time>2020-09-03T06:32:15Z</time>
      </trkpt>
      <trkpt lat="45.14343" lon="-0.55026">
        <ele>36.1</ele>
        <time>2020-09-03T06:32:17Z</time>
      </trkpt>
      <trkpt lat="45.14345" lon="-0.55026">
        <ele>36.1</ele>
        <time>2020-09-03T06:32:18Z</time>
      </trkpt>
      <trkpt lat="45.14347" lon="-0.55026">
        <ele>36.1</ele>
        <time>2020-09-03T06:32:19Z</time>
      </trkpt>
      <trkpt lat="45.14348" lon="-0.55026">
        <ele>36.1</ele>
        <time>2020-09-03T06:32:21Z</time>
      </trkpt>
      <trkpt lat="45.14352" lon="-0.55026">
        <ele>36.1</ele>
        <time>2020-09-03T06:32:23Z</time>
      </trkpt>
      <trkpt lat="45.14354" lon="-0.55026">
        <ele>36.1</ele>
        <time>2020-09-03T06:32:24Z</time>
      </trkpt>
      <trkpt lat="45.14355" lon="-0.55026">
        <ele>36.1</ele>
        <time>2020-09-03T06:32:25Z</time>
      </trkpt>
      <trkpt lat="45.14356" lon="-0.55026">
        <ele>36.1</ele>
        <time>2020-09-03T06:32:26Z</time>
      </trkpt>
      <trkpt lat="45.14359" lon="-0.55025">
        <ele>36</ele>
        <time>2020-09-03T06:32:28Z</time>
      </trkpt>
      <trkpt lat="45.14361" lon="-0.55025">
        <ele>36</ele>
        <time>2020-09-03T06:32:29Z</time>
      </trkpt>
      <trkpt lat="45.14363" lon="-0.55025">
        <ele>36</ele>
        <time>2020-09-03T06:32:31Z</time>
      </trkpt>
      <trkpt lat="45.14367" lon="-0.55025">
        <ele>36</ele>
        <time>2020-09-03T06:32:33Z</time>
      </trkpt>
      <trkpt lat="45.14368" lon="-0.55025">
        <ele>36</ele>
        <time>2020-09-03T06:32:34Z</time>
      </trkpt>
      <trkpt lat="45.14369" lon="-0.55025">
        <ele>36</ele>
        <time>2020-09-03T06:32:35Z</time>
      </trkpt>
      <trkpt lat="45.1437" lon="-0.55025">
        <ele>36</ele>
        <time>2020-09-03T06:32:36Z</time>
      </trkpt>
      <trkpt lat="45.14373" lon="-0.55025">
        <ele>36</ele>
        <time>2020-09-03T06:32:37Z</time>
      </trkpt>
      <trkpt lat="45.14374" lon="-0.55025">
        <ele>35.9</ele>
        <time>2020-09-03T06:32:39Z</time>
      </trkpt>
      <trkpt lat="45.14376" lon="-0.55025">
        <ele>35.9</ele>
        <time>2020-09-03T06:32:40Z</time>
      </trkpt>
      <trkpt lat="45.14377" lon="-0.55025">
        <ele>35.9</ele>
        <time>2020-09-03T06:32:41Z</time>
      </trkpt>
      <trkpt lat="45.14379" lon="-0.55024">
        <ele>35.9</ele>
        <time>2020-09-03T06:32:43Z</time>
      </trkpt>
      <trkpt lat="45.14381" lon="-0.55024">
        <ele>35.9</ele>
        <time>2020-09-03T06:32:45Z</time>
      </trkpt>
      <trkpt lat="45.14383" lon="-0.55025">
        <ele>35.9</ele>
        <time>2020-09-03T06:32:46Z</time>
      </trkpt>
      <trkpt lat="45.14386" lon="-0.55025">
        <ele>35.9</ele>
        <time>2020-09-03T06:32:48Z</time>
      </trkpt>
      <trkpt lat="45.14388" lon="-0.55026">
        <ele>35.9</ele>
        <time>2020-09-03T06:32:50Z</time>
      </trkpt>
      <trkpt lat="45.14389" lon="-0.55026">
        <ele>35.8</ele>
        <time>2020-09-03T06:32:51Z</time>
      </trkpt>
      <trkpt lat="45.14392" lon="-0.55026">
        <ele>35.8</ele>
        <time>2020-09-03T06:32:52Z</time>
      </trkpt>
      <trkpt lat="45.14393" lon="-0.55026">
        <ele>35.8</ele>
        <time>2020-09-03T06:32:54Z</time>
      </trkpt>
      <trkpt lat="45.14394" lon="-0.55026">
        <ele>35.8</ele>
        <time>2020-09-03T06:32:55Z</time>
      </trkpt>
      <trkpt lat="45.14396" lon="-0.55027">
        <ele>35.8</ele>
        <time>2020-09-03T06:32:56Z</time>
      </trkpt>
      <trkpt lat="45.14399" lon="-0.55027">
        <ele>35.8</ele>
        <time>2020-09-03T06:32:58Z</time>
      </trkpt>
      <trkpt lat="45.144" lon="-0.55027">
        <ele>35.8</ele>
        <time>2020-09-03T06:32:59Z</time>
      </trkpt>
      <trkpt lat="45.14401" lon="-0.55027">
        <ele>35.8</ele>
        <time>2020-09-03T06:33:00Z</time>
      </trkpt>
      <trkpt lat="45.14402" lon="-0.55028">
        <ele>35.8</ele>
        <time>2020-09-03T06:33:02Z</time>
      </trkpt>
      <trkpt lat="45.14404" lon="-0.55028">
        <ele>35.8</ele>
        <time>2020-09-03T06:33:03Z</time>
      </trkpt>
      <trkpt lat="45.14405" lon="-0.55028">
        <ele>35.8</ele>
        <time>2020-09-03T06:33:04Z</time>
      </trkpt>
      <trkpt lat="45.14407" lon="-0.55029">
        <ele>35.7</ele>
        <time>2020-09-03T06:33:05Z</time>
      </trkpt>
      <trkpt lat="45.14409" lon="-0.55029">
        <ele>35.7</ele>
        <time>2020-09-03T06:33:07Z</time>
      </trkpt>
      <trkpt lat="45.14411" lon="-0.5503">
        <ele>35.7</ele>
        <time>2020-09-03T06:33:08Z</time>
      </trkpt>
      <trkpt lat="45.14412" lon="-0.5503">
        <ele>35.7</ele>
        <time>2020-09-03T06:33:09Z</time>
      </trkpt>
      <trkpt lat="45.14413" lon="-0.5503">
        <ele>35.7</ele>
        <time>2020-09-03T06:33:10Z</time>
      </trkpt>
      <trkpt lat="45.14414" lon="-0.5503">
        <ele>35.7</ele>
        <time>2020-09-03T06:33:11Z</time>
      </trkpt>
      <trkpt lat="45.14416" lon="-0.5503">
        <ele>35.7</ele>
        <time>2020-09-03T06:33:13Z</time>
      </trkpt>
      <trkpt lat="45.14418" lon="-0.5503">
        <ele>35.7</ele>
        <time>2020-09-03T06:33:14Z</time>
      </trkpt>
      <trkpt lat="45.14419" lon="-0.5503">
        <ele>35.7</ele>
        <time>2020-09-03T06:33:15Z</time>
      </trkpt>
      <trkpt lat="45.1442" lon="-0.5503">
        <ele>35.7</ele>
        <time>2020-09-03T06:33:16Z</time>
      </trkpt>
      <trkpt lat="45.14421" lon="-0.5503">
        <ele>35.7</ele>
        <time>2020-09-03T06:33:17Z</time>
      </trkpt>
      <trkpt lat="45.14422" lon="-0.5503">
        <ele>35.6</ele>
        <time>2020-09-03T06:33:18Z</time>
      </trkpt>
      <trkpt lat="45.14423" lon="-0.5503">
        <ele>35.6</ele>
        <time>2020-09-03T06:33:19Z</time>
      </trkpt>
      <trkpt lat="45.14424" lon="-0.55029">
        <ele>35.6</ele>
        <time>2020-09-03T06:33:21Z</time>
      </trkpt>
      <trkpt lat="45.14425" lon="-0.55029">
        <ele>35.6</ele>
        <time>2020-09-03T06:33:22Z</time>
      </trkpt>
      <trkpt lat="45.14427" lon="-0.55029">
        <ele>35.6</ele>
        <time>2020-09-03T06:33:23Z</time>
      </trkpt>
      <trkpt lat="45.14429" lon="-0.55029">
        <ele>35.6</ele>
        <time>2020-09-03T06:33:25Z</time>
      </trkpt>
      <trkpt lat="45.1443" lon="-0.5503">
        <ele>35.6</ele>
        <time>2020-09-03T06:33:26Z</time>
      </trkpt>
      <trkpt lat="45.14432" lon="-0.5503">
        <ele>35.6</ele>
        <time>2020-09-03T06:33:27Z</time>
      </trkpt>
      <trkpt lat="45.14434" lon="-0.55031">
        <ele>35.6</ele>
        <time>2020-09-03T06:33:29Z</time>
      </trkpt>
      <trkpt lat="45.14436" lon="-0.55031">
        <ele>35.6</ele>
        <time>2020-09-03T06:33:30Z</time>
      </trkpt>
      <trkpt lat="45.14437" lon="-0.55031">
        <ele>35.6</ele>
        <time>2020-09-03T06:33:31Z</time>
      </trkpt>
      <trkpt lat="45.14439" lon="-0.55031">
        <ele>35.5</ele>
        <time>2020-09-03T06:33:33Z</time>
      </trkpt>
      <trkpt lat="45.1444" lon="-0.55031">
        <ele>35.5</ele>
        <time>2020-09-03T06:33:34Z</time>
      </trkpt>
      <trkpt lat="45.14442" lon="-0.55032">
        <ele>35.5</ele>
        <time>2020-09-03T06:33:35Z</time>
      </trkpt>
      <trkpt lat="45.14443" lon="-0.55032">
        <ele>35.5</ele>
        <time>2020-09-03T06:33:36Z</time>
      </trkpt>
      <trkpt lat="45.14446" lon="-0.55032">
        <ele>35.5</ele>
        <time>2020-09-03T06:33:37Z</time>
      </trkpt>
      <trkpt lat="45.14447" lon="-0.55032">
        <ele>35.5</ele>
        <time>2020-09-03T06:33:38Z</time>
      </trkpt>
      <trkpt lat="45.1445" lon="-0.55032">
        <ele>35.5</ele>
        <time>2020-09-03T06:33:40Z</time>
      </trkpt>
      <trkpt lat="45.14451" lon="-0.55032">
        <ele>35.5</ele>
        <time>2020-09-03T06:33:41Z</time>
      </trkpt>
      <trkpt lat="45.14454" lon="-0.55033">
        <ele>35.5</ele>
        <time>2020-09-03T06:33:43Z</time>
      </trkpt>
      <trkpt lat="45.14456" lon="-0.55033">
        <ele>35.4</ele>
        <time>2020-09-03T06:33:45Z</time>
      </trkpt>
      <trkpt lat="45.14457" lon="-0.55033">
        <ele>35.4</ele>
        <time>2020-09-03T06:33:46Z</time>
      </trkpt>
      <trkpt lat="45.14458" lon="-0.55033">
        <ele>35.4</ele>
        <time>2020-09-03T06:33:47Z</time>
      </trkpt>
      <trkpt lat="45.1446" lon="-0.55033">
        <ele>35.4</ele>
        <time>2020-09-03T06:33:48Z</time>
      </trkpt>
      <trkpt lat="45.14461" lon="-0.55033">
        <ele>35.4</ele>
        <time>2020-09-03T06:33:49Z</time>
      </trkpt>
      <trkpt lat="45.14463" lon="-0.55034">
        <ele>35.4</ele>
        <time>2020-09-03T06:33:51Z</time>
      </trkpt>
      <trkpt lat="45.14465" lon="-0.55033">
        <ele>35.4</ele>
        <time>2020-09-03T06:33:52Z</time>
      </trkpt>
      <trkpt lat="45.14466" lon="-0.55033">
        <ele>35.4</ele>
        <time>2020-09-03T06:33:53Z</time>
      </trkpt>
      <trkpt lat="45.14467" lon="-0.55032">
        <ele>35.4</ele>
        <time>2020-09-03T06:33:54Z</time>
      </trkpt>
      <trkpt lat="45.14468" lon="-0.55032">
        <ele>35.4</ele>
        <time>2020-09-03T06:33:56Z</time>
      </trkpt>
      <trkpt lat="45.14469" lon="-0.55032">
        <ele>35.4</ele>
        <time>2020-09-03T06:33:57Z</time>
      </trkpt>
      <trkpt lat="45.14469" lon="-0.55033">
        <ele>35.4</ele>
        <time>2020-09-03T06:33:59Z</time>
      </trkpt>
      <trkpt lat="45.14469" lon="-0.55033">
        <ele>35.4</ele>
        <time>2020-09-03T06:34:00Z</time>
      </trkpt>
      <trkpt lat="45.14469" lon="-0.55033">
        <ele>35.3</ele>
        <time>2020-09-03T06:34:02Z</time>
      </trkpt>
      <trkpt lat="45.14468" lon="-0.55033">
        <ele>35.3</ele>
        <time>2020-09-03T06:34:04Z</time>
      </trkpt>
      <trkpt lat="45.14468" lon="-0.55033">
        <ele>35.3</ele>
        <time>2020-09-03T06:34:05Z</time>
      </trkpt>
      <trkpt lat="45.14468" lon="-0.55032">
        <ele>35.3</ele>
        <time>2020-09-03T06:34:07Z</time>
      </trkpt>
      <trkpt lat="45.14468" lon="-0.55032">
        <ele>35.3</ele>
        <time>2020-09-03T06:34:08Z</time>
      </trkpt>
      <trkpt lat="45.14468" lon="-0.55032">
        <ele>35.3</ele>
        <time>2020-09-03T06:34:10Z</time>
      </trkpt>
      <trkpt lat="45.14468" lon="-0.55032">
        <ele>35.3</ele>
        <time>2020-09-03T06:34:11Z</time>
      </trkpt>
      <trkpt lat="45.14468" lon="-0.55032">
        <ele>35.3</ele>
        <time>2020-09-03T06:34:12Z</time>
      </trkpt>
      <trkpt lat="45.14469" lon="-0.55032">
        <ele>35.3</ele>
        <time>2020-09-03T06:34:13Z</time>
      </trkpt>
      <trkpt lat="45.1447" lon="-0.55032">
        <ele>35.3</ele>
        <time>2020-09-03T06:34:14Z</time>
      </trkpt>
      <trkpt lat="45.14471" lon="-0.55032">
        <ele>35.3</ele>
        <time>2020-09-03T06:34:15Z</time>
      </trkpt>
      <trkpt lat="45.14472" lon="-0.55032">
        <ele>35.3</ele>
        <time>2020-09-03T06:34:17Z</time>
      </trkpt>
      <trkpt lat="45.14474" lon="-0.55033">
        <ele>35.3</ele>
        <time>2020-09-03T06:34:18Z</time>
      </trkpt>
      <trkpt lat="45.14475" lon="-0.55032">
        <ele>35.3</ele>
        <time>2020-09-03T06:34:20Z</time>
      </trkpt>
      <trkpt lat="45.14477" lon="-0.55032">
        <ele>35.3</ele>
        <time>2020-09-03T06:34:21Z</time>
      </trkpt>
      <trkpt lat="45.14479" lon="-0.55032">
        <ele>35.3</ele>
        <time>2020-09-03T06:34:22Z</time>
      </trkpt>
      <trkpt lat="45.14481" lon="-0.55032">
        <ele>35.3</ele>
        <time>2020-09-03T06:34:23Z</time>
      </trkpt>
      <trkpt lat="45.14482" lon="-0.55032">
        <ele>35.3</ele>
        <time>2020-09-03T06:34:24Z</time>
      </trkpt>
      <trkpt lat="45.14483" lon="-0.55031">
        <ele>35.2</ele>
        <time>2020-09-03T06:34:25Z</time>
      </trkpt>
      <trkpt lat="45.14484" lon="-0.55031">
        <ele>35.2</ele>
        <time>2020-09-03T06:34:26Z</time>
      </trkpt>
      <trkpt lat="45.14486" lon="-0.5503">
        <ele>35.2</ele>
        <time>2020-09-03T06:34:27Z</time>
      </trkpt>
      <trkpt lat="45.14487" lon="-0.5503">
        <ele>35.2</ele>
        <time>2020-09-03T06:34:28Z</time>
      </trkpt>
      <trkpt lat="45.14488" lon="-0.55029">
        <ele>35.2</ele>
        <time>2020-09-03T06:34:30Z</time>
      </trkpt>
      <trkpt lat="45.14489" lon="-0.55029">
        <ele>35.2</ele>
        <time>2020-09-03T06:34:31Z</time>
      </trkpt>
      <trkpt lat="45.14491" lon="-0.55029">
        <ele>35.2</ele>
        <time>2020-09-03T06:34:32Z</time>
      </trkpt>
      <trkpt lat="45.14493" lon="-0.55028">
        <ele>35.2</ele>
        <time>2020-09-03T06:34:33Z</time>
      </trkpt>
      <trkpt lat="45.14494" lon="-0.55028">
        <ele>35.2</ele>
        <time>2020-09-03T06:34:34Z</time>
      </trkpt>
      <trkpt lat="45.14497" lon="-0.55028">
        <ele>35.2</ele>
        <time>2020-09-03T06:34:36Z</time>
      </trkpt>
      <trkpt lat="45.14499" lon="-0.55028">
        <ele>35.1</ele>
        <time>2020-09-03T06:34:37Z</time>
      </trkpt>
      <trkpt lat="45.145" lon="-0.55028">
        <ele>35.1</ele>
        <time>2020-09-03T06:34:38Z</time>
      </trkpt>
      <trkpt lat="45.14501" lon="-0.55028">
        <ele>35.1</ele>
        <time>2020-09-03T06:34:39Z</time>
      </trkpt>
      <trkpt lat="45.14502" lon="-0.55029">
        <ele>35.1</ele>
        <time>2020-09-03T06:34:40Z</time>
      </trkpt>
      <trkpt lat="45.14503" lon="-0.55029">
        <ele>35.1</ele>
        <time>2020-09-03T06:34:41Z</time>
      </trkpt>
      <trkpt lat="45.14505" lon="-0.55029">
        <ele>35.1</ele>
        <time>2020-09-03T06:34:42Z</time>
      </trkpt>
      <trkpt lat="45.14505" lon="-0.55029">
        <ele>35.1</ele>
        <time>2020-09-03T06:34:43Z</time>
      </trkpt>
      <trkpt lat="45.14507" lon="-0.55029">
        <ele>35.1</ele>
        <time>2020-09-03T06:34:44Z</time>
      </trkpt>
      <trkpt lat="45.14508" lon="-0.55029">
        <ele>35.1</ele>
        <time>2020-09-03T06:34:45Z</time>
      </trkpt>
      <trkpt lat="45.14509" lon="-0.55029">
        <ele>35.1</ele>
        <time>2020-09-03T06:34:46Z</time>
      </trkpt>
      <trkpt lat="45.14511" lon="-0.55029">
        <ele>35.1</ele>
        <time>2020-09-03T06:34:47Z</time>
      </trkpt>
      <trkpt lat="45.14512" lon="-0.55029">
        <ele>35.1</ele>
        <time>2020-09-03T06:34:49Z</time>
      </trkpt>
      <trkpt lat="45.14512" lon="-0.55029">
        <ele>35.1</ele>
        <time>2020-09-03T06:34:50Z</time>
      </trkpt>
      <trkpt lat="45.14515" lon="-0.55029">
        <ele>35</ele>
        <time>2020-09-03T06:34:51Z</time>
      </trkpt>
      <trkpt lat="45.14517" lon="-0.55028">
        <ele>35</ele>
        <time>2020-09-03T06:34:53Z</time>
      </trkpt>
      <trkpt lat="45.14519" lon="-0.55028">
        <ele>35</ele>
        <time>2020-09-03T06:34:54Z</time>
      </trkpt>
      <trkpt lat="45.1452" lon="-0.55028">
        <ele>35</ele>
        <time>2020-09-03T06:34:56Z</time>
      </trkpt>
      <trkpt lat="45.14521" lon="-0.55027">
        <ele>35</ele>
        <time>2020-09-03T06:34:57Z</time>
      </trkpt>
      <trkpt lat="45.14523" lon="-0.55027">
        <ele>35</ele>
        <time>2020-09-03T06:34:58Z</time>
      </trkpt>
      <trkpt lat="45.14525" lon="-0.55026">
        <ele>35</ele>
        <time>2020-09-03T06:35:00Z</time>
      </trkpt>
      <trkpt lat="45.14526" lon="-0.55026">
        <ele>35</ele>
        <time>2020-09-03T06:35:01Z</time>
      </trkpt>
      <trkpt lat="45.14529" lon="-0.55025">
        <ele>35</ele>
        <time>2020-09-03T06:35:03Z</time>
      </trkpt>
      <trkpt lat="45.14531" lon="-0.55024">
        <ele>34.9</ele>
        <time>2020-09-03T06:35:04Z</time>
      </trkpt>
      <trkpt lat="45.14532" lon="-0.55024">
        <ele>34.9</ele>
        <time>2020-09-03T06:35:05Z</time>
      </trkpt>
      <trkpt lat="45.14534" lon="-0.55023">
        <ele>34.9</ele>
        <time>2020-09-03T06:35:06Z</time>
      </trkpt>
      <trkpt lat="45.14536" lon="-0.55022">
        <ele>34.9</ele>
        <time>2020-09-03T06:35:08Z</time>
      </trkpt>
      <trkpt lat="45.14538" lon="-0.55022">
        <ele>34.9</ele>
        <time>2020-09-03T06:35:09Z</time>
      </trkpt>
      <trkpt lat="45.1454" lon="-0.55021">
        <ele>34.9</ele>
        <time>2020-09-03T06:35:11Z</time>
      </trkpt>
      <trkpt lat="45.14541" lon="-0.5502">
        <ele>34.9</ele>
        <time>2020-09-03T06:35:12Z</time>
      </trkpt>
      <trkpt lat="45.14543" lon="-0.5502">
        <ele>34.9</ele>
        <time>2020-09-03T06:35:13Z</time>
      </trkpt>
      <trkpt lat="45.14545" lon="-0.55019">
        <ele>34.9</ele>
        <time>2020-09-03T06:35:14Z</time>
      </trkpt>
      <trkpt lat="45.14546" lon="-0.55019">
        <ele>34.8</ele>
        <time>2020-09-03T06:35:15Z</time>
      </trkpt>
      <trkpt lat="45.14548" lon="-0.55018">
        <ele>34.8</ele>
        <time>2020-09-03T06:35:16Z</time>
      </trkpt>
      <trkpt lat="45.1455" lon="-0.55018">
        <ele>34.8</ele>
        <time>2020-09-03T06:35:18Z</time>
      </trkpt>
      <trkpt lat="45.14552" lon="-0.55017">
        <ele>34.8</ele>
        <time>2020-09-03T06:35:19Z</time>
      </trkpt>
      <trkpt lat="45.14554" lon="-0.55017">
        <ele>34.8</ele>
        <time>2020-09-03T06:35:21Z</time>
      </trkpt>
      <trkpt lat="45.14556" lon="-0.55016">
        <ele>34.8</ele>
        <time>2020-09-03T06:35:23Z</time>
      </trkpt>
      <trkpt lat="45.14557" lon="-0.55016">
        <ele>34.8</ele>
        <time>2020-09-03T06:35:24Z</time>
      </trkpt>
      <trkpt lat="45.14559" lon="-0.55015">
        <ele>34.8</ele>
        <time>2020-09-03T06:35:25Z</time>
      </trkpt>
      <trkpt lat="45.1456" lon="-0.55015">
        <ele>34.8</ele>
        <time>2020-09-03T06:35:27Z</time>
      </trkpt>
      <trkpt lat="45.14562" lon="-0.55015">
        <ele>34.7</ele>
        <time>2020-09-03T06:35:28Z</time>
      </trkpt>
      <trkpt lat="45.14563" lon="-0.55015">
        <ele>34.7</ele>
        <time>2020-09-03T06:35:29Z</time>
      </trkpt>
      <trkpt lat="45.14566" lon="-0.55014">
        <ele>34.7</ele>
        <time>2020-09-03T06:35:30Z</time>
      </trkpt>
      <trkpt lat="45.14567" lon="-0.55014">
        <ele>34.7</ele>
        <time>2020-09-03T06:35:32Z</time>
      </trkpt>
      <trkpt lat="45.14568" lon="-0.55013">
        <ele>34.7</ele>
        <time>2020-09-03T06:35:33Z</time>
      </trkpt>
      <trkpt lat="45.14569" lon="-0.55012">
        <ele>34.7</ele>
        <time>2020-09-03T06:35:34Z</time>
      </trkpt>
      <trkpt lat="45.14571" lon="-0.55011">
        <ele>34.7</ele>
        <time>2020-09-03T06:35:36Z</time>
      </trkpt>
      <trkpt lat="45.14573" lon="-0.5501">
        <ele>34.7</ele>
        <time>2020-09-03T06:35:37Z</time>
      </trkpt>
      <trkpt lat="45.14576" lon="-0.55009">
        <ele>34.7</ele>
        <time>2020-09-03T06:35:39Z</time>
      </trkpt>
      <trkpt lat="45.14578" lon="-0.55008">
        <ele>34.6</ele>
        <time>2020-09-03T06:35:41Z</time>
      </trkpt>
      <trkpt lat="45.14581" lon="-0.55007">
        <ele>34.6</ele>
        <time>2020-09-03T06:35:42Z</time>
      </trkpt>
      <trkpt lat="45.14582" lon="-0.55007">
        <ele>34.6</ele>
        <time>2020-09-03T06:35:43Z</time>
      </trkpt>
      <trkpt lat="45.14584" lon="-0.55005">
        <ele>34.6</ele>
        <time>2020-09-03T06:35:44Z</time>
      </trkpt>
      <trkpt lat="45.14585" lon="-0.55005">
        <ele>34.6</ele>
        <time>2020-09-03T06:35:46Z</time>
      </trkpt>
      <trkpt lat="45.14587" lon="-0.55004">
        <ele>34.6</ele>
        <time>2020-09-03T06:35:47Z</time>
      </trkpt>
      <trkpt lat="45.14588" lon="-0.55004">
        <ele>34.6</ele>
        <time>2020-09-03T06:35:48Z</time>
      </trkpt>
      <trkpt lat="45.1459" lon="-0.55003">
        <ele>34.6</ele>
        <time>2020-09-03T06:35:50Z</time>
      </trkpt>
      <trkpt lat="45.14591" lon="-0.55002">
        <ele>34.6</ele>
        <time>2020-09-03T06:35:51Z</time>
      </trkpt>
      <trkpt lat="45.14592" lon="-0.55002">
        <ele>34.6</ele>
        <time>2020-09-03T06:35:52Z</time>
      </trkpt>
      <trkpt lat="45.14594" lon="-0.55">
        <ele>34.5</ele>
        <time>2020-09-03T06:35:53Z</time>
      </trkpt>
      <trkpt lat="45.14594" lon="-0.54999">
        <ele>34.5</ele>
        <time>2020-09-03T06:35:55Z</time>
      </trkpt>
      <trkpt lat="45.14595" lon="-0.54998">
        <ele>34.5</ele>
        <time>2020-09-03T06:35:56Z</time>
      </trkpt>
      <trkpt lat="45.14596" lon="-0.54997">
        <ele>34.5</ele>
        <time>2020-09-03T06:35:57Z</time>
      </trkpt>
      <trkpt lat="45.14597" lon="-0.54996">
        <ele>34.5</ele>
        <time>2020-09-03T06:35:58Z</time>
      </trkpt>
      <trkpt lat="45.146" lon="-0.54994">
        <ele>34.5</ele>
        <time>2020-09-03T06:35:59Z</time>
      </trkpt>
      <trkpt lat="45.14601" lon="-0.54994">
        <ele>34.5</ele>
        <time>2020-09-03T06:36:00Z</time>
      </trkpt>
      <trkpt lat="45.14603" lon="-0.54993">
        <ele>34.5</ele>
        <time>2020-09-03T06:36:02Z</time>
      </trkpt>
      <trkpt lat="45.14604" lon="-0.54992">
        <ele>34.5</ele>
        <time>2020-09-03T06:36:03Z</time>
      </trkpt>
      <trkpt lat="45.14605" lon="-0.54991">
        <ele>34.5</ele>
        <time>2020-09-03T06:36:04Z</time>
      </trkpt>
      <trkpt lat="45.14607" lon="-0.5499">
        <ele>34.4</ele>
        <time>2020-09-03T06:36:06Z</time>
      </trkpt>
      <trkpt lat="45.14609" lon="-0.54989">
        <ele>34.4</ele>
        <time>2020-09-03T06:36:07Z</time>
      </trkpt>
      <trkpt lat="45.1461" lon="-0.54988">
        <ele>34.4</ele>
        <time>2020-09-03T06:36:09Z</time>
      </trkpt>
      <trkpt lat="45.14613" lon="-0.54985">
        <ele>34.4</ele>
        <time>2020-09-03T06:36:11Z</time>
      </trkpt>
      <trkpt lat="45.14614" lon="-0.54985">
        <ele>34.4</ele>
        <time>2020-09-03T06:36:12Z</time>
      </trkpt>
      <trkpt lat="45.14615" lon="-0.54984">
        <ele>34.4</ele>
        <time>2020-09-03T06:36:13Z</time>
      </trkpt>
      <trkpt lat="45.14617" lon="-0.54982">
        <ele>34.4</ele>
        <time>2020-09-03T06:36:15Z</time>
      </trkpt>
      <trkpt lat="45.1462" lon="-0.54981">
        <ele>34.4</ele>
        <time>2020-09-03T06:36:16Z</time>
      </trkpt>
      <trkpt lat="45.14621" lon="-0.5498">
        <ele>34.4</ele>
        <time>2020-09-03T06:36:17Z</time>
      </trkpt>
      <trkpt lat="45.14622" lon="-0.5498">
        <ele>34.3</ele>
        <time>2020-09-03T06:36:18Z</time>
      </trkpt>
      <trkpt lat="45.14625" lon="-0.54979">
        <ele>34.3</ele>
        <time>2020-09-03T06:36:21Z</time>
      </trkpt>
      <trkpt lat="45.14626" lon="-0.54978">
        <ele>34.3</ele>
        <time>2020-09-03T06:36:22Z</time>
      </trkpt>
      <trkpt lat="45.14627" lon="-0.54977">
        <ele>34.3</ele>
        <time>2020-09-03T06:36:23Z</time>
      </trkpt>
      <trkpt lat="45.1463" lon="-0.54975">
        <ele>34.3</ele>
        <time>2020-09-03T06:36:25Z</time>
      </trkpt>
      <trkpt lat="45.14632" lon="-0.54974">
        <ele>34.3</ele>
        <time>2020-09-03T06:36:27Z</time>
      </trkpt>
      <trkpt lat="45.14633" lon="-0.54974">
        <ele>34.3</ele>
        <time>2020-09-03T06:36:28Z</time>
      </trkpt>
      <trkpt lat="45.14635" lon="-0.54972">
        <ele>34.3</ele>
        <time>2020-09-03T06:36:29Z</time>
      </trkpt>
      <trkpt lat="45.14637" lon="-0.54971">
        <ele>34.2</ele>
        <time>2020-09-03T06:36:30Z</time>
      </trkpt>
      <trkpt lat="45.14639" lon="-0.5497">
        <ele>34.2</ele>
        <time>2020-09-03T06:36:32Z</time>
      </trkpt>
      <trkpt lat="45.1464" lon="-0.54969">
        <ele>34.2</ele>
        <time>2020-09-03T06:36:34Z</time>
      </trkpt>
      <trkpt lat="45.14641" lon="-0.54968">
        <ele>34.2</ele>
        <time>2020-09-03T06:36:35Z</time>
      </trkpt>
      <trkpt lat="45.14642" lon="-0.54967">
        <ele>34.2</ele>
        <time>2020-09-03T06:36:36Z</time>
      </trkpt>
      <trkpt lat="45.14644" lon="-0.54966">
        <ele>34.2</ele>
        <time>2020-09-03T06:36:38Z</time>
      </trkpt>
      <trkpt lat="45.14646" lon="-0.54965">
        <ele>34.2</ele>
        <time>2020-09-03T06:36:39Z</time>
      </trkpt>
      <trkpt lat="45.14648" lon="-0.54964">
        <ele>34.2</ele>
        <time>2020-09-03T06:36:40Z</time>
      </trkpt>
      <trkpt lat="45.14649" lon="-0.54963">
        <ele>34.2</ele>
        <time>2020-09-03T06:36:42Z</time>
      </trkpt>
      <trkpt lat="45.1465" lon="-0.54962">
        <ele>34.2</ele>
        <time>2020-09-03T06:36:43Z</time>
      </trkpt>
      <trkpt lat="45.14651" lon="-0.54961">
        <ele>34.1</ele>
        <time>2020-09-03T06:36:44Z</time>
      </trkpt>
      <trkpt lat="45.14652" lon="-0.5496">
        <ele>34.1</ele>
        <time>2020-09-03T06:36:45Z</time>
      </trkpt>
      <trkpt lat="45.14654" lon="-0.54958">
        <ele>34.1</ele>
        <time>2020-09-03T06:36:46Z</time>
      </trkpt>
      <trkpt lat="45.14655" lon="-0.54957">
        <ele>34.1</ele>
        <time>2020-09-03T06:36:47Z</time>
      </trkpt>
      <trkpt lat="45.14657" lon="-0.54956">
        <ele>34.1</ele>
        <time>2020-09-03T06:36:49Z</time>
      </trkpt>
      <trkpt lat="45.14658" lon="-0.54955">
        <ele>34.1</ele>
        <time>2020-09-03T06:36:50Z</time>
      </trkpt>
      <trkpt lat="45.14659" lon="-0.54954">
        <ele>34.1</ele>
        <time>2020-09-03T06:36:51Z</time>
      </trkpt>
      <trkpt lat="45.14661" lon="-0.54953">
        <ele>34.1</ele>
        <time>2020-09-03T06:36:52Z</time>
      </trkpt>
      <trkpt lat="45.14662" lon="-0.54953">
        <ele>34.1</ele>
        <time>2020-09-03T06:36:54Z</time>
      </trkpt>
      <trkpt lat="45.14663" lon="-0.54952">
        <ele>34.1</ele>
        <time>2020-09-03T06:36:55Z</time>
      </trkpt>
      <trkpt lat="45.14665" lon="-0.54952">
        <ele>34.1</ele>
        <time>2020-09-03T06:36:56Z</time>
      </trkpt>
      <trkpt lat="45.14666" lon="-0.54952">
        <ele>34</ele>
        <time>2020-09-03T06:36:57Z</time>
      </trkpt>
      <trkpt lat="45.14668" lon="-0.54952">
        <ele>34</ele>
        <time>2020-09-03T06:36:58Z</time>
      </trkpt>
      <trkpt lat="45.14669" lon="-0.54951">
        <ele>34</ele>
        <time>2020-09-03T06:36:59Z</time>
      </trkpt>
      <trkpt lat="45.14669" lon="-0.54951">
        <ele>34</ele>
        <time>2020-09-03T06:37:00Z</time>
      </trkpt>
      <trkpt lat="45.14671" lon="-0.54951">
        <ele>34</ele>
        <time>2020-09-03T06:37:02Z</time>
      </trkpt>
      <trkpt lat="45.14672" lon="-0.54952">
        <ele>34</ele>
        <time>2020-09-03T06:37:04Z</time>
      </trkpt>
      <trkpt lat="45.14672" lon="-0.54952">
        <ele>34</ele>
        <time>2020-09-03T06:37:05Z</time>
      </trkpt>
      <trkpt lat="45.14671" lon="-0.54952">
        <ele>34</ele>
        <time>2020-09-03T06:37:06Z</time>
      </trkpt>
      <trkpt lat="45.14671" lon="-0.54952">
        <ele>34</ele>
        <time>2020-09-03T06:37:08Z</time>
      </trkpt>
      <trkpt lat="45.14671" lon="-0.54952">
        <ele>34</ele>
        <time>2020-09-03T06:37:10Z</time>
      </trkpt>
      <trkpt lat="45.14671" lon="-0.54952">
        <ele>34</ele>
        <time>2020-09-03T06:37:11Z</time>
      </trkpt>
      <trkpt lat="45.14671" lon="-0.54952">
        <ele>34</ele>
        <time>2020-09-03T06:37:12Z</time>
      </trkpt>
      <trkpt lat="45.14671" lon="-0.54952">
        <ele>34</ele>
        <time>2020-09-03T06:37:13Z</time>
      </trkpt>
      <trkpt lat="45.14672" lon="-0.54952">
        <ele>34</ele>
        <time>2020-09-03T06:37:15Z</time>
      </trkpt>
      <trkpt lat="45.14673" lon="-0.54952">
        <ele>34</ele>
        <time>2020-09-03T06:37:16Z</time>
      </trkpt>
      <trkpt lat="45.14674" lon="-0.54953">
        <ele>34</ele>
        <time>2020-09-03T06:37:17Z</time>
      </trkpt>
      <trkpt lat="45.14675" lon="-0.54952">
        <ele>34</ele>
        <time>2020-09-03T06:37:18Z</time>
      </trkpt>
      <trkpt lat="45.14676" lon="-0.54952">
        <ele>34</ele>
        <time>2020-09-03T06:37:20Z</time>
      </trkpt>
      <trkpt lat="45.14678" lon="-0.54952">
        <ele>33.9</ele>
        <time>2020-09-03T06:37:21Z</time>
      </trkpt>
      <trkpt lat="45.14679" lon="-0.54952">
        <ele>33.9</ele>
        <time>2020-09-03T06:37:23Z</time>
      </trkpt>
      <trkpt lat="45.14681" lon="-0.54952">
        <ele>33.9</ele>
        <time>2020-09-03T06:37:24Z</time>
      </trkpt>
      <trkpt lat="45.14682" lon="-0.54952">
        <ele>33.9</ele>
        <time>2020-09-03T06:37:25Z</time>
      </trkpt>
      <trkpt lat="45.14685" lon="-0.54952">
        <ele>33.9</ele>
        <time>2020-09-03T06:37:26Z</time>
      </trkpt>
      <trkpt lat="45.14687" lon="-0.54951">
        <ele>33.9</ele>
        <time>2020-09-03T06:37:28Z</time>
      </trkpt>
      <trkpt lat="45.1469" lon="-0.54949">
        <ele>33.9</ele>
        <time>2020-09-03T06:37:29Z</time>
      </trkpt>
      <trkpt lat="45.14691" lon="-0.54948">
        <ele>33.9</ele>
        <time>2020-09-03T06:37:30Z</time>
      </trkpt>
      <trkpt lat="45.14693" lon="-0.54948">
        <ele>33.9</ele>
        <time>2020-09-03T06:37:31Z</time>
      </trkpt>
      <trkpt lat="45.14696" lon="-0.54946">
        <ele>33.8</ele>
        <time>2020-09-03T06:37:32Z</time>
      </trkpt>
      <trkpt lat="45.14696" lon="-0.54946">
        <ele>33.8</ele>
        <time>2020-09-03T06:37:33Z</time>
      </trkpt>
      <trkpt lat="45.147" lon="-0.54945">
        <ele>33.8</ele>
        <time>2020-09-03T06:37:35Z</time>
      </trkpt>
      <trkpt lat="45.14701" lon="-0.54944">
        <ele>33.8</ele>
        <time>2020-09-03T06:37:36Z</time>
      </trkpt>
      <trkpt lat="45.14702" lon="-0.54943">
        <ele>33.8</ele>
        <time>2020-09-03T06:37:37Z</time>
      </trkpt>
      <trkpt lat="45.14704" lon="-0.54943">
        <ele>33.8</ele>
        <time>2020-09-03T06:37:38Z</time>
      </trkpt>
      <trkpt lat="45.14707" lon="-0.54942">
        <ele>33.8</ele>
        <time>2020-09-03T06:37:40Z</time>
      </trkpt>
      <trkpt lat="45.1471" lon="-0.5494">
        <ele>33.7</ele>
        <time>2020-09-03T06:37:42Z</time>
      </trkpt>
      <trkpt lat="45.14711" lon="-0.5494">
        <ele>33.7</ele>
        <time>2020-09-03T06:37:43Z</time>
      </trkpt>
      <trkpt lat="45.14712" lon="-0.5494">
        <ele>33.7</ele>
        <time>2020-09-03T06:37:45Z</time>
      </trkpt>
      <trkpt lat="45.14714" lon="-0.54939">
        <ele>33.7</ele>
        <time>2020-09-03T06:37:46Z</time>
      </trkpt>
      <trkpt lat="45.14717" lon="-0.54939">
        <ele>33.7</ele>
        <time>2020-09-03T06:37:47Z</time>
      </trkpt>
      <trkpt lat="45.14718" lon="-0.54939">
        <ele>33.7</ele>
        <time>2020-09-03T06:37:48Z</time>
      </trkpt>
      <trkpt lat="45.1472" lon="-0.54939">
        <ele>33.7</ele>
        <time>2020-09-03T06:37:50Z</time>
      </trkpt>
      <trkpt lat="45.14721" lon="-0.54938">
        <ele>33.7</ele>
        <time>2020-09-03T06:37:51Z</time>
      </trkpt>
      <trkpt lat="45.14722" lon="-0.54938">
        <ele>33.7</ele>
        <time>2020-09-03T06:37:52Z</time>
      </trkpt>
      <trkpt lat="45.14725" lon="-0.54938">
        <ele>33.6</ele>
        <time>2020-09-03T06:37:54Z</time>
      </trkpt>
      <trkpt lat="45.14726" lon="-0.54937">
        <ele>33.6</ele>
        <time>2020-09-03T06:37:55Z</time>
      </trkpt>
      <trkpt lat="45.14727" lon="-0.54937">
        <ele>33.6</ele>
        <time>2020-09-03T06:37:57Z</time>
      </trkpt>
      <trkpt lat="45.14728" lon="-0.54937">
        <ele>33.6</ele>
        <time>2020-09-03T06:37:58Z</time>
      </trkpt>
      <trkpt lat="45.14731" lon="-0.54936">
        <ele>33.6</ele>
        <time>2020-09-03T06:38:00Z</time>
      </trkpt>
      <trkpt lat="45.14734" lon="-0.54935">
        <ele>33.6</ele>
        <time>2020-09-03T06:38:02Z</time>
      </trkpt>
      <trkpt lat="45.14735" lon="-0.54935">
        <ele>33.6</ele>
        <time>2020-09-03T06:38:03Z</time>
      </trkpt>
      <trkpt lat="45.14737" lon="-0.54935">
        <ele>33.6</ele>
        <time>2020-09-03T06:38:05Z</time>
      </trkpt>
      <trkpt lat="45.14738" lon="-0.54935">
        <ele>33.6</ele>
        <time>2020-09-03T06:38:06Z</time>
      </trkpt>
      <trkpt lat="45.1474" lon="-0.54935">
        <ele>33.6</ele>
        <time>2020-09-03T06:38:07Z</time>
      </trkpt>
      <trkpt lat="45.14743" lon="-0.54934">
        <ele>33.5</ele>
        <time>2020-09-03T06:38:09Z</time>
      </trkpt>
      <trkpt lat="45.14745" lon="-0.54934">
        <ele>33.5</ele>
        <time>2020-09-03T06:38:11Z</time>
      </trkpt>
      <trkpt lat="45.14747" lon="-0.54934">
        <ele>33.5</ele>
        <time>2020-09-03T06:38:12Z</time>
      </trkpt>
      <trkpt lat="45.14748" lon="-0.54933">
        <ele>33.5</ele>
        <time>2020-09-03T06:38:13Z</time>
      </trkpt>
      <trkpt lat="45.14751" lon="-0.54932">
        <ele>33.5</ele>
        <time>2020-09-03T06:38:15Z</time>
      </trkpt>
      <trkpt lat="45.14752" lon="-0.54932">
        <ele>33.5</ele>
        <time>2020-09-03T06:38:16Z</time>
      </trkpt>
      <trkpt lat="45.14753" lon="-0.54932">
        <ele>33.5</ele>
        <time>2020-09-03T06:38:17Z</time>
      </trkpt>
      <trkpt lat="45.14756" lon="-0.54931">
        <ele>33.5</ele>
        <time>2020-09-03T06:38:19Z</time>
      </trkpt>
      <trkpt lat="45.14758" lon="-0.5493">
        <ele>33.4</ele>
        <time>2020-09-03T06:38:20Z</time>
      </trkpt>
      <trkpt lat="45.14759" lon="-0.5493">
        <ele>33.4</ele>
        <time>2020-09-03T06:38:21Z</time>
      </trkpt>
      <trkpt lat="45.1476" lon="-0.5493">
        <ele>33.4</ele>
        <time>2020-09-03T06:38:22Z</time>
      </trkpt>
      <trkpt lat="45.14764" lon="-0.54929">
        <ele>33.4</ele>
        <time>2020-09-03T06:38:24Z</time>
      </trkpt>
      <trkpt lat="45.14765" lon="-0.54929">
        <ele>33.4</ele>
        <time>2020-09-03T06:38:25Z</time>
      </trkpt>
      <trkpt lat="45.14767" lon="-0.54928">
        <ele>33.4</ele>
        <time>2020-09-03T06:38:27Z</time>
      </trkpt>
      <trkpt lat="45.14768" lon="-0.54928">
        <ele>33.4</ele>
        <time>2020-09-03T06:38:28Z</time>
      </trkpt>
      <trkpt lat="45.1477" lon="-0.54928">
        <ele>33.4</ele>
        <time>2020-09-03T06:38:29Z</time>
      </trkpt>
      <trkpt lat="45.14772" lon="-0.54928">
        <ele>33.4</ele>
        <time>2020-09-03T06:38:31Z</time>
      </trkpt>
      <trkpt lat="45.14773" lon="-0.54928">
        <ele>33.3</ele>
        <time>2020-09-03T06:38:32Z</time>
      </trkpt>
      <trkpt lat="45.14776" lon="-0.54927">
        <ele>33.3</ele>
        <time>2020-09-03T06:38:33Z</time>
      </trkpt>
      <trkpt lat="45.14777" lon="-0.54927">
        <ele>33.3</ele>
        <time>2020-09-03T06:38:34Z</time>
      </trkpt>
      <trkpt lat="45.14778" lon="-0.54927">
        <ele>33.3</ele>
        <time>2020-09-03T06:38:36Z</time>
      </trkpt>
      <trkpt lat="45.1478" lon="-0.54926">
        <ele>33.3</ele>
        <time>2020-09-03T06:38:37Z</time>
      </trkpt>
      <trkpt lat="45.14782" lon="-0.54926">
        <ele>33.3</ele>
        <time>2020-09-03T06:38:39Z</time>
      </trkpt>
      <trkpt lat="45.14783" lon="-0.54925">
        <ele>33.3</ele>
        <time>2020-09-03T06:38:40Z</time>
      </trkpt>
      <trkpt lat="45.14785" lon="-0.54924">
        <ele>33.3</ele>
        <time>2020-09-03T06:38:42Z</time>
      </trkpt>
      <trkpt lat="45.14786" lon="-0.54924">
        <ele>33.3</ele>
        <time>2020-09-03T06:38:43Z</time>
      </trkpt>
      <trkpt lat="45.14789" lon="-0.54922">
        <ele>33.2</ele>
        <time>2020-09-03T06:38:44Z</time>
      </trkpt>
      <trkpt lat="45.14791" lon="-0.54921">
        <ele>33.2</ele>
        <time>2020-09-03T06:38:46Z</time>
      </trkpt>
      <trkpt lat="45.14794" lon="-0.54919">
        <ele>33.2</ele>
        <time>2020-09-03T06:38:48Z</time>
      </trkpt>
      <trkpt lat="45.14794" lon="-0.54919">
        <ele>33.2</ele>
        <time>2020-09-03T06:38:49Z</time>
      </trkpt>
      <trkpt lat="45.14796" lon="-0.54918">
        <ele>33.2</ele>
        <time>2020-09-03T06:38:51Z</time>
      </trkpt>
      <trkpt lat="45.14797" lon="-0.54918">
        <ele>33.2</ele>
        <time>2020-09-03T06:38:52Z</time>
      </trkpt>
      <trkpt lat="45.14799" lon="-0.54916">
        <ele>33.2</ele>
        <time>2020-09-03T06:38:54Z</time>
      </trkpt>
      <trkpt lat="45.14802" lon="-0.54915">
        <ele>33.2</ele>
        <time>2020-09-03T06:38:56Z</time>
      </trkpt>
      <trkpt lat="45.14803" lon="-0.54914">
        <ele>33.2</ele>
        <time>2020-09-03T06:38:57Z</time>
      </trkpt>
      <trkpt lat="45.14806" lon="-0.54912">
        <ele>33.1</ele>
        <time>2020-09-03T06:38:58Z</time>
      </trkpt>
      <trkpt lat="45.14808" lon="-0.54909">
        <ele>33.1</ele>
        <time>2020-09-03T06:39:00Z</time>
      </trkpt>
      <trkpt lat="45.14809" lon="-0.54909">
        <ele>33.1</ele>
        <time>2020-09-03T06:39:01Z</time>
      </trkpt>
      <trkpt lat="45.14811" lon="-0.54907">
        <ele>33.1</ele>
        <time>2020-09-03T06:39:03Z</time>
      </trkpt>
      <trkpt lat="45.14814" lon="-0.54905">
        <ele>33.1</ele>
        <time>2020-09-03T06:39:05Z</time>
      </trkpt>
      <trkpt lat="45.14815" lon="-0.54904">
        <ele>33.1</ele>
        <time>2020-09-03T06:39:06Z</time>
      </trkpt>
      <trkpt lat="45.14817" lon="-0.54902">
        <ele>33</ele>
        <time>2020-09-03T06:39:08Z</time>
      </trkpt>
      <trkpt lat="45.1482" lon="-0.54901">
        <ele>33</ele>
        <time>2020-09-03T06:39:09Z</time>
      </trkpt>
      <trkpt lat="45.1482" lon="-0.549">
        <ele>33</ele>
        <time>2020-09-03T06:39:10Z</time>
      </trkpt>
      <trkpt lat="45.14822" lon="-0.54899">
        <ele>33</ele>
        <time>2020-09-03T06:39:11Z</time>
      </trkpt>
      <trkpt lat="45.14823" lon="-0.54899">
        <ele>33</ele>
        <time>2020-09-03T06:39:12Z</time>
      </trkpt>
      <trkpt lat="45.14824" lon="-0.54898">
        <ele>33</ele>
        <time>2020-09-03T06:39:13Z</time>
      </trkpt>
      <trkpt lat="45.14826" lon="-0.54897">
        <ele>33</ele>
        <time>2020-09-03T06:39:14Z</time>
      </trkpt>
      <trkpt lat="45.14827" lon="-0.54895">
        <ele>33</ele>
        <time>2020-09-03T06:39:16Z</time>
      </trkpt>
      <trkpt lat="45.14829" lon="-0.54895">
        <ele>33</ele>
        <time>2020-09-03T06:39:17Z</time>
      </trkpt>
      <trkpt lat="45.1483" lon="-0.54894">
        <ele>33</ele>
        <time>2020-09-03T06:39:18Z</time>
      </trkpt>
      <trkpt lat="45.14833" lon="-0.54892">
        <ele>32.9</ele>
        <time>2020-09-03T06:39:20Z</time>
      </trkpt>
      <trkpt lat="45.14833" lon="-0.54891">
        <ele>32.9</ele>
        <time>2020-09-03T06:39:21Z</time>
      </trkpt>
      <trkpt lat="45.14834" lon="-0.54891">
        <ele>32.9</ele>
        <time>2020-09-03T06:39:22Z</time>
      </trkpt>
      <trkpt lat="45.14835" lon="-0.5489">
        <ele>32.9</ele>
        <time>2020-09-03T06:39:23Z</time>
      </trkpt>
      <trkpt lat="45.14839" lon="-0.54888">
        <ele>32.9</ele>
        <time>2020-09-03T06:39:25Z</time>
      </trkpt>
      <trkpt lat="45.14841" lon="-0.54887">
        <ele>32.9</ele>
        <time>2020-09-03T06:39:27Z</time>
      </trkpt>
      <trkpt lat="45.14842" lon="-0.54886">
        <ele>32.9</ele>
        <time>2020-09-03T06:39:29Z</time>
      </trkpt>
      <trkpt lat="45.14844" lon="-0.54885">
        <ele>32.9</ele>
        <time>2020-09-03T06:39:30Z</time>
      </trkpt>
      <trkpt lat="45.14845" lon="-0.54884">
        <ele>32.9</ele>
        <time>2020-09-03T06:39:31Z</time>
      </trkpt>
      <trkpt lat="45.14846" lon="-0.54883">
        <ele>32.9</ele>
        <time>2020-09-03T06:39:32Z</time>
      </trkpt>
      <trkpt lat="45.14849" lon="-0.54881">
        <ele>32.8</ele>
        <time>2020-09-03T06:39:34Z</time>
      </trkpt>
      <trkpt lat="45.1485" lon="-0.5488">
        <ele>32.8</ele>
        <time>2020-09-03T06:39:35Z</time>
      </trkpt>
      <trkpt lat="45.14853" lon="-0.54879">
        <ele>32.8</ele>
        <time>2020-09-03T06:39:37Z</time>
      </trkpt>
      <trkpt lat="45.14855" lon="-0.54877">
        <ele>32.8</ele>
        <time>2020-09-03T06:39:39Z</time>
      </trkpt>
      <trkpt lat="45.14856" lon="-0.54876">
        <ele>32.8</ele>
        <time>2020-09-03T06:39:40Z</time>
      </trkpt>
      <trkpt lat="45.14858" lon="-0.54875">
        <ele>32.8</ele>
        <time>2020-09-03T06:39:42Z</time>
      </trkpt>
      <trkpt lat="45.1486" lon="-0.54873">
        <ele>32.8</ele>
        <time>2020-09-03T06:39:43Z</time>
      </trkpt>
      <trkpt lat="45.14862" lon="-0.54872">
        <ele>32.7</ele>
        <time>2020-09-03T06:39:45Z</time>
      </trkpt>
      <trkpt lat="45.14863" lon="-0.54871">
        <ele>32.7</ele>
        <time>2020-09-03T06:39:46Z</time>
      </trkpt>
      <trkpt lat="45.14865" lon="-0.5487">
        <ele>32.7</ele>
        <time>2020-09-03T06:39:48Z</time>
      </trkpt>
      <trkpt lat="45.14867" lon="-0.54868">
        <ele>32.7</ele>
        <time>2020-09-03T06:39:49Z</time>
      </trkpt>
      <trkpt lat="45.14868" lon="-0.54867">
        <ele>32.7</ele>
        <time>2020-09-03T06:39:51Z</time>
      </trkpt>
      <trkpt lat="45.14869" lon="-0.54866">
        <ele>32.7</ele>
        <time>2020-09-03T06:39:52Z</time>
      </trkpt>
      <trkpt lat="45.1487" lon="-0.54864">
        <ele>32.7</ele>
        <time>2020-09-03T06:39:54Z</time>
      </trkpt>
      <trkpt lat="45.14871" lon="-0.54863">
        <ele>32.7</ele>
        <time>2020-09-03T06:39:55Z</time>
      </trkpt>
      <trkpt lat="45.14873" lon="-0.54862">
        <ele>32.7</ele>
        <time>2020-09-03T06:39:56Z</time>
      </trkpt>
      <trkpt lat="45.14874" lon="-0.5486">
        <ele>32.7</ele>
        <time>2020-09-03T06:39:58Z</time>
      </trkpt>
      <trkpt lat="45.14877" lon="-0.54858">
        <ele>32.6</ele>
        <time>2020-09-03T06:39:59Z</time>
      </trkpt>
      <trkpt lat="45.14878" lon="-0.54858">
        <ele>32.6</ele>
        <time>2020-09-03T06:40:00Z</time>
      </trkpt>
      <trkpt lat="45.14879" lon="-0.54857">
        <ele>32.6</ele>
        <time>2020-09-03T06:40:01Z</time>
      </trkpt>
      <trkpt lat="45.14881" lon="-0.54855">
        <ele>32.6</ele>
        <time>2020-09-03T06:40:02Z</time>
      </trkpt>
      <trkpt lat="45.14883" lon="-0.54853">
        <ele>32.6</ele>
        <time>2020-09-03T06:40:04Z</time>
      </trkpt>
      <trkpt lat="45.14884" lon="-0.54852">
        <ele>32.6</ele>
        <time>2020-09-03T06:40:05Z</time>
      </trkpt>
      <trkpt lat="45.14885" lon="-0.54851">
        <ele>32.6</ele>
        <time>2020-09-03T06:40:06Z</time>
      </trkpt>
      <trkpt lat="45.14887" lon="-0.54849">
        <ele>32.6</ele>
        <time>2020-09-03T06:40:08Z</time>
      </trkpt>
      <trkpt lat="45.14888" lon="-0.54847">
        <ele>32.5</ele>
        <time>2020-09-03T06:40:10Z</time>
      </trkpt>
      <trkpt lat="45.1489" lon="-0.54846">
        <ele>32.5</ele>
        <time>2020-09-03T06:40:12Z</time>
      </trkpt>
      <trkpt lat="45.14891" lon="-0.54845">
        <ele>32.5</ele>
        <time>2020-09-03T06:40:13Z</time>
      </trkpt>
      <trkpt lat="45.14892" lon="-0.54844">
        <ele>32.5</ele>
        <time>2020-09-03T06:40:14Z</time>
      </trkpt>
      <trkpt lat="45.14893" lon="-0.54842">
        <ele>32.5</ele>
        <time>2020-09-03T06:40:16Z</time>
      </trkpt>
      <trkpt lat="45.14895" lon="-0.54841">
        <ele>32.5</ele>
        <time>2020-09-03T06:40:17Z</time>
      </trkpt>
      <trkpt lat="45.14896" lon="-0.5484">
        <ele>32.5</ele>
        <time>2020-09-03T06:40:18Z</time>
      </trkpt>
      <trkpt lat="45.14899" lon="-0.54837">
        <ele>32.5</ele>
        <time>2020-09-03T06:40:20Z</time>
      </trkpt>
      <trkpt lat="45.14901" lon="-0.54834">
        <ele>32.5</ele>
        <time>2020-09-03T06:40:21Z</time>
      </trkpt>
      <trkpt lat="45.14902" lon="-0.54833">
        <ele>32.4</ele>
        <time>2020-09-03T06:40:23Z</time>
      </trkpt>
      <trkpt lat="45.14903" lon="-0.54831">
        <ele>32.4</ele>
        <time>2020-09-03T06:40:24Z</time>
      </trkpt>
      <trkpt lat="45.14904" lon="-0.5483">
        <ele>32.4</ele>
        <time>2020-09-03T06:40:25Z</time>
      </trkpt>
      <trkpt lat="45.14907" lon="-0.54829">
        <ele>32.4</ele>
        <time>2020-09-03T06:40:26Z</time>
      </trkpt>
      <trkpt lat="45.14908" lon="-0.54828">
        <ele>32.4</ele>
        <time>2020-09-03T06:40:28Z</time>
      </trkpt>
      <trkpt lat="45.1491" lon="-0.54828">
        <ele>32.4</ele>
        <time>2020-09-03T06:40:29Z</time>
      </trkpt>
      <trkpt lat="45.14911" lon="-0.54827">
        <ele>32.4</ele>
        <time>2020-09-03T06:40:30Z</time>
      </trkpt>
      <trkpt lat="45.14912" lon="-0.54827">
        <ele>32.4</ele>
        <time>2020-09-03T06:40:32Z</time>
      </trkpt>
      <trkpt lat="45.14914" lon="-0.54826">
        <ele>32.4</ele>
        <time>2020-09-03T06:40:33Z</time>
      </trkpt>
      <trkpt lat="45.14916" lon="-0.54824">
        <ele>32.4</ele>
        <time>2020-09-03T06:40:34Z</time>
      </trkpt>
      <trkpt lat="45.14918" lon="-0.54822">
        <ele>32.3</ele>
        <time>2020-09-03T06:40:36Z</time>
      </trkpt>
      <trkpt lat="45.14919" lon="-0.54821">
        <ele>32.3</ele>
        <time>2020-09-03T06:40:37Z</time>
      </trkpt>
      <trkpt lat="45.14921" lon="-0.54819">
        <ele>32.3</ele>
        <time>2020-09-03T06:40:39Z</time>
      </trkpt>
      <trkpt lat="45.14922" lon="-0.54818">
        <ele>32.3</ele>
        <time>2020-09-03T06:40:40Z</time>
      </trkpt>
      <trkpt lat="45.14924" lon="-0.54816">
        <ele>32.3</ele>
        <time>2020-09-03T06:40:41Z</time>
      </trkpt>
      <trkpt lat="45.14925" lon="-0.54815">
        <ele>32.3</ele>
        <time>2020-09-03T06:40:43Z</time>
      </trkpt>
      <trkpt lat="45.14927" lon="-0.54813">
        <ele>32.3</ele>
        <time>2020-09-03T06:40:44Z</time>
      </trkpt>
      <trkpt lat="45.14928" lon="-0.54812">
        <ele>32.3</ele>
        <time>2020-09-03T06:40:46Z</time>
      </trkpt>
      <trkpt lat="45.14929" lon="-0.5481">
        <ele>32.2</ele>
        <time>2020-09-03T06:40:47Z</time>
      </trkpt>
      <trkpt lat="45.14931" lon="-0.5481">
        <ele>32.2</ele>
        <time>2020-09-03T06:40:48Z</time>
      </trkpt>
      <trkpt lat="45.14932" lon="-0.54809">
        <ele>32.2</ele>
        <time>2020-09-03T06:40:50Z</time>
      </trkpt>
      <trkpt lat="45.14934" lon="-0.54808">
        <ele>32.2</ele>
        <time>2020-09-03T06:40:51Z</time>
      </trkpt>
      <trkpt lat="45.14935" lon="-0.54808">
        <ele>32.2</ele>
        <time>2020-09-03T06:40:52Z</time>
      </trkpt>
      <trkpt lat="45.14937" lon="-0.54809">
        <ele>32.2</ele>
        <time>2020-09-03T06:40:53Z</time>
      </trkpt>
      <trkpt lat="45.14939" lon="-0.5481">
        <ele>32.2</ele>
        <time>2020-09-03T06:40:55Z</time>
      </trkpt>
      <trkpt lat="45.1494" lon="-0.54813">
        <ele>32.2</ele>
        <time>2020-09-03T06:40:56Z</time>
      </trkpt>
      <trkpt lat="45.14941" lon="-0.54815">
        <ele>32.2</ele>
        <time>2020-09-03T06:40:58Z</time>
      </trkpt>
      <trkpt lat="45.14942" lon="-0.54817">
        <ele>32.1</ele>
        <time>2020-09-03T06:40:59Z</time>
      </trkpt>
      <trkpt lat="45.14942" lon="-0.5482">
        <ele>32.1</ele>
        <time>2020-09-03T06:41:00Z</time>
      </trkpt>
      <trkpt lat="45.14942" lon="-0.54825">
        <ele>32.1</ele>
        <time>2020-09-03T06:41:02Z</time>
      </trkpt>
      <trkpt lat="45.14942" lon="-0.54827">
        <ele>32.1</ele>
        <time>2020-09-03T06:41:03Z</time>
      </trkpt>
      <trkpt lat="45.14942" lon="-0.5483">
        <ele>32.1</ele>
        <time>2020-09-03T06:41:05Z</time>
      </trkpt>
      <trkpt lat="45.14943" lon="-0.54835">
        <ele>32</ele>
        <time>2020-09-03T06:41:06Z</time>
      </trkpt>
      <trkpt lat="45.14944" lon="-0.54836">
        <ele>32</ele>
        <time>2020-09-03T06:41:07Z</time>
      </trkpt>
      <trkpt lat="45.14944" lon="-0.54837">
        <ele>32</ele>
        <time>2020-09-03T06:41:09Z</time>
      </trkpt>
      <trkpt lat="45.14945" lon="-0.54839">
        <ele>32</ele>
        <time>2020-09-03T06:41:10Z</time>
      </trkpt>
      <trkpt lat="45.14946" lon="-0.54841">
        <ele>32</ele>
        <time>2020-09-03T06:41:11Z</time>
      </trkpt>
      <trkpt lat="45.14947" lon="-0.54843">
        <ele>31.9</ele>
        <time>2020-09-03T06:41:13Z</time>
      </trkpt>
      <trkpt lat="45.14947" lon="-0.54844">
        <ele>31.9</ele>
        <time>2020-09-03T06:41:14Z</time>
      </trkpt>
      <trkpt lat="45.14948" lon="-0.54846">
        <ele>31.9</ele>
        <time>2020-09-03T06:41:15Z</time>
      </trkpt>
      <trkpt lat="45.14949" lon="-0.54848">
        <ele>31.9</ele>
        <time>2020-09-03T06:41:17Z</time>
      </trkpt>
      <trkpt lat="45.1495" lon="-0.5485">
        <ele>31.9</ele>
        <time>2020-09-03T06:41:19Z</time>
      </trkpt>
      <trkpt lat="45.1495" lon="-0.54852">
        <ele>31.9</ele>
        <time>2020-09-03T06:41:20Z</time>
      </trkpt>
      <trkpt lat="45.14951" lon="-0.54854">
        <ele>31.8</ele>
        <time>2020-09-03T06:41:21Z</time>
      </trkpt>
      <trkpt lat="45.14952" lon="-0.54857">
        <ele>31.8</ele>
        <time>2020-09-03T06:41:22Z</time>
      </trkpt>
      <trkpt lat="45.14954" lon="-0.54861">
        <ele>31.8</ele>
        <time>2020-09-03T06:41:24Z</time>
      </trkpt>
      <trkpt lat="45.14954" lon="-0.54862">
        <ele>31.8</ele>
        <time>2020-09-03T06:41:25Z</time>
      </trkpt>
      <trkpt lat="45.14956" lon="-0.54865">
        <ele>31.8</ele>
        <time>2020-09-03T06:41:26Z</time>
      </trkpt>
      <trkpt lat="45.14956" lon="-0.54867">
        <ele>31.8</ele>
        <time>2020-09-03T06:41:27Z</time>
      </trkpt>
      <trkpt lat="45.14957" lon="-0.54869">
        <ele>31.8</ele>
        <time>2020-09-03T06:41:28Z</time>
      </trkpt>
      <trkpt lat="45.14958" lon="-0.54873">
        <ele>31.7</ele>
        <time>2020-09-03T06:41:30Z</time>
      </trkpt>
      <trkpt lat="45.14959" lon="-0.54875">
        <ele>31.7</ele>
        <time>2020-09-03T06:41:31Z</time>
      </trkpt>
      <trkpt lat="45.1496" lon="-0.54876">
        <ele>31.7</ele>
        <time>2020-09-03T06:41:32Z</time>
      </trkpt>
      <trkpt lat="45.14961" lon="-0.54879">
        <ele>31.7</ele>
        <time>2020-09-03T06:41:34Z</time>
      </trkpt>
      <trkpt lat="45.14962" lon="-0.5488">
        <ele>31.7</ele>
        <time>2020-09-03T06:41:35Z</time>
      </trkpt>
      <trkpt lat="45.14963" lon="-0.54882">
        <ele>31.7</ele>
        <time>2020-09-03T06:41:36Z</time>
      </trkpt>
      <trkpt lat="45.14964" lon="-0.54883">
        <ele>31.7</ele>
        <time>2020-09-03T06:41:37Z</time>
      </trkpt>
      <trkpt lat="45.14965" lon="-0.54884">
        <ele>31.7</ele>
        <time>2020-09-03T06:41:38Z</time>
      </trkpt>
      <trkpt lat="45.14966" lon="-0.54887">
        <ele>31.7</ele>
        <time>2020-09-03T06:41:40Z</time>
      </trkpt>
      <trkpt lat="45.14967" lon="-0.5489">
        <ele>31.7</ele>
        <time>2020-09-03T06:41:42Z</time>
      </trkpt>
      <trkpt lat="45.14968" lon="-0.54892">
        <ele>31.7</ele>
        <time>2020-09-03T06:41:43Z</time>
      </trkpt>
      <trkpt lat="45.1497" lon="-0.54894">
        <ele>31.7</ele>
        <time>2020-09-03T06:41:44Z</time>
      </trkpt>
      <trkpt lat="45.14971" lon="-0.54896">
        <ele>31.7</ele>
        <time>2020-09-03T06:41:46Z</time>
      </trkpt>
      <trkpt lat="45.14972" lon="-0.54897">
        <ele>31.7</ele>
        <time>2020-09-03T06:41:47Z</time>
      </trkpt>
      <trkpt lat="45.14973" lon="-0.54899">
        <ele>31.7</ele>
        <time>2020-09-03T06:41:48Z</time>
      </trkpt>
      <trkpt lat="45.14974" lon="-0.54901">
        <ele>31.7</ele>
        <time>2020-09-03T06:41:50Z</time>
      </trkpt>
      <trkpt lat="45.14975" lon="-0.54904">
        <ele>31.7</ele>
        <time>2020-09-03T06:41:51Z</time>
      </trkpt>
      <trkpt lat="45.14976" lon="-0.54906">
        <ele>31.7</ele>
        <time>2020-09-03T06:41:53Z</time>
      </trkpt>
      <trkpt lat="45.14977" lon="-0.54908">
        <ele>31.7</ele>
        <time>2020-09-03T06:41:54Z</time>
      </trkpt>
      <trkpt lat="45.14978" lon="-0.54911">
        <ele>31.7</ele>
        <time>2020-09-03T06:41:56Z</time>
      </trkpt>
      <trkpt lat="45.14979" lon="-0.54912">
        <ele>31.7</ele>
        <time>2020-09-03T06:41:57Z</time>
      </trkpt>
      <trkpt lat="45.1498" lon="-0.54914">
        <ele>31.7</ele>
        <time>2020-09-03T06:41:58Z</time>
      </trkpt>
      <trkpt lat="45.14982" lon="-0.54918">
        <ele>31.6</ele>
        <time>2020-09-03T06:42:00Z</time>
      </trkpt>
      <trkpt lat="45.14982" lon="-0.54918">
        <ele>31.6</ele>
        <time>2020-09-03T06:42:01Z</time>
      </trkpt>
      <trkpt lat="45.14983" lon="-0.54921">
        <ele>31.6</ele>
        <time>2020-09-03T06:42:03Z</time>
      </trkpt>
      <trkpt lat="45.14984" lon="-0.54923">
        <ele>31.6</ele>
        <time>2020-09-03T06:42:05Z</time>
      </trkpt>
      <trkpt lat="45.14985" lon="-0.54926">
        <ele>31.5</ele>
        <time>2020-09-03T06:42:06Z</time>
      </trkpt>
      <trkpt lat="45.14986" lon="-0.54927">
        <ele>31.5</ele>
        <time>2020-09-03T06:42:07Z</time>
      </trkpt>
      <trkpt lat="45.14987" lon="-0.54929">
        <ele>31.4</ele>
        <time>2020-09-03T06:42:08Z</time>
      </trkpt>
      <trkpt lat="45.14988" lon="-0.54934">
        <ele>31.3</ele>
        <time>2020-09-03T06:42:11Z</time>
      </trkpt>
      <trkpt lat="45.14989" lon="-0.54935">
        <ele>31.2</ele>
        <time>2020-09-03T06:42:12Z</time>
      </trkpt>
      <trkpt lat="45.14989" lon="-0.54937">
        <ele>31.2</ele>
        <time>2020-09-03T06:42:13Z</time>
      </trkpt>
      <trkpt lat="45.1499" lon="-0.5494">
        <ele>31.1</ele>
        <time>2020-09-03T06:42:15Z</time>
      </trkpt>
      <trkpt lat="45.14991" lon="-0.54943">
        <ele>31.1</ele>
        <time>2020-09-03T06:42:16Z</time>
      </trkpt>
      <trkpt lat="45.14992" lon="-0.54944">
        <ele>31</ele>
        <time>2020-09-03T06:42:17Z</time>
      </trkpt>
      <trkpt lat="45.14993" lon="-0.54946">
        <ele>31</ele>
        <time>2020-09-03T06:42:18Z</time>
      </trkpt>
      <trkpt lat="45.14993" lon="-0.54948">
        <ele>30.9</ele>
        <time>2020-09-03T06:42:19Z</time>
      </trkpt>
      <trkpt lat="45.14995" lon="-0.54951">
        <ele>30.9</ele>
        <time>2020-09-03T06:42:20Z</time>
      </trkpt>
      <trkpt lat="45.14995" lon="-0.54952">
        <ele>30.8</ele>
        <time>2020-09-03T06:42:21Z</time>
      </trkpt>
      <trkpt lat="45.14996" lon="-0.54954">
        <ele>30.8</ele>
        <time>2020-09-03T06:42:23Z</time>
      </trkpt>
      <trkpt lat="45.14997" lon="-0.54955">
        <ele>30.8</ele>
        <time>2020-09-03T06:42:24Z</time>
      </trkpt>
      <trkpt lat="45.14997" lon="-0.54957">
        <ele>30.8</ele>
        <time>2020-09-03T06:42:25Z</time>
      </trkpt>
      <trkpt lat="45.14998" lon="-0.54959">
        <ele>30.8</ele>
        <time>2020-09-03T06:42:26Z</time>
      </trkpt>
      <trkpt lat="45.14999" lon="-0.54962">
        <ele>30.7</ele>
        <time>2020-09-03T06:42:28Z</time>
      </trkpt>
      <trkpt lat="45.15001" lon="-0.54965">
        <ele>30.7</ele>
        <time>2020-09-03T06:42:29Z</time>
      </trkpt>
      <trkpt lat="45.15002" lon="-0.54966">
        <ele>30.7</ele>
        <time>2020-09-03T06:42:30Z</time>
      </trkpt>
      <trkpt lat="45.15003" lon="-0.54967">
        <ele>30.7</ele>
        <time>2020-09-03T06:42:32Z</time>
      </trkpt>
      <trkpt lat="45.15004" lon="-0.54969">
        <ele>30.7</ele>
        <time>2020-09-03T06:42:33Z</time>
      </trkpt>
      <trkpt lat="45.15006" lon="-0.54973">
        <ele>30.6</ele>
        <time>2020-09-03T06:42:35Z</time>
      </trkpt>
      <trkpt lat="45.15006" lon="-0.54974">
        <ele>30.6</ele>
        <time>2020-09-03T06:42:36Z</time>
      </trkpt>
      <trkpt lat="45.15007" lon="-0.54975">
        <ele>30.6</ele>
        <time>2020-09-03T06:42:37Z</time>
      </trkpt>
      <trkpt lat="45.15008" lon="-0.54977">
        <ele>30.5</ele>
        <time>2020-09-03T06:42:38Z</time>
      </trkpt>
      <trkpt lat="45.1501" lon="-0.54981">
        <ele>30.4</ele>
        <time>2020-09-03T06:42:40Z</time>
      </trkpt>
      <trkpt lat="45.1501" lon="-0.54983">
        <ele>30.4</ele>
        <time>2020-09-03T06:42:41Z</time>
      </trkpt>
      <trkpt lat="45.15011" lon="-0.54983">
        <ele>30.4</ele>
        <time>2020-09-03T06:42:42Z</time>
      </trkpt>
      <trkpt lat="45.15011" lon="-0.54985">
        <ele>30.3</ele>
        <time>2020-09-03T06:42:44Z</time>
      </trkpt>
      <trkpt lat="45.15012" lon="-0.54987">
        <ele>30.3</ele>
        <time>2020-09-03T06:42:45Z</time>
      </trkpt>
      <trkpt lat="45.15013" lon="-0.5499">
        <ele>30.2</ele>
        <time>2020-09-03T06:42:46Z</time>
      </trkpt>
      <trkpt lat="45.15014" lon="-0.54991">
        <ele>30.2</ele>
        <time>2020-09-03T06:42:47Z</time>
      </trkpt>
      <trkpt lat="45.15015" lon="-0.54993">
        <ele>30.1</ele>
        <time>2020-09-03T06:42:48Z</time>
      </trkpt>
      <trkpt lat="45.15016" lon="-0.54995">
        <ele>30</ele>
        <time>2020-09-03T06:42:50Z</time>
      </trkpt>
      <trkpt lat="45.15016" lon="-0.54996">
        <ele>30</ele>
        <time>2020-09-03T06:42:51Z</time>
      </trkpt>
      <trkpt lat="45.15017" lon="-0.54998">
        <ele>29.9</ele>
        <time>2020-09-03T06:42:53Z</time>
      </trkpt>
      <trkpt lat="45.15018" lon="-0.55">
        <ele>29.9</ele>
        <time>2020-09-03T06:42:54Z</time>
      </trkpt>
      <trkpt lat="45.15019" lon="-0.55004">
        <ele>29.8</ele>
        <time>2020-09-03T06:42:56Z</time>
      </trkpt>
      <trkpt lat="45.1502" lon="-0.55005">
        <ele>29.8</ele>
        <time>2020-09-03T06:42:57Z</time>
      </trkpt>
      <trkpt lat="45.1502" lon="-0.55008">
        <ele>29.7</ele>
        <time>2020-09-03T06:42:58Z</time>
      </trkpt>
      <trkpt lat="45.15022" lon="-0.55011">
        <ele>29.6</ele>
        <time>2020-09-03T06:43:00Z</time>
      </trkpt>
      <trkpt lat="45.15022" lon="-0.55013">
        <ele>29.5</ele>
        <time>2020-09-03T06:43:01Z</time>
      </trkpt>
      <trkpt lat="45.15023" lon="-0.55015">
        <ele>29.5</ele>
        <time>2020-09-03T06:43:02Z</time>
      </trkpt>
      <trkpt lat="45.15023" lon="-0.55016">
        <ele>29.4</ele>
        <time>2020-09-03T06:43:03Z</time>
      </trkpt>
      <trkpt lat="45.15024" lon="-0.55018">
        <ele>29.4</ele>
        <time>2020-09-03T06:43:05Z</time>
      </trkpt>
      <trkpt lat="45.15025" lon="-0.55021">
        <ele>29.3</ele>
        <time>2020-09-03T06:43:06Z</time>
      </trkpt>
      <trkpt lat="45.15026" lon="-0.55022">
        <ele>29.3</ele>
        <time>2020-09-03T06:43:07Z</time>
      </trkpt>
      <trkpt lat="45.15027" lon="-0.55024">
        <ele>29.2</ele>
        <time>2020-09-03T06:43:08Z</time>
      </trkpt>
      <trkpt lat="45.15027" lon="-0.55026">
        <ele>29.2</ele>
        <time>2020-09-03T06:43:09Z</time>
      </trkpt>
      <trkpt lat="45.15028" lon="-0.55029">
        <ele>29.1</ele>
        <time>2020-09-03T06:43:11Z</time>
      </trkpt>
      <trkpt lat="45.15029" lon="-0.5503">
        <ele>29.1</ele>
        <time>2020-09-03T06:43:12Z</time>
      </trkpt>
      <trkpt lat="45.15029" lon="-0.55031">
        <ele>29.1</ele>
        <time>2020-09-03T06:43:13Z</time>
      </trkpt>
      <trkpt lat="45.1503" lon="-0.55033">
        <ele>29</ele>
        <time>2020-09-03T06:43:15Z</time>
      </trkpt>
      <trkpt lat="45.15032" lon="-0.55036">
        <ele>29</ele>
        <time>2020-09-03T06:43:16Z</time>
      </trkpt>
      <trkpt lat="45.15033" lon="-0.55037">
        <ele>28.9</ele>
        <time>2020-09-03T06:43:18Z</time>
      </trkpt>
      <trkpt lat="45.15034" lon="-0.55039">
        <ele>28.9</ele>
        <time>2020-09-03T06:43:19Z</time>
      </trkpt>
      <trkpt lat="45.15035" lon="-0.55041">
        <ele>28.9</ele>
        <time>2020-09-03T06:43:20Z</time>
      </trkpt>
      <trkpt lat="45.15037" lon="-0.55044">
        <ele>28.8</ele>
        <time>2020-09-03T06:43:22Z</time>
      </trkpt>
      <trkpt lat="45.15038" lon="-0.55045">
        <ele>28.8</ele>
        <time>2020-09-03T06:43:23Z</time>
      </trkpt>
      <trkpt lat="45.15039" lon="-0.55046">
        <ele>28.8</ele>
        <time>2020-09-03T06:43:24Z</time>
      </trkpt>
      <trkpt lat="45.1504" lon="-0.55047">
        <ele>28.8</ele>
        <time>2020-09-03T06:43:25Z</time>
      </trkpt>
      <trkpt lat="45.15041" lon="-0.55049">
        <ele>28.7</ele>
        <time>2020-09-03T06:43:26Z</time>
      </trkpt>
      <trkpt lat="45.15043" lon="-0.55052">
        <ele>28.7</ele>
        <time>2020-09-03T06:43:28Z</time>
      </trkpt>
      <trkpt lat="45.15044" lon="-0.55055">
        <ele>28.7</ele>
        <time>2020-09-03T06:43:30Z</time>
      </trkpt>
      <trkpt lat="45.15045" lon="-0.55056">
        <ele>28.7</ele>
        <time>2020-09-03T06:43:31Z</time>
      </trkpt>
      <trkpt lat="45.15046" lon="-0.55058">
        <ele>28.6</ele>
        <time>2020-09-03T06:43:32Z</time>
      </trkpt>
      <trkpt lat="45.15047" lon="-0.55059">
        <ele>28.6</ele>
        <time>2020-09-03T06:43:34Z</time>
      </trkpt>
      <trkpt lat="45.15047" lon="-0.5506">
        <ele>28.6</ele>
        <time>2020-09-03T06:43:35Z</time>
      </trkpt>
      <trkpt lat="45.15049" lon="-0.55063">
        <ele>28.6</ele>
        <time>2020-09-03T06:43:36Z</time>
      </trkpt>
      <trkpt lat="45.1505" lon="-0.55064">
        <ele>28.6</ele>
        <time>2020-09-03T06:43:37Z</time>
      </trkpt>
      <trkpt lat="45.15051" lon="-0.55066">
        <ele>28.6</ele>
        <time>2020-09-03T06:43:39Z</time>
      </trkpt>
      <trkpt lat="45.15052" lon="-0.55068">
        <ele>28.6</ele>
        <time>2020-09-03T06:43:40Z</time>
      </trkpt>
      <trkpt lat="45.15053" lon="-0.5507">
        <ele>28.5</ele>
        <time>2020-09-03T06:43:42Z</time>
      </trkpt>
      <trkpt lat="45.15054" lon="-0.55072">
        <ele>28.5</ele>
        <time>2020-09-03T06:43:43Z</time>
      </trkpt>
      <trkpt lat="45.15055" lon="-0.55073">
        <ele>28.5</ele>
        <time>2020-09-03T06:43:44Z</time>
      </trkpt>
      <trkpt lat="45.15057" lon="-0.55076">
        <ele>28.5</ele>
        <time>2020-09-03T06:43:46Z</time>
      </trkpt>
      <trkpt lat="45.15057" lon="-0.55078">
        <ele>28.5</ele>
        <time>2020-09-03T06:43:47Z</time>
      </trkpt>
      <trkpt lat="45.15059" lon="-0.5508">
        <ele>28.5</ele>
        <time>2020-09-03T06:43:48Z</time>
      </trkpt>
      <trkpt lat="45.15059" lon="-0.55081">
        <ele>28.5</ele>
        <time>2020-09-03T06:43:49Z</time>
      </trkpt>
      <trkpt lat="45.15062" lon="-0.55084">
        <ele>28.4</ele>
        <time>2020-09-03T06:43:51Z</time>
      </trkpt>
      <trkpt lat="45.15063" lon="-0.55086">
        <ele>28.4</ele>
        <time>2020-09-03T06:43:53Z</time>
      </trkpt>
      <trkpt lat="45.15064" lon="-0.55087">
        <ele>28.4</ele>
        <time>2020-09-03T06:43:54Z</time>
      </trkpt>
      <trkpt lat="45.15066" lon="-0.55089">
        <ele>28.4</ele>
        <time>2020-09-03T06:43:55Z</time>
      </trkpt>
      <trkpt lat="45.15067" lon="-0.5509">
        <ele>28.4</ele>
        <time>2020-09-03T06:43:56Z</time>
      </trkpt>
      <trkpt lat="45.15068" lon="-0.55092">
        <ele>28.4</ele>
        <time>2020-09-03T06:43:58Z</time>
      </trkpt>
      <trkpt lat="45.1507" lon="-0.55094">
        <ele>28.3</ele>
        <time>2020-09-03T06:44:00Z</time>
      </trkpt>
      <trkpt lat="45.15071" lon="-0.55095">
        <ele>28.3</ele>
        <time>2020-09-03T06:44:01Z</time>
      </trkpt>
      <trkpt lat="45.15072" lon="-0.55096">
        <ele>28.3</ele>
        <time>2020-09-03T06:44:02Z</time>
      </trkpt>
      <trkpt lat="45.15073" lon="-0.55097">
        <ele>28.3</ele>
        <time>2020-09-03T06:44:03Z</time>
      </trkpt>
      <trkpt lat="45.15074" lon="-0.55099">
        <ele>28.3</ele>
        <time>2020-09-03T06:44:05Z</time>
      </trkpt>
      <trkpt lat="45.15075" lon="-0.551">
        <ele>28.3</ele>
        <time>2020-09-03T06:44:06Z</time>
      </trkpt>
      <trkpt lat="45.15076" lon="-0.55101">
        <ele>28.3</ele>
        <time>2020-09-03T06:44:07Z</time>
      </trkpt>
      <trkpt lat="45.15079" lon="-0.55104">
        <ele>28.3</ele>
        <time>2020-09-03T06:44:09Z</time>
      </trkpt>
      <trkpt lat="45.1508" lon="-0.55105">
        <ele>28.2</ele>
        <time>2020-09-03T06:44:10Z</time>
      </trkpt>
      <trkpt lat="45.15081" lon="-0.55106">
        <ele>28.2</ele>
        <time>2020-09-03T06:44:12Z</time>
      </trkpt>
      <trkpt lat="45.15083" lon="-0.55108">
        <ele>28.2</ele>
        <time>2020-09-03T06:44:13Z</time>
      </trkpt>
      <trkpt lat="45.15085" lon="-0.55111">
        <ele>28.2</ele>
        <time>2020-09-03T06:44:15Z</time>
      </trkpt>
      <trkpt lat="45.15086" lon="-0.55112">
        <ele>28.2</ele>
        <time>2020-09-03T06:44:16Z</time>
      </trkpt>
      <trkpt lat="45.15087" lon="-0.55113">
        <ele>28.3</ele>
        <time>2020-09-03T06:44:17Z</time>
      </trkpt>
      <trkpt lat="45.15089" lon="-0.55115">
        <ele>28.3</ele>
        <time>2020-09-03T06:44:19Z</time>
      </trkpt>
      <trkpt lat="45.15092" lon="-0.55118">
        <ele>28.3</ele>
        <time>2020-09-03T06:44:21Z</time>
      </trkpt>
      <trkpt lat="45.15092" lon="-0.55119">
        <ele>28.3</ele>
        <time>2020-09-03T06:44:22Z</time>
      </trkpt>
      <trkpt lat="45.15093" lon="-0.55121">
        <ele>28.3</ele>
        <time>2020-09-03T06:44:23Z</time>
      </trkpt>
      <trkpt lat="45.15094" lon="-0.55123">
        <ele>28.3</ele>
        <time>2020-09-03T06:44:24Z</time>
      </trkpt>
      <trkpt lat="45.15096" lon="-0.55125">
        <ele>28.4</ele>
        <time>2020-09-03T06:44:26Z</time>
      </trkpt>
      <trkpt lat="45.15097" lon="-0.55127">
        <ele>28.4</ele>
        <time>2020-09-03T06:44:27Z</time>
      </trkpt>
      <trkpt lat="45.15097" lon="-0.55128">
        <ele>28.4</ele>
        <time>2020-09-03T06:44:28Z</time>
      </trkpt>
      <trkpt lat="45.15098" lon="-0.5513">
        <ele>28.4</ele>
        <time>2020-09-03T06:44:30Z</time>
      </trkpt>
      <trkpt lat="45.151" lon="-0.55133">
        <ele>28.4</ele>
        <time>2020-09-03T06:44:31Z</time>
      </trkpt>
      <trkpt lat="45.151" lon="-0.55134">
        <ele>28.4</ele>
        <time>2020-09-03T06:44:32Z</time>
      </trkpt>
      <trkpt lat="45.15101" lon="-0.55136">
        <ele>28.5</ele>
        <time>2020-09-03T06:44:33Z</time>
      </trkpt>
      <trkpt lat="45.15102" lon="-0.55138">
        <ele>28.5</ele>
        <time>2020-09-03T06:44:34Z</time>
      </trkpt>
      <trkpt lat="45.15103" lon="-0.55141">
        <ele>28.5</ele>
        <time>2020-09-03T06:44:36Z</time>
      </trkpt>
      <trkpt lat="45.15104" lon="-0.55144">
        <ele>28.5</ele>
        <time>2020-09-03T06:44:38Z</time>
      </trkpt>
      <trkpt lat="45.15105" lon="-0.55147">
        <ele>28.5</ele>
        <time>2020-09-03T06:44:39Z</time>
      </trkpt>
      <trkpt lat="45.15105" lon="-0.5515">
        <ele>28.5</ele>
        <time>2020-09-03T06:44:41Z</time>
      </trkpt>
      <trkpt lat="45.15106" lon="-0.55151">
        <ele>28.4</ele>
        <time>2020-09-03T06:44:42Z</time>
      </trkpt>
      <trkpt lat="45.15106" lon="-0.55154">
        <ele>28.4</ele>
        <time>2020-09-03T06:44:43Z</time>
      </trkpt>
      <trkpt lat="45.15106" lon="-0.55158">
        <ele>28.4</ele>
        <time>2020-09-03T06:44:45Z</time>
      </trkpt>
      <trkpt lat="45.15106" lon="-0.55159">
        <ele>28.4</ele>
        <time>2020-09-03T06:44:46Z</time>
      </trkpt>
      <trkpt lat="45.15107" lon="-0.55164">
        <ele>28.4</ele>
        <time>2020-09-03T06:44:47Z</time>
      </trkpt>
      <trkpt lat="45.15107" lon="-0.55166">
        <ele>28.4</ele>
        <time>2020-09-03T06:44:49Z</time>
      </trkpt>
      <trkpt lat="45.15107" lon="-0.55168">
        <ele>28.3</ele>
        <time>2020-09-03T06:44:50Z</time>
      </trkpt>
      <trkpt lat="45.15107" lon="-0.55172">
        <ele>28.3</ele>
        <time>2020-09-03T06:44:51Z</time>
      </trkpt>
      <trkpt lat="45.15107" lon="-0.55175">
        <ele>28.3</ele>
        <time>2020-09-03T06:44:52Z</time>
      </trkpt>
      <trkpt lat="45.15107" lon="-0.55178">
        <ele>28.3</ele>
        <time>2020-09-03T06:44:54Z</time>
      </trkpt>
      <trkpt lat="45.15107" lon="-0.55179">
        <ele>28.3</ele>
        <time>2020-09-03T06:44:55Z</time>
      </trkpt>
      <trkpt lat="45.15107" lon="-0.5518">
        <ele>28.3</ele>
        <time>2020-09-03T06:44:56Z</time>
      </trkpt>
      <trkpt lat="45.15107" lon="-0.55183">
        <ele>28.3</ele>
        <time>2020-09-03T06:44:58Z</time>
      </trkpt>
      <trkpt lat="45.15107" lon="-0.55185">
        <ele>28.3</ele>
        <time>2020-09-03T06:44:59Z</time>
      </trkpt>
      <trkpt lat="45.15107" lon="-0.55187">
        <ele>28.3</ele>
        <time>2020-09-03T06:45:00Z</time>
      </trkpt>
      <trkpt lat="45.15108" lon="-0.55189">
        <ele>28.3</ele>
        <time>2020-09-03T06:45:02Z</time>
      </trkpt>
      <trkpt lat="45.15108" lon="-0.55192">
        <ele>28.3</ele>
        <time>2020-09-03T06:45:03Z</time>
      </trkpt>
      <trkpt lat="45.15108" lon="-0.55194">
        <ele>28.3</ele>
        <time>2020-09-03T06:45:04Z</time>
      </trkpt>
      <trkpt lat="45.15108" lon="-0.55196">
        <ele>28.3</ele>
        <time>2020-09-03T06:45:05Z</time>
      </trkpt>
      <trkpt lat="45.15108" lon="-0.55198">
        <ele>28.3</ele>
        <time>2020-09-03T06:45:07Z</time>
      </trkpt>
      <trkpt lat="45.15109" lon="-0.55201">
        <ele>28.3</ele>
        <time>2020-09-03T06:45:08Z</time>
      </trkpt>
      <trkpt lat="45.15109" lon="-0.55204">
        <ele>28.2</ele>
        <time>2020-09-03T06:45:10Z</time>
      </trkpt>
      <trkpt lat="45.15109" lon="-0.55206">
        <ele>28.2</ele>
        <time>2020-09-03T06:45:11Z</time>
      </trkpt>
      <trkpt lat="45.15109" lon="-0.5521">
        <ele>28.2</ele>
        <time>2020-09-03T06:45:13Z</time>
      </trkpt>
      <trkpt lat="45.1511" lon="-0.55212">
        <ele>28.2</ele>
        <time>2020-09-03T06:45:14Z</time>
      </trkpt>
      <trkpt lat="45.1511" lon="-0.55214">
        <ele>28.2</ele>
        <time>2020-09-03T06:45:15Z</time>
      </trkpt>
      <trkpt lat="45.1511" lon="-0.55216">
        <ele>28.2</ele>
        <time>2020-09-03T06:45:16Z</time>
      </trkpt>
      <trkpt lat="45.1511" lon="-0.55219">
        <ele>28.2</ele>
        <time>2020-09-03T06:45:18Z</time>
      </trkpt>
      <trkpt lat="45.15111" lon="-0.55221">
        <ele>28.2</ele>
        <time>2020-09-03T06:45:19Z</time>
      </trkpt>
      <trkpt lat="45.15111" lon="-0.55223">
        <ele>28.2</ele>
        <time>2020-09-03T06:45:20Z</time>
      </trkpt>
      <trkpt lat="45.15112" lon="-0.55228">
        <ele>28.2</ele>
        <time>2020-09-03T06:45:22Z</time>
      </trkpt>
      <trkpt lat="45.15112" lon="-0.5523">
        <ele>28.2</ele>
        <time>2020-09-03T06:45:23Z</time>
      </trkpt>
      <trkpt lat="45.15112" lon="-0.55233">
        <ele>28.2</ele>
        <time>2020-09-03T06:45:25Z</time>
      </trkpt>
      <trkpt lat="45.15112" lon="-0.55235">
        <ele>28.2</ele>
        <time>2020-09-03T06:45:26Z</time>
      </trkpt>
      <trkpt lat="45.15113" lon="-0.55238">
        <ele>28.2</ele>
        <time>2020-09-03T06:45:27Z</time>
      </trkpt>
      <trkpt lat="45.15113" lon="-0.5524">
        <ele>28.2</ele>
        <time>2020-09-03T06:45:28Z</time>
      </trkpt>
      <trkpt lat="45.15114" lon="-0.55244">
        <ele>28.2</ele>
        <time>2020-09-03T06:45:29Z</time>
      </trkpt>
      <trkpt lat="45.15114" lon="-0.55246">
        <ele>28.2</ele>
        <time>2020-09-03T06:45:31Z</time>
      </trkpt>
      <trkpt lat="45.15115" lon="-0.55248">
        <ele>28.2</ele>
        <time>2020-09-03T06:45:33Z</time>
      </trkpt>
      <trkpt lat="45.15115" lon="-0.5525">
        <ele>28.2</ele>
        <time>2020-09-03T06:45:34Z</time>
      </trkpt>
      <trkpt lat="45.15115" lon="-0.55252">
        <ele>28.2</ele>
        <time>2020-09-03T06:45:35Z</time>
      </trkpt>
      <trkpt lat="45.15116" lon="-0.55255">
        <ele>28.2</ele>
        <time>2020-09-03T06:45:36Z</time>
      </trkpt>
      <trkpt lat="45.15116" lon="-0.55258">
        <ele>28.2</ele>
        <time>2020-09-03T06:45:37Z</time>
      </trkpt>
      <trkpt lat="45.15117" lon="-0.55259">
        <ele>28.2</ele>
        <time>2020-09-03T06:45:39Z</time>
      </trkpt>
      <trkpt lat="45.15117" lon="-0.55261">
        <ele>28.2</ele>
        <time>2020-09-03T06:45:40Z</time>
      </trkpt>
      <trkpt lat="45.15117" lon="-0.55263">
        <ele>28.2</ele>
        <time>2020-09-03T06:45:41Z</time>
      </trkpt>
      <trkpt lat="45.15118" lon="-0.55268">
        <ele>28.1</ele>
        <time>2020-09-03T06:45:43Z</time>
      </trkpt>
      <trkpt lat="45.15119" lon="-0.55269">
        <ele>28.1</ele>
        <time>2020-09-03T06:45:44Z</time>
      </trkpt>
      <trkpt lat="45.15119" lon="-0.55271">
        <ele>28.1</ele>
        <time>2020-09-03T06:45:46Z</time>
      </trkpt>
      <trkpt lat="45.1512" lon="-0.55273">
        <ele>28.1</ele>
        <time>2020-09-03T06:45:47Z</time>
      </trkpt>
      <trkpt lat="45.15121" lon="-0.55277">
        <ele>28.1</ele>
        <time>2020-09-03T06:45:49Z</time>
      </trkpt>
      <trkpt lat="45.15121" lon="-0.55278">
        <ele>28.1</ele>
        <time>2020-09-03T06:45:50Z</time>
      </trkpt>
      <trkpt lat="45.15122" lon="-0.55279">
        <ele>28.1</ele>
        <time>2020-09-03T06:45:51Z</time>
      </trkpt>
      <trkpt lat="45.15122" lon="-0.5528">
        <ele>28.1</ele>
        <time>2020-09-03T06:45:52Z</time>
      </trkpt>
      <trkpt lat="45.15123" lon="-0.55284">
        <ele>28.1</ele>
        <time>2020-09-03T06:45:54Z</time>
      </trkpt>
      <trkpt lat="45.15123" lon="-0.55286">
        <ele>28.1</ele>
        <time>2020-09-03T06:45:55Z</time>
      </trkpt>
      <trkpt lat="45.15124" lon="-0.55288">
        <ele>28.1</ele>
        <time>2020-09-03T06:45:56Z</time>
      </trkpt>
      <trkpt lat="45.15124" lon="-0.55292">
        <ele>28.1</ele>
        <time>2020-09-03T06:45:58Z</time>
      </trkpt>
      <trkpt lat="45.15125" lon="-0.55293">
        <ele>28.1</ele>
        <time>2020-09-03T06:45:59Z</time>
      </trkpt>
      <trkpt lat="45.15126" lon="-0.55297">
        <ele>28.1</ele>
        <time>2020-09-03T06:46:00Z</time>
      </trkpt>
      <trkpt lat="45.15127" lon="-0.55299">
        <ele>28.1</ele>
        <time>2020-09-03T06:46:02Z</time>
      </trkpt>
      <trkpt lat="45.15127" lon="-0.553">
        <ele>28.1</ele>
        <time>2020-09-03T06:46:03Z</time>
      </trkpt>
      <trkpt lat="45.15128" lon="-0.55302">
        <ele>28</ele>
        <time>2020-09-03T06:46:04Z</time>
      </trkpt>
      <trkpt lat="45.15128" lon="-0.55305">
        <ele>28</ele>
        <time>2020-09-03T06:46:06Z</time>
      </trkpt>
      <trkpt lat="45.15129" lon="-0.55307">
        <ele>28</ele>
        <time>2020-09-03T06:46:07Z</time>
      </trkpt>
      <trkpt lat="45.15129" lon="-0.5531">
        <ele>28</ele>
        <time>2020-09-03T06:46:08Z</time>
      </trkpt>
      <trkpt lat="45.1513" lon="-0.55312">
        <ele>28</ele>
        <time>2020-09-03T06:46:10Z</time>
      </trkpt>
      <trkpt lat="45.1513" lon="-0.55313">
        <ele>28</ele>
        <time>2020-09-03T06:46:11Z</time>
      </trkpt>
      <trkpt lat="45.15131" lon="-0.55317">
        <ele>28</ele>
        <time>2020-09-03T06:46:13Z</time>
      </trkpt>
      <trkpt lat="45.15132" lon="-0.55319">
        <ele>28</ele>
        <time>2020-09-03T06:46:14Z</time>
      </trkpt>
      <trkpt lat="45.15132" lon="-0.55322">
        <ele>28</ele>
        <time>2020-09-03T06:46:16Z</time>
      </trkpt>
      <trkpt lat="45.15133" lon="-0.55325">
        <ele>28</ele>
        <time>2020-09-03T06:46:17Z</time>
      </trkpt>
      <trkpt lat="45.15133" lon="-0.55326">
        <ele>28</ele>
        <time>2020-09-03T06:46:18Z</time>
      </trkpt>
      <trkpt lat="45.15134" lon="-0.55327">
        <ele>28</ele>
        <time>2020-09-03T06:46:20Z</time>
      </trkpt>
      <trkpt lat="45.15134" lon="-0.5533">
        <ele>28</ele>
        <time>2020-09-03T06:46:21Z</time>
      </trkpt>
      <trkpt lat="45.15135" lon="-0.55332">
        <ele>28</ele>
        <time>2020-09-03T06:46:23Z</time>
      </trkpt>
      <trkpt lat="45.15136" lon="-0.55334">
        <ele>28</ele>
        <time>2020-09-03T06:46:24Z</time>
      </trkpt>
      <trkpt lat="45.15137" lon="-0.55336">
        <ele>28</ele>
        <time>2020-09-03T06:46:25Z</time>
      </trkpt>
      <trkpt lat="45.15137" lon="-0.55339">
        <ele>28</ele>
        <time>2020-09-03T06:46:27Z</time>
      </trkpt>
      <trkpt lat="45.15138" lon="-0.55342">
        <ele>28</ele>
        <time>2020-09-03T06:46:28Z</time>
      </trkpt>
      <trkpt lat="45.15138" lon="-0.55343">
        <ele>27.9</ele>
        <time>2020-09-03T06:46:29Z</time>
      </trkpt>
      <trkpt lat="45.15139" lon="-0.55346">
        <ele>27.9</ele>
        <time>2020-09-03T06:46:30Z</time>
      </trkpt>
      <trkpt lat="45.1514" lon="-0.55348">
        <ele>27.9</ele>
        <time>2020-09-03T06:46:32Z</time>
      </trkpt>
      <trkpt lat="45.1514" lon="-0.55349">
        <ele>27.9</ele>
        <time>2020-09-03T06:46:33Z</time>
      </trkpt>
      <trkpt lat="45.15141" lon="-0.55353">
        <ele>27.9</ele>
        <time>2020-09-03T06:46:34Z</time>
      </trkpt>
      <trkpt lat="45.15141" lon="-0.55355">
        <ele>27.9</ele>
        <time>2020-09-03T06:46:36Z</time>
      </trkpt>
      <trkpt lat="45.15141" lon="-0.55357">
        <ele>27.9</ele>
        <time>2020-09-03T06:46:37Z</time>
      </trkpt>
      <trkpt lat="45.15141" lon="-0.55359">
        <ele>27.9</ele>
        <time>2020-09-03T06:46:38Z</time>
      </trkpt>
      <trkpt lat="45.15142" lon="-0.55362">
        <ele>27.9</ele>
        <time>2020-09-03T06:46:40Z</time>
      </trkpt>
      <trkpt lat="45.15142" lon="-0.55364">
        <ele>27.9</ele>
        <time>2020-09-03T06:46:41Z</time>
      </trkpt>
      <trkpt lat="45.15142" lon="-0.55366">
        <ele>27.8</ele>
        <time>2020-09-03T06:46:42Z</time>
      </trkpt>
      <trkpt lat="45.15143" lon="-0.55369">
        <ele>27.8</ele>
        <time>2020-09-03T06:46:43Z</time>
      </trkpt>
      <trkpt lat="45.15143" lon="-0.5537">
        <ele>27.8</ele>
        <time>2020-09-03T06:46:44Z</time>
      </trkpt>
      <trkpt lat="45.15143" lon="-0.55372">
        <ele>27.8</ele>
        <time>2020-09-03T06:46:45Z</time>
      </trkpt>
      <trkpt lat="45.15144" lon="-0.55374">
        <ele>27.8</ele>
        <time>2020-09-03T06:46:47Z</time>
      </trkpt>
      <trkpt lat="45.15145" lon="-0.55378">
        <ele>27.8</ele>
        <time>2020-09-03T06:46:48Z</time>
      </trkpt>
      <trkpt lat="45.15145" lon="-0.55379">
        <ele>27.8</ele>
        <time>2020-09-03T06:46:49Z</time>
      </trkpt>
      <trkpt lat="45.15146" lon="-0.55382">
        <ele>27.8</ele>
        <time>2020-09-03T06:46:51Z</time>
      </trkpt>
      <trkpt lat="45.15147" lon="-0.55383">
        <ele>27.8</ele>
        <time>2020-09-03T06:46:52Z</time>
      </trkpt>
      <trkpt lat="45.15147" lon="-0.55385">
        <ele>27.8</ele>
        <time>2020-09-03T06:46:53Z</time>
      </trkpt>
      <trkpt lat="45.15148" lon="-0.55387">
        <ele>27.8</ele>
        <time>2020-09-03T06:46:55Z</time>
      </trkpt>
      <trkpt lat="45.15149" lon="-0.55388">
        <ele>27.7</ele>
        <time>2020-09-03T06:46:56Z</time>
      </trkpt>
      <trkpt lat="45.1515" lon="-0.55391">
        <ele>27.7</ele>
        <time>2020-09-03T06:46:57Z</time>
      </trkpt>
      <trkpt lat="45.15151" lon="-0.55393">
        <ele>27.7</ele>
        <time>2020-09-03T06:46:58Z</time>
      </trkpt>
      <trkpt lat="45.15151" lon="-0.55395">
        <ele>27.7</ele>
        <time>2020-09-03T06:47:00Z</time>
      </trkpt>
      <trkpt lat="45.15151" lon="-0.55397">
        <ele>27.7</ele>
        <time>2020-09-03T06:47:01Z</time>
      </trkpt>
      <trkpt lat="45.15152" lon="-0.55401">
        <ele>27.7</ele>
        <time>2020-09-03T06:47:02Z</time>
      </trkpt>
      <trkpt lat="45.15153" lon="-0.55403">
        <ele>27.7</ele>
        <time>2020-09-03T06:47:03Z</time>
      </trkpt>
      <trkpt lat="45.15153" lon="-0.55405">
        <ele>27.7</ele>
        <time>2020-09-03T06:47:05Z</time>
      </trkpt>
      <trkpt lat="45.15154" lon="-0.55407">
        <ele>27.7</ele>
        <time>2020-09-03T06:47:06Z</time>
      </trkpt>
      <trkpt lat="45.15155" lon="-0.55411">
        <ele>27.7</ele>
        <time>2020-09-03T06:47:07Z</time>
      </trkpt>
      <trkpt lat="45.15155" lon="-0.55413">
        <ele>27.7</ele>
        <time>2020-09-03T06:47:08Z</time>
      </trkpt>
      <trkpt lat="45.15156" lon="-0.55415">
        <ele>27.7</ele>
        <time>2020-09-03T06:47:10Z</time>
      </trkpt>
      <trkpt lat="45.15156" lon="-0.55417">
        <ele>27.7</ele>
        <time>2020-09-03T06:47:11Z</time>
      </trkpt>
      <trkpt lat="45.15156" lon="-0.55419">
        <ele>27.7</ele>
        <time>2020-09-03T06:47:12Z</time>
      </trkpt>
      <trkpt lat="45.15157" lon="-0.55422">
        <ele>27.7</ele>
        <time>2020-09-03T06:47:14Z</time>
      </trkpt>
      <trkpt lat="45.15157" lon="-0.55424">
        <ele>27.7</ele>
        <time>2020-09-03T06:47:15Z</time>
      </trkpt>
      <trkpt lat="45.15157" lon="-0.55425">
        <ele>27.7</ele>
        <time>2020-09-03T06:47:16Z</time>
      </trkpt>
      <trkpt lat="45.15158" lon="-0.55427">
        <ele>27.7</ele>
        <time>2020-09-03T06:47:17Z</time>
      </trkpt>
      <trkpt lat="45.15158" lon="-0.5543">
        <ele>27.7</ele>
        <time>2020-09-03T06:47:19Z</time>
      </trkpt>
      <trkpt lat="45.15159" lon="-0.55433">
        <ele>27.7</ele>
        <time>2020-09-03T06:47:20Z</time>
      </trkpt>
      <trkpt lat="45.15159" lon="-0.55435">
        <ele>27.7</ele>
        <time>2020-09-03T06:47:22Z</time>
      </trkpt>
      <trkpt lat="45.1516" lon="-0.55438">
        <ele>27.6</ele>
        <time>2020-09-03T06:47:23Z</time>
      </trkpt>
      <trkpt lat="45.15161" lon="-0.5544">
        <ele>27.6</ele>
        <time>2020-09-03T06:47:25Z</time>
      </trkpt>
      <trkpt lat="45.15162" lon="-0.55444">
        <ele>27.6</ele>
        <time>2020-09-03T06:47:26Z</time>
      </trkpt>
      <trkpt lat="45.15162" lon="-0.55445">
        <ele>27.6</ele>
        <time>2020-09-03T06:47:27Z</time>
      </trkpt>
      <trkpt lat="45.15162" lon="-0.55447">
        <ele>27.6</ele>
        <time>2020-09-03T06:47:28Z</time>
      </trkpt>
      <trkpt lat="45.15163" lon="-0.55449">
        <ele>27.6</ele>
        <time>2020-09-03T06:47:30Z</time>
      </trkpt>
      <trkpt lat="45.15163" lon="-0.5545">
        <ele>27.6</ele>
        <time>2020-09-03T06:47:31Z</time>
      </trkpt>
      <trkpt lat="45.15164" lon="-0.55452">
        <ele>27.6</ele>
        <time>2020-09-03T06:47:32Z</time>
      </trkpt>
      <trkpt lat="45.15165" lon="-0.55455">
        <ele>27.6</ele>
        <time>2020-09-03T06:47:33Z</time>
      </trkpt>
      <trkpt lat="45.15165" lon="-0.55456">
        <ele>27.6</ele>
        <time>2020-09-03T06:47:34Z</time>
      </trkpt>
      <trkpt lat="45.15165" lon="-0.55457">
        <ele>27.6</ele>
        <time>2020-09-03T06:47:35Z</time>
      </trkpt>
      <trkpt lat="45.15166" lon="-0.55462">
        <ele>27.6</ele>
        <time>2020-09-03T06:47:38Z</time>
      </trkpt>
      <trkpt lat="45.15167" lon="-0.55464">
        <ele>27.6</ele>
        <time>2020-09-03T06:47:39Z</time>
      </trkpt>
      <trkpt lat="45.15167" lon="-0.55466">
        <ele>27.6</ele>
        <time>2020-09-03T06:47:40Z</time>
      </trkpt>
      <trkpt lat="45.15169" lon="-0.5547">
        <ele>27.6</ele>
        <time>2020-09-03T06:47:42Z</time>
      </trkpt>
      <trkpt lat="45.15169" lon="-0.55471">
        <ele>27.6</ele>
        <time>2020-09-03T06:47:43Z</time>
      </trkpt>
      <trkpt lat="45.1517" lon="-0.55474">
        <ele>27.6</ele>
        <time>2020-09-03T06:47:45Z</time>
      </trkpt>
      <trkpt lat="45.1517" lon="-0.55476">
        <ele>27.6</ele>
        <time>2020-09-03T06:47:47Z</time>
      </trkpt>
      <trkpt lat="45.15171" lon="-0.55479">
        <ele>27.6</ele>
        <time>2020-09-03T06:47:48Z</time>
      </trkpt>
      <trkpt lat="45.15171" lon="-0.55481">
        <ele>27.6</ele>
        <time>2020-09-03T06:47:50Z</time>
      </trkpt>
      <trkpt lat="45.15172" lon="-0.55482">
        <ele>27.6</ele>
        <time>2020-09-03T06:47:51Z</time>
      </trkpt>
      <trkpt lat="45.15173" lon="-0.55485">
        <ele>27.6</ele>
        <time>2020-09-03T06:47:52Z</time>
      </trkpt>
      <trkpt lat="45.15174" lon="-0.55487">
        <ele>27.6</ele>
        <time>2020-09-03T06:47:54Z</time>
      </trkpt>
      <trkpt lat="45.15174" lon="-0.55489">
        <ele>27.6</ele>
        <time>2020-09-03T06:47:55Z</time>
      </trkpt>
      <trkpt lat="45.15175" lon="-0.55491">
        <ele>27.6</ele>
        <time>2020-09-03T06:47:57Z</time>
      </trkpt>
      <trkpt lat="45.15175" lon="-0.55494">
        <ele>27.6</ele>
        <time>2020-09-03T06:47:58Z</time>
      </trkpt>
      <trkpt lat="45.15176" lon="-0.55495">
        <ele>27.6</ele>
        <time>2020-09-03T06:47:59Z</time>
      </trkpt>
      <trkpt lat="45.15176" lon="-0.55496">
        <ele>27.5</ele>
        <time>2020-09-03T06:48:00Z</time>
      </trkpt>
      <trkpt lat="45.15177" lon="-0.55498">
        <ele>27.5</ele>
        <time>2020-09-03T06:48:02Z</time>
      </trkpt>
      <trkpt lat="45.15178" lon="-0.55503">
        <ele>27.5</ele>
        <time>2020-09-03T06:48:03Z</time>
      </trkpt>
      <trkpt lat="45.15178" lon="-0.55503">
        <ele>27.5</ele>
        <time>2020-09-03T06:48:04Z</time>
      </trkpt>
      <trkpt lat="45.15179" lon="-0.55506">
        <ele>27.5</ele>
        <time>2020-09-03T06:48:06Z</time>
      </trkpt>
      <trkpt lat="45.15179" lon="-0.55508">
        <ele>27.4</ele>
        <time>2020-09-03T06:48:07Z</time>
      </trkpt>
      <trkpt lat="45.1518" lon="-0.55511">
        <ele>27.4</ele>
        <time>2020-09-03T06:48:09Z</time>
      </trkpt>
      <trkpt lat="45.1518" lon="-0.55513">
        <ele>27.4</ele>
        <time>2020-09-03T06:48:10Z</time>
      </trkpt>
      <trkpt lat="45.1518" lon="-0.55515">
        <ele>27.4</ele>
        <time>2020-09-03T06:48:11Z</time>
      </trkpt>
      <trkpt lat="45.15181" lon="-0.55519">
        <ele>27.3</ele>
        <time>2020-09-03T06:48:13Z</time>
      </trkpt>
      <trkpt lat="45.15181" lon="-0.5552">
        <ele>27.3</ele>
        <time>2020-09-03T06:48:14Z</time>
      </trkpt>
      <trkpt lat="45.15181" lon="-0.55522">
        <ele>27.3</ele>
        <time>2020-09-03T06:48:15Z</time>
      </trkpt>
      <trkpt lat="45.15182" lon="-0.55524">
        <ele>27.3</ele>
        <time>2020-09-03T06:48:17Z</time>
      </trkpt>
      <trkpt lat="45.15182" lon="-0.55527">
        <ele>27.3</ele>
        <time>2020-09-03T06:48:18Z</time>
      </trkpt>
      <trkpt lat="45.15182" lon="-0.55528">
        <ele>27.3</ele>
        <time>2020-09-03T06:48:19Z</time>
      </trkpt>
      <trkpt lat="45.15182" lon="-0.5553">
        <ele>27.2</ele>
        <time>2020-09-03T06:48:20Z</time>
      </trkpt>
      <trkpt lat="45.15183" lon="-0.55533">
        <ele>27.2</ele>
        <time>2020-09-03T06:48:22Z</time>
      </trkpt>
      <trkpt lat="45.15183" lon="-0.55537">
        <ele>27.2</ele>
        <time>2020-09-03T06:48:23Z</time>
      </trkpt>
      <trkpt lat="45.15183" lon="-0.55539">
        <ele>27.2</ele>
        <time>2020-09-03T06:48:25Z</time>
      </trkpt>
      <trkpt lat="45.15184" lon="-0.55544">
        <ele>27.1</ele>
        <time>2020-09-03T06:48:26Z</time>
      </trkpt>
      <trkpt lat="45.15184" lon="-0.55546">
        <ele>27.1</ele>
        <time>2020-09-03T06:48:27Z</time>
      </trkpt>
      <trkpt lat="45.15184" lon="-0.55547">
        <ele>27.1</ele>
        <time>2020-09-03T06:48:29Z</time>
      </trkpt>
      <trkpt lat="45.15184" lon="-0.5555">
        <ele>27.1</ele>
        <time>2020-09-03T06:48:30Z</time>
      </trkpt>
      <trkpt lat="45.15184" lon="-0.55552">
        <ele>27</ele>
        <time>2020-09-03T06:48:32Z</time>
      </trkpt>
      <trkpt lat="45.15184" lon="-0.55555">
        <ele>27</ele>
        <time>2020-09-03T06:48:33Z</time>
      </trkpt>
      <trkpt lat="45.15184" lon="-0.55557">
        <ele>27</ele>
        <time>2020-09-03T06:48:34Z</time>
      </trkpt>
      <trkpt lat="45.15184" lon="-0.55559">
        <ele>27</ele>
        <time>2020-09-03T06:48:35Z</time>
      </trkpt>
      <trkpt lat="45.15184" lon="-0.55563">
        <ele>27</ele>
        <time>2020-09-03T06:48:37Z</time>
      </trkpt>
      <trkpt lat="45.15183" lon="-0.55564">
        <ele>26.9</ele>
        <time>2020-09-03T06:48:38Z</time>
      </trkpt>
      <trkpt lat="45.15183" lon="-0.55567">
        <ele>26.9</ele>
        <time>2020-09-03T06:48:39Z</time>
      </trkpt>
      <trkpt lat="45.15182" lon="-0.5557">
        <ele>26.9</ele>
        <time>2020-09-03T06:48:41Z</time>
      </trkpt>
      <trkpt lat="45.15182" lon="-0.55574">
        <ele>26.9</ele>
        <time>2020-09-03T06:48:43Z</time>
      </trkpt>
      <trkpt lat="45.15182" lon="-0.55576">
        <ele>26.8</ele>
        <time>2020-09-03T06:48:44Z</time>
      </trkpt>
      <trkpt lat="45.15181" lon="-0.55577">
        <ele>26.8</ele>
        <time>2020-09-03T06:48:45Z</time>
      </trkpt>
      <trkpt lat="45.15181" lon="-0.55579">
        <ele>26.8</ele>
        <time>2020-09-03T06:48:46Z</time>
      </trkpt>
      <trkpt lat="45.15181" lon="-0.55582">
        <ele>26.8</ele>
        <time>2020-09-03T06:48:47Z</time>
      </trkpt>
      <trkpt lat="45.1518" lon="-0.55583">
        <ele>26.8</ele>
        <time>2020-09-03T06:48:48Z</time>
      </trkpt>
      <trkpt lat="45.1518" lon="-0.55584">
        <ele>26.8</ele>
        <time>2020-09-03T06:48:49Z</time>
      </trkpt>
      <trkpt lat="45.1518" lon="-0.55587">
        <ele>26.7</ele>
        <time>2020-09-03T06:48:51Z</time>
      </trkpt>
      <trkpt lat="45.15179" lon="-0.55588">
        <ele>26.7</ele>
        <time>2020-09-03T06:48:52Z</time>
      </trkpt>
      <trkpt lat="45.15179" lon="-0.5559">
        <ele>26.7</ele>
        <time>2020-09-03T06:48:53Z</time>
      </trkpt>
      <trkpt lat="45.15179" lon="-0.55591">
        <ele>26.7</ele>
        <time>2020-09-03T06:48:54Z</time>
      </trkpt>
      <trkpt lat="45.15178" lon="-0.55594">
        <ele>26.7</ele>
        <time>2020-09-03T06:48:56Z</time>
      </trkpt>
      <trkpt lat="45.15178" lon="-0.55596">
        <ele>26.6</ele>
        <time>2020-09-03T06:48:57Z</time>
      </trkpt>
      <trkpt lat="45.15177" lon="-0.55599">
        <ele>26.6</ele>
        <time>2020-09-03T06:48:59Z</time>
      </trkpt>
      <trkpt lat="45.15177" lon="-0.556">
        <ele>26.6</ele>
        <time>2020-09-03T06:49:00Z</time>
      </trkpt>
      <trkpt lat="45.15176" lon="-0.55602">
        <ele>26.6</ele>
        <time>2020-09-03T06:49:01Z</time>
      </trkpt>
      <trkpt lat="45.15175" lon="-0.55605">
        <ele>26.5</ele>
        <time>2020-09-03T06:49:03Z</time>
      </trkpt>
      <trkpt lat="45.15174" lon="-0.55608">
        <ele>26.5</ele>
        <time>2020-09-03T06:49:04Z</time>
      </trkpt>
      <trkpt lat="45.15173" lon="-0.5561">
        <ele>26.5</ele>
        <time>2020-09-03T06:49:06Z</time>
      </trkpt>
      <trkpt lat="45.15173" lon="-0.55611">
        <ele>26.5</ele>
        <time>2020-09-03T06:49:07Z</time>
      </trkpt>
      <trkpt lat="45.15172" lon="-0.55614">
        <ele>26.4</ele>
        <time>2020-09-03T06:49:08Z</time>
      </trkpt>
      <trkpt lat="45.15171" lon="-0.55615">
        <ele>26.4</ele>
        <time>2020-09-03T06:49:09Z</time>
      </trkpt>
      <trkpt lat="45.15171" lon="-0.55618">
        <ele>26.4</ele>
        <time>2020-09-03T06:49:11Z</time>
      </trkpt>
      <trkpt lat="45.1517" lon="-0.55621">
        <ele>26.3</ele>
        <time>2020-09-03T06:49:12Z</time>
      </trkpt>
      <trkpt lat="45.15169" lon="-0.55624">
        <ele>26.3</ele>
        <time>2020-09-03T06:49:14Z</time>
      </trkpt>
      <trkpt lat="45.15169" lon="-0.55625">
        <ele>26.3</ele>
        <time>2020-09-03T06:49:15Z</time>
      </trkpt>
      <trkpt lat="45.15169" lon="-0.55627">
        <ele>26.3</ele>
        <time>2020-09-03T06:49:16Z</time>
      </trkpt>
      <trkpt lat="45.15168" lon="-0.55628">
        <ele>26.3</ele>
        <time>2020-09-03T06:49:17Z</time>
      </trkpt>
      <trkpt lat="45.15167" lon="-0.55632">
        <ele>26.2</ele>
        <time>2020-09-03T06:49:19Z</time>
      </trkpt>
      <trkpt lat="45.15167" lon="-0.55633">
        <ele>26.2</ele>
        <time>2020-09-03T06:49:20Z</time>
      </trkpt>
      <trkpt lat="45.15167" lon="-0.55636">
        <ele>26.2</ele>
        <time>2020-09-03T06:49:21Z</time>
      </trkpt>
      <trkpt lat="45.15166" lon="-0.55638">
        <ele>26.2</ele>
        <time>2020-09-03T06:49:22Z</time>
      </trkpt>
      <trkpt lat="45.15166" lon="-0.5564">
        <ele>26.2</ele>
        <time>2020-09-03T06:49:23Z</time>
      </trkpt>
      <trkpt lat="45.15166" lon="-0.55642">
        <ele>26.1</ele>
        <time>2020-09-03T06:49:25Z</time>
      </trkpt>
      <trkpt lat="45.15165" lon="-0.55645">
        <ele>26.1</ele>
        <time>2020-09-03T06:49:27Z</time>
      </trkpt>
      <trkpt lat="45.15165" lon="-0.55647">
        <ele>26.1</ele>
        <time>2020-09-03T06:49:28Z</time>
      </trkpt>
      <trkpt lat="45.15164" lon="-0.5565">
        <ele>26.1</ele>
        <time>2020-09-03T06:49:29Z</time>
      </trkpt>
      <trkpt lat="45.15163" lon="-0.55652">
        <ele>26.1</ele>
        <time>2020-09-03T06:49:31Z</time>
      </trkpt>
      <trkpt lat="45.15162" lon="-0.55653">
        <ele>26.1</ele>
        <time>2020-09-03T06:49:32Z</time>
      </trkpt>
      <trkpt lat="45.15162" lon="-0.55654">
        <ele>26.1</ele>
        <time>2020-09-03T06:49:34Z</time>
      </trkpt>
      <trkpt lat="45.15162" lon="-0.55654">
        <ele>26.1</ele>
        <time>2020-09-03T06:49:36Z</time>
      </trkpt>
      <trkpt lat="45.15162" lon="-0.55656">
        <ele>26</ele>
        <time>2020-09-03T06:49:37Z</time>
      </trkpt>
      <trkpt lat="45.15161" lon="-0.55661">
        <ele>26</ele>
        <time>2020-09-03T06:49:39Z</time>
      </trkpt>
      <trkpt lat="45.15161" lon="-0.55662">
        <ele>26</ele>
        <time>2020-09-03T06:49:40Z</time>
      </trkpt>
      <trkpt lat="45.1516" lon="-0.55664">
        <ele>26</ele>
        <time>2020-09-03T06:49:41Z</time>
      </trkpt>
      <trkpt lat="45.15159" lon="-0.55667">
        <ele>26</ele>
        <time>2020-09-03T06:49:43Z</time>
      </trkpt>
      <trkpt lat="45.15158" lon="-0.5567">
        <ele>26</ele>
        <time>2020-09-03T06:49:44Z</time>
      </trkpt>
      <trkpt lat="45.15158" lon="-0.55671">
        <ele>26</ele>
        <time>2020-09-03T06:49:45Z</time>
      </trkpt>
      <trkpt lat="45.15158" lon="-0.55674">
        <ele>26</ele>
        <time>2020-09-03T06:49:46Z</time>
      </trkpt>
      <trkpt lat="45.15158" lon="-0.55675">
        <ele>25.9</ele>
        <time>2020-09-03T06:49:47Z</time>
      </trkpt>
      <trkpt lat="45.15158" lon="-0.55681">
        <ele>25.9</ele>
        <time>2020-09-03T06:49:49Z</time>
      </trkpt>
      <trkpt lat="45.15157" lon="-0.55682">
        <ele>25.9</ele>
        <time>2020-09-03T06:49:50Z</time>
      </trkpt>
      <trkpt lat="45.15157" lon="-0.55683">
        <ele>25.9</ele>
        <time>2020-09-03T06:49:52Z</time>
      </trkpt>
      <trkpt lat="45.15157" lon="-0.55685">
        <ele>25.9</ele>
        <time>2020-09-03T06:49:53Z</time>
      </trkpt>
      <trkpt lat="45.15157" lon="-0.55687">
        <ele>25.9</ele>
        <time>2020-09-03T06:49:54Z</time>
      </trkpt>
      <trkpt lat="45.15157" lon="-0.55688">
        <ele>25.9</ele>
        <time>2020-09-03T06:49:56Z</time>
      </trkpt>
      <trkpt lat="45.15157" lon="-0.55688">
        <ele>25.9</ele>
        <time>2020-09-03T06:49:57Z</time>
      </trkpt>
      <trkpt lat="45.15157" lon="-0.55688">
        <ele>25.9</ele>
        <time>2020-09-03T06:49:58Z</time>
      </trkpt>
      <trkpt lat="45.15157" lon="-0.55689">
        <ele>25.9</ele>
        <time>2020-09-03T06:49:59Z</time>
      </trkpt>
      <trkpt lat="45.15157" lon="-0.55691">
        <ele>25.9</ele>
        <time>2020-09-03T06:50:01Z</time>
      </trkpt>
      <trkpt lat="45.15156" lon="-0.55695">
        <ele>25.9</ele>
        <time>2020-09-03T06:50:03Z</time>
      </trkpt>
      <trkpt lat="45.15156" lon="-0.55697">
        <ele>25.9</ele>
        <time>2020-09-03T06:50:04Z</time>
      </trkpt>
      <trkpt lat="45.15156" lon="-0.55698">
        <ele>25.9</ele>
        <time>2020-09-03T06:50:05Z</time>
      </trkpt>
      <trkpt lat="45.15156" lon="-0.55699">
        <ele>25.9</ele>
        <time>2020-09-03T06:50:06Z</time>
      </trkpt>
      <trkpt lat="45.15155" lon="-0.557">
        <ele>25.9</ele>
        <time>2020-09-03T06:50:08Z</time>
      </trkpt>
      <trkpt lat="45.15156" lon="-0.55701">
        <ele>25.9</ele>
        <time>2020-09-03T06:50:09Z</time>
      </trkpt>
      <trkpt lat="45.15156" lon="-0.557">
        <ele>25.9</ele>
        <time>2020-09-03T06:50:11Z</time>
      </trkpt>
      <trkpt lat="45.15156" lon="-0.557">
        <ele>25.9</ele>
        <time>2020-09-03T06:50:12Z</time>
      </trkpt>
      <trkpt lat="45.15156" lon="-0.557">
        <ele>25.9</ele>
        <time>2020-09-03T06:50:13Z</time>
      </trkpt>
      <trkpt lat="45.15156" lon="-0.55699">
        <ele>25.9</ele>
        <time>2020-09-03T06:50:14Z</time>
      </trkpt>
      <trkpt lat="45.15156" lon="-0.55701">
        <ele>25.9</ele>
        <time>2020-09-03T06:50:15Z</time>
      </trkpt>
      <trkpt lat="45.15156" lon="-0.55702">
        <ele>25.9</ele>
        <time>2020-09-03T06:50:16Z</time>
      </trkpt>
      <trkpt lat="45.15156" lon="-0.55705">
        <ele>25.9</ele>
        <time>2020-09-03T06:50:18Z</time>
      </trkpt>
      <trkpt lat="45.15155" lon="-0.55708">
        <ele>25.9</ele>
        <time>2020-09-03T06:50:19Z</time>
      </trkpt>
      <trkpt lat="45.15155" lon="-0.55709">
        <ele>25.9</ele>
        <time>2020-09-03T06:50:20Z</time>
      </trkpt>
      <trkpt lat="45.15155" lon="-0.5571">
        <ele>25.9</ele>
        <time>2020-09-03T06:50:21Z</time>
      </trkpt>
      <trkpt lat="45.15155" lon="-0.55712">
        <ele>25.9</ele>
        <time>2020-09-03T06:50:22Z</time>
      </trkpt>
      <trkpt lat="45.15155" lon="-0.55716">
        <ele>25.9</ele>
        <time>2020-09-03T06:50:24Z</time>
      </trkpt>
      <trkpt lat="45.15154" lon="-0.55718">
        <ele>25.9</ele>
        <time>2020-09-03T06:50:26Z</time>
      </trkpt>
      <trkpt lat="45.15154" lon="-0.5572">
        <ele>25.9</ele>
        <time>2020-09-03T06:50:27Z</time>
      </trkpt>
      <trkpt lat="45.15154" lon="-0.55724">
        <ele>25.9</ele>
        <time>2020-09-03T06:50:28Z</time>
      </trkpt>
      <trkpt lat="45.15154" lon="-0.55725">
        <ele>25.9</ele>
        <time>2020-09-03T06:50:30Z</time>
      </trkpt>
      <trkpt lat="45.15154" lon="-0.55727">
        <ele>25.9</ele>
        <time>2020-09-03T06:50:31Z</time>
      </trkpt>
      <trkpt lat="45.15153" lon="-0.55728">
        <ele>25.9</ele>
        <time>2020-09-03T06:50:32Z</time>
      </trkpt>
      <trkpt lat="45.15153" lon="-0.55734">
        <ele>25.9</ele>
        <time>2020-09-03T06:50:34Z</time>
      </trkpt>
      <trkpt lat="45.15153" lon="-0.55736">
        <ele>25.9</ele>
        <time>2020-09-03T06:50:36Z</time>
      </trkpt>
      <trkpt lat="45.15153" lon="-0.55737">
        <ele>25.9</ele>
        <time>2020-09-03T06:50:37Z</time>
      </trkpt>
      <trkpt lat="45.15152" lon="-0.55739">
        <ele>25.9</ele>
        <time>2020-09-03T06:50:38Z</time>
      </trkpt>
      <trkpt lat="45.15152" lon="-0.55741">
        <ele>25.9</ele>
        <time>2020-09-03T06:50:40Z</time>
      </trkpt>
      <trkpt lat="45.15152" lon="-0.55744">
        <ele>25.9</ele>
        <time>2020-09-03T06:50:41Z</time>
      </trkpt>
      <trkpt lat="45.15152" lon="-0.55749">
        <ele>25.9</ele>
        <time>2020-09-03T06:50:43Z</time>
      </trkpt>
      <trkpt lat="45.15151" lon="-0.5575">
        <ele>25.9</ele>
        <time>2020-09-03T06:50:44Z</time>
      </trkpt>
      <trkpt lat="45.15151" lon="-0.55752">
        <ele>25.9</ele>
        <time>2020-09-03T06:50:45Z</time>
      </trkpt>
      <trkpt lat="45.15151" lon="-0.55754">
        <ele>26</ele>
        <time>2020-09-03T06:50:46Z</time>
      </trkpt>
      <trkpt lat="45.15151" lon="-0.55756">
        <ele>26</ele>
        <time>2020-09-03T06:50:48Z</time>
      </trkpt>
      <trkpt lat="45.15151" lon="-0.55757">
        <ele>26</ele>
        <time>2020-09-03T06:50:49Z</time>
      </trkpt>
      <trkpt lat="45.15151" lon="-0.55758">
        <ele>26</ele>
        <time>2020-09-03T06:50:50Z</time>
      </trkpt>
      <trkpt lat="45.15151" lon="-0.5576">
        <ele>26</ele>
        <time>2020-09-03T06:50:51Z</time>
      </trkpt>
      <trkpt lat="45.15151" lon="-0.55762">
        <ele>26</ele>
        <time>2020-09-03T06:50:52Z</time>
      </trkpt>
      <trkpt lat="45.1515" lon="-0.55763">
        <ele>26</ele>
        <time>2020-09-03T06:50:54Z</time>
      </trkpt>
      <trkpt lat="45.1515" lon="-0.55763">
        <ele>26</ele>
        <time>2020-09-03T06:50:55Z</time>
      </trkpt>
      <trkpt lat="45.1515" lon="-0.55763">
        <ele>26</ele>
        <time>2020-09-03T06:50:56Z</time>
      </trkpt>
      <trkpt lat="45.1515" lon="-0.55763">
        <ele>26</ele>
        <time>2020-09-03T06:50:57Z</time>
      </trkpt>
      <trkpt lat="45.15151" lon="-0.55765">
        <ele>26</ele>
        <time>2020-09-03T06:50:59Z</time>
      </trkpt>
      <trkpt lat="45.15151" lon="-0.55767">
        <ele>26</ele>
        <time>2020-09-03T06:51:00Z</time>
      </trkpt>
      <trkpt lat="45.15151" lon="-0.55769">
        <ele>26</ele>
        <time>2020-09-03T06:51:01Z</time>
      </trkpt>
      <trkpt lat="45.15151" lon="-0.55771">
        <ele>26.1</ele>
        <time>2020-09-03T06:51:02Z</time>
      </trkpt>
      <trkpt lat="45.15151" lon="-0.55773">
        <ele>26.1</ele>
        <time>2020-09-03T06:51:03Z</time>
      </trkpt>
      <trkpt lat="45.15151" lon="-0.55776">
        <ele>26.1</ele>
        <time>2020-09-03T06:51:05Z</time>
      </trkpt>
      <trkpt lat="45.15151" lon="-0.55779">
        <ele>26.1</ele>
        <time>2020-09-03T06:51:06Z</time>
      </trkpt>
      <trkpt lat="45.15151" lon="-0.5578">
        <ele>26.1</ele>
        <time>2020-09-03T06:51:07Z</time>
      </trkpt>
      <trkpt lat="45.1515" lon="-0.55781">
        <ele>26.1</ele>
        <time>2020-09-03T06:51:08Z</time>
      </trkpt>
      <trkpt lat="45.1515" lon="-0.55784">
        <ele>26.1</ele>
        <time>2020-09-03T06:51:09Z</time>
      </trkpt>
      <trkpt lat="45.1515" lon="-0.55786">
        <ele>26.1</ele>
        <time>2020-09-03T06:51:10Z</time>
      </trkpt>
      <trkpt lat="45.1515" lon="-0.55787">
        <ele>26.1</ele>
        <time>2020-09-03T06:51:11Z</time>
      </trkpt>
      <trkpt lat="45.15149" lon="-0.55789">
        <ele>26.1</ele>
        <time>2020-09-03T06:51:12Z</time>
      </trkpt>
      <trkpt lat="45.15149" lon="-0.55793">
        <ele>26.1</ele>
        <time>2020-09-03T06:51:14Z</time>
      </trkpt>
      <trkpt lat="45.15149" lon="-0.55796">
        <ele>26.2</ele>
        <time>2020-09-03T06:51:15Z</time>
      </trkpt>
      <trkpt lat="45.15149" lon="-0.55798">
        <ele>26.2</ele>
        <time>2020-09-03T06:51:17Z</time>
      </trkpt>
      <trkpt lat="45.15149" lon="-0.55799">
        <ele>26.2</ele>
        <time>2020-09-03T06:51:18Z</time>
      </trkpt>
      <trkpt lat="45.15149" lon="-0.55804">
        <ele>26.2</ele>
        <time>2020-09-03T06:51:19Z</time>
      </trkpt>
      <trkpt lat="45.15149" lon="-0.55805">
        <ele>26.2</ele>
        <time>2020-09-03T06:51:21Z</time>
      </trkpt>
      <trkpt lat="45.15149" lon="-0.55806">
        <ele>26.2</ele>
        <time>2020-09-03T06:51:22Z</time>
      </trkpt>
      <trkpt lat="45.15149" lon="-0.55808">
        <ele>26.2</ele>
        <time>2020-09-03T06:51:23Z</time>
      </trkpt>
      <trkpt lat="45.15149" lon="-0.55809">
        <ele>26.3</ele>
        <time>2020-09-03T06:51:24Z</time>
      </trkpt>
      <trkpt lat="45.15149" lon="-0.5581">
        <ele>26.3</ele>
        <time>2020-09-03T06:51:26Z</time>
      </trkpt>
      <trkpt lat="45.15149" lon="-0.55813">
        <ele>26.3</ele>
        <time>2020-09-03T06:51:27Z</time>
      </trkpt>
      <trkpt lat="45.15149" lon="-0.55817">
        <ele>26.3</ele>
        <time>2020-09-03T06:51:28Z</time>
      </trkpt>
      <trkpt lat="45.15149" lon="-0.55818">
        <ele>26.4</ele>
        <time>2020-09-03T06:51:29Z</time>
      </trkpt>
      <trkpt lat="45.15149" lon="-0.55821">
        <ele>26.4</ele>
        <time>2020-09-03T06:51:31Z</time>
      </trkpt>
      <trkpt lat="45.15149" lon="-0.55823">
        <ele>26.4</ele>
        <time>2020-09-03T06:51:32Z</time>
      </trkpt>
      <trkpt lat="45.1515" lon="-0.55824">
        <ele>26.4</ele>
        <time>2020-09-03T06:51:33Z</time>
      </trkpt>
      <trkpt lat="45.1515" lon="-0.55827">
        <ele>26.5</ele>
        <time>2020-09-03T06:51:34Z</time>
      </trkpt>
      <trkpt lat="45.1515" lon="-0.5583">
        <ele>26.5</ele>
        <time>2020-09-03T06:51:35Z</time>
      </trkpt>
      <trkpt lat="45.1515" lon="-0.55831">
        <ele>26.5</ele>
        <time>2020-09-03T06:51:36Z</time>
      </trkpt>
      <trkpt lat="45.1515" lon="-0.55833">
        <ele>26.5</ele>
        <time>2020-09-03T06:51:37Z</time>
      </trkpt>
      <trkpt lat="45.1515" lon="-0.55839">
        <ele>26.6</ele>
        <time>2020-09-03T06:51:39Z</time>
      </trkpt>
      <trkpt lat="45.15149" lon="-0.55841">
        <ele>26.6</ele>
        <time>2020-09-03T06:51:40Z</time>
      </trkpt>
      <trkpt lat="45.15149" lon="-0.55843">
        <ele>26.7</ele>
        <time>2020-09-03T06:51:41Z</time>
      </trkpt>
      <trkpt lat="45.15149" lon="-0.55847">
        <ele>26.7</ele>
        <time>2020-09-03T06:51:42Z</time>
      </trkpt>
      <trkpt lat="45.15149" lon="-0.55849">
        <ele>26.7</ele>
        <time>2020-09-03T06:51:43Z</time>
      </trkpt>
      <trkpt lat="45.15149" lon="-0.55851">
        <ele>26.7</ele>
        <time>2020-09-03T06:51:44Z</time>
      </trkpt>
      <trkpt lat="45.15148" lon="-0.55851">
        <ele>26.8</ele>
        <time>2020-09-03T06:51:46Z</time>
      </trkpt>
      <trkpt lat="45.15148" lon="-0.55852">
        <ele>26.8</ele>
        <time>2020-09-03T06:51:47Z</time>
      </trkpt>
      <trkpt lat="45.15147" lon="-0.55854">
        <ele>26.8</ele>
        <time>2020-09-03T06:51:48Z</time>
      </trkpt>
      <trkpt lat="45.15146" lon="-0.55858">
        <ele>26.8</ele>
        <time>2020-09-03T06:51:50Z</time>
      </trkpt>
      <trkpt lat="45.15146" lon="-0.5586">
        <ele>26.9</ele>
        <time>2020-09-03T06:51:51Z</time>
      </trkpt>
      <trkpt lat="45.15145" lon="-0.55861">
        <ele>26.9</ele>
        <time>2020-09-03T06:51:52Z</time>
      </trkpt>
      <trkpt lat="45.15145" lon="-0.55863">
        <ele>26.9</ele>
        <time>2020-09-03T06:51:53Z</time>
      </trkpt>
      <trkpt lat="45.15145" lon="-0.55866">
        <ele>26.9</ele>
        <time>2020-09-03T06:51:54Z</time>
      </trkpt>
      <trkpt lat="45.15144" lon="-0.55868">
        <ele>26.9</ele>
        <time>2020-09-03T06:51:56Z</time>
      </trkpt>
      <trkpt lat="45.15144" lon="-0.55869">
        <ele>27</ele>
        <time>2020-09-03T06:51:57Z</time>
      </trkpt>
      <trkpt lat="45.15143" lon="-0.55871">
        <ele>27</ele>
        <time>2020-09-03T06:51:58Z</time>
      </trkpt>
      <trkpt lat="45.15143" lon="-0.55876">
        <ele>27</ele>
        <time>2020-09-03T06:51:59Z</time>
      </trkpt>
      <trkpt lat="45.15142" lon="-0.55877">
        <ele>27</ele>
        <time>2020-09-03T06:52:00Z</time>
      </trkpt>
      <trkpt lat="45.15142" lon="-0.5588">
        <ele>27.1</ele>
        <time>2020-09-03T06:52:02Z</time>
      </trkpt>
      <trkpt lat="45.15142" lon="-0.55882">
        <ele>27.1</ele>
        <time>2020-09-03T06:52:03Z</time>
      </trkpt>
      <trkpt lat="45.15141" lon="-0.55887">
        <ele>27.1</ele>
        <time>2020-09-03T06:52:05Z</time>
      </trkpt>
      <trkpt lat="45.15141" lon="-0.55887">
        <ele>27.1</ele>
        <time>2020-09-03T06:52:06Z</time>
      </trkpt>
      <trkpt lat="45.1514" lon="-0.55892">
        <ele>27.2</ele>
        <time>2020-09-03T06:52:08Z</time>
      </trkpt>
      <trkpt lat="45.1514" lon="-0.55893">
        <ele>27.2</ele>
        <time>2020-09-03T06:52:09Z</time>
      </trkpt>
      <trkpt lat="45.1514" lon="-0.55895">
        <ele>27.2</ele>
        <time>2020-09-03T06:52:10Z</time>
      </trkpt>
      <trkpt lat="45.1514" lon="-0.55896">
        <ele>27.2</ele>
        <time>2020-09-03T06:52:11Z</time>
      </trkpt>
      <trkpt lat="45.1514" lon="-0.55897">
        <ele>27.3</ele>
        <time>2020-09-03T06:52:12Z</time>
      </trkpt>
      <trkpt lat="45.1514" lon="-0.55899">
        <ele>27.3</ele>
        <time>2020-09-03T06:52:14Z</time>
      </trkpt>
      <trkpt lat="45.1514" lon="-0.55902">
        <ele>27.3</ele>
        <time>2020-09-03T06:52:15Z</time>
      </trkpt>
      <trkpt lat="45.15139" lon="-0.55903">
        <ele>27.3</ele>
        <time>2020-09-03T06:52:16Z</time>
      </trkpt>
      <trkpt lat="45.15139" lon="-0.55905">
        <ele>27.4</ele>
        <time>2020-09-03T06:52:17Z</time>
      </trkpt>
      <trkpt lat="45.15139" lon="-0.55907">
        <ele>27.4</ele>
        <time>2020-09-03T06:52:19Z</time>
      </trkpt>
      <trkpt lat="45.15139" lon="-0.55911">
        <ele>27.5</ele>
        <time>2020-09-03T06:52:20Z</time>
      </trkpt>
      <trkpt lat="45.15139" lon="-0.55915">
        <ele>27.5</ele>
        <time>2020-09-03T06:52:21Z</time>
      </trkpt>
      <trkpt lat="45.15138" lon="-0.55916">
        <ele>27.5</ele>
        <time>2020-09-03T06:52:23Z</time>
      </trkpt>
      <trkpt lat="45.15138" lon="-0.55918">
        <ele>27.6</ele>
        <time>2020-09-03T06:52:24Z</time>
      </trkpt>
      <trkpt lat="45.15138" lon="-0.5592">
        <ele>27.6</ele>
        <time>2020-09-03T06:52:26Z</time>
      </trkpt>
      <trkpt lat="45.15137" lon="-0.55922">
        <ele>27.6</ele>
        <time>2020-09-03T06:52:27Z</time>
      </trkpt>
      <trkpt lat="45.15137" lon="-0.55924">
        <ele>27.7</ele>
        <time>2020-09-03T06:52:29Z</time>
      </trkpt>
      <trkpt lat="45.15136" lon="-0.55928">
        <ele>27.7</ele>
        <time>2020-09-03T06:52:30Z</time>
      </trkpt>
      <trkpt lat="45.15136" lon="-0.55929">
        <ele>27.7</ele>
        <time>2020-09-03T06:52:31Z</time>
      </trkpt>
      <trkpt lat="45.15136" lon="-0.5593">
        <ele>27.7</ele>
        <time>2020-09-03T06:52:32Z</time>
      </trkpt>
      <trkpt lat="45.15136" lon="-0.55932">
        <ele>27.8</ele>
        <time>2020-09-03T06:52:33Z</time>
      </trkpt>
      <trkpt lat="45.15135" lon="-0.55935">
        <ele>27.8</ele>
        <time>2020-09-03T06:52:34Z</time>
      </trkpt>
      <trkpt lat="45.15135" lon="-0.55937">
        <ele>27.8</ele>
        <time>2020-09-03T06:52:35Z</time>
      </trkpt>
      <trkpt lat="45.15135" lon="-0.55938">
        <ele>27.8</ele>
        <time>2020-09-03T06:52:36Z</time>
      </trkpt>
      <trkpt lat="45.15135" lon="-0.55939">
        <ele>27.8</ele>
        <time>2020-09-03T06:52:37Z</time>
      </trkpt>
      <trkpt lat="45.15134" lon="-0.5594">
        <ele>27.9</ele>
        <time>2020-09-03T06:52:38Z</time>
      </trkpt>
      <trkpt lat="45.15134" lon="-0.55943">
        <ele>27.9</ele>
        <time>2020-09-03T06:52:40Z</time>
      </trkpt>
      <trkpt lat="45.15133" lon="-0.55945">
        <ele>27.9</ele>
        <time>2020-09-03T06:52:41Z</time>
      </trkpt>
      <trkpt lat="45.15133" lon="-0.55947">
        <ele>27.9</ele>
        <time>2020-09-03T06:52:42Z</time>
      </trkpt>
      <trkpt lat="45.15133" lon="-0.55949">
        <ele>28</ele>
        <time>2020-09-03T06:52:44Z</time>
      </trkpt>
      <trkpt lat="45.15133" lon="-0.55952">
        <ele>28</ele>
        <time>2020-09-03T06:52:45Z</time>
      </trkpt>
      <trkpt lat="45.15134" lon="-0.55952">
        <ele>28</ele>
        <time>2020-09-03T06:52:46Z</time>
      </trkpt>
      <trkpt lat="45.15134" lon="-0.55952">
        <ele>28</ele>
        <time>2020-09-03T06:52:47Z</time>
      </trkpt>
      <trkpt lat="45.15133" lon="-0.55951">
        <ele>28</ele>
        <time>2020-09-03T06:52:48Z</time>
      </trkpt>
      <trkpt lat="45.15133" lon="-0.55952">
        <ele>28.1</ele>
        <time>2020-09-03T06:52:49Z</time>
      </trkpt>
      <trkpt lat="45.15133" lon="-0.55953">
        <ele>28.1</ele>
        <time>2020-09-03T06:52:50Z</time>
      </trkpt>
      <trkpt lat="45.15133" lon="-0.55956">
        <ele>28.1</ele>
        <time>2020-09-03T06:52:51Z</time>
      </trkpt>
      <trkpt lat="45.15133" lon="-0.55957">
        <ele>28.1</ele>
        <time>2020-09-03T06:52:52Z</time>
      </trkpt>
      <trkpt lat="45.15133" lon="-0.55959">
        <ele>28.2</ele>
        <time>2020-09-03T06:52:53Z</time>
      </trkpt>
      <trkpt lat="45.15133" lon="-0.55961">
        <ele>28.2</ele>
        <time>2020-09-03T06:52:54Z</time>
      </trkpt>
      <trkpt lat="45.15132" lon="-0.55962">
        <ele>28.2</ele>
        <time>2020-09-03T06:52:55Z</time>
      </trkpt>
      <trkpt lat="45.15132" lon="-0.55963">
        <ele>28.2</ele>
        <time>2020-09-03T06:52:56Z</time>
      </trkpt>
      <trkpt lat="45.15131" lon="-0.55967">
        <ele>28.3</ele>
        <time>2020-09-03T06:52:57Z</time>
      </trkpt>
      <trkpt lat="45.1513" lon="-0.55968">
        <ele>28.3</ele>
        <time>2020-09-03T06:52:58Z</time>
      </trkpt>
      <trkpt lat="45.1513" lon="-0.5597">
        <ele>28.3</ele>
        <time>2020-09-03T06:52:59Z</time>
      </trkpt>
      <trkpt lat="45.15129" lon="-0.55971">
        <ele>28.3</ele>
        <time>2020-09-03T06:53:00Z</time>
      </trkpt>
      <trkpt lat="45.15129" lon="-0.55972">
        <ele>28.4</ele>
        <time>2020-09-03T06:53:01Z</time>
      </trkpt>
      <trkpt lat="45.15128" lon="-0.55974">
        <ele>28.4</ele>
        <time>2020-09-03T06:53:03Z</time>
      </trkpt>
      <trkpt lat="45.15126" lon="-0.55978">
        <ele>28.5</ele>
        <time>2020-09-03T06:53:04Z</time>
      </trkpt>
      <trkpt lat="45.15125" lon="-0.55981">
        <ele>28.5</ele>
        <time>2020-09-03T06:53:05Z</time>
      </trkpt>
      <trkpt lat="45.15125" lon="-0.55982">
        <ele>28.5</ele>
        <time>2020-09-03T06:53:07Z</time>
      </trkpt>
      <trkpt lat="45.15124" lon="-0.55983">
        <ele>28.5</ele>
        <time>2020-09-03T06:53:08Z</time>
      </trkpt>
      <trkpt lat="45.15123" lon="-0.55986">
        <ele>28.6</ele>
        <time>2020-09-03T06:53:10Z</time>
      </trkpt>
      <trkpt lat="45.15123" lon="-0.55988">
        <ele>28.6</ele>
        <time>2020-09-03T06:53:11Z</time>
      </trkpt>
      <trkpt lat="45.15122" lon="-0.55989">
        <ele>28.6</ele>
        <time>2020-09-03T06:53:12Z</time>
      </trkpt>
      <trkpt lat="45.15121" lon="-0.55992">
        <ele>28.7</ele>
        <time>2020-09-03T06:53:13Z</time>
      </trkpt>
      <trkpt lat="45.1512" lon="-0.55996">
        <ele>28.7</ele>
        <time>2020-09-03T06:53:15Z</time>
      </trkpt>
      <trkpt lat="45.15119" lon="-0.55998">
        <ele>28.7</ele>
        <time>2020-09-03T06:53:16Z</time>
      </trkpt>
      <trkpt lat="45.15118" lon="-0.56">
        <ele>28.8</ele>
        <time>2020-09-03T06:53:17Z</time>
      </trkpt>
      <trkpt lat="45.15118" lon="-0.56003">
        <ele>28.8</ele>
        <time>2020-09-03T06:53:19Z</time>
      </trkpt>
      <trkpt lat="45.15116" lon="-0.56007">
        <ele>28.9</ele>
        <time>2020-09-03T06:53:20Z</time>
      </trkpt>
      <trkpt lat="45.15116" lon="-0.56008">
        <ele>28.9</ele>
        <time>2020-09-03T06:53:21Z</time>
      </trkpt>
      <trkpt lat="45.15115" lon="-0.56009">
        <ele>28.9</ele>
        <time>2020-09-03T06:53:22Z</time>
      </trkpt>
      <trkpt lat="45.15114" lon="-0.56012">
        <ele>29</ele>
        <time>2020-09-03T06:53:24Z</time>
      </trkpt>
      <trkpt lat="45.15113" lon="-0.56014">
        <ele>29</ele>
        <time>2020-09-03T06:53:25Z</time>
      </trkpt>
      <trkpt lat="45.15112" lon="-0.56016">
        <ele>29</ele>
        <time>2020-09-03T06:53:26Z</time>
      </trkpt>
      <trkpt lat="45.15112" lon="-0.56018">
        <ele>29.1</ele>
        <time>2020-09-03T06:53:28Z</time>
      </trkpt>
      <trkpt lat="45.15111" lon="-0.56019">
        <ele>29.1</ele>
        <time>2020-09-03T06:53:29Z</time>
      </trkpt>
      <trkpt lat="45.1511" lon="-0.56022">
        <ele>29.1</ele>
        <time>2020-09-03T06:53:30Z</time>
      </trkpt>
      <trkpt lat="45.15109" lon="-0.56024">
        <ele>29.2</ele>
        <time>2020-09-03T06:53:32Z</time>
      </trkpt>
      <trkpt lat="45.15107" lon="-0.56027">
        <ele>29.2</ele>
        <time>2020-09-03T06:53:33Z</time>
      </trkpt>
      <trkpt lat="45.15106" lon="-0.56029">
        <ele>29.2</ele>
        <time>2020-09-03T06:53:34Z</time>
      </trkpt>
      <trkpt lat="45.15105" lon="-0.56031">
        <ele>29.3</ele>
        <time>2020-09-03T06:53:36Z</time>
      </trkpt>
      <trkpt lat="45.15104" lon="-0.56031">
        <ele>29.3</ele>
        <time>2020-09-03T06:53:37Z</time>
      </trkpt>
      <trkpt lat="45.15103" lon="-0.56032">
        <ele>29.3</ele>
        <time>2020-09-03T06:53:38Z</time>
      </trkpt>
      <trkpt lat="45.15101" lon="-0.56036">
        <ele>29.3</ele>
        <time>2020-09-03T06:53:40Z</time>
      </trkpt>
      <trkpt lat="45.15101" lon="-0.56036">
        <ele>29.3</ele>
        <time>2020-09-03T06:53:41Z</time>
      </trkpt>
      <trkpt lat="45.151" lon="-0.56038">
        <ele>29.3</ele>
        <time>2020-09-03T06:53:42Z</time>
      </trkpt>
      <trkpt lat="45.15099" lon="-0.56039">
        <ele>29.4</ele>
        <time>2020-09-03T06:53:43Z</time>
      </trkpt>
      <trkpt lat="45.15098" lon="-0.56041">
        <ele>29.4</ele>
        <time>2020-09-03T06:53:45Z</time>
      </trkpt>
      <trkpt lat="45.15096" lon="-0.56042">
        <ele>29.4</ele>
        <time>2020-09-03T06:53:46Z</time>
      </trkpt>
      <trkpt lat="45.15096" lon="-0.56043">
        <ele>29.4</ele>
        <time>2020-09-03T06:53:47Z</time>
      </trkpt>
      <trkpt lat="45.15094" lon="-0.56045">
        <ele>29.4</ele>
        <time>2020-09-03T06:53:48Z</time>
      </trkpt>
      <trkpt lat="45.15094" lon="-0.56046">
        <ele>29.4</ele>
        <time>2020-09-03T06:53:50Z</time>
      </trkpt>
      <trkpt lat="45.15092" lon="-0.56048">
        <ele>29.4</ele>
        <time>2020-09-03T06:53:51Z</time>
      </trkpt>
      <trkpt lat="45.1509" lon="-0.56049">
        <ele>29.5</ele>
        <time>2020-09-03T06:53:52Z</time>
      </trkpt>
      <trkpt lat="45.15088" lon="-0.56051">
        <ele>29.5</ele>
        <time>2020-09-03T06:53:54Z</time>
      </trkpt>
      <trkpt lat="45.15087" lon="-0.56052">
        <ele>29.5</ele>
        <time>2020-09-03T06:53:55Z</time>
      </trkpt>
      <trkpt lat="45.15086" lon="-0.56053">
        <ele>29.6</ele>
        <time>2020-09-03T06:53:57Z</time>
      </trkpt>
      <trkpt lat="45.15085" lon="-0.56055">
        <ele>29.6</ele>
        <time>2020-09-03T06:53:58Z</time>
      </trkpt>
      <trkpt lat="45.15082" lon="-0.56057">
        <ele>29.7</ele>
        <time>2020-09-03T06:54:00Z</time>
      </trkpt>
      <trkpt lat="45.15081" lon="-0.56058">
        <ele>29.7</ele>
        <time>2020-09-03T06:54:01Z</time>
      </trkpt>
      <trkpt lat="45.15078" lon="-0.56061">
        <ele>29.8</ele>
        <time>2020-09-03T06:54:03Z</time>
      </trkpt>
      <trkpt lat="45.15077" lon="-0.56061">
        <ele>29.8</ele>
        <time>2020-09-03T06:54:04Z</time>
      </trkpt>
      <trkpt lat="45.15075" lon="-0.56064">
        <ele>29.9</ele>
        <time>2020-09-03T06:54:05Z</time>
      </trkpt>
      <trkpt lat="45.15074" lon="-0.56065">
        <ele>29.9</ele>
        <time>2020-09-03T06:54:07Z</time>
      </trkpt>
      <trkpt lat="45.15072" lon="-0.56066">
        <ele>30</ele>
        <time>2020-09-03T06:54:09Z</time>
      </trkpt>
      <trkpt lat="45.1507" lon="-0.56068">
        <ele>30</ele>
        <time>2020-09-03T06:54:10Z</time>
      </trkpt>
      <trkpt lat="45.15069" lon="-0.56069">
        <ele>30</ele>
        <time>2020-09-03T06:54:12Z</time>
      </trkpt>
      <trkpt lat="45.15068" lon="-0.56071">
        <ele>30.1</ele>
        <time>2020-09-03T06:54:13Z</time>
      </trkpt>
      <trkpt lat="45.15066" lon="-0.56072">
        <ele>30.1</ele>
        <time>2020-09-03T06:54:14Z</time>
      </trkpt>
      <trkpt lat="45.15065" lon="-0.56075">
        <ele>30.2</ele>
        <time>2020-09-03T06:54:16Z</time>
      </trkpt>
      <trkpt lat="45.15063" lon="-0.56077">
        <ele>30.2</ele>
        <time>2020-09-03T06:54:17Z</time>
      </trkpt>
      <trkpt lat="45.15062" lon="-0.56079">
        <ele>30.2</ele>
        <time>2020-09-03T06:54:19Z</time>
      </trkpt>
      <trkpt lat="45.15061" lon="-0.56082">
        <ele>30.2</ele>
        <time>2020-09-03T06:54:20Z</time>
      </trkpt>
      <trkpt lat="45.1506" lon="-0.56083">
        <ele>30.3</ele>
        <time>2020-09-03T06:54:21Z</time>
      </trkpt>
      <trkpt lat="45.15059" lon="-0.56086">
        <ele>30.3</ele>
        <time>2020-09-03T06:54:23Z</time>
      </trkpt>
      <trkpt lat="45.15058" lon="-0.56091">
        <ele>30.3</ele>
        <time>2020-09-03T06:54:25Z</time>
      </trkpt>
      <trkpt lat="45.15057" lon="-0.56093">
        <ele>30.4</ele>
        <time>2020-09-03T06:54:26Z</time>
      </trkpt>
      <trkpt lat="45.15057" lon="-0.56095">
        <ele>30.4</ele>
        <time>2020-09-03T06:54:27Z</time>
      </trkpt>
      <trkpt lat="45.15055" lon="-0.56098">
        <ele>30.4</ele>
        <time>2020-09-03T06:54:28Z</time>
      </trkpt>
      <trkpt lat="45.15055" lon="-0.561">
        <ele>30.4</ele>
        <time>2020-09-03T06:54:29Z</time>
      </trkpt>
      <trkpt lat="45.15055" lon="-0.56101">
        <ele>30.4</ele>
        <time>2020-09-03T06:54:31Z</time>
      </trkpt>
      <trkpt lat="45.15054" lon="-0.56103">
        <ele>30.4</ele>
        <time>2020-09-03T06:54:32Z</time>
      </trkpt>
      <trkpt lat="45.15053" lon="-0.56107">
        <ele>30.4</ele>
        <time>2020-09-03T06:54:34Z</time>
      </trkpt>
      <trkpt lat="45.15052" lon="-0.5611">
        <ele>30.5</ele>
        <time>2020-09-03T06:54:35Z</time>
      </trkpt>
      <trkpt lat="45.15051" lon="-0.56112">
        <ele>30.5</ele>
        <time>2020-09-03T06:54:36Z</time>
      </trkpt>
      <trkpt lat="45.15051" lon="-0.56113">
        <ele>30.5</ele>
        <time>2020-09-03T06:54:37Z</time>
      </trkpt>
      <trkpt lat="45.15051" lon="-0.56116">
        <ele>30.5</ele>
        <time>2020-09-03T06:54:39Z</time>
      </trkpt>
      <trkpt lat="45.15051" lon="-0.56119">
        <ele>30.5</ele>
        <time>2020-09-03T06:54:40Z</time>
      </trkpt>
      <trkpt lat="45.15051" lon="-0.56121">
        <ele>30.5</ele>
        <time>2020-09-03T06:54:41Z</time>
      </trkpt>
      <trkpt lat="45.15053" lon="-0.56126">
        <ele>30.5</ele>
        <time>2020-09-03T06:54:43Z</time>
      </trkpt>
      <trkpt lat="45.15055" lon="-0.56127">
        <ele>30.5</ele>
        <time>2020-09-03T06:54:45Z</time>
      </trkpt>
      <trkpt lat="45.15056" lon="-0.56127">
        <ele>30.5</ele>
        <time>2020-09-03T06:54:46Z</time>
      </trkpt>
      <trkpt lat="45.15058" lon="-0.56129">
        <ele>30.6</ele>
        <time>2020-09-03T06:54:47Z</time>
      </trkpt>
      <trkpt lat="45.1506" lon="-0.5613">
        <ele>30.6</ele>
        <time>2020-09-03T06:54:49Z</time>
      </trkpt>
      <trkpt lat="45.15062" lon="-0.56132">
        <ele>30.6</ele>
        <time>2020-09-03T06:54:50Z</time>
      </trkpt>
      <trkpt lat="45.15063" lon="-0.56132">
        <ele>30.6</ele>
        <time>2020-09-03T06:54:51Z</time>
      </trkpt>
      <trkpt lat="45.15065" lon="-0.56132">
        <ele>30.6</ele>
        <time>2020-09-03T06:54:52Z</time>
      </trkpt>
      <trkpt lat="45.15068" lon="-0.5613">
        <ele>30.6</ele>
        <time>2020-09-03T06:54:53Z</time>
      </trkpt>
      <trkpt lat="45.15069" lon="-0.56129">
        <ele>30.6</ele>
        <time>2020-09-03T06:54:54Z</time>
      </trkpt>
      <trkpt lat="45.1507" lon="-0.56129">
        <ele>30.6</ele>
        <time>2020-09-03T06:54:55Z</time>
      </trkpt>
      <trkpt lat="45.15072" lon="-0.56127">
        <ele>30.6</ele>
        <time>2020-09-03T06:54:57Z</time>
      </trkpt>
      <trkpt lat="45.15073" lon="-0.56126">
        <ele>30.6</ele>
        <time>2020-09-03T06:54:58Z</time>
      </trkpt>
      <trkpt lat="45.15075" lon="-0.56124">
        <ele>30.6</ele>
        <time>2020-09-03T06:55:00Z</time>
      </trkpt>
      <trkpt lat="45.15076" lon="-0.56123">
        <ele>30.6</ele>
        <time>2020-09-03T06:55:01Z</time>
      </trkpt>
      <trkpt lat="45.15076" lon="-0.56122">
        <ele>30.5</ele>
        <time>2020-09-03T06:55:02Z</time>
      </trkpt>
      <trkpt lat="45.15077" lon="-0.56121">
        <ele>30.5</ele>
        <time>2020-09-03T06:55:04Z</time>
      </trkpt>
      <trkpt lat="45.15079" lon="-0.56117">
        <ele>30.5</ele>
        <time>2020-09-03T06:55:05Z</time>
      </trkpt>
      <trkpt lat="45.15081" lon="-0.56116">
        <ele>30.5</ele>
        <time>2020-09-03T06:55:07Z</time>
      </trkpt>
      <trkpt lat="45.15082" lon="-0.56114">
        <ele>30.5</ele>
        <time>2020-09-03T06:55:08Z</time>
      </trkpt>
      <trkpt lat="45.15084" lon="-0.56112">
        <ele>30.5</ele>
        <time>2020-09-03T06:55:09Z</time>
      </trkpt>
      <trkpt lat="45.15085" lon="-0.56111">
        <ele>30.5</ele>
        <time>2020-09-03T06:55:10Z</time>
      </trkpt>
      <trkpt lat="45.15088" lon="-0.56108">
        <ele>30.4</ele>
        <time>2020-09-03T06:55:12Z</time>
      </trkpt>
      <trkpt lat="45.15088" lon="-0.56107">
        <ele>30.4</ele>
        <time>2020-09-03T06:55:13Z</time>
      </trkpt>
      <trkpt lat="45.1509" lon="-0.56106">
        <ele>30.4</ele>
        <time>2020-09-03T06:55:14Z</time>
      </trkpt>
      <trkpt lat="45.15091" lon="-0.56105">
        <ele>30.4</ele>
        <time>2020-09-03T06:55:15Z</time>
      </trkpt>
      <trkpt lat="45.15093" lon="-0.56103">
        <ele>30.4</ele>
        <time>2020-09-03T06:55:16Z</time>
      </trkpt>
      <trkpt lat="45.15095" lon="-0.56101">
        <ele>30.4</ele>
        <time>2020-09-03T06:55:18Z</time>
      </trkpt>
      <trkpt lat="45.15097" lon="-0.561">
        <ele>30.4</ele>
        <time>2020-09-03T06:55:19Z</time>
      </trkpt>
      <trkpt lat="45.15098" lon="-0.56101">
        <ele>30.4</ele>
        <time>2020-09-03T06:55:20Z</time>
      </trkpt>
      <trkpt lat="45.151" lon="-0.561">
        <ele>30.3</ele>
        <time>2020-09-03T06:55:21Z</time>
      </trkpt>
      <trkpt lat="45.15101" lon="-0.56099">
        <ele>30.3</ele>
        <time>2020-09-03T06:55:22Z</time>
      </trkpt>
      <trkpt lat="45.15102" lon="-0.56098">
        <ele>30.3</ele>
        <time>2020-09-03T06:55:23Z</time>
      </trkpt>
      <trkpt lat="45.15105" lon="-0.56097">
        <ele>30.3</ele>
        <time>2020-09-03T06:55:25Z</time>
      </trkpt>
      <trkpt lat="45.15106" lon="-0.56096">
        <ele>30.3</ele>
        <time>2020-09-03T06:55:26Z</time>
      </trkpt>
      <trkpt lat="45.15108" lon="-0.56095">
        <ele>30.3</ele>
        <time>2020-09-03T06:55:28Z</time>
      </trkpt>
      <trkpt lat="45.1511" lon="-0.56094">
        <ele>30.3</ele>
        <time>2020-09-03T06:55:30Z</time>
      </trkpt>
      <trkpt lat="45.15111" lon="-0.56093">
        <ele>30.3</ele>
        <time>2020-09-03T06:55:31Z</time>
      </trkpt>
      <trkpt lat="45.15112" lon="-0.56092">
        <ele>30.3</ele>
        <time>2020-09-03T06:55:32Z</time>
      </trkpt>
      <trkpt lat="45.15114" lon="-0.56091">
        <ele>30.3</ele>
        <time>2020-09-03T06:55:34Z</time>
      </trkpt>
      <trkpt lat="45.15116" lon="-0.5609">
        <ele>30.3</ele>
        <time>2020-09-03T06:55:35Z</time>
      </trkpt>
      <trkpt lat="45.15117" lon="-0.56089">
        <ele>30.2</ele>
        <time>2020-09-03T06:55:36Z</time>
      </trkpt>
      <trkpt lat="45.1512" lon="-0.56087">
        <ele>30.2</ele>
        <time>2020-09-03T06:55:38Z</time>
      </trkpt>
      <trkpt lat="45.15121" lon="-0.56087">
        <ele>30.2</ele>
        <time>2020-09-03T06:55:39Z</time>
      </trkpt>
      <trkpt lat="45.15123" lon="-0.56086">
        <ele>30.2</ele>
        <time>2020-09-03T06:55:40Z</time>
      </trkpt>
      <trkpt lat="45.15124" lon="-0.56085">
        <ele>30.2</ele>
        <time>2020-09-03T06:55:42Z</time>
      </trkpt>
      <trkpt lat="45.15126" lon="-0.56084">
        <ele>30.2</ele>
        <time>2020-09-03T06:55:43Z</time>
      </trkpt>
      <trkpt lat="45.15127" lon="-0.56083">
        <ele>30.2</ele>
        <time>2020-09-03T06:55:45Z</time>
      </trkpt>
      <trkpt lat="45.15128" lon="-0.56083">
        <ele>30.2</ele>
        <time>2020-09-03T06:55:46Z</time>
      </trkpt>
      <trkpt lat="45.1513" lon="-0.56081">
        <ele>30.2</ele>
        <time>2020-09-03T06:55:47Z</time>
      </trkpt>
      <trkpt lat="45.15131" lon="-0.56079">
        <ele>30.2</ele>
        <time>2020-09-03T06:55:49Z</time>
      </trkpt>
      <trkpt lat="45.15132" lon="-0.56078">
        <ele>30.2</ele>
        <time>2020-09-03T06:55:50Z</time>
      </trkpt>
      <trkpt lat="45.15134" lon="-0.56077">
        <ele>30.1</ele>
        <time>2020-09-03T06:55:51Z</time>
      </trkpt>
      <trkpt lat="45.15135" lon="-0.56076">
        <ele>30.1</ele>
        <time>2020-09-03T06:55:53Z</time>
      </trkpt>
      <trkpt lat="45.15137" lon="-0.56074">
        <ele>30.1</ele>
        <time>2020-09-03T06:55:54Z</time>
      </trkpt>
      <trkpt lat="45.1514" lon="-0.56073">
        <ele>30.1</ele>
        <time>2020-09-03T06:55:56Z</time>
      </trkpt>
      <trkpt lat="45.15141" lon="-0.56072">
        <ele>30.1</ele>
        <time>2020-09-03T06:55:57Z</time>
      </trkpt>
      <trkpt lat="45.15143" lon="-0.5607">
        <ele>30.1</ele>
        <time>2020-09-03T06:55:59Z</time>
      </trkpt>
      <trkpt lat="45.15145" lon="-0.56069">
        <ele>30.1</ele>
        <time>2020-09-03T06:56:01Z</time>
      </trkpt>
      <trkpt lat="45.15146" lon="-0.56069">
        <ele>30.1</ele>
        <time>2020-09-03T06:56:02Z</time>
      </trkpt>
      <trkpt lat="45.15149" lon="-0.56066">
        <ele>30.1</ele>
        <time>2020-09-03T06:56:04Z</time>
      </trkpt>
      <trkpt lat="45.1515" lon="-0.56066">
        <ele>30</ele>
        <time>2020-09-03T06:56:05Z</time>
      </trkpt>
      <trkpt lat="45.15151" lon="-0.56065">
        <ele>30</ele>
        <time>2020-09-03T06:56:06Z</time>
      </trkpt>
      <trkpt lat="45.15153" lon="-0.56064">
        <ele>30</ele>
        <time>2020-09-03T06:56:08Z</time>
      </trkpt>
      <trkpt lat="45.15156" lon="-0.56061">
        <ele>30</ele>
        <time>2020-09-03T06:56:10Z</time>
      </trkpt>
      <trkpt lat="45.15157" lon="-0.56061">
        <ele>30</ele>
        <time>2020-09-03T06:56:11Z</time>
      </trkpt>
      <trkpt lat="45.15159" lon="-0.56059">
        <ele>30</ele>
        <time>2020-09-03T06:56:12Z</time>
      </trkpt>
      <trkpt lat="45.15161" lon="-0.56057">
        <ele>30</ele>
        <time>2020-09-03T06:56:14Z</time>
      </trkpt>
      <trkpt lat="45.15162" lon="-0.56057">
        <ele>30</ele>
        <time>2020-09-03T06:56:15Z</time>
      </trkpt>
      <trkpt lat="45.15164" lon="-0.56055">
        <ele>30</ele>
        <time>2020-09-03T06:56:16Z</time>
      </trkpt>
      <trkpt lat="45.15166" lon="-0.56054">
        <ele>30</ele>
        <time>2020-09-03T06:56:18Z</time>
      </trkpt>
      <trkpt lat="45.15166" lon="-0.56054">
        <ele>30</ele>
        <time>2020-09-03T06:56:19Z</time>
      </trkpt>
      <trkpt lat="45.15168" lon="-0.56052">
        <ele>29.9</ele>
        <time>2020-09-03T06:56:20Z</time>
      </trkpt>
      <trkpt lat="45.1517" lon="-0.56052">
        <ele>29.9</ele>
        <time>2020-09-03T06:56:22Z</time>
      </trkpt>
      <trkpt lat="45.15172" lon="-0.56051">
        <ele>29.9</ele>
        <time>2020-09-03T06:56:23Z</time>
      </trkpt>
      <trkpt lat="45.15174" lon="-0.56049">
        <ele>29.9</ele>
        <time>2020-09-03T06:56:25Z</time>
      </trkpt>
      <trkpt lat="45.15174" lon="-0.56049">
        <ele>29.9</ele>
        <time>2020-09-03T06:56:26Z</time>
      </trkpt>
      <trkpt lat="45.15176" lon="-0.56048">
        <ele>29.9</ele>
        <time>2020-09-03T06:56:27Z</time>
      </trkpt>
      <trkpt lat="45.15177" lon="-0.56047">
        <ele>29.8</ele>
        <time>2020-09-03T06:56:29Z</time>
      </trkpt>
      <trkpt lat="45.1518" lon="-0.56045">
        <ele>29.8</ele>
        <time>2020-09-03T06:56:31Z</time>
      </trkpt>
      <trkpt lat="45.15181" lon="-0.56044">
        <ele>29.8</ele>
        <time>2020-09-03T06:56:32Z</time>
      </trkpt>
      <trkpt lat="45.15183" lon="-0.56043">
        <ele>29.8</ele>
        <time>2020-09-03T06:56:33Z</time>
      </trkpt>
      <trkpt lat="45.15186" lon="-0.56041">
        <ele>29.7</ele>
        <time>2020-09-03T06:56:35Z</time>
      </trkpt>
      <trkpt lat="45.15186" lon="-0.56041">
        <ele>29.7</ele>
        <time>2020-09-03T06:56:36Z</time>
      </trkpt>
      <trkpt lat="45.15188" lon="-0.56039">
        <ele>29.7</ele>
        <time>2020-09-03T06:56:37Z</time>
      </trkpt>
      <trkpt lat="45.15189" lon="-0.56039">
        <ele>29.7</ele>
        <time>2020-09-03T06:56:38Z</time>
      </trkpt>
      <trkpt lat="45.15191" lon="-0.56037">
        <ele>29.6</ele>
        <time>2020-09-03T06:56:39Z</time>
      </trkpt>
      <trkpt lat="45.15191" lon="-0.56036">
        <ele>29.6</ele>
        <time>2020-09-03T06:56:41Z</time>
      </trkpt>
      <trkpt lat="45.15192" lon="-0.56036">
        <ele>29.6</ele>
        <time>2020-09-03T06:56:42Z</time>
      </trkpt>
      <trkpt lat="45.15193" lon="-0.56035">
        <ele>29.6</ele>
        <time>2020-09-03T06:56:43Z</time>
      </trkpt>
      <trkpt lat="45.15194" lon="-0.56034">
        <ele>29.6</ele>
        <time>2020-09-03T06:56:44Z</time>
      </trkpt>
      <trkpt lat="45.15195" lon="-0.56033">
        <ele>29.6</ele>
        <time>2020-09-03T06:56:46Z</time>
      </trkpt>
      <trkpt lat="45.15196" lon="-0.56032">
        <ele>29.6</ele>
        <time>2020-09-03T06:56:47Z</time>
      </trkpt>
      <trkpt lat="45.15197" lon="-0.56031">
        <ele>29.6</ele>
        <time>2020-09-03T06:56:48Z</time>
      </trkpt>
      <trkpt lat="45.15198" lon="-0.5603">
        <ele>29.6</ele>
        <time>2020-09-03T06:56:49Z</time>
      </trkpt>
      <trkpt lat="45.152" lon="-0.56029">
        <ele>29.5</ele>
        <time>2020-09-03T06:56:50Z</time>
      </trkpt>
      <trkpt lat="45.15202" lon="-0.56028">
        <ele>29.5</ele>
        <time>2020-09-03T06:56:51Z</time>
      </trkpt>
      <trkpt lat="45.15203" lon="-0.56027">
        <ele>29.5</ele>
        <time>2020-09-03T06:56:53Z</time>
      </trkpt>
      <trkpt lat="45.15204" lon="-0.56026">
        <ele>29.5</ele>
        <time>2020-09-03T06:56:54Z</time>
      </trkpt>
      <trkpt lat="45.15206" lon="-0.56025">
        <ele>29.5</ele>
        <time>2020-09-03T06:56:55Z</time>
      </trkpt>
      <trkpt lat="45.15208" lon="-0.56024">
        <ele>29.4</ele>
        <time>2020-09-03T06:56:57Z</time>
      </trkpt>
      <trkpt lat="45.15209" lon="-0.56023">
        <ele>29.4</ele>
        <time>2020-09-03T06:56:58Z</time>
      </trkpt>
      <trkpt lat="45.15212" lon="-0.56021">
        <ele>29.4</ele>
        <time>2020-09-03T06:56:59Z</time>
      </trkpt>
      <trkpt lat="45.15213" lon="-0.56021">
        <ele>29.4</ele>
        <time>2020-09-03T06:57:00Z</time>
      </trkpt>
      <trkpt lat="45.15214" lon="-0.5602">
        <ele>29.4</ele>
        <time>2020-09-03T06:57:02Z</time>
      </trkpt>
      <trkpt lat="45.15216" lon="-0.56019">
        <ele>29.4</ele>
        <time>2020-09-03T06:57:03Z</time>
      </trkpt>
      <trkpt lat="45.15217" lon="-0.56019">
        <ele>29.3</ele>
        <time>2020-09-03T06:57:04Z</time>
      </trkpt>
      <trkpt lat="45.1522" lon="-0.56018">
        <ele>29.3</ele>
        <time>2020-09-03T06:57:06Z</time>
      </trkpt>
      <trkpt lat="45.15221" lon="-0.56017">
        <ele>29.3</ele>
        <time>2020-09-03T06:57:07Z</time>
      </trkpt>
      <trkpt lat="45.15223" lon="-0.56016">
        <ele>29.3</ele>
        <time>2020-09-03T06:57:08Z</time>
      </trkpt>
      <trkpt lat="45.15225" lon="-0.56014">
        <ele>29.2</ele>
        <time>2020-09-03T06:57:09Z</time>
      </trkpt>
      <trkpt lat="45.15226" lon="-0.56013">
        <ele>29.2</ele>
        <time>2020-09-03T06:57:10Z</time>
      </trkpt>
      <trkpt lat="45.15227" lon="-0.56012">
        <ele>29.2</ele>
        <time>2020-09-03T06:57:11Z</time>
      </trkpt>
      <trkpt lat="45.15228" lon="-0.56012">
        <ele>29.2</ele>
        <time>2020-09-03T06:57:12Z</time>
      </trkpt>
      <trkpt lat="45.1523" lon="-0.56011">
        <ele>29.2</ele>
        <time>2020-09-03T06:57:14Z</time>
      </trkpt>
      <trkpt lat="45.15232" lon="-0.56009">
        <ele>29.1</ele>
        <time>2020-09-03T06:57:15Z</time>
      </trkpt>
      <trkpt lat="45.15232" lon="-0.56008">
        <ele>29.1</ele>
        <time>2020-09-03T06:57:16Z</time>
      </trkpt>
      <trkpt lat="45.15234" lon="-0.56007">
        <ele>29.1</ele>
        <time>2020-09-03T06:57:17Z</time>
      </trkpt>
      <trkpt lat="45.15235" lon="-0.56006">
        <ele>29.1</ele>
        <time>2020-09-03T06:57:18Z</time>
      </trkpt>
      <trkpt lat="45.15236" lon="-0.56005">
        <ele>29.1</ele>
        <time>2020-09-03T06:57:19Z</time>
      </trkpt>
      <trkpt lat="45.15238" lon="-0.56004">
        <ele>29</ele>
        <time>2020-09-03T06:57:20Z</time>
      </trkpt>
      <trkpt lat="45.15239" lon="-0.56003">
        <ele>29</ele>
        <time>2020-09-03T06:57:22Z</time>
      </trkpt>
      <trkpt lat="45.15241" lon="-0.56002">
        <ele>29</ele>
        <time>2020-09-03T06:57:23Z</time>
      </trkpt>
      <trkpt lat="45.15243" lon="-0.56001">
        <ele>29</ele>
        <time>2020-09-03T06:57:25Z</time>
      </trkpt>
      <trkpt lat="45.15244" lon="-0.56001">
        <ele>28.9</ele>
        <time>2020-09-03T06:57:26Z</time>
      </trkpt>
      <trkpt lat="45.15246" lon="-0.55999">
        <ele>28.9</ele>
        <time>2020-09-03T06:57:27Z</time>
      </trkpt>
      <trkpt lat="45.15247" lon="-0.55999">
        <ele>28.9</ele>
        <time>2020-09-03T06:57:29Z</time>
      </trkpt>
      <trkpt lat="45.15248" lon="-0.55998">
        <ele>28.9</ele>
        <time>2020-09-03T06:57:30Z</time>
      </trkpt>
      <trkpt lat="45.15249" lon="-0.55998">
        <ele>28.9</ele>
        <time>2020-09-03T06:57:31Z</time>
      </trkpt>
      <trkpt lat="45.1525" lon="-0.55997">
        <ele>28.9</ele>
        <time>2020-09-03T06:57:32Z</time>
      </trkpt>
      <trkpt lat="45.15251" lon="-0.55997">
        <ele>28.8</ele>
        <time>2020-09-03T06:57:33Z</time>
      </trkpt>
      <trkpt lat="45.15253" lon="-0.55996">
        <ele>28.8</ele>
        <time>2020-09-03T06:57:34Z</time>
      </trkpt>
      <trkpt lat="45.15254" lon="-0.55995">
        <ele>28.8</ele>
        <time>2020-09-03T06:57:36Z</time>
      </trkpt>
      <trkpt lat="45.15255" lon="-0.55994">
        <ele>28.8</ele>
        <time>2020-09-03T06:57:37Z</time>
      </trkpt>
      <trkpt lat="45.15256" lon="-0.55993">
        <ele>28.8</ele>
        <time>2020-09-03T06:57:38Z</time>
      </trkpt>
      <trkpt lat="45.15257" lon="-0.55992">
        <ele>28.7</ele>
        <time>2020-09-03T06:57:39Z</time>
      </trkpt>
      <trkpt lat="45.15259" lon="-0.55991">
        <ele>28.7</ele>
        <time>2020-09-03T06:57:41Z</time>
      </trkpt>
      <trkpt lat="45.1526" lon="-0.5599">
        <ele>28.7</ele>
        <time>2020-09-03T06:57:42Z</time>
      </trkpt>
      <trkpt lat="45.15261" lon="-0.55989">
        <ele>28.7</ele>
        <time>2020-09-03T06:57:43Z</time>
      </trkpt>
      <trkpt lat="45.15262" lon="-0.55988">
        <ele>28.7</ele>
        <time>2020-09-03T06:57:44Z</time>
      </trkpt>
      <trkpt lat="45.15263" lon="-0.55987">
        <ele>28.6</ele>
        <time>2020-09-03T06:57:45Z</time>
      </trkpt>
      <trkpt lat="45.15264" lon="-0.55986">
        <ele>28.6</ele>
        <time>2020-09-03T06:57:46Z</time>
      </trkpt>
      <trkpt lat="45.15267" lon="-0.55984">
        <ele>28.6</ele>
        <time>2020-09-03T06:57:49Z</time>
      </trkpt>
      <trkpt lat="45.15268" lon="-0.55984">
        <ele>28.6</ele>
        <time>2020-09-03T06:57:50Z</time>
      </trkpt>
      <trkpt lat="45.1527" lon="-0.55982">
        <ele>28.6</ele>
        <time>2020-09-03T06:57:51Z</time>
      </trkpt>
      <trkpt lat="45.15271" lon="-0.55982">
        <ele>28.5</ele>
        <time>2020-09-03T06:57:52Z</time>
      </trkpt>
      <trkpt lat="45.15272" lon="-0.55981">
        <ele>28.5</ele>
        <time>2020-09-03T06:57:53Z</time>
      </trkpt>
      <trkpt lat="45.15273" lon="-0.55981">
        <ele>28.5</ele>
        <time>2020-09-03T06:57:54Z</time>
      </trkpt>
      <trkpt lat="45.15276" lon="-0.55979">
        <ele>28.5</ele>
        <time>2020-09-03T06:57:55Z</time>
      </trkpt>
      <trkpt lat="45.15277" lon="-0.55979">
        <ele>28.5</ele>
        <time>2020-09-03T06:57:57Z</time>
      </trkpt>
      <trkpt lat="45.15279" lon="-0.55978">
        <ele>28.5</ele>
        <time>2020-09-03T06:57:58Z</time>
      </trkpt>
      <trkpt lat="45.1528" lon="-0.55977">
        <ele>28.5</ele>
        <time>2020-09-03T06:57:59Z</time>
      </trkpt>
      <trkpt lat="45.15281" lon="-0.55977">
        <ele>28.5</ele>
        <time>2020-09-03T06:58:01Z</time>
      </trkpt>
      <trkpt lat="45.15283" lon="-0.55976">
        <ele>28.5</ele>
        <time>2020-09-03T06:58:02Z</time>
      </trkpt>
      <trkpt lat="45.15285" lon="-0.55975">
        <ele>28.5</ele>
        <time>2020-09-03T06:58:03Z</time>
      </trkpt>
      <trkpt lat="45.15286" lon="-0.55975">
        <ele>28.4</ele>
        <time>2020-09-03T06:58:04Z</time>
      </trkpt>
      <trkpt lat="45.15289" lon="-0.55974">
        <ele>28.4</ele>
        <time>2020-09-03T06:58:06Z</time>
      </trkpt>
      <trkpt lat="45.1529" lon="-0.55973">
        <ele>28.4</ele>
        <time>2020-09-03T06:58:07Z</time>
      </trkpt>
      <trkpt lat="45.15291" lon="-0.55973">
        <ele>28.4</ele>
        <time>2020-09-03T06:58:08Z</time>
      </trkpt>
      <trkpt lat="45.15292" lon="-0.55972">
        <ele>28.4</ele>
        <time>2020-09-03T06:58:09Z</time>
      </trkpt>
      <trkpt lat="45.15294" lon="-0.55972">
        <ele>28.4</ele>
        <time>2020-09-03T06:58:10Z</time>
      </trkpt>
      <trkpt lat="45.15295" lon="-0.55972">
        <ele>28.4</ele>
        <time>2020-09-03T06:58:12Z</time>
      </trkpt>
      <trkpt lat="45.15296" lon="-0.55972">
        <ele>28.4</ele>
        <time>2020-09-03T06:58:13Z</time>
      </trkpt>
      <trkpt lat="45.15297" lon="-0.55971">
        <ele>28.4</ele>
        <time>2020-09-03T06:58:14Z</time>
      </trkpt>
      <trkpt lat="45.15299" lon="-0.55971">
        <ele>28.4</ele>
        <time>2020-09-03T06:58:15Z</time>
      </trkpt>
      <trkpt lat="45.15301" lon="-0.55971">
        <ele>28.4</ele>
        <time>2020-09-03T06:58:17Z</time>
      </trkpt>
      <trkpt lat="45.15302" lon="-0.5597">
        <ele>28.4</ele>
        <time>2020-09-03T06:58:18Z</time>
      </trkpt>
      <trkpt lat="45.15303" lon="-0.5597">
        <ele>28.4</ele>
        <time>2020-09-03T06:58:19Z</time>
      </trkpt>
      <trkpt lat="45.15305" lon="-0.55971">
        <ele>28.4</ele>
        <time>2020-09-03T06:58:20Z</time>
      </trkpt>
      <trkpt lat="45.15307" lon="-0.55971">
        <ele>28.4</ele>
        <time>2020-09-03T06:58:22Z</time>
      </trkpt>
      <trkpt lat="45.15308" lon="-0.55971">
        <ele>28.4</ele>
        <time>2020-09-03T06:58:23Z</time>
      </trkpt>
      <trkpt lat="45.15308" lon="-0.55972">
        <ele>28.4</ele>
        <time>2020-09-03T06:58:25Z</time>
      </trkpt>
      <trkpt lat="45.15308" lon="-0.55973">
        <ele>28.4</ele>
        <time>2020-09-03T06:58:27Z</time>
      </trkpt>
      <trkpt lat="45.15308" lon="-0.55971">
        <ele>28.4</ele>
        <time>2020-09-03T06:58:29Z</time>
      </trkpt>
      <trkpt lat="45.15307" lon="-0.55971">
        <ele>28.4</ele>
        <time>2020-09-03T06:58:30Z</time>
      </trkpt>
      <trkpt lat="45.15307" lon="-0.5597">
        <ele>28.4</ele>
        <time>2020-09-03T06:58:31Z</time>
      </trkpt>
      <trkpt lat="45.15305" lon="-0.55972">
        <ele>28.4</ele>
        <time>2020-09-03T06:58:32Z</time>
      </trkpt>
      <trkpt lat="45.15304" lon="-0.55973">
        <ele>28.4</ele>
        <time>2020-09-03T06:58:34Z</time>
      </trkpt>
      <trkpt lat="45.15302" lon="-0.55974">
        <ele>28.4</ele>
        <time>2020-09-03T06:58:36Z</time>
      </trkpt>
      <trkpt lat="45.153" lon="-0.55974">
        <ele>28.3</ele>
        <time>2020-09-03T06:58:37Z</time>
      </trkpt>
      <trkpt lat="45.15299" lon="-0.55975">
        <ele>28.3</ele>
        <time>2020-09-03T06:58:39Z</time>
      </trkpt>
      <trkpt lat="45.15297" lon="-0.55975">
        <ele>28.3</ele>
        <time>2020-09-03T06:58:40Z</time>
      </trkpt>
      <trkpt lat="45.15296" lon="-0.55976">
        <ele>28.3</ele>
        <time>2020-09-03T06:58:41Z</time>
      </trkpt>
      <trkpt lat="45.15294" lon="-0.55976">
        <ele>28.3</ele>
        <time>2020-09-03T06:58:42Z</time>
      </trkpt>
      <trkpt lat="45.15293" lon="-0.55976">
        <ele>28.3</ele>
        <time>2020-09-03T06:58:44Z</time>
      </trkpt>
      <trkpt lat="45.15291" lon="-0.55976">
        <ele>28.3</ele>
        <time>2020-09-03T06:58:45Z</time>
      </trkpt>
      <trkpt lat="45.1529" lon="-0.55977">
        <ele>28.3</ele>
        <time>2020-09-03T06:58:46Z</time>
      </trkpt>
      <trkpt lat="45.15289" lon="-0.55977">
        <ele>28.3</ele>
        <time>2020-09-03T06:58:47Z</time>
      </trkpt>
      <trkpt lat="45.15288" lon="-0.55978">
        <ele>28.3</ele>
        <time>2020-09-03T06:58:48Z</time>
      </trkpt>
      <trkpt lat="45.15286" lon="-0.55978">
        <ele>28.3</ele>
        <time>2020-09-03T06:58:49Z</time>
      </trkpt>
      <trkpt lat="45.15286" lon="-0.55981">
        <ele>28.3</ele>
        <time>2020-09-03T06:58:51Z</time>
      </trkpt>
      <trkpt lat="45.15286" lon="-0.5598">
        <ele>28.3</ele>
        <time>2020-09-03T06:58:53Z</time>
      </trkpt>
      <trkpt lat="45.15286" lon="-0.55979">
        <ele>28.3</ele>
        <time>2020-09-03T06:58:54Z</time>
      </trkpt>
      <trkpt lat="45.15286" lon="-0.55978">
        <ele>28.3</ele>
        <time>2020-09-03T06:58:56Z</time>
      </trkpt>
      <trkpt lat="45.15286" lon="-0.55978">
        <ele>28.3</ele>
        <time>2020-09-03T06:58:57Z</time>
      </trkpt>
      <trkpt lat="45.15286" lon="-0.55978">
        <ele>28.3</ele>
        <time>2020-09-03T06:58:58Z</time>
      </trkpt>
      <trkpt lat="45.15286" lon="-0.55977">
        <ele>28.3</ele>
        <time>2020-09-03T06:58:59Z</time>
      </trkpt>
      <trkpt lat="45.15287" lon="-0.55977">
        <ele>28.3</ele>
        <time>2020-09-03T06:59:01Z</time>
      </trkpt>
      <trkpt lat="45.15287" lon="-0.55976">
        <ele>28.3</ele>
        <time>2020-09-03T06:59:02Z</time>
      </trkpt>
      <trkpt lat="45.15287" lon="-0.55976">
        <ele>28.2</ele>
        <time>2020-09-03T06:59:03Z</time>
      </trkpt>
      <trkpt lat="45.15287" lon="-0.55976">
        <ele>28.2</ele>
        <time>2020-09-03T06:59:05Z</time>
      </trkpt>
      <trkpt lat="45.15287" lon="-0.55975">
        <ele>28.2</ele>
        <time>2020-09-03T06:59:06Z</time>
      </trkpt>
      <trkpt lat="45.15288" lon="-0.55974">
        <ele>28.2</ele>
        <time>2020-09-03T06:59:07Z</time>
      </trkpt>
      <trkpt lat="45.1529" lon="-0.55973">
        <ele>28.2</ele>
        <time>2020-09-03T06:59:09Z</time>
      </trkpt>
      <trkpt lat="45.15291" lon="-0.55972">
        <ele>28.2</ele>
        <time>2020-09-03T06:59:10Z</time>
      </trkpt>
      <trkpt lat="45.15292" lon="-0.55971">
        <ele>28.2</ele>
        <time>2020-09-03T06:59:11Z</time>
      </trkpt>
      <trkpt lat="45.15293" lon="-0.55971">
        <ele>28.2</ele>
        <time>2020-09-03T06:59:12Z</time>
      </trkpt>
      <trkpt lat="45.15294" lon="-0.5597">
        <ele>28.1</ele>
        <time>2020-09-03T06:59:13Z</time>
      </trkpt>
      <trkpt lat="45.15296" lon="-0.55969">
        <ele>28.1</ele>
        <time>2020-09-03T06:59:15Z</time>
      </trkpt>
      <trkpt lat="45.15298" lon="-0.55968">
        <ele>28.1</ele>
        <time>2020-09-03T06:59:16Z</time>
      </trkpt>
      <trkpt lat="45.153" lon="-0.55967">
        <ele>28.1</ele>
        <time>2020-09-03T06:59:18Z</time>
      </trkpt>
      <trkpt lat="45.15302" lon="-0.55968">
        <ele>28</ele>
        <time>2020-09-03T06:59:20Z</time>
      </trkpt>
      <trkpt lat="45.15302" lon="-0.55968">
        <ele>28</ele>
        <time>2020-09-03T06:59:22Z</time>
      </trkpt>
      <trkpt lat="45.15302" lon="-0.55968">
        <ele>28</ele>
        <time>2020-09-03T06:59:23Z</time>
      </trkpt>
      <trkpt lat="45.15303" lon="-0.55968">
        <ele>28</ele>
        <time>2020-09-03T06:59:25Z</time>
      </trkpt>
      <trkpt lat="45.15303" lon="-0.55968">
        <ele>28</ele>
        <time>2020-09-03T06:59:27Z</time>
      </trkpt>
      <trkpt lat="45.15303" lon="-0.55968">
        <ele>28</ele>
        <time>2020-09-03T06:59:28Z</time>
      </trkpt>
      <trkpt lat="45.15303" lon="-0.55968">
        <ele>28</ele>
        <time>2020-09-03T06:59:29Z</time>
      </trkpt>
      <trkpt lat="45.15304" lon="-0.55968">
        <ele>28</ele>
        <time>2020-09-03T06:59:30Z</time>
      </trkpt>
      <trkpt lat="45.15304" lon="-0.55968">
        <ele>28</ele>
        <time>2020-09-03T06:59:31Z</time>
      </trkpt>
      <trkpt lat="45.15304" lon="-0.55968">
        <ele>28</ele>
        <time>2020-09-03T06:59:33Z</time>
      </trkpt>
      <trkpt lat="45.15304" lon="-0.55968">
        <ele>28</ele>
        <time>2020-09-03T06:59:34Z</time>
      </trkpt>
      <trkpt lat="45.15304" lon="-0.55968">
        <ele>28</ele>
        <time>2020-09-03T06:59:35Z</time>
      </trkpt>
      <trkpt lat="45.15305" lon="-0.55968">
        <ele>28</ele>
        <time>2020-09-03T06:59:37Z</time>
      </trkpt>
      <trkpt lat="45.15305" lon="-0.55968">
        <ele>28</ele>
        <time>2020-09-03T06:59:38Z</time>
      </trkpt>
      <trkpt lat="45.15305" lon="-0.55968">
        <ele>28</ele>
        <time>2020-09-03T06:59:40Z</time>
      </trkpt>
      <trkpt lat="45.15305" lon="-0.55968">
        <ele>28</ele>
        <time>2020-09-03T06:59:41Z</time>
      </trkpt>
      <trkpt lat="45.15306" lon="-0.55968">
        <ele>28</ele>
        <time>2020-09-03T06:59:43Z</time>
      </trkpt>
      <trkpt lat="45.15306" lon="-0.55968">
        <ele>28</ele>
        <time>2020-09-03T06:59:44Z</time>
      </trkpt>
      <trkpt lat="45.15306" lon="-0.55968">
        <ele>28</ele>
        <time>2020-09-03T06:59:45Z</time>
      </trkpt>
      <trkpt lat="45.15306" lon="-0.55969">
        <ele>28</ele>
        <time>2020-09-03T06:59:47Z</time>
      </trkpt>
      <trkpt lat="45.15306" lon="-0.55969">
        <ele>28</ele>
        <time>2020-09-03T06:59:49Z</time>
      </trkpt>
      <trkpt lat="45.15307" lon="-0.55969">
        <ele>28</ele>
        <time>2020-09-03T06:59:51Z</time>
      </trkpt>
      <trkpt lat="45.15307" lon="-0.55969">
        <ele>28</ele>
        <time>2020-09-03T06:59:52Z</time>
      </trkpt>
      <trkpt lat="45.15307" lon="-0.55969">
        <ele>28</ele>
        <time>2020-09-03T06:59:54Z</time>
      </trkpt>
      <trkpt lat="45.15307" lon="-0.55969">
        <ele>28</ele>
        <time>2020-09-03T06:59:55Z</time>
      </trkpt>
      <trkpt lat="45.15307" lon="-0.55969">
        <ele>28</ele>
        <time>2020-09-03T06:59:56Z</time>
      </trkpt>
      <trkpt lat="45.15309" lon="-0.55969">
        <ele>28</ele>
        <time>2020-09-03T06:59:57Z</time>
      </trkpt>
      <trkpt lat="45.15311" lon="-0.5597">
        <ele>28</ele>
        <time>2020-09-03T06:59:59Z</time>
      </trkpt>
      <trkpt lat="45.15314" lon="-0.5597">
        <ele>28</ele>
        <time>2020-09-03T07:00:00Z</time>
      </trkpt>
      <trkpt lat="45.15316" lon="-0.55971">
        <ele>27.9</ele>
        <time>2020-09-03T07:00:01Z</time>
      </trkpt>
      <trkpt lat="45.15317" lon="-0.55971">
        <ele>27.9</ele>
        <time>2020-09-03T07:00:02Z</time>
      </trkpt>
      <trkpt lat="45.15318" lon="-0.55972">
        <ele>27.9</ele>
        <time>2020-09-03T07:00:03Z</time>
      </trkpt>
      <trkpt lat="45.15321" lon="-0.55973">
        <ele>27.9</ele>
        <time>2020-09-03T07:00:05Z</time>
      </trkpt>
      <trkpt lat="45.15323" lon="-0.55973">
        <ele>27.9</ele>
        <time>2020-09-03T07:00:06Z</time>
      </trkpt>
      <trkpt lat="45.15324" lon="-0.55974">
        <ele>27.9</ele>
        <time>2020-09-03T07:00:07Z</time>
      </trkpt>
      <trkpt lat="45.15325" lon="-0.55974">
        <ele>27.9</ele>
        <time>2020-09-03T07:00:09Z</time>
      </trkpt>
      <trkpt lat="45.15328" lon="-0.55976">
        <ele>27.9</ele>
        <time>2020-09-03T07:00:11Z</time>
      </trkpt>
      <trkpt lat="45.15329" lon="-0.55977">
        <ele>27.9</ele>
        <time>2020-09-03T07:00:12Z</time>
      </trkpt>
      <trkpt lat="45.15331" lon="-0.55978">
        <ele>27.9</ele>
        <time>2020-09-03T07:00:14Z</time>
      </trkpt>
      <trkpt lat="45.15333" lon="-0.55979">
        <ele>27.9</ele>
        <time>2020-09-03T07:00:15Z</time>
      </trkpt>
      <trkpt lat="45.15335" lon="-0.55979">
        <ele>27.9</ele>
        <time>2020-09-03T07:00:16Z</time>
      </trkpt>
      <trkpt lat="45.15337" lon="-0.5598">
        <ele>27.9</ele>
        <time>2020-09-03T07:00:17Z</time>
      </trkpt>
      <trkpt lat="45.15338" lon="-0.55981">
        <ele>27.9</ele>
        <time>2020-09-03T07:00:19Z</time>
      </trkpt>
      <trkpt lat="45.1534" lon="-0.55982">
        <ele>27.9</ele>
        <time>2020-09-03T07:00:20Z</time>
      </trkpt>
      <trkpt lat="45.15342" lon="-0.55983">
        <ele>27.9</ele>
        <time>2020-09-03T07:00:21Z</time>
      </trkpt>
      <trkpt lat="45.15342" lon="-0.55984">
        <ele>27.9</ele>
        <time>2020-09-03T07:00:23Z</time>
      </trkpt>
      <trkpt lat="45.15343" lon="-0.55984">
        <ele>27.9</ele>
        <time>2020-09-03T07:00:24Z</time>
      </trkpt>
      <trkpt lat="45.15346" lon="-0.55986">
        <ele>27.9</ele>
        <time>2020-09-03T07:00:25Z</time>
      </trkpt>
      <trkpt lat="45.15347" lon="-0.55986">
        <ele>27.8</ele>
        <time>2020-09-03T07:00:26Z</time>
      </trkpt>
      <trkpt lat="45.15348" lon="-0.55986">
        <ele>27.8</ele>
        <time>2020-09-03T07:00:28Z</time>
      </trkpt>
      <trkpt lat="45.15349" lon="-0.55987">
        <ele>27.8</ele>
        <time>2020-09-03T07:00:29Z</time>
      </trkpt>
      <trkpt lat="45.15353" lon="-0.55989">
        <ele>27.8</ele>
        <time>2020-09-03T07:00:30Z</time>
      </trkpt>
      <trkpt lat="45.15353" lon="-0.5599">
        <ele>27.8</ele>
        <time>2020-09-03T07:00:32Z</time>
      </trkpt>
      <trkpt lat="45.15354" lon="-0.5599">
        <ele>27.8</ele>
        <time>2020-09-03T07:00:33Z</time>
      </trkpt>
      <trkpt lat="45.15355" lon="-0.55991">
        <ele>27.8</ele>
        <time>2020-09-03T07:00:34Z</time>
      </trkpt>
      <trkpt lat="45.15356" lon="-0.55992">
        <ele>27.7</ele>
        <time>2020-09-03T07:00:35Z</time>
      </trkpt>
      <trkpt lat="45.15356" lon="-0.55992">
        <ele>27.7</ele>
        <time>2020-09-03T07:00:36Z</time>
      </trkpt>
      <trkpt lat="45.15357" lon="-0.55993">
        <ele>27.7</ele>
        <time>2020-09-03T07:00:37Z</time>
      </trkpt>
      <trkpt lat="45.15358" lon="-0.55994">
        <ele>27.7</ele>
        <time>2020-09-03T07:00:38Z</time>
      </trkpt>
      <trkpt lat="45.15359" lon="-0.55995">
        <ele>27.7</ele>
        <time>2020-09-03T07:00:39Z</time>
      </trkpt>
      <trkpt lat="45.15361" lon="-0.55996">
        <ele>27.7</ele>
        <time>2020-09-03T07:00:40Z</time>
      </trkpt>
      <trkpt lat="45.15361" lon="-0.55996">
        <ele>27.7</ele>
        <time>2020-09-03T07:00:41Z</time>
      </trkpt>
      <trkpt lat="45.15363" lon="-0.55997">
        <ele>27.7</ele>
        <time>2020-09-03T07:00:42Z</time>
      </trkpt>
      <trkpt lat="45.15364" lon="-0.55997">
        <ele>27.6</ele>
        <time>2020-09-03T07:00:43Z</time>
      </trkpt>
      <trkpt lat="45.15365" lon="-0.55998">
        <ele>27.6</ele>
        <time>2020-09-03T07:00:44Z</time>
      </trkpt>
      <trkpt lat="45.15367" lon="-0.55999">
        <ele>27.6</ele>
        <time>2020-09-03T07:00:45Z</time>
      </trkpt>
      <trkpt lat="45.15368" lon="-0.56">
        <ele>27.6</ele>
        <time>2020-09-03T07:00:46Z</time>
      </trkpt>
      <trkpt lat="45.15368" lon="-0.56">
        <ele>27.6</ele>
        <time>2020-09-03T07:00:48Z</time>
      </trkpt>
      <trkpt lat="45.1537" lon="-0.56002">
        <ele>27.6</ele>
        <time>2020-09-03T07:00:50Z</time>
      </trkpt>
      <trkpt lat="45.15372" lon="-0.56003">
        <ele>27.6</ele>
        <time>2020-09-03T07:00:51Z</time>
      </trkpt>
      <trkpt lat="45.15373" lon="-0.56003">
        <ele>27.6</ele>
        <time>2020-09-03T07:00:52Z</time>
      </trkpt>
      <trkpt lat="45.15374" lon="-0.56005">
        <ele>27.6</ele>
        <time>2020-09-03T07:00:54Z</time>
      </trkpt>
      <trkpt lat="45.15375" lon="-0.56005">
        <ele>27.6</ele>
        <time>2020-09-03T07:00:55Z</time>
      </trkpt>
      <trkpt lat="45.15377" lon="-0.56006">
        <ele>27.5</ele>
        <time>2020-09-03T07:00:56Z</time>
      </trkpt>
      <trkpt lat="45.15379" lon="-0.56007">
        <ele>27.5</ele>
        <time>2020-09-03T07:00:58Z</time>
      </trkpt>
      <trkpt lat="45.1538" lon="-0.56009">
        <ele>27.5</ele>
        <time>2020-09-03T07:00:59Z</time>
      </trkpt>
      <trkpt lat="45.15382" lon="-0.56009">
        <ele>27.5</ele>
        <time>2020-09-03T07:01:00Z</time>
      </trkpt>
      <trkpt lat="45.15383" lon="-0.5601">
        <ele>27.5</ele>
        <time>2020-09-03T07:01:01Z</time>
      </trkpt>
      <trkpt lat="45.15384" lon="-0.5601">
        <ele>27.5</ele>
        <time>2020-09-03T07:01:02Z</time>
      </trkpt>
      <trkpt lat="45.15385" lon="-0.56011">
        <ele>27.4</ele>
        <time>2020-09-03T07:01:04Z</time>
      </trkpt>
      <trkpt lat="45.15388" lon="-0.56012">
        <ele>27.4</ele>
        <time>2020-09-03T07:01:06Z</time>
      </trkpt>
      <trkpt lat="45.1539" lon="-0.56014">
        <ele>27.4</ele>
        <time>2020-09-03T07:01:07Z</time>
      </trkpt>
      <trkpt lat="45.15392" lon="-0.56014">
        <ele>27.3</ele>
        <time>2020-09-03T07:01:09Z</time>
      </trkpt>
      <trkpt lat="45.15395" lon="-0.56016">
        <ele>27.3</ele>
        <time>2020-09-03T07:01:11Z</time>
      </trkpt>
      <trkpt lat="45.15396" lon="-0.56017">
        <ele>27.2</ele>
        <time>2020-09-03T07:01:12Z</time>
      </trkpt>
      <trkpt lat="45.15397" lon="-0.56018">
        <ele>27.2</ele>
        <time>2020-09-03T07:01:13Z</time>
      </trkpt>
      <trkpt lat="45.15398" lon="-0.56018">
        <ele>27.2</ele>
        <time>2020-09-03T07:01:14Z</time>
      </trkpt>
      <trkpt lat="45.15401" lon="-0.5602">
        <ele>27.1</ele>
        <time>2020-09-03T07:01:15Z</time>
      </trkpt>
      <trkpt lat="45.15402" lon="-0.5602">
        <ele>27.1</ele>
        <time>2020-09-03T07:01:17Z</time>
      </trkpt>
      <trkpt lat="45.15403" lon="-0.56021">
        <ele>27.1</ele>
        <time>2020-09-03T07:01:18Z</time>
      </trkpt>
      <trkpt lat="45.15404" lon="-0.56021">
        <ele>27.1</ele>
        <time>2020-09-03T07:01:19Z</time>
      </trkpt>
      <trkpt lat="45.15405" lon="-0.56022">
        <ele>27.1</ele>
        <time>2020-09-03T07:01:20Z</time>
      </trkpt>
      <trkpt lat="45.15407" lon="-0.56023">
        <ele>27</ele>
        <time>2020-09-03T07:01:21Z</time>
      </trkpt>
      <trkpt lat="45.15408" lon="-0.56023">
        <ele>27</ele>
        <time>2020-09-03T07:01:22Z</time>
      </trkpt>
      <trkpt lat="45.15409" lon="-0.56024">
        <ele>27</ele>
        <time>2020-09-03T07:01:24Z</time>
      </trkpt>
      <trkpt lat="45.1541" lon="-0.56025">
        <ele>27</ele>
        <time>2020-09-03T07:01:25Z</time>
      </trkpt>
      <trkpt lat="45.15412" lon="-0.56026">
        <ele>26.9</ele>
        <time>2020-09-03T07:01:26Z</time>
      </trkpt>
      <trkpt lat="45.15413" lon="-0.56027">
        <ele>26.9</ele>
        <time>2020-09-03T07:01:27Z</time>
      </trkpt>
      <trkpt lat="45.15414" lon="-0.56028">
        <ele>26.9</ele>
        <time>2020-09-03T07:01:28Z</time>
      </trkpt>
      <trkpt lat="45.15414" lon="-0.56028">
        <ele>26.9</ele>
        <time>2020-09-03T07:01:29Z</time>
      </trkpt>
      <trkpt lat="45.15416" lon="-0.56029">
        <ele>26.9</ele>
        <time>2020-09-03T07:01:30Z</time>
      </trkpt>
      <trkpt lat="45.15417" lon="-0.5603">
        <ele>26.9</ele>
        <time>2020-09-03T07:01:31Z</time>
      </trkpt>
      <trkpt lat="45.15419" lon="-0.56031">
        <ele>26.8</ele>
        <time>2020-09-03T07:01:32Z</time>
      </trkpt>
      <trkpt lat="45.1542" lon="-0.56032">
        <ele>26.8</ele>
        <time>2020-09-03T07:01:34Z</time>
      </trkpt>
      <trkpt lat="45.15421" lon="-0.56032">
        <ele>26.8</ele>
        <time>2020-09-03T07:01:35Z</time>
      </trkpt>
      <trkpt lat="45.15423" lon="-0.56034">
        <ele>26.8</ele>
        <time>2020-09-03T07:01:36Z</time>
      </trkpt>
      <trkpt lat="45.15423" lon="-0.56034">
        <ele>26.8</ele>
        <time>2020-09-03T07:01:37Z</time>
      </trkpt>
      <trkpt lat="45.15424" lon="-0.56035">
        <ele>26.7</ele>
        <time>2020-09-03T07:01:38Z</time>
      </trkpt>
      <trkpt lat="45.15425" lon="-0.56035">
        <ele>26.7</ele>
        <time>2020-09-03T07:01:39Z</time>
      </trkpt>
      <trkpt lat="45.15427" lon="-0.56036">
        <ele>26.7</ele>
        <time>2020-09-03T07:01:41Z</time>
      </trkpt>
      <trkpt lat="45.15429" lon="-0.56037">
        <ele>26.7</ele>
        <time>2020-09-03T07:01:42Z</time>
      </trkpt>
      <trkpt lat="45.1543" lon="-0.56038">
        <ele>26.6</ele>
        <time>2020-09-03T07:01:43Z</time>
      </trkpt>
      <trkpt lat="45.15432" lon="-0.56039">
        <ele>26.6</ele>
        <time>2020-09-03T07:01:44Z</time>
      </trkpt>
      <trkpt lat="45.15433" lon="-0.56039">
        <ele>26.6</ele>
        <time>2020-09-03T07:01:46Z</time>
      </trkpt>
      <trkpt lat="45.15434" lon="-0.5604">
        <ele>26.5</ele>
        <time>2020-09-03T07:01:47Z</time>
      </trkpt>
      <trkpt lat="45.15436" lon="-0.5604">
        <ele>26.5</ele>
        <time>2020-09-03T07:01:49Z</time>
      </trkpt>
      <trkpt lat="45.15437" lon="-0.56041">
        <ele>26.5</ele>
        <time>2020-09-03T07:01:50Z</time>
      </trkpt>
      <trkpt lat="45.15438" lon="-0.56042">
        <ele>26.4</ele>
        <time>2020-09-03T07:01:51Z</time>
      </trkpt>
      <trkpt lat="45.15439" lon="-0.56042">
        <ele>26.4</ele>
        <time>2020-09-03T07:01:52Z</time>
      </trkpt>
      <trkpt lat="45.1544" lon="-0.56043">
        <ele>26.4</ele>
        <time>2020-09-03T07:01:54Z</time>
      </trkpt>
      <trkpt lat="45.15442" lon="-0.56044">
        <ele>26.3</ele>
        <time>2020-09-03T07:01:55Z</time>
      </trkpt>
      <trkpt lat="45.15444" lon="-0.56045">
        <ele>26.3</ele>
        <time>2020-09-03T07:01:56Z</time>
      </trkpt>
      <trkpt lat="45.15445" lon="-0.56046">
        <ele>26.3</ele>
        <time>2020-09-03T07:01:57Z</time>
      </trkpt>
      <trkpt lat="45.15446" lon="-0.56046">
        <ele>26.2</ele>
        <time>2020-09-03T07:01:58Z</time>
      </trkpt>
      <trkpt lat="45.15448" lon="-0.56047">
        <ele>26.2</ele>
        <time>2020-09-03T07:02:00Z</time>
      </trkpt>
      <trkpt lat="45.15449" lon="-0.56048">
        <ele>26.1</ele>
        <time>2020-09-03T07:02:01Z</time>
      </trkpt>
      <trkpt lat="45.1545" lon="-0.56049">
        <ele>26.1</ele>
        <time>2020-09-03T07:02:03Z</time>
      </trkpt>
      <trkpt lat="45.15452" lon="-0.5605">
        <ele>26.1</ele>
        <time>2020-09-03T07:02:04Z</time>
      </trkpt>
      <trkpt lat="45.15453" lon="-0.56051">
        <ele>26</ele>
        <time>2020-09-03T07:02:05Z</time>
      </trkpt>
      <trkpt lat="45.15454" lon="-0.56053">
        <ele>26</ele>
        <time>2020-09-03T07:02:06Z</time>
      </trkpt>
      <trkpt lat="45.15456" lon="-0.56054">
        <ele>26</ele>
        <time>2020-09-03T07:02:08Z</time>
      </trkpt>
      <trkpt lat="45.15457" lon="-0.56055">
        <ele>25.9</ele>
        <time>2020-09-03T07:02:09Z</time>
      </trkpt>
      <trkpt lat="45.15458" lon="-0.56056">
        <ele>25.9</ele>
        <time>2020-09-03T07:02:10Z</time>
      </trkpt>
      <trkpt lat="45.1546" lon="-0.56058">
        <ele>25.9</ele>
        <time>2020-09-03T07:02:11Z</time>
      </trkpt>
      <trkpt lat="45.15462" lon="-0.56059">
        <ele>25.8</ele>
        <time>2020-09-03T07:02:13Z</time>
      </trkpt>
      <trkpt lat="45.15463" lon="-0.5606">
        <ele>25.8</ele>
        <time>2020-09-03T07:02:14Z</time>
      </trkpt>
      <trkpt lat="45.15464" lon="-0.5606">
        <ele>25.8</ele>
        <time>2020-09-03T07:02:15Z</time>
      </trkpt>
      <trkpt lat="45.15466" lon="-0.56062">
        <ele>25.7</ele>
        <time>2020-09-03T07:02:16Z</time>
      </trkpt>
      <trkpt lat="45.15467" lon="-0.56063">
        <ele>25.7</ele>
        <time>2020-09-03T07:02:17Z</time>
      </trkpt>
      <trkpt lat="45.15469" lon="-0.56065">
        <ele>25.7</ele>
        <time>2020-09-03T07:02:19Z</time>
      </trkpt>
      <trkpt lat="45.1547" lon="-0.56066">
        <ele>25.6</ele>
        <time>2020-09-03T07:02:20Z</time>
      </trkpt>
      <trkpt lat="45.15471" lon="-0.56067">
        <ele>25.6</ele>
        <time>2020-09-03T07:02:21Z</time>
      </trkpt>
      <trkpt lat="45.15473" lon="-0.56068">
        <ele>25.6</ele>
        <time>2020-09-03T07:02:22Z</time>
      </trkpt>
      <trkpt lat="45.15474" lon="-0.5607">
        <ele>25.5</ele>
        <time>2020-09-03T07:02:24Z</time>
      </trkpt>
      <trkpt lat="45.15476" lon="-0.56072">
        <ele>25.5</ele>
        <time>2020-09-03T07:02:25Z</time>
      </trkpt>
      <trkpt lat="45.15477" lon="-0.56072">
        <ele>25.5</ele>
        <time>2020-09-03T07:02:26Z</time>
      </trkpt>
      <trkpt lat="45.15477" lon="-0.56073">
        <ele>25.5</ele>
        <time>2020-09-03T07:02:27Z</time>
      </trkpt>
      <trkpt lat="45.15479" lon="-0.56075">
        <ele>25.4</ele>
        <time>2020-09-03T07:02:28Z</time>
      </trkpt>
      <trkpt lat="45.1548" lon="-0.56076">
        <ele>25.4</ele>
        <time>2020-09-03T07:02:29Z</time>
      </trkpt>
      <trkpt lat="45.15481" lon="-0.56077">
        <ele>25.4</ele>
        <time>2020-09-03T07:02:30Z</time>
      </trkpt>
      <trkpt lat="45.15481" lon="-0.56079">
        <ele>25.4</ele>
        <time>2020-09-03T07:02:31Z</time>
      </trkpt>
      <trkpt lat="45.15483" lon="-0.5608">
        <ele>25.3</ele>
        <time>2020-09-03T07:02:32Z</time>
      </trkpt>
      <trkpt lat="45.15485" lon="-0.56083">
        <ele>25.3</ele>
        <time>2020-09-03T07:02:34Z</time>
      </trkpt>
      <trkpt lat="45.15486" lon="-0.56084">
        <ele>25.3</ele>
        <time>2020-09-03T07:02:35Z</time>
      </trkpt>
      <trkpt lat="45.15487" lon="-0.56086">
        <ele>25.2</ele>
        <time>2020-09-03T07:02:36Z</time>
      </trkpt>
      <trkpt lat="45.15488" lon="-0.56087">
        <ele>25.2</ele>
        <time>2020-09-03T07:02:37Z</time>
      </trkpt>
      <trkpt lat="45.1549" lon="-0.56089">
        <ele>25.2</ele>
        <time>2020-09-03T07:02:38Z</time>
      </trkpt>
      <trkpt lat="45.1549" lon="-0.5609">
        <ele>25.2</ele>
        <time>2020-09-03T07:02:40Z</time>
      </trkpt>
      <trkpt lat="45.15491" lon="-0.56091">
        <ele>25.2</ele>
        <time>2020-09-03T07:02:41Z</time>
      </trkpt>
      <trkpt lat="45.15492" lon="-0.56092">
        <ele>25.1</ele>
        <time>2020-09-03T07:02:42Z</time>
      </trkpt>
      <trkpt lat="45.15493" lon="-0.56093">
        <ele>25.1</ele>
        <time>2020-09-03T07:02:44Z</time>
      </trkpt>
      <trkpt lat="45.15495" lon="-0.56095">
        <ele>25.1</ele>
        <time>2020-09-03T07:02:45Z</time>
      </trkpt>
      <trkpt lat="45.15495" lon="-0.56096">
        <ele>25</ele>
        <time>2020-09-03T07:02:46Z</time>
      </trkpt>
      <trkpt lat="45.15496" lon="-0.56098">
        <ele>25</ele>
        <time>2020-09-03T07:02:47Z</time>
      </trkpt>
      <trkpt lat="45.15498" lon="-0.56099">
        <ele>25</ele>
        <time>2020-09-03T07:02:49Z</time>
      </trkpt>
      <trkpt lat="45.15499" lon="-0.56101">
        <ele>25</ele>
        <time>2020-09-03T07:02:50Z</time>
      </trkpt>
      <trkpt lat="45.15499" lon="-0.56103">
        <ele>24.9</ele>
        <time>2020-09-03T07:02:51Z</time>
      </trkpt>
      <trkpt lat="45.155" lon="-0.56104">
        <ele>24.9</ele>
        <time>2020-09-03T07:02:52Z</time>
      </trkpt>
      <trkpt lat="45.15501" lon="-0.56106">
        <ele>24.9</ele>
        <time>2020-09-03T07:02:53Z</time>
      </trkpt>
      <trkpt lat="45.15502" lon="-0.56107">
        <ele>24.8</ele>
        <time>2020-09-03T07:02:54Z</time>
      </trkpt>
      <trkpt lat="45.15503" lon="-0.56109">
        <ele>24.8</ele>
        <time>2020-09-03T07:02:55Z</time>
      </trkpt>
      <trkpt lat="45.15505" lon="-0.56111">
        <ele>24.8</ele>
        <time>2020-09-03T07:02:57Z</time>
      </trkpt>
      <trkpt lat="45.15506" lon="-0.56112">
        <ele>24.7</ele>
        <time>2020-09-03T07:02:58Z</time>
      </trkpt>
      <trkpt lat="45.15507" lon="-0.56115">
        <ele>24.7</ele>
        <time>2020-09-03T07:02:59Z</time>
      </trkpt>
      <trkpt lat="45.15508" lon="-0.56116">
        <ele>24.7</ele>
        <time>2020-09-03T07:03:00Z</time>
      </trkpt>
      <trkpt lat="45.15509" lon="-0.56117">
        <ele>24.7</ele>
        <time>2020-09-03T07:03:01Z</time>
      </trkpt>
      <trkpt lat="45.1551" lon="-0.56119">
        <ele>24.6</ele>
        <time>2020-09-03T07:03:02Z</time>
      </trkpt>
      <trkpt lat="45.15511" lon="-0.5612">
        <ele>24.6</ele>
        <time>2020-09-03T07:03:04Z</time>
      </trkpt>
      <trkpt lat="45.15511" lon="-0.56121">
        <ele>24.6</ele>
        <time>2020-09-03T07:03:05Z</time>
      </trkpt>
      <trkpt lat="45.15512" lon="-0.56122">
        <ele>24.6</ele>
        <time>2020-09-03T07:03:06Z</time>
      </trkpt>
      <trkpt lat="45.15513" lon="-0.56123">
        <ele>24.6</ele>
        <time>2020-09-03T07:03:07Z</time>
      </trkpt>
      <trkpt lat="45.15514" lon="-0.56125">
        <ele>24.5</ele>
        <time>2020-09-03T07:03:08Z</time>
      </trkpt>
      <trkpt lat="45.15514" lon="-0.56126">
        <ele>24.5</ele>
        <time>2020-09-03T07:03:10Z</time>
      </trkpt>
      <trkpt lat="45.15515" lon="-0.56128">
        <ele>24.5</ele>
        <time>2020-09-03T07:03:11Z</time>
      </trkpt>
      <trkpt lat="45.15516" lon="-0.5613">
        <ele>24.5</ele>
        <time>2020-09-03T07:03:12Z</time>
      </trkpt>
      <trkpt lat="45.15517" lon="-0.56132">
        <ele>24.5</ele>
        <time>2020-09-03T07:03:13Z</time>
      </trkpt>
      <trkpt lat="45.15518" lon="-0.56133">
        <ele>24.5</ele>
        <time>2020-09-03T07:03:15Z</time>
      </trkpt>
      <trkpt lat="45.15518" lon="-0.56135">
        <ele>24.4</ele>
        <time>2020-09-03T07:03:16Z</time>
      </trkpt>
      <trkpt lat="45.15519" lon="-0.56137">
        <ele>24.4</ele>
        <time>2020-09-03T07:03:17Z</time>
      </trkpt>
      <trkpt lat="45.1552" lon="-0.56139">
        <ele>24.4</ele>
        <time>2020-09-03T07:03:18Z</time>
      </trkpt>
      <trkpt lat="45.15521" lon="-0.5614">
        <ele>24.4</ele>
        <time>2020-09-03T07:03:19Z</time>
      </trkpt>
      <trkpt lat="45.15522" lon="-0.56142">
        <ele>24.4</ele>
        <time>2020-09-03T07:03:20Z</time>
      </trkpt>
      <trkpt lat="45.15523" lon="-0.56143">
        <ele>24.4</ele>
        <time>2020-09-03T07:03:21Z</time>
      </trkpt>
      <trkpt lat="45.15524" lon="-0.56145">
        <ele>24.4</ele>
        <time>2020-09-03T07:03:23Z</time>
      </trkpt>
      <trkpt lat="45.15525" lon="-0.56146">
        <ele>24.4</ele>
        <time>2020-09-03T07:03:24Z</time>
      </trkpt>
      <trkpt lat="45.15526" lon="-0.56146">
        <ele>24.4</ele>
        <time>2020-09-03T07:03:25Z</time>
      </trkpt>
      <trkpt lat="45.15527" lon="-0.56148">
        <ele>24.4</ele>
        <time>2020-09-03T07:03:26Z</time>
      </trkpt>
      <trkpt lat="45.15528" lon="-0.56149">
        <ele>24.4</ele>
        <time>2020-09-03T07:03:27Z</time>
      </trkpt>
      <trkpt lat="45.15529" lon="-0.56152">
        <ele>24.4</ele>
        <time>2020-09-03T07:03:29Z</time>
      </trkpt>
      <trkpt lat="45.1553" lon="-0.56154">
        <ele>24.4</ele>
        <time>2020-09-03T07:03:30Z</time>
      </trkpt>
      <trkpt lat="45.15531" lon="-0.56155">
        <ele>24.4</ele>
        <time>2020-09-03T07:03:31Z</time>
      </trkpt>
      <trkpt lat="45.15532" lon="-0.56156">
        <ele>24.4</ele>
        <time>2020-09-03T07:03:33Z</time>
      </trkpt>
      <trkpt lat="45.15532" lon="-0.56157">
        <ele>24.4</ele>
        <time>2020-09-03T07:03:34Z</time>
      </trkpt>
      <trkpt lat="45.15533" lon="-0.56158">
        <ele>24.4</ele>
        <time>2020-09-03T07:03:35Z</time>
      </trkpt>
      <trkpt lat="45.15534" lon="-0.5616">
        <ele>24.4</ele>
        <time>2020-09-03T07:03:36Z</time>
      </trkpt>
      <trkpt lat="45.15536" lon="-0.56162">
        <ele>24.4</ele>
        <time>2020-09-03T07:03:37Z</time>
      </trkpt>
      <trkpt lat="45.15536" lon="-0.56163">
        <ele>24.4</ele>
        <time>2020-09-03T07:03:38Z</time>
      </trkpt>
      <trkpt lat="45.15537" lon="-0.56164">
        <ele>24.3</ele>
        <time>2020-09-03T07:03:39Z</time>
      </trkpt>
      <trkpt lat="45.15538" lon="-0.56165">
        <ele>24.3</ele>
        <time>2020-09-03T07:03:40Z</time>
      </trkpt>
      <trkpt lat="45.15539" lon="-0.56166">
        <ele>24.3</ele>
        <time>2020-09-03T07:03:42Z</time>
      </trkpt>
      <trkpt lat="45.15541" lon="-0.56169">
        <ele>24.3</ele>
        <time>2020-09-03T07:03:44Z</time>
      </trkpt>
      <trkpt lat="45.15543" lon="-0.56172">
        <ele>24.3</ele>
        <time>2020-09-03T07:03:45Z</time>
      </trkpt>
      <trkpt lat="45.15544" lon="-0.56174">
        <ele>24.3</ele>
        <time>2020-09-03T07:03:46Z</time>
      </trkpt>
      <trkpt lat="45.15545" lon="-0.56175">
        <ele>24.3</ele>
        <time>2020-09-03T07:03:47Z</time>
      </trkpt>
      <trkpt lat="45.15545" lon="-0.56176">
        <ele>24.3</ele>
        <time>2020-09-03T07:03:49Z</time>
      </trkpt>
      <trkpt lat="45.15546" lon="-0.56177">
        <ele>24.3</ele>
        <time>2020-09-03T07:03:50Z</time>
      </trkpt>
      <trkpt lat="45.15548" lon="-0.56179">
        <ele>24.3</ele>
        <time>2020-09-03T07:03:51Z</time>
      </trkpt>
      <trkpt lat="45.15549" lon="-0.5618">
        <ele>24.3</ele>
        <time>2020-09-03T07:03:52Z</time>
      </trkpt>
      <trkpt lat="45.1555" lon="-0.56182">
        <ele>24.3</ele>
        <time>2020-09-03T07:03:54Z</time>
      </trkpt>
      <trkpt lat="45.15551" lon="-0.56184">
        <ele>24.3</ele>
        <time>2020-09-03T07:03:55Z</time>
      </trkpt>
      <trkpt lat="45.15553" lon="-0.56187">
        <ele>24.3</ele>
        <time>2020-09-03T07:03:57Z</time>
      </trkpt>
      <trkpt lat="45.15554" lon="-0.56188">
        <ele>24.3</ele>
        <time>2020-09-03T07:03:59Z</time>
      </trkpt>
      <trkpt lat="45.15555" lon="-0.56189">
        <ele>24.3</ele>
        <time>2020-09-03T07:04:00Z</time>
      </trkpt>
      <trkpt lat="45.15556" lon="-0.56191">
        <ele>24.3</ele>
        <time>2020-09-03T07:04:01Z</time>
      </trkpt>
      <trkpt lat="45.15558" lon="-0.56193">
        <ele>24.4</ele>
        <time>2020-09-03T07:04:02Z</time>
      </trkpt>
      <trkpt lat="45.15559" lon="-0.56194">
        <ele>24.4</ele>
        <time>2020-09-03T07:04:04Z</time>
      </trkpt>
      <trkpt lat="45.15559" lon="-0.56195">
        <ele>24.4</ele>
        <time>2020-09-03T07:04:05Z</time>
      </trkpt>
      <trkpt lat="45.15561" lon="-0.56197">
        <ele>24.4</ele>
        <time>2020-09-03T07:04:07Z</time>
      </trkpt>
      <trkpt lat="45.15562" lon="-0.56198">
        <ele>24.5</ele>
        <time>2020-09-03T07:04:08Z</time>
      </trkpt>
      <trkpt lat="45.15563" lon="-0.562">
        <ele>24.5</ele>
        <time>2020-09-03T07:04:09Z</time>
      </trkpt>
      <trkpt lat="45.15563" lon="-0.56201">
        <ele>24.5</ele>
        <time>2020-09-03T07:04:10Z</time>
      </trkpt>
      <trkpt lat="45.15564" lon="-0.56203">
        <ele>24.6</ele>
        <time>2020-09-03T07:04:12Z</time>
      </trkpt>
      <trkpt lat="45.15565" lon="-0.56205">
        <ele>24.6</ele>
        <time>2020-09-03T07:04:13Z</time>
      </trkpt>
      <trkpt lat="45.15566" lon="-0.56207">
        <ele>24.6</ele>
        <time>2020-09-03T07:04:14Z</time>
      </trkpt>
      <trkpt lat="45.15568" lon="-0.56209">
        <ele>24.7</ele>
        <time>2020-09-03T07:04:15Z</time>
      </trkpt>
      <trkpt lat="45.15569" lon="-0.5621">
        <ele>24.7</ele>
        <time>2020-09-03T07:04:16Z</time>
      </trkpt>
      <trkpt lat="45.15569" lon="-0.56211">
        <ele>24.7</ele>
        <time>2020-09-03T07:04:18Z</time>
      </trkpt>
      <trkpt lat="45.1557" lon="-0.56212">
        <ele>24.7</ele>
        <time>2020-09-03T07:04:19Z</time>
      </trkpt>
      <trkpt lat="45.15571" lon="-0.56213">
        <ele>24.8</ele>
        <time>2020-09-03T07:04:20Z</time>
      </trkpt>
      <trkpt lat="45.15571" lon="-0.56214">
        <ele>24.8</ele>
        <time>2020-09-03T07:04:21Z</time>
      </trkpt>
      <trkpt lat="45.15573" lon="-0.56216">
        <ele>24.8</ele>
        <time>2020-09-03T07:04:22Z</time>
      </trkpt>
      <trkpt lat="45.15573" lon="-0.56217">
        <ele>24.8</ele>
        <time>2020-09-03T07:04:23Z</time>
      </trkpt>
      <trkpt lat="45.15574" lon="-0.56219">
        <ele>24.9</ele>
        <time>2020-09-03T07:04:25Z</time>
      </trkpt>
      <trkpt lat="45.15576" lon="-0.56222">
        <ele>24.9</ele>
        <time>2020-09-03T07:04:27Z</time>
      </trkpt>
      <trkpt lat="45.15577" lon="-0.56223">
        <ele>25</ele>
        <time>2020-09-03T07:04:28Z</time>
      </trkpt>
      <trkpt lat="45.15578" lon="-0.56225">
        <ele>25</ele>
        <time>2020-09-03T07:04:29Z</time>
      </trkpt>
      <trkpt lat="45.1558" lon="-0.56227">
        <ele>25</ele>
        <time>2020-09-03T07:04:31Z</time>
      </trkpt>
      <trkpt lat="45.15581" lon="-0.56228">
        <ele>25</ele>
        <time>2020-09-03T07:04:32Z</time>
      </trkpt>
      <trkpt lat="45.15582" lon="-0.5623">
        <ele>25</ele>
        <time>2020-09-03T07:04:33Z</time>
      </trkpt>
      <trkpt lat="45.15584" lon="-0.56232">
        <ele>25.1</ele>
        <time>2020-09-03T07:04:34Z</time>
      </trkpt>
      <trkpt lat="45.15585" lon="-0.56232">
        <ele>25.1</ele>
        <time>2020-09-03T07:04:35Z</time>
      </trkpt>
      <trkpt lat="45.15586" lon="-0.56233">
        <ele>25.1</ele>
        <time>2020-09-03T07:04:36Z</time>
      </trkpt>
      <trkpt lat="45.15587" lon="-0.56233">
        <ele>25.1</ele>
        <time>2020-09-03T07:04:38Z</time>
      </trkpt>
      <trkpt lat="45.15587" lon="-0.56234">
        <ele>25.1</ele>
        <time>2020-09-03T07:04:39Z</time>
      </trkpt>
      <trkpt lat="45.15588" lon="-0.56235">
        <ele>25.1</ele>
        <time>2020-09-03T07:04:40Z</time>
      </trkpt>
      <trkpt lat="45.15589" lon="-0.56236">
        <ele>25.1</ele>
        <time>2020-09-03T07:04:41Z</time>
      </trkpt>
      <trkpt lat="45.15589" lon="-0.56239">
        <ele>25.1</ele>
        <time>2020-09-03T07:04:42Z</time>
      </trkpt>
      <trkpt lat="45.1559" lon="-0.56241">
        <ele>25.1</ele>
        <time>2020-09-03T07:04:43Z</time>
      </trkpt>
      <trkpt lat="45.15591" lon="-0.56242">
        <ele>25.1</ele>
        <time>2020-09-03T07:04:44Z</time>
      </trkpt>
      <trkpt lat="45.15592" lon="-0.56243">
        <ele>25.1</ele>
        <time>2020-09-03T07:04:46Z</time>
      </trkpt>
      <trkpt lat="45.15593" lon="-0.56246">
        <ele>25.2</ele>
        <time>2020-09-03T07:04:47Z</time>
      </trkpt>
      <trkpt lat="45.15594" lon="-0.56247">
        <ele>25.2</ele>
        <time>2020-09-03T07:04:48Z</time>
      </trkpt>
      <trkpt lat="45.15595" lon="-0.56248">
        <ele>25.2</ele>
        <time>2020-09-03T07:04:49Z</time>
      </trkpt>
      <trkpt lat="45.15596" lon="-0.56249">
        <ele>25.2</ele>
        <time>2020-09-03T07:04:51Z</time>
      </trkpt>
      <trkpt lat="45.15598" lon="-0.56249">
        <ele>25.2</ele>
        <time>2020-09-03T07:04:52Z</time>
      </trkpt>
      <trkpt lat="45.15599" lon="-0.56251">
        <ele>25.2</ele>
        <time>2020-09-03T07:04:53Z</time>
      </trkpt>
      <trkpt lat="45.156" lon="-0.56251">
        <ele>25.2</ele>
        <time>2020-09-03T07:04:54Z</time>
      </trkpt>
      <trkpt lat="45.15601" lon="-0.56252">
        <ele>25.2</ele>
        <time>2020-09-03T07:04:55Z</time>
      </trkpt>
      <trkpt lat="45.15603" lon="-0.56256">
        <ele>25.3</ele>
        <time>2020-09-03T07:04:56Z</time>
      </trkpt>
      <trkpt lat="45.15604" lon="-0.56258">
        <ele>25.3</ele>
        <time>2020-09-03T07:04:58Z</time>
      </trkpt>
      <trkpt lat="45.15604" lon="-0.56259">
        <ele>25.3</ele>
        <time>2020-09-03T07:04:59Z</time>
      </trkpt>
      <trkpt lat="45.15605" lon="-0.5626">
        <ele>25.3</ele>
        <time>2020-09-03T07:05:00Z</time>
      </trkpt>
      <trkpt lat="45.15606" lon="-0.56262">
        <ele>25.4</ele>
        <time>2020-09-03T07:05:01Z</time>
      </trkpt>
      <trkpt lat="45.15607" lon="-0.56263">
        <ele>25.4</ele>
        <time>2020-09-03T07:05:03Z</time>
      </trkpt>
      <trkpt lat="45.15608" lon="-0.56265">
        <ele>25.4</ele>
        <time>2020-09-03T07:05:04Z</time>
      </trkpt>
      <trkpt lat="45.15609" lon="-0.56266">
        <ele>25.4</ele>
        <time>2020-09-03T07:05:05Z</time>
      </trkpt>
      <trkpt lat="45.15611" lon="-0.56268">
        <ele>25.5</ele>
        <time>2020-09-03T07:05:07Z</time>
      </trkpt>
      <trkpt lat="45.15612" lon="-0.56269">
        <ele>25.5</ele>
        <time>2020-09-03T07:05:08Z</time>
      </trkpt>
      <trkpt lat="45.15613" lon="-0.56271">
        <ele>25.6</ele>
        <time>2020-09-03T07:05:09Z</time>
      </trkpt>
      <trkpt lat="45.15614" lon="-0.56272">
        <ele>25.6</ele>
        <time>2020-09-03T07:05:10Z</time>
      </trkpt>
      <trkpt lat="45.15615" lon="-0.56273">
        <ele>25.6</ele>
        <time>2020-09-03T07:05:11Z</time>
      </trkpt>
      <trkpt lat="45.15616" lon="-0.56274">
        <ele>25.6</ele>
        <time>2020-09-03T07:05:12Z</time>
      </trkpt>
      <trkpt lat="45.15617" lon="-0.56275">
        <ele>25.7</ele>
        <time>2020-09-03T07:05:14Z</time>
      </trkpt>
      <trkpt lat="45.15619" lon="-0.56277">
        <ele>25.7</ele>
        <time>2020-09-03T07:05:16Z</time>
      </trkpt>
      <trkpt lat="45.1562" lon="-0.56278">
        <ele>25.8</ele>
        <time>2020-09-03T07:05:17Z</time>
      </trkpt>
      <trkpt lat="45.15621" lon="-0.56279">
        <ele>25.8</ele>
        <time>2020-09-03T07:05:18Z</time>
      </trkpt>
      <trkpt lat="45.15623" lon="-0.56281">
        <ele>25.9</ele>
        <time>2020-09-03T07:05:20Z</time>
      </trkpt>
      <trkpt lat="45.15624" lon="-0.56282">
        <ele>25.9</ele>
        <time>2020-09-03T07:05:21Z</time>
      </trkpt>
      <trkpt lat="45.15627" lon="-0.56284">
        <ele>26</ele>
        <time>2020-09-03T07:05:22Z</time>
      </trkpt>
      <trkpt lat="45.15628" lon="-0.56285">
        <ele>26</ele>
        <time>2020-09-03T07:05:23Z</time>
      </trkpt>
      <trkpt lat="45.15629" lon="-0.56287">
        <ele>26</ele>
        <time>2020-09-03T07:05:24Z</time>
      </trkpt>
      <trkpt lat="45.1563" lon="-0.56289">
        <ele>26.1</ele>
        <time>2020-09-03T07:05:26Z</time>
      </trkpt>
      <trkpt lat="45.15633" lon="-0.56291">
        <ele>26.2</ele>
        <time>2020-09-03T07:05:27Z</time>
      </trkpt>
      <trkpt lat="45.15633" lon="-0.56292">
        <ele>26.2</ele>
        <time>2020-09-03T07:05:28Z</time>
      </trkpt>
      <trkpt lat="45.15634" lon="-0.56293">
        <ele>26.2</ele>
        <time>2020-09-03T07:05:30Z</time>
      </trkpt>
      <trkpt lat="45.15635" lon="-0.56294">
        <ele>26.2</ele>
        <time>2020-09-03T07:05:31Z</time>
      </trkpt>
      <trkpt lat="45.15637" lon="-0.56296">
        <ele>26.3</ele>
        <time>2020-09-03T07:05:33Z</time>
      </trkpt>
      <trkpt lat="45.15639" lon="-0.56299">
        <ele>26.4</ele>
        <time>2020-09-03T07:05:34Z</time>
      </trkpt>
      <trkpt lat="45.1564" lon="-0.563">
        <ele>26.4</ele>
        <time>2020-09-03T07:05:35Z</time>
      </trkpt>
      <trkpt lat="45.15641" lon="-0.56301">
        <ele>26.4</ele>
        <time>2020-09-03T07:05:36Z</time>
      </trkpt>
      <trkpt lat="45.15642" lon="-0.56302">
        <ele>26.5</ele>
        <time>2020-09-03T07:05:37Z</time>
      </trkpt>
      <trkpt lat="45.15644" lon="-0.56303">
        <ele>26.5</ele>
        <time>2020-09-03T07:05:39Z</time>
      </trkpt>
      <trkpt lat="45.15644" lon="-0.56304">
        <ele>26.5</ele>
        <time>2020-09-03T07:05:40Z</time>
      </trkpt>
      <trkpt lat="45.15645" lon="-0.56305">
        <ele>26.5</ele>
        <time>2020-09-03T07:05:41Z</time>
      </trkpt>
      <trkpt lat="45.15646" lon="-0.56307">
        <ele>26.6</ele>
        <time>2020-09-03T07:05:42Z</time>
      </trkpt>
      <trkpt lat="45.15647" lon="-0.56309">
        <ele>26.6</ele>
        <time>2020-09-03T07:05:44Z</time>
      </trkpt>
      <trkpt lat="45.15647" lon="-0.56311">
        <ele>26.6</ele>
        <time>2020-09-03T07:05:45Z</time>
      </trkpt>
      <trkpt lat="45.15648" lon="-0.56312">
        <ele>26.7</ele>
        <time>2020-09-03T07:05:46Z</time>
      </trkpt>
      <trkpt lat="45.15649" lon="-0.56314">
        <ele>26.7</ele>
        <time>2020-09-03T07:05:48Z</time>
      </trkpt>
      <trkpt lat="45.1565" lon="-0.56316">
        <ele>26.7</ele>
        <time>2020-09-03T07:05:49Z</time>
      </trkpt>
      <trkpt lat="45.1565" lon="-0.56317">
        <ele>26.7</ele>
        <time>2020-09-03T07:05:50Z</time>
      </trkpt>
      <trkpt lat="45.15651" lon="-0.5632">
        <ele>26.8</ele>
        <time>2020-09-03T07:05:51Z</time>
      </trkpt>
      <trkpt lat="45.15652" lon="-0.56321">
        <ele>26.8</ele>
        <time>2020-09-03T07:05:52Z</time>
      </trkpt>
      <trkpt lat="45.15652" lon="-0.56323">
        <ele>26.8</ele>
        <time>2020-09-03T07:05:53Z</time>
      </trkpt>
      <trkpt lat="45.15653" lon="-0.56325">
        <ele>26.8</ele>
        <time>2020-09-03T07:05:54Z</time>
      </trkpt>
      <trkpt lat="45.15653" lon="-0.56327">
        <ele>26.9</ele>
        <time>2020-09-03T07:05:56Z</time>
      </trkpt>
      <trkpt lat="45.15653" lon="-0.56331">
        <ele>26.9</ele>
        <time>2020-09-03T07:05:58Z</time>
      </trkpt>
      <trkpt lat="45.15654" lon="-0.56332">
        <ele>26.9</ele>
        <time>2020-09-03T07:05:59Z</time>
      </trkpt>
      <trkpt lat="45.15654" lon="-0.56334">
        <ele>27</ele>
        <time>2020-09-03T07:06:00Z</time>
      </trkpt>
      <trkpt lat="45.15654" lon="-0.56335">
        <ele>27</ele>
        <time>2020-09-03T07:06:01Z</time>
      </trkpt>
      <trkpt lat="45.15654" lon="-0.56338">
        <ele>27</ele>
        <time>2020-09-03T07:06:03Z</time>
      </trkpt>
      <trkpt lat="45.15654" lon="-0.5634">
        <ele>27</ele>
        <time>2020-09-03T07:06:04Z</time>
      </trkpt>
      <trkpt lat="45.15654" lon="-0.56342">
        <ele>27</ele>
        <time>2020-09-03T07:06:05Z</time>
      </trkpt>
      <trkpt lat="45.15654" lon="-0.56344">
        <ele>27</ele>
        <time>2020-09-03T07:06:06Z</time>
      </trkpt>
      <trkpt lat="45.15654" lon="-0.56346">
        <ele>27.1</ele>
        <time>2020-09-03T07:06:07Z</time>
      </trkpt>
      <trkpt lat="45.15654" lon="-0.56348">
        <ele>27.1</ele>
        <time>2020-09-03T07:06:08Z</time>
      </trkpt>
      <trkpt lat="45.15654" lon="-0.5635">
        <ele>27.1</ele>
        <time>2020-09-03T07:06:09Z</time>
      </trkpt>
      <trkpt lat="45.15654" lon="-0.56352">
        <ele>27.1</ele>
        <time>2020-09-03T07:06:10Z</time>
      </trkpt>
      <trkpt lat="45.15655" lon="-0.56354">
        <ele>27.1</ele>
        <time>2020-09-03T07:06:11Z</time>
      </trkpt>
      <trkpt lat="45.15654" lon="-0.56356">
        <ele>27.1</ele>
        <time>2020-09-03T07:06:12Z</time>
      </trkpt>
      <trkpt lat="45.15654" lon="-0.56358">
        <ele>27.1</ele>
        <time>2020-09-03T07:06:13Z</time>
      </trkpt>
      <trkpt lat="45.15654" lon="-0.56361">
        <ele>27.1</ele>
        <time>2020-09-03T07:06:15Z</time>
      </trkpt>
      <trkpt lat="45.15654" lon="-0.56362">
        <ele>27.1</ele>
        <time>2020-09-03T07:06:16Z</time>
      </trkpt>
      <trkpt lat="45.15654" lon="-0.56364">
        <ele>27.1</ele>
        <time>2020-09-03T07:06:17Z</time>
      </trkpt>
      <trkpt lat="45.15655" lon="-0.56366">
        <ele>27.1</ele>
        <time>2020-09-03T07:06:18Z</time>
      </trkpt>
      <trkpt lat="45.15655" lon="-0.56368">
        <ele>27.1</ele>
        <time>2020-09-03T07:06:19Z</time>
      </trkpt>
      <trkpt lat="45.15655" lon="-0.56369">
        <ele>27.1</ele>
        <time>2020-09-03T07:06:20Z</time>
      </trkpt>
      <trkpt lat="45.15656" lon="-0.56372">
        <ele>27.2</ele>
        <time>2020-09-03T07:06:21Z</time>
      </trkpt>
      <trkpt lat="45.15656" lon="-0.56373">
        <ele>27.2</ele>
        <time>2020-09-03T07:06:22Z</time>
      </trkpt>
      <trkpt lat="45.15656" lon="-0.56374">
        <ele>27.2</ele>
        <time>2020-09-03T07:06:23Z</time>
      </trkpt>
      <trkpt lat="45.15657" lon="-0.56376">
        <ele>27.2</ele>
        <time>2020-09-03T07:06:24Z</time>
      </trkpt>
      <trkpt lat="45.15657" lon="-0.56377">
        <ele>27.2</ele>
        <time>2020-09-03T07:06:25Z</time>
      </trkpt>
      <trkpt lat="45.15659" lon="-0.56381">
        <ele>27.2</ele>
        <time>2020-09-03T07:06:27Z</time>
      </trkpt>
      <trkpt lat="45.15659" lon="-0.56383">
        <ele>27.2</ele>
        <time>2020-09-03T07:06:29Z</time>
      </trkpt>
      <trkpt lat="45.1566" lon="-0.56385">
        <ele>27.2</ele>
        <time>2020-09-03T07:06:30Z</time>
      </trkpt>
      <trkpt lat="45.15661" lon="-0.56386">
        <ele>27.2</ele>
        <time>2020-09-03T07:06:31Z</time>
      </trkpt>
      <trkpt lat="45.15662" lon="-0.56388">
        <ele>27.2</ele>
        <time>2020-09-03T07:06:33Z</time>
      </trkpt>
      <trkpt lat="45.15663" lon="-0.56389">
        <ele>27.2</ele>
        <time>2020-09-03T07:06:34Z</time>
      </trkpt>
      <trkpt lat="45.15663" lon="-0.5639">
        <ele>27.3</ele>
        <time>2020-09-03T07:06:35Z</time>
      </trkpt>
      <trkpt lat="45.15664" lon="-0.56392">
        <ele>27.3</ele>
        <time>2020-09-03T07:06:36Z</time>
      </trkpt>
      <trkpt lat="45.15665" lon="-0.56393">
        <ele>27.3</ele>
        <time>2020-09-03T07:06:37Z</time>
      </trkpt>
      <trkpt lat="45.15667" lon="-0.56395">
        <ele>27.3</ele>
        <time>2020-09-03T07:06:39Z</time>
      </trkpt>
      <trkpt lat="45.15669" lon="-0.56398">
        <ele>27.3</ele>
        <time>2020-09-03T07:06:41Z</time>
      </trkpt>
      <trkpt lat="45.1567" lon="-0.56399">
        <ele>27.2</ele>
        <time>2020-09-03T07:06:42Z</time>
      </trkpt>
      <trkpt lat="45.15671" lon="-0.564">
        <ele>27.2</ele>
        <time>2020-09-03T07:06:43Z</time>
      </trkpt>
      <trkpt lat="45.15672" lon="-0.56402">
        <ele>27.2</ele>
        <time>2020-09-03T07:06:44Z</time>
      </trkpt>
      <trkpt lat="45.15673" lon="-0.56404">
        <ele>27.2</ele>
        <time>2020-09-03T07:06:45Z</time>
      </trkpt>
      <trkpt lat="45.15675" lon="-0.56405">
        <ele>27.2</ele>
        <time>2020-09-03T07:06:47Z</time>
      </trkpt>
      <trkpt lat="45.15675" lon="-0.56406">
        <ele>27.2</ele>
        <time>2020-09-03T07:06:48Z</time>
      </trkpt>
      <trkpt lat="45.15677" lon="-0.56408">
        <ele>27.2</ele>
        <time>2020-09-03T07:06:49Z</time>
      </trkpt>
      <trkpt lat="45.15679" lon="-0.5641">
        <ele>27.2</ele>
        <time>2020-09-03T07:06:50Z</time>
      </trkpt>
      <trkpt lat="45.15679" lon="-0.56411">
        <ele>27.2</ele>
        <time>2020-09-03T07:06:52Z</time>
      </trkpt>
      <trkpt lat="45.1568" lon="-0.56412">
        <ele>27.2</ele>
        <time>2020-09-03T07:06:53Z</time>
      </trkpt>
      <trkpt lat="45.15681" lon="-0.56413">
        <ele>27.2</ele>
        <time>2020-09-03T07:06:54Z</time>
      </trkpt>
      <trkpt lat="45.15682" lon="-0.56414">
        <ele>27.2</ele>
        <time>2020-09-03T07:06:55Z</time>
      </trkpt>
      <trkpt lat="45.15683" lon="-0.56415">
        <ele>27.2</ele>
        <time>2020-09-03T07:06:56Z</time>
      </trkpt>
      <trkpt lat="45.15685" lon="-0.56416">
        <ele>27.2</ele>
        <time>2020-09-03T07:06:57Z</time>
      </trkpt>
      <trkpt lat="45.15686" lon="-0.56417">
        <ele>27.2</ele>
        <time>2020-09-03T07:06:58Z</time>
      </trkpt>
      <trkpt lat="45.15687" lon="-0.56418">
        <ele>27.2</ele>
        <time>2020-09-03T07:07:00Z</time>
      </trkpt>
      <trkpt lat="45.15688" lon="-0.56419">
        <ele>27.2</ele>
        <time>2020-09-03T07:07:01Z</time>
      </trkpt>
      <trkpt lat="45.1569" lon="-0.5642">
        <ele>27.2</ele>
        <time>2020-09-03T07:07:02Z</time>
      </trkpt>
      <trkpt lat="45.15692" lon="-0.56421">
        <ele>27.2</ele>
        <time>2020-09-03T07:07:03Z</time>
      </trkpt>
      <trkpt lat="45.15693" lon="-0.56422">
        <ele>27.1</ele>
        <time>2020-09-03T07:07:05Z</time>
      </trkpt>
      <trkpt lat="45.15695" lon="-0.56423">
        <ele>27.1</ele>
        <time>2020-09-03T07:07:06Z</time>
      </trkpt>
      <trkpt lat="45.15696" lon="-0.56424">
        <ele>27.1</ele>
        <time>2020-09-03T07:07:07Z</time>
      </trkpt>
      <trkpt lat="45.15697" lon="-0.56425">
        <ele>27.1</ele>
        <time>2020-09-03T07:07:08Z</time>
      </trkpt>
      <trkpt lat="45.15699" lon="-0.56426">
        <ele>27.1</ele>
        <time>2020-09-03T07:07:09Z</time>
      </trkpt>
      <trkpt lat="45.15701" lon="-0.56427">
        <ele>27.1</ele>
        <time>2020-09-03T07:07:11Z</time>
      </trkpt>
      <trkpt lat="45.15702" lon="-0.56428">
        <ele>27.1</ele>
        <time>2020-09-03T07:07:13Z</time>
      </trkpt>
      <trkpt lat="45.15704" lon="-0.56429">
        <ele>27.1</ele>
        <time>2020-09-03T07:07:14Z</time>
      </trkpt>
      <trkpt lat="45.15705" lon="-0.5643">
        <ele>27.1</ele>
        <time>2020-09-03T07:07:15Z</time>
      </trkpt>
      <trkpt lat="45.15706" lon="-0.5643">
        <ele>27.1</ele>
        <time>2020-09-03T07:07:16Z</time>
      </trkpt>
      <trkpt lat="45.15707" lon="-0.56431">
        <ele>27.1</ele>
        <time>2020-09-03T07:07:17Z</time>
      </trkpt>
      <trkpt lat="45.15709" lon="-0.56432">
        <ele>27.1</ele>
        <time>2020-09-03T07:07:19Z</time>
      </trkpt>
      <trkpt lat="45.1571" lon="-0.56433">
        <ele>27.1</ele>
        <time>2020-09-03T07:07:20Z</time>
      </trkpt>
      <trkpt lat="45.15712" lon="-0.56433">
        <ele>27.1</ele>
        <time>2020-09-03T07:07:22Z</time>
      </trkpt>
      <trkpt lat="45.15713" lon="-0.56433">
        <ele>27.1</ele>
        <time>2020-09-03T07:07:23Z</time>
      </trkpt>
      <trkpt lat="45.15715" lon="-0.56433">
        <ele>27.1</ele>
        <time>2020-09-03T07:07:24Z</time>
      </trkpt>
      <trkpt lat="45.15717" lon="-0.56434">
        <ele>27.1</ele>
        <time>2020-09-03T07:07:26Z</time>
      </trkpt>
      <trkpt lat="45.15718" lon="-0.56434">
        <ele>27.1</ele>
        <time>2020-09-03T07:07:27Z</time>
      </trkpt>
      <trkpt lat="45.15719" lon="-0.56435">
        <ele>27.1</ele>
        <time>2020-09-03T07:07:28Z</time>
      </trkpt>
      <trkpt lat="45.15721" lon="-0.56436">
        <ele>27.1</ele>
        <time>2020-09-03T07:07:29Z</time>
      </trkpt>
      <trkpt lat="45.15722" lon="-0.56436">
        <ele>27</ele>
        <time>2020-09-03T07:07:30Z</time>
      </trkpt>
      <trkpt lat="45.15723" lon="-0.56437">
        <ele>27</ele>
        <time>2020-09-03T07:07:31Z</time>
      </trkpt>
      <trkpt lat="45.15724" lon="-0.56438">
        <ele>27</ele>
        <time>2020-09-03T07:07:33Z</time>
      </trkpt>
      <trkpt lat="45.15726" lon="-0.56439">
        <ele>27</ele>
        <time>2020-09-03T07:07:34Z</time>
      </trkpt>
      <trkpt lat="45.15728" lon="-0.5644">
        <ele>27</ele>
        <time>2020-09-03T07:07:35Z</time>
      </trkpt>
      <trkpt lat="45.15731" lon="-0.56442">
        <ele>27</ele>
        <time>2020-09-03T07:07:37Z</time>
      </trkpt>
      <trkpt lat="45.15732" lon="-0.56442">
        <ele>27</ele>
        <time>2020-09-03T07:07:38Z</time>
      </trkpt>
      <trkpt lat="45.15733" lon="-0.56443">
        <ele>27</ele>
        <time>2020-09-03T07:07:39Z</time>
      </trkpt>
      <trkpt lat="45.15734" lon="-0.56445">
        <ele>27</ele>
        <time>2020-09-03T07:07:41Z</time>
      </trkpt>
      <trkpt lat="45.15736" lon="-0.56446">
        <ele>27</ele>
        <time>2020-09-03T07:07:42Z</time>
      </trkpt>
      <trkpt lat="45.15736" lon="-0.56447">
        <ele>26.9</ele>
        <time>2020-09-03T07:07:43Z</time>
      </trkpt>
      <trkpt lat="45.15738" lon="-0.56449">
        <ele>26.9</ele>
        <time>2020-09-03T07:07:44Z</time>
      </trkpt>
      <trkpt lat="45.15739" lon="-0.5645">
        <ele>26.9</ele>
        <time>2020-09-03T07:07:45Z</time>
      </trkpt>
      <trkpt lat="45.15739" lon="-0.56451">
        <ele>26.9</ele>
        <time>2020-09-03T07:07:46Z</time>
      </trkpt>
      <trkpt lat="45.1574" lon="-0.56451">
        <ele>26.9</ele>
        <time>2020-09-03T07:07:47Z</time>
      </trkpt>
      <trkpt lat="45.15741" lon="-0.56452">
        <ele>26.9</ele>
        <time>2020-09-03T07:07:48Z</time>
      </trkpt>
      <trkpt lat="45.15742" lon="-0.56453">
        <ele>26.9</ele>
        <time>2020-09-03T07:07:49Z</time>
      </trkpt>
      <trkpt lat="45.15744" lon="-0.56454">
        <ele>26.9</ele>
        <time>2020-09-03T07:07:50Z</time>
      </trkpt>
      <trkpt lat="45.15745" lon="-0.56454">
        <ele>26.8</ele>
        <time>2020-09-03T07:07:51Z</time>
      </trkpt>
      <trkpt lat="45.15747" lon="-0.56456">
        <ele>26.8</ele>
        <time>2020-09-03T07:07:53Z</time>
      </trkpt>
      <trkpt lat="45.15748" lon="-0.56457">
        <ele>26.8</ele>
        <time>2020-09-03T07:07:54Z</time>
      </trkpt>
      <trkpt lat="45.1575" lon="-0.56458">
        <ele>26.8</ele>
        <time>2020-09-03T07:07:55Z</time>
      </trkpt>
      <trkpt lat="45.15751" lon="-0.5646">
        <ele>26.8</ele>
        <time>2020-09-03T07:07:57Z</time>
      </trkpt>
      <trkpt lat="45.15752" lon="-0.56461">
        <ele>26.8</ele>
        <time>2020-09-03T07:07:58Z</time>
      </trkpt>
      <trkpt lat="45.15754" lon="-0.56462">
        <ele>26.7</ele>
        <time>2020-09-03T07:07:59Z</time>
      </trkpt>
      <trkpt lat="45.15755" lon="-0.56463">
        <ele>26.7</ele>
        <time>2020-09-03T07:08:00Z</time>
      </trkpt>
      <trkpt lat="45.15756" lon="-0.56464">
        <ele>26.7</ele>
        <time>2020-09-03T07:08:01Z</time>
      </trkpt>
      <trkpt lat="45.15757" lon="-0.56465">
        <ele>26.7</ele>
        <time>2020-09-03T07:08:03Z</time>
      </trkpt>
      <trkpt lat="45.15759" lon="-0.56466">
        <ele>26.7</ele>
        <time>2020-09-03T07:08:04Z</time>
      </trkpt>
      <trkpt lat="45.1576" lon="-0.56467">
        <ele>26.6</ele>
        <time>2020-09-03T07:08:06Z</time>
      </trkpt>
      <trkpt lat="45.15762" lon="-0.56468">
        <ele>26.6</ele>
        <time>2020-09-03T07:08:07Z</time>
      </trkpt>
      <trkpt lat="45.15763" lon="-0.56469">
        <ele>26.6</ele>
        <time>2020-09-03T07:08:08Z</time>
      </trkpt>
      <trkpt lat="45.15764" lon="-0.5647">
        <ele>26.6</ele>
        <time>2020-09-03T07:08:09Z</time>
      </trkpt>
      <trkpt lat="45.15766" lon="-0.56471">
        <ele>26.5</ele>
        <time>2020-09-03T07:08:11Z</time>
      </trkpt>
      <trkpt lat="45.15767" lon="-0.56472">
        <ele>26.5</ele>
        <time>2020-09-03T07:08:12Z</time>
      </trkpt>
      <trkpt lat="45.15768" lon="-0.56473">
        <ele>26.5</ele>
        <time>2020-09-03T07:08:13Z</time>
      </trkpt>
      <trkpt lat="45.1577" lon="-0.56474">
        <ele>26.5</ele>
        <time>2020-09-03T07:08:15Z</time>
      </trkpt>
      <trkpt lat="45.15771" lon="-0.56476">
        <ele>26.4</ele>
        <time>2020-09-03T07:08:16Z</time>
      </trkpt>
      <trkpt lat="45.15772" lon="-0.56476">
        <ele>26.4</ele>
        <time>2020-09-03T07:08:17Z</time>
      </trkpt>
      <trkpt lat="45.15773" lon="-0.56478">
        <ele>26.4</ele>
        <time>2020-09-03T07:08:19Z</time>
      </trkpt>
      <trkpt lat="45.15773" lon="-0.56478">
        <ele>26.4</ele>
        <time>2020-09-03T07:08:20Z</time>
      </trkpt>
      <trkpt lat="45.15773" lon="-0.56478">
        <ele>26.4</ele>
        <time>2020-09-03T07:08:22Z</time>
      </trkpt>
      <trkpt lat="45.15773" lon="-0.56478">
        <ele>26.4</ele>
        <time>2020-09-03T07:08:23Z</time>
      </trkpt>
      <trkpt lat="45.15772" lon="-0.56478">
        <ele>26.4</ele>
        <time>2020-09-03T07:08:24Z</time>
      </trkpt>
      <trkpt lat="45.15772" lon="-0.56478">
        <ele>26.4</ele>
        <time>2020-09-03T07:08:25Z</time>
      </trkpt>
      <trkpt lat="45.15772" lon="-0.56478">
        <ele>26.4</ele>
        <time>2020-09-03T07:08:27Z</time>
      </trkpt>
      <trkpt lat="45.15772" lon="-0.56478">
        <ele>26.4</ele>
        <time>2020-09-03T07:08:28Z</time>
      </trkpt>
      <trkpt lat="45.15772" lon="-0.56477">
        <ele>26.4</ele>
        <time>2020-09-03T07:08:30Z</time>
      </trkpt>
      <trkpt lat="45.15771" lon="-0.56477">
        <ele>26.4</ele>
        <time>2020-09-03T07:08:31Z</time>
      </trkpt>
      <trkpt lat="45.15771" lon="-0.56477">
        <ele>26.4</ele>
        <time>2020-09-03T07:08:33Z</time>
      </trkpt>
      <trkpt lat="45.15771" lon="-0.56476">
        <ele>26.3</ele>
        <time>2020-09-03T07:08:34Z</time>
      </trkpt>
      <trkpt lat="45.1577" lon="-0.56475">
        <ele>26.3</ele>
        <time>2020-09-03T07:08:35Z</time>
      </trkpt>
      <trkpt lat="45.15769" lon="-0.56474">
        <ele>26.3</ele>
        <time>2020-09-03T07:08:36Z</time>
      </trkpt>
      <trkpt lat="45.15767" lon="-0.56471">
        <ele>26.3</ele>
        <time>2020-09-03T07:08:39Z</time>
      </trkpt>
      <trkpt lat="45.15767" lon="-0.5647">
        <ele>26.3</ele>
        <time>2020-09-03T07:08:40Z</time>
      </trkpt>
      <trkpt lat="45.15766" lon="-0.56469">
        <ele>26.2</ele>
        <time>2020-09-03T07:08:42Z</time>
      </trkpt>
      <trkpt lat="45.15765" lon="-0.56468">
        <ele>26.2</ele>
        <time>2020-09-03T07:08:43Z</time>
      </trkpt>
      <trkpt lat="45.15765" lon="-0.56467">
        <ele>26.2</ele>
        <time>2020-09-03T07:08:44Z</time>
      </trkpt>
      <trkpt lat="45.15762" lon="-0.56463">
        <ele>26.2</ele>
        <time>2020-09-03T07:08:45Z</time>
      </trkpt>
      <trkpt lat="45.15762" lon="-0.56462">
        <ele>26.2</ele>
        <time>2020-09-03T07:08:46Z</time>
      </trkpt>
      <trkpt lat="45.1576" lon="-0.56461">
        <ele>26.1</ele>
        <time>2020-09-03T07:08:47Z</time>
      </trkpt>
      <trkpt lat="45.15759" lon="-0.56459">
        <ele>26.1</ele>
        <time>2020-09-03T07:08:48Z</time>
      </trkpt>
      <trkpt lat="45.15757" lon="-0.56456">
        <ele>26.1</ele>
        <time>2020-09-03T07:08:50Z</time>
      </trkpt>
      <trkpt lat="45.15757" lon="-0.56455">
        <ele>26.1</ele>
        <time>2020-09-03T07:08:51Z</time>
      </trkpt>
      <trkpt lat="45.15755" lon="-0.56451">
        <ele>26</ele>
        <time>2020-09-03T07:08:52Z</time>
      </trkpt>
      <trkpt lat="45.15754" lon="-0.5645">
        <ele>26</ele>
        <time>2020-09-03T07:08:53Z</time>
      </trkpt>
      <trkpt lat="45.15753" lon="-0.56448">
        <ele>26</ele>
        <time>2020-09-03T07:08:55Z</time>
      </trkpt>
      <trkpt lat="45.15753" lon="-0.56447">
        <ele>26</ele>
        <time>2020-09-03T07:08:56Z</time>
      </trkpt>
      <trkpt lat="45.15753" lon="-0.56445">
        <ele>26</ele>
        <time>2020-09-03T07:08:57Z</time>
      </trkpt>
      <trkpt lat="45.15754" lon="-0.56444">
        <ele>25.9</ele>
        <time>2020-09-03T07:08:59Z</time>
      </trkpt>
      <trkpt lat="45.15755" lon="-0.56444">
        <ele>25.9</ele>
        <time>2020-09-03T07:09:00Z</time>
      </trkpt>
      <trkpt lat="45.15757" lon="-0.56445">
        <ele>25.9</ele>
        <time>2020-09-03T07:09:01Z</time>
      </trkpt>
      <trkpt lat="45.15758" lon="-0.56445">
        <ele>25.9</ele>
        <time>2020-09-03T07:09:02Z</time>
      </trkpt>
      <trkpt lat="45.15759" lon="-0.56446">
        <ele>25.9</ele>
        <time>2020-09-03T07:09:03Z</time>
      </trkpt>
      <trkpt lat="45.1576" lon="-0.56446">
        <ele>25.9</ele>
        <time>2020-09-03T07:09:05Z</time>
      </trkpt>
      <trkpt lat="45.15762" lon="-0.56447">
        <ele>25.8</ele>
        <time>2020-09-03T07:09:07Z</time>
      </trkpt>
      <trkpt lat="45.15763" lon="-0.56448">
        <ele>25.8</ele>
        <time>2020-09-03T07:09:09Z</time>
      </trkpt>
      <trkpt lat="45.15763" lon="-0.56448">
        <ele>25.8</ele>
        <time>2020-09-03T07:09:10Z</time>
      </trkpt>
      <trkpt lat="45.15764" lon="-0.56448">
        <ele>25.8</ele>
        <time>2020-09-03T07:09:11Z</time>
      </trkpt>
      <trkpt lat="45.15767" lon="-0.56449">
        <ele>25.8</ele>
        <time>2020-09-03T07:09:13Z</time>
      </trkpt>
      <trkpt lat="45.1577" lon="-0.5645">
        <ele>25.7</ele>
        <time>2020-09-03T07:09:14Z</time>
      </trkpt>
      <trkpt lat="45.15771" lon="-0.5645">
        <ele>25.7</ele>
        <time>2020-09-03T07:09:15Z</time>
      </trkpt>
      <trkpt lat="45.15773" lon="-0.5645">
        <ele>25.7</ele>
        <time>2020-09-03T07:09:16Z</time>
      </trkpt>
      <trkpt lat="45.15774" lon="-0.56451">
        <ele>25.6</ele>
        <time>2020-09-03T07:09:17Z</time>
      </trkpt>
      <trkpt lat="45.15776" lon="-0.56451">
        <ele>25.6</ele>
        <time>2020-09-03T07:09:18Z</time>
      </trkpt>
      <trkpt lat="45.15778" lon="-0.56451">
        <ele>25.4</ele>
        <time>2020-09-03T07:09:20Z</time>
      </trkpt>
      <trkpt lat="45.15781" lon="-0.56452">
        <ele>25.2</ele>
        <time>2020-09-03T07:09:22Z</time>
      </trkpt>
      <trkpt lat="45.15782" lon="-0.56452">
        <ele>25.2</ele>
        <time>2020-09-03T07:09:23Z</time>
      </trkpt>
      <trkpt lat="45.15784" lon="-0.56451">
        <ele>25.1</ele>
        <time>2020-09-03T07:09:24Z</time>
      </trkpt>
      <trkpt lat="45.15784" lon="-0.56451">
        <ele>25.1</ele>
        <time>2020-09-03T07:09:25Z</time>
      </trkpt>
      <trkpt lat="45.15785" lon="-0.5645">
        <ele>25.2</ele>
        <time>2020-09-03T07:09:27Z</time>
      </trkpt>
      <trkpt lat="45.15785" lon="-0.5645">
        <ele>25.2</ele>
        <time>2020-09-03T07:09:28Z</time>
      </trkpt>
      <trkpt lat="45.15786" lon="-0.56449">
        <ele>25.2</ele>
        <time>2020-09-03T07:09:29Z</time>
      </trkpt>
      <trkpt lat="45.15787" lon="-0.56449">
        <ele>25.1</ele>
        <time>2020-09-03T07:09:30Z</time>
      </trkpt>
      <trkpt lat="45.15787" lon="-0.56448">
        <ele>25.1</ele>
        <time>2020-09-03T07:09:31Z</time>
      </trkpt>
      <trkpt lat="45.15788" lon="-0.56448">
        <ele>25.1</ele>
        <time>2020-09-03T07:09:32Z</time>
      </trkpt>
      <trkpt lat="45.15788" lon="-0.56447">
        <ele>25.1</ele>
        <time>2020-09-03T07:09:33Z</time>
      </trkpt>
      <trkpt lat="45.15789" lon="-0.56446">
        <ele>25.1</ele>
        <time>2020-09-03T07:09:34Z</time>
      </trkpt>
      <trkpt lat="45.1579" lon="-0.56444">
        <ele>25</ele>
        <time>2020-09-03T07:09:35Z</time>
      </trkpt>
      <trkpt lat="45.15791" lon="-0.56442">
        <ele>25.1</ele>
        <time>2020-09-03T07:09:37Z</time>
      </trkpt>
      <trkpt lat="45.15792" lon="-0.5644">
        <ele>25.1</ele>
        <time>2020-09-03T07:09:38Z</time>
      </trkpt>
      <trkpt lat="45.15793" lon="-0.56439">
        <ele>25</ele>
        <time>2020-09-03T07:09:39Z</time>
      </trkpt>
      <trkpt lat="45.15794" lon="-0.56437">
        <ele>25</ele>
        <time>2020-09-03T07:09:40Z</time>
      </trkpt>
      <trkpt lat="45.15795" lon="-0.56435">
        <ele>25</ele>
        <time>2020-09-03T07:09:41Z</time>
      </trkpt>
      <trkpt lat="45.15795" lon="-0.56433">
        <ele>25.1</ele>
        <time>2020-09-03T07:09:43Z</time>
      </trkpt>
      <trkpt lat="45.15796" lon="-0.56432">
        <ele>25</ele>
        <time>2020-09-03T07:09:44Z</time>
      </trkpt>
      <trkpt lat="45.15797" lon="-0.5643">
        <ele>25</ele>
        <time>2020-09-03T07:09:45Z</time>
      </trkpt>
      <trkpt lat="45.15798" lon="-0.56428">
        <ele>25</ele>
        <time>2020-09-03T07:09:46Z</time>
      </trkpt>
      <trkpt lat="45.15799" lon="-0.56427">
        <ele>24.9</ele>
        <time>2020-09-03T07:09:48Z</time>
      </trkpt>
      <trkpt lat="45.158" lon="-0.56425">
        <ele>24.9</ele>
        <time>2020-09-03T07:09:49Z</time>
      </trkpt>
      <trkpt lat="45.15801" lon="-0.56424">
        <ele>25</ele>
        <time>2020-09-03T07:09:50Z</time>
      </trkpt>
      <trkpt lat="45.15802" lon="-0.56422">
        <ele>24.9</ele>
        <time>2020-09-03T07:09:51Z</time>
      </trkpt>
      <trkpt lat="45.15803" lon="-0.56421">
        <ele>24.9</ele>
        <time>2020-09-03T07:09:52Z</time>
      </trkpt>
      <trkpt lat="45.15804" lon="-0.5642">
        <ele>24.9</ele>
        <time>2020-09-03T07:09:53Z</time>
      </trkpt>
      <trkpt lat="45.15805" lon="-0.56419">
        <ele>24.9</ele>
        <time>2020-09-03T07:09:55Z</time>
      </trkpt>
      <trkpt lat="45.15806" lon="-0.56417">
        <ele>24.9</ele>
        <time>2020-09-03T07:09:56Z</time>
      </trkpt>
      <trkpt lat="45.15808" lon="-0.56415">
        <ele>24.9</ele>
        <time>2020-09-03T07:09:57Z</time>
      </trkpt>
      <trkpt lat="45.15809" lon="-0.56414">
        <ele>24.9</ele>
        <time>2020-09-03T07:09:59Z</time>
      </trkpt>
      <trkpt lat="45.1581" lon="-0.56413">
        <ele>24.9</ele>
        <time>2020-09-03T07:10:00Z</time>
      </trkpt>
      <trkpt lat="45.15811" lon="-0.56412">
        <ele>24.8</ele>
        <time>2020-09-03T07:10:01Z</time>
      </trkpt>
      <trkpt lat="45.15812" lon="-0.56411">
        <ele>24.8</ele>
        <time>2020-09-03T07:10:02Z</time>
      </trkpt>
      <trkpt lat="45.15813" lon="-0.5641">
        <ele>24.8</ele>
        <time>2020-09-03T07:10:03Z</time>
      </trkpt>
      <trkpt lat="45.15815" lon="-0.56407">
        <ele>24.8</ele>
        <time>2020-09-03T07:10:05Z</time>
      </trkpt>
      <trkpt lat="45.15817" lon="-0.56404">
        <ele>24.8</ele>
        <time>2020-09-03T07:10:06Z</time>
      </trkpt>
      <trkpt lat="45.15817" lon="-0.56403">
        <ele>24.9</ele>
        <time>2020-09-03T07:10:07Z</time>
      </trkpt>
      <trkpt lat="45.1582" lon="-0.564">
        <ele>24.8</ele>
        <time>2020-09-03T07:10:09Z</time>
      </trkpt>
      <trkpt lat="45.1582" lon="-0.56399">
        <ele>24.9</ele>
        <time>2020-09-03T07:10:10Z</time>
      </trkpt>
      <trkpt lat="45.15821" lon="-0.56398">
        <ele>24.9</ele>
        <time>2020-09-03T07:10:11Z</time>
      </trkpt>
      <trkpt lat="45.15822" lon="-0.56396">
        <ele>24.9</ele>
        <time>2020-09-03T07:10:12Z</time>
      </trkpt>
      <trkpt lat="45.15825" lon="-0.56393">
        <ele>24.9</ele>
        <time>2020-09-03T07:10:14Z</time>
      </trkpt>
      <trkpt lat="45.15825" lon="-0.56392">
        <ele>24.9</ele>
        <time>2020-09-03T07:10:15Z</time>
      </trkpt>
      <trkpt lat="45.15826" lon="-0.56389">
        <ele>24.8</ele>
        <time>2020-09-03T07:10:16Z</time>
      </trkpt>
      <trkpt lat="45.15827" lon="-0.56388">
        <ele>24.8</ele>
        <time>2020-09-03T07:10:17Z</time>
      </trkpt>
      <trkpt lat="45.15828" lon="-0.56388">
        <ele>24.8</ele>
        <time>2020-09-03T07:10:18Z</time>
      </trkpt>
      <trkpt lat="45.15828" lon="-0.56386">
        <ele>24.8</ele>
        <time>2020-09-03T07:10:19Z</time>
      </trkpt>
      <trkpt lat="45.15829" lon="-0.56385">
        <ele>24.8</ele>
        <time>2020-09-03T07:10:20Z</time>
      </trkpt>
      <trkpt lat="45.1583" lon="-0.56384">
        <ele>24.8</ele>
        <time>2020-09-03T07:10:21Z</time>
      </trkpt>
      <trkpt lat="45.15831" lon="-0.56383">
        <ele>24.8</ele>
        <time>2020-09-03T07:10:22Z</time>
      </trkpt>
      <trkpt lat="45.15833" lon="-0.56381">
        <ele>24.8</ele>
        <time>2020-09-03T07:10:24Z</time>
      </trkpt>
      <trkpt lat="45.15833" lon="-0.5638">
        <ele>24.8</ele>
        <time>2020-09-03T07:10:25Z</time>
      </trkpt>
      <trkpt lat="45.15834" lon="-0.56379">
        <ele>24.8</ele>
        <time>2020-09-03T07:10:26Z</time>
      </trkpt>
      <trkpt lat="45.15835" lon="-0.56379">
        <ele>24.7</ele>
        <time>2020-09-03T07:10:27Z</time>
      </trkpt>
      <trkpt lat="45.15837" lon="-0.5638">
        <ele>24.7</ele>
        <time>2020-09-03T07:10:28Z</time>
      </trkpt>
      <trkpt lat="45.1584" lon="-0.56382">
        <ele>24.7</ele>
        <time>2020-09-03T07:10:30Z</time>
      </trkpt>
      <trkpt lat="45.15842" lon="-0.56384">
        <ele>24.7</ele>
        <time>2020-09-03T07:10:31Z</time>
      </trkpt>
      <trkpt lat="45.15843" lon="-0.56384">
        <ele>24.7</ele>
        <time>2020-09-03T07:10:32Z</time>
      </trkpt>
      <trkpt lat="45.15845" lon="-0.56385">
        <ele>24.7</ele>
        <time>2020-09-03T07:10:34Z</time>
      </trkpt>
      <trkpt lat="45.15846" lon="-0.56386">
        <ele>24.7</ele>
        <time>2020-09-03T07:10:35Z</time>
      </trkpt>
      <trkpt lat="45.15848" lon="-0.56388">
        <ele>24.7</ele>
        <time>2020-09-03T07:10:36Z</time>
      </trkpt>
      <trkpt lat="45.15849" lon="-0.56389">
        <ele>24.7</ele>
        <time>2020-09-03T07:10:37Z</time>
      </trkpt>
      <trkpt lat="45.15851" lon="-0.5639">
        <ele>24.7</ele>
        <time>2020-09-03T07:10:39Z</time>
      </trkpt>
      <trkpt lat="45.15852" lon="-0.56391">
        <ele>24.7</ele>
        <time>2020-09-03T07:10:40Z</time>
      </trkpt>
      <trkpt lat="45.15854" lon="-0.5639">
        <ele>24.7</ele>
        <time>2020-09-03T07:10:41Z</time>
      </trkpt>
      <trkpt lat="45.15855" lon="-0.56389">
        <ele>24.7</ele>
        <time>2020-09-03T07:10:42Z</time>
      </trkpt>
      <trkpt lat="45.15856" lon="-0.56388">
        <ele>24.6</ele>
        <time>2020-09-03T07:10:44Z</time>
      </trkpt>
      <trkpt lat="45.15857" lon="-0.56387">
        <ele>24.6</ele>
        <time>2020-09-03T07:10:45Z</time>
      </trkpt>
      <trkpt lat="45.15858" lon="-0.56386">
        <ele>24.6</ele>
        <time>2020-09-03T07:10:46Z</time>
      </trkpt>
      <trkpt lat="45.15859" lon="-0.56385">
        <ele>24.6</ele>
        <time>2020-09-03T07:10:47Z</time>
      </trkpt>
      <trkpt lat="45.1586" lon="-0.56384">
        <ele>24.6</ele>
        <time>2020-09-03T07:10:49Z</time>
      </trkpt>
      <trkpt lat="45.1586" lon="-0.56382">
        <ele>24.6</ele>
        <time>2020-09-03T07:10:50Z</time>
      </trkpt>
      <trkpt lat="45.15861" lon="-0.5638">
        <ele>24.6</ele>
        <time>2020-09-03T07:10:52Z</time>
      </trkpt>
      <trkpt lat="45.15862" lon="-0.56378">
        <ele>24.5</ele>
        <time>2020-09-03T07:10:53Z</time>
      </trkpt>
      <trkpt lat="45.15863" lon="-0.56375">
        <ele>24.5</ele>
        <time>2020-09-03T07:10:54Z</time>
      </trkpt>
      <trkpt lat="45.15864" lon="-0.56374">
        <ele>24.4</ele>
        <time>2020-09-03T07:10:55Z</time>
      </trkpt>
      <trkpt lat="45.15865" lon="-0.5637">
        <ele>24.4</ele>
        <time>2020-09-03T07:10:57Z</time>
      </trkpt>
      <trkpt lat="45.15865" lon="-0.56369">
        <ele>24.4</ele>
        <time>2020-09-03T07:10:58Z</time>
      </trkpt>
      <trkpt lat="45.15866" lon="-0.56366">
        <ele>24.4</ele>
        <time>2020-09-03T07:11:00Z</time>
      </trkpt>
      <trkpt lat="45.15867" lon="-0.56365">
        <ele>24.3</ele>
        <time>2020-09-03T07:11:01Z</time>
      </trkpt>
      <trkpt lat="45.15869" lon="-0.56361">
        <ele>24.3</ele>
        <time>2020-09-03T07:11:02Z</time>
      </trkpt>
      <trkpt lat="45.15869" lon="-0.5636">
        <ele>24.2</ele>
        <time>2020-09-03T07:11:03Z</time>
      </trkpt>
      <trkpt lat="45.15871" lon="-0.56357">
        <ele>24.2</ele>
        <time>2020-09-03T07:11:05Z</time>
      </trkpt>
      <trkpt lat="45.15871" lon="-0.56356">
        <ele>24.1</ele>
        <time>2020-09-03T07:11:06Z</time>
      </trkpt>
      <trkpt lat="45.15873" lon="-0.56352">
        <ele>24.1</ele>
        <time>2020-09-03T07:11:07Z</time>
      </trkpt>
      <trkpt lat="45.15874" lon="-0.56351">
        <ele>24</ele>
        <time>2020-09-03T07:11:08Z</time>
      </trkpt>
      <trkpt lat="45.15876" lon="-0.56349">
        <ele>24</ele>
        <time>2020-09-03T07:11:10Z</time>
      </trkpt>
      <trkpt lat="45.15876" lon="-0.56348">
        <ele>23.9</ele>
        <time>2020-09-03T07:11:11Z</time>
      </trkpt>
      <trkpt lat="45.15877" lon="-0.56346">
        <ele>23.9</ele>
        <time>2020-09-03T07:11:12Z</time>
      </trkpt>
      <trkpt lat="45.15879" lon="-0.56344">
        <ele>23.9</ele>
        <time>2020-09-03T07:11:14Z</time>
      </trkpt>
      <trkpt lat="45.1588" lon="-0.56343">
        <ele>23.8</ele>
        <time>2020-09-03T07:11:15Z</time>
      </trkpt>
      <trkpt lat="45.15881" lon="-0.56341">
        <ele>23.7</ele>
        <time>2020-09-03T07:11:16Z</time>
      </trkpt>
      <trkpt lat="45.15882" lon="-0.5634">
        <ele>23.7</ele>
        <time>2020-09-03T07:11:17Z</time>
      </trkpt>
      <trkpt lat="45.15883" lon="-0.56338">
        <ele>23.7</ele>
        <time>2020-09-03T07:11:18Z</time>
      </trkpt>
      <trkpt lat="45.15884" lon="-0.56336">
        <ele>23.6</ele>
        <time>2020-09-03T07:11:19Z</time>
      </trkpt>
      <trkpt lat="45.15885" lon="-0.56334">
        <ele>23.6</ele>
        <time>2020-09-03T07:11:21Z</time>
      </trkpt>
      <trkpt lat="45.15886" lon="-0.56332">
        <ele>23.6</ele>
        <time>2020-09-03T07:11:22Z</time>
      </trkpt>
      <trkpt lat="45.15888" lon="-0.56329">
        <ele>23.5</ele>
        <time>2020-09-03T07:11:24Z</time>
      </trkpt>
      <trkpt lat="45.1589" lon="-0.56326">
        <ele>23.5</ele>
        <time>2020-09-03T07:11:26Z</time>
      </trkpt>
      <trkpt lat="45.15891" lon="-0.56325">
        <ele>23.5</ele>
        <time>2020-09-03T07:11:27Z</time>
      </trkpt>
      <trkpt lat="45.15891" lon="-0.56323">
        <ele>23.5</ele>
        <time>2020-09-03T07:11:29Z</time>
      </trkpt>
      <trkpt lat="45.15892" lon="-0.56321">
        <ele>23.4</ele>
        <time>2020-09-03T07:11:30Z</time>
      </trkpt>
      <trkpt lat="45.15893" lon="-0.5632">
        <ele>23.4</ele>
        <time>2020-09-03T07:11:31Z</time>
      </trkpt>
      <trkpt lat="45.15893" lon="-0.56319">
        <ele>23.4</ele>
        <time>2020-09-03T07:11:32Z</time>
      </trkpt>
      <trkpt lat="45.15894" lon="-0.56317">
        <ele>23.4</ele>
        <time>2020-09-03T07:11:33Z</time>
      </trkpt>
      <trkpt lat="45.15894" lon="-0.56316">
        <ele>23.4</ele>
        <time>2020-09-03T07:11:35Z</time>
      </trkpt>
      <trkpt lat="45.15895" lon="-0.56313">
        <ele>23.4</ele>
        <time>2020-09-03T07:11:37Z</time>
      </trkpt>
      <trkpt lat="45.15895" lon="-0.56313">
        <ele>23.4</ele>
        <time>2020-09-03T07:11:38Z</time>
      </trkpt>
      <trkpt lat="45.15895" lon="-0.56313">
        <ele>23.4</ele>
        <time>2020-09-03T07:11:40Z</time>
      </trkpt>
      <trkpt lat="45.15895" lon="-0.56313">
        <ele>23.4</ele>
        <time>2020-09-03T07:11:41Z</time>
      </trkpt>
      <trkpt lat="45.15896" lon="-0.56312">
        <ele>23.3</ele>
        <time>2020-09-03T07:11:42Z</time>
      </trkpt>
      <trkpt lat="45.15897" lon="-0.5631">
        <ele>23.3</ele>
        <time>2020-09-03T07:11:44Z</time>
      </trkpt>
      <trkpt lat="45.15899" lon="-0.56308">
        <ele>23.3</ele>
        <time>2020-09-03T07:11:45Z</time>
      </trkpt>
      <trkpt lat="45.159" lon="-0.56306">
        <ele>23.3</ele>
        <time>2020-09-03T07:11:47Z</time>
      </trkpt>
      <trkpt lat="45.15901" lon="-0.56304">
        <ele>23.3</ele>
        <time>2020-09-03T07:11:48Z</time>
      </trkpt>
      <trkpt lat="45.15901" lon="-0.56303">
        <ele>23.3</ele>
        <time>2020-09-03T07:11:49Z</time>
      </trkpt>
      <trkpt lat="45.15902" lon="-0.56302">
        <ele>23.2</ele>
        <time>2020-09-03T07:11:50Z</time>
      </trkpt>
      <trkpt lat="45.15903" lon="-0.563">
        <ele>23.2</ele>
        <time>2020-09-03T07:11:51Z</time>
      </trkpt>
      <trkpt lat="45.15904" lon="-0.56299">
        <ele>23.2</ele>
        <time>2020-09-03T07:11:53Z</time>
      </trkpt>
      <trkpt lat="45.15905" lon="-0.56297">
        <ele>23.2</ele>
        <time>2020-09-03T07:11:54Z</time>
      </trkpt>
      <trkpt lat="45.15906" lon="-0.56296">
        <ele>23.2</ele>
        <time>2020-09-03T07:11:55Z</time>
      </trkpt>
      <trkpt lat="45.15907" lon="-0.56295">
        <ele>23.2</ele>
        <time>2020-09-03T07:11:56Z</time>
      </trkpt>
      <trkpt lat="45.15908" lon="-0.56294">
        <ele>23.2</ele>
        <time>2020-09-03T07:11:57Z</time>
      </trkpt>
      <trkpt lat="45.15908" lon="-0.56293">
        <ele>23.2</ele>
        <time>2020-09-03T07:11:58Z</time>
      </trkpt>
      <trkpt lat="45.15909" lon="-0.56292">
        <ele>23.2</ele>
        <time>2020-09-03T07:11:59Z</time>
      </trkpt>
      <trkpt lat="45.1591" lon="-0.56292">
        <ele>23.3</ele>
        <time>2020-09-03T07:12:00Z</time>
      </trkpt>
      <trkpt lat="45.15911" lon="-0.56291">
        <ele>23.2</ele>
        <time>2020-09-03T07:12:01Z</time>
      </trkpt>
      <trkpt lat="45.15911" lon="-0.5629">
        <ele>23.2</ele>
        <time>2020-09-03T07:12:03Z</time>
      </trkpt>
      <trkpt lat="45.15912" lon="-0.56288">
        <ele>23.2</ele>
        <time>2020-09-03T07:12:04Z</time>
      </trkpt>
      <trkpt lat="45.15913" lon="-0.56287">
        <ele>23.3</ele>
        <time>2020-09-03T07:12:05Z</time>
      </trkpt>
      <trkpt lat="45.15913" lon="-0.56286">
        <ele>23.2</ele>
        <time>2020-09-03T07:12:06Z</time>
      </trkpt>
      <trkpt lat="45.15914" lon="-0.56284">
        <ele>23.2</ele>
        <time>2020-09-03T07:12:07Z</time>
      </trkpt>
      <trkpt lat="45.15915" lon="-0.56283">
        <ele>23.3</ele>
        <time>2020-09-03T07:12:08Z</time>
      </trkpt>
      <trkpt lat="45.15916" lon="-0.56281">
        <ele>23.3</ele>
        <time>2020-09-03T07:12:09Z</time>
      </trkpt>
      <trkpt lat="45.15917" lon="-0.5628">
        <ele>23.2</ele>
        <time>2020-09-03T07:12:11Z</time>
      </trkpt>
      <trkpt lat="45.15917" lon="-0.56279">
        <ele>23.2</ele>
        <time>2020-09-03T07:12:13Z</time>
      </trkpt>
      <trkpt lat="45.15917" lon="-0.56279">
        <ele>23.2</ele>
        <time>2020-09-03T07:12:15Z</time>
      </trkpt>
      <trkpt lat="45.15917" lon="-0.56279">
        <ele>23.3</ele>
        <time>2020-09-03T07:12:16Z</time>
      </trkpt>
      <trkpt lat="45.15918" lon="-0.56278">
        <ele>23.3</ele>
        <time>2020-09-03T07:12:17Z</time>
      </trkpt>
      <trkpt lat="45.15919" lon="-0.56276">
        <ele>23.3</ele>
        <time>2020-09-03T07:12:18Z</time>
      </trkpt>
      <trkpt lat="45.1592" lon="-0.56274">
        <ele>23.3</ele>
        <time>2020-09-03T07:12:19Z</time>
      </trkpt>
      <trkpt lat="45.15921" lon="-0.56273">
        <ele>23.3</ele>
        <time>2020-09-03T07:12:20Z</time>
      </trkpt>
      <trkpt lat="45.15922" lon="-0.5627">
        <ele>23.3</ele>
        <time>2020-09-03T07:12:22Z</time>
      </trkpt>
      <trkpt lat="45.15923" lon="-0.56269">
        <ele>23.3</ele>
        <time>2020-09-03T07:12:23Z</time>
      </trkpt>
      <trkpt lat="45.15923" lon="-0.56267">
        <ele>23.3</ele>
        <time>2020-09-03T07:12:25Z</time>
      </trkpt>
      <trkpt lat="45.15924" lon="-0.56265">
        <ele>23.4</ele>
        <time>2020-09-03T07:12:26Z</time>
      </trkpt>
      <trkpt lat="45.15925" lon="-0.56263">
        <ele>23.4</ele>
        <time>2020-09-03T07:12:27Z</time>
      </trkpt>
      <trkpt lat="45.15926" lon="-0.56261">
        <ele>23.4</ele>
        <time>2020-09-03T07:12:28Z</time>
      </trkpt>
      <trkpt lat="45.15926" lon="-0.5626">
        <ele>23.4</ele>
        <time>2020-09-03T07:12:29Z</time>
      </trkpt>
      <trkpt lat="45.15927" lon="-0.56259">
        <ele>23.4</ele>
        <time>2020-09-03T07:12:30Z</time>
      </trkpt>
      <trkpt lat="45.15927" lon="-0.56258">
        <ele>23.4</ele>
        <time>2020-09-03T07:12:31Z</time>
      </trkpt>
      <trkpt lat="45.15928" lon="-0.56256">
        <ele>23.4</ele>
        <time>2020-09-03T07:12:33Z</time>
      </trkpt>
      <trkpt lat="45.15929" lon="-0.56254">
        <ele>23.4</ele>
        <time>2020-09-03T07:12:35Z</time>
      </trkpt>
      <trkpt lat="45.1593" lon="-0.56253">
        <ele>23.4</ele>
        <time>2020-09-03T07:12:36Z</time>
      </trkpt>
      <trkpt lat="45.15931" lon="-0.56251">
        <ele>23.4</ele>
        <time>2020-09-03T07:12:37Z</time>
      </trkpt>
      <trkpt lat="45.15932" lon="-0.5625">
        <ele>23.4</ele>
        <time>2020-09-03T07:12:38Z</time>
      </trkpt>
      <trkpt lat="45.15933" lon="-0.56247">
        <ele>23.4</ele>
        <time>2020-09-03T07:12:40Z</time>
      </trkpt>
      <trkpt lat="45.15934" lon="-0.56245">
        <ele>23.4</ele>
        <time>2020-09-03T07:12:41Z</time>
      </trkpt>
      <trkpt lat="45.15935" lon="-0.56243">
        <ele>23.4</ele>
        <time>2020-09-03T07:12:43Z</time>
      </trkpt>
      <trkpt lat="45.15936" lon="-0.56242">
        <ele>23.4</ele>
        <time>2020-09-03T07:12:44Z</time>
      </trkpt>
      <trkpt lat="45.15937" lon="-0.5624">
        <ele>23.4</ele>
        <time>2020-09-03T07:12:46Z</time>
      </trkpt>
      <trkpt lat="45.15937" lon="-0.5624">
        <ele>23.4</ele>
        <time>2020-09-03T07:12:47Z</time>
      </trkpt>
      <trkpt lat="45.15937" lon="-0.56239">
        <ele>23.4</ele>
        <time>2020-09-03T07:12:49Z</time>
      </trkpt>
      <trkpt lat="45.15937" lon="-0.56239">
        <ele>23.4</ele>
        <time>2020-09-03T07:12:51Z</time>
      </trkpt>
      <trkpt lat="45.15937" lon="-0.56239">
        <ele>23.4</ele>
        <time>2020-09-03T07:12:52Z</time>
      </trkpt>
      <trkpt lat="45.15937" lon="-0.56239">
        <ele>23.4</ele>
        <time>2020-09-03T07:12:54Z</time>
      </trkpt>
      <trkpt lat="45.15938" lon="-0.56238">
        <ele>23.4</ele>
        <time>2020-09-03T07:12:56Z</time>
      </trkpt>
      <trkpt lat="45.15938" lon="-0.56238">
        <ele>23.4</ele>
        <time>2020-09-03T07:12:57Z</time>
      </trkpt>
      <trkpt lat="45.15938" lon="-0.56237">
        <ele>23.4</ele>
        <time>2020-09-03T07:12:58Z</time>
      </trkpt>
      <trkpt lat="45.15939" lon="-0.56236">
        <ele>23.4</ele>
        <time>2020-09-03T07:12:59Z</time>
      </trkpt>
      <trkpt lat="45.1594" lon="-0.56235">
        <ele>23.4</ele>
        <time>2020-09-03T07:13:00Z</time>
      </trkpt>
      <trkpt lat="45.15941" lon="-0.56233">
        <ele>23.3</ele>
        <time>2020-09-03T07:13:02Z</time>
      </trkpt>
      <trkpt lat="45.15942" lon="-0.56232">
        <ele>23.3</ele>
        <time>2020-09-03T07:13:03Z</time>
      </trkpt>
      <trkpt lat="45.15943" lon="-0.56231">
        <ele>23.3</ele>
        <time>2020-09-03T07:13:04Z</time>
      </trkpt>
      <trkpt lat="45.15944" lon="-0.5623">
        <ele>23.3</ele>
        <time>2020-09-03T07:13:05Z</time>
      </trkpt>
      <trkpt lat="45.15945" lon="-0.56229">
        <ele>23.3</ele>
        <time>2020-09-03T07:13:06Z</time>
      </trkpt>
      <trkpt lat="45.15946" lon="-0.56228">
        <ele>23.3</ele>
        <time>2020-09-03T07:13:07Z</time>
      </trkpt>
      <trkpt lat="45.15947" lon="-0.56227">
        <ele>23.2</ele>
        <time>2020-09-03T07:13:09Z</time>
      </trkpt>
      <trkpt lat="45.15948" lon="-0.56226">
        <ele>23.2</ele>
        <time>2020-09-03T07:13:10Z</time>
      </trkpt>
      <trkpt lat="45.1595" lon="-0.56225">
        <ele>23.2</ele>
        <time>2020-09-03T07:13:12Z</time>
      </trkpt>
      <trkpt lat="45.1595" lon="-0.56225">
        <ele>23.2</ele>
        <time>2020-09-03T07:13:14Z</time>
      </trkpt>
      <trkpt lat="45.15951" lon="-0.56224">
        <ele>23.2</ele>
        <time>2020-09-03T07:13:15Z</time>
      </trkpt>
      <trkpt lat="45.15952" lon="-0.56224">
        <ele>23.2</ele>
        <time>2020-09-03T07:13:16Z</time>
      </trkpt>
      <trkpt lat="45.15952" lon="-0.56223">
        <ele>23.2</ele>
        <time>2020-09-03T07:13:17Z</time>
      </trkpt>
      <trkpt lat="45.15953" lon="-0.56223">
        <ele>23.1</ele>
        <time>2020-09-03T07:13:18Z</time>
      </trkpt>
      <trkpt lat="45.15954" lon="-0.56223">
        <ele>23.1</ele>
        <time>2020-09-03T07:13:19Z</time>
      </trkpt>
      <trkpt lat="45.15954" lon="-0.56222">
        <ele>23.1</ele>
        <time>2020-09-03T07:13:21Z</time>
      </trkpt>
      <trkpt lat="45.15955" lon="-0.56222">
        <ele>23.1</ele>
        <time>2020-09-03T07:13:22Z</time>
      </trkpt>
      <trkpt lat="45.15956" lon="-0.56222">
        <ele>23.1</ele>
        <time>2020-09-03T07:13:24Z</time>
      </trkpt>
      <trkpt lat="45.15956" lon="-0.56221">
        <ele>23</ele>
        <time>2020-09-03T07:13:25Z</time>
      </trkpt>
      <trkpt lat="45.15957" lon="-0.56221">
        <ele>23</ele>
        <time>2020-09-03T07:13:26Z</time>
      </trkpt>
      <trkpt lat="45.15958" lon="-0.5622">
        <ele>23</ele>
        <time>2020-09-03T07:13:27Z</time>
      </trkpt>
      <trkpt lat="45.15959" lon="-0.56219">
        <ele>23</ele>
        <time>2020-09-03T07:13:28Z</time>
      </trkpt>
      <trkpt lat="45.15959" lon="-0.56217">
        <ele>22.9</ele>
        <time>2020-09-03T07:13:29Z</time>
      </trkpt>
      <trkpt lat="45.1596" lon="-0.56216">
        <ele>22.9</ele>
        <time>2020-09-03T07:13:30Z</time>
      </trkpt>
      <trkpt lat="45.15961" lon="-0.56214">
        <ele>22.9</ele>
        <time>2020-09-03T07:13:32Z</time>
      </trkpt>
      <trkpt lat="45.15962" lon="-0.56211">
        <ele>22.9</ele>
        <time>2020-09-03T07:13:33Z</time>
      </trkpt>
      <trkpt lat="45.15962" lon="-0.5621">
        <ele>22.8</ele>
        <time>2020-09-03T07:13:34Z</time>
      </trkpt>
      <trkpt lat="45.15963" lon="-0.56207">
        <ele>22.8</ele>
        <time>2020-09-03T07:13:35Z</time>
      </trkpt>
      <trkpt lat="45.15963" lon="-0.56206">
        <ele>22.7</ele>
        <time>2020-09-03T07:13:36Z</time>
      </trkpt>
      <trkpt lat="45.15963" lon="-0.56204">
        <ele>22.7</ele>
        <time>2020-09-03T07:13:37Z</time>
      </trkpt>
      <trkpt lat="45.15963" lon="-0.56201">
        <ele>22.6</ele>
        <time>2020-09-03T07:13:39Z</time>
      </trkpt>
      <trkpt lat="45.15964" lon="-0.562">
        <ele>22.6</ele>
        <time>2020-09-03T07:13:40Z</time>
      </trkpt>
      <trkpt lat="45.15964" lon="-0.56198">
        <ele>22.6</ele>
        <time>2020-09-03T07:13:41Z</time>
      </trkpt>
      <trkpt lat="45.15964" lon="-0.56195">
        <ele>22.5</ele>
        <time>2020-09-03T07:13:42Z</time>
      </trkpt>
      <trkpt lat="45.15964" lon="-0.56193">
        <ele>22.5</ele>
        <time>2020-09-03T07:13:43Z</time>
      </trkpt>
      <trkpt lat="45.15964" lon="-0.56191">
        <ele>22.5</ele>
        <time>2020-09-03T07:13:45Z</time>
      </trkpt>
      <trkpt lat="45.15964" lon="-0.56189">
        <ele>22.5</ele>
        <time>2020-09-03T07:13:46Z</time>
      </trkpt>
      <trkpt lat="45.15963" lon="-0.56187">
        <ele>22.4</ele>
        <time>2020-09-03T07:13:47Z</time>
      </trkpt>
      <trkpt lat="45.15963" lon="-0.56185">
        <ele>22.4</ele>
        <time>2020-09-03T07:13:48Z</time>
      </trkpt>
      <trkpt lat="45.15963" lon="-0.56182">
        <ele>22.3</ele>
        <time>2020-09-03T07:13:50Z</time>
      </trkpt>
      <trkpt lat="45.15962" lon="-0.56181">
        <ele>22.3</ele>
        <time>2020-09-03T07:13:51Z</time>
      </trkpt>
      <trkpt lat="45.15962" lon="-0.5618">
        <ele>22.2</ele>
        <time>2020-09-03T07:13:52Z</time>
      </trkpt>
      <trkpt lat="45.15962" lon="-0.56177">
        <ele>22.3</ele>
        <time>2020-09-03T07:13:54Z</time>
      </trkpt>
      <trkpt lat="45.15962" lon="-0.56176">
        <ele>22.3</ele>
        <time>2020-09-03T07:13:55Z</time>
      </trkpt>
      <trkpt lat="45.15962" lon="-0.56175">
        <ele>22.3</ele>
        <time>2020-09-03T07:13:56Z</time>
      </trkpt>
      <trkpt lat="45.15962" lon="-0.56173">
        <ele>22.3</ele>
        <time>2020-09-03T07:13:58Z</time>
      </trkpt>
      <trkpt lat="45.15962" lon="-0.56172">
        <ele>22.3</ele>
        <time>2020-09-03T07:13:59Z</time>
      </trkpt>
      <trkpt lat="45.15962" lon="-0.5617">
        <ele>22.2</ele>
        <time>2020-09-03T07:14:00Z</time>
      </trkpt>
      <trkpt lat="45.15962" lon="-0.56168">
        <ele>22.2</ele>
        <time>2020-09-03T07:14:01Z</time>
      </trkpt>
      <trkpt lat="45.15962" lon="-0.56167">
        <ele>22.1</ele>
        <time>2020-09-03T07:14:03Z</time>
      </trkpt>
      <trkpt lat="45.15962" lon="-0.56166">
        <ele>22.1</ele>
        <time>2020-09-03T07:14:04Z</time>
      </trkpt>
      <trkpt lat="45.15962" lon="-0.56165">
        <ele>22.1</ele>
        <time>2020-09-03T07:14:05Z</time>
      </trkpt>
      <trkpt lat="45.15963" lon="-0.56165">
        <ele>22.1</ele>
        <time>2020-09-03T07:14:07Z</time>
      </trkpt>
      <trkpt lat="45.15964" lon="-0.56164">
        <ele>22.1</ele>
        <time>2020-09-03T07:14:08Z</time>
      </trkpt>
      <trkpt lat="45.15965" lon="-0.56161">
        <ele>22.1</ele>
        <time>2020-09-03T07:14:11Z</time>
      </trkpt>
      <trkpt lat="45.15967" lon="-0.56159">
        <ele>22</ele>
        <time>2020-09-03T07:14:12Z</time>
      </trkpt>
      <trkpt lat="45.15967" lon="-0.56157">
        <ele>22</ele>
        <time>2020-09-03T07:14:14Z</time>
      </trkpt>
      <trkpt lat="45.15969" lon="-0.56153">
        <ele>21.9</ele>
        <time>2020-09-03T07:14:16Z</time>
      </trkpt>
      <trkpt lat="45.1597" lon="-0.56152">
        <ele>21.9</ele>
        <time>2020-09-03T07:14:17Z</time>
      </trkpt>
      <trkpt lat="45.1597" lon="-0.56149">
        <ele>21.9</ele>
        <time>2020-09-03T07:14:18Z</time>
      </trkpt>
      <trkpt lat="45.15971" lon="-0.56147">
        <ele>21.9</ele>
        <time>2020-09-03T07:14:19Z</time>
      </trkpt>
      <trkpt lat="45.15971" lon="-0.56145">
        <ele>21.9</ele>
        <time>2020-09-03T07:14:20Z</time>
      </trkpt>
      <trkpt lat="45.15972" lon="-0.56143">
        <ele>21.9</ele>
        <time>2020-09-03T07:14:21Z</time>
      </trkpt>
      <trkpt lat="45.15972" lon="-0.56141">
        <ele>21.9</ele>
        <time>2020-09-03T07:14:22Z</time>
      </trkpt>
      <trkpt lat="45.15972" lon="-0.56139">
        <ele>21.9</ele>
        <time>2020-09-03T07:14:23Z</time>
      </trkpt>
      <trkpt lat="45.15973" lon="-0.56138">
        <ele>22</ele>
        <time>2020-09-03T07:14:24Z</time>
      </trkpt>
      <trkpt lat="45.15973" lon="-0.56136">
        <ele>22</ele>
        <time>2020-09-03T07:14:26Z</time>
      </trkpt>
      <trkpt lat="45.15974" lon="-0.56134">
        <ele>21.9</ele>
        <time>2020-09-03T07:14:27Z</time>
      </trkpt>
      <trkpt lat="45.15974" lon="-0.56132">
        <ele>22</ele>
        <time>2020-09-03T07:14:28Z</time>
      </trkpt>
      <trkpt lat="45.15976" lon="-0.56128">
        <ele>22.1</ele>
        <time>2020-09-03T07:14:29Z</time>
      </trkpt>
      <trkpt lat="45.15976" lon="-0.56127">
        <ele>22.1</ele>
        <time>2020-09-03T07:14:30Z</time>
      </trkpt>
      <trkpt lat="45.15976" lon="-0.56125">
        <ele>22.1</ele>
        <time>2020-09-03T07:14:31Z</time>
      </trkpt>
      <trkpt lat="45.15977" lon="-0.56123">
        <ele>22.1</ele>
        <time>2020-09-03T07:14:32Z</time>
      </trkpt>
      <trkpt lat="45.15977" lon="-0.56121">
        <ele>22.1</ele>
        <time>2020-09-03T07:14:34Z</time>
      </trkpt>
      <trkpt lat="45.15977" lon="-0.56119">
        <ele>22.2</ele>
        <time>2020-09-03T07:14:35Z</time>
      </trkpt>
      <trkpt lat="45.15978" lon="-0.56116">
        <ele>22.3</ele>
        <time>2020-09-03T07:14:36Z</time>
      </trkpt>
      <trkpt lat="45.15978" lon="-0.56115">
        <ele>22.3</ele>
        <time>2020-09-03T07:14:37Z</time>
      </trkpt>
      <trkpt lat="45.15978" lon="-0.56114">
        <ele>22.3</ele>
        <time>2020-09-03T07:14:38Z</time>
      </trkpt>
      <trkpt lat="45.15979" lon="-0.56112">
        <ele>22.3</ele>
        <time>2020-09-03T07:14:39Z</time>
      </trkpt>
      <trkpt lat="45.1598" lon="-0.56111">
        <ele>22.4</ele>
        <time>2020-09-03T07:14:41Z</time>
      </trkpt>
      <trkpt lat="45.1598" lon="-0.56109">
        <ele>22.4</ele>
        <time>2020-09-03T07:14:42Z</time>
      </trkpt>
      <trkpt lat="45.15981" lon="-0.56108">
        <ele>22.4</ele>
        <time>2020-09-03T07:14:43Z</time>
      </trkpt>
      <trkpt lat="45.15983" lon="-0.56107">
        <ele>22.5</ele>
        <time>2020-09-03T07:14:45Z</time>
      </trkpt>
      <trkpt lat="45.15983" lon="-0.56106">
        <ele>22.4</ele>
        <time>2020-09-03T07:14:46Z</time>
      </trkpt>
      <trkpt lat="45.15985" lon="-0.56104">
        <ele>22.4</ele>
        <time>2020-09-03T07:14:47Z</time>
      </trkpt>
      <trkpt lat="45.15986" lon="-0.56102">
        <ele>22.5</ele>
        <time>2020-09-03T07:14:48Z</time>
      </trkpt>
      <trkpt lat="45.15986" lon="-0.56101">
        <ele>22.5</ele>
        <time>2020-09-03T07:14:49Z</time>
      </trkpt>
      <trkpt lat="45.15987" lon="-0.561">
        <ele>22.5</ele>
        <time>2020-09-03T07:14:50Z</time>
      </trkpt>
      <trkpt lat="45.15988" lon="-0.56097">
        <ele>22.6</ele>
        <time>2020-09-03T07:14:52Z</time>
      </trkpt>
      <trkpt lat="45.15989" lon="-0.56096">
        <ele>22.6</ele>
        <time>2020-09-03T07:14:53Z</time>
      </trkpt>
      <trkpt lat="45.15989" lon="-0.56095">
        <ele>22.6</ele>
        <time>2020-09-03T07:14:54Z</time>
      </trkpt>
      <trkpt lat="45.1599" lon="-0.56094">
        <ele>22.7</ele>
        <time>2020-09-03T07:14:55Z</time>
      </trkpt>
      <trkpt lat="45.15991" lon="-0.56092">
        <ele>22.7</ele>
        <time>2020-09-03T07:14:56Z</time>
      </trkpt>
      <trkpt lat="45.15991" lon="-0.56091">
        <ele>22.7</ele>
        <time>2020-09-03T07:14:58Z</time>
      </trkpt>
      <trkpt lat="45.15992" lon="-0.5609">
        <ele>22.8</ele>
        <time>2020-09-03T07:14:59Z</time>
      </trkpt>
      <trkpt lat="45.15993" lon="-0.56089">
        <ele>22.8</ele>
        <time>2020-09-03T07:15:00Z</time>
      </trkpt>
      <trkpt lat="45.15994" lon="-0.56088">
        <ele>22.8</ele>
        <time>2020-09-03T07:15:01Z</time>
      </trkpt>
      <trkpt lat="45.15995" lon="-0.56086">
        <ele>22.9</ele>
        <time>2020-09-03T07:15:02Z</time>
      </trkpt>
      <trkpt lat="45.15996" lon="-0.56084">
        <ele>22.9</ele>
        <time>2020-09-03T07:15:03Z</time>
      </trkpt>
      <trkpt lat="45.15997" lon="-0.56083">
        <ele>22.9</ele>
        <time>2020-09-03T07:15:04Z</time>
      </trkpt>
      <trkpt lat="45.15998" lon="-0.5608">
        <ele>23</ele>
        <time>2020-09-03T07:15:06Z</time>
      </trkpt>
      <trkpt lat="45.15999" lon="-0.56078">
        <ele>23</ele>
        <time>2020-09-03T07:15:07Z</time>
      </trkpt>
      <trkpt lat="45.15999" lon="-0.56076">
        <ele>23.1</ele>
        <time>2020-09-03T07:15:08Z</time>
      </trkpt>
      <trkpt lat="45.16" lon="-0.56075">
        <ele>23.1</ele>
        <time>2020-09-03T07:15:09Z</time>
      </trkpt>
      <trkpt lat="45.16001" lon="-0.56073">
        <ele>23.2</ele>
        <time>2020-09-03T07:15:10Z</time>
      </trkpt>
      <trkpt lat="45.16002" lon="-0.56071">
        <ele>23.2</ele>
        <time>2020-09-03T07:15:12Z</time>
      </trkpt>
      <trkpt lat="45.16003" lon="-0.5607">
        <ele>23.2</ele>
        <time>2020-09-03T07:15:13Z</time>
      </trkpt>
      <trkpt lat="45.16004" lon="-0.56069">
        <ele>23.3</ele>
        <time>2020-09-03T07:15:14Z</time>
      </trkpt>
      <trkpt lat="45.16005" lon="-0.56066">
        <ele>23.3</ele>
        <time>2020-09-03T07:15:15Z</time>
      </trkpt>
      <trkpt lat="45.16006" lon="-0.56065">
        <ele>23.3</ele>
        <time>2020-09-03T07:15:16Z</time>
      </trkpt>
      <trkpt lat="45.16006" lon="-0.56064">
        <ele>23.4</ele>
        <time>2020-09-03T07:15:17Z</time>
      </trkpt>
      <trkpt lat="45.16007" lon="-0.56063">
        <ele>23.4</ele>
        <time>2020-09-03T07:15:18Z</time>
      </trkpt>
      <trkpt lat="45.16008" lon="-0.56062">
        <ele>23.4</ele>
        <time>2020-09-03T07:15:19Z</time>
      </trkpt>
      <trkpt lat="45.16009" lon="-0.5606">
        <ele>23.5</ele>
        <time>2020-09-03T07:15:20Z</time>
      </trkpt>
      <trkpt lat="45.16011" lon="-0.56057">
        <ele>23.5</ele>
        <time>2020-09-03T07:15:21Z</time>
      </trkpt>
      <trkpt lat="45.16012" lon="-0.56056">
        <ele>23.6</ele>
        <time>2020-09-03T07:15:23Z</time>
      </trkpt>
      <trkpt lat="45.16013" lon="-0.56054">
        <ele>23.6</ele>
        <time>2020-09-03T07:15:24Z</time>
      </trkpt>
      <trkpt lat="45.16013" lon="-0.56053">
        <ele>23.6</ele>
        <time>2020-09-03T07:15:25Z</time>
      </trkpt>
      <trkpt lat="45.16015" lon="-0.56051">
        <ele>23.7</ele>
        <time>2020-09-03T07:15:27Z</time>
      </trkpt>
      <trkpt lat="45.16016" lon="-0.5605">
        <ele>23.7</ele>
        <time>2020-09-03T07:15:28Z</time>
      </trkpt>
      <trkpt lat="45.16017" lon="-0.56048">
        <ele>23.7</ele>
        <time>2020-09-03T07:15:29Z</time>
      </trkpt>
      <trkpt lat="45.16018" lon="-0.56047">
        <ele>23.8</ele>
        <time>2020-09-03T07:15:31Z</time>
      </trkpt>
      <trkpt lat="45.16019" lon="-0.56045">
        <ele>23.8</ele>
        <time>2020-09-03T07:15:32Z</time>
      </trkpt>
      <trkpt lat="45.1602" lon="-0.56043">
        <ele>23.8</ele>
        <time>2020-09-03T07:15:33Z</time>
      </trkpt>
      <trkpt lat="45.16021" lon="-0.56041">
        <ele>23.9</ele>
        <time>2020-09-03T07:15:34Z</time>
      </trkpt>
      <trkpt lat="45.16021" lon="-0.5604">
        <ele>23.9</ele>
        <time>2020-09-03T07:15:35Z</time>
      </trkpt>
      <trkpt lat="45.16022" lon="-0.56039">
        <ele>24</ele>
        <time>2020-09-03T07:15:36Z</time>
      </trkpt>
      <trkpt lat="45.16022" lon="-0.56037">
        <ele>24</ele>
        <time>2020-09-03T07:15:37Z</time>
      </trkpt>
      <trkpt lat="45.16023" lon="-0.56036">
        <ele>24</ele>
        <time>2020-09-03T07:15:38Z</time>
      </trkpt>
      <trkpt lat="45.16024" lon="-0.56035">
        <ele>24</ele>
        <time>2020-09-03T07:15:40Z</time>
      </trkpt>
      <trkpt lat="45.16025" lon="-0.56033">
        <ele>24.2</ele>
        <time>2020-09-03T07:15:41Z</time>
      </trkpt>
      <trkpt lat="45.16027" lon="-0.56031">
        <ele>24.2</ele>
        <time>2020-09-03T07:15:43Z</time>
      </trkpt>
      <trkpt lat="45.16028" lon="-0.56029">
        <ele>24.4</ele>
        <time>2020-09-03T07:15:44Z</time>
      </trkpt>
      <trkpt lat="45.16029" lon="-0.56027">
        <ele>24.4</ele>
        <time>2020-09-03T07:15:45Z</time>
      </trkpt>
      <trkpt lat="45.16029" lon="-0.56026">
        <ele>24.4</ele>
        <time>2020-09-03T07:15:46Z</time>
      </trkpt>
      <trkpt lat="45.16031" lon="-0.56023">
        <ele>24.6</ele>
        <time>2020-09-03T07:15:48Z</time>
      </trkpt>
      <trkpt lat="45.16031" lon="-0.56022">
        <ele>24.7</ele>
        <time>2020-09-03T07:15:49Z</time>
      </trkpt>
      <trkpt lat="45.16032" lon="-0.5602">
        <ele>24.7</ele>
        <time>2020-09-03T07:15:50Z</time>
      </trkpt>
      <trkpt lat="45.16033" lon="-0.56018">
        <ele>24.7</ele>
        <time>2020-09-03T07:15:51Z</time>
      </trkpt>
      <trkpt lat="45.16034" lon="-0.56016">
        <ele>24.8</ele>
        <time>2020-09-03T07:15:52Z</time>
      </trkpt>
      <trkpt lat="45.16035" lon="-0.56015">
        <ele>24.8</ele>
        <time>2020-09-03T07:15:54Z</time>
      </trkpt>
      <trkpt lat="45.16036" lon="-0.56012">
        <ele>25</ele>
        <time>2020-09-03T07:15:56Z</time>
      </trkpt>
      <trkpt lat="45.16037" lon="-0.56011">
        <ele>25</ele>
        <time>2020-09-03T07:15:57Z</time>
      </trkpt>
      <trkpt lat="45.16038" lon="-0.56009">
        <ele>25</ele>
        <time>2020-09-03T07:15:58Z</time>
      </trkpt>
      <trkpt lat="45.16038" lon="-0.56008">
        <ele>25.1</ele>
        <time>2020-09-03T07:15:59Z</time>
      </trkpt>
      <trkpt lat="45.16039" lon="-0.56006">
        <ele>25.1</ele>
        <time>2020-09-03T07:16:01Z</time>
      </trkpt>
      <trkpt lat="45.1604" lon="-0.56004">
        <ele>25.2</ele>
        <time>2020-09-03T07:16:02Z</time>
      </trkpt>
      <trkpt lat="45.16041" lon="-0.56002">
        <ele>25.2</ele>
        <time>2020-09-03T07:16:03Z</time>
      </trkpt>
      <trkpt lat="45.16041" lon="-0.56001">
        <ele>25.2</ele>
        <time>2020-09-03T07:16:04Z</time>
      </trkpt>
      <trkpt lat="45.16042" lon="-0.55999">
        <ele>25.3</ele>
        <time>2020-09-03T07:16:05Z</time>
      </trkpt>
      <trkpt lat="45.16043" lon="-0.55996">
        <ele>25.3</ele>
        <time>2020-09-03T07:16:07Z</time>
      </trkpt>
      <trkpt lat="45.16044" lon="-0.55995">
        <ele>25.5</ele>
        <time>2020-09-03T07:16:08Z</time>
      </trkpt>
      <trkpt lat="45.16045" lon="-0.55993">
        <ele>25.5</ele>
        <time>2020-09-03T07:16:09Z</time>
      </trkpt>
      <trkpt lat="45.16046" lon="-0.55992">
        <ele>25.5</ele>
        <time>2020-09-03T07:16:10Z</time>
      </trkpt>
      <trkpt lat="45.16046" lon="-0.55991">
        <ele>25.6</ele>
        <time>2020-09-03T07:16:11Z</time>
      </trkpt>
      <trkpt lat="45.16047" lon="-0.55989">
        <ele>25.6</ele>
        <time>2020-09-03T07:16:12Z</time>
      </trkpt>
      <trkpt lat="45.16049" lon="-0.55988">
        <ele>25.6</ele>
        <time>2020-09-03T07:16:13Z</time>
      </trkpt>
      <trkpt lat="45.1605" lon="-0.55986">
        <ele>25.7</ele>
        <time>2020-09-03T07:16:14Z</time>
      </trkpt>
      <trkpt lat="45.16051" lon="-0.55984">
        <ele>25.7</ele>
        <time>2020-09-03T07:16:16Z</time>
      </trkpt>
      <trkpt lat="45.16053" lon="-0.55982">
        <ele>25.8</ele>
        <time>2020-09-03T07:16:17Z</time>
      </trkpt>
      <trkpt lat="45.16053" lon="-0.55981">
        <ele>25.9</ele>
        <time>2020-09-03T07:16:18Z</time>
      </trkpt>
      <trkpt lat="45.16055" lon="-0.55979">
        <ele>25.9</ele>
        <time>2020-09-03T07:16:20Z</time>
      </trkpt>
      <trkpt lat="45.16055" lon="-0.55978">
        <ele>25.9</ele>
        <time>2020-09-03T07:16:21Z</time>
      </trkpt>
      <trkpt lat="45.16056" lon="-0.55976">
        <ele>26</ele>
        <time>2020-09-03T07:16:22Z</time>
      </trkpt>
      <trkpt lat="45.16057" lon="-0.55974">
        <ele>26.1</ele>
        <time>2020-09-03T07:16:23Z</time>
      </trkpt>
      <trkpt lat="45.16058" lon="-0.55973">
        <ele>26.1</ele>
        <time>2020-09-03T07:16:25Z</time>
      </trkpt>
      <trkpt lat="45.16059" lon="-0.55971">
        <ele>26.1</ele>
        <time>2020-09-03T07:16:26Z</time>
      </trkpt>
      <trkpt lat="45.1606" lon="-0.5597">
        <ele>26.1</ele>
        <time>2020-09-03T07:16:27Z</time>
      </trkpt>
      <trkpt lat="45.16061" lon="-0.55967">
        <ele>26.1</ele>
        <time>2020-09-03T07:16:29Z</time>
      </trkpt>
      <trkpt lat="45.16062" lon="-0.55966">
        <ele>26.2</ele>
        <time>2020-09-03T07:16:30Z</time>
      </trkpt>
      <trkpt lat="45.16062" lon="-0.55965">
        <ele>26.2</ele>
        <time>2020-09-03T07:16:31Z</time>
      </trkpt>
      <trkpt lat="45.16064" lon="-0.55962">
        <ele>26.3</ele>
        <time>2020-09-03T07:16:33Z</time>
      </trkpt>
      <trkpt lat="45.16065" lon="-0.55959">
        <ele>26.3</ele>
        <time>2020-09-03T07:16:34Z</time>
      </trkpt>
      <trkpt lat="45.16066" lon="-0.55958">
        <ele>26.3</ele>
        <time>2020-09-03T07:16:35Z</time>
      </trkpt>
      <trkpt lat="45.16067" lon="-0.55956">
        <ele>26.4</ele>
        <time>2020-09-03T07:16:36Z</time>
      </trkpt>
      <trkpt lat="45.16068" lon="-0.55954">
        <ele>26.4</ele>
        <time>2020-09-03T07:16:38Z</time>
      </trkpt>
      <trkpt lat="45.16068" lon="-0.55953">
        <ele>26.4</ele>
        <time>2020-09-03T07:16:39Z</time>
      </trkpt>
      <trkpt lat="45.16069" lon="-0.55952">
        <ele>26.4</ele>
        <time>2020-09-03T07:16:40Z</time>
      </trkpt>
      <trkpt lat="45.1607" lon="-0.55949">
        <ele>26.5</ele>
        <time>2020-09-03T07:16:41Z</time>
      </trkpt>
      <trkpt lat="45.16071" lon="-0.55948">
        <ele>26.5</ele>
        <time>2020-09-03T07:16:42Z</time>
      </trkpt>
      <trkpt lat="45.16073" lon="-0.55946">
        <ele>26.5</ele>
        <time>2020-09-03T07:16:43Z</time>
      </trkpt>
      <trkpt lat="45.16074" lon="-0.55945">
        <ele>26.5</ele>
        <time>2020-09-03T07:16:45Z</time>
      </trkpt>
      <trkpt lat="45.16075" lon="-0.55944">
        <ele>26.6</ele>
        <time>2020-09-03T07:16:46Z</time>
      </trkpt>
      <trkpt lat="45.16075" lon="-0.55943">
        <ele>26.6</ele>
        <time>2020-09-03T07:16:47Z</time>
      </trkpt>
      <trkpt lat="45.16077" lon="-0.55943">
        <ele>26.6</ele>
        <time>2020-09-03T07:16:48Z</time>
      </trkpt>
      <trkpt lat="45.16078" lon="-0.55944">
        <ele>26.6</ele>
        <time>2020-09-03T07:16:49Z</time>
      </trkpt>
      <trkpt lat="45.16079" lon="-0.55945">
        <ele>26.5</ele>
        <time>2020-09-03T07:16:50Z</time>
      </trkpt>
      <trkpt lat="45.1608" lon="-0.55948">
        <ele>26.5</ele>
        <time>2020-09-03T07:16:52Z</time>
      </trkpt>
      <trkpt lat="45.1608" lon="-0.5595">
        <ele>26.5</ele>
        <time>2020-09-03T07:16:53Z</time>
      </trkpt>
      <trkpt lat="45.1608" lon="-0.55952">
        <ele>26.5</ele>
        <time>2020-09-03T07:16:54Z</time>
      </trkpt>
      <trkpt lat="45.1608" lon="-0.55954">
        <ele>26.4</ele>
        <time>2020-09-03T07:16:55Z</time>
      </trkpt>
      <trkpt lat="45.16081" lon="-0.55956">
        <ele>26.4</ele>
        <time>2020-09-03T07:16:56Z</time>
      </trkpt>
      <trkpt lat="45.16082" lon="-0.55958">
        <ele>26.4</ele>
        <time>2020-09-03T07:16:57Z</time>
      </trkpt>
      <trkpt lat="45.16082" lon="-0.5596">
        <ele>26.4</ele>
        <time>2020-09-03T07:16:58Z</time>
      </trkpt>
      <trkpt lat="45.16083" lon="-0.55963">
        <ele>26.4</ele>
        <time>2020-09-03T07:16:59Z</time>
      </trkpt>
      <trkpt lat="45.16083" lon="-0.55964">
        <ele>26.4</ele>
        <time>2020-09-03T07:17:01Z</time>
      </trkpt>
      <trkpt lat="45.16084" lon="-0.55965">
        <ele>26.4</ele>
        <time>2020-09-03T07:17:02Z</time>
      </trkpt>
      <trkpt lat="45.16084" lon="-0.55968">
        <ele>26.4</ele>
        <time>2020-09-03T07:17:03Z</time>
      </trkpt>
      <trkpt lat="45.16085" lon="-0.55969">
        <ele>26.4</ele>
        <time>2020-09-03T07:17:04Z</time>
      </trkpt>
      <trkpt lat="45.16085" lon="-0.55972">
        <ele>26.4</ele>
        <time>2020-09-03T07:17:06Z</time>
      </trkpt>
      <trkpt lat="45.16086" lon="-0.55973">
        <ele>26.4</ele>
        <time>2020-09-03T07:17:07Z</time>
      </trkpt>
      <trkpt lat="45.16086" lon="-0.55974">
        <ele>26.4</ele>
        <time>2020-09-03T07:17:08Z</time>
      </trkpt>
      <trkpt lat="45.16087" lon="-0.55977">
        <ele>26.4</ele>
        <time>2020-09-03T07:17:09Z</time>
      </trkpt>
      <trkpt lat="45.16087" lon="-0.55979">
        <ele>26.4</ele>
        <time>2020-09-03T07:17:10Z</time>
      </trkpt>
      <trkpt lat="45.16088" lon="-0.5598">
        <ele>26.4</ele>
        <time>2020-09-03T07:17:11Z</time>
      </trkpt>
      <trkpt lat="45.16089" lon="-0.55984">
        <ele>26.4</ele>
        <time>2020-09-03T07:17:13Z</time>
      </trkpt>
      <trkpt lat="45.16089" lon="-0.55986">
        <ele>26.4</ele>
        <time>2020-09-03T07:17:14Z</time>
      </trkpt>
      <trkpt lat="45.1609" lon="-0.55989">
        <ele>26.4</ele>
        <time>2020-09-03T07:17:16Z</time>
      </trkpt>
      <trkpt lat="45.1609" lon="-0.55991">
        <ele>26.4</ele>
        <time>2020-09-03T07:17:17Z</time>
      </trkpt>
      <trkpt lat="45.16091" lon="-0.55993">
        <ele>26.4</ele>
        <time>2020-09-03T07:17:19Z</time>
      </trkpt>
      <trkpt lat="45.16092" lon="-0.55995">
        <ele>26.4</ele>
        <time>2020-09-03T07:17:20Z</time>
      </trkpt>
      <trkpt lat="45.16093" lon="-0.55997">
        <ele>26.4</ele>
        <time>2020-09-03T07:17:22Z</time>
      </trkpt>
      <trkpt lat="45.16093" lon="-0.55998">
        <ele>26.4</ele>
        <time>2020-09-03T07:17:23Z</time>
      </trkpt>
      <trkpt lat="45.16095" lon="-0.56002">
        <ele>26.4</ele>
        <time>2020-09-03T07:17:25Z</time>
      </trkpt>
      <trkpt lat="45.16096" lon="-0.56004">
        <ele>26.4</ele>
        <time>2020-09-03T07:17:26Z</time>
      </trkpt>
      <trkpt lat="45.16096" lon="-0.56005">
        <ele>26.4</ele>
        <time>2020-09-03T07:17:27Z</time>
      </trkpt>
      <trkpt lat="45.16097" lon="-0.56007">
        <ele>26.4</ele>
        <time>2020-09-03T07:17:28Z</time>
      </trkpt>
      <trkpt lat="45.16098" lon="-0.56009">
        <ele>26.4</ele>
        <time>2020-09-03T07:17:29Z</time>
      </trkpt>
      <trkpt lat="45.16099" lon="-0.5601">
        <ele>26.3</ele>
        <time>2020-09-03T07:17:30Z</time>
      </trkpt>
      <trkpt lat="45.161" lon="-0.56012">
        <ele>26.3</ele>
        <time>2020-09-03T07:17:31Z</time>
      </trkpt>
      <trkpt lat="45.16101" lon="-0.56014">
        <ele>26.3</ele>
        <time>2020-09-03T07:17:32Z</time>
      </trkpt>
      <trkpt lat="45.16102" lon="-0.56017">
        <ele>26.3</ele>
        <time>2020-09-03T07:17:34Z</time>
      </trkpt>
      <trkpt lat="45.16103" lon="-0.56018">
        <ele>26.3</ele>
        <time>2020-09-03T07:17:35Z</time>
      </trkpt>
      <trkpt lat="45.16104" lon="-0.5602">
        <ele>26.3</ele>
        <time>2020-09-03T07:17:36Z</time>
      </trkpt>
      <trkpt lat="45.16105" lon="-0.56022">
        <ele>26.3</ele>
        <time>2020-09-03T07:17:37Z</time>
      </trkpt>
      <trkpt lat="45.16106" lon="-0.56023">
        <ele>26.3</ele>
        <time>2020-09-03T07:17:38Z</time>
      </trkpt>
      <trkpt lat="45.16107" lon="-0.56025">
        <ele>26.3</ele>
        <time>2020-09-03T07:17:40Z</time>
      </trkpt>
      <trkpt lat="45.16108" lon="-0.56027">
        <ele>26.3</ele>
        <time>2020-09-03T07:17:41Z</time>
      </trkpt>
      <trkpt lat="45.16109" lon="-0.56029">
        <ele>26.3</ele>
        <time>2020-09-03T07:17:42Z</time>
      </trkpt>
      <trkpt lat="45.1611" lon="-0.56031">
        <ele>26.3</ele>
        <time>2020-09-03T07:17:44Z</time>
      </trkpt>
      <trkpt lat="45.16111" lon="-0.56033">
        <ele>26.3</ele>
        <time>2020-09-03T07:17:45Z</time>
      </trkpt>
      <trkpt lat="45.16112" lon="-0.56034">
        <ele>26.3</ele>
        <time>2020-09-03T07:17:46Z</time>
      </trkpt>
      <trkpt lat="45.16113" lon="-0.56035">
        <ele>26.3</ele>
        <time>2020-09-03T07:17:47Z</time>
      </trkpt>
      <trkpt lat="45.16114" lon="-0.56037">
        <ele>26.3</ele>
        <time>2020-09-03T07:17:48Z</time>
      </trkpt>
      <trkpt lat="45.16115" lon="-0.56038">
        <ele>26.3</ele>
        <time>2020-09-03T07:17:49Z</time>
      </trkpt>
      <trkpt lat="45.16117" lon="-0.5604">
        <ele>26.4</ele>
        <time>2020-09-03T07:17:51Z</time>
      </trkpt>
      <trkpt lat="45.16118" lon="-0.56042">
        <ele>26.4</ele>
        <time>2020-09-03T07:17:52Z</time>
      </trkpt>
      <trkpt lat="45.16119" lon="-0.56043">
        <ele>26.4</ele>
        <time>2020-09-03T07:17:53Z</time>
      </trkpt>
      <trkpt lat="45.16121" lon="-0.56045">
        <ele>26.4</ele>
        <time>2020-09-03T07:17:55Z</time>
      </trkpt>
      <trkpt lat="45.16122" lon="-0.56046">
        <ele>26.4</ele>
        <time>2020-09-03T07:17:56Z</time>
      </trkpt>
      <trkpt lat="45.16124" lon="-0.5605">
        <ele>26.4</ele>
        <time>2020-09-03T07:17:58Z</time>
      </trkpt>
      <trkpt lat="45.16124" lon="-0.56051">
        <ele>26.4</ele>
        <time>2020-09-03T07:17:59Z</time>
      </trkpt>
      <trkpt lat="45.16125" lon="-0.56052">
        <ele>26.4</ele>
        <time>2020-09-03T07:18:00Z</time>
      </trkpt>
      <trkpt lat="45.16126" lon="-0.56053">
        <ele>26.4</ele>
        <time>2020-09-03T07:18:01Z</time>
      </trkpt>
      <trkpt lat="45.16127" lon="-0.56055">
        <ele>26.4</ele>
        <time>2020-09-03T07:18:02Z</time>
      </trkpt>
      <trkpt lat="45.16128" lon="-0.56056">
        <ele>26.4</ele>
        <time>2020-09-03T07:18:03Z</time>
      </trkpt>
      <trkpt lat="45.16129" lon="-0.56058">
        <ele>26.4</ele>
        <time>2020-09-03T07:18:05Z</time>
      </trkpt>
      <trkpt lat="45.1613" lon="-0.56059">
        <ele>26.4</ele>
        <time>2020-09-03T07:18:06Z</time>
      </trkpt>
      <trkpt lat="45.16131" lon="-0.56061">
        <ele>26.4</ele>
        <time>2020-09-03T07:18:07Z</time>
      </trkpt>
      <trkpt lat="45.16132" lon="-0.56062">
        <ele>26.4</ele>
        <time>2020-09-03T07:18:08Z</time>
      </trkpt>
      <trkpt lat="45.16134" lon="-0.56064">
        <ele>26.4</ele>
        <time>2020-09-03T07:18:09Z</time>
      </trkpt>
      <trkpt lat="45.16135" lon="-0.56065">
        <ele>26.4</ele>
        <time>2020-09-03T07:18:10Z</time>
      </trkpt>
      <trkpt lat="45.16135" lon="-0.56065">
        <ele>26.4</ele>
        <time>2020-09-03T07:18:11Z</time>
      </trkpt>
      <trkpt lat="45.16136" lon="-0.56067">
        <ele>26.4</ele>
        <time>2020-09-03T07:18:12Z</time>
      </trkpt>
      <trkpt lat="45.16137" lon="-0.56068">
        <ele>26.4</ele>
        <time>2020-09-03T07:18:13Z</time>
      </trkpt>
      <trkpt lat="45.16137" lon="-0.56069">
        <ele>26.4</ele>
        <time>2020-09-03T07:18:14Z</time>
      </trkpt>
      <trkpt lat="45.16138" lon="-0.5607">
        <ele>26.4</ele>
        <time>2020-09-03T07:18:15Z</time>
      </trkpt>
      <trkpt lat="45.16139" lon="-0.56072">
        <ele>26.4</ele>
        <time>2020-09-03T07:18:16Z</time>
      </trkpt>
      <trkpt lat="45.1614" lon="-0.56075">
        <ele>26.4</ele>
        <time>2020-09-03T07:18:19Z</time>
      </trkpt>
      <trkpt lat="45.16141" lon="-0.56077">
        <ele>26.4</ele>
        <time>2020-09-03T07:18:20Z</time>
      </trkpt>
      <trkpt lat="45.16142" lon="-0.56078">
        <ele>26.4</ele>
        <time>2020-09-03T07:18:21Z</time>
      </trkpt>
      <trkpt lat="45.16143" lon="-0.5608">
        <ele>26.4</ele>
        <time>2020-09-03T07:18:22Z</time>
      </trkpt>
      <trkpt lat="45.16143" lon="-0.56081">
        <ele>26.4</ele>
        <time>2020-09-03T07:18:23Z</time>
      </trkpt>
      <trkpt lat="45.16144" lon="-0.56082">
        <ele>26.4</ele>
        <time>2020-09-03T07:18:24Z</time>
      </trkpt>
      <trkpt lat="45.16145" lon="-0.56084">
        <ele>26.4</ele>
        <time>2020-09-03T07:18:26Z</time>
      </trkpt>
      <trkpt lat="45.16146" lon="-0.56085">
        <ele>26.4</ele>
        <time>2020-09-03T07:18:27Z</time>
      </trkpt>
      <trkpt lat="45.16146" lon="-0.56086">
        <ele>26.4</ele>
        <time>2020-09-03T07:18:28Z</time>
      </trkpt>
      <trkpt lat="45.16148" lon="-0.56088">
        <ele>26.4</ele>
        <time>2020-09-03T07:18:30Z</time>
      </trkpt>
      <trkpt lat="45.16149" lon="-0.56089">
        <ele>26.4</ele>
        <time>2020-09-03T07:18:31Z</time>
      </trkpt>
      <trkpt lat="45.1615" lon="-0.56091">
        <ele>26.4</ele>
        <time>2020-09-03T07:18:33Z</time>
      </trkpt>
      <trkpt lat="45.1615" lon="-0.56093">
        <ele>26.4</ele>
        <time>2020-09-03T07:18:34Z</time>
      </trkpt>
      <trkpt lat="45.16151" lon="-0.56096">
        <ele>26.4</ele>
        <time>2020-09-03T07:18:36Z</time>
      </trkpt>
      <trkpt lat="45.16152" lon="-0.56098">
        <ele>26.4</ele>
        <time>2020-09-03T07:18:37Z</time>
      </trkpt>
      <trkpt lat="45.16154" lon="-0.56102">
        <ele>26.4</ele>
        <time>2020-09-03T07:18:39Z</time>
      </trkpt>
      <trkpt lat="45.16156" lon="-0.56103">
        <ele>26.3</ele>
        <time>2020-09-03T07:18:41Z</time>
      </trkpt>
      <trkpt lat="45.16157" lon="-0.56105">
        <ele>26.3</ele>
        <time>2020-09-03T07:18:42Z</time>
      </trkpt>
      <trkpt lat="45.16159" lon="-0.56107">
        <ele>26.3</ele>
        <time>2020-09-03T07:18:44Z</time>
      </trkpt>
      <trkpt lat="45.1616" lon="-0.56109">
        <ele>26.3</ele>
        <time>2020-09-03T07:18:46Z</time>
      </trkpt>
      <trkpt lat="45.16162" lon="-0.5611">
        <ele>26.3</ele>
        <time>2020-09-03T07:18:48Z</time>
      </trkpt>
      <trkpt lat="45.16164" lon="-0.56112">
        <ele>26.3</ele>
        <time>2020-09-03T07:18:49Z</time>
      </trkpt>
      <trkpt lat="45.16165" lon="-0.56113">
        <ele>26.3</ele>
        <time>2020-09-03T07:18:50Z</time>
      </trkpt>
      <trkpt lat="45.16167" lon="-0.56115">
        <ele>26.3</ele>
        <time>2020-09-03T07:18:51Z</time>
      </trkpt>
      <trkpt lat="45.16169" lon="-0.56116">
        <ele>26.2</ele>
        <time>2020-09-03T07:18:53Z</time>
      </trkpt>
      <trkpt lat="45.1617" lon="-0.56117">
        <ele>26.2</ele>
        <time>2020-09-03T07:18:54Z</time>
      </trkpt>
      <trkpt lat="45.16171" lon="-0.56117">
        <ele>26.2</ele>
        <time>2020-09-03T07:18:55Z</time>
      </trkpt>
      <trkpt lat="45.16173" lon="-0.56118">
        <ele>26.2</ele>
        <time>2020-09-03T07:18:57Z</time>
      </trkpt>
      <trkpt lat="45.16174" lon="-0.5612">
        <ele>26.2</ele>
        <time>2020-09-03T07:18:58Z</time>
      </trkpt>
      <trkpt lat="45.16177" lon="-0.56122">
        <ele>26.2</ele>
        <time>2020-09-03T07:18:59Z</time>
      </trkpt>
      <trkpt lat="45.16178" lon="-0.56124">
        <ele>26.2</ele>
        <time>2020-09-03T07:19:00Z</time>
      </trkpt>
      <trkpt lat="45.16179" lon="-0.56127">
        <ele>26.2</ele>
        <time>2020-09-03T07:19:02Z</time>
      </trkpt>
      <trkpt lat="45.16181" lon="-0.56129">
        <ele>26.2</ele>
        <time>2020-09-03T07:19:04Z</time>
      </trkpt>
      <trkpt lat="45.16182" lon="-0.5613">
        <ele>26.2</ele>
        <time>2020-09-03T07:19:05Z</time>
      </trkpt>
      <trkpt lat="45.16183" lon="-0.56132">
        <ele>26.2</ele>
        <time>2020-09-03T07:19:06Z</time>
      </trkpt>
      <trkpt lat="45.16184" lon="-0.56134">
        <ele>26.2</ele>
        <time>2020-09-03T07:19:07Z</time>
      </trkpt>
      <trkpt lat="45.16186" lon="-0.56136">
        <ele>26.2</ele>
        <time>2020-09-03T07:19:09Z</time>
      </trkpt>
      <trkpt lat="45.16186" lon="-0.56137">
        <ele>26.2</ele>
        <time>2020-09-03T07:19:10Z</time>
      </trkpt>
      <trkpt lat="45.16187" lon="-0.56139">
        <ele>26.2</ele>
        <time>2020-09-03T07:19:11Z</time>
      </trkpt>
      <trkpt lat="45.16188" lon="-0.56142">
        <ele>26.1</ele>
        <time>2020-09-03T07:19:12Z</time>
      </trkpt>
      <trkpt lat="45.16188" lon="-0.56143">
        <ele>26.1</ele>
        <time>2020-09-03T07:19:14Z</time>
      </trkpt>
      <trkpt lat="45.1619" lon="-0.56145">
        <ele>26.1</ele>
        <time>2020-09-03T07:19:15Z</time>
      </trkpt>
      <trkpt lat="45.16192" lon="-0.56149">
        <ele>26.1</ele>
        <time>2020-09-03T07:19:17Z</time>
      </trkpt>
      <trkpt lat="45.16192" lon="-0.5615">
        <ele>26.1</ele>
        <time>2020-09-03T07:19:18Z</time>
      </trkpt>
      <trkpt lat="45.16193" lon="-0.56152">
        <ele>26.1</ele>
        <time>2020-09-03T07:19:19Z</time>
      </trkpt>
      <trkpt lat="45.16194" lon="-0.56154">
        <ele>26.1</ele>
        <time>2020-09-03T07:19:20Z</time>
      </trkpt>
      <trkpt lat="45.16195" lon="-0.56157">
        <ele>26.1</ele>
        <time>2020-09-03T07:19:22Z</time>
      </trkpt>
      <trkpt lat="45.16196" lon="-0.56158">
        <ele>26.1</ele>
        <time>2020-09-03T07:19:23Z</time>
      </trkpt>
      <trkpt lat="45.16196" lon="-0.5616">
        <ele>26.1</ele>
        <time>2020-09-03T07:19:24Z</time>
      </trkpt>
      <trkpt lat="45.16197" lon="-0.56162">
        <ele>26.1</ele>
        <time>2020-09-03T07:19:25Z</time>
      </trkpt>
      <trkpt lat="45.16199" lon="-0.56165">
        <ele>26.1</ele>
        <time>2020-09-03T07:19:26Z</time>
      </trkpt>
      <trkpt lat="45.162" lon="-0.56167">
        <ele>26.1</ele>
        <time>2020-09-03T07:19:27Z</time>
      </trkpt>
      <trkpt lat="45.16201" lon="-0.56168">
        <ele>26.1</ele>
        <time>2020-09-03T07:19:29Z</time>
      </trkpt>
      <trkpt lat="45.16203" lon="-0.5617">
        <ele>26.1</ele>
        <time>2020-09-03T07:19:30Z</time>
      </trkpt>
      <trkpt lat="45.16204" lon="-0.56173">
        <ele>26.1</ele>
        <time>2020-09-03T07:19:32Z</time>
      </trkpt>
      <trkpt lat="45.16205" lon="-0.56174">
        <ele>26.1</ele>
        <time>2020-09-03T07:19:33Z</time>
      </trkpt>
      <trkpt lat="45.16207" lon="-0.56178">
        <ele>26.1</ele>
        <time>2020-09-03T07:19:35Z</time>
      </trkpt>
      <trkpt lat="45.16209" lon="-0.5618">
        <ele>26.1</ele>
        <time>2020-09-03T07:19:37Z</time>
      </trkpt>
      <trkpt lat="45.16209" lon="-0.56182">
        <ele>26.1</ele>
        <time>2020-09-03T07:19:38Z</time>
      </trkpt>
      <trkpt lat="45.16211" lon="-0.56185">
        <ele>26.1</ele>
        <time>2020-09-03T07:19:40Z</time>
      </trkpt>
      <trkpt lat="45.16211" lon="-0.56186">
        <ele>26</ele>
        <time>2020-09-03T07:19:41Z</time>
      </trkpt>
      <trkpt lat="45.16212" lon="-0.56188">
        <ele>26</ele>
        <time>2020-09-03T07:19:42Z</time>
      </trkpt>
      <trkpt lat="45.16213" lon="-0.5619">
        <ele>26</ele>
        <time>2020-09-03T07:19:43Z</time>
      </trkpt>
      <trkpt lat="45.16214" lon="-0.56192">
        <ele>26</ele>
        <time>2020-09-03T07:19:45Z</time>
      </trkpt>
      <trkpt lat="45.16215" lon="-0.56194">
        <ele>26</ele>
        <time>2020-09-03T07:19:46Z</time>
      </trkpt>
      <trkpt lat="45.16217" lon="-0.56196">
        <ele>26</ele>
        <time>2020-09-03T07:19:48Z</time>
      </trkpt>
      <trkpt lat="45.16217" lon="-0.56198">
        <ele>26</ele>
        <time>2020-09-03T07:19:49Z</time>
      </trkpt>
      <trkpt lat="45.16218" lon="-0.56199">
        <ele>25.9</ele>
        <time>2020-09-03T07:19:50Z</time>
      </trkpt>
      <trkpt lat="45.16219" lon="-0.56201">
        <ele>25.9</ele>
        <time>2020-09-03T07:19:51Z</time>
      </trkpt>
      <trkpt lat="45.16221" lon="-0.56203">
        <ele>25.9</ele>
        <time>2020-09-03T07:19:52Z</time>
      </trkpt>
      <trkpt lat="45.16221" lon="-0.56205">
        <ele>25.9</ele>
        <time>2020-09-03T07:19:53Z</time>
      </trkpt>
      <trkpt lat="45.16222" lon="-0.56208">
        <ele>25.9</ele>
        <time>2020-09-03T07:19:55Z</time>
      </trkpt>
      <trkpt lat="45.16223" lon="-0.5621">
        <ele>25.9</ele>
        <time>2020-09-03T07:19:56Z</time>
      </trkpt>
      <trkpt lat="45.16224" lon="-0.56213">
        <ele>25.9</ele>
        <time>2020-09-03T07:19:58Z</time>
      </trkpt>
      <trkpt lat="45.16225" lon="-0.56215">
        <ele>25.9</ele>
        <time>2020-09-03T07:20:00Z</time>
      </trkpt>
      <trkpt lat="45.16226" lon="-0.56217">
        <ele>25.9</ele>
        <time>2020-09-03T07:20:01Z</time>
      </trkpt>
      <trkpt lat="45.16227" lon="-0.56219">
        <ele>25.9</ele>
        <time>2020-09-03T07:20:02Z</time>
      </trkpt>
      <trkpt lat="45.16228" lon="-0.56222">
        <ele>25.8</ele>
        <time>2020-09-03T07:20:04Z</time>
      </trkpt>
      <trkpt lat="45.16229" lon="-0.56223">
        <ele>25.8</ele>
        <time>2020-09-03T07:20:05Z</time>
      </trkpt>
      <trkpt lat="45.1623" lon="-0.56225">
        <ele>25.8</ele>
        <time>2020-09-03T07:20:06Z</time>
      </trkpt>
      <trkpt lat="45.1623" lon="-0.56227">
        <ele>25.8</ele>
        <time>2020-09-03T07:20:08Z</time>
      </trkpt>
      <trkpt lat="45.16231" lon="-0.56229">
        <ele>25.8</ele>
        <time>2020-09-03T07:20:09Z</time>
      </trkpt>
      <trkpt lat="45.16232" lon="-0.56231">
        <ele>25.8</ele>
        <time>2020-09-03T07:20:10Z</time>
      </trkpt>
      <trkpt lat="45.16233" lon="-0.56233">
        <ele>25.7</ele>
        <time>2020-09-03T07:20:12Z</time>
      </trkpt>
      <trkpt lat="45.16233" lon="-0.56235">
        <ele>25.7</ele>
        <time>2020-09-03T07:20:13Z</time>
      </trkpt>
      <trkpt lat="45.16234" lon="-0.56238">
        <ele>25.7</ele>
        <time>2020-09-03T07:20:14Z</time>
      </trkpt>
      <trkpt lat="45.16235" lon="-0.5624">
        <ele>25.7</ele>
        <time>2020-09-03T07:20:15Z</time>
      </trkpt>
      <trkpt lat="45.16235" lon="-0.56241">
        <ele>25.6</ele>
        <time>2020-09-03T07:20:16Z</time>
      </trkpt>
      <trkpt lat="45.16236" lon="-0.56242">
        <ele>25.6</ele>
        <time>2020-09-03T07:20:17Z</time>
      </trkpt>
      <trkpt lat="45.16239" lon="-0.56247">
        <ele>25.6</ele>
        <time>2020-09-03T07:20:19Z</time>
      </trkpt>
      <trkpt lat="45.16239" lon="-0.56249">
        <ele>25.5</ele>
        <time>2020-09-03T07:20:21Z</time>
      </trkpt>
      <trkpt lat="45.1624" lon="-0.5625">
        <ele>25.5</ele>
        <time>2020-09-03T07:20:22Z</time>
      </trkpt>
      <trkpt lat="45.16241" lon="-0.56252">
        <ele>25.5</ele>
        <time>2020-09-03T07:20:23Z</time>
      </trkpt>
      <trkpt lat="45.16242" lon="-0.56254">
        <ele>25.5</ele>
        <time>2020-09-03T07:20:24Z</time>
      </trkpt>
      <trkpt lat="45.16243" lon="-0.56255">
        <ele>25.4</ele>
        <time>2020-09-03T07:20:25Z</time>
      </trkpt>
      <trkpt lat="45.16244" lon="-0.56257">
        <ele>25.4</ele>
        <time>2020-09-03T07:20:26Z</time>
      </trkpt>
      <trkpt lat="45.16246" lon="-0.5626">
        <ele>25.4</ele>
        <time>2020-09-03T07:20:28Z</time>
      </trkpt>
      <trkpt lat="45.16247" lon="-0.56261">
        <ele>25.4</ele>
        <time>2020-09-03T07:20:29Z</time>
      </trkpt>
      <trkpt lat="45.16248" lon="-0.56262">
        <ele>25.4</ele>
        <time>2020-09-03T07:20:30Z</time>
      </trkpt>
      <trkpt lat="45.16249" lon="-0.56263">
        <ele>25.4</ele>
        <time>2020-09-03T07:20:31Z</time>
      </trkpt>
      <trkpt lat="45.1625" lon="-0.56265">
        <ele>25.3</ele>
        <time>2020-09-03T07:20:33Z</time>
      </trkpt>
      <trkpt lat="45.16251" lon="-0.56267">
        <ele>25.3</ele>
        <time>2020-09-03T07:20:34Z</time>
      </trkpt>
      <trkpt lat="45.16252" lon="-0.56268">
        <ele>25.3</ele>
        <time>2020-09-03T07:20:35Z</time>
      </trkpt>
      <trkpt lat="45.16253" lon="-0.5627">
        <ele>25.3</ele>
        <time>2020-09-03T07:20:36Z</time>
      </trkpt>
      <trkpt lat="45.16254" lon="-0.56271">
        <ele>25.3</ele>
        <time>2020-09-03T07:20:37Z</time>
      </trkpt>
      <trkpt lat="45.16255" lon="-0.56273">
        <ele>25.3</ele>
        <time>2020-09-03T07:20:39Z</time>
      </trkpt>
      <trkpt lat="45.16256" lon="-0.56275">
        <ele>25.2</ele>
        <time>2020-09-03T07:20:40Z</time>
      </trkpt>
      <trkpt lat="45.16257" lon="-0.56276">
        <ele>25.2</ele>
        <time>2020-09-03T07:20:41Z</time>
      </trkpt>
      <trkpt lat="45.16258" lon="-0.56277">
        <ele>25.2</ele>
        <time>2020-09-03T07:20:42Z</time>
      </trkpt>
      <trkpt lat="45.1626" lon="-0.5628">
        <ele>25.2</ele>
        <time>2020-09-03T07:20:44Z</time>
      </trkpt>
      <trkpt lat="45.1626" lon="-0.56281">
        <ele>25.2</ele>
        <time>2020-09-03T07:20:45Z</time>
      </trkpt>
      <trkpt lat="45.16261" lon="-0.56282">
        <ele>25.1</ele>
        <time>2020-09-03T07:20:47Z</time>
      </trkpt>
      <trkpt lat="45.16263" lon="-0.56286">
        <ele>25.1</ele>
        <time>2020-09-03T07:20:49Z</time>
      </trkpt>
      <trkpt lat="45.16265" lon="-0.56289">
        <ele>25</ele>
        <time>2020-09-03T07:20:50Z</time>
      </trkpt>
      <trkpt lat="45.16266" lon="-0.56291">
        <ele>25</ele>
        <time>2020-09-03T07:20:52Z</time>
      </trkpt>
      <trkpt lat="45.16267" lon="-0.56293">
        <ele>25</ele>
        <time>2020-09-03T07:20:53Z</time>
      </trkpt>
      <trkpt lat="45.16267" lon="-0.56294">
        <ele>25</ele>
        <time>2020-09-03T07:20:54Z</time>
      </trkpt>
      <trkpt lat="45.16268" lon="-0.56296">
        <ele>24.9</ele>
        <time>2020-09-03T07:20:55Z</time>
      </trkpt>
      <trkpt lat="45.16269" lon="-0.56297">
        <ele>24.9</ele>
        <time>2020-09-03T07:20:56Z</time>
      </trkpt>
      <trkpt lat="45.1627" lon="-0.56299">
        <ele>24.9</ele>
        <time>2020-09-03T07:20:58Z</time>
      </trkpt>
      <trkpt lat="45.16272" lon="-0.56301">
        <ele>24.8</ele>
        <time>2020-09-03T07:21:00Z</time>
      </trkpt>
      <trkpt lat="45.16273" lon="-0.56303">
        <ele>24.8</ele>
        <time>2020-09-03T07:21:01Z</time>
      </trkpt>
      <trkpt lat="45.16274" lon="-0.56304">
        <ele>24.7</ele>
        <time>2020-09-03T07:21:02Z</time>
      </trkpt>
      <trkpt lat="45.16276" lon="-0.56307">
        <ele>24.7</ele>
        <time>2020-09-03T07:21:04Z</time>
      </trkpt>
      <trkpt lat="45.16277" lon="-0.56308">
        <ele>24.6</ele>
        <time>2020-09-03T07:21:05Z</time>
      </trkpt>
      <trkpt lat="45.16278" lon="-0.56309">
        <ele>24.6</ele>
        <time>2020-09-03T07:21:06Z</time>
      </trkpt>
      <trkpt lat="45.16281" lon="-0.56313">
        <ele>24.5</ele>
        <time>2020-09-03T07:21:08Z</time>
      </trkpt>
      <trkpt lat="45.16282" lon="-0.56314">
        <ele>24.5</ele>
        <time>2020-09-03T07:21:09Z</time>
      </trkpt>
      <trkpt lat="45.16283" lon="-0.56316">
        <ele>24.4</ele>
        <time>2020-09-03T07:21:11Z</time>
      </trkpt>
      <trkpt lat="45.16284" lon="-0.56317">
        <ele>24.4</ele>
        <time>2020-09-03T07:21:12Z</time>
      </trkpt>
      <trkpt lat="45.16286" lon="-0.56319">
        <ele>24.3</ele>
        <time>2020-09-03T07:21:13Z</time>
      </trkpt>
      <trkpt lat="45.16287" lon="-0.56321">
        <ele>24.3</ele>
        <time>2020-09-03T07:21:15Z</time>
      </trkpt>
      <trkpt lat="45.16288" lon="-0.56322">
        <ele>24.3</ele>
        <time>2020-09-03T07:21:16Z</time>
      </trkpt>
      <trkpt lat="45.16289" lon="-0.56323">
        <ele>24.2</ele>
        <time>2020-09-03T07:21:17Z</time>
      </trkpt>
      <trkpt lat="45.16292" lon="-0.56326">
        <ele>24.2</ele>
        <time>2020-09-03T07:21:18Z</time>
      </trkpt>
      <trkpt lat="45.16292" lon="-0.56327">
        <ele>24.1</ele>
        <time>2020-09-03T07:21:19Z</time>
      </trkpt>
      <trkpt lat="45.16294" lon="-0.56328">
        <ele>24.1</ele>
        <time>2020-09-03T07:21:21Z</time>
      </trkpt>
      <trkpt lat="45.16295" lon="-0.5633">
        <ele>24.1</ele>
        <time>2020-09-03T07:21:22Z</time>
      </trkpt>
      <trkpt lat="45.16297" lon="-0.56331">
        <ele>24.1</ele>
        <time>2020-09-03T07:21:23Z</time>
      </trkpt>
      <trkpt lat="45.16299" lon="-0.56333">
        <ele>24</ele>
        <time>2020-09-03T07:21:25Z</time>
      </trkpt>
      <trkpt lat="45.16301" lon="-0.56336">
        <ele>24</ele>
        <time>2020-09-03T07:21:27Z</time>
      </trkpt>
      <trkpt lat="45.16302" lon="-0.56337">
        <ele>24</ele>
        <time>2020-09-03T07:21:28Z</time>
      </trkpt>
      <trkpt lat="45.16305" lon="-0.56339">
        <ele>24</ele>
        <time>2020-09-03T07:21:30Z</time>
      </trkpt>
      <trkpt lat="45.16305" lon="-0.5634">
        <ele>24</ele>
        <time>2020-09-03T07:21:31Z</time>
      </trkpt>
      <trkpt lat="45.16308" lon="-0.56343">
        <ele>24</ele>
        <time>2020-09-03T07:21:32Z</time>
      </trkpt>
      <trkpt lat="45.16309" lon="-0.56344">
        <ele>24</ele>
        <time>2020-09-03T07:21:33Z</time>
      </trkpt>
      <trkpt lat="45.1631" lon="-0.56346">
        <ele>23.9</ele>
        <time>2020-09-03T07:21:34Z</time>
      </trkpt>
      <trkpt lat="45.16311" lon="-0.56347">
        <ele>23.9</ele>
        <time>2020-09-03T07:21:36Z</time>
      </trkpt>
      <trkpt lat="45.16312" lon="-0.56348">
        <ele>23.9</ele>
        <time>2020-09-03T07:21:37Z</time>
      </trkpt>
      <trkpt lat="45.16314" lon="-0.56349">
        <ele>23.9</ele>
        <time>2020-09-03T07:21:39Z</time>
      </trkpt>
      <trkpt lat="45.16314" lon="-0.5635">
        <ele>23.9</ele>
        <time>2020-09-03T07:21:40Z</time>
      </trkpt>
      <trkpt lat="45.16316" lon="-0.56352">
        <ele>23.8</ele>
        <time>2020-09-03T07:21:41Z</time>
      </trkpt>
      <trkpt lat="45.16317" lon="-0.56354">
        <ele>23.8</ele>
        <time>2020-09-03T07:21:43Z</time>
      </trkpt>
      <trkpt lat="45.16319" lon="-0.56355">
        <ele>23.8</ele>
        <time>2020-09-03T07:21:44Z</time>
      </trkpt>
      <trkpt lat="45.1632" lon="-0.56357">
        <ele>23.7</ele>
        <time>2020-09-03T07:21:46Z</time>
      </trkpt>
      <trkpt lat="45.16322" lon="-0.56358">
        <ele>23.7</ele>
        <time>2020-09-03T07:21:47Z</time>
      </trkpt>
      <trkpt lat="45.16323" lon="-0.56359">
        <ele>23.7</ele>
        <time>2020-09-03T07:21:48Z</time>
      </trkpt>
      <trkpt lat="45.16324" lon="-0.56361">
        <ele>23.6</ele>
        <time>2020-09-03T07:21:49Z</time>
      </trkpt>
      <trkpt lat="45.16325" lon="-0.56362">
        <ele>23.6</ele>
        <time>2020-09-03T07:21:51Z</time>
      </trkpt>
      <trkpt lat="45.16326" lon="-0.56364">
        <ele>23.5</ele>
        <time>2020-09-03T07:21:52Z</time>
      </trkpt>
      <trkpt lat="45.16328" lon="-0.56365">
        <ele>23.5</ele>
        <time>2020-09-03T07:21:53Z</time>
      </trkpt>
      <trkpt lat="45.1633" lon="-0.56368">
        <ele>23.4</ele>
        <time>2020-09-03T07:21:55Z</time>
      </trkpt>
      <trkpt lat="45.16331" lon="-0.56368">
        <ele>23.4</ele>
        <time>2020-09-03T07:21:56Z</time>
      </trkpt>
      <trkpt lat="45.16332" lon="-0.56369">
        <ele>23.3</ele>
        <time>2020-09-03T07:21:57Z</time>
      </trkpt>
      <trkpt lat="45.16334" lon="-0.5637">
        <ele>23.3</ele>
        <time>2020-09-03T07:21:58Z</time>
      </trkpt>
      <trkpt lat="45.16335" lon="-0.56371">
        <ele>23.2</ele>
        <time>2020-09-03T07:21:59Z</time>
      </trkpt>
      <trkpt lat="45.16336" lon="-0.56372">
        <ele>23.2</ele>
        <time>2020-09-03T07:22:00Z</time>
      </trkpt>
      <trkpt lat="45.16338" lon="-0.56373">
        <ele>23.1</ele>
        <time>2020-09-03T07:22:02Z</time>
      </trkpt>
      <trkpt lat="45.16339" lon="-0.56374">
        <ele>23.1</ele>
        <time>2020-09-03T07:22:03Z</time>
      </trkpt>
      <trkpt lat="45.1634" lon="-0.56376">
        <ele>23.1</ele>
        <time>2020-09-03T07:22:04Z</time>
      </trkpt>
      <trkpt lat="45.16341" lon="-0.56376">
        <ele>23</ele>
        <time>2020-09-03T07:22:05Z</time>
      </trkpt>
      <trkpt lat="45.16343" lon="-0.56378">
        <ele>23</ele>
        <time>2020-09-03T07:22:06Z</time>
      </trkpt>
      <trkpt lat="45.16344" lon="-0.5638">
        <ele>22.9</ele>
        <time>2020-09-03T07:22:08Z</time>
      </trkpt>
      <trkpt lat="45.16345" lon="-0.56381">
        <ele>22.9</ele>
        <time>2020-09-03T07:22:09Z</time>
      </trkpt>
      <trkpt lat="45.16346" lon="-0.56382">
        <ele>22.9</ele>
        <time>2020-09-03T07:22:10Z</time>
      </trkpt>
      <trkpt lat="45.16347" lon="-0.56384">
        <ele>22.8</ele>
        <time>2020-09-03T07:22:11Z</time>
      </trkpt>
      <trkpt lat="45.16348" lon="-0.56385">
        <ele>22.8</ele>
        <time>2020-09-03T07:22:13Z</time>
      </trkpt>
      <trkpt lat="45.1635" lon="-0.56387">
        <ele>22.8</ele>
        <time>2020-09-03T07:22:14Z</time>
      </trkpt>
      <trkpt lat="45.16351" lon="-0.56388">
        <ele>22.7</ele>
        <time>2020-09-03T07:22:15Z</time>
      </trkpt>
      <trkpt lat="45.16351" lon="-0.56389">
        <ele>22.7</ele>
        <time>2020-09-03T07:22:16Z</time>
      </trkpt>
      <trkpt lat="45.16352" lon="-0.5639">
        <ele>22.7</ele>
        <time>2020-09-03T07:22:17Z</time>
      </trkpt>
      <trkpt lat="45.16353" lon="-0.56391">
        <ele>22.7</ele>
        <time>2020-09-03T07:22:18Z</time>
      </trkpt>
      <trkpt lat="45.16355" lon="-0.56392">
        <ele>22.6</ele>
        <time>2020-09-03T07:22:19Z</time>
      </trkpt>
      <trkpt lat="45.16356" lon="-0.56392">
        <ele>22.6</ele>
        <time>2020-09-03T07:22:21Z</time>
      </trkpt>
      <trkpt lat="45.16356" lon="-0.56393">
        <ele>22.6</ele>
        <time>2020-09-03T07:22:22Z</time>
      </trkpt>
      <trkpt lat="45.16359" lon="-0.56395">
        <ele>22.6</ele>
        <time>2020-09-03T07:22:23Z</time>
      </trkpt>
      <trkpt lat="45.1636" lon="-0.56396">
        <ele>22.5</ele>
        <time>2020-09-03T07:22:24Z</time>
      </trkpt>
      <trkpt lat="45.1636" lon="-0.56397">
        <ele>22.5</ele>
        <time>2020-09-03T07:22:25Z</time>
      </trkpt>
      <trkpt lat="45.16361" lon="-0.56398">
        <ele>22.5</ele>
        <time>2020-09-03T07:22:27Z</time>
      </trkpt>
      <trkpt lat="45.16362" lon="-0.56399">
        <ele>22.5</ele>
        <time>2020-09-03T07:22:28Z</time>
      </trkpt>
      <trkpt lat="45.16365" lon="-0.56402">
        <ele>22.4</ele>
        <time>2020-09-03T07:22:29Z</time>
      </trkpt>
      <trkpt lat="45.16367" lon="-0.56403">
        <ele>22.4</ele>
        <time>2020-09-03T07:22:30Z</time>
      </trkpt>
      <trkpt lat="45.16368" lon="-0.56404">
        <ele>22.4</ele>
        <time>2020-09-03T07:22:32Z</time>
      </trkpt>
      <trkpt lat="45.16369" lon="-0.56405">
        <ele>22.4</ele>
        <time>2020-09-03T07:22:33Z</time>
      </trkpt>
      <trkpt lat="45.1637" lon="-0.56406">
        <ele>22.3</ele>
        <time>2020-09-03T07:22:34Z</time>
      </trkpt>
      <trkpt lat="45.16372" lon="-0.56408">
        <ele>22.3</ele>
        <time>2020-09-03T07:22:36Z</time>
      </trkpt>
      <trkpt lat="45.16373" lon="-0.56409">
        <ele>22.3</ele>
        <time>2020-09-03T07:22:37Z</time>
      </trkpt>
      <trkpt lat="45.16374" lon="-0.5641">
        <ele>22.2</ele>
        <time>2020-09-03T07:22:38Z</time>
      </trkpt>
      <trkpt lat="45.16377" lon="-0.56412">
        <ele>22.2</ele>
        <time>2020-09-03T07:22:40Z</time>
      </trkpt>
      <trkpt lat="45.16378" lon="-0.56412">
        <ele>22.2</ele>
        <time>2020-09-03T07:22:41Z</time>
      </trkpt>
      <trkpt lat="45.16379" lon="-0.56413">
        <ele>22.1</ele>
        <time>2020-09-03T07:22:42Z</time>
      </trkpt>
      <trkpt lat="45.16381" lon="-0.56414">
        <ele>22.1</ele>
        <time>2020-09-03T07:22:43Z</time>
      </trkpt>
      <trkpt lat="45.16383" lon="-0.56416">
        <ele>22</ele>
        <time>2020-09-03T07:22:45Z</time>
      </trkpt>
      <trkpt lat="45.16384" lon="-0.56417">
        <ele>21.9</ele>
        <time>2020-09-03T07:22:46Z</time>
      </trkpt>
      <trkpt lat="45.16386" lon="-0.56418">
        <ele>21.8</ele>
        <time>2020-09-03T07:22:47Z</time>
      </trkpt>
      <trkpt lat="45.16387" lon="-0.56419">
        <ele>21.8</ele>
        <time>2020-09-03T07:22:48Z</time>
      </trkpt>
      <trkpt lat="45.16388" lon="-0.56419">
        <ele>21.7</ele>
        <time>2020-09-03T07:22:49Z</time>
      </trkpt>
      <trkpt lat="45.1639" lon="-0.56419">
        <ele>21.6</ele>
        <time>2020-09-03T07:22:51Z</time>
      </trkpt>
      <trkpt lat="45.16391" lon="-0.5642">
        <ele>21.6</ele>
        <time>2020-09-03T07:22:52Z</time>
      </trkpt>
      <trkpt lat="45.16392" lon="-0.56421">
        <ele>21.6</ele>
        <time>2020-09-03T07:22:53Z</time>
      </trkpt>
      <trkpt lat="45.16394" lon="-0.56421">
        <ele>21.6</ele>
        <time>2020-09-03T07:22:54Z</time>
      </trkpt>
      <trkpt lat="45.16395" lon="-0.56422">
        <ele>21.6</ele>
        <time>2020-09-03T07:22:55Z</time>
      </trkpt>
      <trkpt lat="45.16397" lon="-0.56423">
        <ele>21.6</ele>
        <time>2020-09-03T07:22:57Z</time>
      </trkpt>
      <trkpt lat="45.16398" lon="-0.56423">
        <ele>21.6</ele>
        <time>2020-09-03T07:22:58Z</time>
      </trkpt>
      <trkpt lat="45.16399" lon="-0.56424">
        <ele>21.6</ele>
        <time>2020-09-03T07:22:59Z</time>
      </trkpt>
      <trkpt lat="45.16401" lon="-0.56424">
        <ele>21.6</ele>
        <time>2020-09-03T07:23:01Z</time>
      </trkpt>
      <trkpt lat="45.16402" lon="-0.56425">
        <ele>21.6</ele>
        <time>2020-09-03T07:23:02Z</time>
      </trkpt>
      <trkpt lat="45.16403" lon="-0.56425">
        <ele>21.6</ele>
        <time>2020-09-03T07:23:03Z</time>
      </trkpt>
      <trkpt lat="45.16404" lon="-0.56425">
        <ele>21.6</ele>
        <time>2020-09-03T07:23:04Z</time>
      </trkpt>
      <trkpt lat="45.16407" lon="-0.56426">
        <ele>21.6</ele>
        <time>2020-09-03T07:23:06Z</time>
      </trkpt>
      <trkpt lat="45.16408" lon="-0.56426">
        <ele>21.6</ele>
        <time>2020-09-03T07:23:07Z</time>
      </trkpt>
      <trkpt lat="45.16411" lon="-0.56428">
        <ele>21.7</ele>
        <time>2020-09-03T07:23:09Z</time>
      </trkpt>
      <trkpt lat="45.16412" lon="-0.5643">
        <ele>21.7</ele>
        <time>2020-09-03T07:23:10Z</time>
      </trkpt>
      <trkpt lat="45.16414" lon="-0.5643">
        <ele>21.7</ele>
        <time>2020-09-03T07:23:11Z</time>
      </trkpt>
      <trkpt lat="45.16415" lon="-0.56431">
        <ele>21.7</ele>
        <time>2020-09-03T07:23:13Z</time>
      </trkpt>
      <trkpt lat="45.16417" lon="-0.56432">
        <ele>21.7</ele>
        <time>2020-09-03T07:23:14Z</time>
      </trkpt>
      <trkpt lat="45.16419" lon="-0.56433">
        <ele>21.7</ele>
        <time>2020-09-03T07:23:15Z</time>
      </trkpt>
      <trkpt lat="45.1642" lon="-0.56433">
        <ele>21.7</ele>
        <time>2020-09-03T07:23:16Z</time>
      </trkpt>
      <trkpt lat="45.1642" lon="-0.56434">
        <ele>21.7</ele>
        <time>2020-09-03T07:23:17Z</time>
      </trkpt>
      <trkpt lat="45.16422" lon="-0.56434">
        <ele>21.7</ele>
        <time>2020-09-03T07:23:18Z</time>
      </trkpt>
      <trkpt lat="45.16423" lon="-0.56435">
        <ele>21.7</ele>
        <time>2020-09-03T07:23:19Z</time>
      </trkpt>
      <trkpt lat="45.16424" lon="-0.56436">
        <ele>21.7</ele>
        <time>2020-09-03T07:23:20Z</time>
      </trkpt>
      <trkpt lat="45.16425" lon="-0.56436">
        <ele>21.7</ele>
        <time>2020-09-03T07:23:21Z</time>
      </trkpt>
      <trkpt lat="45.16427" lon="-0.56436">
        <ele>21.7</ele>
        <time>2020-09-03T07:23:22Z</time>
      </trkpt>
      <trkpt lat="45.16428" lon="-0.56435">
        <ele>21.7</ele>
        <time>2020-09-03T07:23:24Z</time>
      </trkpt>
      <trkpt lat="45.16429" lon="-0.56435">
        <ele>21.8</ele>
        <time>2020-09-03T07:23:25Z</time>
      </trkpt>
      <trkpt lat="45.1643" lon="-0.56435">
        <ele>21.8</ele>
        <time>2020-09-03T07:23:26Z</time>
      </trkpt>
      <trkpt lat="45.1643" lon="-0.56435">
        <ele>21.8</ele>
        <time>2020-09-03T07:23:27Z</time>
      </trkpt>
      <trkpt lat="45.16431" lon="-0.56434">
        <ele>21.8</ele>
        <time>2020-09-03T07:23:28Z</time>
      </trkpt>
      <trkpt lat="45.16432" lon="-0.56434">
        <ele>21.8</ele>
        <time>2020-09-03T07:23:30Z</time>
      </trkpt>
      <trkpt lat="45.16434" lon="-0.56434">
        <ele>21.8</ele>
        <time>2020-09-03T07:23:31Z</time>
      </trkpt>
      <trkpt lat="45.16435" lon="-0.56433">
        <ele>21.8</ele>
        <time>2020-09-03T07:23:32Z</time>
      </trkpt>
      <trkpt lat="45.16438" lon="-0.56431">
        <ele>21.9</ele>
        <time>2020-09-03T07:23:34Z</time>
      </trkpt>
      <trkpt lat="45.1644" lon="-0.5643">
        <ele>21.9</ele>
        <time>2020-09-03T07:23:35Z</time>
      </trkpt>
      <trkpt lat="45.16441" lon="-0.56429">
        <ele>21.9</ele>
        <time>2020-09-03T07:23:36Z</time>
      </trkpt>
      <trkpt lat="45.16442" lon="-0.56427">
        <ele>21.9</ele>
        <time>2020-09-03T07:23:37Z</time>
      </trkpt>
      <trkpt lat="45.16443" lon="-0.56426">
        <ele>21.9</ele>
        <time>2020-09-03T07:23:38Z</time>
      </trkpt>
      <trkpt lat="45.16444" lon="-0.56425">
        <ele>21.9</ele>
        <time>2020-09-03T07:23:40Z</time>
      </trkpt>
      <trkpt lat="45.16445" lon="-0.56423">
        <ele>21.9</ele>
        <time>2020-09-03T07:23:41Z</time>
      </trkpt>
      <trkpt lat="45.16447" lon="-0.56421">
        <ele>21.9</ele>
        <time>2020-09-03T07:23:43Z</time>
      </trkpt>
      <trkpt lat="45.16449" lon="-0.56417">
        <ele>21.9</ele>
        <time>2020-09-03T07:23:44Z</time>
      </trkpt>
      <trkpt lat="45.1645" lon="-0.56416">
        <ele>22</ele>
        <time>2020-09-03T07:23:45Z</time>
      </trkpt>
      <trkpt lat="45.16451" lon="-0.56414">
        <ele>22</ele>
        <time>2020-09-03T07:23:46Z</time>
      </trkpt>
      <trkpt lat="45.16452" lon="-0.56412">
        <ele>22</ele>
        <time>2020-09-03T07:23:48Z</time>
      </trkpt>
      <trkpt lat="45.16453" lon="-0.5641">
        <ele>22</ele>
        <time>2020-09-03T07:23:49Z</time>
      </trkpt>
      <trkpt lat="45.16455" lon="-0.56407">
        <ele>22.1</ele>
        <time>2020-09-03T07:23:51Z</time>
      </trkpt>
      <trkpt lat="45.16455" lon="-0.56406">
        <ele>22.1</ele>
        <time>2020-09-03T07:23:52Z</time>
      </trkpt>
      <trkpt lat="45.16456" lon="-0.56403">
        <ele>22.2</ele>
        <time>2020-09-03T07:23:53Z</time>
      </trkpt>
      <trkpt lat="45.16458" lon="-0.56399">
        <ele>22.3</ele>
        <time>2020-09-03T07:23:55Z</time>
      </trkpt>
      <trkpt lat="45.16459" lon="-0.56398">
        <ele>22.3</ele>
        <time>2020-09-03T07:23:56Z</time>
      </trkpt>
      <trkpt lat="45.1646" lon="-0.56396">
        <ele>22.3</ele>
        <time>2020-09-03T07:23:57Z</time>
      </trkpt>
      <trkpt lat="45.16462" lon="-0.56394">
        <ele>22.4</ele>
        <time>2020-09-03T07:23:59Z</time>
      </trkpt>
      <trkpt lat="45.16464" lon="-0.56391">
        <ele>22.5</ele>
        <time>2020-09-03T07:24:00Z</time>
      </trkpt>
      <trkpt lat="45.16464" lon="-0.5639">
        <ele>22.5</ele>
        <time>2020-09-03T07:24:01Z</time>
      </trkpt>
      <trkpt lat="45.16465" lon="-0.56388">
        <ele>22.6</ele>
        <time>2020-09-03T07:24:02Z</time>
      </trkpt>
      <trkpt lat="45.16466" lon="-0.56386">
        <ele>22.6</ele>
        <time>2020-09-03T07:24:04Z</time>
      </trkpt>
      <trkpt lat="45.16467" lon="-0.56384">
        <ele>22.6</ele>
        <time>2020-09-03T07:24:05Z</time>
      </trkpt>
      <trkpt lat="45.16468" lon="-0.56382">
        <ele>22.7</ele>
        <time>2020-09-03T07:24:06Z</time>
      </trkpt>
      <trkpt lat="45.16469" lon="-0.5638">
        <ele>22.7</ele>
        <time>2020-09-03T07:24:07Z</time>
      </trkpt>
      <trkpt lat="45.1647" lon="-0.56379">
        <ele>22.7</ele>
        <time>2020-09-03T07:24:08Z</time>
      </trkpt>
      <trkpt lat="45.16471" lon="-0.56378">
        <ele>22.7</ele>
        <time>2020-09-03T07:24:09Z</time>
      </trkpt>
      <trkpt lat="45.16472" lon="-0.56375">
        <ele>22.7</ele>
        <time>2020-09-03T07:24:11Z</time>
      </trkpt>
      <trkpt lat="45.16473" lon="-0.56374">
        <ele>22.7</ele>
        <time>2020-09-03T07:24:13Z</time>
      </trkpt>
      <trkpt lat="45.16475" lon="-0.56372">
        <ele>22.7</ele>
        <time>2020-09-03T07:24:14Z</time>
      </trkpt>
      <trkpt lat="45.16476" lon="-0.5637">
        <ele>22.7</ele>
        <time>2020-09-03T07:24:16Z</time>
      </trkpt>
      <trkpt lat="45.16477" lon="-0.56368">
        <ele>22.7</ele>
        <time>2020-09-03T07:24:17Z</time>
      </trkpt>
      <trkpt lat="45.16478" lon="-0.56367">
        <ele>22.7</ele>
        <time>2020-09-03T07:24:18Z</time>
      </trkpt>
      <trkpt lat="45.16479" lon="-0.56365">
        <ele>22.7</ele>
        <time>2020-09-03T07:24:20Z</time>
      </trkpt>
      <trkpt lat="45.16481" lon="-0.56364">
        <ele>22.7</ele>
        <time>2020-09-03T07:24:22Z</time>
      </trkpt>
      <trkpt lat="45.16481" lon="-0.56364">
        <ele>22.7</ele>
        <time>2020-09-03T07:24:23Z</time>
      </trkpt>
      <trkpt lat="45.16482" lon="-0.56365">
        <ele>22.7</ele>
        <time>2020-09-03T07:24:24Z</time>
      </trkpt>
      <trkpt lat="45.16484" lon="-0.56365">
        <ele>22.7</ele>
        <time>2020-09-03T07:24:26Z</time>
      </trkpt>
      <trkpt lat="45.16485" lon="-0.56364">
        <ele>22.7</ele>
        <time>2020-09-03T07:24:28Z</time>
      </trkpt>
      <trkpt lat="45.16486" lon="-0.56363">
        <ele>22.7</ele>
        <time>2020-09-03T07:24:29Z</time>
      </trkpt>
      <trkpt lat="45.16486" lon="-0.56363">
        <ele>22.6</ele>
        <time>2020-09-03T07:24:30Z</time>
      </trkpt>
      <trkpt lat="45.16488" lon="-0.56359">
        <ele>22.6</ele>
        <time>2020-09-03T07:24:32Z</time>
      </trkpt>
      <trkpt lat="45.16489" lon="-0.56358">
        <ele>22.6</ele>
        <time>2020-09-03T07:24:33Z</time>
      </trkpt>
      <trkpt lat="45.16491" lon="-0.56356">
        <ele>22.6</ele>
        <time>2020-09-03T07:24:34Z</time>
      </trkpt>
      <trkpt lat="45.16493" lon="-0.56353">
        <ele>22.6</ele>
        <time>2020-09-03T07:24:36Z</time>
      </trkpt>
      <trkpt lat="45.16494" lon="-0.56351">
        <ele>22.6</ele>
        <time>2020-09-03T07:24:37Z</time>
      </trkpt>
      <trkpt lat="45.16496" lon="-0.56349">
        <ele>22.6</ele>
        <time>2020-09-03T07:24:39Z</time>
      </trkpt>
      <trkpt lat="45.16498" lon="-0.56345">
        <ele>22.7</ele>
        <time>2020-09-03T07:24:40Z</time>
      </trkpt>
      <trkpt lat="45.165" lon="-0.56344">
        <ele>22.7</ele>
        <time>2020-09-03T07:24:42Z</time>
      </trkpt>
      <trkpt lat="45.16501" lon="-0.56341">
        <ele>22.7</ele>
        <time>2020-09-03T07:24:44Z</time>
      </trkpt>
      <trkpt lat="45.16502" lon="-0.56338">
        <ele>22.7</ele>
        <time>2020-09-03T07:24:45Z</time>
      </trkpt>
      <trkpt lat="45.16503" lon="-0.56337">
        <ele>22.7</ele>
        <time>2020-09-03T07:24:46Z</time>
      </trkpt>
      <trkpt lat="45.16503" lon="-0.56336">
        <ele>22.7</ele>
        <time>2020-09-03T07:24:47Z</time>
      </trkpt>
      <trkpt lat="45.16504" lon="-0.56334">
        <ele>22.7</ele>
        <time>2020-09-03T07:24:48Z</time>
      </trkpt>
      <trkpt lat="45.16505" lon="-0.56333">
        <ele>22.7</ele>
        <time>2020-09-03T07:24:49Z</time>
      </trkpt>
      <trkpt lat="45.16505" lon="-0.56331">
        <ele>22.7</ele>
        <time>2020-09-03T07:24:51Z</time>
      </trkpt>
      <trkpt lat="45.16506" lon="-0.56328">
        <ele>22.7</ele>
        <time>2020-09-03T07:24:53Z</time>
      </trkpt>
      <trkpt lat="45.16508" lon="-0.56324">
        <ele>22.8</ele>
        <time>2020-09-03T07:24:55Z</time>
      </trkpt>
      <trkpt lat="45.16508" lon="-0.56322">
        <ele>22.8</ele>
        <time>2020-09-03T07:24:56Z</time>
      </trkpt>
      <trkpt lat="45.16509" lon="-0.56321">
        <ele>22.8</ele>
        <time>2020-09-03T07:24:57Z</time>
      </trkpt>
      <trkpt lat="45.1651" lon="-0.56318">
        <ele>22.8</ele>
        <time>2020-09-03T07:24:59Z</time>
      </trkpt>
      <trkpt lat="45.16511" lon="-0.56316">
        <ele>22.8</ele>
        <time>2020-09-03T07:25:01Z</time>
      </trkpt>
      <trkpt lat="45.16512" lon="-0.56314">
        <ele>22.8</ele>
        <time>2020-09-03T07:25:03Z</time>
      </trkpt>
      <trkpt lat="45.16513" lon="-0.56313">
        <ele>22.8</ele>
        <time>2020-09-03T07:25:04Z</time>
      </trkpt>
      <trkpt lat="45.16515" lon="-0.5631">
        <ele>22.8</ele>
        <time>2020-09-03T07:25:05Z</time>
      </trkpt>
      <trkpt lat="45.16516" lon="-0.56308">
        <ele>22.8</ele>
        <time>2020-09-03T07:25:07Z</time>
      </trkpt>
      <trkpt lat="45.16517" lon="-0.56307">
        <ele>22.8</ele>
        <time>2020-09-03T07:25:08Z</time>
      </trkpt>
      <trkpt lat="45.16519" lon="-0.56302">
        <ele>22.8</ele>
        <time>2020-09-03T07:25:10Z</time>
      </trkpt>
      <trkpt lat="45.16521" lon="-0.563">
        <ele>22.9</ele>
        <time>2020-09-03T07:25:11Z</time>
      </trkpt>
      <trkpt lat="45.16522" lon="-0.56298">
        <ele>22.9</ele>
        <time>2020-09-03T07:25:13Z</time>
      </trkpt>
      <trkpt lat="45.16523" lon="-0.56296">
        <ele>22.9</ele>
        <time>2020-09-03T07:25:14Z</time>
      </trkpt>
      <trkpt lat="45.16524" lon="-0.56294">
        <ele>22.9</ele>
        <time>2020-09-03T07:25:15Z</time>
      </trkpt>
      <trkpt lat="45.16526" lon="-0.56292">
        <ele>22.9</ele>
        <time>2020-09-03T07:25:17Z</time>
      </trkpt>
      <trkpt lat="45.16528" lon="-0.56288">
        <ele>22.9</ele>
        <time>2020-09-03T07:25:19Z</time>
      </trkpt>
      <trkpt lat="45.16529" lon="-0.56285">
        <ele>22.9</ele>
        <time>2020-09-03T07:25:21Z</time>
      </trkpt>
      <trkpt lat="45.16529" lon="-0.56283">
        <ele>22.9</ele>
        <time>2020-09-03T07:25:22Z</time>
      </trkpt>
      <trkpt lat="45.1653" lon="-0.56281">
        <ele>22.9</ele>
        <time>2020-09-03T07:25:23Z</time>
      </trkpt>
      <trkpt lat="45.16531" lon="-0.56277">
        <ele>22.9</ele>
        <time>2020-09-03T07:25:25Z</time>
      </trkpt>
      <trkpt lat="45.16531" lon="-0.56275">
        <ele>23</ele>
        <time>2020-09-03T07:25:26Z</time>
      </trkpt>
      <trkpt lat="45.16532" lon="-0.56274">
        <ele>23</ele>
        <time>2020-09-03T07:25:27Z</time>
      </trkpt>
      <trkpt lat="45.16532" lon="-0.56273">
        <ele>23</ele>
        <time>2020-09-03T07:25:28Z</time>
      </trkpt>
      <trkpt lat="45.16532" lon="-0.56272">
        <ele>23</ele>
        <time>2020-09-03T07:25:29Z</time>
      </trkpt>
      <trkpt lat="45.16533" lon="-0.56268">
        <ele>23</ele>
        <time>2020-09-03T07:25:30Z</time>
      </trkpt>
      <trkpt lat="45.16534" lon="-0.56265">
        <ele>23</ele>
        <time>2020-09-03T07:25:32Z</time>
      </trkpt>
      <trkpt lat="45.16535" lon="-0.56263">
        <ele>23</ele>
        <time>2020-09-03T07:25:34Z</time>
      </trkpt>
      <trkpt lat="45.16535" lon="-0.5626">
        <ele>23</ele>
        <time>2020-09-03T07:25:35Z</time>
      </trkpt>
      <trkpt lat="45.16536" lon="-0.56258">
        <ele>23</ele>
        <time>2020-09-03T07:25:36Z</time>
      </trkpt>
      <trkpt lat="45.16537" lon="-0.56255">
        <ele>23</ele>
        <time>2020-09-03T07:25:38Z</time>
      </trkpt>
      <trkpt lat="45.16538" lon="-0.56252">
        <ele>23</ele>
        <time>2020-09-03T07:25:39Z</time>
      </trkpt>
      <trkpt lat="45.1654" lon="-0.56249">
        <ele>23</ele>
        <time>2020-09-03T07:25:41Z</time>
      </trkpt>
      <trkpt lat="45.1654" lon="-0.56247">
        <ele>23</ele>
        <time>2020-09-03T07:25:42Z</time>
      </trkpt>
      <trkpt lat="45.16541" lon="-0.56245">
        <ele>23</ele>
        <time>2020-09-03T07:25:43Z</time>
      </trkpt>
      <trkpt lat="45.16543" lon="-0.56244">
        <ele>23</ele>
        <time>2020-09-03T07:25:44Z</time>
      </trkpt>
      <trkpt lat="45.16544" lon="-0.56242">
        <ele>23</ele>
        <time>2020-09-03T07:25:45Z</time>
      </trkpt>
      <trkpt lat="45.16546" lon="-0.56239">
        <ele>23.1</ele>
        <time>2020-09-03T07:25:47Z</time>
      </trkpt>
      <trkpt lat="45.16546" lon="-0.56238">
        <ele>23.1</ele>
        <time>2020-09-03T07:25:48Z</time>
      </trkpt>
      <trkpt lat="45.16547" lon="-0.56236">
        <ele>23.1</ele>
        <time>2020-09-03T07:25:49Z</time>
      </trkpt>
      <trkpt lat="45.16548" lon="-0.56234">
        <ele>23.1</ele>
        <time>2020-09-03T07:25:51Z</time>
      </trkpt>
      <trkpt lat="45.16549" lon="-0.56232">
        <ele>23.1</ele>
        <time>2020-09-03T07:25:52Z</time>
      </trkpt>
      <trkpt lat="45.1655" lon="-0.5623">
        <ele>23.1</ele>
        <time>2020-09-03T07:25:54Z</time>
      </trkpt>
      <trkpt lat="45.16552" lon="-0.56228">
        <ele>23.1</ele>
        <time>2020-09-03T07:25:55Z</time>
      </trkpt>
      <trkpt lat="45.16553" lon="-0.56225">
        <ele>23.2</ele>
        <time>2020-09-03T07:25:57Z</time>
      </trkpt>
      <trkpt lat="45.16554" lon="-0.56222">
        <ele>23.2</ele>
        <time>2020-09-03T07:25:58Z</time>
      </trkpt>
      <trkpt lat="45.16556" lon="-0.56219">
        <ele>23.3</ele>
        <time>2020-09-03T07:26:00Z</time>
      </trkpt>
      <trkpt lat="45.16557" lon="-0.56217">
        <ele>23.3</ele>
        <time>2020-09-03T07:26:01Z</time>
      </trkpt>
      <trkpt lat="45.16559" lon="-0.56214">
        <ele>23.4</ele>
        <time>2020-09-03T07:26:03Z</time>
      </trkpt>
      <trkpt lat="45.1656" lon="-0.56212">
        <ele>23.5</ele>
        <time>2020-09-03T07:26:04Z</time>
      </trkpt>
      <trkpt lat="45.16561" lon="-0.56209">
        <ele>23.5</ele>
        <time>2020-09-03T07:26:06Z</time>
      </trkpt>
      <trkpt lat="45.16563" lon="-0.56206">
        <ele>23.6</ele>
        <time>2020-09-03T07:26:07Z</time>
      </trkpt>
      <trkpt lat="45.16565" lon="-0.56202">
        <ele>23.7</ele>
        <time>2020-09-03T07:26:09Z</time>
      </trkpt>
      <trkpt lat="45.16566" lon="-0.56201">
        <ele>23.7</ele>
        <time>2020-09-03T07:26:10Z</time>
      </trkpt>
      <trkpt lat="45.16567" lon="-0.56199">
        <ele>23.8</ele>
        <time>2020-09-03T07:26:12Z</time>
      </trkpt>
      <trkpt lat="45.16568" lon="-0.56197">
        <ele>23.8</ele>
        <time>2020-09-03T07:26:13Z</time>
      </trkpt>
      <trkpt lat="45.1657" lon="-0.56194">
        <ele>23.9</ele>
        <time>2020-09-03T07:26:15Z</time>
      </trkpt>
      <trkpt lat="45.16571" lon="-0.56193">
        <ele>23.9</ele>
        <time>2020-09-03T07:26:17Z</time>
      </trkpt>
      <trkpt lat="45.16572" lon="-0.56192">
        <ele>23.9</ele>
        <time>2020-09-03T07:26:18Z</time>
      </trkpt>
      <trkpt lat="45.16573" lon="-0.5619">
        <ele>24</ele>
        <time>2020-09-03T07:26:19Z</time>
      </trkpt>
      <trkpt lat="45.16575" lon="-0.56186">
        <ele>24</ele>
        <time>2020-09-03T07:26:21Z</time>
      </trkpt>
      <trkpt lat="45.16577" lon="-0.56184">
        <ele>24.1</ele>
        <time>2020-09-03T07:26:22Z</time>
      </trkpt>
      <trkpt lat="45.16578" lon="-0.56182">
        <ele>24.1</ele>
        <time>2020-09-03T07:26:24Z</time>
      </trkpt>
      <trkpt lat="45.1658" lon="-0.56179">
        <ele>24.1</ele>
        <time>2020-09-03T07:26:25Z</time>
      </trkpt>
      <trkpt lat="45.16582" lon="-0.56176">
        <ele>24.2</ele>
        <time>2020-09-03T07:26:27Z</time>
      </trkpt>
      <trkpt lat="45.16582" lon="-0.56175">
        <ele>24.2</ele>
        <time>2020-09-03T07:26:28Z</time>
      </trkpt>
      <trkpt lat="45.16584" lon="-0.56172">
        <ele>24.2</ele>
        <time>2020-09-03T07:26:29Z</time>
      </trkpt>
      <trkpt lat="45.16585" lon="-0.56171">
        <ele>24.3</ele>
        <time>2020-09-03T07:26:30Z</time>
      </trkpt>
      <trkpt lat="45.16587" lon="-0.5617">
        <ele>24.3</ele>
        <time>2020-09-03T07:26:32Z</time>
      </trkpt>
      <trkpt lat="45.16587" lon="-0.56168">
        <ele>24.3</ele>
        <time>2020-09-03T07:26:33Z</time>
      </trkpt>
      <trkpt lat="45.16588" lon="-0.56167">
        <ele>24.3</ele>
        <time>2020-09-03T07:26:34Z</time>
      </trkpt>
      <trkpt lat="45.1659" lon="-0.56165">
        <ele>24.4</ele>
        <time>2020-09-03T07:26:35Z</time>
      </trkpt>
      <trkpt lat="45.16591" lon="-0.56164">
        <ele>24.4</ele>
        <time>2020-09-03T07:26:36Z</time>
      </trkpt>
      <trkpt lat="45.16592" lon="-0.56162">
        <ele>24.4</ele>
        <time>2020-09-03T07:26:37Z</time>
      </trkpt>
      <trkpt lat="45.16595" lon="-0.56159">
        <ele>24.4</ele>
        <time>2020-09-03T07:26:39Z</time>
      </trkpt>
      <trkpt lat="45.16595" lon="-0.56158">
        <ele>24.4</ele>
        <time>2020-09-03T07:26:40Z</time>
      </trkpt>
      <trkpt lat="45.16596" lon="-0.56158">
        <ele>24.4</ele>
        <time>2020-09-03T07:26:41Z</time>
      </trkpt>
      <trkpt lat="45.16597" lon="-0.56156">
        <ele>24.5</ele>
        <time>2020-09-03T07:26:43Z</time>
      </trkpt>
      <trkpt lat="45.16598" lon="-0.56155">
        <ele>24.5</ele>
        <time>2020-09-03T07:26:44Z</time>
      </trkpt>
      <trkpt lat="45.16599" lon="-0.56153">
        <ele>24.5</ele>
        <time>2020-09-03T07:26:45Z</time>
      </trkpt>
      <trkpt lat="45.166" lon="-0.56152">
        <ele>24.5</ele>
        <time>2020-09-03T07:26:47Z</time>
      </trkpt>
      <trkpt lat="45.16602" lon="-0.56149">
        <ele>24.5</ele>
        <time>2020-09-03T07:26:48Z</time>
      </trkpt>
      <trkpt lat="45.16603" lon="-0.56148">
        <ele>24.6</ele>
        <time>2020-09-03T07:26:49Z</time>
      </trkpt>
      <trkpt lat="45.16605" lon="-0.56145">
        <ele>24.6</ele>
        <time>2020-09-03T07:26:51Z</time>
      </trkpt>
      <trkpt lat="45.16606" lon="-0.56145">
        <ele>24.6</ele>
        <time>2020-09-03T07:26:52Z</time>
      </trkpt>
      <trkpt lat="45.16607" lon="-0.56143">
        <ele>24.6</ele>
        <time>2020-09-03T07:26:53Z</time>
      </trkpt>
      <trkpt lat="45.16608" lon="-0.56142">
        <ele>24.7</ele>
        <time>2020-09-03T07:26:55Z</time>
      </trkpt>
      <trkpt lat="45.1661" lon="-0.5614">
        <ele>24.7</ele>
        <time>2020-09-03T07:26:56Z</time>
      </trkpt>
      <trkpt lat="45.16611" lon="-0.56139">
        <ele>24.7</ele>
        <time>2020-09-03T07:26:58Z</time>
      </trkpt>
      <trkpt lat="45.16612" lon="-0.56138">
        <ele>24.7</ele>
        <time>2020-09-03T07:26:59Z</time>
      </trkpt>
      <trkpt lat="45.16614" lon="-0.56135">
        <ele>24.7</ele>
        <time>2020-09-03T07:27:01Z</time>
      </trkpt>
      <trkpt lat="45.16615" lon="-0.56134">
        <ele>24.7</ele>
        <time>2020-09-03T07:27:02Z</time>
      </trkpt>
      <trkpt lat="45.16617" lon="-0.56131">
        <ele>24.8</ele>
        <time>2020-09-03T07:27:04Z</time>
      </trkpt>
      <trkpt lat="45.16619" lon="-0.56127">
        <ele>24.8</ele>
        <time>2020-09-03T07:27:06Z</time>
      </trkpt>
      <trkpt lat="45.1662" lon="-0.56125">
        <ele>24.8</ele>
        <time>2020-09-03T07:27:07Z</time>
      </trkpt>
      <trkpt lat="45.1662" lon="-0.56124">
        <ele>24.8</ele>
        <time>2020-09-03T07:27:08Z</time>
      </trkpt>
      <trkpt lat="45.16623" lon="-0.56121">
        <ele>24.8</ele>
        <time>2020-09-03T07:27:10Z</time>
      </trkpt>
      <trkpt lat="45.16623" lon="-0.56119">
        <ele>24.8</ele>
        <time>2020-09-03T07:27:11Z</time>
      </trkpt>
      <trkpt lat="45.16624" lon="-0.56118">
        <ele>24.9</ele>
        <time>2020-09-03T07:27:12Z</time>
      </trkpt>
      <trkpt lat="45.16625" lon="-0.56115">
        <ele>24.9</ele>
        <time>2020-09-03T07:27:14Z</time>
      </trkpt>
      <trkpt lat="45.16626" lon="-0.56113">
        <ele>24.9</ele>
        <time>2020-09-03T07:27:15Z</time>
      </trkpt>
      <trkpt lat="45.16627" lon="-0.5611">
        <ele>25</ele>
        <time>2020-09-03T07:27:16Z</time>
      </trkpt>
      <trkpt lat="45.16627" lon="-0.56109">
        <ele>25</ele>
        <time>2020-09-03T07:27:17Z</time>
      </trkpt>
      <trkpt lat="45.16628" lon="-0.56107">
        <ele>25</ele>
        <time>2020-09-03T07:27:19Z</time>
      </trkpt>
      <trkpt lat="45.16628" lon="-0.56104">
        <ele>25.1</ele>
        <time>2020-09-03T07:27:20Z</time>
      </trkpt>
      <trkpt lat="45.16628" lon="-0.56103">
        <ele>25.1</ele>
        <time>2020-09-03T07:27:21Z</time>
      </trkpt>
      <trkpt lat="45.16629" lon="-0.561">
        <ele>25.1</ele>
        <time>2020-09-03T07:27:22Z</time>
      </trkpt>
      <trkpt lat="45.1663" lon="-0.56098">
        <ele>25.2</ele>
        <time>2020-09-03T07:27:23Z</time>
      </trkpt>
      <trkpt lat="45.1663" lon="-0.56097">
        <ele>25.2</ele>
        <time>2020-09-03T07:27:24Z</time>
      </trkpt>
      <trkpt lat="45.1663" lon="-0.56094">
        <ele>25.2</ele>
        <time>2020-09-03T07:27:26Z</time>
      </trkpt>
      <trkpt lat="45.16631" lon="-0.56092">
        <ele>25.2</ele>
        <time>2020-09-03T07:27:27Z</time>
      </trkpt>
      <trkpt lat="45.16631" lon="-0.56088">
        <ele>25.3</ele>
        <time>2020-09-03T07:27:29Z</time>
      </trkpt>
      <trkpt lat="45.16632" lon="-0.56083">
        <ele>25.3</ele>
        <time>2020-09-03T07:27:30Z</time>
      </trkpt>
      <trkpt lat="45.16632" lon="-0.56081">
        <ele>25.3</ele>
        <time>2020-09-03T07:27:31Z</time>
      </trkpt>
      <trkpt lat="45.16633" lon="-0.56077">
        <ele>25.3</ele>
        <time>2020-09-03T07:27:33Z</time>
      </trkpt>
      <trkpt lat="45.16634" lon="-0.56076">
        <ele>25.2</ele>
        <time>2020-09-03T07:27:34Z</time>
      </trkpt>
      <trkpt lat="45.16635" lon="-0.56072">
        <ele>25.2</ele>
        <time>2020-09-03T07:27:36Z</time>
      </trkpt>
      <trkpt lat="45.16635" lon="-0.56071">
        <ele>25.2</ele>
        <time>2020-09-03T07:27:37Z</time>
      </trkpt>
      <trkpt lat="45.16636" lon="-0.56067">
        <ele>25.2</ele>
        <time>2020-09-03T07:27:39Z</time>
      </trkpt>
      <trkpt lat="45.16636" lon="-0.56066">
        <ele>25.2</ele>
        <time>2020-09-03T07:27:40Z</time>
      </trkpt>
      <trkpt lat="45.16637" lon="-0.56064">
        <ele>25.2</ele>
        <time>2020-09-03T07:27:42Z</time>
      </trkpt>
      <trkpt lat="45.16637" lon="-0.56061">
        <ele>25.2</ele>
        <time>2020-09-03T07:27:43Z</time>
      </trkpt>
      <trkpt lat="45.16638" lon="-0.56059">
        <ele>25.2</ele>
        <time>2020-09-03T07:27:45Z</time>
      </trkpt>
      <trkpt lat="45.16639" lon="-0.56056">
        <ele>25.2</ele>
        <time>2020-09-03T07:27:46Z</time>
      </trkpt>
      <trkpt lat="45.1664" lon="-0.56053">
        <ele>25.2</ele>
        <time>2020-09-03T07:27:47Z</time>
      </trkpt>
      <trkpt lat="45.1664" lon="-0.56051">
        <ele>25.3</ele>
        <time>2020-09-03T07:27:49Z</time>
      </trkpt>
      <trkpt lat="45.16641" lon="-0.56048">
        <ele>25.3</ele>
        <time>2020-09-03T07:27:50Z</time>
      </trkpt>
      <trkpt lat="45.16641" lon="-0.56047">
        <ele>25.3</ele>
        <time>2020-09-03T07:27:52Z</time>
      </trkpt>
      <trkpt lat="45.16641" lon="-0.56045">
        <ele>25.4</ele>
        <time>2020-09-03T07:27:53Z</time>
      </trkpt>
      <trkpt lat="45.16642" lon="-0.56043">
        <ele>25.4</ele>
        <time>2020-09-03T07:27:54Z</time>
      </trkpt>
      <trkpt lat="45.16642" lon="-0.5604">
        <ele>25.5</ele>
        <time>2020-09-03T07:27:56Z</time>
      </trkpt>
      <trkpt lat="45.16643" lon="-0.56037">
        <ele>25.5</ele>
        <time>2020-09-03T07:27:57Z</time>
      </trkpt>
      <trkpt lat="45.16643" lon="-0.56035">
        <ele>25.6</ele>
        <time>2020-09-03T07:27:58Z</time>
      </trkpt>
      <trkpt lat="45.16643" lon="-0.56031">
        <ele>25.7</ele>
        <time>2020-09-03T07:28:00Z</time>
      </trkpt>
      <trkpt lat="45.16643" lon="-0.5603">
        <ele>25.7</ele>
        <time>2020-09-03T07:28:01Z</time>
      </trkpt>
      <trkpt lat="45.16644" lon="-0.56026">
        <ele>25.7</ele>
        <time>2020-09-03T07:28:02Z</time>
      </trkpt>
      <trkpt lat="45.16644" lon="-0.56025">
        <ele>25.8</ele>
        <time>2020-09-03T07:28:03Z</time>
      </trkpt>
      <trkpt lat="45.16644" lon="-0.56023">
        <ele>25.8</ele>
        <time>2020-09-03T07:28:04Z</time>
      </trkpt>
      <trkpt lat="45.16645" lon="-0.5602">
        <ele>25.9</ele>
        <time>2020-09-03T07:28:06Z</time>
      </trkpt>
      <trkpt lat="45.16644" lon="-0.56019">
        <ele>25.9</ele>
        <time>2020-09-03T07:28:07Z</time>
      </trkpt>
      <trkpt lat="45.16645" lon="-0.56017">
        <ele>25.9</ele>
        <time>2020-09-03T07:28:08Z</time>
      </trkpt>
      <trkpt lat="45.16645" lon="-0.56016">
        <ele>25.9</ele>
        <time>2020-09-03T07:28:09Z</time>
      </trkpt>
      <trkpt lat="45.16646" lon="-0.56012">
        <ele>26</ele>
        <time>2020-09-03T07:28:11Z</time>
      </trkpt>
      <trkpt lat="45.16646" lon="-0.5601">
        <ele>26</ele>
        <time>2020-09-03T07:28:12Z</time>
      </trkpt>
      <trkpt lat="45.16646" lon="-0.56009">
        <ele>26</ele>
        <time>2020-09-03T07:28:13Z</time>
      </trkpt>
      <trkpt lat="45.16646" lon="-0.56008">
        <ele>26</ele>
        <time>2020-09-03T07:28:14Z</time>
      </trkpt>
      <trkpt lat="45.16647" lon="-0.56005">
        <ele>26.1</ele>
        <time>2020-09-03T07:28:15Z</time>
      </trkpt>
      <trkpt lat="45.16648" lon="-0.56003">
        <ele>26.1</ele>
        <time>2020-09-03T07:28:17Z</time>
      </trkpt>
      <trkpt lat="45.16648" lon="-0.56002">
        <ele>26.1</ele>
        <time>2020-09-03T07:28:18Z</time>
      </trkpt>
      <trkpt lat="45.16648" lon="-0.56">
        <ele>26.1</ele>
        <time>2020-09-03T07:28:19Z</time>
      </trkpt>
      <trkpt lat="45.16649" lon="-0.55997">
        <ele>26.1</ele>
        <time>2020-09-03T07:28:21Z</time>
      </trkpt>
      <trkpt lat="45.16649" lon="-0.55994">
        <ele>26.1</ele>
        <time>2020-09-03T07:28:22Z</time>
      </trkpt>
      <trkpt lat="45.16649" lon="-0.55992">
        <ele>26.1</ele>
        <time>2020-09-03T07:28:23Z</time>
      </trkpt>
      <trkpt lat="45.1665" lon="-0.55991">
        <ele>26.1</ele>
        <time>2020-09-03T07:28:24Z</time>
      </trkpt>
      <trkpt lat="45.1665" lon="-0.55988">
        <ele>26.1</ele>
        <time>2020-09-03T07:28:25Z</time>
      </trkpt>
      <trkpt lat="45.16651" lon="-0.55986">
        <ele>26.1</ele>
        <time>2020-09-03T07:28:26Z</time>
      </trkpt>
      <trkpt lat="45.16651" lon="-0.55983">
        <ele>26.1</ele>
        <time>2020-09-03T07:28:28Z</time>
      </trkpt>
      <trkpt lat="45.16651" lon="-0.55982">
        <ele>26.1</ele>
        <time>2020-09-03T07:28:29Z</time>
      </trkpt>
      <trkpt lat="45.16652" lon="-0.55979">
        <ele>26.1</ele>
        <time>2020-09-03T07:28:30Z</time>
      </trkpt>
      <trkpt lat="45.16652" lon="-0.55977">
        <ele>26.1</ele>
        <time>2020-09-03T07:28:31Z</time>
      </trkpt>
      <trkpt lat="45.16651" lon="-0.55976">
        <ele>26.1</ele>
        <time>2020-09-03T07:28:33Z</time>
      </trkpt>
      <trkpt lat="45.16651" lon="-0.55975">
        <ele>26.1</ele>
        <time>2020-09-03T07:28:34Z</time>
      </trkpt>
      <trkpt lat="45.16652" lon="-0.55973">
        <ele>26.1</ele>
        <time>2020-09-03T07:28:35Z</time>
      </trkpt>
      <trkpt lat="45.16653" lon="-0.5597">
        <ele>26.1</ele>
        <time>2020-09-03T07:28:36Z</time>
      </trkpt>
      <trkpt lat="45.16654" lon="-0.55968">
        <ele>26.2</ele>
        <time>2020-09-03T07:28:38Z</time>
      </trkpt>
      <trkpt lat="45.16654" lon="-0.55966">
        <ele>26.2</ele>
        <time>2020-09-03T07:28:39Z</time>
      </trkpt>
      <trkpt lat="45.16655" lon="-0.55964">
        <ele>26.2</ele>
        <time>2020-09-03T07:28:40Z</time>
      </trkpt>
      <trkpt lat="45.16656" lon="-0.5596">
        <ele>26.2</ele>
        <time>2020-09-03T07:28:41Z</time>
      </trkpt>
      <trkpt lat="45.16656" lon="-0.55959">
        <ele>26.2</ele>
        <time>2020-09-03T07:28:42Z</time>
      </trkpt>
      <trkpt lat="45.16658" lon="-0.55956">
        <ele>26.2</ele>
        <time>2020-09-03T07:28:44Z</time>
      </trkpt>
      <trkpt lat="45.16658" lon="-0.55955">
        <ele>26.2</ele>
        <time>2020-09-03T07:28:45Z</time>
      </trkpt>
      <trkpt lat="45.16658" lon="-0.55953">
        <ele>26.2</ele>
        <time>2020-09-03T07:28:46Z</time>
      </trkpt>
      <trkpt lat="45.16659" lon="-0.55952">
        <ele>26.2</ele>
        <time>2020-09-03T07:28:47Z</time>
      </trkpt>
      <trkpt lat="45.16659" lon="-0.55949">
        <ele>26.2</ele>
        <time>2020-09-03T07:28:49Z</time>
      </trkpt>
      <trkpt lat="45.1666" lon="-0.55946">
        <ele>26.2</ele>
        <time>2020-09-03T07:28:50Z</time>
      </trkpt>
      <trkpt lat="45.1666" lon="-0.55944">
        <ele>26.2</ele>
        <time>2020-09-03T07:28:51Z</time>
      </trkpt>
      <trkpt lat="45.16661" lon="-0.55942">
        <ele>26.2</ele>
        <time>2020-09-03T07:28:52Z</time>
      </trkpt>
      <trkpt lat="45.16661" lon="-0.5594">
        <ele>26.2</ele>
        <time>2020-09-03T07:28:53Z</time>
      </trkpt>
      <trkpt lat="45.16661" lon="-0.55939">
        <ele>26.2</ele>
        <time>2020-09-03T07:28:54Z</time>
      </trkpt>
      <trkpt lat="45.16662" lon="-0.55936">
        <ele>26.2</ele>
        <time>2020-09-03T07:28:56Z</time>
      </trkpt>
      <trkpt lat="45.16662" lon="-0.55935">
        <ele>26.2</ele>
        <time>2020-09-03T07:28:57Z</time>
      </trkpt>
      <trkpt lat="45.16662" lon="-0.55933">
        <ele>26.2</ele>
        <time>2020-09-03T07:28:58Z</time>
      </trkpt>
      <trkpt lat="45.16662" lon="-0.55931">
        <ele>26.2</ele>
        <time>2020-09-03T07:28:59Z</time>
      </trkpt>
      <trkpt lat="45.16663" lon="-0.55927">
        <ele>26.2</ele>
        <time>2020-09-03T07:29:01Z</time>
      </trkpt>
      <trkpt lat="45.16663" lon="-0.55926">
        <ele>26.2</ele>
        <time>2020-09-03T07:29:02Z</time>
      </trkpt>
      <trkpt lat="45.16664" lon="-0.55924">
        <ele>26.2</ele>
        <time>2020-09-03T07:29:03Z</time>
      </trkpt>
      <trkpt lat="45.16665" lon="-0.5592">
        <ele>26.2</ele>
        <time>2020-09-03T07:29:05Z</time>
      </trkpt>
      <trkpt lat="45.16665" lon="-0.55919">
        <ele>26.2</ele>
        <time>2020-09-03T07:29:06Z</time>
      </trkpt>
      <trkpt lat="45.16666" lon="-0.55916">
        <ele>26.2</ele>
        <time>2020-09-03T07:29:08Z</time>
      </trkpt>
      <trkpt lat="45.16667" lon="-0.55914">
        <ele>26.2</ele>
        <time>2020-09-03T07:29:09Z</time>
      </trkpt>
      <trkpt lat="45.16667" lon="-0.55911">
        <ele>26.2</ele>
        <time>2020-09-03T07:29:10Z</time>
      </trkpt>
      <trkpt lat="45.16668" lon="-0.55909">
        <ele>26.2</ele>
        <time>2020-09-03T07:29:11Z</time>
      </trkpt>
      <trkpt lat="45.16668" lon="-0.55908">
        <ele>26.2</ele>
        <time>2020-09-03T07:29:12Z</time>
      </trkpt>
      <trkpt lat="45.16669" lon="-0.55906">
        <ele>26.2</ele>
        <time>2020-09-03T07:29:13Z</time>
      </trkpt>
      <trkpt lat="45.16669" lon="-0.55903">
        <ele>26.2</ele>
        <time>2020-09-03T07:29:15Z</time>
      </trkpt>
      <trkpt lat="45.1667" lon="-0.559">
        <ele>26.2</ele>
        <time>2020-09-03T07:29:16Z</time>
      </trkpt>
      <trkpt lat="45.1667" lon="-0.55899">
        <ele>26.2</ele>
        <time>2020-09-03T07:29:17Z</time>
      </trkpt>
      <trkpt lat="45.16671" lon="-0.55896">
        <ele>26.2</ele>
        <time>2020-09-03T07:29:19Z</time>
      </trkpt>
      <trkpt lat="45.16671" lon="-0.55895">
        <ele>26.2</ele>
        <time>2020-09-03T07:29:20Z</time>
      </trkpt>
      <trkpt lat="45.16672" lon="-0.55891">
        <ele>26.2</ele>
        <time>2020-09-03T07:29:21Z</time>
      </trkpt>
      <trkpt lat="45.16672" lon="-0.5589">
        <ele>26.2</ele>
        <time>2020-09-03T07:29:22Z</time>
      </trkpt>
      <trkpt lat="45.16673" lon="-0.55888">
        <ele>26.2</ele>
        <time>2020-09-03T07:29:23Z</time>
      </trkpt>
      <trkpt lat="45.16673" lon="-0.55885">
        <ele>26.2</ele>
        <time>2020-09-03T07:29:25Z</time>
      </trkpt>
      <trkpt lat="45.16674" lon="-0.55882">
        <ele>26.2</ele>
        <time>2020-09-03T07:29:26Z</time>
      </trkpt>
      <trkpt lat="45.16674" lon="-0.55881">
        <ele>26.2</ele>
        <time>2020-09-03T07:29:27Z</time>
      </trkpt>
      <trkpt lat="45.16675" lon="-0.5588">
        <ele>26.2</ele>
        <time>2020-09-03T07:29:28Z</time>
      </trkpt>
      <trkpt lat="45.16675" lon="-0.55878">
        <ele>26.2</ele>
        <time>2020-09-03T07:29:30Z</time>
      </trkpt>
      <trkpt lat="45.16676" lon="-0.55875">
        <ele>26.2</ele>
        <time>2020-09-03T07:29:31Z</time>
      </trkpt>
      <trkpt lat="45.16676" lon="-0.55874">
        <ele>26.2</ele>
        <time>2020-09-03T07:29:32Z</time>
      </trkpt>
      <trkpt lat="45.16676" lon="-0.55873">
        <ele>26.2</ele>
        <time>2020-09-03T07:29:33Z</time>
      </trkpt>
      <trkpt lat="45.16677" lon="-0.55871">
        <ele>26.2</ele>
        <time>2020-09-03T07:29:34Z</time>
      </trkpt>
      <trkpt lat="45.16679" lon="-0.55866">
        <ele>26.3</ele>
        <time>2020-09-03T07:29:36Z</time>
      </trkpt>
      <trkpt lat="45.1668" lon="-0.55864">
        <ele>26.3</ele>
        <time>2020-09-03T07:29:38Z</time>
      </trkpt>
      <trkpt lat="45.16681" lon="-0.55861">
        <ele>26.3</ele>
        <time>2020-09-03T07:29:40Z</time>
      </trkpt>
      <trkpt lat="45.16682" lon="-0.55857">
        <ele>26.3</ele>
        <time>2020-09-03T07:29:41Z</time>
      </trkpt>
      <trkpt lat="45.16683" lon="-0.55855">
        <ele>26.3</ele>
        <time>2020-09-03T07:29:43Z</time>
      </trkpt>
      <trkpt lat="45.16684" lon="-0.55852">
        <ele>26.3</ele>
        <time>2020-09-03T07:29:44Z</time>
      </trkpt>
      <trkpt lat="45.16685" lon="-0.5585">
        <ele>26.4</ele>
        <time>2020-09-03T07:29:46Z</time>
      </trkpt>
      <trkpt lat="45.16685" lon="-0.55849">
        <ele>26.4</ele>
        <time>2020-09-03T07:29:47Z</time>
      </trkpt>
      <trkpt lat="45.16686" lon="-0.55847">
        <ele>26.4</ele>
        <time>2020-09-03T07:29:48Z</time>
      </trkpt>
      <trkpt lat="45.16687" lon="-0.55844">
        <ele>26.4</ele>
        <time>2020-09-03T07:29:50Z</time>
      </trkpt>
      <trkpt lat="45.16687" lon="-0.55842">
        <ele>26.5</ele>
        <time>2020-09-03T07:29:51Z</time>
      </trkpt>
      <trkpt lat="45.16688" lon="-0.55841">
        <ele>26.5</ele>
        <time>2020-09-03T07:29:52Z</time>
      </trkpt>
      <trkpt lat="45.16689" lon="-0.55838">
        <ele>26.5</ele>
        <time>2020-09-03T07:29:54Z</time>
      </trkpt>
      <trkpt lat="45.16689" lon="-0.55836">
        <ele>26.5</ele>
        <time>2020-09-03T07:29:55Z</time>
      </trkpt>
      <trkpt lat="45.16691" lon="-0.55832">
        <ele>26.6</ele>
        <time>2020-09-03T07:29:57Z</time>
      </trkpt>
      <trkpt lat="45.16691" lon="-0.55832">
        <ele>26.6</ele>
        <time>2020-09-03T07:29:58Z</time>
      </trkpt>
      <trkpt lat="45.16692" lon="-0.5583">
        <ele>26.6</ele>
        <time>2020-09-03T07:29:59Z</time>
      </trkpt>
      <trkpt lat="45.16692" lon="-0.55829">
        <ele>26.6</ele>
        <time>2020-09-03T07:30:00Z</time>
      </trkpt>
      <trkpt lat="45.16694" lon="-0.55825">
        <ele>26.7</ele>
        <time>2020-09-03T07:30:02Z</time>
      </trkpt>
      <trkpt lat="45.16694" lon="-0.55823">
        <ele>26.7</ele>
        <time>2020-09-03T07:30:03Z</time>
      </trkpt>
      <trkpt lat="45.16695" lon="-0.55822">
        <ele>26.7</ele>
        <time>2020-09-03T07:30:04Z</time>
      </trkpt>
      <trkpt lat="45.16696" lon="-0.55817">
        <ele>26.8</ele>
        <time>2020-09-03T07:30:06Z</time>
      </trkpt>
      <trkpt lat="45.16697" lon="-0.55816">
        <ele>26.8</ele>
        <time>2020-09-03T07:30:07Z</time>
      </trkpt>
      <trkpt lat="45.16698" lon="-0.55813">
        <ele>26.8</ele>
        <time>2020-09-03T07:30:09Z</time>
      </trkpt>
      <trkpt lat="45.16699" lon="-0.55811">
        <ele>26.8</ele>
        <time>2020-09-03T07:30:10Z</time>
      </trkpt>
      <trkpt lat="45.167" lon="-0.55809">
        <ele>26.9</ele>
        <time>2020-09-03T07:30:11Z</time>
      </trkpt>
      <trkpt lat="45.16701" lon="-0.55807">
        <ele>26.9</ele>
        <time>2020-09-03T07:30:13Z</time>
      </trkpt>
      <trkpt lat="45.16702" lon="-0.55805">
        <ele>26.9</ele>
        <time>2020-09-03T07:30:14Z</time>
      </trkpt>
      <trkpt lat="45.16703" lon="-0.55802">
        <ele>27</ele>
        <time>2020-09-03T07:30:15Z</time>
      </trkpt>
      <trkpt lat="45.16704" lon="-0.558">
        <ele>27</ele>
        <time>2020-09-03T07:30:16Z</time>
      </trkpt>
      <trkpt lat="45.16705" lon="-0.55798">
        <ele>27</ele>
        <time>2020-09-03T07:30:18Z</time>
      </trkpt>
      <trkpt lat="45.16706" lon="-0.55796">
        <ele>27</ele>
        <time>2020-09-03T07:30:19Z</time>
      </trkpt>
      <trkpt lat="45.16707" lon="-0.55792">
        <ele>27</ele>
        <time>2020-09-03T07:30:21Z</time>
      </trkpt>
      <trkpt lat="45.16708" lon="-0.55791">
        <ele>27</ele>
        <time>2020-09-03T07:30:22Z</time>
      </trkpt>
      <trkpt lat="45.16708" lon="-0.55788">
        <ele>26.9</ele>
        <time>2020-09-03T07:30:23Z</time>
      </trkpt>
      <trkpt lat="45.16709" lon="-0.55786">
        <ele>26.9</ele>
        <time>2020-09-03T07:30:24Z</time>
      </trkpt>
      <trkpt lat="45.1671" lon="-0.55782">
        <ele>26.7</ele>
        <time>2020-09-03T07:30:26Z</time>
      </trkpt>
      <trkpt lat="45.1671" lon="-0.5578">
        <ele>26.6</ele>
        <time>2020-09-03T07:30:27Z</time>
      </trkpt>
      <trkpt lat="45.16711" lon="-0.55778">
        <ele>26.5</ele>
        <time>2020-09-03T07:30:28Z</time>
      </trkpt>
      <trkpt lat="45.16712" lon="-0.55774">
        <ele>26.2</ele>
        <time>2020-09-03T07:30:30Z</time>
      </trkpt>
      <trkpt lat="45.16713" lon="-0.55772">
        <ele>26</ele>
        <time>2020-09-03T07:30:31Z</time>
      </trkpt>
      <trkpt lat="45.16713" lon="-0.55771">
        <ele>25.9</ele>
        <time>2020-09-03T07:30:32Z</time>
      </trkpt>
      <trkpt lat="45.16713" lon="-0.5577">
        <ele>25.8</ele>
        <time>2020-09-03T07:30:34Z</time>
      </trkpt>
      <trkpt lat="45.16715" lon="-0.55769">
        <ele>25.4</ele>
        <time>2020-09-03T07:30:35Z</time>
      </trkpt>
      <trkpt lat="45.16717" lon="-0.55769">
        <ele>25.4</ele>
        <time>2020-09-03T07:30:36Z</time>
      </trkpt>
      <trkpt lat="45.16719" lon="-0.5577">
        <ele>25.3</ele>
        <time>2020-09-03T07:30:38Z</time>
      </trkpt>
      <trkpt lat="45.16721" lon="-0.55772">
        <ele>25.2</ele>
        <time>2020-09-03T07:30:39Z</time>
      </trkpt>
      <trkpt lat="45.16722" lon="-0.55774">
        <ele>25.2</ele>
        <time>2020-09-03T07:30:40Z</time>
      </trkpt>
      <trkpt lat="45.16723" lon="-0.55777">
        <ele>25.1</ele>
        <time>2020-09-03T07:30:42Z</time>
      </trkpt>
      <trkpt lat="45.16724" lon="-0.5578">
        <ele>25.1</ele>
        <time>2020-09-03T07:30:43Z</time>
      </trkpt>
      <trkpt lat="45.16725" lon="-0.55782">
        <ele>25.1</ele>
        <time>2020-09-03T07:30:44Z</time>
      </trkpt>
      <trkpt lat="45.16725" lon="-0.55783">
        <ele>25.1</ele>
        <time>2020-09-03T07:30:45Z</time>
      </trkpt>
      <trkpt lat="45.16726" lon="-0.55787">
        <ele>25</ele>
        <time>2020-09-03T07:30:47Z</time>
      </trkpt>
      <trkpt lat="45.16727" lon="-0.55788">
        <ele>25</ele>
        <time>2020-09-03T07:30:48Z</time>
      </trkpt>
      <trkpt lat="45.16727" lon="-0.55791">
        <ele>25</ele>
        <time>2020-09-03T07:30:49Z</time>
      </trkpt>
      <trkpt lat="45.16729" lon="-0.55795">
        <ele>25</ele>
        <time>2020-09-03T07:30:51Z</time>
      </trkpt>
      <trkpt lat="45.16729" lon="-0.55796">
        <ele>25</ele>
        <time>2020-09-03T07:30:52Z</time>
      </trkpt>
      <trkpt lat="45.16731" lon="-0.558">
        <ele>24.9</ele>
        <time>2020-09-03T07:30:54Z</time>
      </trkpt>
      <trkpt lat="45.16731" lon="-0.55802">
        <ele>24.9</ele>
        <time>2020-09-03T07:30:55Z</time>
      </trkpt>
      <trkpt lat="45.16733" lon="-0.55806">
        <ele>24.8</ele>
        <time>2020-09-03T07:30:56Z</time>
      </trkpt>
      <trkpt lat="45.16733" lon="-0.55807">
        <ele>24.8</ele>
        <time>2020-09-03T07:30:58Z</time>
      </trkpt>
      <trkpt lat="45.16734" lon="-0.55808">
        <ele>24.8</ele>
        <time>2020-09-03T07:30:59Z</time>
      </trkpt>
      <trkpt lat="45.16735" lon="-0.5581">
        <ele>24.8</ele>
        <time>2020-09-03T07:31:00Z</time>
      </trkpt>
      <trkpt lat="45.16735" lon="-0.55811">
        <ele>24.7</ele>
        <time>2020-09-03T07:31:01Z</time>
      </trkpt>
      <trkpt lat="45.16736" lon="-0.55813">
        <ele>24.7</ele>
        <time>2020-09-03T07:31:02Z</time>
      </trkpt>
      <trkpt lat="45.16737" lon="-0.55815">
        <ele>24.6</ele>
        <time>2020-09-03T07:31:03Z</time>
      </trkpt>
      <trkpt lat="45.16739" lon="-0.55818">
        <ele>24.5</ele>
        <time>2020-09-03T07:31:05Z</time>
      </trkpt>
      <trkpt lat="45.16739" lon="-0.5582">
        <ele>24.5</ele>
        <time>2020-09-03T07:31:06Z</time>
      </trkpt>
      <trkpt lat="45.1674" lon="-0.55821">
        <ele>24.5</ele>
        <time>2020-09-03T07:31:07Z</time>
      </trkpt>
      <trkpt lat="45.16741" lon="-0.55823">
        <ele>24.4</ele>
        <time>2020-09-03T07:31:08Z</time>
      </trkpt>
      <trkpt lat="45.16741" lon="-0.55824">
        <ele>24.4</ele>
        <time>2020-09-03T07:31:09Z</time>
      </trkpt>
      <trkpt lat="45.16743" lon="-0.55828">
        <ele>24.3</ele>
        <time>2020-09-03T07:31:11Z</time>
      </trkpt>
      <trkpt lat="45.16744" lon="-0.55831">
        <ele>24.2</ele>
        <time>2020-09-03T07:31:12Z</time>
      </trkpt>
      <trkpt lat="45.16745" lon="-0.55833">
        <ele>24.1</ele>
        <time>2020-09-03T07:31:14Z</time>
      </trkpt>
      <trkpt lat="45.16746" lon="-0.55838">
        <ele>23.9</ele>
        <time>2020-09-03T07:31:16Z</time>
      </trkpt>
      <trkpt lat="45.16747" lon="-0.55839">
        <ele>23.9</ele>
        <time>2020-09-03T07:31:17Z</time>
      </trkpt>
      <trkpt lat="45.16747" lon="-0.55841">
        <ele>23.9</ele>
        <time>2020-09-03T07:31:19Z</time>
      </trkpt>
      <trkpt lat="45.16747" lon="-0.55842">
        <ele>23.9</ele>
        <time>2020-09-03T07:31:20Z</time>
      </trkpt>
      <trkpt lat="45.16749" lon="-0.55845">
        <ele>23.9</ele>
        <time>2020-09-03T07:31:21Z</time>
      </trkpt>
      <trkpt lat="45.16749" lon="-0.55846">
        <ele>23.9</ele>
        <time>2020-09-03T07:31:23Z</time>
      </trkpt>
      <trkpt lat="45.1675" lon="-0.55847">
        <ele>23.9</ele>
        <time>2020-09-03T07:31:24Z</time>
      </trkpt>
      <trkpt lat="45.1675" lon="-0.55848">
        <ele>23.9</ele>
        <time>2020-09-03T07:31:25Z</time>
      </trkpt>
      <trkpt lat="45.16751" lon="-0.5585">
        <ele>23.9</ele>
        <time>2020-09-03T07:31:26Z</time>
      </trkpt>
      <trkpt lat="45.16752" lon="-0.5585">
        <ele>23.9</ele>
        <time>2020-09-03T07:31:28Z</time>
      </trkpt>
      <trkpt lat="45.16753" lon="-0.55852">
        <ele>23.9</ele>
        <time>2020-09-03T07:31:29Z</time>
      </trkpt>
      <trkpt lat="45.16754" lon="-0.55854">
        <ele>23.9</ele>
        <time>2020-09-03T07:31:31Z</time>
      </trkpt>
      <trkpt lat="45.16755" lon="-0.55855">
        <ele>23.9</ele>
        <time>2020-09-03T07:31:32Z</time>
      </trkpt>
      <trkpt lat="45.16756" lon="-0.55857">
        <ele>23.9</ele>
        <time>2020-09-03T07:31:33Z</time>
      </trkpt>
      <trkpt lat="45.16757" lon="-0.5586">
        <ele>23.9</ele>
        <time>2020-09-03T07:31:35Z</time>
      </trkpt>
      <trkpt lat="45.16759" lon="-0.55862">
        <ele>23.9</ele>
        <time>2020-09-03T07:31:36Z</time>
      </trkpt>
      <trkpt lat="45.1676" lon="-0.55864">
        <ele>23.9</ele>
        <time>2020-09-03T07:31:38Z</time>
      </trkpt>
      <trkpt lat="45.16761" lon="-0.55867">
        <ele>23.9</ele>
        <time>2020-09-03T07:31:39Z</time>
      </trkpt>
      <trkpt lat="45.16762" lon="-0.55868">
        <ele>23.9</ele>
        <time>2020-09-03T07:31:40Z</time>
      </trkpt>
      <trkpt lat="45.16763" lon="-0.5587">
        <ele>23.9</ele>
        <time>2020-09-03T07:31:41Z</time>
      </trkpt>
      <trkpt lat="45.16764" lon="-0.55871">
        <ele>23.8</ele>
        <time>2020-09-03T07:31:42Z</time>
      </trkpt>
      <trkpt lat="45.16764" lon="-0.55872">
        <ele>23.8</ele>
        <time>2020-09-03T07:31:43Z</time>
      </trkpt>
      <trkpt lat="45.16765" lon="-0.55873">
        <ele>23.8</ele>
        <time>2020-09-03T07:31:44Z</time>
      </trkpt>
      <trkpt lat="45.16767" lon="-0.55877">
        <ele>23.8</ele>
        <time>2020-09-03T07:31:46Z</time>
      </trkpt>
      <trkpt lat="45.16768" lon="-0.55878">
        <ele>23.8</ele>
        <time>2020-09-03T07:31:47Z</time>
      </trkpt>
      <trkpt lat="45.16769" lon="-0.5588">
        <ele>23.8</ele>
        <time>2020-09-03T07:31:48Z</time>
      </trkpt>
      <trkpt lat="45.16772" lon="-0.55883">
        <ele>23.8</ele>
        <time>2020-09-03T07:31:50Z</time>
      </trkpt>
      <trkpt lat="45.16773" lon="-0.55885">
        <ele>23.8</ele>
        <time>2020-09-03T07:31:51Z</time>
      </trkpt>
      <trkpt lat="45.16774" lon="-0.55887">
        <ele>23.8</ele>
        <time>2020-09-03T07:31:53Z</time>
      </trkpt>
      <trkpt lat="45.16776" lon="-0.55888">
        <ele>23.8</ele>
        <time>2020-09-03T07:31:54Z</time>
      </trkpt>
      <trkpt lat="45.16778" lon="-0.5589">
        <ele>23.8</ele>
        <time>2020-09-03T07:31:56Z</time>
      </trkpt>
      <trkpt lat="45.1678" lon="-0.55892">
        <ele>23.8</ele>
        <time>2020-09-03T07:31:58Z</time>
      </trkpt>
      <trkpt lat="45.16781" lon="-0.55893">
        <ele>23.8</ele>
        <time>2020-09-03T07:31:59Z</time>
      </trkpt>
      <trkpt lat="45.16784" lon="-0.55895">
        <ele>23.8</ele>
        <time>2020-09-03T07:32:01Z</time>
      </trkpt>
      <trkpt lat="45.16785" lon="-0.55896">
        <ele>23.8</ele>
        <time>2020-09-03T07:32:02Z</time>
      </trkpt>
      <trkpt lat="45.16786" lon="-0.55897">
        <ele>23.8</ele>
        <time>2020-09-03T07:32:03Z</time>
      </trkpt>
      <trkpt lat="45.16788" lon="-0.55899">
        <ele>23.8</ele>
        <time>2020-09-03T07:32:04Z</time>
      </trkpt>
      <trkpt lat="45.1679" lon="-0.55901">
        <ele>23.8</ele>
        <time>2020-09-03T07:32:06Z</time>
      </trkpt>
      <trkpt lat="45.16792" lon="-0.55902">
        <ele>23.8</ele>
        <time>2020-09-03T07:32:08Z</time>
      </trkpt>
      <trkpt lat="45.16794" lon="-0.55904">
        <ele>23.8</ele>
        <time>2020-09-03T07:32:09Z</time>
      </trkpt>
      <trkpt lat="45.16795" lon="-0.55905">
        <ele>23.8</ele>
        <time>2020-09-03T07:32:11Z</time>
      </trkpt>
      <trkpt lat="45.16797" lon="-0.55907">
        <ele>23.7</ele>
        <time>2020-09-03T07:32:12Z</time>
      </trkpt>
      <trkpt lat="45.16799" lon="-0.55909">
        <ele>23.7</ele>
        <time>2020-09-03T07:32:14Z</time>
      </trkpt>
      <trkpt lat="45.16801" lon="-0.55912">
        <ele>23.7</ele>
        <time>2020-09-03T07:32:16Z</time>
      </trkpt>
      <trkpt lat="45.16802" lon="-0.55913">
        <ele>23.7</ele>
        <time>2020-09-03T07:32:17Z</time>
      </trkpt>
      <trkpt lat="45.16804" lon="-0.55915">
        <ele>23.7</ele>
        <time>2020-09-03T07:32:19Z</time>
      </trkpt>
      <trkpt lat="45.16805" lon="-0.55917">
        <ele>23.7</ele>
        <time>2020-09-03T07:32:20Z</time>
      </trkpt>
      <trkpt lat="45.16807" lon="-0.55919">
        <ele>23.7</ele>
        <time>2020-09-03T07:32:22Z</time>
      </trkpt>
      <trkpt lat="45.16808" lon="-0.5592">
        <ele>23.7</ele>
        <time>2020-09-03T07:32:23Z</time>
      </trkpt>
      <trkpt lat="45.16809" lon="-0.55922">
        <ele>23.7</ele>
        <time>2020-09-03T07:32:25Z</time>
      </trkpt>
      <trkpt lat="45.16811" lon="-0.55926">
        <ele>23.7</ele>
        <time>2020-09-03T07:32:27Z</time>
      </trkpt>
      <trkpt lat="45.16811" lon="-0.55927">
        <ele>23.7</ele>
        <time>2020-09-03T07:32:28Z</time>
      </trkpt>
      <trkpt lat="45.16812" lon="-0.55929">
        <ele>23.7</ele>
        <time>2020-09-03T07:32:29Z</time>
      </trkpt>
      <trkpt lat="45.16813" lon="-0.55934">
        <ele>23.7</ele>
        <time>2020-09-03T07:32:31Z</time>
      </trkpt>
      <trkpt lat="45.16814" lon="-0.55936">
        <ele>23.7</ele>
        <time>2020-09-03T07:32:32Z</time>
      </trkpt>
      <trkpt lat="45.16814" lon="-0.55937">
        <ele>23.7</ele>
        <time>2020-09-03T07:32:33Z</time>
      </trkpt>
      <trkpt lat="45.16815" lon="-0.5594">
        <ele>23.7</ele>
        <time>2020-09-03T07:32:34Z</time>
      </trkpt>
      <trkpt lat="45.16816" lon="-0.55944">
        <ele>23.7</ele>
        <time>2020-09-03T07:32:36Z</time>
      </trkpt>
      <trkpt lat="45.16816" lon="-0.55945">
        <ele>23.7</ele>
        <time>2020-09-03T07:32:37Z</time>
      </trkpt>
      <trkpt lat="45.16817" lon="-0.55947">
        <ele>23.7</ele>
        <time>2020-09-03T07:32:38Z</time>
      </trkpt>
      <trkpt lat="45.16818" lon="-0.5595">
        <ele>23.7</ele>
        <time>2020-09-03T07:32:40Z</time>
      </trkpt>
      <trkpt lat="45.16818" lon="-0.55951">
        <ele>23.7</ele>
        <time>2020-09-03T07:32:41Z</time>
      </trkpt>
      <trkpt lat="45.16819" lon="-0.55954">
        <ele>23.7</ele>
        <time>2020-09-03T07:32:43Z</time>
      </trkpt>
      <trkpt lat="45.16819" lon="-0.55956">
        <ele>23.7</ele>
        <time>2020-09-03T07:32:44Z</time>
      </trkpt>
      <trkpt lat="45.1682" lon="-0.55957">
        <ele>23.6</ele>
        <time>2020-09-03T07:32:45Z</time>
      </trkpt>
      <trkpt lat="45.16821" lon="-0.55962">
        <ele>23.6</ele>
        <time>2020-09-03T07:32:47Z</time>
      </trkpt>
      <trkpt lat="45.16822" lon="-0.55965">
        <ele>23.6</ele>
        <time>2020-09-03T07:32:48Z</time>
      </trkpt>
      <trkpt lat="45.16822" lon="-0.55966">
        <ele>23.6</ele>
        <time>2020-09-03T07:32:49Z</time>
      </trkpt>
      <trkpt lat="45.16822" lon="-0.55967">
        <ele>23.6</ele>
        <time>2020-09-03T07:32:50Z</time>
      </trkpt>
      <trkpt lat="45.16824" lon="-0.5597">
        <ele>23.6</ele>
        <time>2020-09-03T07:32:52Z</time>
      </trkpt>
      <trkpt lat="45.16824" lon="-0.55972">
        <ele>23.6</ele>
        <time>2020-09-03T07:32:53Z</time>
      </trkpt>
      <trkpt lat="45.16825" lon="-0.55974">
        <ele>23.6</ele>
        <time>2020-09-03T07:32:54Z</time>
      </trkpt>
      <trkpt lat="45.16826" lon="-0.55977">
        <ele>23.6</ele>
        <time>2020-09-03T07:32:56Z</time>
      </trkpt>
      <trkpt lat="45.16827" lon="-0.55979">
        <ele>23.6</ele>
        <time>2020-09-03T07:32:57Z</time>
      </trkpt>
      <trkpt lat="45.16828" lon="-0.55982">
        <ele>23.6</ele>
        <time>2020-09-03T07:32:58Z</time>
      </trkpt>
      <trkpt lat="45.16829" lon="-0.55983">
        <ele>23.6</ele>
        <time>2020-09-03T07:33:00Z</time>
      </trkpt>
      <trkpt lat="45.1683" lon="-0.55985">
        <ele>23.6</ele>
        <time>2020-09-03T07:33:01Z</time>
      </trkpt>
      <trkpt lat="45.1683" lon="-0.55986">
        <ele>23.6</ele>
        <time>2020-09-03T07:33:03Z</time>
      </trkpt>
      <trkpt lat="45.16831" lon="-0.55987">
        <ele>23.6</ele>
        <time>2020-09-03T07:33:04Z</time>
      </trkpt>
      <trkpt lat="45.16832" lon="-0.55989">
        <ele>23.6</ele>
        <time>2020-09-03T07:33:05Z</time>
      </trkpt>
      <trkpt lat="45.16833" lon="-0.55991">
        <ele>23.6</ele>
        <time>2020-09-03T07:33:07Z</time>
      </trkpt>
      <trkpt lat="45.16834" lon="-0.55993">
        <ele>23.6</ele>
        <time>2020-09-03T07:33:08Z</time>
      </trkpt>
      <trkpt lat="45.16835" lon="-0.55994">
        <ele>23.6</ele>
        <time>2020-09-03T07:33:09Z</time>
      </trkpt>
      <trkpt lat="45.16837" lon="-0.55996">
        <ele>23.6</ele>
        <time>2020-09-03T07:33:11Z</time>
      </trkpt>
      <trkpt lat="45.16839" lon="-0.55999">
        <ele>23.6</ele>
        <time>2020-09-03T07:33:12Z</time>
      </trkpt>
      <trkpt lat="45.1684" lon="-0.56">
        <ele>23.6</ele>
        <time>2020-09-03T07:33:13Z</time>
      </trkpt>
      <trkpt lat="45.16841" lon="-0.56001">
        <ele>23.6</ele>
        <time>2020-09-03T07:33:14Z</time>
      </trkpt>
      <trkpt lat="45.16843" lon="-0.56002">
        <ele>23.6</ele>
        <time>2020-09-03T07:33:16Z</time>
      </trkpt>
      <trkpt lat="45.16845" lon="-0.56004">
        <ele>23.5</ele>
        <time>2020-09-03T07:33:17Z</time>
      </trkpt>
      <trkpt lat="45.16847" lon="-0.56005">
        <ele>23.5</ele>
        <time>2020-09-03T07:33:18Z</time>
      </trkpt>
      <trkpt lat="45.16848" lon="-0.56006">
        <ele>23.5</ele>
        <time>2020-09-03T07:33:19Z</time>
      </trkpt>
      <trkpt lat="45.16849" lon="-0.56006">
        <ele>23.5</ele>
        <time>2020-09-03T07:33:20Z</time>
      </trkpt>
      <trkpt lat="45.16851" lon="-0.56007">
        <ele>23.5</ele>
        <time>2020-09-03T07:33:22Z</time>
      </trkpt>
      <trkpt lat="45.16851" lon="-0.56008">
        <ele>23.5</ele>
        <time>2020-09-03T07:33:23Z</time>
      </trkpt>
      <trkpt lat="45.16853" lon="-0.56008">
        <ele>23.5</ele>
        <time>2020-09-03T07:33:24Z</time>
      </trkpt>
      <trkpt lat="45.16854" lon="-0.56009">
        <ele>23.5</ele>
        <time>2020-09-03T07:33:26Z</time>
      </trkpt>
      <trkpt lat="45.16856" lon="-0.56009">
        <ele>23.5</ele>
        <time>2020-09-03T07:33:27Z</time>
      </trkpt>
      <trkpt lat="45.16857" lon="-0.56009">
        <ele>23.5</ele>
        <time>2020-09-03T07:33:28Z</time>
      </trkpt>
      <trkpt lat="45.16859" lon="-0.56009">
        <ele>23.5</ele>
        <time>2020-09-03T07:33:29Z</time>
      </trkpt>
      <trkpt lat="45.1686" lon="-0.5601">
        <ele>23.5</ele>
        <time>2020-09-03T07:33:30Z</time>
      </trkpt>
      <trkpt lat="45.16862" lon="-0.5601">
        <ele>23.5</ele>
        <time>2020-09-03T07:33:32Z</time>
      </trkpt>
      <trkpt lat="45.16864" lon="-0.56011">
        <ele>23.5</ele>
        <time>2020-09-03T07:33:33Z</time>
      </trkpt>
      <trkpt lat="45.16866" lon="-0.56011">
        <ele>23.5</ele>
        <time>2020-09-03T07:33:35Z</time>
      </trkpt>
      <trkpt lat="45.16867" lon="-0.56012">
        <ele>23.5</ele>
        <time>2020-09-03T07:33:36Z</time>
      </trkpt>
      <trkpt lat="45.16869" lon="-0.56012">
        <ele>23.5</ele>
        <time>2020-09-03T07:33:37Z</time>
      </trkpt>
      <trkpt lat="45.16871" lon="-0.56013">
        <ele>23.5</ele>
        <time>2020-09-03T07:33:38Z</time>
      </trkpt>
      <trkpt lat="45.16872" lon="-0.56013">
        <ele>23.5</ele>
        <time>2020-09-03T07:33:40Z</time>
      </trkpt>
      <trkpt lat="45.16874" lon="-0.56013">
        <ele>23.5</ele>
        <time>2020-09-03T07:33:41Z</time>
      </trkpt>
      <trkpt lat="45.16876" lon="-0.56014">
        <ele>23.5</ele>
        <time>2020-09-03T07:33:42Z</time>
      </trkpt>
      <trkpt lat="45.16878" lon="-0.56014">
        <ele>23.5</ele>
        <time>2020-09-03T07:33:44Z</time>
      </trkpt>
      <trkpt lat="45.1688" lon="-0.56014">
        <ele>23.5</ele>
        <time>2020-09-03T07:33:46Z</time>
      </trkpt>
      <trkpt lat="45.16883" lon="-0.56014">
        <ele>23.5</ele>
        <time>2020-09-03T07:33:47Z</time>
      </trkpt>
      <trkpt lat="45.16884" lon="-0.56014">
        <ele>23.5</ele>
        <time>2020-09-03T07:33:49Z</time>
      </trkpt>
      <trkpt lat="45.16886" lon="-0.56014">
        <ele>23.5</ele>
        <time>2020-09-03T07:33:50Z</time>
      </trkpt>
      <trkpt lat="45.16887" lon="-0.56014">
        <ele>23.4</ele>
        <time>2020-09-03T07:33:51Z</time>
      </trkpt>
      <trkpt lat="45.1689" lon="-0.56014">
        <ele>23.4</ele>
        <time>2020-09-03T07:33:52Z</time>
      </trkpt>
      <trkpt lat="45.16891" lon="-0.56014">
        <ele>23.4</ele>
        <time>2020-09-03T07:33:54Z</time>
      </trkpt>
      <trkpt lat="45.16893" lon="-0.56014">
        <ele>23.4</ele>
        <time>2020-09-03T07:33:55Z</time>
      </trkpt>
      <trkpt lat="45.16896" lon="-0.56015">
        <ele>23.4</ele>
        <time>2020-09-03T07:33:57Z</time>
      </trkpt>
      <trkpt lat="45.16897" lon="-0.56015">
        <ele>23.4</ele>
        <time>2020-09-03T07:33:58Z</time>
      </trkpt>
      <trkpt lat="45.16898" lon="-0.56015">
        <ele>23.4</ele>
        <time>2020-09-03T07:33:59Z</time>
      </trkpt>
      <trkpt lat="45.169" lon="-0.56016">
        <ele>23.4</ele>
        <time>2020-09-03T07:34:00Z</time>
      </trkpt>
      <trkpt lat="45.16902" lon="-0.56016">
        <ele>23.4</ele>
        <time>2020-09-03T07:34:02Z</time>
      </trkpt>
      <trkpt lat="45.16903" lon="-0.56017">
        <ele>23.4</ele>
        <time>2020-09-03T07:34:03Z</time>
      </trkpt>
      <trkpt lat="45.16905" lon="-0.56018">
        <ele>23.4</ele>
        <time>2020-09-03T07:34:05Z</time>
      </trkpt>
      <trkpt lat="45.16906" lon="-0.56018">
        <ele>23.4</ele>
        <time>2020-09-03T07:34:06Z</time>
      </trkpt>
      <trkpt lat="45.16908" lon="-0.56019">
        <ele>23.4</ele>
        <time>2020-09-03T07:34:07Z</time>
      </trkpt>
      <trkpt lat="45.1691" lon="-0.56019">
        <ele>23.4</ele>
        <time>2020-09-03T07:34:09Z</time>
      </trkpt>
      <trkpt lat="45.16912" lon="-0.5602">
        <ele>23.4</ele>
        <time>2020-09-03T07:34:10Z</time>
      </trkpt>
      <trkpt lat="45.16913" lon="-0.5602">
        <ele>23.4</ele>
        <time>2020-09-03T07:34:11Z</time>
      </trkpt>
      <trkpt lat="45.16914" lon="-0.5602">
        <ele>23.4</ele>
        <time>2020-09-03T07:34:12Z</time>
      </trkpt>
      <trkpt lat="45.16915" lon="-0.5602">
        <ele>23.4</ele>
        <time>2020-09-03T07:34:13Z</time>
      </trkpt>
      <trkpt lat="45.16917" lon="-0.5602">
        <ele>23.4</ele>
        <time>2020-09-03T07:34:14Z</time>
      </trkpt>
      <trkpt lat="45.16918" lon="-0.56019">
        <ele>23.4</ele>
        <time>2020-09-03T07:34:16Z</time>
      </trkpt>
      <trkpt lat="45.16919" lon="-0.56017">
        <ele>23.4</ele>
        <time>2020-09-03T07:34:17Z</time>
      </trkpt>
      <trkpt lat="45.1692" lon="-0.56015">
        <ele>23.4</ele>
        <time>2020-09-03T07:34:18Z</time>
      </trkpt>
      <trkpt lat="45.16921" lon="-0.56014">
        <ele>23.4</ele>
        <time>2020-09-03T07:34:19Z</time>
      </trkpt>
      <trkpt lat="45.16922" lon="-0.56012">
        <ele>23.5</ele>
        <time>2020-09-03T07:34:20Z</time>
      </trkpt>
      <trkpt lat="45.16923" lon="-0.56006">
        <ele>23.5</ele>
        <time>2020-09-03T07:34:22Z</time>
      </trkpt>
      <trkpt lat="45.16924" lon="-0.56004">
        <ele>23.5</ele>
        <time>2020-09-03T07:34:24Z</time>
      </trkpt>
      <trkpt lat="45.16925" lon="-0.56002">
        <ele>23.5</ele>
        <time>2020-09-03T07:34:25Z</time>
      </trkpt>
      <trkpt lat="45.16925" lon="-0.56">
        <ele>23.6</ele>
        <time>2020-09-03T07:34:27Z</time>
      </trkpt>
      <trkpt lat="45.16926" lon="-0.55998">
        <ele>23.6</ele>
        <time>2020-09-03T07:34:28Z</time>
      </trkpt>
      <trkpt lat="45.16927" lon="-0.55996">
        <ele>23.6</ele>
        <time>2020-09-03T07:34:29Z</time>
      </trkpt>
      <trkpt lat="45.16927" lon="-0.55994">
        <ele>23.6</ele>
        <time>2020-09-03T07:34:31Z</time>
      </trkpt>
      <trkpt lat="45.16928" lon="-0.55991">
        <ele>23.6</ele>
        <time>2020-09-03T07:34:32Z</time>
      </trkpt>
      <trkpt lat="45.16928" lon="-0.5599">
        <ele>23.7</ele>
        <time>2020-09-03T07:34:33Z</time>
      </trkpt>
      <trkpt lat="45.16928" lon="-0.55989">
        <ele>23.7</ele>
        <time>2020-09-03T07:34:34Z</time>
      </trkpt>
      <trkpt lat="45.16929" lon="-0.55987">
        <ele>23.7</ele>
        <time>2020-09-03T07:34:35Z</time>
      </trkpt>
      <trkpt lat="45.16929" lon="-0.55985">
        <ele>23.7</ele>
        <time>2020-09-03T07:34:36Z</time>
      </trkpt>
      <trkpt lat="45.1693" lon="-0.55982">
        <ele>23.7</ele>
        <time>2020-09-03T07:34:38Z</time>
      </trkpt>
      <trkpt lat="45.1693" lon="-0.5598">
        <ele>23.7</ele>
        <time>2020-09-03T07:34:39Z</time>
      </trkpt>
      <trkpt lat="45.1693" lon="-0.55976">
        <ele>23.8</ele>
        <time>2020-09-03T07:34:41Z</time>
      </trkpt>
      <trkpt lat="45.1693" lon="-0.55972">
        <ele>23.8</ele>
        <time>2020-09-03T07:34:42Z</time>
      </trkpt>
      <trkpt lat="45.16931" lon="-0.55968">
        <ele>23.9</ele>
        <time>2020-09-03T07:34:44Z</time>
      </trkpt>
      <trkpt lat="45.16932" lon="-0.55966">
        <ele>23.9</ele>
        <time>2020-09-03T07:34:45Z</time>
      </trkpt>
      <trkpt lat="45.16933" lon="-0.55961">
        <ele>23.9</ele>
        <time>2020-09-03T07:34:47Z</time>
      </trkpt>
      <trkpt lat="45.16934" lon="-0.55957">
        <ele>24</ele>
        <time>2020-09-03T07:34:49Z</time>
      </trkpt>
      <trkpt lat="45.16934" lon="-0.55956">
        <ele>24</ele>
        <time>2020-09-03T07:34:50Z</time>
      </trkpt>
      <trkpt lat="45.16934" lon="-0.55954">
        <ele>24</ele>
        <time>2020-09-03T07:34:51Z</time>
      </trkpt>
      <trkpt lat="45.16935" lon="-0.5595">
        <ele>24</ele>
        <time>2020-09-03T07:34:53Z</time>
      </trkpt>
      <trkpt lat="45.16936" lon="-0.55949">
        <ele>24</ele>
        <time>2020-09-03T07:34:54Z</time>
      </trkpt>
      <trkpt lat="45.16936" lon="-0.55947">
        <ele>24</ele>
        <time>2020-09-03T07:34:56Z</time>
      </trkpt>
      <trkpt lat="45.16937" lon="-0.55944">
        <ele>24.1</ele>
        <time>2020-09-03T07:34:58Z</time>
      </trkpt>
      <trkpt lat="45.16938" lon="-0.55943">
        <ele>24.1</ele>
        <time>2020-09-03T07:34:59Z</time>
      </trkpt>
      <trkpt lat="45.16939" lon="-0.5594">
        <ele>24.1</ele>
        <time>2020-09-03T07:35:00Z</time>
      </trkpt>
      <trkpt lat="45.16941" lon="-0.55937">
        <ele>24.2</ele>
        <time>2020-09-03T07:35:03Z</time>
      </trkpt>
      <trkpt lat="45.16941" lon="-0.55936">
        <ele>24.2</ele>
        <time>2020-09-03T07:35:04Z</time>
      </trkpt>
      <trkpt lat="45.16943" lon="-0.55934">
        <ele>24.2</ele>
        <time>2020-09-03T07:35:05Z</time>
      </trkpt>
      <trkpt lat="45.16944" lon="-0.55931">
        <ele>24.2</ele>
        <time>2020-09-03T07:35:07Z</time>
      </trkpt>
      <trkpt lat="45.16947" lon="-0.55928">
        <ele>24.3</ele>
        <time>2020-09-03T07:35:08Z</time>
      </trkpt>
      <trkpt lat="45.16948" lon="-0.55927">
        <ele>24.3</ele>
        <time>2020-09-03T07:35:11Z</time>
      </trkpt>
      <trkpt lat="45.16949" lon="-0.55925">
        <ele>24.3</ele>
        <time>2020-09-03T07:35:12Z</time>
      </trkpt>
      <trkpt lat="45.16951" lon="-0.55924">
        <ele>24.3</ele>
        <time>2020-09-03T07:35:13Z</time>
      </trkpt>
      <trkpt lat="45.16952" lon="-0.55922">
        <ele>24.3</ele>
        <time>2020-09-03T07:35:14Z</time>
      </trkpt>
      <trkpt lat="45.16953" lon="-0.55921">
        <ele>24.4</ele>
        <time>2020-09-03T07:35:16Z</time>
      </trkpt>
      <trkpt lat="45.16955" lon="-0.55919">
        <ele>24.4</ele>
        <time>2020-09-03T07:35:17Z</time>
      </trkpt>
      <trkpt lat="45.16957" lon="-0.55917">
        <ele>24.4</ele>
        <time>2020-09-03T07:35:19Z</time>
      </trkpt>
      <trkpt lat="45.16958" lon="-0.55916">
        <ele>24.4</ele>
        <time>2020-09-03T07:35:20Z</time>
      </trkpt>
      <trkpt lat="45.16959" lon="-0.55915">
        <ele>24.4</ele>
        <time>2020-09-03T07:35:21Z</time>
      </trkpt>
      <trkpt lat="45.16962" lon="-0.55913">
        <ele>24.5</ele>
        <time>2020-09-03T07:35:23Z</time>
      </trkpt>
      <trkpt lat="45.16963" lon="-0.55912">
        <ele>24.5</ele>
        <time>2020-09-03T07:35:24Z</time>
      </trkpt>
      <trkpt lat="45.16964" lon="-0.5591">
        <ele>24.5</ele>
        <time>2020-09-03T07:35:25Z</time>
      </trkpt>
      <trkpt lat="45.16967" lon="-0.55906">
        <ele>24.6</ele>
        <time>2020-09-03T07:35:28Z</time>
      </trkpt>
      <trkpt lat="45.16968" lon="-0.55905">
        <ele>24.6</ele>
        <time>2020-09-03T07:35:29Z</time>
      </trkpt>
      <trkpt lat="45.16969" lon="-0.55903">
        <ele>24.6</ele>
        <time>2020-09-03T07:35:30Z</time>
      </trkpt>
      <trkpt lat="45.1697" lon="-0.55902">
        <ele>24.6</ele>
        <time>2020-09-03T07:35:31Z</time>
      </trkpt>
      <trkpt lat="45.16972" lon="-0.55899">
        <ele>24.7</ele>
        <time>2020-09-03T07:35:33Z</time>
      </trkpt>
      <trkpt lat="45.16973" lon="-0.55898">
        <ele>24.7</ele>
        <time>2020-09-03T07:35:34Z</time>
      </trkpt>
      <trkpt lat="45.16974" lon="-0.55897">
        <ele>24.7</ele>
        <time>2020-09-03T07:35:35Z</time>
      </trkpt>
      <trkpt lat="45.16975" lon="-0.55895">
        <ele>24.7</ele>
        <time>2020-09-03T07:35:36Z</time>
      </trkpt>
      <trkpt lat="45.16976" lon="-0.55893">
        <ele>24.7</ele>
        <time>2020-09-03T07:35:38Z</time>
      </trkpt>
      <trkpt lat="45.16978" lon="-0.55892">
        <ele>24.8</ele>
        <time>2020-09-03T07:35:39Z</time>
      </trkpt>
      <trkpt lat="45.16979" lon="-0.55891">
        <ele>24.8</ele>
        <time>2020-09-03T07:35:41Z</time>
      </trkpt>
      <trkpt lat="45.16981" lon="-0.5589">
        <ele>24.8</ele>
        <time>2020-09-03T07:35:42Z</time>
      </trkpt>
      <trkpt lat="45.16982" lon="-0.55889">
        <ele>24.8</ele>
        <time>2020-09-03T07:35:43Z</time>
      </trkpt>
      <trkpt lat="45.16982" lon="-0.55889">
        <ele>24.8</ele>
        <time>2020-09-03T07:35:44Z</time>
      </trkpt>
      <trkpt lat="45.16983" lon="-0.55888">
        <ele>24.8</ele>
        <time>2020-09-03T07:35:45Z</time>
      </trkpt>
      <trkpt lat="45.16984" lon="-0.55887">
        <ele>24.8</ele>
        <time>2020-09-03T07:35:47Z</time>
      </trkpt>
      <trkpt lat="45.16986" lon="-0.55886">
        <ele>24.9</ele>
        <time>2020-09-03T07:35:48Z</time>
      </trkpt>
      <trkpt lat="45.16987" lon="-0.55885">
        <ele>24.9</ele>
        <time>2020-09-03T07:35:49Z</time>
      </trkpt>
      <trkpt lat="45.16987" lon="-0.55884">
        <ele>24.9</ele>
        <time>2020-09-03T07:35:50Z</time>
      </trkpt>
      <trkpt lat="45.16989" lon="-0.55882">
        <ele>24.9</ele>
        <time>2020-09-03T07:35:51Z</time>
      </trkpt>
      <trkpt lat="45.16991" lon="-0.5588">
        <ele>24.9</ele>
        <time>2020-09-03T07:35:53Z</time>
      </trkpt>
      <trkpt lat="45.16992" lon="-0.55878">
        <ele>25</ele>
        <time>2020-09-03T07:35:54Z</time>
      </trkpt>
      <trkpt lat="45.16993" lon="-0.55878">
        <ele>25</ele>
        <time>2020-09-03T07:35:55Z</time>
      </trkpt>
      <trkpt lat="45.16994" lon="-0.55877">
        <ele>25</ele>
        <time>2020-09-03T07:35:56Z</time>
      </trkpt>
      <trkpt lat="45.16996" lon="-0.55876">
        <ele>25</ele>
        <time>2020-09-03T07:35:57Z</time>
      </trkpt>
      <trkpt lat="45.16996" lon="-0.55875">
        <ele>25</ele>
        <time>2020-09-03T07:35:58Z</time>
      </trkpt>
      <trkpt lat="45.16998" lon="-0.55874">
        <ele>25</ele>
        <time>2020-09-03T07:35:59Z</time>
      </trkpt>
      <trkpt lat="45.16999" lon="-0.55873">
        <ele>25.1</ele>
        <time>2020-09-03T07:36:00Z</time>
      </trkpt>
      <trkpt lat="45.16999" lon="-0.55872">
        <ele>25.1</ele>
        <time>2020-09-03T07:36:01Z</time>
      </trkpt>
      <trkpt lat="45.17001" lon="-0.5587">
        <ele>25.1</ele>
        <time>2020-09-03T07:36:03Z</time>
      </trkpt>
      <trkpt lat="45.17002" lon="-0.5587">
        <ele>25.1</ele>
        <time>2020-09-03T07:36:04Z</time>
      </trkpt>
      <trkpt lat="45.17003" lon="-0.55868">
        <ele>25.1</ele>
        <time>2020-09-03T07:36:06Z</time>
      </trkpt>
      <trkpt lat="45.17004" lon="-0.55867">
        <ele>25.1</ele>
        <time>2020-09-03T07:36:07Z</time>
      </trkpt>
      <trkpt lat="45.17006" lon="-0.55865">
        <ele>25.2</ele>
        <time>2020-09-03T07:36:09Z</time>
      </trkpt>
      <trkpt lat="45.17006" lon="-0.55864">
        <ele>25.2</ele>
        <time>2020-09-03T07:36:10Z</time>
      </trkpt>
      <trkpt lat="45.17009" lon="-0.55861">
        <ele>25.2</ele>
        <time>2020-09-03T07:36:11Z</time>
      </trkpt>
      <trkpt lat="45.17009" lon="-0.5586">
        <ele>25.2</ele>
        <time>2020-09-03T07:36:12Z</time>
      </trkpt>
      <trkpt lat="45.1701" lon="-0.55859">
        <ele>25.2</ele>
        <time>2020-09-03T07:36:14Z</time>
      </trkpt>
      <trkpt lat="45.17012" lon="-0.55857">
        <ele>25.3</ele>
        <time>2020-09-03T07:36:15Z</time>
      </trkpt>
      <trkpt lat="45.17013" lon="-0.55856">
        <ele>25.3</ele>
        <time>2020-09-03T07:36:16Z</time>
      </trkpt>
      <trkpt lat="45.17015" lon="-0.55853">
        <ele>25.3</ele>
        <time>2020-09-03T07:36:18Z</time>
      </trkpt>
      <trkpt lat="45.17016" lon="-0.55852">
        <ele>25.3</ele>
        <time>2020-09-03T07:36:19Z</time>
      </trkpt>
      <trkpt lat="45.17017" lon="-0.5585">
        <ele>25.4</ele>
        <time>2020-09-03T07:36:20Z</time>
      </trkpt>
      <trkpt lat="45.17019" lon="-0.55847">
        <ele>25.4</ele>
        <time>2020-09-03T07:36:21Z</time>
      </trkpt>
      <trkpt lat="45.1702" lon="-0.55846">
        <ele>25.4</ele>
        <time>2020-09-03T07:36:22Z</time>
      </trkpt>
      <trkpt lat="45.17021" lon="-0.55845">
        <ele>25.4</ele>
        <time>2020-09-03T07:36:24Z</time>
      </trkpt>
      <trkpt lat="45.17023" lon="-0.55842">
        <ele>25.5</ele>
        <time>2020-09-03T07:36:25Z</time>
      </trkpt>
      <trkpt lat="45.17023" lon="-0.55841">
        <ele>25.5</ele>
        <time>2020-09-03T07:36:26Z</time>
      </trkpt>
      <trkpt lat="45.17025" lon="-0.55839">
        <ele>25.5</ele>
        <time>2020-09-03T07:36:28Z</time>
      </trkpt>
      <trkpt lat="45.17028" lon="-0.55837">
        <ele>25.5</ele>
        <time>2020-09-03T07:36:30Z</time>
      </trkpt>
      <trkpt lat="45.17028" lon="-0.55836">
        <ele>25.5</ele>
        <time>2020-09-03T07:36:31Z</time>
      </trkpt>
      <trkpt lat="45.1703" lon="-0.55834">
        <ele>25.6</ele>
        <time>2020-09-03T07:36:32Z</time>
      </trkpt>
      <trkpt lat="45.17031" lon="-0.55833">
        <ele>25.6</ele>
        <time>2020-09-03T07:36:34Z</time>
      </trkpt>
      <trkpt lat="45.17033" lon="-0.55831">
        <ele>25.6</ele>
        <time>2020-09-03T07:36:36Z</time>
      </trkpt>
      <trkpt lat="45.17034" lon="-0.55829">
        <ele>25.6</ele>
        <time>2020-09-03T07:36:37Z</time>
      </trkpt>
      <trkpt lat="45.17036" lon="-0.55826">
        <ele>25.7</ele>
        <time>2020-09-03T07:36:38Z</time>
      </trkpt>
      <trkpt lat="45.17036" lon="-0.55825">
        <ele>25.7</ele>
        <time>2020-09-03T07:36:39Z</time>
      </trkpt>
      <trkpt lat="45.17039" lon="-0.55822">
        <ele>25.7</ele>
        <time>2020-09-03T07:36:41Z</time>
      </trkpt>
      <trkpt lat="45.1704" lon="-0.55821">
        <ele>25.8</ele>
        <time>2020-09-03T07:36:42Z</time>
      </trkpt>
      <trkpt lat="45.17041" lon="-0.55818">
        <ele>25.8</ele>
        <time>2020-09-03T07:36:44Z</time>
      </trkpt>
      <trkpt lat="45.17042" lon="-0.55817">
        <ele>25.8</ele>
        <time>2020-09-03T07:36:45Z</time>
      </trkpt>
      <trkpt lat="45.17043" lon="-0.55816">
        <ele>25.8</ele>
        <time>2020-09-03T07:36:46Z</time>
      </trkpt>
      <trkpt lat="45.17044" lon="-0.55816">
        <ele>25.8</ele>
        <time>2020-09-03T07:36:48Z</time>
      </trkpt>
      <trkpt lat="45.17045" lon="-0.55814">
        <ele>25.8</ele>
        <time>2020-09-03T07:36:49Z</time>
      </trkpt>
      <trkpt lat="45.17047" lon="-0.55812">
        <ele>25.9</ele>
        <time>2020-09-03T07:36:51Z</time>
      </trkpt>
      <trkpt lat="45.17048" lon="-0.5581">
        <ele>25.9</ele>
        <time>2020-09-03T07:36:53Z</time>
      </trkpt>
      <trkpt lat="45.1705" lon="-0.55808">
        <ele>25.9</ele>
        <time>2020-09-03T07:36:54Z</time>
      </trkpt>
      <trkpt lat="45.17051" lon="-0.55807">
        <ele>25.9</ele>
        <time>2020-09-03T07:36:55Z</time>
      </trkpt>
      <trkpt lat="45.17052" lon="-0.55805">
        <ele>26</ele>
        <time>2020-09-03T07:36:56Z</time>
      </trkpt>
      <trkpt lat="45.17054" lon="-0.55803">
        <ele>26</ele>
        <time>2020-09-03T07:36:57Z</time>
      </trkpt>
      <trkpt lat="45.17055" lon="-0.55802">
        <ele>26</ele>
        <time>2020-09-03T07:36:58Z</time>
      </trkpt>
      <trkpt lat="45.17056" lon="-0.55801">
        <ele>26</ele>
        <time>2020-09-03T07:36:59Z</time>
      </trkpt>
      <trkpt lat="45.17057" lon="-0.55799">
        <ele>26</ele>
        <time>2020-09-03T07:37:00Z</time>
      </trkpt>
      <trkpt lat="45.1706" lon="-0.55796">
        <ele>26.1</ele>
        <time>2020-09-03T07:37:02Z</time>
      </trkpt>
      <trkpt lat="45.17061" lon="-0.55794">
        <ele>26.1</ele>
        <time>2020-09-03T07:37:03Z</time>
      </trkpt>
      <trkpt lat="45.17062" lon="-0.55793">
        <ele>26.1</ele>
        <time>2020-09-03T07:37:05Z</time>
      </trkpt>
      <trkpt lat="45.17063" lon="-0.55791">
        <ele>26.1</ele>
        <time>2020-09-03T07:37:06Z</time>
      </trkpt>
      <trkpt lat="45.17064" lon="-0.55789">
        <ele>26.2</ele>
        <time>2020-09-03T07:37:08Z</time>
      </trkpt>
      <trkpt lat="45.17066" lon="-0.55787">
        <ele>26.2</ele>
        <time>2020-09-03T07:37:09Z</time>
      </trkpt>
      <trkpt lat="45.17066" lon="-0.55785">
        <ele>26.2</ele>
        <time>2020-09-03T07:37:10Z</time>
      </trkpt>
      <trkpt lat="45.17067" lon="-0.55782">
        <ele>26.2</ele>
        <time>2020-09-03T07:37:11Z</time>
      </trkpt>
      <trkpt lat="45.17068" lon="-0.55781">
        <ele>26.2</ele>
        <time>2020-09-03T07:37:13Z</time>
      </trkpt>
      <trkpt lat="45.17068" lon="-0.55779">
        <ele>26.3</ele>
        <time>2020-09-03T07:37:14Z</time>
      </trkpt>
      <trkpt lat="45.17069" lon="-0.55776">
        <ele>26.3</ele>
        <time>2020-09-03T07:37:16Z</time>
      </trkpt>
      <trkpt lat="45.17069" lon="-0.55775">
        <ele>26.3</ele>
        <time>2020-09-03T07:37:17Z</time>
      </trkpt>
      <trkpt lat="45.17069" lon="-0.5577">
        <ele>26.3</ele>
        <time>2020-09-03T07:37:18Z</time>
      </trkpt>
      <trkpt lat="45.1707" lon="-0.55768">
        <ele>26.4</ele>
        <time>2020-09-03T07:37:19Z</time>
      </trkpt>
      <trkpt lat="45.1707" lon="-0.55766">
        <ele>26.4</ele>
        <time>2020-09-03T07:37:21Z</time>
      </trkpt>
      <trkpt lat="45.1707" lon="-0.55764">
        <ele>26.4</ele>
        <time>2020-09-03T07:37:22Z</time>
      </trkpt>
      <trkpt lat="45.1707" lon="-0.55762">
        <ele>26.4</ele>
        <time>2020-09-03T07:37:23Z</time>
      </trkpt>
      <trkpt lat="45.17071" lon="-0.55759">
        <ele>26.4</ele>
        <time>2020-09-03T07:37:24Z</time>
      </trkpt>
      <trkpt lat="45.17071" lon="-0.55756">
        <ele>26.5</ele>
        <time>2020-09-03T07:37:26Z</time>
      </trkpt>
      <trkpt lat="45.1707" lon="-0.55754">
        <ele>26.5</ele>
        <time>2020-09-03T07:37:27Z</time>
      </trkpt>
      <trkpt lat="45.1707" lon="-0.55749">
        <ele>26.5</ele>
        <time>2020-09-03T07:37:28Z</time>
      </trkpt>
      <trkpt lat="45.17069" lon="-0.55747">
        <ele>26.6</ele>
        <time>2020-09-03T07:37:30Z</time>
      </trkpt>
      <trkpt lat="45.17068" lon="-0.55746">
        <ele>26.6</ele>
        <time>2020-09-03T07:37:31Z</time>
      </trkpt>
      <trkpt lat="45.17068" lon="-0.55744">
        <ele>26.6</ele>
        <time>2020-09-03T07:37:32Z</time>
      </trkpt>
      <trkpt lat="45.17067" lon="-0.55741">
        <ele>26.6</ele>
        <time>2020-09-03T07:37:33Z</time>
      </trkpt>
      <trkpt lat="45.17067" lon="-0.5574">
        <ele>26.6</ele>
        <time>2020-09-03T07:37:34Z</time>
      </trkpt>
      <trkpt lat="45.17066" lon="-0.55738">
        <ele>26.6</ele>
        <time>2020-09-03T07:37:35Z</time>
      </trkpt>
      <trkpt lat="45.17065" lon="-0.55735">
        <ele>26.7</ele>
        <time>2020-09-03T07:37:37Z</time>
      </trkpt>
      <trkpt lat="45.17064" lon="-0.55732">
        <ele>26.7</ele>
        <time>2020-09-03T07:37:39Z</time>
      </trkpt>
      <trkpt lat="45.17063" lon="-0.5573">
        <ele>26.7</ele>
        <time>2020-09-03T07:37:40Z</time>
      </trkpt>
      <trkpt lat="45.17063" lon="-0.55728">
        <ele>26.7</ele>
        <time>2020-09-03T07:37:41Z</time>
      </trkpt>
      <trkpt lat="45.17062" lon="-0.55725">
        <ele>26.8</ele>
        <time>2020-09-03T07:37:43Z</time>
      </trkpt>
      <trkpt lat="45.17062" lon="-0.55723">
        <ele>26.8</ele>
        <time>2020-09-03T07:37:44Z</time>
      </trkpt>
      <trkpt lat="45.17062" lon="-0.55721">
        <ele>26.8</ele>
        <time>2020-09-03T07:37:45Z</time>
      </trkpt>
      <trkpt lat="45.17062" lon="-0.55719">
        <ele>26.8</ele>
        <time>2020-09-03T07:37:46Z</time>
      </trkpt>
      <trkpt lat="45.17062" lon="-0.55717">
        <ele>26.8</ele>
        <time>2020-09-03T07:37:47Z</time>
      </trkpt>
      <trkpt lat="45.17062" lon="-0.55713">
        <ele>26.9</ele>
        <time>2020-09-03T07:37:48Z</time>
      </trkpt>
      <trkpt lat="45.17062" lon="-0.55711">
        <ele>26.9</ele>
        <time>2020-09-03T07:37:50Z</time>
      </trkpt>
      <trkpt lat="45.17062" lon="-0.55709">
        <ele>26.9</ele>
        <time>2020-09-03T07:37:51Z</time>
      </trkpt>
      <trkpt lat="45.17062" lon="-0.55708">
        <ele>26.9</ele>
        <time>2020-09-03T07:37:52Z</time>
      </trkpt>
      <trkpt lat="45.17061" lon="-0.55706">
        <ele>26.9</ele>
        <time>2020-09-03T07:37:53Z</time>
      </trkpt>
      <trkpt lat="45.17061" lon="-0.55705">
        <ele>26.9</ele>
        <time>2020-09-03T07:37:54Z</time>
      </trkpt>
      <trkpt lat="45.17061" lon="-0.55703">
        <ele>27</ele>
        <time>2020-09-03T07:37:55Z</time>
      </trkpt>
      <trkpt lat="45.17061" lon="-0.557">
        <ele>27</ele>
        <time>2020-09-03T07:37:57Z</time>
      </trkpt>
      <trkpt lat="45.17061" lon="-0.55696">
        <ele>27</ele>
        <time>2020-09-03T07:37:59Z</time>
      </trkpt>
      <trkpt lat="45.17061" lon="-0.55693">
        <ele>27</ele>
        <time>2020-09-03T07:38:00Z</time>
      </trkpt>
      <trkpt lat="45.1706" lon="-0.55691">
        <ele>27.1</ele>
        <time>2020-09-03T07:38:02Z</time>
      </trkpt>
      <trkpt lat="45.1706" lon="-0.5569">
        <ele>27.1</ele>
        <time>2020-09-03T07:38:03Z</time>
      </trkpt>
      <trkpt lat="45.17059" lon="-0.55687">
        <ele>27.1</ele>
        <time>2020-09-03T07:38:04Z</time>
      </trkpt>
      <trkpt lat="45.17059" lon="-0.55685">
        <ele>27.1</ele>
        <time>2020-09-03T07:38:05Z</time>
      </trkpt>
      <trkpt lat="45.17058" lon="-0.55682">
        <ele>27.1</ele>
        <time>2020-09-03T07:38:07Z</time>
      </trkpt>
      <trkpt lat="45.17058" lon="-0.5568">
        <ele>27.2</ele>
        <time>2020-09-03T07:38:08Z</time>
      </trkpt>
      <trkpt lat="45.17057" lon="-0.55677">
        <ele>27.2</ele>
        <time>2020-09-03T07:38:10Z</time>
      </trkpt>
      <trkpt lat="45.17057" lon="-0.55675">
        <ele>27.2</ele>
        <time>2020-09-03T07:38:11Z</time>
      </trkpt>
      <trkpt lat="45.17056" lon="-0.55673">
        <ele>27.2</ele>
        <time>2020-09-03T07:38:12Z</time>
      </trkpt>
      <trkpt lat="45.17055" lon="-0.55669">
        <ele>27.3</ele>
        <time>2020-09-03T07:38:13Z</time>
      </trkpt>
      <trkpt lat="45.17055" lon="-0.55667">
        <ele>27.3</ele>
        <time>2020-09-03T07:38:14Z</time>
      </trkpt>
      <trkpt lat="45.17055" lon="-0.55666">
        <ele>27.3</ele>
        <time>2020-09-03T07:38:15Z</time>
      </trkpt>
      <trkpt lat="45.17055" lon="-0.55664">
        <ele>27.3</ele>
        <time>2020-09-03T07:38:17Z</time>
      </trkpt>
      <trkpt lat="45.17054" lon="-0.55663">
        <ele>27.3</ele>
        <time>2020-09-03T07:38:18Z</time>
      </trkpt>
      <trkpt lat="45.17053" lon="-0.5566">
        <ele>27.3</ele>
        <time>2020-09-03T07:38:19Z</time>
      </trkpt>
      <trkpt lat="45.17053" lon="-0.55658">
        <ele>27.4</ele>
        <time>2020-09-03T07:38:20Z</time>
      </trkpt>
      <trkpt lat="45.17053" lon="-0.55657">
        <ele>27.4</ele>
        <time>2020-09-03T07:38:21Z</time>
      </trkpt>
      <trkpt lat="45.17052" lon="-0.55655">
        <ele>27.4</ele>
        <time>2020-09-03T07:38:22Z</time>
      </trkpt>
      <trkpt lat="45.17052" lon="-0.55651">
        <ele>27.4</ele>
        <time>2020-09-03T07:38:24Z</time>
      </trkpt>
      <trkpt lat="45.17052" lon="-0.5565">
        <ele>27.4</ele>
        <time>2020-09-03T07:38:25Z</time>
      </trkpt>
      <trkpt lat="45.17052" lon="-0.55649">
        <ele>27.4</ele>
        <time>2020-09-03T07:38:26Z</time>
      </trkpt>
      <trkpt lat="45.17052" lon="-0.55647">
        <ele>27.5</ele>
        <time>2020-09-03T07:38:27Z</time>
      </trkpt>
      <trkpt lat="45.17051" lon="-0.55642">
        <ele>27.5</ele>
        <time>2020-09-03T07:38:29Z</time>
      </trkpt>
      <trkpt lat="45.17051" lon="-0.55641">
        <ele>27.5</ele>
        <time>2020-09-03T07:38:30Z</time>
      </trkpt>
      <trkpt lat="45.17051" lon="-0.55638">
        <ele>27.5</ele>
        <time>2020-09-03T07:38:31Z</time>
      </trkpt>
      <trkpt lat="45.17051" lon="-0.55634">
        <ele>27.6</ele>
        <time>2020-09-03T07:38:32Z</time>
      </trkpt>
      <trkpt lat="45.17051" lon="-0.55633">
        <ele>27.6</ele>
        <time>2020-09-03T07:38:33Z</time>
      </trkpt>
      <trkpt lat="45.1705" lon="-0.55632">
        <ele>27.6</ele>
        <time>2020-09-03T07:38:34Z</time>
      </trkpt>
      <trkpt lat="45.1705" lon="-0.5563">
        <ele>27.6</ele>
        <time>2020-09-03T07:38:36Z</time>
      </trkpt>
      <trkpt lat="45.1705" lon="-0.55628">
        <ele>27.6</ele>
        <time>2020-09-03T07:38:37Z</time>
      </trkpt>
      <trkpt lat="45.1705" lon="-0.55627">
        <ele>27.6</ele>
        <time>2020-09-03T07:38:38Z</time>
      </trkpt>
      <trkpt lat="45.1705" lon="-0.55623">
        <ele>27.7</ele>
        <time>2020-09-03T07:38:40Z</time>
      </trkpt>
      <trkpt lat="45.1705" lon="-0.55622">
        <ele>27.7</ele>
        <time>2020-09-03T07:38:41Z</time>
      </trkpt>
      <trkpt lat="45.17049" lon="-0.55619">
        <ele>27.7</ele>
        <time>2020-09-03T07:38:42Z</time>
      </trkpt>
      <trkpt lat="45.17049" lon="-0.55614">
        <ele>27.7</ele>
        <time>2020-09-03T07:38:44Z</time>
      </trkpt>
      <trkpt lat="45.17049" lon="-0.55613">
        <ele>27.8</ele>
        <time>2020-09-03T07:38:45Z</time>
      </trkpt>
      <trkpt lat="45.17049" lon="-0.55611">
        <ele>27.8</ele>
        <time>2020-09-03T07:38:46Z</time>
      </trkpt>
      <trkpt lat="45.17049" lon="-0.55609">
        <ele>27.8</ele>
        <time>2020-09-03T07:38:48Z</time>
      </trkpt>
      <trkpt lat="45.17049" lon="-0.55604">
        <ele>27.8</ele>
        <time>2020-09-03T07:38:49Z</time>
      </trkpt>
      <trkpt lat="45.17049" lon="-0.55601">
        <ele>27.9</ele>
        <time>2020-09-03T07:38:51Z</time>
      </trkpt>
      <trkpt lat="45.17049" lon="-0.55599">
        <ele>27.9</ele>
        <time>2020-09-03T07:38:52Z</time>
      </trkpt>
      <trkpt lat="45.17049" lon="-0.55594">
        <ele>27.9</ele>
        <time>2020-09-03T07:38:54Z</time>
      </trkpt>
      <trkpt lat="45.17049" lon="-0.55592">
        <ele>27.9</ele>
        <time>2020-09-03T07:38:55Z</time>
      </trkpt>
      <trkpt lat="45.17049" lon="-0.5559">
        <ele>28</ele>
        <time>2020-09-03T07:38:56Z</time>
      </trkpt>
      <trkpt lat="45.17049" lon="-0.55586">
        <ele>28</ele>
        <time>2020-09-03T07:38:57Z</time>
      </trkpt>
      <trkpt lat="45.17049" lon="-0.55584">
        <ele>28</ele>
        <time>2020-09-03T07:38:58Z</time>
      </trkpt>
      <trkpt lat="45.17049" lon="-0.55583">
        <ele>28</ele>
        <time>2020-09-03T07:39:00Z</time>
      </trkpt>
      <trkpt lat="45.17048" lon="-0.55581">
        <ele>28</ele>
        <time>2020-09-03T07:39:01Z</time>
      </trkpt>
      <trkpt lat="45.17048" lon="-0.55579">
        <ele>28.1</ele>
        <time>2020-09-03T07:39:02Z</time>
      </trkpt>
      <trkpt lat="45.17048" lon="-0.55576">
        <ele>28.1</ele>
        <time>2020-09-03T07:39:04Z</time>
      </trkpt>
      <trkpt lat="45.17047" lon="-0.55574">
        <ele>28.1</ele>
        <time>2020-09-03T07:39:05Z</time>
      </trkpt>
      <trkpt lat="45.17047" lon="-0.55572">
        <ele>28.1</ele>
        <time>2020-09-03T07:39:07Z</time>
      </trkpt>
      <trkpt lat="45.17046" lon="-0.55568">
        <ele>28.2</ele>
        <time>2020-09-03T07:39:08Z</time>
      </trkpt>
      <trkpt lat="45.17045" lon="-0.55566">
        <ele>28.2</ele>
        <time>2020-09-03T07:39:10Z</time>
      </trkpt>
      <trkpt lat="45.17045" lon="-0.55564">
        <ele>28.2</ele>
        <time>2020-09-03T07:39:11Z</time>
      </trkpt>
      <trkpt lat="45.17044" lon="-0.55561">
        <ele>28.2</ele>
        <time>2020-09-03T07:39:12Z</time>
      </trkpt>
      <trkpt lat="45.17043" lon="-0.55558">
        <ele>28.2</ele>
        <time>2020-09-03T07:39:14Z</time>
      </trkpt>
      <trkpt lat="45.17042" lon="-0.55556">
        <ele>28.3</ele>
        <time>2020-09-03T07:39:15Z</time>
      </trkpt>
      <trkpt lat="45.17041" lon="-0.55552">
        <ele>28.3</ele>
        <time>2020-09-03T07:39:17Z</time>
      </trkpt>
      <trkpt lat="45.1704" lon="-0.55549">
        <ele>28.3</ele>
        <time>2020-09-03T07:39:19Z</time>
      </trkpt>
      <trkpt lat="45.17039" lon="-0.55548">
        <ele>28.3</ele>
        <time>2020-09-03T07:39:20Z</time>
      </trkpt>
      <trkpt lat="45.17038" lon="-0.55546">
        <ele>28.4</ele>
        <time>2020-09-03T07:39:21Z</time>
      </trkpt>
      <trkpt lat="45.17038" lon="-0.55545">
        <ele>28.4</ele>
        <time>2020-09-03T07:39:22Z</time>
      </trkpt>
      <trkpt lat="45.17037" lon="-0.55542">
        <ele>28.4</ele>
        <time>2020-09-03T07:39:23Z</time>
      </trkpt>
      <trkpt lat="45.17037" lon="-0.55541">
        <ele>28.4</ele>
        <time>2020-09-03T07:39:24Z</time>
      </trkpt>
      <trkpt lat="45.17037" lon="-0.55539">
        <ele>28.4</ele>
        <time>2020-09-03T07:39:26Z</time>
      </trkpt>
      <trkpt lat="45.17036" lon="-0.55537">
        <ele>28.5</ele>
        <time>2020-09-03T07:39:27Z</time>
      </trkpt>
      <trkpt lat="45.17035" lon="-0.55533">
        <ele>28.5</ele>
        <time>2020-09-03T07:39:29Z</time>
      </trkpt>
      <trkpt lat="45.17035" lon="-0.55532">
        <ele>28.5</ele>
        <time>2020-09-03T07:39:30Z</time>
      </trkpt>
      <trkpt lat="45.17034" lon="-0.5553">
        <ele>28.5</ele>
        <time>2020-09-03T07:39:31Z</time>
      </trkpt>
      <trkpt lat="45.17034" lon="-0.55528">
        <ele>28.5</ele>
        <time>2020-09-03T07:39:32Z</time>
      </trkpt>
      <trkpt lat="45.17033" lon="-0.55524">
        <ele>28.6</ele>
        <time>2020-09-03T07:39:34Z</time>
      </trkpt>
      <trkpt lat="45.17033" lon="-0.55521">
        <ele>28.6</ele>
        <time>2020-09-03T07:39:36Z</time>
      </trkpt>
      <trkpt lat="45.17032" lon="-0.55519">
        <ele>28.6</ele>
        <time>2020-09-03T07:39:37Z</time>
      </trkpt>
      <trkpt lat="45.17032" lon="-0.55515">
        <ele>28.7</ele>
        <time>2020-09-03T07:39:38Z</time>
      </trkpt>
      <trkpt lat="45.17031" lon="-0.55512">
        <ele>28.7</ele>
        <time>2020-09-03T07:39:39Z</time>
      </trkpt>
      <trkpt lat="45.17031" lon="-0.55511">
        <ele>28.7</ele>
        <time>2020-09-03T07:39:41Z</time>
      </trkpt>
      <trkpt lat="45.17031" lon="-0.55509">
        <ele>28.7</ele>
        <time>2020-09-03T07:39:42Z</time>
      </trkpt>
      <trkpt lat="45.1703" lon="-0.55505">
        <ele>28.7</ele>
        <time>2020-09-03T07:39:44Z</time>
      </trkpt>
      <trkpt lat="45.1703" lon="-0.55504">
        <ele>28.8</ele>
        <time>2020-09-03T07:39:45Z</time>
      </trkpt>
      <trkpt lat="45.1703" lon="-0.55502">
        <ele>28.8</ele>
        <time>2020-09-03T07:39:46Z</time>
      </trkpt>
      <trkpt lat="45.1703" lon="-0.555">
        <ele>28.8</ele>
        <time>2020-09-03T07:39:47Z</time>
      </trkpt>
      <trkpt lat="45.1703" lon="-0.55497">
        <ele>28.8</ele>
        <time>2020-09-03T07:39:49Z</time>
      </trkpt>
      <trkpt lat="45.17029" lon="-0.55494">
        <ele>28.8</ele>
        <time>2020-09-03T07:39:50Z</time>
      </trkpt>
      <trkpt lat="45.17029" lon="-0.55492">
        <ele>28.9</ele>
        <time>2020-09-03T07:39:51Z</time>
      </trkpt>
      <trkpt lat="45.17029" lon="-0.5549">
        <ele>28.9</ele>
        <time>2020-09-03T07:39:52Z</time>
      </trkpt>
      <trkpt lat="45.17029" lon="-0.55488">
        <ele>28.9</ele>
        <time>2020-09-03T07:39:53Z</time>
      </trkpt>
      <trkpt lat="45.17028" lon="-0.55487">
        <ele>28.9</ele>
        <time>2020-09-03T07:39:54Z</time>
      </trkpt>
      <trkpt lat="45.17028" lon="-0.55485">
        <ele>28.9</ele>
        <time>2020-09-03T07:39:56Z</time>
      </trkpt>
      <trkpt lat="45.17028" lon="-0.55483">
        <ele>28.9</ele>
        <time>2020-09-03T07:39:57Z</time>
      </trkpt>
      <trkpt lat="45.17028" lon="-0.55479">
        <ele>29</ele>
        <time>2020-09-03T07:39:59Z</time>
      </trkpt>
      <trkpt lat="45.17028" lon="-0.55478">
        <ele>29</ele>
        <time>2020-09-03T07:40:00Z</time>
      </trkpt>
      <trkpt lat="45.17028" lon="-0.55476">
        <ele>29</ele>
        <time>2020-09-03T07:40:01Z</time>
      </trkpt>
      <trkpt lat="45.17027" lon="-0.55474">
        <ele>29</ele>
        <time>2020-09-03T07:40:02Z</time>
      </trkpt>
      <trkpt lat="45.17027" lon="-0.55471">
        <ele>29</ele>
        <time>2020-09-03T07:40:04Z</time>
      </trkpt>
      <trkpt lat="45.17027" lon="-0.55469">
        <ele>29.1</ele>
        <time>2020-09-03T07:40:05Z</time>
      </trkpt>
      <trkpt lat="45.17027" lon="-0.55468">
        <ele>29.1</ele>
        <time>2020-09-03T07:40:06Z</time>
      </trkpt>
      <trkpt lat="45.17027" lon="-0.55464">
        <ele>29.1</ele>
        <time>2020-09-03T07:40:08Z</time>
      </trkpt>
      <trkpt lat="45.17026" lon="-0.5546">
        <ele>29.1</ele>
        <time>2020-09-03T07:40:09Z</time>
      </trkpt>
      <trkpt lat="45.17026" lon="-0.55459">
        <ele>29.1</ele>
        <time>2020-09-03T07:40:10Z</time>
      </trkpt>
      <trkpt lat="45.17025" lon="-0.55456">
        <ele>29.2</ele>
        <time>2020-09-03T07:40:12Z</time>
      </trkpt>
      <trkpt lat="45.17024" lon="-0.55451">
        <ele>29.2</ele>
        <time>2020-09-03T07:40:14Z</time>
      </trkpt>
      <trkpt lat="45.17024" lon="-0.55448">
        <ele>29.2</ele>
        <time>2020-09-03T07:40:16Z</time>
      </trkpt>
      <trkpt lat="45.17023" lon="-0.55447">
        <ele>29.3</ele>
        <time>2020-09-03T07:40:17Z</time>
      </trkpt>
      <trkpt lat="45.17023" lon="-0.55445">
        <ele>29.3</ele>
        <time>2020-09-03T07:40:18Z</time>
      </trkpt>
      <trkpt lat="45.17023" lon="-0.55442">
        <ele>29.3</ele>
        <time>2020-09-03T07:40:20Z</time>
      </trkpt>
      <trkpt lat="45.17023" lon="-0.55439">
        <ele>29.3</ele>
        <time>2020-09-03T07:40:22Z</time>
      </trkpt>
      <trkpt lat="45.17023" lon="-0.55437">
        <ele>29.3</ele>
        <time>2020-09-03T07:40:23Z</time>
      </trkpt>
      <trkpt lat="45.17022" lon="-0.55433">
        <ele>29.4</ele>
        <time>2020-09-03T07:40:24Z</time>
      </trkpt>
      <trkpt lat="45.17022" lon="-0.5543">
        <ele>29.4</ele>
        <time>2020-09-03T07:40:26Z</time>
      </trkpt>
      <trkpt lat="45.17022" lon="-0.55427">
        <ele>29.4</ele>
        <time>2020-09-03T07:40:28Z</time>
      </trkpt>
      <trkpt lat="45.17021" lon="-0.55423">
        <ele>29.5</ele>
        <time>2020-09-03T07:40:30Z</time>
      </trkpt>
      <trkpt lat="45.17021" lon="-0.55421">
        <ele>29.5</ele>
        <time>2020-09-03T07:40:31Z</time>
      </trkpt>
      <trkpt lat="45.1702" lon="-0.55419">
        <ele>29.5</ele>
        <time>2020-09-03T07:40:32Z</time>
      </trkpt>
      <trkpt lat="45.1702" lon="-0.55414">
        <ele>29.5</ele>
        <time>2020-09-03T07:40:34Z</time>
      </trkpt>
      <trkpt lat="45.17019" lon="-0.55413">
        <ele>29.6</ele>
        <time>2020-09-03T07:40:35Z</time>
      </trkpt>
      <trkpt lat="45.17019" lon="-0.55409">
        <ele>29.6</ele>
        <time>2020-09-03T07:40:37Z</time>
      </trkpt>
      <trkpt lat="45.17018" lon="-0.55408">
        <ele>29.6</ele>
        <time>2020-09-03T07:40:38Z</time>
      </trkpt>
      <trkpt lat="45.17018" lon="-0.55405">
        <ele>29.6</ele>
        <time>2020-09-03T07:40:39Z</time>
      </trkpt>
      <trkpt lat="45.17017" lon="-0.55403">
        <ele>29.6</ele>
        <time>2020-09-03T07:40:40Z</time>
      </trkpt>
      <trkpt lat="45.17017" lon="-0.55401">
        <ele>29.7</ele>
        <time>2020-09-03T07:40:42Z</time>
      </trkpt>
      <trkpt lat="45.17016" lon="-0.55399">
        <ele>29.7</ele>
        <time>2020-09-03T07:40:43Z</time>
      </trkpt>
      <trkpt lat="45.17015" lon="-0.55394">
        <ele>29.7</ele>
        <time>2020-09-03T07:40:45Z</time>
      </trkpt>
      <trkpt lat="45.17015" lon="-0.55393">
        <ele>29.7</ele>
        <time>2020-09-03T07:40:46Z</time>
      </trkpt>
      <trkpt lat="45.17015" lon="-0.5539">
        <ele>29.8</ele>
        <time>2020-09-03T07:40:47Z</time>
      </trkpt>
      <trkpt lat="45.17014" lon="-0.55388">
        <ele>29.8</ele>
        <time>2020-09-03T07:40:49Z</time>
      </trkpt>
      <trkpt lat="45.17014" lon="-0.55387">
        <ele>29.8</ele>
        <time>2020-09-03T07:40:50Z</time>
      </trkpt>
      <trkpt lat="45.17013" lon="-0.55384">
        <ele>29.8</ele>
        <time>2020-09-03T07:40:51Z</time>
      </trkpt>
      <trkpt lat="45.17013" lon="-0.55381">
        <ele>29.9</ele>
        <time>2020-09-03T07:40:53Z</time>
      </trkpt>
      <trkpt lat="45.17012" lon="-0.5538">
        <ele>29.9</ele>
        <time>2020-09-03T07:40:54Z</time>
      </trkpt>
      <trkpt lat="45.17012" lon="-0.55379">
        <ele>29.9</ele>
        <time>2020-09-03T07:40:55Z</time>
      </trkpt>
      <trkpt lat="45.17012" lon="-0.55377">
        <ele>29.9</ele>
        <time>2020-09-03T07:40:56Z</time>
      </trkpt>
      <trkpt lat="45.17011" lon="-0.55375">
        <ele>29.9</ele>
        <time>2020-09-03T07:40:58Z</time>
      </trkpt>
      <trkpt lat="45.1701" lon="-0.55371">
        <ele>29.9</ele>
        <time>2020-09-03T07:40:59Z</time>
      </trkpt>
      <trkpt lat="45.1701" lon="-0.5537">
        <ele>30</ele>
        <time>2020-09-03T07:41:00Z</time>
      </trkpt>
      <trkpt lat="45.1701" lon="-0.55368">
        <ele>30</ele>
        <time>2020-09-03T07:41:01Z</time>
      </trkpt>
      <trkpt lat="45.17009" lon="-0.55365">
        <ele>30</ele>
        <time>2020-09-03T07:41:04Z</time>
      </trkpt>
      <trkpt lat="45.17008" lon="-0.55362">
        <ele>30</ele>
        <time>2020-09-03T07:41:05Z</time>
      </trkpt>
      <trkpt lat="45.17007" lon="-0.55359">
        <ele>30.1</ele>
        <time>2020-09-03T07:41:08Z</time>
      </trkpt>
      <trkpt lat="45.17007" lon="-0.55355">
        <ele>30.1</ele>
        <time>2020-09-03T07:41:09Z</time>
      </trkpt>
      <trkpt lat="45.17006" lon="-0.55352">
        <ele>30.1</ele>
        <time>2020-09-03T07:41:11Z</time>
      </trkpt>
      <trkpt lat="45.17006" lon="-0.5535">
        <ele>30.1</ele>
        <time>2020-09-03T07:41:12Z</time>
      </trkpt>
      <trkpt lat="45.17005" lon="-0.55346">
        <ele>30.2</ele>
        <time>2020-09-03T07:41:14Z</time>
      </trkpt>
      <trkpt lat="45.17005" lon="-0.55344">
        <ele>30.2</ele>
        <time>2020-09-03T07:41:15Z</time>
      </trkpt>
      <trkpt lat="45.17005" lon="-0.55342">
        <ele>30.2</ele>
        <time>2020-09-03T07:41:17Z</time>
      </trkpt>
      <trkpt lat="45.17004" lon="-0.55339">
        <ele>30.2</ele>
        <time>2020-09-03T07:41:18Z</time>
      </trkpt>
      <trkpt lat="45.17004" lon="-0.55336">
        <ele>30.3</ele>
        <time>2020-09-03T07:41:19Z</time>
      </trkpt>
      <trkpt lat="45.17004" lon="-0.55334">
        <ele>30.3</ele>
        <time>2020-09-03T07:41:20Z</time>
      </trkpt>
      <trkpt lat="45.17004" lon="-0.5533">
        <ele>30.3</ele>
        <time>2020-09-03T07:41:21Z</time>
      </trkpt>
      <trkpt lat="45.17004" lon="-0.55329">
        <ele>30.3</ele>
        <time>2020-09-03T07:41:22Z</time>
      </trkpt>
      <trkpt lat="45.17004" lon="-0.55326">
        <ele>30.3</ele>
        <time>2020-09-03T07:41:24Z</time>
      </trkpt>
      <trkpt lat="45.17004" lon="-0.55324">
        <ele>30.4</ele>
        <time>2020-09-03T07:41:25Z</time>
      </trkpt>
      <trkpt lat="45.17003" lon="-0.5532">
        <ele>30.4</ele>
        <time>2020-09-03T07:41:26Z</time>
      </trkpt>
      <trkpt lat="45.17003" lon="-0.55318">
        <ele>30.4</ele>
        <time>2020-09-03T07:41:28Z</time>
      </trkpt>
      <trkpt lat="45.17003" lon="-0.55315">
        <ele>30.4</ele>
        <time>2020-09-03T07:41:29Z</time>
      </trkpt>
      <trkpt lat="45.17002" lon="-0.55311">
        <ele>30.5</ele>
        <time>2020-09-03T07:41:31Z</time>
      </trkpt>
      <trkpt lat="45.17002" lon="-0.5531">
        <ele>30.5</ele>
        <time>2020-09-03T07:41:32Z</time>
      </trkpt>
      <trkpt lat="45.17002" lon="-0.55308">
        <ele>30.5</ele>
        <time>2020-09-03T07:41:33Z</time>
      </trkpt>
      <trkpt lat="45.17001" lon="-0.55304">
        <ele>30.5</ele>
        <time>2020-09-03T07:41:34Z</time>
      </trkpt>
      <trkpt lat="45.17001" lon="-0.55303">
        <ele>30.6</ele>
        <time>2020-09-03T07:41:35Z</time>
      </trkpt>
      <trkpt lat="45.17001" lon="-0.553">
        <ele>30.6</ele>
        <time>2020-09-03T07:41:37Z</time>
      </trkpt>
      <trkpt lat="45.17001" lon="-0.55299">
        <ele>30.6</ele>
        <time>2020-09-03T07:41:38Z</time>
      </trkpt>
      <trkpt lat="45.17" lon="-0.55297">
        <ele>30.6</ele>
        <time>2020-09-03T07:41:39Z</time>
      </trkpt>
      <trkpt lat="45.17" lon="-0.55294">
        <ele>30.6</ele>
        <time>2020-09-03T07:41:40Z</time>
      </trkpt>
      <trkpt lat="45.17" lon="-0.55293">
        <ele>30.6</ele>
        <time>2020-09-03T07:41:41Z</time>
      </trkpt>
      <trkpt lat="45.17" lon="-0.55292">
        <ele>30.6</ele>
        <time>2020-09-03T07:41:42Z</time>
      </trkpt>
      <trkpt lat="45.16999" lon="-0.55291">
        <ele>30.7</ele>
        <time>2020-09-03T07:41:43Z</time>
      </trkpt>
      <trkpt lat="45.16999" lon="-0.55289">
        <ele>30.7</ele>
        <time>2020-09-03T07:41:44Z</time>
      </trkpt>
      <trkpt lat="45.16998" lon="-0.55285">
        <ele>30.7</ele>
        <time>2020-09-03T07:41:46Z</time>
      </trkpt>
      <trkpt lat="45.16998" lon="-0.55284">
        <ele>30.7</ele>
        <time>2020-09-03T07:41:47Z</time>
      </trkpt>
      <trkpt lat="45.16997" lon="-0.55281">
        <ele>30.8</ele>
        <time>2020-09-03T07:41:48Z</time>
      </trkpt>
      <trkpt lat="45.16997" lon="-0.55279">
        <ele>30.8</ele>
        <time>2020-09-03T07:41:49Z</time>
      </trkpt>
      <trkpt lat="45.16997" lon="-0.55277">
        <ele>30.8</ele>
        <time>2020-09-03T07:41:50Z</time>
      </trkpt>
      <trkpt lat="45.16996" lon="-0.55277">
        <ele>30.8</ele>
        <time>2020-09-03T07:41:51Z</time>
      </trkpt>
      <trkpt lat="45.16996" lon="-0.55274">
        <ele>30.8</ele>
        <time>2020-09-03T07:41:53Z</time>
      </trkpt>
      <trkpt lat="45.16995" lon="-0.55273">
        <ele>30.8</ele>
        <time>2020-09-03T07:41:54Z</time>
      </trkpt>
      <trkpt lat="45.16995" lon="-0.55269">
        <ele>30.9</ele>
        <time>2020-09-03T07:41:56Z</time>
      </trkpt>
      <trkpt lat="45.16995" lon="-0.55267">
        <ele>30.9</ele>
        <time>2020-09-03T07:41:57Z</time>
      </trkpt>
      <trkpt lat="45.16994" lon="-0.55265">
        <ele>30.9</ele>
        <time>2020-09-03T07:41:58Z</time>
      </trkpt>
      <trkpt lat="45.16994" lon="-0.55263">
        <ele>30.9</ele>
        <time>2020-09-03T07:41:59Z</time>
      </trkpt>
      <trkpt lat="45.16993" lon="-0.55258">
        <ele>31</ele>
        <time>2020-09-03T07:42:01Z</time>
      </trkpt>
      <trkpt lat="45.16993" lon="-0.55257">
        <ele>31</ele>
        <time>2020-09-03T07:42:02Z</time>
      </trkpt>
      <trkpt lat="45.16993" lon="-0.55254">
        <ele>31</ele>
        <time>2020-09-03T07:42:04Z</time>
      </trkpt>
      <trkpt lat="45.16993" lon="-0.55249">
        <ele>31</ele>
        <time>2020-09-03T07:42:06Z</time>
      </trkpt>
      <trkpt lat="45.16992" lon="-0.55248">
        <ele>31</ele>
        <time>2020-09-03T07:42:07Z</time>
      </trkpt>
      <trkpt lat="45.16992" lon="-0.55246">
        <ele>31.1</ele>
        <time>2020-09-03T07:42:08Z</time>
      </trkpt>
      <trkpt lat="45.16992" lon="-0.55241">
        <ele>31.1</ele>
        <time>2020-09-03T07:42:09Z</time>
      </trkpt>
      <trkpt lat="45.16992" lon="-0.5524">
        <ele>31.1</ele>
        <time>2020-09-03T07:42:10Z</time>
      </trkpt>
      <trkpt lat="45.16991" lon="-0.55239">
        <ele>31.1</ele>
        <time>2020-09-03T07:42:11Z</time>
      </trkpt>
      <trkpt lat="45.16991" lon="-0.55237">
        <ele>31.1</ele>
        <time>2020-09-03T07:42:12Z</time>
      </trkpt>
      <trkpt lat="45.16991" lon="-0.55235">
        <ele>31.2</ele>
        <time>2020-09-03T07:42:13Z</time>
      </trkpt>
      <trkpt lat="45.16991" lon="-0.55232">
        <ele>31.2</ele>
        <time>2020-09-03T07:42:14Z</time>
      </trkpt>
      <trkpt lat="45.16991" lon="-0.5523">
        <ele>31.2</ele>
        <time>2020-09-03T07:42:15Z</time>
      </trkpt>
      <trkpt lat="45.16991" lon="-0.55227">
        <ele>31.2</ele>
        <time>2020-09-03T07:42:16Z</time>
      </trkpt>
      <trkpt lat="45.1699" lon="-0.55226">
        <ele>31.2</ele>
        <time>2020-09-03T07:42:18Z</time>
      </trkpt>
      <trkpt lat="45.1699" lon="-0.55224">
        <ele>31.3</ele>
        <time>2020-09-03T07:42:19Z</time>
      </trkpt>
      <trkpt lat="45.1699" lon="-0.55221">
        <ele>31.3</ele>
        <time>2020-09-03T07:42:21Z</time>
      </trkpt>
      <trkpt lat="45.1699" lon="-0.55218">
        <ele>31.3</ele>
        <time>2020-09-03T07:42:23Z</time>
      </trkpt>
      <trkpt lat="45.16989" lon="-0.55215">
        <ele>31.3</ele>
        <time>2020-09-03T07:42:24Z</time>
      </trkpt>
      <trkpt lat="45.16989" lon="-0.55213">
        <ele>31.4</ele>
        <time>2020-09-03T07:42:25Z</time>
      </trkpt>
      <trkpt lat="45.16988" lon="-0.55212">
        <ele>31.4</ele>
        <time>2020-09-03T07:42:26Z</time>
      </trkpt>
      <trkpt lat="45.16988" lon="-0.5521">
        <ele>31.4</ele>
        <time>2020-09-03T07:42:27Z</time>
      </trkpt>
      <trkpt lat="45.16988" lon="-0.55208">
        <ele>31.4</ele>
        <time>2020-09-03T07:42:28Z</time>
      </trkpt>
      <trkpt lat="45.16988" lon="-0.55205">
        <ele>31.4</ele>
        <time>2020-09-03T07:42:29Z</time>
      </trkpt>
      <trkpt lat="45.16988" lon="-0.55203">
        <ele>31.4</ele>
        <time>2020-09-03T07:42:31Z</time>
      </trkpt>
      <trkpt lat="45.16988" lon="-0.55201">
        <ele>31.5</ele>
        <time>2020-09-03T07:42:32Z</time>
      </trkpt>
      <trkpt lat="45.16987" lon="-0.55199">
        <ele>31.5</ele>
        <time>2020-09-03T07:42:33Z</time>
      </trkpt>
      <trkpt lat="45.16987" lon="-0.55196">
        <ele>31.5</ele>
        <time>2020-09-03T07:42:34Z</time>
      </trkpt>
      <trkpt lat="45.16987" lon="-0.55193">
        <ele>31.5</ele>
        <time>2020-09-03T07:42:36Z</time>
      </trkpt>
      <trkpt lat="45.16986" lon="-0.55189">
        <ele>31.6</ele>
        <time>2020-09-03T07:42:37Z</time>
      </trkpt>
      <trkpt lat="45.16985" lon="-0.55188">
        <ele>31.6</ele>
        <time>2020-09-03T07:42:38Z</time>
      </trkpt>
      <trkpt lat="45.16985" lon="-0.55186">
        <ele>31.6</ele>
        <time>2020-09-03T07:42:40Z</time>
      </trkpt>
      <trkpt lat="45.16984" lon="-0.55183">
        <ele>31.6</ele>
        <time>2020-09-03T07:42:41Z</time>
      </trkpt>
      <trkpt lat="45.16984" lon="-0.5518">
        <ele>31.6</ele>
        <time>2020-09-03T07:42:42Z</time>
      </trkpt>
      <trkpt lat="45.16983" lon="-0.55179">
        <ele>31.7</ele>
        <time>2020-09-03T07:42:43Z</time>
      </trkpt>
      <trkpt lat="45.16983" lon="-0.55177">
        <ele>31.7</ele>
        <time>2020-09-03T07:42:44Z</time>
      </trkpt>
      <trkpt lat="45.16982" lon="-0.55174">
        <ele>31.7</ele>
        <time>2020-09-03T07:42:45Z</time>
      </trkpt>
      <trkpt lat="45.16982" lon="-0.55172">
        <ele>31.7</ele>
        <time>2020-09-03T07:42:46Z</time>
      </trkpt>
      <trkpt lat="45.16981" lon="-0.55171">
        <ele>31.7</ele>
        <time>2020-09-03T07:42:48Z</time>
      </trkpt>
      <trkpt lat="45.16981" lon="-0.55169">
        <ele>31.7</ele>
        <time>2020-09-03T07:42:49Z</time>
      </trkpt>
      <trkpt lat="45.1698" lon="-0.55165">
        <ele>31.8</ele>
        <time>2020-09-03T07:42:50Z</time>
      </trkpt>
      <trkpt lat="45.1698" lon="-0.55164">
        <ele>31.8</ele>
        <time>2020-09-03T07:42:51Z</time>
      </trkpt>
      <trkpt lat="45.1698" lon="-0.55161">
        <ele>31.8</ele>
        <time>2020-09-03T07:42:53Z</time>
      </trkpt>
      <trkpt lat="45.1698" lon="-0.5516">
        <ele>31.8</ele>
        <time>2020-09-03T07:42:54Z</time>
      </trkpt>
      <trkpt lat="45.1698" lon="-0.55159">
        <ele>31.8</ele>
        <time>2020-09-03T07:42:55Z</time>
      </trkpt>
      <trkpt lat="45.16981" lon="-0.55156">
        <ele>31.9</ele>
        <time>2020-09-03T07:42:56Z</time>
      </trkpt>
      <trkpt lat="45.1698" lon="-0.55154">
        <ele>31.9</ele>
        <time>2020-09-03T07:42:57Z</time>
      </trkpt>
      <trkpt lat="45.1698" lon="-0.55149">
        <ele>31.9</ele>
        <time>2020-09-03T07:42:59Z</time>
      </trkpt>
      <trkpt lat="45.1698" lon="-0.55148">
        <ele>31.9</ele>
        <time>2020-09-03T07:43:00Z</time>
      </trkpt>
      <trkpt lat="45.1698" lon="-0.55146">
        <ele>32</ele>
        <time>2020-09-03T07:43:01Z</time>
      </trkpt>
      <trkpt lat="45.1698" lon="-0.55144">
        <ele>32</ele>
        <time>2020-09-03T07:43:02Z</time>
      </trkpt>
      <trkpt lat="45.16979" lon="-0.55141">
        <ele>32</ele>
        <time>2020-09-03T07:43:04Z</time>
      </trkpt>
      <trkpt lat="45.16978" lon="-0.55136">
        <ele>32</ele>
        <time>2020-09-03T07:43:06Z</time>
      </trkpt>
      <trkpt lat="45.16978" lon="-0.55135">
        <ele>32.1</ele>
        <time>2020-09-03T07:43:07Z</time>
      </trkpt>
      <trkpt lat="45.16978" lon="-0.55134">
        <ele>32.1</ele>
        <time>2020-09-03T07:43:08Z</time>
      </trkpt>
      <trkpt lat="45.16978" lon="-0.55132">
        <ele>32.1</ele>
        <time>2020-09-03T07:43:10Z</time>
      </trkpt>
      <trkpt lat="45.16978" lon="-0.55128">
        <ele>32.1</ele>
        <time>2020-09-03T07:43:11Z</time>
      </trkpt>
      <trkpt lat="45.16977" lon="-0.55126">
        <ele>32.1</ele>
        <time>2020-09-03T07:43:13Z</time>
      </trkpt>
      <trkpt lat="45.16977" lon="-0.55125">
        <ele>32.1</ele>
        <time>2020-09-03T07:43:14Z</time>
      </trkpt>
      <trkpt lat="45.16977" lon="-0.55123">
        <ele>32.2</ele>
        <time>2020-09-03T07:43:16Z</time>
      </trkpt>
      <trkpt lat="45.16976" lon="-0.5512">
        <ele>32.2</ele>
        <time>2020-09-03T07:43:18Z</time>
      </trkpt>
      <trkpt lat="45.16975" lon="-0.55118">
        <ele>32.2</ele>
        <time>2020-09-03T07:43:19Z</time>
      </trkpt>
      <trkpt lat="45.16975" lon="-0.55116">
        <ele>32.2</ele>
        <time>2020-09-03T07:43:20Z</time>
      </trkpt>
      <trkpt lat="45.16974" lon="-0.55114">
        <ele>32.2</ele>
        <time>2020-09-03T07:43:22Z</time>
      </trkpt>
      <trkpt lat="45.16974" lon="-0.55112">
        <ele>32.3</ele>
        <time>2020-09-03T07:43:23Z</time>
      </trkpt>
      <trkpt lat="45.16973" lon="-0.5511">
        <ele>32.3</ele>
        <time>2020-09-03T07:43:24Z</time>
      </trkpt>
      <trkpt lat="45.16972" lon="-0.55108">
        <ele>32.3</ele>
        <time>2020-09-03T07:43:25Z</time>
      </trkpt>
      <trkpt lat="45.16971" lon="-0.55107">
        <ele>32.3</ele>
        <time>2020-09-03T07:43:26Z</time>
      </trkpt>
      <trkpt lat="45.1697" lon="-0.55105">
        <ele>32.3</ele>
        <time>2020-09-03T07:43:28Z</time>
      </trkpt>
      <trkpt lat="45.16969" lon="-0.55103">
        <ele>32.4</ele>
        <time>2020-09-03T07:43:29Z</time>
      </trkpt>
      <trkpt lat="45.16969" lon="-0.55101">
        <ele>32.4</ele>
        <time>2020-09-03T07:43:30Z</time>
      </trkpt>
      <trkpt lat="45.16967" lon="-0.55097">
        <ele>32.4</ele>
        <time>2020-09-03T07:43:32Z</time>
      </trkpt>
      <trkpt lat="45.16966" lon="-0.55097">
        <ele>32.4</ele>
        <time>2020-09-03T07:43:33Z</time>
      </trkpt>
      <trkpt lat="45.16965" lon="-0.55094">
        <ele>32.6</ele>
        <time>2020-09-03T07:43:34Z</time>
      </trkpt>
      <trkpt lat="45.16965" lon="-0.55092">
        <ele>32.6</ele>
        <time>2020-09-03T07:43:35Z</time>
      </trkpt>
      <trkpt lat="45.16965" lon="-0.55091">
        <ele>32.6</ele>
        <time>2020-09-03T07:43:36Z</time>
      </trkpt>
      <trkpt lat="45.16966" lon="-0.55088">
        <ele>32.6</ele>
        <time>2020-09-03T07:43:37Z</time>
      </trkpt>
      <trkpt lat="45.16968" lon="-0.55087">
        <ele>32.5</ele>
        <time>2020-09-03T07:43:39Z</time>
      </trkpt>
      <trkpt lat="45.16969" lon="-0.55085">
        <ele>32.5</ele>
        <time>2020-09-03T07:43:40Z</time>
      </trkpt>
      <trkpt lat="45.1697" lon="-0.55084">
        <ele>32.5</ele>
        <time>2020-09-03T07:43:41Z</time>
      </trkpt>
      <trkpt lat="45.16973" lon="-0.55082">
        <ele>32.5</ele>
        <time>2020-09-03T07:43:42Z</time>
      </trkpt>
      <trkpt lat="45.16974" lon="-0.55081">
        <ele>32.5</ele>
        <time>2020-09-03T07:43:44Z</time>
      </trkpt>
      <trkpt lat="45.16976" lon="-0.5508">
        <ele>32.5</ele>
        <time>2020-09-03T07:43:45Z</time>
      </trkpt>
      <trkpt lat="45.16977" lon="-0.55079">
        <ele>32.5</ele>
        <time>2020-09-03T07:43:46Z</time>
      </trkpt>
      <trkpt lat="45.1698" lon="-0.55078">
        <ele>32.4</ele>
        <time>2020-09-03T07:43:48Z</time>
      </trkpt>
      <trkpt lat="45.16981" lon="-0.55078">
        <ele>32.4</ele>
        <time>2020-09-03T07:43:49Z</time>
      </trkpt>
      <trkpt lat="45.16984" lon="-0.55077">
        <ele>32.4</ele>
        <time>2020-09-03T07:43:50Z</time>
      </trkpt>
      <trkpt lat="45.16985" lon="-0.55077">
        <ele>32.4</ele>
        <time>2020-09-03T07:43:51Z</time>
      </trkpt>
      <trkpt lat="45.16988" lon="-0.55075">
        <ele>32.4</ele>
        <time>2020-09-03T07:43:53Z</time>
      </trkpt>
      <trkpt lat="45.16989" lon="-0.55075">
        <ele>32.4</ele>
        <time>2020-09-03T07:43:54Z</time>
      </trkpt>
      <trkpt lat="45.16991" lon="-0.55073">
        <ele>32.3</ele>
        <time>2020-09-03T07:43:56Z</time>
      </trkpt>
      <trkpt lat="45.16993" lon="-0.55072">
        <ele>32.3</ele>
        <time>2020-09-03T07:43:57Z</time>
      </trkpt>
      <trkpt lat="45.16995" lon="-0.55071">
        <ele>32.3</ele>
        <time>2020-09-03T07:43:59Z</time>
      </trkpt>
      <trkpt lat="45.16997" lon="-0.55069">
        <ele>32.3</ele>
        <time>2020-09-03T07:44:00Z</time>
      </trkpt>
      <trkpt lat="45.16998" lon="-0.55068">
        <ele>32.3</ele>
        <time>2020-09-03T07:44:01Z</time>
      </trkpt>
      <trkpt lat="45.17" lon="-0.55067">
        <ele>32.2</ele>
        <time>2020-09-03T07:44:03Z</time>
      </trkpt>
      <trkpt lat="45.17002" lon="-0.55067">
        <ele>32.2</ele>
        <time>2020-09-03T07:44:04Z</time>
      </trkpt>
      <trkpt lat="45.17003" lon="-0.55066">
        <ele>32.2</ele>
        <time>2020-09-03T07:44:05Z</time>
      </trkpt>
      <trkpt lat="45.17004" lon="-0.55065">
        <ele>32.2</ele>
        <time>2020-09-03T07:44:06Z</time>
      </trkpt>
      <trkpt lat="45.17005" lon="-0.55065">
        <ele>32.2</ele>
        <time>2020-09-03T07:44:07Z</time>
      </trkpt>
      <trkpt lat="45.17006" lon="-0.55065">
        <ele>32.2</ele>
        <time>2020-09-03T07:44:08Z</time>
      </trkpt>
      <trkpt lat="45.17008" lon="-0.55064">
        <ele>32.2</ele>
        <time>2020-09-03T07:44:10Z</time>
      </trkpt>
      <trkpt lat="45.1701" lon="-0.55064">
        <ele>32.2</ele>
        <time>2020-09-03T07:44:11Z</time>
      </trkpt>
      <trkpt lat="45.17011" lon="-0.55063">
        <ele>32.2</ele>
        <time>2020-09-03T07:44:12Z</time>
      </trkpt>
      <trkpt lat="45.17013" lon="-0.55062">
        <ele>32.2</ele>
        <time>2020-09-03T07:44:13Z</time>
      </trkpt>
      <trkpt lat="45.17015" lon="-0.55062">
        <ele>32.1</ele>
        <time>2020-09-03T07:44:15Z</time>
      </trkpt>
      <trkpt lat="45.17017" lon="-0.55061">
        <ele>32.1</ele>
        <time>2020-09-03T07:44:16Z</time>
      </trkpt>
      <trkpt lat="45.17018" lon="-0.55061">
        <ele>32.1</ele>
        <time>2020-09-03T07:44:17Z</time>
      </trkpt>
      <trkpt lat="45.1702" lon="-0.55061">
        <ele>32.1</ele>
        <time>2020-09-03T07:44:18Z</time>
      </trkpt>
      <trkpt lat="45.17021" lon="-0.55061">
        <ele>32.1</ele>
        <time>2020-09-03T07:44:20Z</time>
      </trkpt>
      <trkpt lat="45.17023" lon="-0.55061">
        <ele>32.1</ele>
        <time>2020-09-03T07:44:21Z</time>
      </trkpt>
      <trkpt lat="45.17024" lon="-0.5506">
        <ele>32.1</ele>
        <time>2020-09-03T07:44:22Z</time>
      </trkpt>
      <trkpt lat="45.17026" lon="-0.55061">
        <ele>32.1</ele>
        <time>2020-09-03T07:44:24Z</time>
      </trkpt>
      <trkpt lat="45.17028" lon="-0.5506">
        <ele>32</ele>
        <time>2020-09-03T07:44:26Z</time>
      </trkpt>
      <trkpt lat="45.17029" lon="-0.5506">
        <ele>32</ele>
        <time>2020-09-03T07:44:27Z</time>
      </trkpt>
      <trkpt lat="45.17029" lon="-0.5506">
        <ele>32</ele>
        <time>2020-09-03T07:44:28Z</time>
      </trkpt>
      <trkpt lat="45.17031" lon="-0.55059">
        <ele>32</ele>
        <time>2020-09-03T07:44:29Z</time>
      </trkpt>
      <trkpt lat="45.17033" lon="-0.55059">
        <ele>32</ele>
        <time>2020-09-03T07:44:31Z</time>
      </trkpt>
      <trkpt lat="45.17034" lon="-0.55058">
        <ele>32</ele>
        <time>2020-09-03T07:44:32Z</time>
      </trkpt>
      <trkpt lat="45.17036" lon="-0.55057">
        <ele>32</ele>
        <time>2020-09-03T07:44:33Z</time>
      </trkpt>
      <trkpt lat="45.17037" lon="-0.55057">
        <ele>32</ele>
        <time>2020-09-03T07:44:34Z</time>
      </trkpt>
      <trkpt lat="45.17039" lon="-0.55055">
        <ele>32</ele>
        <time>2020-09-03T07:44:35Z</time>
      </trkpt>
      <trkpt lat="45.17041" lon="-0.55054">
        <ele>31.9</ele>
        <time>2020-09-03T07:44:37Z</time>
      </trkpt>
      <trkpt lat="45.17042" lon="-0.55054">
        <ele>31.9</ele>
        <time>2020-09-03T07:44:38Z</time>
      </trkpt>
      <trkpt lat="45.17045" lon="-0.55051">
        <ele>31.9</ele>
        <time>2020-09-03T07:44:40Z</time>
      </trkpt>
      <trkpt lat="45.17046" lon="-0.55051">
        <ele>31.9</ele>
        <time>2020-09-03T07:44:41Z</time>
      </trkpt>
      <trkpt lat="45.17048" lon="-0.55049">
        <ele>31.8</ele>
        <time>2020-09-03T07:44:43Z</time>
      </trkpt>
      <trkpt lat="45.17049" lon="-0.55048">
        <ele>31.8</ele>
        <time>2020-09-03T07:44:44Z</time>
      </trkpt>
      <trkpt lat="45.17051" lon="-0.55047">
        <ele>31.8</ele>
        <time>2020-09-03T07:44:45Z</time>
      </trkpt>
      <trkpt lat="45.17052" lon="-0.55046">
        <ele>31.8</ele>
        <time>2020-09-03T07:44:46Z</time>
      </trkpt>
      <trkpt lat="45.17054" lon="-0.55044">
        <ele>31.7</ele>
        <time>2020-09-03T07:44:48Z</time>
      </trkpt>
      <trkpt lat="45.17055" lon="-0.55044">
        <ele>31.7</ele>
        <time>2020-09-03T07:44:49Z</time>
      </trkpt>
      <trkpt lat="45.17056" lon="-0.55044">
        <ele>31.7</ele>
        <time>2020-09-03T07:44:50Z</time>
      </trkpt>
      <trkpt lat="45.17057" lon="-0.55043">
        <ele>31.7</ele>
        <time>2020-09-03T07:44:51Z</time>
      </trkpt>
      <trkpt lat="45.17058" lon="-0.55043">
        <ele>31.7</ele>
        <time>2020-09-03T07:44:52Z</time>
      </trkpt>
      <trkpt lat="45.1706" lon="-0.55041">
        <ele>31.7</ele>
        <time>2020-09-03T07:44:53Z</time>
      </trkpt>
      <trkpt lat="45.17061" lon="-0.55041">
        <ele>31.7</ele>
        <time>2020-09-03T07:44:54Z</time>
      </trkpt>
      <trkpt lat="45.17063" lon="-0.5504">
        <ele>31.6</ele>
        <time>2020-09-03T07:44:56Z</time>
      </trkpt>
      <trkpt lat="45.17066" lon="-0.55039">
        <ele>31.6</ele>
        <time>2020-09-03T07:44:57Z</time>
      </trkpt>
      <trkpt lat="45.17068" lon="-0.55037">
        <ele>31.6</ele>
        <time>2020-09-03T07:44:59Z</time>
      </trkpt>
      <trkpt lat="45.17069" lon="-0.55037">
        <ele>31.6</ele>
        <time>2020-09-03T07:45:00Z</time>
      </trkpt>
      <trkpt lat="45.1707" lon="-0.55036">
        <ele>31.6</ele>
        <time>2020-09-03T07:45:01Z</time>
      </trkpt>
      <trkpt lat="45.17073" lon="-0.55035">
        <ele>31.5</ele>
        <time>2020-09-03T07:45:02Z</time>
      </trkpt>
      <trkpt lat="45.17074" lon="-0.55035">
        <ele>31.5</ele>
        <time>2020-09-03T07:45:04Z</time>
      </trkpt>
      <trkpt lat="45.17075" lon="-0.55034">
        <ele>31.5</ele>
        <time>2020-09-03T07:45:05Z</time>
      </trkpt>
      <trkpt lat="45.17077" lon="-0.55033">
        <ele>31.5</ele>
        <time>2020-09-03T07:45:06Z</time>
      </trkpt>
      <trkpt lat="45.17079" lon="-0.55032">
        <ele>31.5</ele>
        <time>2020-09-03T07:45:08Z</time>
      </trkpt>
      <trkpt lat="45.17081" lon="-0.55031">
        <ele>31.4</ele>
        <time>2020-09-03T07:45:09Z</time>
      </trkpt>
      <trkpt lat="45.17082" lon="-0.55031">
        <ele>31.4</ele>
        <time>2020-09-03T07:45:10Z</time>
      </trkpt>
      <trkpt lat="45.17084" lon="-0.5503">
        <ele>31.4</ele>
        <time>2020-09-03T07:45:12Z</time>
      </trkpt>
      <trkpt lat="45.17086" lon="-0.55029">
        <ele>31.4</ele>
        <time>2020-09-03T07:45:13Z</time>
      </trkpt>
      <trkpt lat="45.17086" lon="-0.55029">
        <ele>31.4</ele>
        <time>2020-09-03T07:45:14Z</time>
      </trkpt>
      <trkpt lat="45.17087" lon="-0.55029">
        <ele>31.4</ele>
        <time>2020-09-03T07:45:15Z</time>
      </trkpt>
      <trkpt lat="45.17088" lon="-0.55029">
        <ele>31.4</ele>
        <time>2020-09-03T07:45:16Z</time>
      </trkpt>
      <trkpt lat="45.17089" lon="-0.55029">
        <ele>31.4</ele>
        <time>2020-09-03T07:45:17Z</time>
      </trkpt>
      <trkpt lat="45.1709" lon="-0.55028">
        <ele>31.3</ele>
        <time>2020-09-03T07:45:18Z</time>
      </trkpt>
      <trkpt lat="45.17091" lon="-0.55028">
        <ele>31.3</ele>
        <time>2020-09-03T07:45:20Z</time>
      </trkpt>
      <trkpt lat="45.17093" lon="-0.55027">
        <ele>31.3</ele>
        <time>2020-09-03T07:45:21Z</time>
      </trkpt>
      <trkpt lat="45.17095" lon="-0.55026">
        <ele>31.3</ele>
        <time>2020-09-03T07:45:23Z</time>
      </trkpt>
      <trkpt lat="45.17097" lon="-0.55025">
        <ele>31.3</ele>
        <time>2020-09-03T07:45:24Z</time>
      </trkpt>
      <trkpt lat="45.17098" lon="-0.55024">
        <ele>31.3</ele>
        <time>2020-09-03T07:45:26Z</time>
      </trkpt>
      <trkpt lat="45.17099" lon="-0.55024">
        <ele>31.2</ele>
        <time>2020-09-03T07:45:27Z</time>
      </trkpt>
      <trkpt lat="45.17102" lon="-0.55023">
        <ele>31.2</ele>
        <time>2020-09-03T07:45:28Z</time>
      </trkpt>
      <trkpt lat="45.17104" lon="-0.55022">
        <ele>31.2</ele>
        <time>2020-09-03T07:45:30Z</time>
      </trkpt>
      <trkpt lat="45.17105" lon="-0.55022">
        <ele>31.1</ele>
        <time>2020-09-03T07:45:31Z</time>
      </trkpt>
      <trkpt lat="45.17106" lon="-0.55021">
        <ele>31.1</ele>
        <time>2020-09-03T07:45:32Z</time>
      </trkpt>
      <trkpt lat="45.17108" lon="-0.5502">
        <ele>31.1</ele>
        <time>2020-09-03T07:45:33Z</time>
      </trkpt>
      <trkpt lat="45.17109" lon="-0.55019">
        <ele>31.1</ele>
        <time>2020-09-03T07:45:35Z</time>
      </trkpt>
      <trkpt lat="45.1711" lon="-0.55019">
        <ele>31</ele>
        <time>2020-09-03T07:45:36Z</time>
      </trkpt>
      <trkpt lat="45.17111" lon="-0.55018">
        <ele>31</ele>
        <time>2020-09-03T07:45:37Z</time>
      </trkpt>
      <trkpt lat="45.17112" lon="-0.55017">
        <ele>31</ele>
        <time>2020-09-03T07:45:38Z</time>
      </trkpt>
      <trkpt lat="45.17114" lon="-0.55017">
        <ele>31</ele>
        <time>2020-09-03T07:45:39Z</time>
      </trkpt>
      <trkpt lat="45.17115" lon="-0.55016">
        <ele>30.9</ele>
        <time>2020-09-03T07:45:41Z</time>
      </trkpt>
      <trkpt lat="45.17117" lon="-0.55015">
        <ele>30.9</ele>
        <time>2020-09-03T07:45:42Z</time>
      </trkpt>
      <trkpt lat="45.17118" lon="-0.55015">
        <ele>30.9</ele>
        <time>2020-09-03T07:45:43Z</time>
      </trkpt>
      <trkpt lat="45.1712" lon="-0.55014">
        <ele>30.8</ele>
        <time>2020-09-03T07:45:45Z</time>
      </trkpt>
      <trkpt lat="45.17122" lon="-0.55013">
        <ele>30.8</ele>
        <time>2020-09-03T07:45:46Z</time>
      </trkpt>
      <trkpt lat="45.17123" lon="-0.55013">
        <ele>30.8</ele>
        <time>2020-09-03T07:45:47Z</time>
      </trkpt>
      <trkpt lat="45.17125" lon="-0.55012">
        <ele>30.8</ele>
        <time>2020-09-03T07:45:48Z</time>
      </trkpt>
      <trkpt lat="45.17127" lon="-0.5501">
        <ele>30.7</ele>
        <time>2020-09-03T07:45:49Z</time>
      </trkpt>
      <trkpt lat="45.17128" lon="-0.55009">
        <ele>30.7</ele>
        <time>2020-09-03T07:45:51Z</time>
      </trkpt>
      <trkpt lat="45.17129" lon="-0.55009">
        <ele>30.7</ele>
        <time>2020-09-03T07:45:52Z</time>
      </trkpt>
      <trkpt lat="45.1713" lon="-0.55008">
        <ele>30.7</ele>
        <time>2020-09-03T07:45:53Z</time>
      </trkpt>
      <trkpt lat="45.17132" lon="-0.55007">
        <ele>30.7</ele>
        <time>2020-09-03T07:45:55Z</time>
      </trkpt>
      <trkpt lat="45.17134" lon="-0.55006">
        <ele>30.7</ele>
        <time>2020-09-03T07:45:56Z</time>
      </trkpt>
      <trkpt lat="45.17135" lon="-0.55005">
        <ele>30.7</ele>
        <time>2020-09-03T07:45:57Z</time>
      </trkpt>
      <trkpt lat="45.17137" lon="-0.55004">
        <ele>30.7</ele>
        <time>2020-09-03T07:45:59Z</time>
      </trkpt>
      <trkpt lat="45.17138" lon="-0.55003">
        <ele>30.7</ele>
        <time>2020-09-03T07:46:00Z</time>
      </trkpt>
      <trkpt lat="45.17139" lon="-0.55002">
        <ele>30.6</ele>
        <time>2020-09-03T07:46:01Z</time>
      </trkpt>
      <trkpt lat="45.1714" lon="-0.55002">
        <ele>30.6</ele>
        <time>2020-09-03T07:46:03Z</time>
      </trkpt>
      <trkpt lat="45.17142" lon="-0.55001">
        <ele>30.6</ele>
        <time>2020-09-03T07:46:04Z</time>
      </trkpt>
      <trkpt lat="45.17143" lon="-0.54999">
        <ele>30.6</ele>
        <time>2020-09-03T07:46:05Z</time>
      </trkpt>
      <trkpt lat="45.17144" lon="-0.54998">
        <ele>30.6</ele>
        <time>2020-09-03T07:46:06Z</time>
      </trkpt>
      <trkpt lat="45.17145" lon="-0.54996">
        <ele>30.6</ele>
        <time>2020-09-03T07:46:08Z</time>
      </trkpt>
      <trkpt lat="45.17145" lon="-0.54994">
        <ele>30.6</ele>
        <time>2020-09-03T07:46:09Z</time>
      </trkpt>
      <trkpt lat="45.17146" lon="-0.54991">
        <ele>30.6</ele>
        <time>2020-09-03T07:46:10Z</time>
      </trkpt>
      <trkpt lat="45.17146" lon="-0.54987">
        <ele>30.7</ele>
        <time>2020-09-03T07:46:12Z</time>
      </trkpt>
      <trkpt lat="45.17145" lon="-0.54985">
        <ele>30.7</ele>
        <time>2020-09-03T07:46:13Z</time>
      </trkpt>
      <trkpt lat="45.17145" lon="-0.54983">
        <ele>30.7</ele>
        <time>2020-09-03T07:46:15Z</time>
      </trkpt>
      <trkpt lat="45.17145" lon="-0.54982">
        <ele>30.8</ele>
        <time>2020-09-03T07:46:16Z</time>
      </trkpt>
      <trkpt lat="45.17144" lon="-0.54978">
        <ele>30.8</ele>
        <time>2020-09-03T07:46:18Z</time>
      </trkpt>
      <trkpt lat="45.17144" lon="-0.54977">
        <ele>30.9</ele>
        <time>2020-09-03T07:46:19Z</time>
      </trkpt>
      <trkpt lat="45.17143" lon="-0.54974">
        <ele>30.9</ele>
        <time>2020-09-03T07:46:20Z</time>
      </trkpt>
      <trkpt lat="45.17142" lon="-0.54971">
        <ele>31</ele>
        <time>2020-09-03T07:46:21Z</time>
      </trkpt>
      <trkpt lat="45.17142" lon="-0.5497">
        <ele>31</ele>
        <time>2020-09-03T07:46:22Z</time>
      </trkpt>
      <trkpt lat="45.17142" lon="-0.54969">
        <ele>31</ele>
        <time>2020-09-03T07:46:23Z</time>
      </trkpt>
      <trkpt lat="45.17141" lon="-0.54967">
        <ele>31</ele>
        <time>2020-09-03T07:46:24Z</time>
      </trkpt>
      <trkpt lat="45.17141" lon="-0.54966">
        <ele>31.1</ele>
        <time>2020-09-03T07:46:25Z</time>
      </trkpt>
      <trkpt lat="45.1714" lon="-0.54964">
        <ele>31.1</ele>
        <time>2020-09-03T07:46:26Z</time>
      </trkpt>
      <trkpt lat="45.17139" lon="-0.54961">
        <ele>31.1</ele>
        <time>2020-09-03T07:46:27Z</time>
      </trkpt>
      <trkpt lat="45.17139" lon="-0.5496">
        <ele>31.2</ele>
        <time>2020-09-03T07:46:29Z</time>
      </trkpt>
      <trkpt lat="45.17139" lon="-0.54958">
        <ele>31.2</ele>
        <time>2020-09-03T07:46:30Z</time>
      </trkpt>
      <trkpt lat="45.17139" lon="-0.54956">
        <ele>31.2</ele>
        <time>2020-09-03T07:46:31Z</time>
      </trkpt>
      <trkpt lat="45.17138" lon="-0.54952">
        <ele>31.3</ele>
        <time>2020-09-03T07:46:32Z</time>
      </trkpt>
      <trkpt lat="45.17138" lon="-0.54951">
        <ele>31.3</ele>
        <time>2020-09-03T07:46:33Z</time>
      </trkpt>
      <trkpt lat="45.17137" lon="-0.54948">
        <ele>31.4</ele>
        <time>2020-09-03T07:46:34Z</time>
      </trkpt>
      <trkpt lat="45.17137" lon="-0.54946">
        <ele>31.4</ele>
        <time>2020-09-03T07:46:36Z</time>
      </trkpt>
      <trkpt lat="45.17136" lon="-0.54944">
        <ele>31.4</ele>
        <time>2020-09-03T07:46:37Z</time>
      </trkpt>
      <trkpt lat="45.17136" lon="-0.54942">
        <ele>31.5</ele>
        <time>2020-09-03T07:46:38Z</time>
      </trkpt>
      <trkpt lat="45.17135" lon="-0.5494">
        <ele>31.5</ele>
        <time>2020-09-03T07:46:39Z</time>
      </trkpt>
      <trkpt lat="45.17135" lon="-0.54938">
        <ele>31.5</ele>
        <time>2020-09-03T07:46:41Z</time>
      </trkpt>
      <trkpt lat="45.17135" lon="-0.54936">
        <ele>31.6</ele>
        <time>2020-09-03T07:46:42Z</time>
      </trkpt>
      <trkpt lat="45.17134" lon="-0.54933">
        <ele>31.6</ele>
        <time>2020-09-03T07:46:43Z</time>
      </trkpt>
      <trkpt lat="45.17133" lon="-0.54931">
        <ele>31.7</ele>
        <time>2020-09-03T07:46:44Z</time>
      </trkpt>
      <trkpt lat="45.17133" lon="-0.54929">
        <ele>31.7</ele>
        <time>2020-09-03T07:46:45Z</time>
      </trkpt>
      <trkpt lat="45.17133" lon="-0.54928">
        <ele>31.7</ele>
        <time>2020-09-03T07:46:46Z</time>
      </trkpt>
      <trkpt lat="45.17132" lon="-0.54925">
        <ele>31.8</ele>
        <time>2020-09-03T07:46:47Z</time>
      </trkpt>
      <trkpt lat="45.17131" lon="-0.54924">
        <ele>31.8</ele>
        <time>2020-09-03T07:46:49Z</time>
      </trkpt>
      <trkpt lat="45.17131" lon="-0.54923">
        <ele>31.8</ele>
        <time>2020-09-03T07:46:50Z</time>
      </trkpt>
      <trkpt lat="45.17131" lon="-0.54921">
        <ele>31.8</ele>
        <time>2020-09-03T07:46:51Z</time>
      </trkpt>
      <trkpt lat="45.1713" lon="-0.54919">
        <ele>31.9</ele>
        <time>2020-09-03T07:46:52Z</time>
      </trkpt>
      <trkpt lat="45.17129" lon="-0.54919">
        <ele>31.9</ele>
        <time>2020-09-03T07:46:54Z</time>
      </trkpt>
      <trkpt lat="45.17129" lon="-0.54917">
        <ele>31.9</ele>
        <time>2020-09-03T07:46:55Z</time>
      </trkpt>
      <trkpt lat="45.17128" lon="-0.54915">
        <ele>31.9</ele>
        <time>2020-09-03T07:46:56Z</time>
      </trkpt>
      <trkpt lat="45.17128" lon="-0.54913">
        <ele>32</ele>
        <time>2020-09-03T07:46:58Z</time>
      </trkpt>
      <trkpt lat="45.17128" lon="-0.54911">
        <ele>32</ele>
        <time>2020-09-03T07:46:59Z</time>
      </trkpt>
      <trkpt lat="45.17127" lon="-0.54908">
        <ele>32.1</ele>
        <time>2020-09-03T07:47:00Z</time>
      </trkpt>
      <trkpt lat="45.17126" lon="-0.54907">
        <ele>32.1</ele>
        <time>2020-09-03T07:47:01Z</time>
      </trkpt>
      <trkpt lat="45.17126" lon="-0.54906">
        <ele>32.1</ele>
        <time>2020-09-03T07:47:02Z</time>
      </trkpt>
      <trkpt lat="45.17125" lon="-0.54903">
        <ele>32.2</ele>
        <time>2020-09-03T07:47:03Z</time>
      </trkpt>
      <trkpt lat="45.17125" lon="-0.54902">
        <ele>32.2</ele>
        <time>2020-09-03T07:47:04Z</time>
      </trkpt>
      <trkpt lat="45.17125" lon="-0.54901">
        <ele>32.2</ele>
        <time>2020-09-03T07:47:05Z</time>
      </trkpt>
      <trkpt lat="45.17124" lon="-0.54899">
        <ele>32.2</ele>
        <time>2020-09-03T07:47:06Z</time>
      </trkpt>
      <trkpt lat="45.17122" lon="-0.54897">
        <ele>32.3</ele>
        <time>2020-09-03T07:47:07Z</time>
      </trkpt>
      <trkpt lat="45.17122" lon="-0.54896">
        <ele>32.3</ele>
        <time>2020-09-03T07:47:09Z</time>
      </trkpt>
      <trkpt lat="45.17121" lon="-0.54893">
        <ele>32.2</ele>
        <time>2020-09-03T07:47:11Z</time>
      </trkpt>
      <trkpt lat="45.1712" lon="-0.54896">
        <ele>32.2</ele>
        <time>2020-09-03T07:47:14Z</time>
      </trkpt>
      <trkpt lat="45.1712" lon="-0.54897">
        <ele>32.2</ele>
        <time>2020-09-03T07:47:15Z</time>
      </trkpt>
      <trkpt lat="45.17121" lon="-0.549">
        <ele>32.1</ele>
        <time>2020-09-03T07:47:16Z</time>
      </trkpt>
      <trkpt lat="45.17121" lon="-0.54902">
        <ele>32.1</ele>
        <time>2020-09-03T07:47:18Z</time>
      </trkpt>
      <trkpt lat="45.17121" lon="-0.54904">
        <ele>32.1</ele>
        <time>2020-09-03T07:47:19Z</time>
      </trkpt>
      <trkpt lat="45.17122" lon="-0.54908">
        <ele>32</ele>
        <time>2020-09-03T07:47:20Z</time>
      </trkpt>
      <trkpt lat="45.17122" lon="-0.54909">
        <ele>32</ele>
        <time>2020-09-03T07:47:22Z</time>
      </trkpt>
      <trkpt lat="45.17123" lon="-0.54911">
        <ele>32</ele>
        <time>2020-09-03T07:47:23Z</time>
      </trkpt>
      <trkpt lat="45.17123" lon="-0.54914">
        <ele>31.9</ele>
        <time>2020-09-03T07:47:24Z</time>
      </trkpt>
      <trkpt lat="45.17124" lon="-0.54916">
        <ele>31.9</ele>
        <time>2020-09-03T07:47:25Z</time>
      </trkpt>
      <trkpt lat="45.17124" lon="-0.54918">
        <ele>31.9</ele>
        <time>2020-09-03T07:47:26Z</time>
      </trkpt>
      <trkpt lat="45.17125" lon="-0.54921">
        <ele>31.8</ele>
        <time>2020-09-03T07:47:27Z</time>
      </trkpt>
      <trkpt lat="45.17124" lon="-0.54923">
        <ele>31.8</ele>
        <time>2020-09-03T07:47:29Z</time>
      </trkpt>
      <trkpt lat="45.17125" lon="-0.54927">
        <ele>31.7</ele>
        <time>2020-09-03T07:47:30Z</time>
      </trkpt>
      <trkpt lat="45.17126" lon="-0.54928">
        <ele>31.7</ele>
        <time>2020-09-03T07:47:32Z</time>
      </trkpt>
      <trkpt lat="45.17127" lon="-0.5493">
        <ele>31.7</ele>
        <time>2020-09-03T07:47:33Z</time>
      </trkpt>
      <trkpt lat="45.17128" lon="-0.54932">
        <ele>31.6</ele>
        <time>2020-09-03T07:47:34Z</time>
      </trkpt>
      <trkpt lat="45.17129" lon="-0.54934">
        <ele>31.6</ele>
        <time>2020-09-03T07:47:35Z</time>
      </trkpt>
      <trkpt lat="45.1713" lon="-0.54935">
        <ele>31.6</ele>
        <time>2020-09-03T07:47:36Z</time>
      </trkpt>
      <trkpt lat="45.17131" lon="-0.54938">
        <ele>31.5</ele>
        <time>2020-09-03T07:47:38Z</time>
      </trkpt>
      <trkpt lat="45.17132" lon="-0.54939">
        <ele>31.5</ele>
        <time>2020-09-03T07:47:39Z</time>
      </trkpt>
      <trkpt lat="45.17133" lon="-0.54942">
        <ele>31.4</ele>
        <time>2020-09-03T07:47:40Z</time>
      </trkpt>
      <trkpt lat="45.17133" lon="-0.54943">
        <ele>31.4</ele>
        <time>2020-09-03T07:47:41Z</time>
      </trkpt>
      <trkpt lat="45.17134" lon="-0.54945">
        <ele>31.4</ele>
        <time>2020-09-03T07:47:43Z</time>
      </trkpt>
      <trkpt lat="45.17135" lon="-0.54946">
        <ele>31.4</ele>
        <time>2020-09-03T07:47:44Z</time>
      </trkpt>
      <trkpt lat="45.17135" lon="-0.54948">
        <ele>31.3</ele>
        <time>2020-09-03T07:47:45Z</time>
      </trkpt>
      <trkpt lat="45.17136" lon="-0.5495">
        <ele>31.3</ele>
        <time>2020-09-03T07:47:47Z</time>
      </trkpt>
      <trkpt lat="45.17136" lon="-0.54952">
        <ele>31.3</ele>
        <time>2020-09-03T07:47:48Z</time>
      </trkpt>
      <trkpt lat="45.17138" lon="-0.54954">
        <ele>31.2</ele>
        <time>2020-09-03T07:47:50Z</time>
      </trkpt>
      <trkpt lat="45.17138" lon="-0.54955">
        <ele>31.2</ele>
        <time>2020-09-03T07:47:51Z</time>
      </trkpt>
      <trkpt lat="45.17139" lon="-0.54957">
        <ele>31.2</ele>
        <time>2020-09-03T07:47:52Z</time>
      </trkpt>
      <trkpt lat="45.1714" lon="-0.54958">
        <ele>31.2</ele>
        <time>2020-09-03T07:47:54Z</time>
      </trkpt>
      <trkpt lat="45.1714" lon="-0.54958">
        <ele>31.1</ele>
        <time>2020-09-03T07:47:56Z</time>
      </trkpt>
      <trkpt lat="45.1714" lon="-0.54959">
        <ele>31.1</ele>
        <time>2020-09-03T07:47:57Z</time>
      </trkpt>
      <trkpt lat="45.1714" lon="-0.54959">
        <ele>31.1</ele>
        <time>2020-09-03T07:47:59Z</time>
      </trkpt>
      <trkpt lat="45.1714" lon="-0.5496">
        <ele>31.1</ele>
        <time>2020-09-03T07:48:00Z</time>
      </trkpt>
      <trkpt lat="45.17141" lon="-0.5496">
        <ele>31.1</ele>
        <time>2020-09-03T07:48:02Z</time>
      </trkpt>
      <trkpt lat="45.17141" lon="-0.54961">
        <ele>31.1</ele>
        <time>2020-09-03T07:48:03Z</time>
      </trkpt>
      <trkpt lat="45.17141" lon="-0.54961">
        <ele>31.1</ele>
        <time>2020-09-03T07:48:04Z</time>
      </trkpt>
      <trkpt lat="45.17141" lon="-0.54962">
        <ele>31.1</ele>
        <time>2020-09-03T07:48:05Z</time>
      </trkpt>
      <trkpt lat="45.17142" lon="-0.54963">
        <ele>31.1</ele>
        <time>2020-09-03T07:48:07Z</time>
      </trkpt>
      <trkpt lat="45.17143" lon="-0.54966">
        <ele>31</ele>
        <time>2020-09-03T07:48:08Z</time>
      </trkpt>
      <trkpt lat="45.17144" lon="-0.54967">
        <ele>31</ele>
        <time>2020-09-03T07:48:09Z</time>
      </trkpt>
      <trkpt lat="45.17145" lon="-0.54968">
        <ele>31</ele>
        <time>2020-09-03T07:48:10Z</time>
      </trkpt>
      <trkpt lat="45.17145" lon="-0.54969">
        <ele>30.9</ele>
        <time>2020-09-03T07:48:11Z</time>
      </trkpt>
      <trkpt lat="45.17146" lon="-0.5497">
        <ele>30.9</ele>
        <time>2020-09-03T07:48:12Z</time>
      </trkpt>
      <trkpt lat="45.17147" lon="-0.54972">
        <ele>30.9</ele>
        <time>2020-09-03T07:48:13Z</time>
      </trkpt>
      <trkpt lat="45.17148" lon="-0.54974">
        <ele>30.9</ele>
        <time>2020-09-03T07:48:14Z</time>
      </trkpt>
      <trkpt lat="45.17149" lon="-0.54976">
        <ele>30.8</ele>
        <time>2020-09-03T07:48:15Z</time>
      </trkpt>
      <trkpt lat="45.1715" lon="-0.54978">
        <ele>30.8</ele>
        <time>2020-09-03T07:48:17Z</time>
      </trkpt>
      <trkpt lat="45.17151" lon="-0.54981">
        <ele>30.7</ele>
        <time>2020-09-03T07:48:18Z</time>
      </trkpt>
      <trkpt lat="45.17152" lon="-0.54982">
        <ele>30.7</ele>
        <time>2020-09-03T07:48:19Z</time>
      </trkpt>
      <trkpt lat="45.17153" lon="-0.54985">
        <ele>30.6</ele>
        <time>2020-09-03T07:48:21Z</time>
      </trkpt>
      <trkpt lat="45.17154" lon="-0.54986">
        <ele>30.6</ele>
        <time>2020-09-03T07:48:22Z</time>
      </trkpt>
      <trkpt lat="45.17155" lon="-0.54987">
        <ele>30.6</ele>
        <time>2020-09-03T07:48:23Z</time>
      </trkpt>
      <trkpt lat="45.17156" lon="-0.54987">
        <ele>30.6</ele>
        <time>2020-09-03T07:48:24Z</time>
      </trkpt>
      <trkpt lat="45.17157" lon="-0.54986">
        <ele>30.6</ele>
        <time>2020-09-03T07:48:25Z</time>
      </trkpt>
      <trkpt lat="45.17159" lon="-0.54986">
        <ele>30.6</ele>
        <time>2020-09-03T07:48:27Z</time>
      </trkpt>
      <trkpt lat="45.17161" lon="-0.54984">
        <ele>30.6</ele>
        <time>2020-09-03T07:48:29Z</time>
      </trkpt>
      <trkpt lat="45.17162" lon="-0.54983">
        <ele>30.6</ele>
        <time>2020-09-03T07:48:30Z</time>
      </trkpt>
      <trkpt lat="45.17163" lon="-0.54982">
        <ele>30.5</ele>
        <time>2020-09-03T07:48:31Z</time>
      </trkpt>
      <trkpt lat="45.17164" lon="-0.54981">
        <ele>30.5</ele>
        <time>2020-09-03T07:48:32Z</time>
      </trkpt>
      <trkpt lat="45.17166" lon="-0.54979">
        <ele>30.5</ele>
        <time>2020-09-03T07:48:33Z</time>
      </trkpt>
      <trkpt lat="45.17167" lon="-0.54978">
        <ele>30.5</ele>
        <time>2020-09-03T07:48:34Z</time>
      </trkpt>
      <trkpt lat="45.17169" lon="-0.54976">
        <ele>30.5</ele>
        <time>2020-09-03T07:48:35Z</time>
      </trkpt>
      <trkpt lat="45.17169" lon="-0.54975">
        <ele>30.5</ele>
        <time>2020-09-03T07:48:36Z</time>
      </trkpt>
      <trkpt lat="45.1717" lon="-0.54974">
        <ele>30.5</ele>
        <time>2020-09-03T07:48:37Z</time>
      </trkpt>
      <trkpt lat="45.1717" lon="-0.54973">
        <ele>30.5</ele>
        <time>2020-09-03T07:48:39Z</time>
      </trkpt>
      <trkpt lat="45.17171" lon="-0.5497">
        <ele>30.6</ele>
        <time>2020-09-03T07:48:40Z</time>
      </trkpt>
      <trkpt lat="45.17171" lon="-0.54968">
        <ele>30.6</ele>
        <time>2020-09-03T07:48:41Z</time>
      </trkpt>
      <trkpt lat="45.17171" lon="-0.54966">
        <ele>30.6</ele>
        <time>2020-09-03T07:48:42Z</time>
      </trkpt>
      <trkpt lat="45.1717" lon="-0.54962">
        <ele>30.7</ele>
        <time>2020-09-03T07:48:44Z</time>
      </trkpt>
      <trkpt lat="45.1717" lon="-0.54961">
        <ele>30.7</ele>
        <time>2020-09-03T07:48:45Z</time>
      </trkpt>
      <trkpt lat="45.17169" lon="-0.54959">
        <ele>30.8</ele>
        <time>2020-09-03T07:48:46Z</time>
      </trkpt>
      <trkpt lat="45.17169" lon="-0.54957">
        <ele>30.8</ele>
        <time>2020-09-03T07:48:47Z</time>
      </trkpt>
      <trkpt lat="45.17169" lon="-0.54956">
        <ele>30.8</ele>
        <time>2020-09-03T07:48:48Z</time>
      </trkpt>
      <trkpt lat="45.17169" lon="-0.54954">
        <ele>30.8</ele>
        <time>2020-09-03T07:48:49Z</time>
      </trkpt>
      <trkpt lat="45.17169" lon="-0.54952">
        <ele>30.9</ele>
        <time>2020-09-03T07:48:51Z</time>
      </trkpt>
      <trkpt lat="45.17168" lon="-0.5495">
        <ele>30.9</ele>
        <time>2020-09-03T07:48:52Z</time>
      </trkpt>
      <trkpt lat="45.17167" lon="-0.54947">
        <ele>31</ele>
        <time>2020-09-03T07:48:53Z</time>
      </trkpt>
      <trkpt lat="45.17167" lon="-0.54946">
        <ele>31</ele>
        <time>2020-09-03T07:48:54Z</time>
      </trkpt>
      <trkpt lat="45.17167" lon="-0.54944">
        <ele>31</ele>
        <time>2020-09-03T07:48:55Z</time>
      </trkpt>
      <trkpt lat="45.17167" lon="-0.54942">
        <ele>31</ele>
        <time>2020-09-03T07:48:56Z</time>
      </trkpt>
      <trkpt lat="45.17168" lon="-0.54939">
        <ele>31.1</ele>
        <time>2020-09-03T07:48:58Z</time>
      </trkpt>
      <trkpt lat="45.17168" lon="-0.54937">
        <ele>31.1</ele>
        <time>2020-09-03T07:48:59Z</time>
      </trkpt>
      <trkpt lat="45.17168" lon="-0.54936">
        <ele>31.2</ele>
        <time>2020-09-03T07:49:01Z</time>
      </trkpt>
      <trkpt lat="45.17168" lon="-0.54934">
        <ele>31.2</ele>
        <time>2020-09-03T07:49:02Z</time>
      </trkpt>
      <trkpt lat="45.17169" lon="-0.54932">
        <ele>31.2</ele>
        <time>2020-09-03T07:49:03Z</time>
      </trkpt>
      <trkpt lat="45.1717" lon="-0.54929">
        <ele>31.3</ele>
        <time>2020-09-03T07:49:04Z</time>
      </trkpt>
      <trkpt lat="45.1717" lon="-0.54928">
        <ele>31.3</ele>
        <time>2020-09-03T07:49:05Z</time>
      </trkpt>
      <trkpt lat="45.17171" lon="-0.54925">
        <ele>31.3</ele>
        <time>2020-09-03T07:49:06Z</time>
      </trkpt>
      <trkpt lat="45.17172" lon="-0.54924">
        <ele>31.4</ele>
        <time>2020-09-03T07:49:07Z</time>
      </trkpt>
      <trkpt lat="45.17173" lon="-0.5492">
        <ele>31.4</ele>
        <time>2020-09-03T07:49:09Z</time>
      </trkpt>
      <trkpt lat="45.17173" lon="-0.54919">
        <ele>31.5</ele>
        <time>2020-09-03T07:49:10Z</time>
      </trkpt>
      <trkpt lat="45.17174" lon="-0.54916">
        <ele>31.5</ele>
        <time>2020-09-03T07:49:11Z</time>
      </trkpt>
      <trkpt lat="45.17175" lon="-0.54912">
        <ele>31.5</ele>
        <time>2020-09-03T07:49:13Z</time>
      </trkpt>
      <trkpt lat="45.17176" lon="-0.54911">
        <ele>31.5</ele>
        <time>2020-09-03T07:49:15Z</time>
      </trkpt>
      <trkpt lat="45.17176" lon="-0.54908">
        <ele>31.5</ele>
        <time>2020-09-03T07:49:16Z</time>
      </trkpt>
      <trkpt lat="45.17177" lon="-0.54907">
        <ele>31.5</ele>
        <time>2020-09-03T07:49:17Z</time>
      </trkpt>
      <trkpt lat="45.17177" lon="-0.54904">
        <ele>31.5</ele>
        <time>2020-09-03T07:49:19Z</time>
      </trkpt>
      <trkpt lat="45.17178" lon="-0.54901">
        <ele>31.6</ele>
        <time>2020-09-03T07:49:20Z</time>
      </trkpt>
      <trkpt lat="45.17178" lon="-0.549">
        <ele>31.6</ele>
        <time>2020-09-03T07:49:22Z</time>
      </trkpt>
      <trkpt lat="45.17179" lon="-0.54896">
        <ele>31.6</ele>
        <time>2020-09-03T07:49:23Z</time>
      </trkpt>
      <trkpt lat="45.17179" lon="-0.54895">
        <ele>31.6</ele>
        <time>2020-09-03T07:49:24Z</time>
      </trkpt>
      <trkpt lat="45.17179" lon="-0.54891">
        <ele>31.6</ele>
        <time>2020-09-03T07:49:26Z</time>
      </trkpt>
      <trkpt lat="45.1718" lon="-0.54889">
        <ele>31.6</ele>
        <time>2020-09-03T07:49:27Z</time>
      </trkpt>
      <trkpt lat="45.1718" lon="-0.54887">
        <ele>31.6</ele>
        <time>2020-09-03T07:49:28Z</time>
      </trkpt>
      <trkpt lat="45.1718" lon="-0.54884">
        <ele>31.7</ele>
        <time>2020-09-03T07:49:29Z</time>
      </trkpt>
      <trkpt lat="45.1718" lon="-0.54883">
        <ele>31.7</ele>
        <time>2020-09-03T07:49:30Z</time>
      </trkpt>
      <trkpt lat="45.1718" lon="-0.54882">
        <ele>31.7</ele>
        <time>2020-09-03T07:49:31Z</time>
      </trkpt>
      <trkpt lat="45.17181" lon="-0.54879">
        <ele>31.7</ele>
        <time>2020-09-03T07:49:32Z</time>
      </trkpt>
      <trkpt lat="45.17181" lon="-0.54877">
        <ele>31.7</ele>
        <time>2020-09-03T07:49:33Z</time>
      </trkpt>
      <trkpt lat="45.17181" lon="-0.54876">
        <ele>31.7</ele>
        <time>2020-09-03T07:49:34Z</time>
      </trkpt>
      <trkpt lat="45.17182" lon="-0.54874">
        <ele>31.7</ele>
        <time>2020-09-03T07:49:36Z</time>
      </trkpt>
      <trkpt lat="45.17182" lon="-0.54872">
        <ele>31.7</ele>
        <time>2020-09-03T07:49:37Z</time>
      </trkpt>
      <trkpt lat="45.17182" lon="-0.54869">
        <ele>31.7</ele>
        <time>2020-09-03T07:49:39Z</time>
      </trkpt>
      <trkpt lat="45.17182" lon="-0.54867">
        <ele>31.8</ele>
        <time>2020-09-03T07:49:40Z</time>
      </trkpt>
      <trkpt lat="45.17182" lon="-0.54865">
        <ele>31.8</ele>
        <time>2020-09-03T07:49:41Z</time>
      </trkpt>
      <trkpt lat="45.17181" lon="-0.54862">
        <ele>31.8</ele>
        <time>2020-09-03T07:49:43Z</time>
      </trkpt>
      <trkpt lat="45.17181" lon="-0.54859">
        <ele>31.8</ele>
        <time>2020-09-03T07:49:45Z</time>
      </trkpt>
      <trkpt lat="45.1718" lon="-0.54858">
        <ele>31.8</ele>
        <time>2020-09-03T07:49:46Z</time>
      </trkpt>
      <trkpt lat="45.1718" lon="-0.54856">
        <ele>31.8</ele>
        <time>2020-09-03T07:49:47Z</time>
      </trkpt>
      <trkpt lat="45.17179" lon="-0.54853">
        <ele>31.8</ele>
        <time>2020-09-03T07:49:49Z</time>
      </trkpt>
      <trkpt lat="45.17179" lon="-0.54851">
        <ele>31.8</ele>
        <time>2020-09-03T07:49:50Z</time>
      </trkpt>
      <trkpt lat="45.17179" lon="-0.54849">
        <ele>31.9</ele>
        <time>2020-09-03T07:49:51Z</time>
      </trkpt>
      <trkpt lat="45.17179" lon="-0.54845">
        <ele>31.9</ele>
        <time>2020-09-03T07:49:52Z</time>
      </trkpt>
      <trkpt lat="45.17179" lon="-0.54844">
        <ele>31.9</ele>
        <time>2020-09-03T07:49:53Z</time>
      </trkpt>
      <trkpt lat="45.17179" lon="-0.54842">
        <ele>31.9</ele>
        <time>2020-09-03T07:49:54Z</time>
      </trkpt>
      <trkpt lat="45.1718" lon="-0.5484">
        <ele>31.9</ele>
        <time>2020-09-03T07:49:55Z</time>
      </trkpt>
      <trkpt lat="45.17183" lon="-0.54836">
        <ele>31.9</ele>
        <time>2020-09-03T07:49:57Z</time>
      </trkpt>
      <trkpt lat="45.17184" lon="-0.54835">
        <ele>31.9</ele>
        <time>2020-09-03T07:49:58Z</time>
      </trkpt>
      <trkpt lat="45.17185" lon="-0.54834">
        <ele>32</ele>
        <time>2020-09-03T07:50:00Z</time>
      </trkpt>
      <trkpt lat="45.17186" lon="-0.54833">
        <ele>32</ele>
        <time>2020-09-03T07:50:01Z</time>
      </trkpt>
      <trkpt lat="45.17188" lon="-0.54832">
        <ele>32</ele>
        <time>2020-09-03T07:50:02Z</time>
      </trkpt>
      <trkpt lat="45.1719" lon="-0.5483">
        <ele>32</ele>
        <time>2020-09-03T07:50:04Z</time>
      </trkpt>
      <trkpt lat="45.17191" lon="-0.54829">
        <ele>32</ele>
        <time>2020-09-03T07:50:05Z</time>
      </trkpt>
      <trkpt lat="45.17193" lon="-0.54827">
        <ele>32</ele>
        <time>2020-09-03T07:50:06Z</time>
      </trkpt>
      <trkpt lat="45.17195" lon="-0.54824">
        <ele>32.1</ele>
        <time>2020-09-03T07:50:08Z</time>
      </trkpt>
      <trkpt lat="45.17196" lon="-0.54823">
        <ele>32.1</ele>
        <time>2020-09-03T07:50:09Z</time>
      </trkpt>
      <trkpt lat="45.17197" lon="-0.54821">
        <ele>32.1</ele>
        <time>2020-09-03T07:50:10Z</time>
      </trkpt>
      <trkpt lat="45.17198" lon="-0.5482">
        <ele>32.1</ele>
        <time>2020-09-03T07:50:11Z</time>
      </trkpt>
      <trkpt lat="45.17199" lon="-0.54819">
        <ele>32.1</ele>
        <time>2020-09-03T07:50:12Z</time>
      </trkpt>
      <trkpt lat="45.172" lon="-0.54816">
        <ele>32.1</ele>
        <time>2020-09-03T07:50:13Z</time>
      </trkpt>
      <trkpt lat="45.17201" lon="-0.54814">
        <ele>32.1</ele>
        <time>2020-09-03T07:50:15Z</time>
      </trkpt>
      <trkpt lat="45.17202" lon="-0.54812">
        <ele>32.1</ele>
        <time>2020-09-03T07:50:16Z</time>
      </trkpt>
      <trkpt lat="45.17203" lon="-0.54811">
        <ele>32.1</ele>
        <time>2020-09-03T07:50:17Z</time>
      </trkpt>
      <trkpt lat="45.17204" lon="-0.54808">
        <ele>32.2</ele>
        <time>2020-09-03T07:50:19Z</time>
      </trkpt>
      <trkpt lat="45.17205" lon="-0.54807">
        <ele>32.2</ele>
        <time>2020-09-03T07:50:20Z</time>
      </trkpt>
      <trkpt lat="45.17205" lon="-0.54806">
        <ele>32.2</ele>
        <time>2020-09-03T07:50:21Z</time>
      </trkpt>
      <trkpt lat="45.17206" lon="-0.54804">
        <ele>32.2</ele>
        <time>2020-09-03T07:50:23Z</time>
      </trkpt>
      <trkpt lat="45.17208" lon="-0.54801">
        <ele>32.2</ele>
        <time>2020-09-03T07:50:24Z</time>
      </trkpt>
      <trkpt lat="45.17208" lon="-0.548">
        <ele>32.2</ele>
        <time>2020-09-03T07:50:25Z</time>
      </trkpt>
      <trkpt lat="45.17209" lon="-0.54799">
        <ele>32.2</ele>
        <time>2020-09-03T07:50:27Z</time>
      </trkpt>
      <trkpt lat="45.1721" lon="-0.54798">
        <ele>32.2</ele>
        <time>2020-09-03T07:50:28Z</time>
      </trkpt>
      <trkpt lat="45.17212" lon="-0.54795">
        <ele>32.3</ele>
        <time>2020-09-03T07:50:30Z</time>
      </trkpt>
      <trkpt lat="45.17212" lon="-0.54794">
        <ele>32.3</ele>
        <time>2020-09-03T07:50:31Z</time>
      </trkpt>
      <trkpt lat="45.17214" lon="-0.54792">
        <ele>32.3</ele>
        <time>2020-09-03T07:50:33Z</time>
      </trkpt>
      <trkpt lat="45.17215" lon="-0.5479">
        <ele>32.3</ele>
        <time>2020-09-03T07:50:34Z</time>
      </trkpt>
      <trkpt lat="45.17216" lon="-0.54789">
        <ele>32.3</ele>
        <time>2020-09-03T07:50:35Z</time>
      </trkpt>
      <trkpt lat="45.17218" lon="-0.54788">
        <ele>32.3</ele>
        <time>2020-09-03T07:50:36Z</time>
      </trkpt>
      <trkpt lat="45.1722" lon="-0.54785">
        <ele>32.3</ele>
        <time>2020-09-03T07:50:38Z</time>
      </trkpt>
      <trkpt lat="45.17222" lon="-0.54784">
        <ele>32.4</ele>
        <time>2020-09-03T07:50:40Z</time>
      </trkpt>
      <trkpt lat="45.17223" lon="-0.54783">
        <ele>32.4</ele>
        <time>2020-09-03T07:50:41Z</time>
      </trkpt>
      <trkpt lat="45.17225" lon="-0.54782">
        <ele>32.4</ele>
        <time>2020-09-03T07:50:42Z</time>
      </trkpt>
      <trkpt lat="45.17227" lon="-0.54781">
        <ele>32.4</ele>
        <time>2020-09-03T07:50:44Z</time>
      </trkpt>
      <trkpt lat="45.17229" lon="-0.54779">
        <ele>32.4</ele>
        <time>2020-09-03T07:50:45Z</time>
      </trkpt>
      <trkpt lat="45.1723" lon="-0.54779">
        <ele>32.4</ele>
        <time>2020-09-03T07:50:46Z</time>
      </trkpt>
      <trkpt lat="45.17232" lon="-0.54777">
        <ele>32.4</ele>
        <time>2020-09-03T07:50:48Z</time>
      </trkpt>
      <trkpt lat="45.17233" lon="-0.54776">
        <ele>32.5</ele>
        <time>2020-09-03T07:50:49Z</time>
      </trkpt>
      <trkpt lat="45.17235" lon="-0.54774">
        <ele>32.5</ele>
        <time>2020-09-03T07:50:50Z</time>
      </trkpt>
      <trkpt lat="45.17236" lon="-0.54774">
        <ele>32.5</ele>
        <time>2020-09-03T07:50:52Z</time>
      </trkpt>
      <trkpt lat="45.17237" lon="-0.54773">
        <ele>32.5</ele>
        <time>2020-09-03T07:50:53Z</time>
      </trkpt>
      <trkpt lat="45.17238" lon="-0.54771">
        <ele>32.5</ele>
        <time>2020-09-03T07:50:54Z</time>
      </trkpt>
      <trkpt lat="45.1724" lon="-0.54769">
        <ele>32.5</ele>
        <time>2020-09-03T07:50:56Z</time>
      </trkpt>
      <trkpt lat="45.17241" lon="-0.54768">
        <ele>32.5</ele>
        <time>2020-09-03T07:50:57Z</time>
      </trkpt>
      <trkpt lat="45.17243" lon="-0.54766">
        <ele>32.5</ele>
        <time>2020-09-03T07:50:59Z</time>
      </trkpt>
      <trkpt lat="45.17244" lon="-0.54765">
        <ele>32.5</ele>
        <time>2020-09-03T07:51:01Z</time>
      </trkpt>
      <trkpt lat="45.17244" lon="-0.54765">
        <ele>32.6</ele>
        <time>2020-09-03T07:51:02Z</time>
      </trkpt>
      <trkpt lat="45.17246" lon="-0.54766">
        <ele>32.6</ele>
        <time>2020-09-03T07:51:04Z</time>
      </trkpt>
      <trkpt lat="45.17247" lon="-0.54766">
        <ele>32.6</ele>
        <time>2020-09-03T07:51:05Z</time>
      </trkpt>
      <trkpt lat="45.17249" lon="-0.54765">
        <ele>32.6</ele>
        <time>2020-09-03T07:51:07Z</time>
      </trkpt>
      <trkpt lat="45.17249" lon="-0.54765">
        <ele>32.6</ele>
        <time>2020-09-03T07:51:08Z</time>
      </trkpt>
      <trkpt lat="45.17251" lon="-0.54763">
        <ele>32.6</ele>
        <time>2020-09-03T07:51:10Z</time>
      </trkpt>
      <trkpt lat="45.17252" lon="-0.54762">
        <ele>32.6</ele>
        <time>2020-09-03T07:51:11Z</time>
      </trkpt>
      <trkpt lat="45.17253" lon="-0.54761">
        <ele>32.6</ele>
        <time>2020-09-03T07:51:13Z</time>
      </trkpt>
      <trkpt lat="45.17254" lon="-0.5476">
        <ele>32.6</ele>
        <time>2020-09-03T07:51:14Z</time>
      </trkpt>
      <trkpt lat="45.17255" lon="-0.54758">
        <ele>32.7</ele>
        <time>2020-09-03T07:51:16Z</time>
      </trkpt>
      <trkpt lat="45.17258" lon="-0.54755">
        <ele>32.7</ele>
        <time>2020-09-03T07:51:19Z</time>
      </trkpt>
      <trkpt lat="45.1726" lon="-0.54754">
        <ele>32.7</ele>
        <time>2020-09-03T07:51:21Z</time>
      </trkpt>
      <trkpt lat="45.17261" lon="-0.54753">
        <ele>32.7</ele>
        <time>2020-09-03T07:51:22Z</time>
      </trkpt>
      <trkpt lat="45.17262" lon="-0.54752">
        <ele>32.7</ele>
        <time>2020-09-03T07:51:23Z</time>
      </trkpt>
      <trkpt lat="45.17268" lon="-0.54743">
        <ele>32.8</ele>
        <time>2020-09-03T07:51:25Z</time>
      </trkpt>
      <trkpt lat="45.17273" lon="-0.54737">
        <ele>32.8</ele>
        <time>2020-09-03T07:51:27Z</time>
      </trkpt>
      <trkpt lat="45.17274" lon="-0.54735">
        <ele>32.8</ele>
        <time>2020-09-03T07:51:28Z</time>
      </trkpt>
      <trkpt lat="45.17277" lon="-0.54733">
        <ele>32.9</ele>
        <time>2020-09-03T07:51:30Z</time>
      </trkpt>
      <trkpt lat="45.17279" lon="-0.54733">
        <ele>32.9</ele>
        <time>2020-09-03T07:51:31Z</time>
      </trkpt>
      <trkpt lat="45.17282" lon="-0.54731">
        <ele>32.9</ele>
        <time>2020-09-03T07:51:33Z</time>
      </trkpt>
      <trkpt lat="45.17284" lon="-0.54729">
        <ele>32.9</ele>
        <time>2020-09-03T07:51:35Z</time>
      </trkpt>
      <trkpt lat="45.17286" lon="-0.54727">
        <ele>32.9</ele>
        <time>2020-09-03T07:51:36Z</time>
      </trkpt>
      <trkpt lat="45.17288" lon="-0.54725">
        <ele>33</ele>
        <time>2020-09-03T07:51:38Z</time>
      </trkpt>
      <trkpt lat="45.17291" lon="-0.54723">
        <ele>33</ele>
        <time>2020-09-03T07:51:40Z</time>
      </trkpt>
      <trkpt lat="45.17291" lon="-0.54722">
        <ele>33</ele>
        <time>2020-09-03T07:51:41Z</time>
      </trkpt>
      <trkpt lat="45.17293" lon="-0.5472">
        <ele>33</ele>
        <time>2020-09-03T07:51:43Z</time>
      </trkpt>
      <trkpt lat="45.17295" lon="-0.54717">
        <ele>33</ele>
        <time>2020-09-03T07:51:45Z</time>
      </trkpt>
      <trkpt lat="45.17294" lon="-0.54717">
        <ele>33</ele>
        <time>2020-09-03T07:51:46Z</time>
      </trkpt>
      <trkpt lat="45.17294" lon="-0.54715">
        <ele>33.1</ele>
        <time>2020-09-03T07:51:48Z</time>
      </trkpt>
      <trkpt lat="45.17294" lon="-0.54713">
        <ele>33.1</ele>
        <time>2020-09-03T07:51:49Z</time>
      </trkpt>
      <trkpt lat="45.17295" lon="-0.54711">
        <ele>33.1</ele>
        <time>2020-09-03T07:51:50Z</time>
      </trkpt>
      <trkpt lat="45.17295" lon="-0.5471">
        <ele>33.1</ele>
        <time>2020-09-03T07:51:51Z</time>
      </trkpt>
      <trkpt lat="45.17295" lon="-0.54708">
        <ele>33.1</ele>
        <time>2020-09-03T07:51:53Z</time>
      </trkpt>
      <trkpt lat="45.17296" lon="-0.54704">
        <ele>33.1</ele>
        <time>2020-09-03T07:51:54Z</time>
      </trkpt>
      <trkpt lat="45.17296" lon="-0.54702">
        <ele>33.1</ele>
        <time>2020-09-03T07:51:56Z</time>
      </trkpt>
      <trkpt lat="45.17296" lon="-0.54699">
        <ele>33.1</ele>
        <time>2020-09-03T07:51:57Z</time>
      </trkpt>
      <trkpt lat="45.17296" lon="-0.54697">
        <ele>33.1</ele>
        <time>2020-09-03T07:51:58Z</time>
      </trkpt>
      <trkpt lat="45.17296" lon="-0.54696">
        <ele>33.2</ele>
        <time>2020-09-03T07:51:59Z</time>
      </trkpt>
      <trkpt lat="45.17296" lon="-0.54693">
        <ele>33.2</ele>
        <time>2020-09-03T07:52:01Z</time>
      </trkpt>
      <trkpt lat="45.17296" lon="-0.54691">
        <ele>33.2</ele>
        <time>2020-09-03T07:52:02Z</time>
      </trkpt>
      <trkpt lat="45.17296" lon="-0.54688">
        <ele>33.2</ele>
        <time>2020-09-03T07:52:03Z</time>
      </trkpt>
      <trkpt lat="45.17295" lon="-0.54685">
        <ele>33.2</ele>
        <time>2020-09-03T07:52:05Z</time>
      </trkpt>
      <trkpt lat="45.17295" lon="-0.54683">
        <ele>33.2</ele>
        <time>2020-09-03T07:52:06Z</time>
      </trkpt>
      <trkpt lat="45.17294" lon="-0.5468">
        <ele>33.2</ele>
        <time>2020-09-03T07:52:08Z</time>
      </trkpt>
      <trkpt lat="45.17293" lon="-0.54679">
        <ele>33.3</ele>
        <time>2020-09-03T07:52:09Z</time>
      </trkpt>
      <trkpt lat="45.17292" lon="-0.54674">
        <ele>33.3</ele>
        <time>2020-09-03T07:52:11Z</time>
      </trkpt>
      <trkpt lat="45.17292" lon="-0.54672">
        <ele>33.3</ele>
        <time>2020-09-03T07:52:12Z</time>
      </trkpt>
      <trkpt lat="45.17291" lon="-0.54669">
        <ele>33.3</ele>
        <time>2020-09-03T07:52:14Z</time>
      </trkpt>
      <trkpt lat="45.1729" lon="-0.54666">
        <ele>33.3</ele>
        <time>2020-09-03T07:52:15Z</time>
      </trkpt>
      <trkpt lat="45.1729" lon="-0.54664">
        <ele>33.3</ele>
        <time>2020-09-03T07:52:17Z</time>
      </trkpt>
      <trkpt lat="45.17289" lon="-0.54659">
        <ele>33.4</ele>
        <time>2020-09-03T07:52:19Z</time>
      </trkpt>
      <trkpt lat="45.17289" lon="-0.54657">
        <ele>33.4</ele>
        <time>2020-09-03T07:52:20Z</time>
      </trkpt>
      <trkpt lat="45.17289" lon="-0.54655">
        <ele>33.4</ele>
        <time>2020-09-03T07:52:22Z</time>
      </trkpt>
      <trkpt lat="45.17289" lon="-0.54651">
        <ele>33.4</ele>
        <time>2020-09-03T07:52:24Z</time>
      </trkpt>
      <trkpt lat="45.17288" lon="-0.54649">
        <ele>33.4</ele>
        <time>2020-09-03T07:52:25Z</time>
      </trkpt>
      <trkpt lat="45.17287" lon="-0.54646">
        <ele>33.4</ele>
        <time>2020-09-03T07:52:27Z</time>
      </trkpt>
      <trkpt lat="45.17288" lon="-0.54645">
        <ele>33.4</ele>
        <time>2020-09-03T07:52:28Z</time>
      </trkpt>
      <trkpt lat="45.17289" lon="-0.54645">
        <ele>33.5</ele>
        <time>2020-09-03T07:52:29Z</time>
      </trkpt>
      <trkpt lat="45.17289" lon="-0.54644">
        <ele>33.5</ele>
        <time>2020-09-03T07:52:31Z</time>
      </trkpt>
      <trkpt lat="45.17288" lon="-0.54642">
        <ele>33.5</ele>
        <time>2020-09-03T07:52:33Z</time>
      </trkpt>
      <trkpt lat="45.17287" lon="-0.5464">
        <ele>33.5</ele>
        <time>2020-09-03T07:52:34Z</time>
      </trkpt>
      <trkpt lat="45.17285" lon="-0.54637">
        <ele>33.5</ele>
        <time>2020-09-03T07:52:36Z</time>
      </trkpt>
      <trkpt lat="45.17283" lon="-0.54634">
        <ele>33.5</ele>
        <time>2020-09-03T07:52:38Z</time>
      </trkpt>
      <trkpt lat="45.17283" lon="-0.54633">
        <ele>33.5</ele>
        <time>2020-09-03T07:52:39Z</time>
      </trkpt>
      <trkpt lat="45.17281" lon="-0.54629">
        <ele>33.6</ele>
        <time>2020-09-03T07:52:41Z</time>
      </trkpt>
      <trkpt lat="45.17281" lon="-0.54628">
        <ele>33.6</ele>
        <time>2020-09-03T07:52:42Z</time>
      </trkpt>
      <trkpt lat="45.1728" lon="-0.54626">
        <ele>33.6</ele>
        <time>2020-09-03T07:52:43Z</time>
      </trkpt>
      <trkpt lat="45.17279" lon="-0.54621">
        <ele>33.6</ele>
        <time>2020-09-03T07:52:45Z</time>
      </trkpt>
      <trkpt lat="45.17279" lon="-0.54619">
        <ele>33.6</ele>
        <time>2020-09-03T07:52:46Z</time>
      </trkpt>
      <trkpt lat="45.17278" lon="-0.54617">
        <ele>33.6</ele>
        <time>2020-09-03T07:52:47Z</time>
      </trkpt>
      <trkpt lat="45.17277" lon="-0.54613">
        <ele>33.6</ele>
        <time>2020-09-03T07:52:48Z</time>
      </trkpt>
      <trkpt lat="45.17277" lon="-0.54611">
        <ele>33.7</ele>
        <time>2020-09-03T07:52:49Z</time>
      </trkpt>
      <trkpt lat="45.17276" lon="-0.54607">
        <ele>33.7</ele>
        <time>2020-09-03T07:52:51Z</time>
      </trkpt>
      <trkpt lat="45.17276" lon="-0.54606">
        <ele>33.7</ele>
        <time>2020-09-03T07:52:52Z</time>
      </trkpt>
      <trkpt lat="45.17275" lon="-0.54601">
        <ele>33.7</ele>
        <time>2020-09-03T07:52:54Z</time>
      </trkpt>
      <trkpt lat="45.17274" lon="-0.54599">
        <ele>33.7</ele>
        <time>2020-09-03T07:52:55Z</time>
      </trkpt>
      <trkpt lat="45.17273" lon="-0.54597">
        <ele>33.7</ele>
        <time>2020-09-03T07:52:57Z</time>
      </trkpt>
      <trkpt lat="45.17273" lon="-0.54595">
        <ele>33.7</ele>
        <time>2020-09-03T07:52:58Z</time>
      </trkpt>
      <trkpt lat="45.17273" lon="-0.54594">
        <ele>33.8</ele>
        <time>2020-09-03T07:52:59Z</time>
      </trkpt>
      <trkpt lat="45.17272" lon="-0.54592">
        <ele>33.8</ele>
        <time>2020-09-03T07:53:00Z</time>
      </trkpt>
      <trkpt lat="45.17272" lon="-0.54591">
        <ele>33.8</ele>
        <time>2020-09-03T07:53:01Z</time>
      </trkpt>
      <trkpt lat="45.17271" lon="-0.54589">
        <ele>33.8</ele>
        <time>2020-09-03T07:53:03Z</time>
      </trkpt>
      <trkpt lat="45.1727" lon="-0.54587">
        <ele>33.8</ele>
        <time>2020-09-03T07:53:04Z</time>
      </trkpt>
      <trkpt lat="45.17269" lon="-0.54585">
        <ele>33.8</ele>
        <time>2020-09-03T07:53:06Z</time>
      </trkpt>
      <trkpt lat="45.17268" lon="-0.54583">
        <ele>33.8</ele>
        <time>2020-09-03T07:53:07Z</time>
      </trkpt>
      <trkpt lat="45.17267" lon="-0.54581">
        <ele>33.8</ele>
        <time>2020-09-03T07:53:08Z</time>
      </trkpt>
      <trkpt lat="45.17266" lon="-0.54577">
        <ele>33.9</ele>
        <time>2020-09-03T07:53:10Z</time>
      </trkpt>
      <trkpt lat="45.17266" lon="-0.54576">
        <ele>33.9</ele>
        <time>2020-09-03T07:53:11Z</time>
      </trkpt>
      <trkpt lat="45.17265" lon="-0.54574">
        <ele>33.9</ele>
        <time>2020-09-03T07:53:12Z</time>
      </trkpt>
      <trkpt lat="45.17264" lon="-0.54572">
        <ele>33.9</ele>
        <time>2020-09-03T07:53:14Z</time>
      </trkpt>
      <trkpt lat="45.17263" lon="-0.54569">
        <ele>33.9</ele>
        <time>2020-09-03T07:53:15Z</time>
      </trkpt>
      <trkpt lat="45.17263" lon="-0.54568">
        <ele>33.9</ele>
        <time>2020-09-03T07:53:16Z</time>
      </trkpt>
      <trkpt lat="45.17261" lon="-0.54564">
        <ele>33.9</ele>
        <time>2020-09-03T07:53:18Z</time>
      </trkpt>
      <trkpt lat="45.1726" lon="-0.54561">
        <ele>34</ele>
        <time>2020-09-03T07:53:19Z</time>
      </trkpt>
      <trkpt lat="45.17259" lon="-0.5456">
        <ele>34</ele>
        <time>2020-09-03T07:53:20Z</time>
      </trkpt>
      <trkpt lat="45.17258" lon="-0.54557">
        <ele>34</ele>
        <time>2020-09-03T07:53:22Z</time>
      </trkpt>
      <trkpt lat="45.17257" lon="-0.54555">
        <ele>34</ele>
        <time>2020-09-03T07:53:23Z</time>
      </trkpt>
      <trkpt lat="45.17256" lon="-0.54553">
        <ele>34</ele>
        <time>2020-09-03T07:53:24Z</time>
      </trkpt>
      <trkpt lat="45.17255" lon="-0.54551">
        <ele>34</ele>
        <time>2020-09-03T07:53:26Z</time>
      </trkpt>
      <trkpt lat="45.17255" lon="-0.5455">
        <ele>34</ele>
        <time>2020-09-03T07:53:27Z</time>
      </trkpt>
      <trkpt lat="45.17255" lon="-0.54548">
        <ele>34</ele>
        <time>2020-09-03T07:53:28Z</time>
      </trkpt>
      <trkpt lat="45.17254" lon="-0.54547">
        <ele>34</ele>
        <time>2020-09-03T07:53:29Z</time>
      </trkpt>
      <trkpt lat="45.17253" lon="-0.54544">
        <ele>34.1</ele>
        <time>2020-09-03T07:53:30Z</time>
      </trkpt>
      <trkpt lat="45.17252" lon="-0.54542">
        <ele>34.1</ele>
        <time>2020-09-03T07:53:32Z</time>
      </trkpt>
      <trkpt lat="45.17252" lon="-0.54541">
        <ele>34.1</ele>
        <time>2020-09-03T07:53:33Z</time>
      </trkpt>
      <trkpt lat="45.1725" lon="-0.54537">
        <ele>34.1</ele>
        <time>2020-09-03T07:53:35Z</time>
      </trkpt>
      <trkpt lat="45.1725" lon="-0.54536">
        <ele>34.1</ele>
        <time>2020-09-03T07:53:36Z</time>
      </trkpt>
      <trkpt lat="45.17249" lon="-0.54534">
        <ele>34.1</ele>
        <time>2020-09-03T07:53:37Z</time>
      </trkpt>
      <trkpt lat="45.17248" lon="-0.54531">
        <ele>34.1</ele>
        <time>2020-09-03T07:53:39Z</time>
      </trkpt>
      <trkpt lat="45.17248" lon="-0.54528">
        <ele>34.2</ele>
        <time>2020-09-03T07:53:40Z</time>
      </trkpt>
      <trkpt lat="45.17248" lon="-0.54526">
        <ele>34.2</ele>
        <time>2020-09-03T07:53:41Z</time>
      </trkpt>
      <trkpt lat="45.17247" lon="-0.54524">
        <ele>34.2</ele>
        <time>2020-09-03T07:53:42Z</time>
      </trkpt>
      <trkpt lat="45.17247" lon="-0.54523">
        <ele>34.2</ele>
        <time>2020-09-03T07:53:43Z</time>
      </trkpt>
      <trkpt lat="45.17245" lon="-0.54518">
        <ele>34.2</ele>
        <time>2020-09-03T07:53:45Z</time>
      </trkpt>
      <trkpt lat="45.17245" lon="-0.54517">
        <ele>34.2</ele>
        <time>2020-09-03T07:53:46Z</time>
      </trkpt>
      <trkpt lat="45.17244" lon="-0.54514">
        <ele>34.2</ele>
        <time>2020-09-03T07:53:47Z</time>
      </trkpt>
      <trkpt lat="45.17243" lon="-0.54513">
        <ele>34.3</ele>
        <time>2020-09-03T07:53:48Z</time>
      </trkpt>
      <trkpt lat="45.17243" lon="-0.54511">
        <ele>34.3</ele>
        <time>2020-09-03T07:53:49Z</time>
      </trkpt>
      <trkpt lat="45.17242" lon="-0.54509">
        <ele>34.3</ele>
        <time>2020-09-03T07:53:50Z</time>
      </trkpt>
      <trkpt lat="45.17242" lon="-0.54507">
        <ele>34.3</ele>
        <time>2020-09-03T07:53:51Z</time>
      </trkpt>
      <trkpt lat="45.17241" lon="-0.54506">
        <ele>34.3</ele>
        <time>2020-09-03T07:53:52Z</time>
      </trkpt>
      <trkpt lat="45.17241" lon="-0.54504">
        <ele>34.3</ele>
        <time>2020-09-03T07:53:53Z</time>
      </trkpt>
      <trkpt lat="45.1724" lon="-0.54502">
        <ele>34.3</ele>
        <time>2020-09-03T07:53:55Z</time>
      </trkpt>
      <trkpt lat="45.1724" lon="-0.545">
        <ele>34.3</ele>
        <time>2020-09-03T07:53:56Z</time>
      </trkpt>
      <trkpt lat="45.17239" lon="-0.54497">
        <ele>34.3</ele>
        <time>2020-09-03T07:53:57Z</time>
      </trkpt>
      <trkpt lat="45.17239" lon="-0.54496">
        <ele>34.4</ele>
        <time>2020-09-03T07:53:58Z</time>
      </trkpt>
      <trkpt lat="45.17238" lon="-0.54493">
        <ele>34.4</ele>
        <time>2020-09-03T07:54:00Z</time>
      </trkpt>
      <trkpt lat="45.17238" lon="-0.54491">
        <ele>34.4</ele>
        <time>2020-09-03T07:54:01Z</time>
      </trkpt>
      <trkpt lat="45.17238" lon="-0.5449">
        <ele>34.4</ele>
        <time>2020-09-03T07:54:02Z</time>
      </trkpt>
      <trkpt lat="45.17238" lon="-0.54488">
        <ele>34.4</ele>
        <time>2020-09-03T07:54:03Z</time>
      </trkpt>
      <trkpt lat="45.17239" lon="-0.54486">
        <ele>34.4</ele>
        <time>2020-09-03T07:54:05Z</time>
      </trkpt>
      <trkpt lat="45.17239" lon="-0.54485">
        <ele>34.4</ele>
        <time>2020-09-03T07:54:06Z</time>
      </trkpt>
      <trkpt lat="45.17239" lon="-0.54482">
        <ele>34.4</ele>
        <time>2020-09-03T07:54:08Z</time>
      </trkpt>
      <trkpt lat="45.17236" lon="-0.54478">
        <ele>34.5</ele>
        <time>2020-09-03T07:54:09Z</time>
      </trkpt>
      <trkpt lat="45.17236" lon="-0.54477">
        <ele>34.5</ele>
        <time>2020-09-03T07:54:10Z</time>
      </trkpt>
      <trkpt lat="45.17236" lon="-0.54474">
        <ele>34.5</ele>
        <time>2020-09-03T07:54:11Z</time>
      </trkpt>
      <trkpt lat="45.17234" lon="-0.54471">
        <ele>34.5</ele>
        <time>2020-09-03T07:54:13Z</time>
      </trkpt>
      <trkpt lat="45.17235" lon="-0.54469">
        <ele>34.5</ele>
        <time>2020-09-03T07:54:14Z</time>
      </trkpt>
      <trkpt lat="45.17234" lon="-0.54466">
        <ele>34.5</ele>
        <time>2020-09-03T07:54:16Z</time>
      </trkpt>
      <trkpt lat="45.17233" lon="-0.5446">
        <ele>34.6</ele>
        <time>2020-09-03T07:54:18Z</time>
      </trkpt>
      <trkpt lat="45.17233" lon="-0.54457">
        <ele>34.6</ele>
        <time>2020-09-03T07:54:19Z</time>
      </trkpt>
      <trkpt lat="45.17232" lon="-0.54454">
        <ele>34.6</ele>
        <time>2020-09-03T07:54:21Z</time>
      </trkpt>
      <trkpt lat="45.17231" lon="-0.54452">
        <ele>34.6</ele>
        <time>2020-09-03T07:54:22Z</time>
      </trkpt>
      <trkpt lat="45.1723" lon="-0.54449">
        <ele>34.6</ele>
        <time>2020-09-03T07:54:24Z</time>
      </trkpt>
      <trkpt lat="45.1723" lon="-0.54447">
        <ele>34.6</ele>
        <time>2020-09-03T07:54:25Z</time>
      </trkpt>
      <trkpt lat="45.17229" lon="-0.54443">
        <ele>34.7</ele>
        <time>2020-09-03T07:54:26Z</time>
      </trkpt>
      <trkpt lat="45.17228" lon="-0.54442">
        <ele>34.7</ele>
        <time>2020-09-03T07:54:27Z</time>
      </trkpt>
      <trkpt lat="45.17226" lon="-0.54439">
        <ele>34.7</ele>
        <time>2020-09-03T07:54:29Z</time>
      </trkpt>
      <trkpt lat="45.17225" lon="-0.54438">
        <ele>34.7</ele>
        <time>2020-09-03T07:54:30Z</time>
      </trkpt>
      <trkpt lat="45.17223" lon="-0.54434">
        <ele>34.7</ele>
        <time>2020-09-03T07:54:32Z</time>
      </trkpt>
      <trkpt lat="45.17222" lon="-0.54433">
        <ele>34.7</ele>
        <time>2020-09-03T07:54:33Z</time>
      </trkpt>
      <trkpt lat="45.17221" lon="-0.54431">
        <ele>34.8</ele>
        <time>2020-09-03T07:54:34Z</time>
      </trkpt>
      <trkpt lat="45.17219" lon="-0.54428">
        <ele>34.8</ele>
        <time>2020-09-03T07:54:36Z</time>
      </trkpt>
      <trkpt lat="45.17218" lon="-0.54425">
        <ele>34.8</ele>
        <time>2020-09-03T07:54:37Z</time>
      </trkpt>
      <trkpt lat="45.17218" lon="-0.54424">
        <ele>34.8</ele>
        <time>2020-09-03T07:54:38Z</time>
      </trkpt>
      <trkpt lat="45.17217" lon="-0.54423">
        <ele>34.8</ele>
        <time>2020-09-03T07:54:39Z</time>
      </trkpt>
      <trkpt lat="45.17215" lon="-0.54419">
        <ele>34.8</ele>
        <time>2020-09-03T07:54:41Z</time>
      </trkpt>
      <trkpt lat="45.17214" lon="-0.54417">
        <ele>34.8</ele>
        <time>2020-09-03T07:54:42Z</time>
      </trkpt>
      <trkpt lat="45.17214" lon="-0.54416">
        <ele>34.9</ele>
        <time>2020-09-03T07:54:43Z</time>
      </trkpt>
      <trkpt lat="45.17214" lon="-0.54414">
        <ele>34.9</ele>
        <time>2020-09-03T07:54:45Z</time>
      </trkpt>
      <trkpt lat="45.17213" lon="-0.54412">
        <ele>34.9</ele>
        <time>2020-09-03T07:54:46Z</time>
      </trkpt>
      <trkpt lat="45.17212" lon="-0.54409">
        <ele>34.9</ele>
        <time>2020-09-03T07:54:48Z</time>
      </trkpt>
      <trkpt lat="45.17211" lon="-0.54407">
        <ele>34.9</ele>
        <time>2020-09-03T07:54:49Z</time>
      </trkpt>
      <trkpt lat="45.1721" lon="-0.54405">
        <ele>34.9</ele>
        <time>2020-09-03T07:54:50Z</time>
      </trkpt>
      <trkpt lat="45.17209" lon="-0.54401">
        <ele>34.9</ele>
        <time>2020-09-03T07:54:52Z</time>
      </trkpt>
      <trkpt lat="45.17209" lon="-0.54399">
        <ele>35</ele>
        <time>2020-09-03T07:54:53Z</time>
      </trkpt>
      <trkpt lat="45.17208" lon="-0.54396">
        <ele>35</ele>
        <time>2020-09-03T07:54:55Z</time>
      </trkpt>
      <trkpt lat="45.17207" lon="-0.54395">
        <ele>35</ele>
        <time>2020-09-03T07:54:56Z</time>
      </trkpt>
      <trkpt lat="45.17207" lon="-0.54393">
        <ele>35</ele>
        <time>2020-09-03T07:54:57Z</time>
      </trkpt>
      <trkpt lat="45.17206" lon="-0.54391">
        <ele>35</ele>
        <time>2020-09-03T07:54:58Z</time>
      </trkpt>
      <trkpt lat="45.17206" lon="-0.54389">
        <ele>35</ele>
        <time>2020-09-03T07:55:00Z</time>
      </trkpt>
      <trkpt lat="45.17205" lon="-0.54387">
        <ele>35</ele>
        <time>2020-09-03T07:55:01Z</time>
      </trkpt>
      <trkpt lat="45.17204" lon="-0.54384">
        <ele>35</ele>
        <time>2020-09-03T07:55:02Z</time>
      </trkpt>
      <trkpt lat="45.17204" lon="-0.54382">
        <ele>35.1</ele>
        <time>2020-09-03T07:55:03Z</time>
      </trkpt>
      <trkpt lat="45.17203" lon="-0.54378">
        <ele>35.1</ele>
        <time>2020-09-03T07:55:05Z</time>
      </trkpt>
      <trkpt lat="45.17202" lon="-0.54377">
        <ele>35.1</ele>
        <time>2020-09-03T07:55:06Z</time>
      </trkpt>
      <trkpt lat="45.17201" lon="-0.54375">
        <ele>35.1</ele>
        <time>2020-09-03T07:55:08Z</time>
      </trkpt>
      <trkpt lat="45.172" lon="-0.54373">
        <ele>35.1</ele>
        <time>2020-09-03T07:55:10Z</time>
      </trkpt>
      <trkpt lat="45.172" lon="-0.54371">
        <ele>35.1</ele>
        <time>2020-09-03T07:55:11Z</time>
      </trkpt>
      <trkpt lat="45.17199" lon="-0.54369">
        <ele>35.1</ele>
        <time>2020-09-03T07:55:12Z</time>
      </trkpt>
      <trkpt lat="45.17198" lon="-0.54367">
        <ele>35.1</ele>
        <time>2020-09-03T07:55:13Z</time>
      </trkpt>
      <trkpt lat="45.17197" lon="-0.54364">
        <ele>35.2</ele>
        <time>2020-09-03T07:55:15Z</time>
      </trkpt>
      <trkpt lat="45.17196" lon="-0.54362">
        <ele>35.2</ele>
        <time>2020-09-03T07:55:16Z</time>
      </trkpt>
      <trkpt lat="45.17196" lon="-0.54361">
        <ele>35.2</ele>
        <time>2020-09-03T07:55:17Z</time>
      </trkpt>
      <trkpt lat="45.17195" lon="-0.54359">
        <ele>35.2</ele>
        <time>2020-09-03T07:55:18Z</time>
      </trkpt>
      <trkpt lat="45.17194" lon="-0.54358">
        <ele>35.2</ele>
        <time>2020-09-03T07:55:19Z</time>
      </trkpt>
      <trkpt lat="45.17192" lon="-0.54354">
        <ele>35.2</ele>
        <time>2020-09-03T07:55:21Z</time>
      </trkpt>
      <trkpt lat="45.17191" lon="-0.54352">
        <ele>35.2</ele>
        <time>2020-09-03T07:55:22Z</time>
      </trkpt>
      <trkpt lat="45.17191" lon="-0.54351">
        <ele>35.3</ele>
        <time>2020-09-03T07:55:23Z</time>
      </trkpt>
      <trkpt lat="45.1719" lon="-0.54349">
        <ele>35.3</ele>
        <time>2020-09-03T07:55:24Z</time>
      </trkpt>
      <trkpt lat="45.17189" lon="-0.54347">
        <ele>35.3</ele>
        <time>2020-09-03T07:55:25Z</time>
      </trkpt>
      <trkpt lat="45.17188" lon="-0.54345">
        <ele>35.3</ele>
        <time>2020-09-03T07:55:27Z</time>
      </trkpt>
      <trkpt lat="45.17187" lon="-0.54342">
        <ele>35.3</ele>
        <time>2020-09-03T07:55:28Z</time>
      </trkpt>
      <trkpt lat="45.17187" lon="-0.54341">
        <ele>35.3</ele>
        <time>2020-09-03T07:55:29Z</time>
      </trkpt>
      <trkpt lat="45.17186" lon="-0.54336">
        <ele>35.3</ele>
        <time>2020-09-03T07:55:30Z</time>
      </trkpt>
      <trkpt lat="45.17186" lon="-0.54334">
        <ele>35.3</ele>
        <time>2020-09-03T07:55:32Z</time>
      </trkpt>
      <trkpt lat="45.17186" lon="-0.54332">
        <ele>35.4</ele>
        <time>2020-09-03T07:55:33Z</time>
      </trkpt>
      <trkpt lat="45.17186" lon="-0.5433">
        <ele>35.4</ele>
        <time>2020-09-03T07:55:34Z</time>
      </trkpt>
      <trkpt lat="45.17186" lon="-0.54329">
        <ele>35.4</ele>
        <time>2020-09-03T07:55:35Z</time>
      </trkpt>
      <trkpt lat="45.17186" lon="-0.54327">
        <ele>35.4</ele>
        <time>2020-09-03T07:55:36Z</time>
      </trkpt>
      <trkpt lat="45.17186" lon="-0.54325">
        <ele>35.4</ele>
        <time>2020-09-03T07:55:37Z</time>
      </trkpt>
      <trkpt lat="45.17187" lon="-0.54322">
        <ele>35.4</ele>
        <time>2020-09-03T07:55:38Z</time>
      </trkpt>
      <trkpt lat="45.17188" lon="-0.54317">
        <ele>35.4</ele>
        <time>2020-09-03T07:55:40Z</time>
      </trkpt>
      <trkpt lat="45.17188" lon="-0.54316">
        <ele>35.5</ele>
        <time>2020-09-03T07:55:41Z</time>
      </trkpt>
      <trkpt lat="45.17189" lon="-0.54314">
        <ele>35.5</ele>
        <time>2020-09-03T07:55:42Z</time>
      </trkpt>
      <trkpt lat="45.17189" lon="-0.54313">
        <ele>35.5</ele>
        <time>2020-09-03T07:55:43Z</time>
      </trkpt>
      <trkpt lat="45.1719" lon="-0.54312">
        <ele>35.5</ele>
        <time>2020-09-03T07:55:44Z</time>
      </trkpt>
      <trkpt lat="45.17191" lon="-0.54309">
        <ele>35.5</ele>
        <time>2020-09-03T07:55:46Z</time>
      </trkpt>
      <trkpt lat="45.17192" lon="-0.54306">
        <ele>35.5</ele>
        <time>2020-09-03T07:55:48Z</time>
      </trkpt>
      <trkpt lat="45.17193" lon="-0.54302">
        <ele>35.5</ele>
        <time>2020-09-03T07:55:50Z</time>
      </trkpt>
      <trkpt lat="45.17194" lon="-0.543">
        <ele>35.5</ele>
        <time>2020-09-03T07:55:51Z</time>
      </trkpt>
      <trkpt lat="45.17195" lon="-0.54299">
        <ele>35.6</ele>
        <time>2020-09-03T07:55:52Z</time>
      </trkpt>
      <trkpt lat="45.17196" lon="-0.54296">
        <ele>35.6</ele>
        <time>2020-09-03T07:55:53Z</time>
      </trkpt>
      <trkpt lat="45.17197" lon="-0.54294">
        <ele>35.6</ele>
        <time>2020-09-03T07:55:55Z</time>
      </trkpt>
      <trkpt lat="45.17197" lon="-0.54293">
        <ele>35.6</ele>
        <time>2020-09-03T07:55:56Z</time>
      </trkpt>
      <trkpt lat="45.17198" lon="-0.5429">
        <ele>35.6</ele>
        <time>2020-09-03T07:55:58Z</time>
      </trkpt>
      <trkpt lat="45.17199" lon="-0.54289">
        <ele>35.6</ele>
        <time>2020-09-03T07:55:59Z</time>
      </trkpt>
      <trkpt lat="45.17199" lon="-0.54288">
        <ele>35.6</ele>
        <time>2020-09-03T07:56:00Z</time>
      </trkpt>
      <trkpt lat="45.172" lon="-0.54286">
        <ele>35.6</ele>
        <time>2020-09-03T07:56:01Z</time>
      </trkpt>
      <trkpt lat="45.172" lon="-0.54283">
        <ele>35.7</ele>
        <time>2020-09-03T07:56:03Z</time>
      </trkpt>
      <trkpt lat="45.172" lon="-0.54281">
        <ele>35.7</ele>
        <time>2020-09-03T07:56:04Z</time>
      </trkpt>
      <trkpt lat="45.172" lon="-0.54276">
        <ele>35.7</ele>
        <time>2020-09-03T07:56:05Z</time>
      </trkpt>
      <trkpt lat="45.17199" lon="-0.54275">
        <ele>35.7</ele>
        <time>2020-09-03T07:56:06Z</time>
      </trkpt>
      <trkpt lat="45.17198" lon="-0.54271">
        <ele>35.7</ele>
        <time>2020-09-03T07:56:08Z</time>
      </trkpt>
      <trkpt lat="45.17198" lon="-0.5427">
        <ele>35.7</ele>
        <time>2020-09-03T07:56:09Z</time>
      </trkpt>
      <trkpt lat="45.17198" lon="-0.54268">
        <ele>35.7</ele>
        <time>2020-09-03T07:56:10Z</time>
      </trkpt>
      <trkpt lat="45.17197" lon="-0.54267">
        <ele>35.7</ele>
        <time>2020-09-03T07:56:11Z</time>
      </trkpt>
      <trkpt lat="45.17197" lon="-0.54265">
        <ele>35.8</ele>
        <time>2020-09-03T07:56:12Z</time>
      </trkpt>
      <trkpt lat="45.17197" lon="-0.54262">
        <ele>35.8</ele>
        <time>2020-09-03T07:56:14Z</time>
      </trkpt>
      <trkpt lat="45.17196" lon="-0.54261">
        <ele>35.8</ele>
        <time>2020-09-03T07:56:15Z</time>
      </trkpt>
      <trkpt lat="45.17195" lon="-0.54259">
        <ele>35.8</ele>
        <time>2020-09-03T07:56:16Z</time>
      </trkpt>
      <trkpt lat="45.17195" lon="-0.54256">
        <ele>35.8</ele>
        <time>2020-09-03T07:56:17Z</time>
      </trkpt>
      <trkpt lat="45.17195" lon="-0.54254">
        <ele>35.8</ele>
        <time>2020-09-03T07:56:18Z</time>
      </trkpt>
      <trkpt lat="45.17196" lon="-0.5425">
        <ele>35.8</ele>
        <time>2020-09-03T07:56:20Z</time>
      </trkpt>
      <trkpt lat="45.17196" lon="-0.54248">
        <ele>35.8</ele>
        <time>2020-09-03T07:56:21Z</time>
      </trkpt>
      <trkpt lat="45.17196" lon="-0.54246">
        <ele>35.9</ele>
        <time>2020-09-03T07:56:23Z</time>
      </trkpt>
      <trkpt lat="45.17196" lon="-0.54244">
        <ele>35.9</ele>
        <time>2020-09-03T07:56:24Z</time>
      </trkpt>
      <trkpt lat="45.17195" lon="-0.54241">
        <ele>35.9</ele>
        <time>2020-09-03T07:56:25Z</time>
      </trkpt>
      <trkpt lat="45.17195" lon="-0.54239">
        <ele>35.9</ele>
        <time>2020-09-03T07:56:26Z</time>
      </trkpt>
      <trkpt lat="45.17194" lon="-0.54237">
        <ele>35.9</ele>
        <time>2020-09-03T07:56:28Z</time>
      </trkpt>
      <trkpt lat="45.17194" lon="-0.54234">
        <ele>36</ele>
        <time>2020-09-03T07:56:30Z</time>
      </trkpt>
      <trkpt lat="45.17194" lon="-0.54233">
        <ele>35.9</ele>
        <time>2020-09-03T07:56:31Z</time>
      </trkpt>
      <trkpt lat="45.17194" lon="-0.54233">
        <ele>35.9</ele>
        <time>2020-09-03T07:56:33Z</time>
      </trkpt>
      <trkpt lat="45.17194" lon="-0.54234">
        <ele>35.9</ele>
        <time>2020-09-03T07:56:34Z</time>
      </trkpt>
      <trkpt lat="45.17194" lon="-0.54234">
        <ele>35.9</ele>
        <time>2020-09-03T07:56:35Z</time>
      </trkpt>
      <trkpt lat="45.17194" lon="-0.54234">
        <ele>35.9</ele>
        <time>2020-09-03T07:56:37Z</time>
      </trkpt>
      <trkpt lat="45.17194" lon="-0.54235">
        <ele>35.9</ele>
        <time>2020-09-03T07:56:38Z</time>
      </trkpt>
      <trkpt lat="45.17193" lon="-0.54234">
        <ele>35.9</ele>
        <time>2020-09-03T07:56:39Z</time>
      </trkpt>
      <trkpt lat="45.17191" lon="-0.54234">
        <ele>35.9</ele>
        <time>2020-09-03T07:56:40Z</time>
      </trkpt>
      <trkpt lat="45.17189" lon="-0.54234">
        <ele>35.9</ele>
        <time>2020-09-03T07:56:42Z</time>
      </trkpt>
      <trkpt lat="45.17188" lon="-0.54234">
        <ele>35.9</ele>
        <time>2020-09-03T07:56:43Z</time>
      </trkpt>
      <trkpt lat="45.17187" lon="-0.54234">
        <ele>35.9</ele>
        <time>2020-09-03T07:56:44Z</time>
      </trkpt>
      <trkpt lat="45.17185" lon="-0.54233">
        <ele>35.8</ele>
        <time>2020-09-03T07:56:45Z</time>
      </trkpt>
      <trkpt lat="45.17184" lon="-0.54233">
        <ele>35.8</ele>
        <time>2020-09-03T07:56:46Z</time>
      </trkpt>
      <trkpt lat="45.17183" lon="-0.54233">
        <ele>35.8</ele>
        <time>2020-09-03T07:56:47Z</time>
      </trkpt>
      <trkpt lat="45.17182" lon="-0.54234">
        <ele>35.8</ele>
        <time>2020-09-03T07:56:48Z</time>
      </trkpt>
      <trkpt lat="45.17179" lon="-0.54234">
        <ele>35.8</ele>
        <time>2020-09-03T07:56:50Z</time>
      </trkpt>
      <trkpt lat="45.17177" lon="-0.54236">
        <ele>35.7</ele>
        <time>2020-09-03T07:56:51Z</time>
      </trkpt>
      <trkpt lat="45.17176" lon="-0.54236">
        <ele>35.7</ele>
        <time>2020-09-03T07:56:52Z</time>
      </trkpt>
      <trkpt lat="45.17176" lon="-0.54236">
        <ele>35.7</ele>
        <time>2020-09-03T07:56:53Z</time>
      </trkpt>
      <trkpt lat="45.17174" lon="-0.54237">
        <ele>35.7</ele>
        <time>2020-09-03T07:56:54Z</time>
      </trkpt>
      <trkpt lat="45.17173" lon="-0.54238">
        <ele>35.7</ele>
        <time>2020-09-03T07:56:55Z</time>
      </trkpt>
      <trkpt lat="45.17171" lon="-0.54239">
        <ele>35.6</ele>
        <time>2020-09-03T07:56:56Z</time>
      </trkpt>
      <trkpt lat="45.1717" lon="-0.54239">
        <ele>35.6</ele>
        <time>2020-09-03T07:56:57Z</time>
      </trkpt>
      <trkpt lat="45.17169" lon="-0.54239">
        <ele>35.6</ele>
        <time>2020-09-03T07:56:58Z</time>
      </trkpt>
      <trkpt lat="45.17166" lon="-0.54241">
        <ele>35.6</ele>
        <time>2020-09-03T07:57:00Z</time>
      </trkpt>
      <trkpt lat="45.17165" lon="-0.54242">
        <ele>35.6</ele>
        <time>2020-09-03T07:57:01Z</time>
      </trkpt>
      <trkpt lat="45.17163" lon="-0.54243">
        <ele>35.5</ele>
        <time>2020-09-03T07:57:03Z</time>
      </trkpt>
      <trkpt lat="45.17161" lon="-0.54244">
        <ele>35.5</ele>
        <time>2020-09-03T07:57:04Z</time>
      </trkpt>
      <trkpt lat="45.17159" lon="-0.54247">
        <ele>35.5</ele>
        <time>2020-09-03T07:57:06Z</time>
      </trkpt>
      <trkpt lat="45.17158" lon="-0.54247">
        <ele>35.5</ele>
        <time>2020-09-03T07:57:07Z</time>
      </trkpt>
      <trkpt lat="45.17157" lon="-0.54248">
        <ele>35.5</ele>
        <time>2020-09-03T07:57:08Z</time>
      </trkpt>
      <trkpt lat="45.17155" lon="-0.5425">
        <ele>35.5</ele>
        <time>2020-09-03T07:57:10Z</time>
      </trkpt>
      <trkpt lat="45.17154" lon="-0.5425">
        <ele>35.5</ele>
        <time>2020-09-03T07:57:11Z</time>
      </trkpt>
      <trkpt lat="45.17153" lon="-0.54251">
        <ele>35.5</ele>
        <time>2020-09-03T07:57:12Z</time>
      </trkpt>
      <trkpt lat="45.17152" lon="-0.54252">
        <ele>35.5</ele>
        <time>2020-09-03T07:57:13Z</time>
      </trkpt>
      <trkpt lat="45.1715" lon="-0.54253">
        <ele>35.5</ele>
        <time>2020-09-03T07:57:14Z</time>
      </trkpt>
      <trkpt lat="45.17149" lon="-0.54254">
        <ele>35.5</ele>
        <time>2020-09-03T07:57:15Z</time>
      </trkpt>
      <trkpt lat="45.17148" lon="-0.54255">
        <ele>35.5</ele>
        <time>2020-09-03T07:57:16Z</time>
      </trkpt>
      <trkpt lat="45.17147" lon="-0.54256">
        <ele>35.5</ele>
        <time>2020-09-03T07:57:17Z</time>
      </trkpt>
      <trkpt lat="45.17145" lon="-0.54256">
        <ele>35.5</ele>
        <time>2020-09-03T07:57:18Z</time>
      </trkpt>
      <trkpt lat="45.17143" lon="-0.54258">
        <ele>35.5</ele>
        <time>2020-09-03T07:57:20Z</time>
      </trkpt>
      <trkpt lat="45.17142" lon="-0.54257">
        <ele>35.5</ele>
        <time>2020-09-03T07:57:21Z</time>
      </trkpt>
      <trkpt lat="45.1714" lon="-0.54256">
        <ele>35.5</ele>
        <time>2020-09-03T07:57:23Z</time>
      </trkpt>
      <trkpt lat="45.17139" lon="-0.54253">
        <ele>35.5</ele>
        <time>2020-09-03T07:57:24Z</time>
      </trkpt>
      <trkpt lat="45.17138" lon="-0.54249">
        <ele>35.5</ele>
        <time>2020-09-03T07:57:26Z</time>
      </trkpt>
      <trkpt lat="45.17137" lon="-0.54244">
        <ele>35.6</ele>
        <time>2020-09-03T07:57:28Z</time>
      </trkpt>
      <trkpt lat="45.17137" lon="-0.54243">
        <ele>35.6</ele>
        <time>2020-09-03T07:57:29Z</time>
      </trkpt>
      <trkpt lat="45.17136" lon="-0.5424">
        <ele>35.6</ele>
        <time>2020-09-03T07:57:30Z</time>
      </trkpt>
      <trkpt lat="45.17136" lon="-0.54238">
        <ele>35.6</ele>
        <time>2020-09-03T07:57:32Z</time>
      </trkpt>
      <trkpt lat="45.17135" lon="-0.54236">
        <ele>35.6</ele>
        <time>2020-09-03T07:57:33Z</time>
      </trkpt>
      <trkpt lat="45.17134" lon="-0.54234">
        <ele>35.7</ele>
        <time>2020-09-03T07:57:34Z</time>
      </trkpt>
      <trkpt lat="45.17134" lon="-0.54232">
        <ele>35.7</ele>
        <time>2020-09-03T07:57:35Z</time>
      </trkpt>
      <trkpt lat="45.17133" lon="-0.54229">
        <ele>35.7</ele>
        <time>2020-09-03T07:57:37Z</time>
      </trkpt>
      <trkpt lat="45.17132" lon="-0.54225">
        <ele>35.7</ele>
        <time>2020-09-03T07:57:38Z</time>
      </trkpt>
      <trkpt lat="45.17132" lon="-0.54223">
        <ele>35.7</ele>
        <time>2020-09-03T07:57:39Z</time>
      </trkpt>
      <trkpt lat="45.17131" lon="-0.54221">
        <ele>35.8</ele>
        <time>2020-09-03T07:57:41Z</time>
      </trkpt>
      <trkpt lat="45.1713" lon="-0.54219">
        <ele>35.8</ele>
        <time>2020-09-03T07:57:42Z</time>
      </trkpt>
      <trkpt lat="45.17129" lon="-0.54216">
        <ele>35.8</ele>
        <time>2020-09-03T07:57:43Z</time>
      </trkpt>
      <trkpt lat="45.17128" lon="-0.54212">
        <ele>35.8</ele>
        <time>2020-09-03T07:57:45Z</time>
      </trkpt>
      <trkpt lat="45.17128" lon="-0.54209">
        <ele>35.9</ele>
        <time>2020-09-03T07:57:47Z</time>
      </trkpt>
      <trkpt lat="45.17127" lon="-0.54207">
        <ele>35.9</ele>
        <time>2020-09-03T07:57:48Z</time>
      </trkpt>
      <trkpt lat="45.17127" lon="-0.54206">
        <ele>35.9</ele>
        <time>2020-09-03T07:57:49Z</time>
      </trkpt>
      <trkpt lat="45.17126" lon="-0.54203">
        <ele>35.9</ele>
        <time>2020-09-03T07:57:50Z</time>
      </trkpt>
      <trkpt lat="45.17126" lon="-0.54201">
        <ele>35.9</ele>
        <time>2020-09-03T07:57:51Z</time>
      </trkpt>
      <trkpt lat="45.17125" lon="-0.54199">
        <ele>35.9</ele>
        <time>2020-09-03T07:57:53Z</time>
      </trkpt>
      <trkpt lat="45.17125" lon="-0.54197">
        <ele>36</ele>
        <time>2020-09-03T07:57:54Z</time>
      </trkpt>
      <trkpt lat="45.17123" lon="-0.54193">
        <ele>36</ele>
        <time>2020-09-03T07:57:56Z</time>
      </trkpt>
      <trkpt lat="45.17123" lon="-0.54193">
        <ele>36</ele>
        <time>2020-09-03T07:57:57Z</time>
      </trkpt>
      <trkpt lat="45.17122" lon="-0.54192">
        <ele>36</ele>
        <time>2020-09-03T07:57:58Z</time>
      </trkpt>
      <trkpt lat="45.17121" lon="-0.5419">
        <ele>36</ele>
        <time>2020-09-03T07:57:59Z</time>
      </trkpt>
      <trkpt lat="45.1712" lon="-0.54188">
        <ele>36</ele>
        <time>2020-09-03T07:58:01Z</time>
      </trkpt>
      <trkpt lat="45.17119" lon="-0.54186">
        <ele>36.1</ele>
        <time>2020-09-03T07:58:02Z</time>
      </trkpt>
      <trkpt lat="45.17118" lon="-0.54185">
        <ele>36.1</ele>
        <time>2020-09-03T07:58:03Z</time>
      </trkpt>
      <trkpt lat="45.17117" lon="-0.54184">
        <ele>36.1</ele>
        <time>2020-09-03T07:58:04Z</time>
      </trkpt>
      <trkpt lat="45.17116" lon="-0.54181">
        <ele>36.1</ele>
        <time>2020-09-03T07:58:05Z</time>
      </trkpt>
      <trkpt lat="45.17115" lon="-0.5418">
        <ele>36.1</ele>
        <time>2020-09-03T07:58:06Z</time>
      </trkpt>
      <trkpt lat="45.17114" lon="-0.54179">
        <ele>36.1</ele>
        <time>2020-09-03T07:58:07Z</time>
      </trkpt>
      <trkpt lat="45.17113" lon="-0.54176">
        <ele>36.2</ele>
        <time>2020-09-03T07:58:09Z</time>
      </trkpt>
      <trkpt lat="45.17111" lon="-0.54175">
        <ele>36.2</ele>
        <time>2020-09-03T07:58:10Z</time>
      </trkpt>
      <trkpt lat="45.17111" lon="-0.54174">
        <ele>36.2</ele>
        <time>2020-09-03T07:58:11Z</time>
      </trkpt>
      <trkpt lat="45.1711" lon="-0.54172">
        <ele>36.2</ele>
        <time>2020-09-03T07:58:12Z</time>
      </trkpt>
      <trkpt lat="45.17109" lon="-0.54171">
        <ele>36.2</ele>
        <time>2020-09-03T07:58:13Z</time>
      </trkpt>
      <trkpt lat="45.17108" lon="-0.54169">
        <ele>36.2</ele>
        <time>2020-09-03T07:58:14Z</time>
      </trkpt>
      <trkpt lat="45.17107" lon="-0.54167">
        <ele>36.3</ele>
        <time>2020-09-03T07:58:15Z</time>
      </trkpt>
      <trkpt lat="45.17106" lon="-0.54166">
        <ele>36.3</ele>
        <time>2020-09-03T07:58:16Z</time>
      </trkpt>
      <trkpt lat="45.17106" lon="-0.54165">
        <ele>36.3</ele>
        <time>2020-09-03T07:58:17Z</time>
      </trkpt>
      <trkpt lat="45.17103" lon="-0.54161">
        <ele>36.3</ele>
        <time>2020-09-03T07:58:20Z</time>
      </trkpt>
      <trkpt lat="45.17103" lon="-0.54159">
        <ele>36.3</ele>
        <time>2020-09-03T07:58:21Z</time>
      </trkpt>
      <trkpt lat="45.17101" lon="-0.54158">
        <ele>36.4</ele>
        <time>2020-09-03T07:58:23Z</time>
      </trkpt>
      <trkpt lat="45.171" lon="-0.54157">
        <ele>36.4</ele>
        <time>2020-09-03T07:58:24Z</time>
      </trkpt>
      <trkpt lat="45.17099" lon="-0.54156">
        <ele>36.4</ele>
        <time>2020-09-03T07:58:25Z</time>
      </trkpt>
      <trkpt lat="45.17098" lon="-0.54154">
        <ele>36.4</ele>
        <time>2020-09-03T07:58:26Z</time>
      </trkpt>
      <trkpt lat="45.17097" lon="-0.54151">
        <ele>36.4</ele>
        <time>2020-09-03T07:58:28Z</time>
      </trkpt>
      <trkpt lat="45.17096" lon="-0.5415">
        <ele>36.4</ele>
        <time>2020-09-03T07:58:29Z</time>
      </trkpt>
      <trkpt lat="45.17095" lon="-0.54148">
        <ele>36.5</ele>
        <time>2020-09-03T07:58:30Z</time>
      </trkpt>
      <trkpt lat="45.17095" lon="-0.54147">
        <ele>36.5</ele>
        <time>2020-09-03T07:58:31Z</time>
      </trkpt>
      <trkpt lat="45.17094" lon="-0.54146">
        <ele>36.5</ele>
        <time>2020-09-03T07:58:32Z</time>
      </trkpt>
      <trkpt lat="45.17094" lon="-0.54144">
        <ele>36.5</ele>
        <time>2020-09-03T07:58:33Z</time>
      </trkpt>
      <trkpt lat="45.17093" lon="-0.54142">
        <ele>36.5</ele>
        <time>2020-09-03T07:58:35Z</time>
      </trkpt>
      <trkpt lat="45.17092" lon="-0.5414">
        <ele>36.5</ele>
        <time>2020-09-03T07:58:36Z</time>
      </trkpt>
      <trkpt lat="45.17092" lon="-0.54139">
        <ele>36.5</ele>
        <time>2020-09-03T07:58:37Z</time>
      </trkpt>
      <trkpt lat="45.17091" lon="-0.54137">
        <ele>36.5</ele>
        <time>2020-09-03T07:58:38Z</time>
      </trkpt>
      <trkpt lat="45.1709" lon="-0.54135">
        <ele>36.5</ele>
        <time>2020-09-03T07:58:39Z</time>
      </trkpt>
      <trkpt lat="45.17089" lon="-0.54133">
        <ele>36.5</ele>
        <time>2020-09-03T07:58:40Z</time>
      </trkpt>
      <trkpt lat="45.17089" lon="-0.54132">
        <ele>36.5</ele>
        <time>2020-09-03T07:58:42Z</time>
      </trkpt>
      <trkpt lat="45.17087" lon="-0.54131">
        <ele>36.5</ele>
        <time>2020-09-03T07:58:43Z</time>
      </trkpt>
      <trkpt lat="45.17086" lon="-0.54129">
        <ele>36.5</ele>
        <time>2020-09-03T07:58:44Z</time>
      </trkpt>
      <trkpt lat="45.17084" lon="-0.54129">
        <ele>36.5</ele>
        <time>2020-09-03T07:58:45Z</time>
      </trkpt>
      <trkpt lat="45.17082" lon="-0.54127">
        <ele>36.5</ele>
        <time>2020-09-03T07:58:47Z</time>
      </trkpt>
      <trkpt lat="45.17081" lon="-0.54125">
        <ele>36.5</ele>
        <time>2020-09-03T07:58:49Z</time>
      </trkpt>
      <trkpt lat="45.17079" lon="-0.54123">
        <ele>36.5</ele>
        <time>2020-09-03T07:58:50Z</time>
      </trkpt>
      <trkpt lat="45.17078" lon="-0.54122">
        <ele>36.5</ele>
        <time>2020-09-03T07:58:51Z</time>
      </trkpt>
      <trkpt lat="45.17076" lon="-0.54119">
        <ele>36.5</ele>
        <time>2020-09-03T07:58:53Z</time>
      </trkpt>
      <trkpt lat="45.17075" lon="-0.54118">
        <ele>36.5</ele>
        <time>2020-09-03T07:58:54Z</time>
      </trkpt>
      <trkpt lat="45.17074" lon="-0.54117">
        <ele>36.5</ele>
        <time>2020-09-03T07:58:55Z</time>
      </trkpt>
      <trkpt lat="45.17072" lon="-0.54114">
        <ele>36.4</ele>
        <time>2020-09-03T07:58:56Z</time>
      </trkpt>
      <trkpt lat="45.17072" lon="-0.54112">
        <ele>36.4</ele>
        <time>2020-09-03T07:58:58Z</time>
      </trkpt>
      <trkpt lat="45.17071" lon="-0.54111">
        <ele>36.4</ele>
        <time>2020-09-03T07:58:59Z</time>
      </trkpt>
      <trkpt lat="45.1707" lon="-0.54109">
        <ele>36.4</ele>
        <time>2020-09-03T07:59:00Z</time>
      </trkpt>
      <trkpt lat="45.17069" lon="-0.54108">
        <ele>36.4</ele>
        <time>2020-09-03T07:59:01Z</time>
      </trkpt>
      <trkpt lat="45.17068" lon="-0.54107">
        <ele>36.4</ele>
        <time>2020-09-03T07:59:02Z</time>
      </trkpt>
      <trkpt lat="45.17067" lon="-0.54104">
        <ele>36.4</ele>
        <time>2020-09-03T07:59:04Z</time>
      </trkpt>
      <trkpt lat="45.17066" lon="-0.54102">
        <ele>36.4</ele>
        <time>2020-09-03T07:59:06Z</time>
      </trkpt>
      <trkpt lat="45.17064" lon="-0.541">
        <ele>36.4</ele>
        <time>2020-09-03T07:59:08Z</time>
      </trkpt>
      <trkpt lat="45.17063" lon="-0.54099">
        <ele>36.4</ele>
        <time>2020-09-03T07:59:09Z</time>
      </trkpt>
      <trkpt lat="45.17061" lon="-0.54096">
        <ele>36.4</ele>
        <time>2020-09-03T07:59:11Z</time>
      </trkpt>
      <trkpt lat="45.17061" lon="-0.54095">
        <ele>36.4</ele>
        <time>2020-09-03T07:59:12Z</time>
      </trkpt>
      <trkpt lat="45.1706" lon="-0.54093">
        <ele>36.4</ele>
        <time>2020-09-03T07:59:13Z</time>
      </trkpt>
      <trkpt lat="45.17059" lon="-0.54092">
        <ele>36.4</ele>
        <time>2020-09-03T07:59:14Z</time>
      </trkpt>
      <trkpt lat="45.17057" lon="-0.54089">
        <ele>36.4</ele>
        <time>2020-09-03T07:59:16Z</time>
      </trkpt>
      <trkpt lat="45.17056" lon="-0.54088">
        <ele>36.4</ele>
        <time>2020-09-03T07:59:17Z</time>
      </trkpt>
      <trkpt lat="45.17055" lon="-0.54087">
        <ele>36.4</ele>
        <time>2020-09-03T07:59:18Z</time>
      </trkpt>
      <trkpt lat="45.17054" lon="-0.54085">
        <ele>36.4</ele>
        <time>2020-09-03T07:59:20Z</time>
      </trkpt>
      <trkpt lat="45.17053" lon="-0.54084">
        <ele>36.4</ele>
        <time>2020-09-03T07:59:21Z</time>
      </trkpt>
      <trkpt lat="45.17053" lon="-0.54083">
        <ele>36.4</ele>
        <time>2020-09-03T07:59:22Z</time>
      </trkpt>
      <trkpt lat="45.17051" lon="-0.5408">
        <ele>36.4</ele>
        <time>2020-09-03T07:59:24Z</time>
      </trkpt>
      <trkpt lat="45.1705" lon="-0.54079">
        <ele>36.4</ele>
        <time>2020-09-03T07:59:25Z</time>
      </trkpt>
      <trkpt lat="45.1705" lon="-0.54078">
        <ele>36.4</ele>
        <time>2020-09-03T07:59:26Z</time>
      </trkpt>
      <trkpt lat="45.17049" lon="-0.54078">
        <ele>36.4</ele>
        <time>2020-09-03T07:59:27Z</time>
      </trkpt>
      <trkpt lat="45.17049" lon="-0.54077">
        <ele>36.4</ele>
        <time>2020-09-03T07:59:28Z</time>
      </trkpt>
      <trkpt lat="45.17048" lon="-0.54075">
        <ele>36.4</ele>
        <time>2020-09-03T07:59:29Z</time>
      </trkpt>
      <trkpt lat="45.17046" lon="-0.54073">
        <ele>36.4</ele>
        <time>2020-09-03T07:59:31Z</time>
      </trkpt>
      <trkpt lat="45.17045" lon="-0.54072">
        <ele>36.4</ele>
        <time>2020-09-03T07:59:32Z</time>
      </trkpt>
      <trkpt lat="45.17044" lon="-0.5407">
        <ele>36.4</ele>
        <time>2020-09-03T07:59:33Z</time>
      </trkpt>
      <trkpt lat="45.17041" lon="-0.54066">
        <ele>36.3</ele>
        <time>2020-09-03T07:59:35Z</time>
      </trkpt>
      <trkpt lat="45.17041" lon="-0.54065">
        <ele>36.3</ele>
        <time>2020-09-03T07:59:36Z</time>
      </trkpt>
      <trkpt lat="45.17039" lon="-0.54062">
        <ele>36.3</ele>
        <time>2020-09-03T07:59:37Z</time>
      </trkpt>
      <trkpt lat="45.17038" lon="-0.5406">
        <ele>36.3</ele>
        <time>2020-09-03T07:59:39Z</time>
      </trkpt>
      <trkpt lat="45.17037" lon="-0.54059">
        <ele>36.3</ele>
        <time>2020-09-03T07:59:40Z</time>
      </trkpt>
      <trkpt lat="45.17036" lon="-0.54057">
        <ele>36.3</ele>
        <time>2020-09-03T07:59:41Z</time>
      </trkpt>
      <trkpt lat="45.17035" lon="-0.54055">
        <ele>36.3</ele>
        <time>2020-09-03T07:59:43Z</time>
      </trkpt>
      <trkpt lat="45.17034" lon="-0.54053">
        <ele>36.3</ele>
        <time>2020-09-03T07:59:44Z</time>
      </trkpt>
      <trkpt lat="45.17031" lon="-0.54048">
        <ele>36.3</ele>
        <time>2020-09-03T07:59:46Z</time>
      </trkpt>
      <trkpt lat="45.1703" lon="-0.54047">
        <ele>36.3</ele>
        <time>2020-09-03T07:59:48Z</time>
      </trkpt>
      <trkpt lat="45.17029" lon="-0.54045">
        <ele>36.3</ele>
        <time>2020-09-03T07:59:49Z</time>
      </trkpt>
      <trkpt lat="45.17027" lon="-0.54042">
        <ele>36.3</ele>
        <time>2020-09-03T07:59:50Z</time>
      </trkpt>
      <trkpt lat="45.17027" lon="-0.54041">
        <ele>36.3</ele>
        <time>2020-09-03T07:59:52Z</time>
      </trkpt>
      <trkpt lat="45.17026" lon="-0.5404">
        <ele>36.3</ele>
        <time>2020-09-03T07:59:53Z</time>
      </trkpt>
      <trkpt lat="45.17024" lon="-0.54037">
        <ele>36.3</ele>
        <time>2020-09-03T07:59:54Z</time>
      </trkpt>
      <trkpt lat="45.17022" lon="-0.54034">
        <ele>36.3</ele>
        <time>2020-09-03T07:59:55Z</time>
      </trkpt>
      <trkpt lat="45.17022" lon="-0.54032">
        <ele>36.3</ele>
        <time>2020-09-03T07:59:57Z</time>
      </trkpt>
      <trkpt lat="45.17021" lon="-0.54031">
        <ele>36.3</ele>
        <time>2020-09-03T07:59:58Z</time>
      </trkpt>
      <trkpt lat="45.1702" lon="-0.5403">
        <ele>36.3</ele>
        <time>2020-09-03T07:59:59Z</time>
      </trkpt>
      <trkpt lat="45.1702" lon="-0.54029">
        <ele>36.3</ele>
        <time>2020-09-03T08:00:00Z</time>
      </trkpt>
      <trkpt lat="45.17018" lon="-0.54026">
        <ele>36.3</ele>
        <time>2020-09-03T08:00:02Z</time>
      </trkpt>
      <trkpt lat="45.17017" lon="-0.54026">
        <ele>36.3</ele>
        <time>2020-09-03T08:00:03Z</time>
      </trkpt>
      <trkpt lat="45.17016" lon="-0.54025">
        <ele>36.3</ele>
        <time>2020-09-03T08:00:04Z</time>
      </trkpt>
      <trkpt lat="45.17015" lon="-0.54023">
        <ele>36.3</ele>
        <time>2020-09-03T08:00:05Z</time>
      </trkpt>
      <trkpt lat="45.17013" lon="-0.54022">
        <ele>36.2</ele>
        <time>2020-09-03T08:00:06Z</time>
      </trkpt>
      <trkpt lat="45.17013" lon="-0.5402">
        <ele>36.2</ele>
        <time>2020-09-03T08:00:07Z</time>
      </trkpt>
      <trkpt lat="45.17011" lon="-0.54017">
        <ele>36.2</ele>
        <time>2020-09-03T08:00:09Z</time>
      </trkpt>
      <trkpt lat="45.1701" lon="-0.54016">
        <ele>36.2</ele>
        <time>2020-09-03T08:00:10Z</time>
      </trkpt>
      <trkpt lat="45.17009" lon="-0.54014">
        <ele>36.2</ele>
        <time>2020-09-03T08:00:11Z</time>
      </trkpt>
      <trkpt lat="45.17008" lon="-0.54013">
        <ele>36.2</ele>
        <time>2020-09-03T08:00:13Z</time>
      </trkpt>
      <trkpt lat="45.17008" lon="-0.54011">
        <ele>36.2</ele>
        <time>2020-09-03T08:00:14Z</time>
      </trkpt>
      <trkpt lat="45.17007" lon="-0.5401">
        <ele>36.2</ele>
        <time>2020-09-03T08:00:15Z</time>
      </trkpt>
      <trkpt lat="45.17006" lon="-0.54008">
        <ele>36.2</ele>
        <time>2020-09-03T08:00:16Z</time>
      </trkpt>
      <trkpt lat="45.17004" lon="-0.54006">
        <ele>36.2</ele>
        <time>2020-09-03T08:00:18Z</time>
      </trkpt>
      <trkpt lat="45.17004" lon="-0.54005">
        <ele>36.2</ele>
        <time>2020-09-03T08:00:19Z</time>
      </trkpt>
      <trkpt lat="45.17003" lon="-0.54004">
        <ele>36.2</ele>
        <time>2020-09-03T08:00:20Z</time>
      </trkpt>
      <trkpt lat="45.17002" lon="-0.54002">
        <ele>36.2</ele>
        <time>2020-09-03T08:00:21Z</time>
      </trkpt>
      <trkpt lat="45.17001" lon="-0.54001">
        <ele>36.2</ele>
        <time>2020-09-03T08:00:23Z</time>
      </trkpt>
      <trkpt lat="45.17" lon="-0.54">
        <ele>36.2</ele>
        <time>2020-09-03T08:00:24Z</time>
      </trkpt>
      <trkpt lat="45.16999" lon="-0.53998">
        <ele>36.2</ele>
        <time>2020-09-03T08:00:25Z</time>
      </trkpt>
      <trkpt lat="45.16998" lon="-0.53997">
        <ele>36.2</ele>
        <time>2020-09-03T08:00:27Z</time>
      </trkpt>
      <trkpt lat="45.16997" lon="-0.53995">
        <ele>36.2</ele>
        <time>2020-09-03T08:00:28Z</time>
      </trkpt>
      <trkpt lat="45.16996" lon="-0.53993">
        <ele>36.2</ele>
        <time>2020-09-03T08:00:29Z</time>
      </trkpt>
      <trkpt lat="45.16994" lon="-0.53991">
        <ele>36.2</ele>
        <time>2020-09-03T08:00:31Z</time>
      </trkpt>
      <trkpt lat="45.16992" lon="-0.53989">
        <ele>36.2</ele>
        <time>2020-09-03T08:00:33Z</time>
      </trkpt>
      <trkpt lat="45.1699" lon="-0.53988">
        <ele>36.2</ele>
        <time>2020-09-03T08:00:34Z</time>
      </trkpt>
      <trkpt lat="45.16989" lon="-0.53984">
        <ele>36.2</ele>
        <time>2020-09-03T08:00:36Z</time>
      </trkpt>
      <trkpt lat="45.16988" lon="-0.53983">
        <ele>36.2</ele>
        <time>2020-09-03T08:00:37Z</time>
      </trkpt>
      <trkpt lat="45.16987" lon="-0.53982">
        <ele>36.2</ele>
        <time>2020-09-03T08:00:38Z</time>
      </trkpt>
      <trkpt lat="45.16986" lon="-0.53981">
        <ele>36.2</ele>
        <time>2020-09-03T08:00:40Z</time>
      </trkpt>
      <trkpt lat="45.16984" lon="-0.53979">
        <ele>36.2</ele>
        <time>2020-09-03T08:00:41Z</time>
      </trkpt>
      <trkpt lat="45.16984" lon="-0.53977">
        <ele>36.2</ele>
        <time>2020-09-03T08:00:42Z</time>
      </trkpt>
      <trkpt lat="45.16982" lon="-0.53975">
        <ele>36.1</ele>
        <time>2020-09-03T08:00:43Z</time>
      </trkpt>
      <trkpt lat="45.16982" lon="-0.53974">
        <ele>36.1</ele>
        <time>2020-09-03T08:00:44Z</time>
      </trkpt>
      <trkpt lat="45.16981" lon="-0.53973">
        <ele>36.1</ele>
        <time>2020-09-03T08:00:45Z</time>
      </trkpt>
      <trkpt lat="45.16979" lon="-0.53972">
        <ele>36.1</ele>
        <time>2020-09-03T08:00:47Z</time>
      </trkpt>
      <trkpt lat="45.16978" lon="-0.53971">
        <ele>36.1</ele>
        <time>2020-09-03T08:00:48Z</time>
      </trkpt>
      <trkpt lat="45.16977" lon="-0.53969">
        <ele>36.1</ele>
        <time>2020-09-03T08:00:49Z</time>
      </trkpt>
      <trkpt lat="45.16976" lon="-0.53967">
        <ele>36.1</ele>
        <time>2020-09-03T08:00:50Z</time>
      </trkpt>
      <trkpt lat="45.16975" lon="-0.53966">
        <ele>36.1</ele>
        <time>2020-09-03T08:00:51Z</time>
      </trkpt>
      <trkpt lat="45.16974" lon="-0.53965">
        <ele>36.1</ele>
        <time>2020-09-03T08:00:52Z</time>
      </trkpt>
      <trkpt lat="45.16973" lon="-0.53964">
        <ele>36.1</ele>
        <time>2020-09-03T08:00:53Z</time>
      </trkpt>
      <trkpt lat="45.16973" lon="-0.53963">
        <ele>36.1</ele>
        <time>2020-09-03T08:00:54Z</time>
      </trkpt>
      <trkpt lat="45.16971" lon="-0.53961">
        <ele>36.1</ele>
        <time>2020-09-03T08:00:56Z</time>
      </trkpt>
      <trkpt lat="45.1697" lon="-0.53958">
        <ele>36.1</ele>
        <time>2020-09-03T08:00:57Z</time>
      </trkpt>
      <trkpt lat="45.16969" lon="-0.53957">
        <ele>36.2</ele>
        <time>2020-09-03T08:00:58Z</time>
      </trkpt>
      <trkpt lat="45.16969" lon="-0.53956">
        <ele>36.2</ele>
        <time>2020-09-03T08:00:59Z</time>
      </trkpt>
      <trkpt lat="45.16968" lon="-0.53954">
        <ele>36.3</ele>
        <time>2020-09-03T08:01:01Z</time>
      </trkpt>
      <trkpt lat="45.16966" lon="-0.53952">
        <ele>36.3</ele>
        <time>2020-09-03T08:01:02Z</time>
      </trkpt>
      <trkpt lat="45.16966" lon="-0.5395">
        <ele>36.3</ele>
        <time>2020-09-03T08:01:04Z</time>
      </trkpt>
      <trkpt lat="45.16965" lon="-0.53949">
        <ele>36.4</ele>
        <time>2020-09-03T08:01:05Z</time>
      </trkpt>
      <trkpt lat="45.16964" lon="-0.53947">
        <ele>36.4</ele>
        <time>2020-09-03T08:01:06Z</time>
      </trkpt>
      <trkpt lat="45.16963" lon="-0.53946">
        <ele>36.5</ele>
        <time>2020-09-03T08:01:08Z</time>
      </trkpt>
      <trkpt lat="45.16962" lon="-0.53945">
        <ele>36.5</ele>
        <time>2020-09-03T08:01:09Z</time>
      </trkpt>
      <trkpt lat="45.16962" lon="-0.53943">
        <ele>36.5</ele>
        <time>2020-09-03T08:01:10Z</time>
      </trkpt>
      <trkpt lat="45.1696" lon="-0.5394">
        <ele>36.6</ele>
        <time>2020-09-03T08:01:12Z</time>
      </trkpt>
      <trkpt lat="45.16959" lon="-0.53938">
        <ele>36.6</ele>
        <time>2020-09-03T08:01:13Z</time>
      </trkpt>
      <trkpt lat="45.16958" lon="-0.53937">
        <ele>36.7</ele>
        <time>2020-09-03T08:01:14Z</time>
      </trkpt>
      <trkpt lat="45.16956" lon="-0.53933">
        <ele>36.8</ele>
        <time>2020-09-03T08:01:16Z</time>
      </trkpt>
      <trkpt lat="45.16955" lon="-0.53932">
        <ele>36.8</ele>
        <time>2020-09-03T08:01:17Z</time>
      </trkpt>
      <trkpt lat="45.16954" lon="-0.53931">
        <ele>36.9</ele>
        <time>2020-09-03T08:01:18Z</time>
      </trkpt>
      <trkpt lat="45.16953" lon="-0.53929">
        <ele>36.9</ele>
        <time>2020-09-03T08:01:19Z</time>
      </trkpt>
      <trkpt lat="45.16951" lon="-0.53926">
        <ele>37</ele>
        <time>2020-09-03T08:01:21Z</time>
      </trkpt>
      <trkpt lat="45.1695" lon="-0.53925">
        <ele>37</ele>
        <time>2020-09-03T08:01:22Z</time>
      </trkpt>
      <trkpt lat="45.16949" lon="-0.53924">
        <ele>37.1</ele>
        <time>2020-09-03T08:01:23Z</time>
      </trkpt>
      <trkpt lat="45.16948" lon="-0.53922">
        <ele>37.1</ele>
        <time>2020-09-03T08:01:25Z</time>
      </trkpt>
      <trkpt lat="45.16946" lon="-0.5392">
        <ele>37.2</ele>
        <time>2020-09-03T08:01:26Z</time>
      </trkpt>
      <trkpt lat="45.16946" lon="-0.53918">
        <ele>37.2</ele>
        <time>2020-09-03T08:01:27Z</time>
      </trkpt>
      <trkpt lat="45.16945" lon="-0.53917">
        <ele>37.2</ele>
        <time>2020-09-03T08:01:28Z</time>
      </trkpt>
      <trkpt lat="45.16944" lon="-0.53915">
        <ele>37.3</ele>
        <time>2020-09-03T08:01:29Z</time>
      </trkpt>
      <trkpt lat="45.16942" lon="-0.53913">
        <ele>37.3</ele>
        <time>2020-09-03T08:01:31Z</time>
      </trkpt>
      <trkpt lat="45.16942" lon="-0.53911">
        <ele>37.4</ele>
        <time>2020-09-03T08:01:32Z</time>
      </trkpt>
      <trkpt lat="45.16941" lon="-0.5391">
        <ele>37.4</ele>
        <time>2020-09-03T08:01:33Z</time>
      </trkpt>
      <trkpt lat="45.1694" lon="-0.53908">
        <ele>37.5</ele>
        <time>2020-09-03T08:01:34Z</time>
      </trkpt>
      <trkpt lat="45.16939" lon="-0.53905">
        <ele>37.5</ele>
        <time>2020-09-03T08:01:35Z</time>
      </trkpt>
      <trkpt lat="45.16938" lon="-0.53904">
        <ele>37.6</ele>
        <time>2020-09-03T08:01:36Z</time>
      </trkpt>
      <trkpt lat="45.16937" lon="-0.53903">
        <ele>37.6</ele>
        <time>2020-09-03T08:01:37Z</time>
      </trkpt>
      <trkpt lat="45.16936" lon="-0.53902">
        <ele>37.6</ele>
        <time>2020-09-03T08:01:38Z</time>
      </trkpt>
      <trkpt lat="45.16935" lon="-0.53901">
        <ele>37.7</ele>
        <time>2020-09-03T08:01:39Z</time>
      </trkpt>
      <trkpt lat="45.16934" lon="-0.53898">
        <ele>37.7</ele>
        <time>2020-09-03T08:01:41Z</time>
      </trkpt>
      <trkpt lat="45.16933" lon="-0.53897">
        <ele>37.8</ele>
        <time>2020-09-03T08:01:42Z</time>
      </trkpt>
      <trkpt lat="45.16932" lon="-0.53896">
        <ele>37.8</ele>
        <time>2020-09-03T08:01:43Z</time>
      </trkpt>
      <trkpt lat="45.16931" lon="-0.53893">
        <ele>37.9</ele>
        <time>2020-09-03T08:01:45Z</time>
      </trkpt>
      <trkpt lat="45.16929" lon="-0.5389">
        <ele>37.9</ele>
        <time>2020-09-03T08:01:46Z</time>
      </trkpt>
      <trkpt lat="45.16929" lon="-0.53889">
        <ele>38</ele>
        <time>2020-09-03T08:01:47Z</time>
      </trkpt>
      <trkpt lat="45.16928" lon="-0.53888">
        <ele>38</ele>
        <time>2020-09-03T08:01:49Z</time>
      </trkpt>
      <trkpt lat="45.16927" lon="-0.53886">
        <ele>38</ele>
        <time>2020-09-03T08:01:50Z</time>
      </trkpt>
      <trkpt lat="45.16925" lon="-0.53883">
        <ele>38.1</ele>
        <time>2020-09-03T08:01:52Z</time>
      </trkpt>
      <trkpt lat="45.16925" lon="-0.53882">
        <ele>38.1</ele>
        <time>2020-09-03T08:01:54Z</time>
      </trkpt>
      <trkpt lat="45.16924" lon="-0.53881">
        <ele>38.2</ele>
        <time>2020-09-03T08:01:55Z</time>
      </trkpt>
      <trkpt lat="45.16924" lon="-0.53879">
        <ele>38.2</ele>
        <time>2020-09-03T08:01:56Z</time>
      </trkpt>
      <trkpt lat="45.16923" lon="-0.53878">
        <ele>38.2</ele>
        <time>2020-09-03T08:01:57Z</time>
      </trkpt>
      <trkpt lat="45.16922" lon="-0.53875">
        <ele>38.3</ele>
        <time>2020-09-03T08:01:59Z</time>
      </trkpt>
      <trkpt lat="45.16921" lon="-0.53874">
        <ele>38.3</ele>
        <time>2020-09-03T08:02:00Z</time>
      </trkpt>
      <trkpt lat="45.16921" lon="-0.53872">
        <ele>38.4</ele>
        <time>2020-09-03T08:02:01Z</time>
      </trkpt>
      <trkpt lat="45.1692" lon="-0.53871">
        <ele>38.4</ele>
        <time>2020-09-03T08:02:02Z</time>
      </trkpt>
      <trkpt lat="45.16919" lon="-0.53869">
        <ele>38.4</ele>
        <time>2020-09-03T08:02:03Z</time>
      </trkpt>
      <trkpt lat="45.16918" lon="-0.53868">
        <ele>38.5</ele>
        <time>2020-09-03T08:02:04Z</time>
      </trkpt>
      <trkpt lat="45.16917" lon="-0.53865">
        <ele>38.5</ele>
        <time>2020-09-03T08:02:06Z</time>
      </trkpt>
      <trkpt lat="45.16917" lon="-0.53864">
        <ele>38.6</ele>
        <time>2020-09-03T08:02:07Z</time>
      </trkpt>
      <trkpt lat="45.16916" lon="-0.53862">
        <ele>38.6</ele>
        <time>2020-09-03T08:02:08Z</time>
      </trkpt>
      <trkpt lat="45.16914" lon="-0.53858">
        <ele>38.7</ele>
        <time>2020-09-03T08:02:10Z</time>
      </trkpt>
      <trkpt lat="45.16913" lon="-0.53856">
        <ele>38.7</ele>
        <time>2020-09-03T08:02:11Z</time>
      </trkpt>
      <trkpt lat="45.16912" lon="-0.53854">
        <ele>38.8</ele>
        <time>2020-09-03T08:02:12Z</time>
      </trkpt>
      <trkpt lat="45.16911" lon="-0.53852">
        <ele>38.8</ele>
        <time>2020-09-03T08:02:14Z</time>
      </trkpt>
      <trkpt lat="45.1691" lon="-0.5385">
        <ele>38.9</ele>
        <time>2020-09-03T08:02:15Z</time>
      </trkpt>
      <trkpt lat="45.1691" lon="-0.53848">
        <ele>38.9</ele>
        <time>2020-09-03T08:02:16Z</time>
      </trkpt>
      <trkpt lat="45.16909" lon="-0.53846">
        <ele>39</ele>
        <time>2020-09-03T08:02:17Z</time>
      </trkpt>
      <trkpt lat="45.16908" lon="-0.53844">
        <ele>39</ele>
        <time>2020-09-03T08:02:19Z</time>
      </trkpt>
      <trkpt lat="45.16908" lon="-0.53842">
        <ele>39.1</ele>
        <time>2020-09-03T08:02:20Z</time>
      </trkpt>
      <trkpt lat="45.16906" lon="-0.53838">
        <ele>39.1</ele>
        <time>2020-09-03T08:02:22Z</time>
      </trkpt>
      <trkpt lat="45.16906" lon="-0.53836">
        <ele>39.2</ele>
        <time>2020-09-03T08:02:23Z</time>
      </trkpt>
      <trkpt lat="45.16905" lon="-0.53833">
        <ele>39.3</ele>
        <time>2020-09-03T08:02:25Z</time>
      </trkpt>
      <trkpt lat="45.16904" lon="-0.5383">
        <ele>39.3</ele>
        <time>2020-09-03T08:02:26Z</time>
      </trkpt>
      <trkpt lat="45.16903" lon="-0.53828">
        <ele>39.4</ele>
        <time>2020-09-03T08:02:27Z</time>
      </trkpt>
      <trkpt lat="45.16903" lon="-0.53826">
        <ele>39.4</ele>
        <time>2020-09-03T08:02:29Z</time>
      </trkpt>
      <trkpt lat="45.16902" lon="-0.53824">
        <ele>39.5</ele>
        <time>2020-09-03T08:02:30Z</time>
      </trkpt>
      <trkpt lat="45.169" lon="-0.53822">
        <ele>39.5</ele>
        <time>2020-09-03T08:02:31Z</time>
      </trkpt>
      <trkpt lat="45.16899" lon="-0.53819">
        <ele>39.6</ele>
        <time>2020-09-03T08:02:33Z</time>
      </trkpt>
      <trkpt lat="45.16899" lon="-0.53818">
        <ele>39.6</ele>
        <time>2020-09-03T08:02:34Z</time>
      </trkpt>
      <trkpt lat="45.16897" lon="-0.53816">
        <ele>39.7</ele>
        <time>2020-09-03T08:02:35Z</time>
      </trkpt>
      <trkpt lat="45.16896" lon="-0.53813">
        <ele>39.7</ele>
        <time>2020-09-03T08:02:37Z</time>
      </trkpt>
      <trkpt lat="45.16896" lon="-0.53812">
        <ele>39.8</ele>
        <time>2020-09-03T08:02:38Z</time>
      </trkpt>
      <trkpt lat="45.16894" lon="-0.53809">
        <ele>39.8</ele>
        <time>2020-09-03T08:02:39Z</time>
      </trkpt>
      <trkpt lat="45.16893" lon="-0.53808">
        <ele>39.9</ele>
        <time>2020-09-03T08:02:40Z</time>
      </trkpt>
      <trkpt lat="45.16892" lon="-0.53806">
        <ele>39.9</ele>
        <time>2020-09-03T08:02:41Z</time>
      </trkpt>
      <trkpt lat="45.16892" lon="-0.53806">
        <ele>39.9</ele>
        <time>2020-09-03T08:02:42Z</time>
      </trkpt>
      <trkpt lat="45.16891" lon="-0.53805">
        <ele>39.9</ele>
        <time>2020-09-03T08:02:43Z</time>
      </trkpt>
      <trkpt lat="45.1689" lon="-0.53802">
        <ele>40</ele>
        <time>2020-09-03T08:02:45Z</time>
      </trkpt>
      <trkpt lat="45.16889" lon="-0.538">
        <ele>40</ele>
        <time>2020-09-03T08:02:47Z</time>
      </trkpt>
      <trkpt lat="45.16888" lon="-0.53798">
        <ele>40.1</ele>
        <time>2020-09-03T08:02:48Z</time>
      </trkpt>
      <trkpt lat="45.16888" lon="-0.53797">
        <ele>40.1</ele>
        <time>2020-09-03T08:02:49Z</time>
      </trkpt>
      <trkpt lat="45.16887" lon="-0.53795">
        <ele>40.2</ele>
        <time>2020-09-03T08:02:50Z</time>
      </trkpt>
      <trkpt lat="45.16886" lon="-0.53792">
        <ele>40.2</ele>
        <time>2020-09-03T08:02:51Z</time>
      </trkpt>
      <trkpt lat="45.16885" lon="-0.53791">
        <ele>40.3</ele>
        <time>2020-09-03T08:02:53Z</time>
      </trkpt>
      <trkpt lat="45.16885" lon="-0.5379">
        <ele>40.3</ele>
        <time>2020-09-03T08:02:54Z</time>
      </trkpt>
      <trkpt lat="45.16884" lon="-0.53789">
        <ele>40.3</ele>
        <time>2020-09-03T08:02:55Z</time>
      </trkpt>
      <trkpt lat="45.16883" lon="-0.53786">
        <ele>40.4</ele>
        <time>2020-09-03T08:02:57Z</time>
      </trkpt>
      <trkpt lat="45.16882" lon="-0.53785">
        <ele>40.4</ele>
        <time>2020-09-03T08:02:58Z</time>
      </trkpt>
      <trkpt lat="45.16881" lon="-0.53784">
        <ele>40.4</ele>
        <time>2020-09-03T08:02:59Z</time>
      </trkpt>
      <trkpt lat="45.16881" lon="-0.53782">
        <ele>40.5</ele>
        <time>2020-09-03T08:03:00Z</time>
      </trkpt>
      <trkpt lat="45.1688" lon="-0.53781">
        <ele>40.5</ele>
        <time>2020-09-03T08:03:01Z</time>
      </trkpt>
      <trkpt lat="45.16879" lon="-0.5378">
        <ele>40.5</ele>
        <time>2020-09-03T08:03:02Z</time>
      </trkpt>
      <trkpt lat="45.16879" lon="-0.53779">
        <ele>40.6</ele>
        <time>2020-09-03T08:03:03Z</time>
      </trkpt>
      <trkpt lat="45.16877" lon="-0.53775">
        <ele>40.7</ele>
        <time>2020-09-03T08:03:05Z</time>
      </trkpt>
      <trkpt lat="45.16877" lon="-0.53774">
        <ele>40.7</ele>
        <time>2020-09-03T08:03:06Z</time>
      </trkpt>
      <trkpt lat="45.16875" lon="-0.53771">
        <ele>40.8</ele>
        <time>2020-09-03T08:03:07Z</time>
      </trkpt>
      <trkpt lat="45.16874" lon="-0.53769">
        <ele>40.8</ele>
        <time>2020-09-03T08:03:09Z</time>
      </trkpt>
      <trkpt lat="45.16874" lon="-0.53767">
        <ele>40.8</ele>
        <time>2020-09-03T08:03:10Z</time>
      </trkpt>
      <trkpt lat="45.16873" lon="-0.53766">
        <ele>40.9</ele>
        <time>2020-09-03T08:03:11Z</time>
      </trkpt>
      <trkpt lat="45.16871" lon="-0.53762">
        <ele>41</ele>
        <time>2020-09-03T08:03:12Z</time>
      </trkpt>
      <trkpt lat="45.1687" lon="-0.53761">
        <ele>41</ele>
        <time>2020-09-03T08:03:14Z</time>
      </trkpt>
      <trkpt lat="45.1687" lon="-0.53759">
        <ele>41</ele>
        <time>2020-09-03T08:03:15Z</time>
      </trkpt>
      <trkpt lat="45.16869" lon="-0.53758">
        <ele>41.1</ele>
        <time>2020-09-03T08:03:16Z</time>
      </trkpt>
      <trkpt lat="45.16868" lon="-0.53755">
        <ele>41.1</ele>
        <time>2020-09-03T08:03:18Z</time>
      </trkpt>
      <trkpt lat="45.16867" lon="-0.53753">
        <ele>41.2</ele>
        <time>2020-09-03T08:03:19Z</time>
      </trkpt>
      <trkpt lat="45.16866" lon="-0.53752">
        <ele>41.2</ele>
        <time>2020-09-03T08:03:20Z</time>
      </trkpt>
      <trkpt lat="45.16865" lon="-0.53749">
        <ele>41.3</ele>
        <time>2020-09-03T08:03:22Z</time>
      </trkpt>
      <trkpt lat="45.16864" lon="-0.53747">
        <ele>41.3</ele>
        <time>2020-09-03T08:03:23Z</time>
      </trkpt>
      <trkpt lat="45.16863" lon="-0.53745">
        <ele>41.4</ele>
        <time>2020-09-03T08:03:24Z</time>
      </trkpt>
      <trkpt lat="45.16862" lon="-0.53743">
        <ele>41.4</ele>
        <time>2020-09-03T08:03:26Z</time>
      </trkpt>
      <trkpt lat="45.16862" lon="-0.53741">
        <ele>41.5</ele>
        <time>2020-09-03T08:03:27Z</time>
      </trkpt>
      <trkpt lat="45.16861" lon="-0.53739">
        <ele>41.5</ele>
        <time>2020-09-03T08:03:29Z</time>
      </trkpt>
      <trkpt lat="45.1686" lon="-0.53738">
        <ele>41.5</ele>
        <time>2020-09-03T08:03:30Z</time>
      </trkpt>
      <trkpt lat="45.16859" lon="-0.53736">
        <ele>41.6</ele>
        <time>2020-09-03T08:03:31Z</time>
      </trkpt>
      <trkpt lat="45.16858" lon="-0.53734">
        <ele>41.6</ele>
        <time>2020-09-03T08:03:32Z</time>
      </trkpt>
      <trkpt lat="45.16857" lon="-0.53732">
        <ele>41.7</ele>
        <time>2020-09-03T08:03:33Z</time>
      </trkpt>
      <trkpt lat="45.16856" lon="-0.5373">
        <ele>41.7</ele>
        <time>2020-09-03T08:03:35Z</time>
      </trkpt>
      <trkpt lat="45.16855" lon="-0.53727">
        <ele>41.8</ele>
        <time>2020-09-03T08:03:37Z</time>
      </trkpt>
      <trkpt lat="45.16854" lon="-0.53726">
        <ele>41.8</ele>
        <time>2020-09-03T08:03:39Z</time>
      </trkpt>
      <trkpt lat="45.16854" lon="-0.53725">
        <ele>41.8</ele>
        <time>2020-09-03T08:03:40Z</time>
      </trkpt>
      <trkpt lat="45.16854" lon="-0.53725">
        <ele>41.8</ele>
        <time>2020-09-03T08:03:41Z</time>
      </trkpt>
      <trkpt lat="45.16854" lon="-0.53724">
        <ele>41.9</ele>
        <time>2020-09-03T08:03:43Z</time>
      </trkpt>
      <trkpt lat="45.16854" lon="-0.53723">
        <ele>41.9</ele>
        <time>2020-09-03T08:03:45Z</time>
      </trkpt>
      <trkpt lat="45.16853" lon="-0.53723">
        <ele>41.9</ele>
        <time>2020-09-03T08:03:47Z</time>
      </trkpt>
      <trkpt lat="45.16853" lon="-0.53722">
        <ele>41.9</ele>
        <time>2020-09-03T08:03:49Z</time>
      </trkpt>
      <trkpt lat="45.16853" lon="-0.53721">
        <ele>41.9</ele>
        <time>2020-09-03T08:03:50Z</time>
      </trkpt>
      <trkpt lat="45.16853" lon="-0.53721">
        <ele>41.9</ele>
        <time>2020-09-03T08:03:51Z</time>
      </trkpt>
      <trkpt lat="45.16853" lon="-0.5372">
        <ele>42</ele>
        <time>2020-09-03T08:03:53Z</time>
      </trkpt>
      <trkpt lat="45.16852" lon="-0.53719">
        <ele>42</ele>
        <time>2020-09-03T08:03:54Z</time>
      </trkpt>
      <trkpt lat="45.16852" lon="-0.53719">
        <ele>42</ele>
        <time>2020-09-03T08:03:55Z</time>
      </trkpt>
      <trkpt lat="45.1685" lon="-0.53715">
        <ele>42.1</ele>
        <time>2020-09-03T08:03:56Z</time>
      </trkpt>
      <trkpt lat="45.1685" lon="-0.53714">
        <ele>42.1</ele>
        <time>2020-09-03T08:03:57Z</time>
      </trkpt>
      <trkpt lat="45.16848" lon="-0.53711">
        <ele>42.2</ele>
        <time>2020-09-03T08:03:59Z</time>
      </trkpt>
      <trkpt lat="45.16848" lon="-0.5371">
        <ele>42.2</ele>
        <time>2020-09-03T08:04:00Z</time>
      </trkpt>
      <trkpt lat="45.16846" lon="-0.53708">
        <ele>42.3</ele>
        <time>2020-09-03T08:04:01Z</time>
      </trkpt>
      <trkpt lat="45.16845" lon="-0.53706">
        <ele>42.3</ele>
        <time>2020-09-03T08:04:03Z</time>
      </trkpt>
      <trkpt lat="45.16844" lon="-0.53704">
        <ele>42.4</ele>
        <time>2020-09-03T08:04:04Z</time>
      </trkpt>
      <trkpt lat="45.16843" lon="-0.53701">
        <ele>42.4</ele>
        <time>2020-09-03T08:04:06Z</time>
      </trkpt>
      <trkpt lat="45.16841" lon="-0.53699">
        <ele>42.5</ele>
        <time>2020-09-03T08:04:07Z</time>
      </trkpt>
      <trkpt lat="45.16841" lon="-0.53698">
        <ele>42.5</ele>
        <time>2020-09-03T08:04:08Z</time>
      </trkpt>
      <trkpt lat="45.1684" lon="-0.53697">
        <ele>42.5</ele>
        <time>2020-09-03T08:04:09Z</time>
      </trkpt>
      <trkpt lat="45.1684" lon="-0.53693">
        <ele>42.6</ele>
        <time>2020-09-03T08:04:12Z</time>
      </trkpt>
      <trkpt lat="45.1684" lon="-0.53693">
        <ele>42.6</ele>
        <time>2020-09-03T08:04:13Z</time>
      </trkpt>
      <trkpt lat="45.1684" lon="-0.53691">
        <ele>42.7</ele>
        <time>2020-09-03T08:04:14Z</time>
      </trkpt>
      <trkpt lat="45.1684" lon="-0.53689">
        <ele>42.7</ele>
        <time>2020-09-03T08:04:16Z</time>
      </trkpt>
      <trkpt lat="45.1684" lon="-0.53688">
        <ele>42.7</ele>
        <time>2020-09-03T08:04:17Z</time>
      </trkpt>
      <trkpt lat="45.16838" lon="-0.53687">
        <ele>42.8</ele>
        <time>2020-09-03T08:04:19Z</time>
      </trkpt>
      <trkpt lat="45.16837" lon="-0.53686">
        <ele>42.8</ele>
        <time>2020-09-03T08:04:21Z</time>
      </trkpt>
      <trkpt lat="45.16836" lon="-0.53684">
        <ele>42.8</ele>
        <time>2020-09-03T08:04:23Z</time>
      </trkpt>
      <trkpt lat="45.16835" lon="-0.53682">
        <ele>42.9</ele>
        <time>2020-09-03T08:04:25Z</time>
      </trkpt>
      <trkpt lat="45.16833" lon="-0.53678">
        <ele>43</ele>
        <time>2020-09-03T08:04:26Z</time>
      </trkpt>
      <trkpt lat="45.16832" lon="-0.53676">
        <ele>43</ele>
        <time>2020-09-03T08:04:28Z</time>
      </trkpt>
      <trkpt lat="45.16831" lon="-0.53675">
        <ele>43.1</ele>
        <time>2020-09-03T08:04:29Z</time>
      </trkpt>
      <trkpt lat="45.1683" lon="-0.53673">
        <ele>43.1</ele>
        <time>2020-09-03T08:04:30Z</time>
      </trkpt>
      <trkpt lat="45.16829" lon="-0.5367">
        <ele>43.2</ele>
        <time>2020-09-03T08:04:32Z</time>
      </trkpt>
      <trkpt lat="45.16827" lon="-0.53667">
        <ele>43.3</ele>
        <time>2020-09-03T08:04:34Z</time>
      </trkpt>
      <trkpt lat="45.16826" lon="-0.53664">
        <ele>43.3</ele>
        <time>2020-09-03T08:04:35Z</time>
      </trkpt>
      <trkpt lat="45.16824" lon="-0.53661">
        <ele>43.4</ele>
        <time>2020-09-03T08:04:36Z</time>
      </trkpt>
      <trkpt lat="45.16823" lon="-0.53658">
        <ele>43.5</ele>
        <time>2020-09-03T08:04:38Z</time>
      </trkpt>
      <trkpt lat="45.16822" lon="-0.53654">
        <ele>43.6</ele>
        <time>2020-09-03T08:04:39Z</time>
      </trkpt>
      <trkpt lat="45.16821" lon="-0.5365">
        <ele>43.6</ele>
        <time>2020-09-03T08:04:41Z</time>
      </trkpt>
      <trkpt lat="45.1682" lon="-0.53649">
        <ele>43.7</ele>
        <time>2020-09-03T08:04:42Z</time>
      </trkpt>
      <trkpt lat="45.16819" lon="-0.53646">
        <ele>43.7</ele>
        <time>2020-09-03T08:04:43Z</time>
      </trkpt>
      <trkpt lat="45.16819" lon="-0.53644">
        <ele>43.8</ele>
        <time>2020-09-03T08:04:44Z</time>
      </trkpt>
      <trkpt lat="45.16817" lon="-0.53638">
        <ele>43.9</ele>
        <time>2020-09-03T08:04:46Z</time>
      </trkpt>
      <trkpt lat="45.16816" lon="-0.53636">
        <ele>44</ele>
        <time>2020-09-03T08:04:48Z</time>
      </trkpt>
      <trkpt lat="45.16815" lon="-0.53634">
        <ele>44</ele>
        <time>2020-09-03T08:04:49Z</time>
      </trkpt>
      <trkpt lat="45.16814" lon="-0.53631">
        <ele>44.1</ele>
        <time>2020-09-03T08:04:50Z</time>
      </trkpt>
      <trkpt lat="45.16813" lon="-0.53628">
        <ele>44.1</ele>
        <time>2020-09-03T08:04:52Z</time>
      </trkpt>
      <trkpt lat="45.16811" lon="-0.53623">
        <ele>44.2</ele>
        <time>2020-09-03T08:04:54Z</time>
      </trkpt>
      <trkpt lat="45.1681" lon="-0.53622">
        <ele>44.3</ele>
        <time>2020-09-03T08:04:55Z</time>
      </trkpt>
      <trkpt lat="45.16809" lon="-0.53619">
        <ele>44.3</ele>
        <time>2020-09-03T08:04:56Z</time>
      </trkpt>
      <trkpt lat="45.16808" lon="-0.53617">
        <ele>44.4</ele>
        <time>2020-09-03T08:04:58Z</time>
      </trkpt>
      <trkpt lat="45.16807" lon="-0.53614">
        <ele>44.5</ele>
        <time>2020-09-03T08:05:00Z</time>
      </trkpt>
      <trkpt lat="45.16806" lon="-0.53612">
        <ele>44.5</ele>
        <time>2020-09-03T08:05:01Z</time>
      </trkpt>
      <trkpt lat="45.16805" lon="-0.5361">
        <ele>44.6</ele>
        <time>2020-09-03T08:05:02Z</time>
      </trkpt>
      <trkpt lat="45.16803" lon="-0.53607">
        <ele>44.6</ele>
        <time>2020-09-03T08:05:04Z</time>
      </trkpt>
      <trkpt lat="45.16802" lon="-0.53604">
        <ele>44.7</ele>
        <time>2020-09-03T08:05:05Z</time>
      </trkpt>
      <trkpt lat="45.16801" lon="-0.53602">
        <ele>44.7</ele>
        <time>2020-09-03T08:05:07Z</time>
      </trkpt>
      <trkpt lat="45.16801" lon="-0.53601">
        <ele>44.8</ele>
        <time>2020-09-03T08:05:08Z</time>
      </trkpt>
      <trkpt lat="45.168" lon="-0.53599">
        <ele>44.8</ele>
        <time>2020-09-03T08:05:09Z</time>
      </trkpt>
      <trkpt lat="45.16798" lon="-0.53595">
        <ele>44.9</ele>
        <time>2020-09-03T08:05:11Z</time>
      </trkpt>
      <trkpt lat="45.16798" lon="-0.53594">
        <ele>44.9</ele>
        <time>2020-09-03T08:05:12Z</time>
      </trkpt>
      <trkpt lat="45.16797" lon="-0.53591">
        <ele>45</ele>
        <time>2020-09-03T08:05:14Z</time>
      </trkpt>
      <trkpt lat="45.16796" lon="-0.5359">
        <ele>45</ele>
        <time>2020-09-03T08:05:15Z</time>
      </trkpt>
      <trkpt lat="45.16795" lon="-0.53587">
        <ele>45.1</ele>
        <time>2020-09-03T08:05:17Z</time>
      </trkpt>
      <trkpt lat="45.16794" lon="-0.53584">
        <ele>45.2</ele>
        <time>2020-09-03T08:05:19Z</time>
      </trkpt>
      <trkpt lat="45.16793" lon="-0.53582">
        <ele>45.2</ele>
        <time>2020-09-03T08:05:20Z</time>
      </trkpt>
      <trkpt lat="45.16791" lon="-0.53577">
        <ele>45.3</ele>
        <time>2020-09-03T08:05:22Z</time>
      </trkpt>
      <trkpt lat="45.1679" lon="-0.53574">
        <ele>45.4</ele>
        <time>2020-09-03T08:05:23Z</time>
      </trkpt>
      <trkpt lat="45.16789" lon="-0.53572">
        <ele>45.4</ele>
        <time>2020-09-03T08:05:25Z</time>
      </trkpt>
      <trkpt lat="45.16788" lon="-0.5357">
        <ele>45.5</ele>
        <time>2020-09-03T08:05:26Z</time>
      </trkpt>
      <trkpt lat="45.16788" lon="-0.53569">
        <ele>45.5</ele>
        <time>2020-09-03T08:05:27Z</time>
      </trkpt>
      <trkpt lat="45.16786" lon="-0.53566">
        <ele>45.6</ele>
        <time>2020-09-03T08:05:29Z</time>
      </trkpt>
      <trkpt lat="45.16786" lon="-0.53565">
        <ele>45.6</ele>
        <time>2020-09-03T08:05:30Z</time>
      </trkpt>
      <trkpt lat="45.16785" lon="-0.53563">
        <ele>45.6</ele>
        <time>2020-09-03T08:05:31Z</time>
      </trkpt>
      <trkpt lat="45.16784" lon="-0.53561">
        <ele>45.7</ele>
        <time>2020-09-03T08:05:32Z</time>
      </trkpt>
      <trkpt lat="45.16783" lon="-0.53559">
        <ele>45.7</ele>
        <time>2020-09-03T08:05:34Z</time>
      </trkpt>
      <trkpt lat="45.16782" lon="-0.53558">
        <ele>45.8</ele>
        <time>2020-09-03T08:05:35Z</time>
      </trkpt>
      <trkpt lat="45.16781" lon="-0.53556">
        <ele>45.8</ele>
        <time>2020-09-03T08:05:36Z</time>
      </trkpt>
      <trkpt lat="45.1678" lon="-0.53552">
        <ele>45.9</ele>
        <time>2020-09-03T08:05:38Z</time>
      </trkpt>
      <trkpt lat="45.16779" lon="-0.53551">
        <ele>45.9</ele>
        <time>2020-09-03T08:05:39Z</time>
      </trkpt>
      <trkpt lat="45.16779" lon="-0.53549">
        <ele>46</ele>
        <time>2020-09-03T08:05:40Z</time>
      </trkpt>
      <trkpt lat="45.16777" lon="-0.53545">
        <ele>46.1</ele>
        <time>2020-09-03T08:05:42Z</time>
      </trkpt>
      <trkpt lat="45.16777" lon="-0.53544">
        <ele>46.1</ele>
        <time>2020-09-03T08:05:43Z</time>
      </trkpt>
      <trkpt lat="45.16776" lon="-0.53541">
        <ele>46.2</ele>
        <time>2020-09-03T08:05:45Z</time>
      </trkpt>
      <trkpt lat="45.16774" lon="-0.53537">
        <ele>46.3</ele>
        <time>2020-09-03T08:05:47Z</time>
      </trkpt>
      <trkpt lat="45.16773" lon="-0.53534">
        <ele>46.3</ele>
        <time>2020-09-03T08:05:48Z</time>
      </trkpt>
      <trkpt lat="45.16773" lon="-0.53533">
        <ele>46.4</ele>
        <time>2020-09-03T08:05:49Z</time>
      </trkpt>
      <trkpt lat="45.16772" lon="-0.53532">
        <ele>46.4</ele>
        <time>2020-09-03T08:05:50Z</time>
      </trkpt>
      <trkpt lat="45.1677" lon="-0.53528">
        <ele>46.5</ele>
        <time>2020-09-03T08:05:52Z</time>
      </trkpt>
      <trkpt lat="45.16769" lon="-0.53526">
        <ele>46.5</ele>
        <time>2020-09-03T08:05:53Z</time>
      </trkpt>
      <trkpt lat="45.16768" lon="-0.53524">
        <ele>46.6</ele>
        <time>2020-09-03T08:05:55Z</time>
      </trkpt>
      <trkpt lat="45.16767" lon="-0.53523">
        <ele>46.6</ele>
        <time>2020-09-03T08:05:56Z</time>
      </trkpt>
      <trkpt lat="45.16766" lon="-0.53521">
        <ele>46.6</ele>
        <time>2020-09-03T08:05:57Z</time>
      </trkpt>
      <trkpt lat="45.16765" lon="-0.53519">
        <ele>46.7</ele>
        <time>2020-09-03T08:05:59Z</time>
      </trkpt>
      <trkpt lat="45.16764" lon="-0.53517">
        <ele>46.7</ele>
        <time>2020-09-03T08:06:00Z</time>
      </trkpt>
      <trkpt lat="45.16763" lon="-0.53514">
        <ele>46.8</ele>
        <time>2020-09-03T08:06:01Z</time>
      </trkpt>
      <trkpt lat="45.16763" lon="-0.53512">
        <ele>46.9</ele>
        <time>2020-09-03T08:06:03Z</time>
      </trkpt>
      <trkpt lat="45.16762" lon="-0.5351">
        <ele>46.9</ele>
        <time>2020-09-03T08:06:04Z</time>
      </trkpt>
      <trkpt lat="45.16762" lon="-0.53507">
        <ele>47</ele>
        <time>2020-09-03T08:06:06Z</time>
      </trkpt>
      <trkpt lat="45.16761" lon="-0.53505">
        <ele>47</ele>
        <time>2020-09-03T08:06:07Z</time>
      </trkpt>
      <trkpt lat="45.1676" lon="-0.53502">
        <ele>47.1</ele>
        <time>2020-09-03T08:06:09Z</time>
      </trkpt>
      <trkpt lat="45.1676" lon="-0.535">
        <ele>47.1</ele>
        <time>2020-09-03T08:06:10Z</time>
      </trkpt>
      <trkpt lat="45.16759" lon="-0.53498">
        <ele>47.1</ele>
        <time>2020-09-03T08:06:11Z</time>
      </trkpt>
      <trkpt lat="45.16757" lon="-0.53495">
        <ele>47.2</ele>
        <time>2020-09-03T08:06:13Z</time>
      </trkpt>
      <trkpt lat="45.16757" lon="-0.53494">
        <ele>47.3</ele>
        <time>2020-09-03T08:06:14Z</time>
      </trkpt>
      <trkpt lat="45.16756" lon="-0.5349">
        <ele>47.3</ele>
        <time>2020-09-03T08:06:15Z</time>
      </trkpt>
      <trkpt lat="45.16755" lon="-0.53488">
        <ele>47.4</ele>
        <time>2020-09-03T08:06:16Z</time>
      </trkpt>
      <trkpt lat="45.16754" lon="-0.53486">
        <ele>47.4</ele>
        <time>2020-09-03T08:06:18Z</time>
      </trkpt>
      <trkpt lat="45.16754" lon="-0.53484">
        <ele>47.5</ele>
        <time>2020-09-03T08:06:19Z</time>
      </trkpt>
      <trkpt lat="45.16753" lon="-0.53479">
        <ele>47.6</ele>
        <time>2020-09-03T08:06:21Z</time>
      </trkpt>
      <trkpt lat="45.16753" lon="-0.53478">
        <ele>47.6</ele>
        <time>2020-09-03T08:06:22Z</time>
      </trkpt>
      <trkpt lat="45.16753" lon="-0.53476">
        <ele>47.6</ele>
        <time>2020-09-03T08:06:23Z</time>
      </trkpt>
      <trkpt lat="45.16753" lon="-0.53473">
        <ele>47.7</ele>
        <time>2020-09-03T08:06:25Z</time>
      </trkpt>
      <trkpt lat="45.16752" lon="-0.5347">
        <ele>47.7</ele>
        <time>2020-09-03T08:06:27Z</time>
      </trkpt>
      <trkpt lat="45.16752" lon="-0.53469">
        <ele>47.8</ele>
        <time>2020-09-03T08:06:28Z</time>
      </trkpt>
      <trkpt lat="45.16751" lon="-0.53466">
        <ele>47.8</ele>
        <time>2020-09-03T08:06:29Z</time>
      </trkpt>
      <trkpt lat="45.16751" lon="-0.53465">
        <ele>47.9</ele>
        <time>2020-09-03T08:06:30Z</time>
      </trkpt>
      <trkpt lat="45.16751" lon="-0.53463">
        <ele>47.9</ele>
        <time>2020-09-03T08:06:31Z</time>
      </trkpt>
      <trkpt lat="45.1675" lon="-0.53462">
        <ele>47.9</ele>
        <time>2020-09-03T08:06:32Z</time>
      </trkpt>
      <trkpt lat="45.1675" lon="-0.5346">
        <ele>48</ele>
        <time>2020-09-03T08:06:33Z</time>
      </trkpt>
      <trkpt lat="45.16749" lon="-0.53458">
        <ele>48</ele>
        <time>2020-09-03T08:06:35Z</time>
      </trkpt>
      <trkpt lat="45.16748" lon="-0.53456">
        <ele>48</ele>
        <time>2020-09-03T08:06:36Z</time>
      </trkpt>
      <trkpt lat="45.16748" lon="-0.53453">
        <ele>48.1</ele>
        <time>2020-09-03T08:06:37Z</time>
      </trkpt>
      <trkpt lat="45.16748" lon="-0.53452">
        <ele>48.1</ele>
        <time>2020-09-03T08:06:38Z</time>
      </trkpt>
      <trkpt lat="45.16747" lon="-0.53448">
        <ele>48.2</ele>
        <time>2020-09-03T08:06:40Z</time>
      </trkpt>
      <trkpt lat="45.16747" lon="-0.53446">
        <ele>48.2</ele>
        <time>2020-09-03T08:06:41Z</time>
      </trkpt>
      <trkpt lat="45.16747" lon="-0.53445">
        <ele>48.3</ele>
        <time>2020-09-03T08:06:42Z</time>
      </trkpt>
      <trkpt lat="45.16747" lon="-0.53442">
        <ele>48.3</ele>
        <time>2020-09-03T08:06:44Z</time>
      </trkpt>
      <trkpt lat="45.16746" lon="-0.5344">
        <ele>48.4</ele>
        <time>2020-09-03T08:06:45Z</time>
      </trkpt>
      <trkpt lat="45.16746" lon="-0.53438">
        <ele>48.4</ele>
        <time>2020-09-03T08:06:46Z</time>
      </trkpt>
      <trkpt lat="45.16746" lon="-0.53436">
        <ele>48.4</ele>
        <time>2020-09-03T08:06:47Z</time>
      </trkpt>
      <trkpt lat="45.16745" lon="-0.53433">
        <ele>48.5</ele>
        <time>2020-09-03T08:06:49Z</time>
      </trkpt>
      <trkpt lat="45.16744" lon="-0.53431">
        <ele>48.6</ele>
        <time>2020-09-03T08:06:50Z</time>
      </trkpt>
      <trkpt lat="45.16744" lon="-0.5343">
        <ele>48.6</ele>
        <time>2020-09-03T08:06:51Z</time>
      </trkpt>
      <trkpt lat="45.16743" lon="-0.53427">
        <ele>48.6</ele>
        <time>2020-09-03T08:06:53Z</time>
      </trkpt>
      <trkpt lat="45.16742" lon="-0.53425">
        <ele>48.7</ele>
        <time>2020-09-03T08:06:54Z</time>
      </trkpt>
      <trkpt lat="45.16741" lon="-0.53423">
        <ele>48.7</ele>
        <time>2020-09-03T08:06:55Z</time>
      </trkpt>
      <trkpt lat="45.16741" lon="-0.53422">
        <ele>48.8</ele>
        <time>2020-09-03T08:06:56Z</time>
      </trkpt>
      <trkpt lat="45.1674" lon="-0.53418">
        <ele>48.8</ele>
        <time>2020-09-03T08:06:58Z</time>
      </trkpt>
      <trkpt lat="45.16739" lon="-0.53417">
        <ele>48.9</ele>
        <time>2020-09-03T08:06:59Z</time>
      </trkpt>
      <trkpt lat="45.16739" lon="-0.53416">
        <ele>48.9</ele>
        <time>2020-09-03T08:07:00Z</time>
      </trkpt>
      <trkpt lat="45.16738" lon="-0.53412">
        <ele>49</ele>
        <time>2020-09-03T08:07:02Z</time>
      </trkpt>
      <trkpt lat="45.16737" lon="-0.53411">
        <ele>49</ele>
        <time>2020-09-03T08:07:03Z</time>
      </trkpt>
      <trkpt lat="45.16737" lon="-0.53409">
        <ele>49</ele>
        <time>2020-09-03T08:07:04Z</time>
      </trkpt>
      <trkpt lat="45.16736" lon="-0.53407">
        <ele>49.1</ele>
        <time>2020-09-03T08:07:05Z</time>
      </trkpt>
      <trkpt lat="45.16735" lon="-0.53405">
        <ele>49.1</ele>
        <time>2020-09-03T08:07:06Z</time>
      </trkpt>
      <trkpt lat="45.16734" lon="-0.53403">
        <ele>49.2</ele>
        <time>2020-09-03T08:07:07Z</time>
      </trkpt>
      <trkpt lat="45.16733" lon="-0.53399">
        <ele>49.3</ele>
        <time>2020-09-03T08:07:09Z</time>
      </trkpt>
      <trkpt lat="45.16732" lon="-0.53398">
        <ele>49.3</ele>
        <time>2020-09-03T08:07:10Z</time>
      </trkpt>
      <trkpt lat="45.16731" lon="-0.53396">
        <ele>49.3</ele>
        <time>2020-09-03T08:07:11Z</time>
      </trkpt>
      <trkpt lat="45.16731" lon="-0.53394">
        <ele>49.4</ele>
        <time>2020-09-03T08:07:12Z</time>
      </trkpt>
      <trkpt lat="45.1673" lon="-0.53393">
        <ele>49.4</ele>
        <time>2020-09-03T08:07:14Z</time>
      </trkpt>
      <trkpt lat="45.1673" lon="-0.53393">
        <ele>49.4</ele>
        <time>2020-09-03T08:07:15Z</time>
      </trkpt>
      <trkpt lat="45.16729" lon="-0.53392">
        <ele>49.4</ele>
        <time>2020-09-03T08:07:16Z</time>
      </trkpt>
      <trkpt lat="45.16729" lon="-0.5339">
        <ele>49.5</ele>
        <time>2020-09-03T08:07:18Z</time>
      </trkpt>
      <trkpt lat="45.16728" lon="-0.53388">
        <ele>49.5</ele>
        <time>2020-09-03T08:07:20Z</time>
      </trkpt>
      <trkpt lat="45.16727" lon="-0.53387">
        <ele>49.6</ele>
        <time>2020-09-03T08:07:21Z</time>
      </trkpt>
      <trkpt lat="45.16727" lon="-0.53386">
        <ele>49.6</ele>
        <time>2020-09-03T08:07:22Z</time>
      </trkpt>
      <trkpt lat="45.16726" lon="-0.53384">
        <ele>49.6</ele>
        <time>2020-09-03T08:07:23Z</time>
      </trkpt>
      <trkpt lat="45.16726" lon="-0.5338">
        <ele>49.7</ele>
        <time>2020-09-03T08:07:25Z</time>
      </trkpt>
      <trkpt lat="45.16724" lon="-0.53377">
        <ele>49.8</ele>
        <time>2020-09-03T08:07:26Z</time>
      </trkpt>
      <trkpt lat="45.16724" lon="-0.53376">
        <ele>49.8</ele>
        <time>2020-09-03T08:07:27Z</time>
      </trkpt>
      <trkpt lat="45.16723" lon="-0.53374">
        <ele>49.8</ele>
        <time>2020-09-03T08:07:28Z</time>
      </trkpt>
      <trkpt lat="45.16722" lon="-0.53371">
        <ele>49.9</ele>
        <time>2020-09-03T08:07:29Z</time>
      </trkpt>
      <trkpt lat="45.16721" lon="-0.53369">
        <ele>50</ele>
        <time>2020-09-03T08:07:31Z</time>
      </trkpt>
      <trkpt lat="45.16721" lon="-0.53367">
        <ele>50</ele>
        <time>2020-09-03T08:07:32Z</time>
      </trkpt>
      <trkpt lat="45.1672" lon="-0.53365">
        <ele>50</ele>
        <time>2020-09-03T08:07:33Z</time>
      </trkpt>
      <trkpt lat="45.16719" lon="-0.53362">
        <ele>50.1</ele>
        <time>2020-09-03T08:07:35Z</time>
      </trkpt>
      <trkpt lat="45.16719" lon="-0.53359">
        <ele>50.2</ele>
        <time>2020-09-03T08:07:36Z</time>
      </trkpt>
      <trkpt lat="45.16718" lon="-0.53358">
        <ele>50.2</ele>
        <time>2020-09-03T08:07:37Z</time>
      </trkpt>
      <trkpt lat="45.16718" lon="-0.53357">
        <ele>50.2</ele>
        <time>2020-09-03T08:07:38Z</time>
      </trkpt>
      <trkpt lat="45.16718" lon="-0.53355">
        <ele>50.3</ele>
        <time>2020-09-03T08:07:39Z</time>
      </trkpt>
      <trkpt lat="45.16717" lon="-0.53352">
        <ele>50.3</ele>
        <time>2020-09-03T08:07:40Z</time>
      </trkpt>
      <trkpt lat="45.16717" lon="-0.53351">
        <ele>50.3</ele>
        <time>2020-09-03T08:07:41Z</time>
      </trkpt>
      <trkpt lat="45.16716" lon="-0.53349">
        <ele>50.4</ele>
        <time>2020-09-03T08:07:42Z</time>
      </trkpt>
      <trkpt lat="45.16716" lon="-0.53347">
        <ele>50.4</ele>
        <time>2020-09-03T08:07:43Z</time>
      </trkpt>
      <trkpt lat="45.16716" lon="-0.53345">
        <ele>50.5</ele>
        <time>2020-09-03T08:07:45Z</time>
      </trkpt>
      <trkpt lat="45.16715" lon="-0.53342">
        <ele>50.5</ele>
        <time>2020-09-03T08:07:46Z</time>
      </trkpt>
      <trkpt lat="45.16715" lon="-0.5334">
        <ele>50.6</ele>
        <time>2020-09-03T08:07:47Z</time>
      </trkpt>
      <trkpt lat="45.16714" lon="-0.53338">
        <ele>50.6</ele>
        <time>2020-09-03T08:07:49Z</time>
      </trkpt>
      <trkpt lat="45.16714" lon="-0.53336">
        <ele>50.6</ele>
        <time>2020-09-03T08:07:50Z</time>
      </trkpt>
      <trkpt lat="45.16713" lon="-0.53334">
        <ele>50.7</ele>
        <time>2020-09-03T08:07:51Z</time>
      </trkpt>
      <trkpt lat="45.16713" lon="-0.53332">
        <ele>50.7</ele>
        <time>2020-09-03T08:07:52Z</time>
      </trkpt>
      <trkpt lat="45.16713" lon="-0.53331">
        <ele>50.7</ele>
        <time>2020-09-03T08:07:53Z</time>
      </trkpt>
      <trkpt lat="45.16712" lon="-0.53328">
        <ele>50.8</ele>
        <time>2020-09-03T08:07:54Z</time>
      </trkpt>
      <trkpt lat="45.16712" lon="-0.53327">
        <ele>50.8</ele>
        <time>2020-09-03T08:07:55Z</time>
      </trkpt>
      <trkpt lat="45.16712" lon="-0.53326">
        <ele>50.8</ele>
        <time>2020-09-03T08:07:56Z</time>
      </trkpt>
      <trkpt lat="45.16711" lon="-0.53323">
        <ele>50.9</ele>
        <time>2020-09-03T08:07:57Z</time>
      </trkpt>
      <trkpt lat="45.16711" lon="-0.53322">
        <ele>50.9</ele>
        <time>2020-09-03T08:07:58Z</time>
      </trkpt>
      <trkpt lat="45.16711" lon="-0.53321">
        <ele>51</ele>
        <time>2020-09-03T08:07:59Z</time>
      </trkpt>
      <trkpt lat="45.1671" lon="-0.53319">
        <ele>51</ele>
        <time>2020-09-03T08:08:00Z</time>
      </trkpt>
      <trkpt lat="45.1671" lon="-0.53317">
        <ele>51</ele>
        <time>2020-09-03T08:08:02Z</time>
      </trkpt>
      <trkpt lat="45.1671" lon="-0.53314">
        <ele>51.1</ele>
        <time>2020-09-03T08:08:03Z</time>
      </trkpt>
      <trkpt lat="45.16709" lon="-0.53312">
        <ele>51.1</ele>
        <time>2020-09-03T08:08:04Z</time>
      </trkpt>
      <trkpt lat="45.16708" lon="-0.5331">
        <ele>51.2</ele>
        <time>2020-09-03T08:08:05Z</time>
      </trkpt>
      <trkpt lat="45.16708" lon="-0.53308">
        <ele>51.2</ele>
        <time>2020-09-03T08:08:06Z</time>
      </trkpt>
      <trkpt lat="45.16707" lon="-0.53307">
        <ele>51.3</ele>
        <time>2020-09-03T08:08:07Z</time>
      </trkpt>
      <trkpt lat="45.16707" lon="-0.53305">
        <ele>51.3</ele>
        <time>2020-09-03T08:08:09Z</time>
      </trkpt>
      <trkpt lat="45.16706" lon="-0.53302">
        <ele>51.4</ele>
        <time>2020-09-03T08:08:10Z</time>
      </trkpt>
      <trkpt lat="45.16705" lon="-0.53301">
        <ele>51.4</ele>
        <time>2020-09-03T08:08:11Z</time>
      </trkpt>
      <trkpt lat="45.16705" lon="-0.53299">
        <ele>51.4</ele>
        <time>2020-09-03T08:08:13Z</time>
      </trkpt>
      <trkpt lat="45.16705" lon="-0.53297">
        <ele>51.4</ele>
        <time>2020-09-03T08:08:14Z</time>
      </trkpt>
      <trkpt lat="45.16704" lon="-0.53296">
        <ele>51.3</ele>
        <time>2020-09-03T08:08:15Z</time>
      </trkpt>
      <trkpt lat="45.16704" lon="-0.53294">
        <ele>51.3</ele>
        <time>2020-09-03T08:08:16Z</time>
      </trkpt>
      <trkpt lat="45.16704" lon="-0.53292">
        <ele>51.3</ele>
        <time>2020-09-03T08:08:18Z</time>
      </trkpt>
      <trkpt lat="45.16703" lon="-0.53289">
        <ele>51.3</ele>
        <time>2020-09-03T08:08:19Z</time>
      </trkpt>
      <trkpt lat="45.16703" lon="-0.53285">
        <ele>51.3</ele>
        <time>2020-09-03T08:08:21Z</time>
      </trkpt>
      <trkpt lat="45.16702" lon="-0.53284">
        <ele>51.3</ele>
        <time>2020-09-03T08:08:22Z</time>
      </trkpt>
      <trkpt lat="45.16701" lon="-0.5328">
        <ele>51.3</ele>
        <time>2020-09-03T08:08:23Z</time>
      </trkpt>
      <trkpt lat="45.16701" lon="-0.53279">
        <ele>51.3</ele>
        <time>2020-09-03T08:08:24Z</time>
      </trkpt>
      <trkpt lat="45.16701" lon="-0.53278">
        <ele>51.3</ele>
        <time>2020-09-03T08:08:26Z</time>
      </trkpt>
      <trkpt lat="45.16701" lon="-0.53276">
        <ele>51.3</ele>
        <time>2020-09-03T08:08:27Z</time>
      </trkpt>
      <trkpt lat="45.16702" lon="-0.53275">
        <ele>51.2</ele>
        <time>2020-09-03T08:08:29Z</time>
      </trkpt>
      <trkpt lat="45.16702" lon="-0.53274">
        <ele>51.2</ele>
        <time>2020-09-03T08:08:30Z</time>
      </trkpt>
      <trkpt lat="45.16702" lon="-0.53274">
        <ele>51.2</ele>
        <time>2020-09-03T08:08:31Z</time>
      </trkpt>
      <trkpt lat="45.16702" lon="-0.53272">
        <ele>51.2</ele>
        <time>2020-09-03T08:08:33Z</time>
      </trkpt>
      <trkpt lat="45.16702" lon="-0.53272">
        <ele>51.2</ele>
        <time>2020-09-03T08:08:34Z</time>
      </trkpt>
      <trkpt lat="45.16702" lon="-0.53271">
        <ele>51.2</ele>
        <time>2020-09-03T08:08:36Z</time>
      </trkpt>
      <trkpt lat="45.16702" lon="-0.5327">
        <ele>51.2</ele>
        <time>2020-09-03T08:08:37Z</time>
      </trkpt>
      <trkpt lat="45.16702" lon="-0.5327">
        <ele>51.2</ele>
        <time>2020-09-03T08:08:38Z</time>
      </trkpt>
      <trkpt lat="45.16702" lon="-0.5327">
        <ele>51.2</ele>
        <time>2020-09-03T08:08:40Z</time>
      </trkpt>
      <trkpt lat="45.16701" lon="-0.5327">
        <ele>51.2</ele>
        <time>2020-09-03T08:08:41Z</time>
      </trkpt>
      <trkpt lat="45.16701" lon="-0.5327">
        <ele>51.2</ele>
        <time>2020-09-03T08:08:43Z</time>
      </trkpt>
      <trkpt lat="45.16701" lon="-0.5327">
        <ele>51.2</ele>
        <time>2020-09-03T08:08:44Z</time>
      </trkpt>
      <trkpt lat="45.167" lon="-0.5327">
        <ele>51.2</ele>
        <time>2020-09-03T08:08:45Z</time>
      </trkpt>
      <trkpt lat="45.167" lon="-0.5327">
        <ele>51.1</ele>
        <time>2020-09-03T08:08:46Z</time>
      </trkpt>
      <trkpt lat="45.167" lon="-0.53271">
        <ele>51.1</ele>
        <time>2020-09-03T08:08:47Z</time>
      </trkpt>
      <trkpt lat="45.16699" lon="-0.5327">
        <ele>51.1</ele>
        <time>2020-09-03T08:08:49Z</time>
      </trkpt>
      <trkpt lat="45.16699" lon="-0.53269">
        <ele>51.1</ele>
        <time>2020-09-03T08:08:50Z</time>
      </trkpt>
      <trkpt lat="45.16697" lon="-0.53267">
        <ele>51.1</ele>
        <time>2020-09-03T08:08:51Z</time>
      </trkpt>
      <trkpt lat="45.16696" lon="-0.53265">
        <ele>51.1</ele>
        <time>2020-09-03T08:08:53Z</time>
      </trkpt>
      <trkpt lat="45.16695" lon="-0.53264">
        <ele>51.1</ele>
        <time>2020-09-03T08:08:54Z</time>
      </trkpt>
      <trkpt lat="45.16694" lon="-0.53261">
        <ele>51</ele>
        <time>2020-09-03T08:08:55Z</time>
      </trkpt>
      <trkpt lat="45.16693" lon="-0.5326">
        <ele>51</ele>
        <time>2020-09-03T08:08:56Z</time>
      </trkpt>
      <trkpt lat="45.16692" lon="-0.53256">
        <ele>50.9</ele>
        <time>2020-09-03T08:08:58Z</time>
      </trkpt>
      <trkpt lat="45.16691" lon="-0.53255">
        <ele>50.9</ele>
        <time>2020-09-03T08:08:59Z</time>
      </trkpt>
      <trkpt lat="45.1669" lon="-0.53251">
        <ele>50.8</ele>
        <time>2020-09-03T08:09:01Z</time>
      </trkpt>
      <trkpt lat="45.16689" lon="-0.5325">
        <ele>50.8</ele>
        <time>2020-09-03T08:09:02Z</time>
      </trkpt>
      <trkpt lat="45.16688" lon="-0.53248">
        <ele>50.7</ele>
        <time>2020-09-03T08:09:03Z</time>
      </trkpt>
      <trkpt lat="45.16688" lon="-0.53247">
        <ele>50.7</ele>
        <time>2020-09-03T08:09:04Z</time>
      </trkpt>
      <trkpt lat="45.16687" lon="-0.53244">
        <ele>50.6</ele>
        <time>2020-09-03T08:09:06Z</time>
      </trkpt>
      <trkpt lat="45.16686" lon="-0.53242">
        <ele>50.6</ele>
        <time>2020-09-03T08:09:07Z</time>
      </trkpt>
      <trkpt lat="45.16685" lon="-0.53241">
        <ele>50.6</ele>
        <time>2020-09-03T08:09:08Z</time>
      </trkpt>
      <trkpt lat="45.16685" lon="-0.53239">
        <ele>50.5</ele>
        <time>2020-09-03T08:09:09Z</time>
      </trkpt>
      <trkpt lat="45.16684" lon="-0.53235">
        <ele>50.4</ele>
        <time>2020-09-03T08:09:11Z</time>
      </trkpt>
      <trkpt lat="45.16684" lon="-0.53234">
        <ele>50.4</ele>
        <time>2020-09-03T08:09:12Z</time>
      </trkpt>
      <trkpt lat="45.16684" lon="-0.53232">
        <ele>50.4</ele>
        <time>2020-09-03T08:09:13Z</time>
      </trkpt>
      <trkpt lat="45.16682" lon="-0.53228">
        <ele>50.3</ele>
        <time>2020-09-03T08:09:15Z</time>
      </trkpt>
      <trkpt lat="45.16682" lon="-0.53227">
        <ele>50.2</ele>
        <time>2020-09-03T08:09:16Z</time>
      </trkpt>
      <trkpt lat="45.16681" lon="-0.53223">
        <ele>50.1</ele>
        <time>2020-09-03T08:09:18Z</time>
      </trkpt>
      <trkpt lat="45.16681" lon="-0.53221">
        <ele>50.1</ele>
        <time>2020-09-03T08:09:19Z</time>
      </trkpt>
      <trkpt lat="45.1668" lon="-0.53219">
        <ele>50</ele>
        <time>2020-09-03T08:09:20Z</time>
      </trkpt>
      <trkpt lat="45.1668" lon="-0.53218">
        <ele>50</ele>
        <time>2020-09-03T08:09:21Z</time>
      </trkpt>
      <trkpt lat="45.16679" lon="-0.53214">
        <ele>49.9</ele>
        <time>2020-09-03T08:09:22Z</time>
      </trkpt>
      <trkpt lat="45.16678" lon="-0.53213">
        <ele>49.9</ele>
        <time>2020-09-03T08:09:24Z</time>
      </trkpt>
      <trkpt lat="45.16678" lon="-0.53211">
        <ele>49.9</ele>
        <time>2020-09-03T08:09:25Z</time>
      </trkpt>
      <trkpt lat="45.16677" lon="-0.53209">
        <ele>49.8</ele>
        <time>2020-09-03T08:09:26Z</time>
      </trkpt>
      <trkpt lat="45.16676" lon="-0.53205">
        <ele>49.6</ele>
        <time>2020-09-03T08:09:28Z</time>
      </trkpt>
      <trkpt lat="45.16675" lon="-0.53203">
        <ele>49.6</ele>
        <time>2020-09-03T08:09:29Z</time>
      </trkpt>
      <trkpt lat="45.16674" lon="-0.53201">
        <ele>49.5</ele>
        <time>2020-09-03T08:09:30Z</time>
      </trkpt>
      <trkpt lat="45.16673" lon="-0.532">
        <ele>49.5</ele>
        <time>2020-09-03T08:09:31Z</time>
      </trkpt>
      <trkpt lat="45.16673" lon="-0.53198">
        <ele>49.5</ele>
        <time>2020-09-03T08:09:32Z</time>
      </trkpt>
      <trkpt lat="45.16672" lon="-0.53197">
        <ele>49.3</ele>
        <time>2020-09-03T08:09:33Z</time>
      </trkpt>
      <trkpt lat="45.16672" lon="-0.53195">
        <ele>49.3</ele>
        <time>2020-09-03T08:09:34Z</time>
      </trkpt>
      <trkpt lat="45.16672" lon="-0.53192">
        <ele>49.2</ele>
        <time>2020-09-03T08:09:36Z</time>
      </trkpt>
      <trkpt lat="45.16672" lon="-0.5319">
        <ele>49.2</ele>
        <time>2020-09-03T08:09:37Z</time>
      </trkpt>
      <trkpt lat="45.16671" lon="-0.53188">
        <ele>49</ele>
        <time>2020-09-03T08:09:38Z</time>
      </trkpt>
      <trkpt lat="45.16671" lon="-0.53186">
        <ele>49</ele>
        <time>2020-09-03T08:09:39Z</time>
      </trkpt>
      <trkpt lat="45.1667" lon="-0.53182">
        <ele>48.8</ele>
        <time>2020-09-03T08:09:41Z</time>
      </trkpt>
      <trkpt lat="45.16669" lon="-0.53179">
        <ele>48.7</ele>
        <time>2020-09-03T08:09:43Z</time>
      </trkpt>
      <trkpt lat="45.16669" lon="-0.53178">
        <ele>48.7</ele>
        <time>2020-09-03T08:09:44Z</time>
      </trkpt>
      <trkpt lat="45.16669" lon="-0.53176">
        <ele>48.5</ele>
        <time>2020-09-03T08:09:45Z</time>
      </trkpt>
      <trkpt lat="45.1667" lon="-0.53174">
        <ele>48.5</ele>
        <time>2020-09-03T08:09:47Z</time>
      </trkpt>
      <trkpt lat="45.1667" lon="-0.53173">
        <ele>48.5</ele>
        <time>2020-09-03T08:09:48Z</time>
      </trkpt>
      <trkpt lat="45.16671" lon="-0.53173">
        <ele>48.4</ele>
        <time>2020-09-03T08:09:49Z</time>
      </trkpt>
      <trkpt lat="45.16671" lon="-0.53171">
        <ele>48.3</ele>
        <time>2020-09-03T08:09:50Z</time>
      </trkpt>
      <trkpt lat="45.16672" lon="-0.5317">
        <ele>48.3</ele>
        <time>2020-09-03T08:09:51Z</time>
      </trkpt>
      <trkpt lat="45.16672" lon="-0.53169">
        <ele>48.3</ele>
        <time>2020-09-03T08:09:52Z</time>
      </trkpt>
      <trkpt lat="45.16673" lon="-0.53167">
        <ele>48.1</ele>
        <time>2020-09-03T08:09:54Z</time>
      </trkpt>
      <trkpt lat="45.16673" lon="-0.53166">
        <ele>48.1</ele>
        <time>2020-09-03T08:09:55Z</time>
      </trkpt>
      <trkpt lat="45.16672" lon="-0.53163">
        <ele>47.9</ele>
        <time>2020-09-03T08:09:56Z</time>
      </trkpt>
      <trkpt lat="45.16672" lon="-0.53162">
        <ele>47.9</ele>
        <time>2020-09-03T08:09:57Z</time>
      </trkpt>
      <trkpt lat="45.16671" lon="-0.53159">
        <ele>47.7</ele>
        <time>2020-09-03T08:09:59Z</time>
      </trkpt>
      <trkpt lat="45.16671" lon="-0.53157">
        <ele>47.7</ele>
        <time>2020-09-03T08:10:00Z</time>
      </trkpt>
      <trkpt lat="45.1667" lon="-0.53155">
        <ele>47.5</ele>
        <time>2020-09-03T08:10:02Z</time>
      </trkpt>
      <trkpt lat="45.16669" lon="-0.53153">
        <ele>47.5</ele>
        <time>2020-09-03T08:10:03Z</time>
      </trkpt>
      <trkpt lat="45.16669" lon="-0.53151">
        <ele>47.5</ele>
        <time>2020-09-03T08:10:04Z</time>
      </trkpt>
      <trkpt lat="45.16669" lon="-0.53148">
        <ele>47.4</ele>
        <time>2020-09-03T08:10:05Z</time>
      </trkpt>
      <trkpt lat="45.16669" lon="-0.53147">
        <ele>47.4</ele>
        <time>2020-09-03T08:10:07Z</time>
      </trkpt>
      <trkpt lat="45.16669" lon="-0.53145">
        <ele>47.2</ele>
        <time>2020-09-03T08:10:08Z</time>
      </trkpt>
      <trkpt lat="45.16668" lon="-0.53142">
        <ele>47.2</ele>
        <time>2020-09-03T08:10:10Z</time>
      </trkpt>
      <trkpt lat="45.16667" lon="-0.53141">
        <ele>47.1</ele>
        <time>2020-09-03T08:10:11Z</time>
      </trkpt>
      <trkpt lat="45.16666" lon="-0.53141">
        <ele>47.1</ele>
        <time>2020-09-03T08:10:13Z</time>
      </trkpt>
      <trkpt lat="45.16666" lon="-0.53141">
        <ele>47.1</ele>
        <time>2020-09-03T08:10:14Z</time>
      </trkpt>
      <trkpt lat="45.16665" lon="-0.53141">
        <ele>47.1</ele>
        <time>2020-09-03T08:10:16Z</time>
      </trkpt>
      <trkpt lat="45.16664" lon="-0.53141">
        <ele>47.1</ele>
        <time>2020-09-03T08:10:17Z</time>
      </trkpt>
      <trkpt lat="45.16664" lon="-0.53141">
        <ele>47.1</ele>
        <time>2020-09-03T08:10:18Z</time>
      </trkpt>
      <trkpt lat="45.16664" lon="-0.5314">
        <ele>47.1</ele>
        <time>2020-09-03T08:10:19Z</time>
      </trkpt>
      <trkpt lat="45.16664" lon="-0.53137">
        <ele>47</ele>
        <time>2020-09-03T08:10:21Z</time>
      </trkpt>
      <trkpt lat="45.16664" lon="-0.53136">
        <ele>47</ele>
        <time>2020-09-03T08:10:22Z</time>
      </trkpt>
      <trkpt lat="45.16664" lon="-0.53135">
        <ele>47</ele>
        <time>2020-09-03T08:10:23Z</time>
      </trkpt>
      <trkpt lat="45.16663" lon="-0.53132">
        <ele>46.9</ele>
        <time>2020-09-03T08:10:25Z</time>
      </trkpt>
      <trkpt lat="45.16662" lon="-0.53129">
        <ele>46.9</ele>
        <time>2020-09-03T08:10:27Z</time>
      </trkpt>
      <trkpt lat="45.16662" lon="-0.53128">
        <ele>46.8</ele>
        <time>2020-09-03T08:10:28Z</time>
      </trkpt>
      <trkpt lat="45.16661" lon="-0.53125">
        <ele>46.8</ele>
        <time>2020-09-03T08:10:29Z</time>
      </trkpt>
      <trkpt lat="45.16661" lon="-0.53124">
        <ele>46.7</ele>
        <time>2020-09-03T08:10:30Z</time>
      </trkpt>
      <trkpt lat="45.1666" lon="-0.53122">
        <ele>46.7</ele>
        <time>2020-09-03T08:10:32Z</time>
      </trkpt>
      <trkpt lat="45.1666" lon="-0.5312">
        <ele>46.6</ele>
        <time>2020-09-03T08:10:33Z</time>
      </trkpt>
      <trkpt lat="45.16659" lon="-0.53118">
        <ele>46.6</ele>
        <time>2020-09-03T08:10:34Z</time>
      </trkpt>
      <trkpt lat="45.16658" lon="-0.53115">
        <ele>46.5</ele>
        <time>2020-09-03T08:10:35Z</time>
      </trkpt>
      <trkpt lat="45.16657" lon="-0.53113">
        <ele>46.5</ele>
        <time>2020-09-03T08:10:36Z</time>
      </trkpt>
      <trkpt lat="45.16657" lon="-0.53111">
        <ele>46.5</ele>
        <time>2020-09-03T08:10:37Z</time>
      </trkpt>
      <trkpt lat="45.16656" lon="-0.53108">
        <ele>46.5</ele>
        <time>2020-09-03T08:10:39Z</time>
      </trkpt>
      <trkpt lat="45.16656" lon="-0.53106">
        <ele>46.4</ele>
        <time>2020-09-03T08:10:40Z</time>
      </trkpt>
      <trkpt lat="45.16655" lon="-0.53103">
        <ele>46.4</ele>
        <time>2020-09-03T08:10:41Z</time>
      </trkpt>
      <trkpt lat="45.16655" lon="-0.53102">
        <ele>46.4</ele>
        <time>2020-09-03T08:10:42Z</time>
      </trkpt>
      <trkpt lat="45.16654" lon="-0.53099">
        <ele>46.3</ele>
        <time>2020-09-03T08:10:43Z</time>
      </trkpt>
      <trkpt lat="45.16654" lon="-0.53097">
        <ele>46.3</ele>
        <time>2020-09-03T08:10:44Z</time>
      </trkpt>
      <trkpt lat="45.16654" lon="-0.53095">
        <ele>46.3</ele>
        <time>2020-09-03T08:10:45Z</time>
      </trkpt>
      <trkpt lat="45.16654" lon="-0.53092">
        <ele>46.3</ele>
        <time>2020-09-03T08:10:47Z</time>
      </trkpt>
      <trkpt lat="45.16654" lon="-0.5309">
        <ele>46.2</ele>
        <time>2020-09-03T08:10:48Z</time>
      </trkpt>
      <trkpt lat="45.16653" lon="-0.53087">
        <ele>46.2</ele>
        <time>2020-09-03T08:10:49Z</time>
      </trkpt>
      <trkpt lat="45.16653" lon="-0.53086">
        <ele>46.2</ele>
        <time>2020-09-03T08:10:50Z</time>
      </trkpt>
      <trkpt lat="45.16653" lon="-0.53084">
        <ele>46.2</ele>
        <time>2020-09-03T08:10:51Z</time>
      </trkpt>
      <trkpt lat="45.16652" lon="-0.53082">
        <ele>46.2</ele>
        <time>2020-09-03T08:10:52Z</time>
      </trkpt>
      <trkpt lat="45.16652" lon="-0.53081">
        <ele>46.2</ele>
        <time>2020-09-03T08:10:53Z</time>
      </trkpt>
      <trkpt lat="45.16652" lon="-0.53079">
        <ele>46.2</ele>
        <time>2020-09-03T08:10:54Z</time>
      </trkpt>
      <trkpt lat="45.16652" lon="-0.53078">
        <ele>46.2</ele>
        <time>2020-09-03T08:10:55Z</time>
      </trkpt>
      <trkpt lat="45.16651" lon="-0.53075">
        <ele>46.1</ele>
        <time>2020-09-03T08:10:57Z</time>
      </trkpt>
      <trkpt lat="45.1665" lon="-0.53072">
        <ele>46.1</ele>
        <time>2020-09-03T08:10:58Z</time>
      </trkpt>
      <trkpt lat="45.1665" lon="-0.5307">
        <ele>46.1</ele>
        <time>2020-09-03T08:10:59Z</time>
      </trkpt>
      <trkpt lat="45.16649" lon="-0.53069">
        <ele>46.1</ele>
        <time>2020-09-03T08:11:00Z</time>
      </trkpt>
      <trkpt lat="45.16649" lon="-0.53067">
        <ele>46.1</ele>
        <time>2020-09-03T08:11:02Z</time>
      </trkpt>
      <trkpt lat="45.16648" lon="-0.53064">
        <ele>46.1</ele>
        <time>2020-09-03T08:11:03Z</time>
      </trkpt>
      <trkpt lat="45.16648" lon="-0.53062">
        <ele>46.1</ele>
        <time>2020-09-03T08:11:04Z</time>
      </trkpt>
      <trkpt lat="45.16647" lon="-0.5306">
        <ele>46.1</ele>
        <time>2020-09-03T08:11:05Z</time>
      </trkpt>
      <trkpt lat="45.16646" lon="-0.53059">
        <ele>46.1</ele>
        <time>2020-09-03T08:11:06Z</time>
      </trkpt>
      <trkpt lat="45.16645" lon="-0.53057">
        <ele>46</ele>
        <time>2020-09-03T08:11:07Z</time>
      </trkpt>
      <trkpt lat="45.16644" lon="-0.53055">
        <ele>46.1</ele>
        <time>2020-09-03T08:11:08Z</time>
      </trkpt>
      <trkpt lat="45.16643" lon="-0.53053">
        <ele>46.1</ele>
        <time>2020-09-03T08:11:10Z</time>
      </trkpt>
      <trkpt lat="45.16642" lon="-0.53051">
        <ele>46.1</ele>
        <time>2020-09-03T08:11:11Z</time>
      </trkpt>
      <trkpt lat="45.16641" lon="-0.5305">
        <ele>46.1</ele>
        <time>2020-09-03T08:11:12Z</time>
      </trkpt>
      <trkpt lat="45.1664" lon="-0.53048">
        <ele>46.1</ele>
        <time>2020-09-03T08:11:13Z</time>
      </trkpt>
      <trkpt lat="45.1664" lon="-0.53046">
        <ele>46.1</ele>
        <time>2020-09-03T08:11:14Z</time>
      </trkpt>
      <trkpt lat="45.16639" lon="-0.53045">
        <ele>46.1</ele>
        <time>2020-09-03T08:11:15Z</time>
      </trkpt>
      <trkpt lat="45.16639" lon="-0.53043">
        <ele>46.1</ele>
        <time>2020-09-03T08:11:16Z</time>
      </trkpt>
      <trkpt lat="45.16639" lon="-0.53042">
        <ele>46.1</ele>
        <time>2020-09-03T08:11:17Z</time>
      </trkpt>
      <trkpt lat="45.16639" lon="-0.53041">
        <ele>46.1</ele>
        <time>2020-09-03T08:11:18Z</time>
      </trkpt>
      <trkpt lat="45.16638" lon="-0.53039">
        <ele>46.1</ele>
        <time>2020-09-03T08:11:19Z</time>
      </trkpt>
      <trkpt lat="45.16638" lon="-0.53038">
        <ele>46.2</ele>
        <time>2020-09-03T08:11:20Z</time>
      </trkpt>
      <trkpt lat="45.16638" lon="-0.53036">
        <ele>46.1</ele>
        <time>2020-09-03T08:11:21Z</time>
      </trkpt>
      <trkpt lat="45.16637" lon="-0.53032">
        <ele>46.2</ele>
        <time>2020-09-03T08:11:22Z</time>
      </trkpt>
      <trkpt lat="45.16637" lon="-0.53031">
        <ele>46.2</ele>
        <time>2020-09-03T08:11:24Z</time>
      </trkpt>
      <trkpt lat="45.16637" lon="-0.53029">
        <ele>46.2</ele>
        <time>2020-09-03T08:11:25Z</time>
      </trkpt>
      <trkpt lat="45.16636" lon="-0.53028">
        <ele>46.2</ele>
        <time>2020-09-03T08:11:26Z</time>
      </trkpt>
      <trkpt lat="45.16636" lon="-0.53026">
        <ele>46.3</ele>
        <time>2020-09-03T08:11:27Z</time>
      </trkpt>
      <trkpt lat="45.16636" lon="-0.53024">
        <ele>46.3</ele>
        <time>2020-09-03T08:11:28Z</time>
      </trkpt>
      <trkpt lat="45.16636" lon="-0.53022">
        <ele>46.4</ele>
        <time>2020-09-03T08:11:29Z</time>
      </trkpt>
      <trkpt lat="45.16636" lon="-0.53019">
        <ele>46.4</ele>
        <time>2020-09-03T08:11:30Z</time>
      </trkpt>
      <trkpt lat="45.16635" lon="-0.53017">
        <ele>46.4</ele>
        <time>2020-09-03T08:11:32Z</time>
      </trkpt>
      <trkpt lat="45.16635" lon="-0.53013">
        <ele>46.5</ele>
        <time>2020-09-03T08:11:33Z</time>
      </trkpt>
      <trkpt lat="45.16634" lon="-0.5301">
        <ele>46.5</ele>
        <time>2020-09-03T08:11:35Z</time>
      </trkpt>
      <trkpt lat="45.16634" lon="-0.53008">
        <ele>46.5</ele>
        <time>2020-09-03T08:11:36Z</time>
      </trkpt>
      <trkpt lat="45.16633" lon="-0.53006">
        <ele>46.5</ele>
        <time>2020-09-03T08:11:37Z</time>
      </trkpt>
      <trkpt lat="45.16633" lon="-0.53004">
        <ele>46.6</ele>
        <time>2020-09-03T08:11:38Z</time>
      </trkpt>
      <trkpt lat="45.16632" lon="-0.53001">
        <ele>46.6</ele>
        <time>2020-09-03T08:11:39Z</time>
      </trkpt>
      <trkpt lat="45.16632" lon="-0.52999">
        <ele>46.6</ele>
        <time>2020-09-03T08:11:40Z</time>
      </trkpt>
      <trkpt lat="45.16632" lon="-0.52997">
        <ele>46.6</ele>
        <time>2020-09-03T08:11:41Z</time>
      </trkpt>
      <trkpt lat="45.16632" lon="-0.52995">
        <ele>46.7</ele>
        <time>2020-09-03T08:11:43Z</time>
      </trkpt>
      <trkpt lat="45.16631" lon="-0.52994">
        <ele>46.7</ele>
        <time>2020-09-03T08:11:44Z</time>
      </trkpt>
      <trkpt lat="45.16631" lon="-0.52991">
        <ele>46.8</ele>
        <time>2020-09-03T08:11:45Z</time>
      </trkpt>
      <trkpt lat="45.16631" lon="-0.5299">
        <ele>46.8</ele>
        <time>2020-09-03T08:11:46Z</time>
      </trkpt>
      <trkpt lat="45.1663" lon="-0.52987">
        <ele>46.8</ele>
        <time>2020-09-03T08:11:47Z</time>
      </trkpt>
      <trkpt lat="45.1663" lon="-0.52985">
        <ele>46.8</ele>
        <time>2020-09-03T08:11:49Z</time>
      </trkpt>
      <trkpt lat="45.1663" lon="-0.52983">
        <ele>46.9</ele>
        <time>2020-09-03T08:11:50Z</time>
      </trkpt>
      <trkpt lat="45.16629" lon="-0.5298">
        <ele>46.9</ele>
        <time>2020-09-03T08:11:51Z</time>
      </trkpt>
      <trkpt lat="45.16628" lon="-0.52979">
        <ele>47</ele>
        <time>2020-09-03T08:11:52Z</time>
      </trkpt>
      <trkpt lat="45.16628" lon="-0.52977">
        <ele>47</ele>
        <time>2020-09-03T08:11:53Z</time>
      </trkpt>
      <trkpt lat="45.16628" lon="-0.52976">
        <ele>47</ele>
        <time>2020-09-03T08:11:54Z</time>
      </trkpt>
      <trkpt lat="45.16627" lon="-0.52974">
        <ele>47</ele>
        <time>2020-09-03T08:11:56Z</time>
      </trkpt>
      <trkpt lat="45.16627" lon="-0.52972">
        <ele>47</ele>
        <time>2020-09-03T08:11:57Z</time>
      </trkpt>
      <trkpt lat="45.16626" lon="-0.5297">
        <ele>47.1</ele>
        <time>2020-09-03T08:11:58Z</time>
      </trkpt>
      <trkpt lat="45.16626" lon="-0.52968">
        <ele>47.1</ele>
        <time>2020-09-03T08:11:59Z</time>
      </trkpt>
      <trkpt lat="45.16626" lon="-0.52966">
        <ele>47.2</ele>
        <time>2020-09-03T08:12:01Z</time>
      </trkpt>
      <trkpt lat="45.16626" lon="-0.52964">
        <ele>47.2</ele>
        <time>2020-09-03T08:12:02Z</time>
      </trkpt>
      <trkpt lat="45.16625" lon="-0.52961">
        <ele>47.3</ele>
        <time>2020-09-03T08:12:03Z</time>
      </trkpt>
      <trkpt lat="45.16625" lon="-0.52959">
        <ele>47.3</ele>
        <time>2020-09-03T08:12:04Z</time>
      </trkpt>
      <trkpt lat="45.16625" lon="-0.52958">
        <ele>47.3</ele>
        <time>2020-09-03T08:12:05Z</time>
      </trkpt>
      <trkpt lat="45.16625" lon="-0.52956">
        <ele>47.3</ele>
        <time>2020-09-03T08:12:07Z</time>
      </trkpt>
      <trkpt lat="45.16625" lon="-0.52953">
        <ele>47.4</ele>
        <time>2020-09-03T08:12:08Z</time>
      </trkpt>
      <trkpt lat="45.16625" lon="-0.52951">
        <ele>47.4</ele>
        <time>2020-09-03T08:12:09Z</time>
      </trkpt>
      <trkpt lat="45.16625" lon="-0.52949">
        <ele>47.4</ele>
        <time>2020-09-03T08:12:10Z</time>
      </trkpt>
      <trkpt lat="45.16625" lon="-0.52947">
        <ele>47.5</ele>
        <time>2020-09-03T08:12:11Z</time>
      </trkpt>
      <trkpt lat="45.16625" lon="-0.52945">
        <ele>47.5</ele>
        <time>2020-09-03T08:12:13Z</time>
      </trkpt>
      <trkpt lat="45.16625" lon="-0.52943">
        <ele>47.6</ele>
        <time>2020-09-03T08:12:14Z</time>
      </trkpt>
      <trkpt lat="45.16624" lon="-0.52941">
        <ele>47.6</ele>
        <time>2020-09-03T08:12:15Z</time>
      </trkpt>
      <trkpt lat="45.16624" lon="-0.52938">
        <ele>47.7</ele>
        <time>2020-09-03T08:12:16Z</time>
      </trkpt>
      <trkpt lat="45.16624" lon="-0.52936">
        <ele>47.7</ele>
        <time>2020-09-03T08:12:17Z</time>
      </trkpt>
      <trkpt lat="45.16624" lon="-0.52935">
        <ele>47.7</ele>
        <time>2020-09-03T08:12:18Z</time>
      </trkpt>
      <trkpt lat="45.16624" lon="-0.52933">
        <ele>47.7</ele>
        <time>2020-09-03T08:12:19Z</time>
      </trkpt>
      <trkpt lat="45.16624" lon="-0.52931">
        <ele>47.8</ele>
        <time>2020-09-03T08:12:21Z</time>
      </trkpt>
      <trkpt lat="45.16623" lon="-0.52927">
        <ele>47.9</ele>
        <time>2020-09-03T08:12:23Z</time>
      </trkpt>
      <trkpt lat="45.16623" lon="-0.52926">
        <ele>47.9</ele>
        <time>2020-09-03T08:12:24Z</time>
      </trkpt>
      <trkpt lat="45.16623" lon="-0.52923">
        <ele>47.9</ele>
        <time>2020-09-03T08:12:25Z</time>
      </trkpt>
      <trkpt lat="45.16623" lon="-0.52921">
        <ele>48</ele>
        <time>2020-09-03T08:12:27Z</time>
      </trkpt>
      <trkpt lat="45.16624" lon="-0.5292">
        <ele>48</ele>
        <time>2020-09-03T08:12:29Z</time>
      </trkpt>
      <trkpt lat="45.16625" lon="-0.5292">
        <ele>47.9</ele>
        <time>2020-09-03T08:12:30Z</time>
      </trkpt>
      <trkpt lat="45.16626" lon="-0.5292">
        <ele>47.9</ele>
        <time>2020-09-03T08:12:31Z</time>
      </trkpt>
      <trkpt lat="45.16627" lon="-0.5292">
        <ele>47.9</ele>
        <time>2020-09-03T08:12:32Z</time>
      </trkpt>
      <trkpt lat="45.16627" lon="-0.52919">
        <ele>47.9</ele>
        <time>2020-09-03T08:12:34Z</time>
      </trkpt>
      <trkpt lat="45.16628" lon="-0.52919">
        <ele>47.9</ele>
        <time>2020-09-03T08:12:35Z</time>
      </trkpt>
      <trkpt lat="45.16628" lon="-0.52918">
        <ele>47.9</ele>
        <time>2020-09-03T08:12:36Z</time>
      </trkpt>
      <trkpt lat="45.16628" lon="-0.52917">
        <ele>47.9</ele>
        <time>2020-09-03T08:12:37Z</time>
      </trkpt>
      <trkpt lat="45.16627" lon="-0.52916">
        <ele>48</ele>
        <time>2020-09-03T08:12:39Z</time>
      </trkpt>
      <trkpt lat="45.16627" lon="-0.52915">
        <ele>48</ele>
        <time>2020-09-03T08:12:40Z</time>
      </trkpt>
      <trkpt lat="45.16626" lon="-0.52913">
        <ele>48</ele>
        <time>2020-09-03T08:12:41Z</time>
      </trkpt>
      <trkpt lat="45.16625" lon="-0.52911">
        <ele>48</ele>
        <time>2020-09-03T08:12:42Z</time>
      </trkpt>
      <trkpt lat="45.16624" lon="-0.52909">
        <ele>48.1</ele>
        <time>2020-09-03T08:12:43Z</time>
      </trkpt>
      <trkpt lat="45.16623" lon="-0.52908">
        <ele>48.1</ele>
        <time>2020-09-03T08:12:45Z</time>
      </trkpt>
      <trkpt lat="45.16623" lon="-0.52906">
        <ele>48.2</ele>
        <time>2020-09-03T08:12:46Z</time>
      </trkpt>
      <trkpt lat="45.16622" lon="-0.52904">
        <ele>48.2</ele>
        <time>2020-09-03T08:12:47Z</time>
      </trkpt>
      <trkpt lat="45.16622" lon="-0.52903">
        <ele>48.2</ele>
        <time>2020-09-03T08:12:48Z</time>
      </trkpt>
      <trkpt lat="45.16621" lon="-0.52902">
        <ele>48.2</ele>
        <time>2020-09-03T08:12:49Z</time>
      </trkpt>
      <trkpt lat="45.16621" lon="-0.529">
        <ele>48.3</ele>
        <time>2020-09-03T08:12:50Z</time>
      </trkpt>
      <trkpt lat="45.1662" lon="-0.52898">
        <ele>48.3</ele>
        <time>2020-09-03T08:12:51Z</time>
      </trkpt>
      <trkpt lat="45.16619" lon="-0.52896">
        <ele>48.3</ele>
        <time>2020-09-03T08:12:53Z</time>
      </trkpt>
      <trkpt lat="45.16619" lon="-0.52895">
        <ele>48.3</ele>
        <time>2020-09-03T08:12:54Z</time>
      </trkpt>
      <trkpt lat="45.16617" lon="-0.52892">
        <ele>48.5</ele>
        <time>2020-09-03T08:12:56Z</time>
      </trkpt>
      <trkpt lat="45.16617" lon="-0.5289">
        <ele>48.4</ele>
        <time>2020-09-03T08:12:57Z</time>
      </trkpt>
      <trkpt lat="45.16616" lon="-0.52888">
        <ele>48.5</ele>
        <time>2020-09-03T08:12:58Z</time>
      </trkpt>
      <trkpt lat="45.16615" lon="-0.52884">
        <ele>48.6</ele>
        <time>2020-09-03T08:12:59Z</time>
      </trkpt>
      <trkpt lat="45.16615" lon="-0.52883">
        <ele>48.6</ele>
        <time>2020-09-03T08:13:00Z</time>
      </trkpt>
      <trkpt lat="45.16614" lon="-0.52881">
        <ele>48.6</ele>
        <time>2020-09-03T08:13:02Z</time>
      </trkpt>
      <trkpt lat="45.16614" lon="-0.52879">
        <ele>48.7</ele>
        <time>2020-09-03T08:13:03Z</time>
      </trkpt>
      <trkpt lat="45.16613" lon="-0.52877">
        <ele>48.7</ele>
        <time>2020-09-03T08:13:04Z</time>
      </trkpt>
      <trkpt lat="45.16613" lon="-0.52875">
        <ele>48.8</ele>
        <time>2020-09-03T08:13:05Z</time>
      </trkpt>
      <trkpt lat="45.16612" lon="-0.52873">
        <ele>48.8</ele>
        <time>2020-09-03T08:13:06Z</time>
      </trkpt>
      <trkpt lat="45.16611" lon="-0.52871">
        <ele>48.9</ele>
        <time>2020-09-03T08:13:07Z</time>
      </trkpt>
      <trkpt lat="45.16611" lon="-0.5287">
        <ele>48.9</ele>
        <time>2020-09-03T08:13:08Z</time>
      </trkpt>
      <trkpt lat="45.16611" lon="-0.52867">
        <ele>49</ele>
        <time>2020-09-03T08:13:10Z</time>
      </trkpt>
      <trkpt lat="45.1661" lon="-0.52866">
        <ele>49</ele>
        <time>2020-09-03T08:13:11Z</time>
      </trkpt>
      <trkpt lat="45.1661" lon="-0.52865">
        <ele>48.9</ele>
        <time>2020-09-03T08:13:12Z</time>
      </trkpt>
      <trkpt lat="45.16609" lon="-0.52862">
        <ele>49.1</ele>
        <time>2020-09-03T08:13:13Z</time>
      </trkpt>
      <trkpt lat="45.16609" lon="-0.52861">
        <ele>49.1</ele>
        <time>2020-09-03T08:13:14Z</time>
      </trkpt>
      <trkpt lat="45.16609" lon="-0.5286">
        <ele>49.1</ele>
        <time>2020-09-03T08:13:15Z</time>
      </trkpt>
      <trkpt lat="45.16608" lon="-0.52856">
        <ele>49.1</ele>
        <time>2020-09-03T08:13:16Z</time>
      </trkpt>
      <trkpt lat="45.16607" lon="-0.52854">
        <ele>49.2</ele>
        <time>2020-09-03T08:13:18Z</time>
      </trkpt>
      <trkpt lat="45.16607" lon="-0.52853">
        <ele>49.2</ele>
        <time>2020-09-03T08:13:20Z</time>
      </trkpt>
      <trkpt lat="45.16606" lon="-0.52851">
        <ele>49.3</ele>
        <time>2020-09-03T08:13:21Z</time>
      </trkpt>
      <trkpt lat="45.16605" lon="-0.52849">
        <ele>49.3</ele>
        <time>2020-09-03T08:13:22Z</time>
      </trkpt>
      <trkpt lat="45.16604" lon="-0.52847">
        <ele>49.3</ele>
        <time>2020-09-03T08:13:23Z</time>
      </trkpt>
      <trkpt lat="45.16603" lon="-0.52844">
        <ele>49.4</ele>
        <time>2020-09-03T08:13:24Z</time>
      </trkpt>
      <trkpt lat="45.16602" lon="-0.52843">
        <ele>49.4</ele>
        <time>2020-09-03T08:13:25Z</time>
      </trkpt>
      <trkpt lat="45.16601" lon="-0.52839">
        <ele>49.5</ele>
        <time>2020-09-03T08:13:27Z</time>
      </trkpt>
      <trkpt lat="45.166" lon="-0.52838">
        <ele>49.5</ele>
        <time>2020-09-03T08:13:28Z</time>
      </trkpt>
      <trkpt lat="45.166" lon="-0.52837">
        <ele>49.6</ele>
        <time>2020-09-03T08:13:29Z</time>
      </trkpt>
      <trkpt lat="45.16599" lon="-0.52835">
        <ele>49.6</ele>
        <time>2020-09-03T08:13:30Z</time>
      </trkpt>
      <trkpt lat="45.16598" lon="-0.52832">
        <ele>49.6</ele>
        <time>2020-09-03T08:13:32Z</time>
      </trkpt>
      <trkpt lat="45.16597" lon="-0.52828">
        <ele>49.7</ele>
        <time>2020-09-03T08:13:33Z</time>
      </trkpt>
      <trkpt lat="45.16597" lon="-0.52827">
        <ele>49.7</ele>
        <time>2020-09-03T08:13:34Z</time>
      </trkpt>
      <trkpt lat="45.16597" lon="-0.52825">
        <ele>49.7</ele>
        <time>2020-09-03T08:13:35Z</time>
      </trkpt>
      <trkpt lat="45.16596" lon="-0.52822">
        <ele>49.7</ele>
        <time>2020-09-03T08:13:37Z</time>
      </trkpt>
      <trkpt lat="45.16596" lon="-0.52817">
        <ele>49.7</ele>
        <time>2020-09-03T08:13:38Z</time>
      </trkpt>
      <trkpt lat="45.16595" lon="-0.52816">
        <ele>49.7</ele>
        <time>2020-09-03T08:13:39Z</time>
      </trkpt>
      <trkpt lat="45.16595" lon="-0.52812">
        <ele>49.7</ele>
        <time>2020-09-03T08:13:41Z</time>
      </trkpt>
      <trkpt lat="45.16594" lon="-0.5281">
        <ele>49.8</ele>
        <time>2020-09-03T08:13:42Z</time>
      </trkpt>
      <trkpt lat="45.16594" lon="-0.52808">
        <ele>49.8</ele>
        <time>2020-09-03T08:13:43Z</time>
      </trkpt>
      <trkpt lat="45.16593" lon="-0.52807">
        <ele>49.8</ele>
        <time>2020-09-03T08:13:44Z</time>
      </trkpt>
      <trkpt lat="45.16593" lon="-0.52805">
        <ele>49.8</ele>
        <time>2020-09-03T08:13:46Z</time>
      </trkpt>
      <trkpt lat="45.16593" lon="-0.52802">
        <ele>49.7</ele>
        <time>2020-09-03T08:13:47Z</time>
      </trkpt>
      <trkpt lat="45.16592" lon="-0.52799">
        <ele>49.7</ele>
        <time>2020-09-03T08:13:48Z</time>
      </trkpt>
      <trkpt lat="45.16592" lon="-0.52798">
        <ele>49.7</ele>
        <time>2020-09-03T08:13:49Z</time>
      </trkpt>
      <trkpt lat="45.16592" lon="-0.52797">
        <ele>49.7</ele>
        <time>2020-09-03T08:13:50Z</time>
      </trkpt>
      <trkpt lat="45.16591" lon="-0.52795">
        <ele>49.7</ele>
        <time>2020-09-03T08:13:51Z</time>
      </trkpt>
      <trkpt lat="45.16591" lon="-0.52793">
        <ele>49.7</ele>
        <time>2020-09-03T08:13:52Z</time>
      </trkpt>
      <trkpt lat="45.16591" lon="-0.52791">
        <ele>49.7</ele>
        <time>2020-09-03T08:13:53Z</time>
      </trkpt>
      <trkpt lat="45.1659" lon="-0.52789">
        <ele>49.7</ele>
        <time>2020-09-03T08:13:55Z</time>
      </trkpt>
      <trkpt lat="45.1659" lon="-0.52787">
        <ele>49.7</ele>
        <time>2020-09-03T08:13:56Z</time>
      </trkpt>
      <trkpt lat="45.1659" lon="-0.52785">
        <ele>49.7</ele>
        <time>2020-09-03T08:13:57Z</time>
      </trkpt>
      <trkpt lat="45.16589" lon="-0.52784">
        <ele>49.7</ele>
        <time>2020-09-03T08:13:58Z</time>
      </trkpt>
      <trkpt lat="45.16589" lon="-0.5278">
        <ele>49.6</ele>
        <time>2020-09-03T08:14:00Z</time>
      </trkpt>
      <trkpt lat="45.16589" lon="-0.52777">
        <ele>49.6</ele>
        <time>2020-09-03T08:14:01Z</time>
      </trkpt>
      <trkpt lat="45.16588" lon="-0.52776">
        <ele>49.6</ele>
        <time>2020-09-03T08:14:02Z</time>
      </trkpt>
      <trkpt lat="45.16587" lon="-0.52774">
        <ele>49.6</ele>
        <time>2020-09-03T08:14:03Z</time>
      </trkpt>
      <trkpt lat="45.16586" lon="-0.52773">
        <ele>49.6</ele>
        <time>2020-09-03T08:14:05Z</time>
      </trkpt>
      <trkpt lat="45.16584" lon="-0.52773">
        <ele>49.6</ele>
        <time>2020-09-03T08:14:06Z</time>
      </trkpt>
      <trkpt lat="45.16583" lon="-0.52774">
        <ele>49.6</ele>
        <time>2020-09-03T08:14:07Z</time>
      </trkpt>
      <trkpt lat="45.1658" lon="-0.52774">
        <ele>49.6</ele>
        <time>2020-09-03T08:14:08Z</time>
      </trkpt>
      <trkpt lat="45.16578" lon="-0.52775">
        <ele>49.6</ele>
        <time>2020-09-03T08:14:10Z</time>
      </trkpt>
      <trkpt lat="45.16575" lon="-0.52777">
        <ele>49.6</ele>
        <time>2020-09-03T08:14:11Z</time>
      </trkpt>
      <trkpt lat="45.16574" lon="-0.52778">
        <ele>49.7</ele>
        <time>2020-09-03T08:14:12Z</time>
      </trkpt>
      <trkpt lat="45.16573" lon="-0.52779">
        <ele>49.6</ele>
        <time>2020-09-03T08:14:13Z</time>
      </trkpt>
      <trkpt lat="45.16572" lon="-0.52779">
        <ele>49.6</ele>
        <time>2020-09-03T08:14:14Z</time>
      </trkpt>
      <trkpt lat="45.1657" lon="-0.5278">
        <ele>49.6</ele>
        <time>2020-09-03T08:14:15Z</time>
      </trkpt>
      <trkpt lat="45.16569" lon="-0.52781">
        <ele>49.6</ele>
        <time>2020-09-03T08:14:17Z</time>
      </trkpt>
      <trkpt lat="45.16567" lon="-0.52781">
        <ele>49.6</ele>
        <time>2020-09-03T08:14:18Z</time>
      </trkpt>
      <trkpt lat="45.16566" lon="-0.52782">
        <ele>49.6</ele>
        <time>2020-09-03T08:14:19Z</time>
      </trkpt>
      <trkpt lat="45.16564" lon="-0.52782">
        <ele>49.6</ele>
        <time>2020-09-03T08:14:20Z</time>
      </trkpt>
      <trkpt lat="45.16562" lon="-0.52783">
        <ele>49.6</ele>
        <time>2020-09-03T08:14:21Z</time>
      </trkpt>
      <trkpt lat="45.16561" lon="-0.52783">
        <ele>49.6</ele>
        <time>2020-09-03T08:14:22Z</time>
      </trkpt>
      <trkpt lat="45.16559" lon="-0.52783">
        <ele>49.6</ele>
        <time>2020-09-03T08:14:24Z</time>
      </trkpt>
      <trkpt lat="45.16558" lon="-0.52784">
        <ele>49.6</ele>
        <time>2020-09-03T08:14:25Z</time>
      </trkpt>
      <trkpt lat="45.16556" lon="-0.52784">
        <ele>49.6</ele>
        <time>2020-09-03T08:14:26Z</time>
      </trkpt>
      <trkpt lat="45.16554" lon="-0.52784">
        <ele>49.5</ele>
        <time>2020-09-03T08:14:27Z</time>
      </trkpt>
      <trkpt lat="45.16553" lon="-0.52784">
        <ele>49.5</ele>
        <time>2020-09-03T08:14:28Z</time>
      </trkpt>
      <trkpt lat="45.16552" lon="-0.52784">
        <ele>49.5</ele>
        <time>2020-09-03T08:14:29Z</time>
      </trkpt>
      <trkpt lat="45.16551" lon="-0.52784">
        <ele>49.5</ele>
        <time>2020-09-03T08:14:30Z</time>
      </trkpt>
      <trkpt lat="45.16549" lon="-0.52784">
        <ele>49.5</ele>
        <time>2020-09-03T08:14:32Z</time>
      </trkpt>
      <trkpt lat="45.16548" lon="-0.52784">
        <ele>49.4</ele>
        <time>2020-09-03T08:14:33Z</time>
      </trkpt>
      <trkpt lat="45.16547" lon="-0.52784">
        <ele>49.4</ele>
        <time>2020-09-03T08:14:35Z</time>
      </trkpt>
      <trkpt lat="45.16547" lon="-0.52784">
        <ele>49.4</ele>
        <time>2020-09-03T08:14:37Z</time>
      </trkpt>
      <trkpt lat="45.16548" lon="-0.52783">
        <ele>49.4</ele>
        <time>2020-09-03T08:14:38Z</time>
      </trkpt>
      <trkpt lat="45.16548" lon="-0.52783">
        <ele>49.4</ele>
        <time>2020-09-03T08:14:40Z</time>
      </trkpt>
      <trkpt lat="45.16549" lon="-0.52782">
        <ele>49.4</ele>
        <time>2020-09-03T08:14:41Z</time>
      </trkpt>
      <trkpt lat="45.16549" lon="-0.52782">
        <ele>49.4</ele>
        <time>2020-09-03T08:14:42Z</time>
      </trkpt>
      <trkpt lat="45.16549" lon="-0.52782">
        <ele>49.4</ele>
        <time>2020-09-03T08:14:44Z</time>
      </trkpt>
      <trkpt lat="45.16549" lon="-0.52783">
        <ele>49.4</ele>
        <time>2020-09-03T08:14:45Z</time>
      </trkpt>
      <trkpt lat="45.16549" lon="-0.52783">
        <ele>49.4</ele>
        <time>2020-09-03T08:14:47Z</time>
      </trkpt>
      <trkpt lat="45.16549" lon="-0.52782">
        <ele>49.4</ele>
        <time>2020-09-03T08:14:48Z</time>
      </trkpt>
      <trkpt lat="45.16549" lon="-0.52781">
        <ele>49.4</ele>
        <time>2020-09-03T08:14:49Z</time>
      </trkpt>
      <trkpt lat="45.16549" lon="-0.5278">
        <ele>49.3</ele>
        <time>2020-09-03T08:14:50Z</time>
      </trkpt>
      <trkpt lat="45.16548" lon="-0.52778">
        <ele>49.3</ele>
        <time>2020-09-03T08:14:51Z</time>
      </trkpt>
      <trkpt lat="45.16548" lon="-0.52777">
        <ele>49.3</ele>
        <time>2020-09-03T08:14:52Z</time>
      </trkpt>
      <trkpt lat="45.16548" lon="-0.52776">
        <ele>49.3</ele>
        <time>2020-09-03T08:14:53Z</time>
      </trkpt>
      <trkpt lat="45.16547" lon="-0.52773">
        <ele>49.2</ele>
        <time>2020-09-03T08:14:54Z</time>
      </trkpt>
      <trkpt lat="45.16547" lon="-0.52772">
        <ele>49.2</ele>
        <time>2020-09-03T08:14:56Z</time>
      </trkpt>
      <trkpt lat="45.16547" lon="-0.5277">
        <ele>49.2</ele>
        <time>2020-09-03T08:14:57Z</time>
      </trkpt>
      <trkpt lat="45.16547" lon="-0.52769">
        <ele>49.2</ele>
        <time>2020-09-03T08:14:58Z</time>
      </trkpt>
      <trkpt lat="45.16546" lon="-0.52766">
        <ele>49.2</ele>
        <time>2020-09-03T08:14:59Z</time>
      </trkpt>
      <trkpt lat="45.16546" lon="-0.52764">
        <ele>49.1</ele>
        <time>2020-09-03T08:15:00Z</time>
      </trkpt>
      <trkpt lat="45.16545" lon="-0.52762">
        <ele>49.1</ele>
        <time>2020-09-03T08:15:01Z</time>
      </trkpt>
      <trkpt lat="45.16545" lon="-0.52759">
        <ele>49.1</ele>
        <time>2020-09-03T08:15:03Z</time>
      </trkpt>
      <trkpt lat="45.16544" lon="-0.52757">
        <ele>49.1</ele>
        <time>2020-09-03T08:15:04Z</time>
      </trkpt>
      <trkpt lat="45.16544" lon="-0.52753">
        <ele>49</ele>
        <time>2020-09-03T08:15:06Z</time>
      </trkpt>
      <trkpt lat="45.16543" lon="-0.52752">
        <ele>49</ele>
        <time>2020-09-03T08:15:07Z</time>
      </trkpt>
      <trkpt lat="45.16543" lon="-0.5275">
        <ele>49</ele>
        <time>2020-09-03T08:15:08Z</time>
      </trkpt>
      <trkpt lat="45.16543" lon="-0.52748">
        <ele>49</ele>
        <time>2020-09-03T08:15:09Z</time>
      </trkpt>
      <trkpt lat="45.16543" lon="-0.52747">
        <ele>49</ele>
        <time>2020-09-03T08:15:10Z</time>
      </trkpt>
      <trkpt lat="45.16543" lon="-0.52745">
        <ele>48.9</ele>
        <time>2020-09-03T08:15:12Z</time>
      </trkpt>
      <trkpt lat="45.16543" lon="-0.52744">
        <ele>48.9</ele>
        <time>2020-09-03T08:15:13Z</time>
      </trkpt>
      <trkpt lat="45.16543" lon="-0.52742">
        <ele>48.9</ele>
        <time>2020-09-03T08:15:14Z</time>
      </trkpt>
      <trkpt lat="45.16542" lon="-0.5274">
        <ele>48.9</ele>
        <time>2020-09-03T08:15:15Z</time>
      </trkpt>
      <trkpt lat="45.16542" lon="-0.52738">
        <ele>48.9</ele>
        <time>2020-09-03T08:15:16Z</time>
      </trkpt>
      <trkpt lat="45.16541" lon="-0.52736">
        <ele>48.9</ele>
        <time>2020-09-03T08:15:17Z</time>
      </trkpt>
      <trkpt lat="45.16541" lon="-0.52733">
        <ele>48.9</ele>
        <time>2020-09-03T08:15:18Z</time>
      </trkpt>
      <trkpt lat="45.16541" lon="-0.52732">
        <ele>48.9</ele>
        <time>2020-09-03T08:15:19Z</time>
      </trkpt>
      <trkpt lat="45.1654" lon="-0.5273">
        <ele>48.9</ele>
        <time>2020-09-03T08:15:20Z</time>
      </trkpt>
      <trkpt lat="45.1654" lon="-0.52728">
        <ele>48.9</ele>
        <time>2020-09-03T08:15:22Z</time>
      </trkpt>
      <trkpt lat="45.1654" lon="-0.52726">
        <ele>48.9</ele>
        <time>2020-09-03T08:15:23Z</time>
      </trkpt>
      <trkpt lat="45.1654" lon="-0.52724">
        <ele>48.9</ele>
        <time>2020-09-03T08:15:24Z</time>
      </trkpt>
      <trkpt lat="45.16539" lon="-0.52723">
        <ele>48.9</ele>
        <time>2020-09-03T08:15:25Z</time>
      </trkpt>
      <trkpt lat="45.16539" lon="-0.52721">
        <ele>48.9</ele>
        <time>2020-09-03T08:15:26Z</time>
      </trkpt>
      <trkpt lat="45.16539" lon="-0.52719">
        <ele>48.9</ele>
        <time>2020-09-03T08:15:28Z</time>
      </trkpt>
      <trkpt lat="45.16539" lon="-0.52718">
        <ele>48.9</ele>
        <time>2020-09-03T08:15:29Z</time>
      </trkpt>
      <trkpt lat="45.16538" lon="-0.52715">
        <ele>48.9</ele>
        <time>2020-09-03T08:15:30Z</time>
      </trkpt>
      <trkpt lat="45.16538" lon="-0.52712">
        <ele>49</ele>
        <time>2020-09-03T08:15:32Z</time>
      </trkpt>
      <trkpt lat="45.16537" lon="-0.52711">
        <ele>48.9</ele>
        <time>2020-09-03T08:15:33Z</time>
      </trkpt>
      <trkpt lat="45.16537" lon="-0.52708">
        <ele>49</ele>
        <time>2020-09-03T08:15:34Z</time>
      </trkpt>
      <trkpt lat="45.16536" lon="-0.52705">
        <ele>49</ele>
        <time>2020-09-03T08:15:36Z</time>
      </trkpt>
      <trkpt lat="45.16535" lon="-0.52701">
        <ele>49</ele>
        <time>2020-09-03T08:15:37Z</time>
      </trkpt>
      <trkpt lat="45.16534" lon="-0.527">
        <ele>49</ele>
        <time>2020-09-03T08:15:38Z</time>
      </trkpt>
      <trkpt lat="45.16533" lon="-0.52696">
        <ele>49</ele>
        <time>2020-09-03T08:15:40Z</time>
      </trkpt>
      <trkpt lat="45.16532" lon="-0.52695">
        <ele>49.1</ele>
        <time>2020-09-03T08:15:41Z</time>
      </trkpt>
      <trkpt lat="45.16532" lon="-0.52694">
        <ele>49.1</ele>
        <time>2020-09-03T08:15:42Z</time>
      </trkpt>
      <trkpt lat="45.16531" lon="-0.52691">
        <ele>49.1</ele>
        <time>2020-09-03T08:15:44Z</time>
      </trkpt>
      <trkpt lat="45.1653" lon="-0.5269">
        <ele>49.1</ele>
        <time>2020-09-03T08:15:45Z</time>
      </trkpt>
      <trkpt lat="45.16529" lon="-0.52688">
        <ele>49.1</ele>
        <time>2020-09-03T08:15:47Z</time>
      </trkpt>
      <trkpt lat="45.16528" lon="-0.52686">
        <ele>49.2</ele>
        <time>2020-09-03T08:15:48Z</time>
      </trkpt>
      <trkpt lat="45.16528" lon="-0.52685">
        <ele>49.2</ele>
        <time>2020-09-03T08:15:49Z</time>
      </trkpt>
      <trkpt lat="45.16527" lon="-0.52683">
        <ele>49.2</ele>
        <time>2020-09-03T08:15:50Z</time>
      </trkpt>
      <trkpt lat="45.16527" lon="-0.52682">
        <ele>49.2</ele>
        <time>2020-09-03T08:15:51Z</time>
      </trkpt>
      <trkpt lat="45.16526" lon="-0.52679">
        <ele>49.3</ele>
        <time>2020-09-03T08:15:53Z</time>
      </trkpt>
      <trkpt lat="45.16525" lon="-0.52675">
        <ele>49.3</ele>
        <time>2020-09-03T08:15:54Z</time>
      </trkpt>
      <trkpt lat="45.16524" lon="-0.52674">
        <ele>49.3</ele>
        <time>2020-09-03T08:15:55Z</time>
      </trkpt>
      <trkpt lat="45.16524" lon="-0.52671">
        <ele>49.3</ele>
        <time>2020-09-03T08:15:56Z</time>
      </trkpt>
      <trkpt lat="45.16523" lon="-0.52669">
        <ele>49.4</ele>
        <time>2020-09-03T08:15:58Z</time>
      </trkpt>
      <trkpt lat="45.16523" lon="-0.52667">
        <ele>49.4</ele>
        <time>2020-09-03T08:15:59Z</time>
      </trkpt>
      <trkpt lat="45.16522" lon="-0.52665">
        <ele>49.4</ele>
        <time>2020-09-03T08:16:00Z</time>
      </trkpt>
      <trkpt lat="45.16522" lon="-0.52664">
        <ele>49.4</ele>
        <time>2020-09-03T08:16:01Z</time>
      </trkpt>
      <trkpt lat="45.16522" lon="-0.52662">
        <ele>49.4</ele>
        <time>2020-09-03T08:16:02Z</time>
      </trkpt>
      <trkpt lat="45.16521" lon="-0.5266">
        <ele>49.5</ele>
        <time>2020-09-03T08:16:03Z</time>
      </trkpt>
      <trkpt lat="45.16521" lon="-0.52658">
        <ele>49.5</ele>
        <time>2020-09-03T08:16:04Z</time>
      </trkpt>
      <trkpt lat="45.1652" lon="-0.52656">
        <ele>49.5</ele>
        <time>2020-09-03T08:16:05Z</time>
      </trkpt>
      <trkpt lat="45.1652" lon="-0.52654">
        <ele>49.5</ele>
        <time>2020-09-03T08:16:06Z</time>
      </trkpt>
      <trkpt lat="45.1652" lon="-0.52653">
        <ele>49.6</ele>
        <time>2020-09-03T08:16:07Z</time>
      </trkpt>
      <trkpt lat="45.16519" lon="-0.52651">
        <ele>49.6</ele>
        <time>2020-09-03T08:16:08Z</time>
      </trkpt>
      <trkpt lat="45.16519" lon="-0.52648">
        <ele>49.6</ele>
        <time>2020-09-03T08:16:09Z</time>
      </trkpt>
      <trkpt lat="45.16519" lon="-0.52647">
        <ele>49.6</ele>
        <time>2020-09-03T08:16:10Z</time>
      </trkpt>
      <trkpt lat="45.16519" lon="-0.52645">
        <ele>49.6</ele>
        <time>2020-09-03T08:16:11Z</time>
      </trkpt>
      <trkpt lat="45.16519" lon="-0.52642">
        <ele>49.7</ele>
        <time>2020-09-03T08:16:13Z</time>
      </trkpt>
      <trkpt lat="45.16519" lon="-0.52641">
        <ele>49.7</ele>
        <time>2020-09-03T08:16:14Z</time>
      </trkpt>
      <trkpt lat="45.16519" lon="-0.5264">
        <ele>49.7</ele>
        <time>2020-09-03T08:16:15Z</time>
      </trkpt>
      <trkpt lat="45.16518" lon="-0.52637">
        <ele>49.7</ele>
        <time>2020-09-03T08:16:16Z</time>
      </trkpt>
      <trkpt lat="45.16518" lon="-0.52636">
        <ele>49.7</ele>
        <time>2020-09-03T08:16:17Z</time>
      </trkpt>
      <trkpt lat="45.16518" lon="-0.52635">
        <ele>49.7</ele>
        <time>2020-09-03T08:16:18Z</time>
      </trkpt>
      <trkpt lat="45.16518" lon="-0.52632">
        <ele>49.7</ele>
        <time>2020-09-03T08:16:19Z</time>
      </trkpt>
      <trkpt lat="45.16517" lon="-0.52629">
        <ele>49.8</ele>
        <time>2020-09-03T08:16:21Z</time>
      </trkpt>
      <trkpt lat="45.16517" lon="-0.52628">
        <ele>49.8</ele>
        <time>2020-09-03T08:16:22Z</time>
      </trkpt>
      <trkpt lat="45.16517" lon="-0.52626">
        <ele>49.8</ele>
        <time>2020-09-03T08:16:23Z</time>
      </trkpt>
      <trkpt lat="45.16516" lon="-0.52623">
        <ele>49.8</ele>
        <time>2020-09-03T08:16:24Z</time>
      </trkpt>
      <trkpt lat="45.16516" lon="-0.52621">
        <ele>49.8</ele>
        <time>2020-09-03T08:16:25Z</time>
      </trkpt>
      <trkpt lat="45.16515" lon="-0.52619">
        <ele>49.8</ele>
        <time>2020-09-03T08:16:27Z</time>
      </trkpt>
      <trkpt lat="45.16515" lon="-0.52616">
        <ele>49.9</ele>
        <time>2020-09-03T08:16:28Z</time>
      </trkpt>
      <trkpt lat="45.16514" lon="-0.52613">
        <ele>49.9</ele>
        <time>2020-09-03T08:16:29Z</time>
      </trkpt>
      <trkpt lat="45.16513" lon="-0.52612">
        <ele>49.9</ele>
        <time>2020-09-03T08:16:30Z</time>
      </trkpt>
      <trkpt lat="45.16513" lon="-0.52611">
        <ele>49.9</ele>
        <time>2020-09-03T08:16:31Z</time>
      </trkpt>
      <trkpt lat="45.16513" lon="-0.5261">
        <ele>49.9</ele>
        <time>2020-09-03T08:16:32Z</time>
      </trkpt>
      <trkpt lat="45.16513" lon="-0.52608">
        <ele>49.9</ele>
        <time>2020-09-03T08:16:34Z</time>
      </trkpt>
      <trkpt lat="45.16513" lon="-0.52606">
        <ele>49.9</ele>
        <time>2020-09-03T08:16:35Z</time>
      </trkpt>
      <trkpt lat="45.16513" lon="-0.52605">
        <ele>49.9</ele>
        <time>2020-09-03T08:16:36Z</time>
      </trkpt>
      <trkpt lat="45.16512" lon="-0.52602">
        <ele>49.9</ele>
        <time>2020-09-03T08:16:37Z</time>
      </trkpt>
      <trkpt lat="45.16512" lon="-0.526">
        <ele>50</ele>
        <time>2020-09-03T08:16:38Z</time>
      </trkpt>
      <trkpt lat="45.16512" lon="-0.52599">
        <ele>50</ele>
        <time>2020-09-03T08:16:39Z</time>
      </trkpt>
      <trkpt lat="45.16511" lon="-0.52597">
        <ele>50</ele>
        <time>2020-09-03T08:16:41Z</time>
      </trkpt>
      <trkpt lat="45.16511" lon="-0.52595">
        <ele>50</ele>
        <time>2020-09-03T08:16:42Z</time>
      </trkpt>
      <trkpt lat="45.1651" lon="-0.52593">
        <ele>50</ele>
        <time>2020-09-03T08:16:43Z</time>
      </trkpt>
      <trkpt lat="45.16509" lon="-0.52592">
        <ele>50</ele>
        <time>2020-09-03T08:16:44Z</time>
      </trkpt>
      <trkpt lat="45.16509" lon="-0.5259">
        <ele>50</ele>
        <time>2020-09-03T08:16:45Z</time>
      </trkpt>
      <trkpt lat="45.16508" lon="-0.52588">
        <ele>50</ele>
        <time>2020-09-03T08:16:47Z</time>
      </trkpt>
      <trkpt lat="45.16507" lon="-0.52587">
        <ele>50</ele>
        <time>2020-09-03T08:16:48Z</time>
      </trkpt>
      <trkpt lat="45.16506" lon="-0.52586">
        <ele>50</ele>
        <time>2020-09-03T08:16:49Z</time>
      </trkpt>
      <trkpt lat="45.16506" lon="-0.52584">
        <ele>50</ele>
        <time>2020-09-03T08:16:50Z</time>
      </trkpt>
      <trkpt lat="45.16504" lon="-0.52582">
        <ele>50</ele>
        <time>2020-09-03T08:16:51Z</time>
      </trkpt>
      <trkpt lat="45.16503" lon="-0.52581">
        <ele>50</ele>
        <time>2020-09-03T08:16:52Z</time>
      </trkpt>
      <trkpt lat="45.16502" lon="-0.52579">
        <ele>50</ele>
        <time>2020-09-03T08:16:54Z</time>
      </trkpt>
      <trkpt lat="45.165" lon="-0.52576">
        <ele>50</ele>
        <time>2020-09-03T08:16:55Z</time>
      </trkpt>
      <trkpt lat="45.16499" lon="-0.52574">
        <ele>50</ele>
        <time>2020-09-03T08:16:57Z</time>
      </trkpt>
      <trkpt lat="45.16498" lon="-0.52572">
        <ele>50</ele>
        <time>2020-09-03T08:16:58Z</time>
      </trkpt>
      <trkpt lat="45.16497" lon="-0.5257">
        <ele>50</ele>
        <time>2020-09-03T08:16:59Z</time>
      </trkpt>
      <trkpt lat="45.16496" lon="-0.52568">
        <ele>50</ele>
        <time>2020-09-03T08:17:01Z</time>
      </trkpt>
      <trkpt lat="45.16496" lon="-0.52566">
        <ele>50</ele>
        <time>2020-09-03T08:17:02Z</time>
      </trkpt>
      <trkpt lat="45.16496" lon="-0.52564">
        <ele>50</ele>
        <time>2020-09-03T08:17:03Z</time>
      </trkpt>
      <trkpt lat="45.16496" lon="-0.52561">
        <ele>50</ele>
        <time>2020-09-03T08:17:05Z</time>
      </trkpt>
      <trkpt lat="45.16495" lon="-0.52559">
        <ele>50</ele>
        <time>2020-09-03T08:17:06Z</time>
      </trkpt>
      <trkpt lat="45.16495" lon="-0.52558">
        <ele>50.1</ele>
        <time>2020-09-03T08:17:07Z</time>
      </trkpt>
      <trkpt lat="45.16495" lon="-0.52556">
        <ele>50</ele>
        <time>2020-09-03T08:17:08Z</time>
      </trkpt>
      <trkpt lat="45.16495" lon="-0.52554">
        <ele>50</ele>
        <time>2020-09-03T08:17:09Z</time>
      </trkpt>
      <trkpt lat="45.16495" lon="-0.52553">
        <ele>50.1</ele>
        <time>2020-09-03T08:17:10Z</time>
      </trkpt>
      <trkpt lat="45.16494" lon="-0.52549">
        <ele>50.1</ele>
        <time>2020-09-03T08:17:11Z</time>
      </trkpt>
      <trkpt lat="45.16494" lon="-0.52548">
        <ele>50.1</ele>
        <time>2020-09-03T08:17:12Z</time>
      </trkpt>
      <trkpt lat="45.16493" lon="-0.52546">
        <ele>50.1</ele>
        <time>2020-09-03T08:17:13Z</time>
      </trkpt>
      <trkpt lat="45.16493" lon="-0.52544">
        <ele>50.1</ele>
        <time>2020-09-03T08:17:14Z</time>
      </trkpt>
      <trkpt lat="45.16492" lon="-0.52542">
        <ele>50.1</ele>
        <time>2020-09-03T08:17:16Z</time>
      </trkpt>
      <trkpt lat="45.16492" lon="-0.5254">
        <ele>50.1</ele>
        <time>2020-09-03T08:17:17Z</time>
      </trkpt>
      <trkpt lat="45.16491" lon="-0.52536">
        <ele>50.2</ele>
        <time>2020-09-03T08:17:19Z</time>
      </trkpt>
      <trkpt lat="45.16491" lon="-0.52535">
        <ele>50.2</ele>
        <time>2020-09-03T08:17:20Z</time>
      </trkpt>
      <trkpt lat="45.1649" lon="-0.52531">
        <ele>50.2</ele>
        <time>2020-09-03T08:17:22Z</time>
      </trkpt>
      <trkpt lat="45.1649" lon="-0.5253">
        <ele>50.2</ele>
        <time>2020-09-03T08:17:23Z</time>
      </trkpt>
      <trkpt lat="45.16489" lon="-0.52527">
        <ele>50.2</ele>
        <time>2020-09-03T08:17:24Z</time>
      </trkpt>
      <trkpt lat="45.16489" lon="-0.52526">
        <ele>50.2</ele>
        <time>2020-09-03T08:17:25Z</time>
      </trkpt>
      <trkpt lat="45.16489" lon="-0.52524">
        <ele>50.2</ele>
        <time>2020-09-03T08:17:26Z</time>
      </trkpt>
      <trkpt lat="45.16489" lon="-0.52522">
        <ele>50.3</ele>
        <time>2020-09-03T08:17:27Z</time>
      </trkpt>
      <trkpt lat="45.16489" lon="-0.5252">
        <ele>50.3</ele>
        <time>2020-09-03T08:17:28Z</time>
      </trkpt>
      <trkpt lat="45.16488" lon="-0.52519">
        <ele>50.3</ele>
        <time>2020-09-03T08:17:29Z</time>
      </trkpt>
      <trkpt lat="45.16488" lon="-0.52517">
        <ele>50.3</ele>
        <time>2020-09-03T08:17:30Z</time>
      </trkpt>
      <trkpt lat="45.16487" lon="-0.52516">
        <ele>50.3</ele>
        <time>2020-09-03T08:17:31Z</time>
      </trkpt>
      <trkpt lat="45.16486" lon="-0.52514">
        <ele>50.3</ele>
        <time>2020-09-03T08:17:32Z</time>
      </trkpt>
      <trkpt lat="45.16486" lon="-0.52512">
        <ele>50.3</ele>
        <time>2020-09-03T08:17:34Z</time>
      </trkpt>
      <trkpt lat="45.16485" lon="-0.5251">
        <ele>50.4</ele>
        <time>2020-09-03T08:17:35Z</time>
      </trkpt>
      <trkpt lat="45.16484" lon="-0.52508">
        <ele>50.4</ele>
        <time>2020-09-03T08:17:36Z</time>
      </trkpt>
      <trkpt lat="45.16484" lon="-0.52506">
        <ele>50.4</ele>
        <time>2020-09-03T08:17:37Z</time>
      </trkpt>
      <trkpt lat="45.16483" lon="-0.52503">
        <ele>50.4</ele>
        <time>2020-09-03T08:17:38Z</time>
      </trkpt>
      <trkpt lat="45.16483" lon="-0.52502">
        <ele>50.4</ele>
        <time>2020-09-03T08:17:39Z</time>
      </trkpt>
      <trkpt lat="45.16482" lon="-0.52499">
        <ele>50.4</ele>
        <time>2020-09-03T08:17:40Z</time>
      </trkpt>
      <trkpt lat="45.16482" lon="-0.52497">
        <ele>50.4</ele>
        <time>2020-09-03T08:17:42Z</time>
      </trkpt>
      <trkpt lat="45.16481" lon="-0.52495">
        <ele>50.4</ele>
        <time>2020-09-03T08:17:43Z</time>
      </trkpt>
      <trkpt lat="45.1648" lon="-0.52493">
        <ele>50.4</ele>
        <time>2020-09-03T08:17:44Z</time>
      </trkpt>
      <trkpt lat="45.1648" lon="-0.52491">
        <ele>50.4</ele>
        <time>2020-09-03T08:17:45Z</time>
      </trkpt>
      <trkpt lat="45.1648" lon="-0.52489">
        <ele>50.4</ele>
        <time>2020-09-03T08:17:46Z</time>
      </trkpt>
      <trkpt lat="45.16479" lon="-0.52488">
        <ele>50.4</ele>
        <time>2020-09-03T08:17:48Z</time>
      </trkpt>
      <trkpt lat="45.16479" lon="-0.52487">
        <ele>50.4</ele>
        <time>2020-09-03T08:17:49Z</time>
      </trkpt>
      <trkpt lat="45.16477" lon="-0.52486">
        <ele>50.4</ele>
        <time>2020-09-03T08:17:50Z</time>
      </trkpt>
      <trkpt lat="45.16475" lon="-0.52486">
        <ele>50.4</ele>
        <time>2020-09-03T08:17:51Z</time>
      </trkpt>
      <trkpt lat="45.16474" lon="-0.52485">
        <ele>50.4</ele>
        <time>2020-09-03T08:17:52Z</time>
      </trkpt>
      <trkpt lat="45.16472" lon="-0.52486">
        <ele>50.4</ele>
        <time>2020-09-03T08:17:54Z</time>
      </trkpt>
      <trkpt lat="45.16471" lon="-0.52486">
        <ele>50.4</ele>
        <time>2020-09-03T08:17:55Z</time>
      </trkpt>
      <trkpt lat="45.16468" lon="-0.52488">
        <ele>50.4</ele>
        <time>2020-09-03T08:17:56Z</time>
      </trkpt>
      <trkpt lat="45.16467" lon="-0.52488">
        <ele>50.4</ele>
        <time>2020-09-03T08:17:57Z</time>
      </trkpt>
      <trkpt lat="45.16465" lon="-0.5249">
        <ele>50.4</ele>
        <time>2020-09-03T08:17:59Z</time>
      </trkpt>
      <trkpt lat="45.16464" lon="-0.52491">
        <ele>50.4</ele>
        <time>2020-09-03T08:18:00Z</time>
      </trkpt>
      <trkpt lat="45.16461" lon="-0.52492">
        <ele>50.4</ele>
        <time>2020-09-03T08:18:02Z</time>
      </trkpt>
      <trkpt lat="45.16461" lon="-0.52493">
        <ele>50.4</ele>
        <time>2020-09-03T08:18:03Z</time>
      </trkpt>
      <trkpt lat="45.1646" lon="-0.52494">
        <ele>50.4</ele>
        <time>2020-09-03T08:18:04Z</time>
      </trkpt>
      <trkpt lat="45.16458" lon="-0.52494">
        <ele>50.4</ele>
        <time>2020-09-03T08:18:05Z</time>
      </trkpt>
      <trkpt lat="45.16457" lon="-0.52495">
        <ele>50.4</ele>
        <time>2020-09-03T08:18:06Z</time>
      </trkpt>
      <trkpt lat="45.16456" lon="-0.52496">
        <ele>50.4</ele>
        <time>2020-09-03T08:18:07Z</time>
      </trkpt>
      <trkpt lat="45.16454" lon="-0.52497">
        <ele>50.4</ele>
        <time>2020-09-03T08:18:08Z</time>
      </trkpt>
      <trkpt lat="45.16453" lon="-0.52498">
        <ele>50.4</ele>
        <time>2020-09-03T08:18:09Z</time>
      </trkpt>
      <trkpt lat="45.16451" lon="-0.52498">
        <ele>50.4</ele>
        <time>2020-09-03T08:18:10Z</time>
      </trkpt>
      <trkpt lat="45.1645" lon="-0.52499">
        <ele>50.4</ele>
        <time>2020-09-03T08:18:11Z</time>
      </trkpt>
      <trkpt lat="45.16449" lon="-0.525">
        <ele>50.4</ele>
        <time>2020-09-03T08:18:12Z</time>
      </trkpt>
      <trkpt lat="45.16448" lon="-0.525">
        <ele>50.4</ele>
        <time>2020-09-03T08:18:13Z</time>
      </trkpt>
      <trkpt lat="45.16446" lon="-0.52501">
        <ele>50.4</ele>
        <time>2020-09-03T08:18:15Z</time>
      </trkpt>
      <trkpt lat="45.16445" lon="-0.52502">
        <ele>50.4</ele>
        <time>2020-09-03T08:18:16Z</time>
      </trkpt>
      <trkpt lat="45.16444" lon="-0.52502">
        <ele>50.4</ele>
        <time>2020-09-03T08:18:17Z</time>
      </trkpt>
      <trkpt lat="45.16443" lon="-0.52503">
        <ele>50.4</ele>
        <time>2020-09-03T08:18:18Z</time>
      </trkpt>
      <trkpt lat="45.16442" lon="-0.52503">
        <ele>50.4</ele>
        <time>2020-09-03T08:18:19Z</time>
      </trkpt>
      <trkpt lat="45.1644" lon="-0.52504">
        <ele>50.4</ele>
        <time>2020-09-03T08:18:21Z</time>
      </trkpt>
      <trkpt lat="45.16439" lon="-0.52505">
        <ele>50.4</ele>
        <time>2020-09-03T08:18:23Z</time>
      </trkpt>
      <trkpt lat="45.16438" lon="-0.52505">
        <ele>50.4</ele>
        <time>2020-09-03T08:18:25Z</time>
      </trkpt>
      <trkpt lat="45.16438" lon="-0.52506">
        <ele>50.4</ele>
        <time>2020-09-03T08:18:26Z</time>
      </trkpt>
      <trkpt lat="45.16437" lon="-0.52507">
        <ele>50.4</ele>
        <time>2020-09-03T08:18:27Z</time>
      </trkpt>
      <trkpt lat="45.16436" lon="-0.52508">
        <ele>50.4</ele>
        <time>2020-09-03T08:18:28Z</time>
      </trkpt>
      <trkpt lat="45.16435" lon="-0.52508">
        <ele>50.4</ele>
        <time>2020-09-03T08:18:29Z</time>
      </trkpt>
      <trkpt lat="45.16434" lon="-0.52509">
        <ele>50.4</ele>
        <time>2020-09-03T08:18:30Z</time>
      </trkpt>
      <trkpt lat="45.16433" lon="-0.52509">
        <ele>50.4</ele>
        <time>2020-09-03T08:18:31Z</time>
      </trkpt>
      <trkpt lat="45.16432" lon="-0.5251">
        <ele>50.4</ele>
        <time>2020-09-03T08:18:32Z</time>
      </trkpt>
      <trkpt lat="45.1643" lon="-0.52511">
        <ele>50.4</ele>
        <time>2020-09-03T08:18:34Z</time>
      </trkpt>
      <trkpt lat="45.16428" lon="-0.52512">
        <ele>50.4</ele>
        <time>2020-09-03T08:18:35Z</time>
      </trkpt>
      <trkpt lat="45.16427" lon="-0.52512">
        <ele>50.4</ele>
        <time>2020-09-03T08:18:36Z</time>
      </trkpt>
      <trkpt lat="45.16424" lon="-0.52513">
        <ele>50.4</ele>
        <time>2020-09-03T08:18:37Z</time>
      </trkpt>
      <trkpt lat="45.16423" lon="-0.52513">
        <ele>50.4</ele>
        <time>2020-09-03T08:18:38Z</time>
      </trkpt>
      <trkpt lat="45.16422" lon="-0.52513">
        <ele>50.4</ele>
        <time>2020-09-03T08:18:39Z</time>
      </trkpt>
      <trkpt lat="45.16421" lon="-0.52513">
        <ele>50.4</ele>
        <time>2020-09-03T08:18:40Z</time>
      </trkpt>
      <trkpt lat="45.16419" lon="-0.52514">
        <ele>50.4</ele>
        <time>2020-09-03T08:18:42Z</time>
      </trkpt>
      <trkpt lat="45.16416" lon="-0.52516">
        <ele>50.4</ele>
        <time>2020-09-03T08:18:44Z</time>
      </trkpt>
      <trkpt lat="45.16416" lon="-0.52516">
        <ele>50.4</ele>
        <time>2020-09-03T08:18:45Z</time>
      </trkpt>
      <trkpt lat="45.16414" lon="-0.52517">
        <ele>50.4</ele>
        <time>2020-09-03T08:18:47Z</time>
      </trkpt>
      <trkpt lat="45.16413" lon="-0.52518">
        <ele>50.4</ele>
        <time>2020-09-03T08:18:48Z</time>
      </trkpt>
      <trkpt lat="45.16411" lon="-0.52519">
        <ele>50.4</ele>
        <time>2020-09-03T08:18:49Z</time>
      </trkpt>
      <trkpt lat="45.1641" lon="-0.5252">
        <ele>50.4</ele>
        <time>2020-09-03T08:18:50Z</time>
      </trkpt>
      <trkpt lat="45.16409" lon="-0.5252">
        <ele>50.4</ele>
        <time>2020-09-03T08:18:51Z</time>
      </trkpt>
      <trkpt lat="45.16406" lon="-0.52522">
        <ele>50.4</ele>
        <time>2020-09-03T08:18:53Z</time>
      </trkpt>
      <trkpt lat="45.16405" lon="-0.52523">
        <ele>50.4</ele>
        <time>2020-09-03T08:18:54Z</time>
      </trkpt>
      <trkpt lat="45.16404" lon="-0.52523">
        <ele>50.4</ele>
        <time>2020-09-03T08:18:55Z</time>
      </trkpt>
      <trkpt lat="45.16402" lon="-0.52524">
        <ele>50.4</ele>
        <time>2020-09-03T08:18:56Z</time>
      </trkpt>
      <trkpt lat="45.16401" lon="-0.52525">
        <ele>50.4</ele>
        <time>2020-09-03T08:18:58Z</time>
      </trkpt>
      <trkpt lat="45.16399" lon="-0.52526">
        <ele>50.4</ele>
        <time>2020-09-03T08:18:59Z</time>
      </trkpt>
      <trkpt lat="45.16398" lon="-0.52526">
        <ele>50.4</ele>
        <time>2020-09-03T08:19:00Z</time>
      </trkpt>
      <trkpt lat="45.16397" lon="-0.52527">
        <ele>50.4</ele>
        <time>2020-09-03T08:19:01Z</time>
      </trkpt>
      <trkpt lat="45.16395" lon="-0.52528">
        <ele>50.4</ele>
        <time>2020-09-03T08:19:02Z</time>
      </trkpt>
      <trkpt lat="45.16393" lon="-0.52528">
        <ele>50.4</ele>
        <time>2020-09-03T08:19:03Z</time>
      </trkpt>
      <trkpt lat="45.16392" lon="-0.52528">
        <ele>50.4</ele>
        <time>2020-09-03T08:19:05Z</time>
      </trkpt>
      <trkpt lat="45.16391" lon="-0.52529">
        <ele>50.4</ele>
        <time>2020-09-03T08:19:06Z</time>
      </trkpt>
      <trkpt lat="45.16389" lon="-0.5253">
        <ele>50.4</ele>
        <time>2020-09-03T08:19:07Z</time>
      </trkpt>
      <trkpt lat="45.16387" lon="-0.52532">
        <ele>50.4</ele>
        <time>2020-09-03T08:19:08Z</time>
      </trkpt>
      <trkpt lat="45.16386" lon="-0.52533">
        <ele>50.4</ele>
        <time>2020-09-03T08:19:10Z</time>
      </trkpt>
      <trkpt lat="45.16385" lon="-0.52533">
        <ele>50.4</ele>
        <time>2020-09-03T08:19:11Z</time>
      </trkpt>
      <trkpt lat="45.16383" lon="-0.52534">
        <ele>50.4</ele>
        <time>2020-09-03T08:19:12Z</time>
      </trkpt>
      <trkpt lat="45.16382" lon="-0.52535">
        <ele>50.4</ele>
        <time>2020-09-03T08:19:13Z</time>
      </trkpt>
      <trkpt lat="45.16381" lon="-0.52536">
        <ele>50.4</ele>
        <time>2020-09-03T08:19:14Z</time>
      </trkpt>
      <trkpt lat="45.1638" lon="-0.52536">
        <ele>50.3</ele>
        <time>2020-09-03T08:19:15Z</time>
      </trkpt>
      <trkpt lat="45.16379" lon="-0.52537">
        <ele>50.3</ele>
        <time>2020-09-03T08:19:17Z</time>
      </trkpt>
      <trkpt lat="45.16377" lon="-0.52538">
        <ele>50.3</ele>
        <time>2020-09-03T08:19:18Z</time>
      </trkpt>
      <trkpt lat="45.16376" lon="-0.52539">
        <ele>50.3</ele>
        <time>2020-09-03T08:19:19Z</time>
      </trkpt>
      <trkpt lat="45.16375" lon="-0.52539">
        <ele>50.3</ele>
        <time>2020-09-03T08:19:20Z</time>
      </trkpt>
      <trkpt lat="45.16373" lon="-0.5254">
        <ele>50.3</ele>
        <time>2020-09-03T08:19:22Z</time>
      </trkpt>
      <trkpt lat="45.1637" lon="-0.52542">
        <ele>50.3</ele>
        <time>2020-09-03T08:19:23Z</time>
      </trkpt>
      <trkpt lat="45.1637" lon="-0.52542">
        <ele>50.3</ele>
        <time>2020-09-03T08:19:24Z</time>
      </trkpt>
      <trkpt lat="45.16368" lon="-0.52543">
        <ele>50.3</ele>
        <time>2020-09-03T08:19:25Z</time>
      </trkpt>
      <trkpt lat="45.16367" lon="-0.52544">
        <ele>50.3</ele>
        <time>2020-09-03T08:19:27Z</time>
      </trkpt>
      <trkpt lat="45.16366" lon="-0.52544">
        <ele>50.3</ele>
        <time>2020-09-03T08:19:28Z</time>
      </trkpt>
      <trkpt lat="45.16363" lon="-0.52545">
        <ele>50.3</ele>
        <time>2020-09-03T08:19:30Z</time>
      </trkpt>
      <trkpt lat="45.16362" lon="-0.52545">
        <ele>50.3</ele>
        <time>2020-09-03T08:19:31Z</time>
      </trkpt>
      <trkpt lat="45.1636" lon="-0.52545">
        <ele>50.3</ele>
        <time>2020-09-03T08:19:32Z</time>
      </trkpt>
      <trkpt lat="45.16359" lon="-0.52546">
        <ele>50.3</ele>
        <time>2020-09-03T08:19:33Z</time>
      </trkpt>
      <trkpt lat="45.16358" lon="-0.52546">
        <ele>50.3</ele>
        <time>2020-09-03T08:19:34Z</time>
      </trkpt>
      <trkpt lat="45.16354" lon="-0.52547">
        <ele>50.3</ele>
        <time>2020-09-03T08:19:36Z</time>
      </trkpt>
      <trkpt lat="45.16354" lon="-0.52548">
        <ele>50.3</ele>
        <time>2020-09-03T08:19:37Z</time>
      </trkpt>
      <trkpt lat="45.16352" lon="-0.52549">
        <ele>50.3</ele>
        <time>2020-09-03T08:19:38Z</time>
      </trkpt>
      <trkpt lat="45.16351" lon="-0.52549">
        <ele>50.3</ele>
        <time>2020-09-03T08:19:39Z</time>
      </trkpt>
      <trkpt lat="45.1635" lon="-0.5255">
        <ele>50.3</ele>
        <time>2020-09-03T08:19:40Z</time>
      </trkpt>
      <trkpt lat="45.16348" lon="-0.52551">
        <ele>50.3</ele>
        <time>2020-09-03T08:19:42Z</time>
      </trkpt>
      <trkpt lat="45.16346" lon="-0.52552">
        <ele>50.3</ele>
        <time>2020-09-03T08:19:43Z</time>
      </trkpt>
      <trkpt lat="45.16345" lon="-0.52553">
        <ele>50.3</ele>
        <time>2020-09-03T08:19:44Z</time>
      </trkpt>
      <trkpt lat="45.16342" lon="-0.52555">
        <ele>50.3</ele>
        <time>2020-09-03T08:19:46Z</time>
      </trkpt>
      <trkpt lat="45.16341" lon="-0.52556">
        <ele>50.3</ele>
        <time>2020-09-03T08:19:47Z</time>
      </trkpt>
      <trkpt lat="45.16338" lon="-0.52558">
        <ele>50.3</ele>
        <time>2020-09-03T08:19:49Z</time>
      </trkpt>
      <trkpt lat="45.16338" lon="-0.52559">
        <ele>50.3</ele>
        <time>2020-09-03T08:19:50Z</time>
      </trkpt>
      <trkpt lat="45.16335" lon="-0.52561">
        <ele>50.3</ele>
        <time>2020-09-03T08:19:52Z</time>
      </trkpt>
      <trkpt lat="45.16334" lon="-0.52561">
        <ele>50.3</ele>
        <time>2020-09-03T08:19:53Z</time>
      </trkpt>
      <trkpt lat="45.16333" lon="-0.52563">
        <ele>50.3</ele>
        <time>2020-09-03T08:19:54Z</time>
      </trkpt>
      <trkpt lat="45.16332" lon="-0.52564">
        <ele>50.3</ele>
        <time>2020-09-03T08:19:56Z</time>
      </trkpt>
      <trkpt lat="45.1633" lon="-0.52565">
        <ele>50.3</ele>
        <time>2020-09-03T08:19:57Z</time>
      </trkpt>
      <trkpt lat="45.16329" lon="-0.52566">
        <ele>50.3</ele>
        <time>2020-09-03T08:19:58Z</time>
      </trkpt>
      <trkpt lat="45.16328" lon="-0.52567">
        <ele>50.3</ele>
        <time>2020-09-03T08:19:59Z</time>
      </trkpt>
      <trkpt lat="45.16327" lon="-0.52568">
        <ele>50.3</ele>
        <time>2020-09-03T08:20:00Z</time>
      </trkpt>
      <trkpt lat="45.16325" lon="-0.52569">
        <ele>50.3</ele>
        <time>2020-09-03T08:20:02Z</time>
      </trkpt>
      <trkpt lat="45.16323" lon="-0.52571">
        <ele>50.3</ele>
        <time>2020-09-03T08:20:04Z</time>
      </trkpt>
      <trkpt lat="45.16321" lon="-0.52572">
        <ele>50.3</ele>
        <time>2020-09-03T08:20:05Z</time>
      </trkpt>
      <trkpt lat="45.1632" lon="-0.52572">
        <ele>50.3</ele>
        <time>2020-09-03T08:20:06Z</time>
      </trkpt>
      <trkpt lat="45.16318" lon="-0.52573">
        <ele>50.3</ele>
        <time>2020-09-03T08:20:07Z</time>
      </trkpt>
      <trkpt lat="45.16317" lon="-0.52573">
        <ele>50.3</ele>
        <time>2020-09-03T08:20:08Z</time>
      </trkpt>
      <trkpt lat="45.16316" lon="-0.52574">
        <ele>50.3</ele>
        <time>2020-09-03T08:20:09Z</time>
      </trkpt>
      <trkpt lat="45.16315" lon="-0.52574">
        <ele>50.3</ele>
        <time>2020-09-03T08:20:10Z</time>
      </trkpt>
      <trkpt lat="45.16313" lon="-0.52574">
        <ele>50.3</ele>
        <time>2020-09-03T08:20:11Z</time>
      </trkpt>
      <trkpt lat="45.16313" lon="-0.52574">
        <ele>50.3</ele>
        <time>2020-09-03T08:20:12Z</time>
      </trkpt>
      <trkpt lat="45.16311" lon="-0.52573">
        <ele>50.3</ele>
        <time>2020-09-03T08:20:14Z</time>
      </trkpt>
      <trkpt lat="45.16309" lon="-0.52573">
        <ele>50.3</ele>
        <time>2020-09-03T08:20:15Z</time>
      </trkpt>
      <trkpt lat="45.16308" lon="-0.52573">
        <ele>50.3</ele>
        <time>2020-09-03T08:20:16Z</time>
      </trkpt>
      <trkpt lat="45.16306" lon="-0.52572">
        <ele>50.3</ele>
        <time>2020-09-03T08:20:17Z</time>
      </trkpt>
      <trkpt lat="45.16305" lon="-0.52572">
        <ele>50.3</ele>
        <time>2020-09-03T08:20:19Z</time>
      </trkpt>
      <trkpt lat="45.16304" lon="-0.52571">
        <ele>50.3</ele>
        <time>2020-09-03T08:20:20Z</time>
      </trkpt>
      <trkpt lat="45.16303" lon="-0.52571">
        <ele>50.3</ele>
        <time>2020-09-03T08:20:21Z</time>
      </trkpt>
      <trkpt lat="45.16302" lon="-0.5257">
        <ele>50.3</ele>
        <time>2020-09-03T08:20:22Z</time>
      </trkpt>
      <trkpt lat="45.16301" lon="-0.5257">
        <ele>50.3</ele>
        <time>2020-09-03T08:20:23Z</time>
      </trkpt>
      <trkpt lat="45.16299" lon="-0.52569">
        <ele>50.3</ele>
        <time>2020-09-03T08:20:24Z</time>
      </trkpt>
      <trkpt lat="45.16297" lon="-0.52569">
        <ele>50.3</ele>
        <time>2020-09-03T08:20:26Z</time>
      </trkpt>
      <trkpt lat="45.16296" lon="-0.52568">
        <ele>50.3</ele>
        <time>2020-09-03T08:20:27Z</time>
      </trkpt>
      <trkpt lat="45.16294" lon="-0.52568">
        <ele>50.3</ele>
        <time>2020-09-03T08:20:28Z</time>
      </trkpt>
      <trkpt lat="45.16292" lon="-0.52568">
        <ele>50.3</ele>
        <time>2020-09-03T08:20:30Z</time>
      </trkpt>
      <trkpt lat="45.16291" lon="-0.52567">
        <ele>50.3</ele>
        <time>2020-09-03T08:20:31Z</time>
      </trkpt>
      <trkpt lat="45.16288" lon="-0.52567">
        <ele>50.3</ele>
        <time>2020-09-03T08:20:33Z</time>
      </trkpt>
      <trkpt lat="45.16286" lon="-0.52566">
        <ele>50.3</ele>
        <time>2020-09-03T08:20:34Z</time>
      </trkpt>
      <trkpt lat="45.16284" lon="-0.52567">
        <ele>50.3</ele>
        <time>2020-09-03T08:20:36Z</time>
      </trkpt>
      <trkpt lat="45.16282" lon="-0.52567">
        <ele>50.3</ele>
        <time>2020-09-03T08:20:37Z</time>
      </trkpt>
      <trkpt lat="45.1628" lon="-0.52566">
        <ele>50.3</ele>
        <time>2020-09-03T08:20:39Z</time>
      </trkpt>
      <trkpt lat="45.16278" lon="-0.52567">
        <ele>50.3</ele>
        <time>2020-09-03T08:20:40Z</time>
      </trkpt>
      <trkpt lat="45.16277" lon="-0.52567">
        <ele>50.3</ele>
        <time>2020-09-03T08:20:41Z</time>
      </trkpt>
      <trkpt lat="45.16275" lon="-0.52567">
        <ele>50.3</ele>
        <time>2020-09-03T08:20:42Z</time>
      </trkpt>
      <trkpt lat="45.16272" lon="-0.52569">
        <ele>50.3</ele>
        <time>2020-09-03T08:20:44Z</time>
      </trkpt>
      <trkpt lat="45.1627" lon="-0.5257">
        <ele>50.2</ele>
        <time>2020-09-03T08:20:45Z</time>
      </trkpt>
      <trkpt lat="45.16269" lon="-0.5257">
        <ele>50.2</ele>
        <time>2020-09-03T08:20:47Z</time>
      </trkpt>
      <trkpt lat="45.16267" lon="-0.52571">
        <ele>50.2</ele>
        <time>2020-09-03T08:20:48Z</time>
      </trkpt>
      <trkpt lat="45.16266" lon="-0.52573">
        <ele>50.2</ele>
        <time>2020-09-03T08:20:49Z</time>
      </trkpt>
      <trkpt lat="45.16264" lon="-0.52573">
        <ele>50.2</ele>
        <time>2020-09-03T08:20:50Z</time>
      </trkpt>
      <trkpt lat="45.16262" lon="-0.52574">
        <ele>50.2</ele>
        <time>2020-09-03T08:20:52Z</time>
      </trkpt>
      <trkpt lat="45.1626" lon="-0.52576">
        <ele>50.2</ele>
        <time>2020-09-03T08:20:54Z</time>
      </trkpt>
      <trkpt lat="45.16259" lon="-0.52577">
        <ele>50.2</ele>
        <time>2020-09-03T08:20:55Z</time>
      </trkpt>
      <trkpt lat="45.16257" lon="-0.52578">
        <ele>50.2</ele>
        <time>2020-09-03T08:20:56Z</time>
      </trkpt>
      <trkpt lat="45.16255" lon="-0.52579">
        <ele>50.2</ele>
        <time>2020-09-03T08:20:58Z</time>
      </trkpt>
      <trkpt lat="45.16254" lon="-0.52579">
        <ele>50.2</ele>
        <time>2020-09-03T08:20:59Z</time>
      </trkpt>
      <trkpt lat="45.16251" lon="-0.52581">
        <ele>50.2</ele>
        <time>2020-09-03T08:21:01Z</time>
      </trkpt>
      <trkpt lat="45.16248" lon="-0.52583">
        <ele>50.2</ele>
        <time>2020-09-03T08:21:03Z</time>
      </trkpt>
      <trkpt lat="45.16247" lon="-0.52584">
        <ele>50.2</ele>
        <time>2020-09-03T08:21:04Z</time>
      </trkpt>
      <trkpt lat="45.16245" lon="-0.52585">
        <ele>50.2</ele>
        <time>2020-09-03T08:21:06Z</time>
      </trkpt>
      <trkpt lat="45.16242" lon="-0.52587">
        <ele>50.2</ele>
        <time>2020-09-03T08:21:07Z</time>
      </trkpt>
      <trkpt lat="45.16241" lon="-0.52588">
        <ele>50.2</ele>
        <time>2020-09-03T08:21:08Z</time>
      </trkpt>
      <trkpt lat="45.16239" lon="-0.5259">
        <ele>50.2</ele>
        <time>2020-09-03T08:21:10Z</time>
      </trkpt>
      <trkpt lat="45.16238" lon="-0.52591">
        <ele>50.2</ele>
        <time>2020-09-03T08:21:11Z</time>
      </trkpt>
      <trkpt lat="45.16236" lon="-0.52591">
        <ele>50.2</ele>
        <time>2020-09-03T08:21:13Z</time>
      </trkpt>
      <trkpt lat="45.16234" lon="-0.52593">
        <ele>50.2</ele>
        <time>2020-09-03T08:21:14Z</time>
      </trkpt>
      <trkpt lat="45.16232" lon="-0.52594">
        <ele>50.2</ele>
        <time>2020-09-03T08:21:15Z</time>
      </trkpt>
      <trkpt lat="45.16231" lon="-0.52595">
        <ele>50.2</ele>
        <time>2020-09-03T08:21:17Z</time>
      </trkpt>
      <trkpt lat="45.16229" lon="-0.52596">
        <ele>50.2</ele>
        <time>2020-09-03T08:21:18Z</time>
      </trkpt>
      <trkpt lat="45.16228" lon="-0.52597">
        <ele>50.2</ele>
        <time>2020-09-03T08:21:19Z</time>
      </trkpt>
      <trkpt lat="45.16225" lon="-0.52598">
        <ele>50.2</ele>
        <time>2020-09-03T08:21:21Z</time>
      </trkpt>
      <trkpt lat="45.16224" lon="-0.52599">
        <ele>50.2</ele>
        <time>2020-09-03T08:21:22Z</time>
      </trkpt>
      <trkpt lat="45.1622" lon="-0.526">
        <ele>50.2</ele>
        <time>2020-09-03T08:21:24Z</time>
      </trkpt>
      <trkpt lat="45.16219" lon="-0.52601">
        <ele>50.2</ele>
        <time>2020-09-03T08:21:25Z</time>
      </trkpt>
      <trkpt lat="45.16217" lon="-0.52601">
        <ele>50.2</ele>
        <time>2020-09-03T08:21:26Z</time>
      </trkpt>
      <trkpt lat="45.16215" lon="-0.52603">
        <ele>50.2</ele>
        <time>2020-09-03T08:21:28Z</time>
      </trkpt>
      <trkpt lat="45.16212" lon="-0.52604">
        <ele>50.2</ele>
        <time>2020-09-03T08:21:30Z</time>
      </trkpt>
      <trkpt lat="45.1621" lon="-0.52605">
        <ele>50.2</ele>
        <time>2020-09-03T08:21:31Z</time>
      </trkpt>
      <trkpt lat="45.16208" lon="-0.52605">
        <ele>50.2</ele>
        <time>2020-09-03T08:21:33Z</time>
      </trkpt>
      <trkpt lat="45.16205" lon="-0.52607">
        <ele>50.2</ele>
        <time>2020-09-03T08:21:34Z</time>
      </trkpt>
      <trkpt lat="45.16204" lon="-0.52608">
        <ele>50.2</ele>
        <time>2020-09-03T08:21:35Z</time>
      </trkpt>
      <trkpt lat="45.16201" lon="-0.52609">
        <ele>50.2</ele>
        <time>2020-09-03T08:21:37Z</time>
      </trkpt>
      <trkpt lat="45.162" lon="-0.52609">
        <ele>50.2</ele>
        <time>2020-09-03T08:21:38Z</time>
      </trkpt>
      <trkpt lat="45.16198" lon="-0.5261">
        <ele>50.2</ele>
        <time>2020-09-03T08:21:40Z</time>
      </trkpt>
      <trkpt lat="45.16197" lon="-0.5261">
        <ele>50.2</ele>
        <time>2020-09-03T08:21:41Z</time>
      </trkpt>
      <trkpt lat="45.16195" lon="-0.5261">
        <ele>50.2</ele>
        <time>2020-09-03T08:21:42Z</time>
      </trkpt>
      <trkpt lat="45.16193" lon="-0.52611">
        <ele>50.2</ele>
        <time>2020-09-03T08:21:43Z</time>
      </trkpt>
      <trkpt lat="45.16191" lon="-0.52611">
        <ele>50.2</ele>
        <time>2020-09-03T08:21:45Z</time>
      </trkpt>
      <trkpt lat="45.1619" lon="-0.52612">
        <ele>50.2</ele>
        <time>2020-09-03T08:21:46Z</time>
      </trkpt>
      <trkpt lat="45.16189" lon="-0.52613">
        <ele>50.2</ele>
        <time>2020-09-03T08:21:47Z</time>
      </trkpt>
      <trkpt lat="45.16187" lon="-0.52614">
        <ele>50.2</ele>
        <time>2020-09-03T08:21:49Z</time>
      </trkpt>
      <trkpt lat="45.16185" lon="-0.52616">
        <ele>50.2</ele>
        <time>2020-09-03T08:21:50Z</time>
      </trkpt>
      <trkpt lat="45.16183" lon="-0.52617">
        <ele>50.2</ele>
        <time>2020-09-03T08:21:52Z</time>
      </trkpt>
      <trkpt lat="45.16181" lon="-0.52619">
        <ele>50.2</ele>
        <time>2020-09-03T08:21:53Z</time>
      </trkpt>
      <trkpt lat="45.16179" lon="-0.5262">
        <ele>50.2</ele>
        <time>2020-09-03T08:21:54Z</time>
      </trkpt>
      <trkpt lat="45.16177" lon="-0.52621">
        <ele>50.2</ele>
        <time>2020-09-03T08:21:56Z</time>
      </trkpt>
      <trkpt lat="45.16176" lon="-0.52621">
        <ele>50.2</ele>
        <time>2020-09-03T08:21:57Z</time>
      </trkpt>
      <trkpt lat="45.16173" lon="-0.52623">
        <ele>50.2</ele>
        <time>2020-09-03T08:21:59Z</time>
      </trkpt>
      <trkpt lat="45.16171" lon="-0.52623">
        <ele>50.2</ele>
        <time>2020-09-03T08:22:00Z</time>
      </trkpt>
      <trkpt lat="45.1617" lon="-0.52623">
        <ele>50.2</ele>
        <time>2020-09-03T08:22:02Z</time>
      </trkpt>
      <trkpt lat="45.16169" lon="-0.52624">
        <ele>50.2</ele>
        <time>2020-09-03T08:22:03Z</time>
      </trkpt>
      <trkpt lat="45.16165" lon="-0.52625">
        <ele>50.2</ele>
        <time>2020-09-03T08:22:05Z</time>
      </trkpt>
      <trkpt lat="45.16164" lon="-0.52626">
        <ele>50.2</ele>
        <time>2020-09-03T08:22:06Z</time>
      </trkpt>
      <trkpt lat="45.16162" lon="-0.52627">
        <ele>50.2</ele>
        <time>2020-09-03T08:22:08Z</time>
      </trkpt>
      <trkpt lat="45.1616" lon="-0.52627">
        <ele>50.1</ele>
        <time>2020-09-03T08:22:09Z</time>
      </trkpt>
      <trkpt lat="45.16158" lon="-0.52628">
        <ele>50.1</ele>
        <time>2020-09-03T08:22:11Z</time>
      </trkpt>
      <trkpt lat="45.16157" lon="-0.52628">
        <ele>50.1</ele>
        <time>2020-09-03T08:22:12Z</time>
      </trkpt>
      <trkpt lat="45.16156" lon="-0.52628">
        <ele>50.1</ele>
        <time>2020-09-03T08:22:13Z</time>
      </trkpt>
      <trkpt lat="45.16154" lon="-0.52628">
        <ele>50.1</ele>
        <time>2020-09-03T08:22:14Z</time>
      </trkpt>
      <trkpt lat="45.16152" lon="-0.52628">
        <ele>50.1</ele>
        <time>2020-09-03T08:22:15Z</time>
      </trkpt>
      <trkpt lat="45.1615" lon="-0.52628">
        <ele>50.1</ele>
        <time>2020-09-03T08:22:17Z</time>
      </trkpt>
      <trkpt lat="45.16148" lon="-0.52627">
        <ele>50.1</ele>
        <time>2020-09-03T08:22:18Z</time>
      </trkpt>
      <trkpt lat="45.16146" lon="-0.52627">
        <ele>50.1</ele>
        <time>2020-09-03T08:22:20Z</time>
      </trkpt>
      <trkpt lat="45.16145" lon="-0.52627">
        <ele>50.1</ele>
        <time>2020-09-03T08:22:21Z</time>
      </trkpt>
      <trkpt lat="45.16143" lon="-0.52626">
        <ele>50.1</ele>
        <time>2020-09-03T08:22:23Z</time>
      </trkpt>
      <trkpt lat="45.16142" lon="-0.52626">
        <ele>50.1</ele>
        <time>2020-09-03T08:22:24Z</time>
      </trkpt>
      <trkpt lat="45.1614" lon="-0.52626">
        <ele>50.1</ele>
        <time>2020-09-03T08:22:25Z</time>
      </trkpt>
      <trkpt lat="45.16138" lon="-0.52625">
        <ele>50.1</ele>
        <time>2020-09-03T08:22:27Z</time>
      </trkpt>
      <trkpt lat="45.16137" lon="-0.52625">
        <ele>50.1</ele>
        <time>2020-09-03T08:22:28Z</time>
      </trkpt>
      <trkpt lat="45.16136" lon="-0.52625">
        <ele>50.1</ele>
        <time>2020-09-03T08:22:29Z</time>
      </trkpt>
      <trkpt lat="45.16134" lon="-0.52625">
        <ele>50.1</ele>
        <time>2020-09-03T08:22:31Z</time>
      </trkpt>
      <trkpt lat="45.16133" lon="-0.52625">
        <ele>50.1</ele>
        <time>2020-09-03T08:22:32Z</time>
      </trkpt>
      <trkpt lat="45.16131" lon="-0.52624">
        <ele>50.1</ele>
        <time>2020-09-03T08:22:33Z</time>
      </trkpt>
      <trkpt lat="45.16128" lon="-0.52624">
        <ele>50.1</ele>
        <time>2020-09-03T08:22:35Z</time>
      </trkpt>
      <trkpt lat="45.16127" lon="-0.52624">
        <ele>50.1</ele>
        <time>2020-09-03T08:22:36Z</time>
      </trkpt>
      <trkpt lat="45.16125" lon="-0.52625">
        <ele>50.1</ele>
        <time>2020-09-03T08:22:38Z</time>
      </trkpt>
      <trkpt lat="45.16121" lon="-0.52625">
        <ele>50.1</ele>
        <time>2020-09-03T08:22:39Z</time>
      </trkpt>
      <trkpt lat="45.1612" lon="-0.52625">
        <ele>50.1</ele>
        <time>2020-09-03T08:22:40Z</time>
      </trkpt>
      <trkpt lat="45.16118" lon="-0.52624">
        <ele>50.1</ele>
        <time>2020-09-03T08:22:42Z</time>
      </trkpt>
      <trkpt lat="45.16117" lon="-0.52624">
        <ele>50.1</ele>
        <time>2020-09-03T08:22:43Z</time>
      </trkpt>
      <trkpt lat="45.16114" lon="-0.52621">
        <ele>50.1</ele>
        <time>2020-09-03T08:22:44Z</time>
      </trkpt>
      <trkpt lat="45.16113" lon="-0.5262">
        <ele>50.1</ele>
        <time>2020-09-03T08:22:45Z</time>
      </trkpt>
      <trkpt lat="45.16111" lon="-0.52617">
        <ele>50.1</ele>
        <time>2020-09-03T08:22:47Z</time>
      </trkpt>
      <trkpt lat="45.16111" lon="-0.52616">
        <ele>50.1</ele>
        <time>2020-09-03T08:22:48Z</time>
      </trkpt>
      <trkpt lat="45.16109" lon="-0.52612">
        <ele>50.1</ele>
        <time>2020-09-03T08:22:50Z</time>
      </trkpt>
      <trkpt lat="45.16108" lon="-0.52611">
        <ele>50.1</ele>
        <time>2020-09-03T08:22:51Z</time>
      </trkpt>
      <trkpt lat="45.16107" lon="-0.52609">
        <ele>50.1</ele>
        <time>2020-09-03T08:22:52Z</time>
      </trkpt>
      <trkpt lat="45.16106" lon="-0.52608">
        <ele>50.1</ele>
        <time>2020-09-03T08:22:53Z</time>
      </trkpt>
      <trkpt lat="45.16104" lon="-0.52606">
        <ele>50.1</ele>
        <time>2020-09-03T08:22:55Z</time>
      </trkpt>
      <trkpt lat="45.16102" lon="-0.52604">
        <ele>50.1</ele>
        <time>2020-09-03T08:22:56Z</time>
      </trkpt>
      <trkpt lat="45.161" lon="-0.52604">
        <ele>50.1</ele>
        <time>2020-09-03T08:22:58Z</time>
      </trkpt>
      <trkpt lat="45.16099" lon="-0.52603">
        <ele>50.1</ele>
        <time>2020-09-03T08:22:59Z</time>
      </trkpt>
      <trkpt lat="45.16098" lon="-0.52603">
        <ele>50.1</ele>
        <time>2020-09-03T08:23:00Z</time>
      </trkpt>
      <trkpt lat="45.16097" lon="-0.52602">
        <ele>50.1</ele>
        <time>2020-09-03T08:23:01Z</time>
      </trkpt>
      <trkpt lat="45.16095" lon="-0.52603">
        <ele>50.1</ele>
        <time>2020-09-03T08:23:03Z</time>
      </trkpt>
      <trkpt lat="45.16093" lon="-0.52603">
        <ele>50.1</ele>
        <time>2020-09-03T08:23:04Z</time>
      </trkpt>
      <trkpt lat="45.16092" lon="-0.52604">
        <ele>50.1</ele>
        <time>2020-09-03T08:23:06Z</time>
      </trkpt>
      <trkpt lat="45.1609" lon="-0.52605">
        <ele>50.1</ele>
        <time>2020-09-03T08:23:07Z</time>
      </trkpt>
      <trkpt lat="45.16089" lon="-0.52606">
        <ele>50.1</ele>
        <time>2020-09-03T08:23:08Z</time>
      </trkpt>
      <trkpt lat="45.16087" lon="-0.52608">
        <ele>50.1</ele>
        <time>2020-09-03T08:23:10Z</time>
      </trkpt>
      <trkpt lat="45.16084" lon="-0.5261">
        <ele>50.1</ele>
        <time>2020-09-03T08:23:11Z</time>
      </trkpt>
      <trkpt lat="45.16083" lon="-0.52611">
        <ele>50.1</ele>
        <time>2020-09-03T08:23:13Z</time>
      </trkpt>
      <trkpt lat="45.16081" lon="-0.52612">
        <ele>50.1</ele>
        <time>2020-09-03T08:23:14Z</time>
      </trkpt>
      <trkpt lat="45.1608" lon="-0.52613">
        <ele>50.1</ele>
        <time>2020-09-03T08:23:15Z</time>
      </trkpt>
      <trkpt lat="45.16079" lon="-0.52614">
        <ele>50.1</ele>
        <time>2020-09-03T08:23:16Z</time>
      </trkpt>
      <trkpt lat="45.16077" lon="-0.52615">
        <ele>50.1</ele>
        <time>2020-09-03T08:23:17Z</time>
      </trkpt>
      <trkpt lat="45.16075" lon="-0.52615">
        <ele>50.1</ele>
        <time>2020-09-03T08:23:18Z</time>
      </trkpt>
      <trkpt lat="45.16073" lon="-0.52614">
        <ele>50.1</ele>
        <time>2020-09-03T08:23:20Z</time>
      </trkpt>
      <trkpt lat="45.16072" lon="-0.52613">
        <ele>50.1</ele>
        <time>2020-09-03T08:23:21Z</time>
      </trkpt>
      <trkpt lat="45.16072" lon="-0.52613">
        <ele>50.1</ele>
        <time>2020-09-03T08:23:22Z</time>
      </trkpt>
      <trkpt lat="45.16072" lon="-0.52612">
        <ele>50.1</ele>
        <time>2020-09-03T08:23:23Z</time>
      </trkpt>
      <trkpt lat="45.16071" lon="-0.5261">
        <ele>50.1</ele>
        <time>2020-09-03T08:23:24Z</time>
      </trkpt>
      <trkpt lat="45.1607" lon="-0.52609">
        <ele>50.1</ele>
        <time>2020-09-03T08:23:26Z</time>
      </trkpt>
      <trkpt lat="45.16069" lon="-0.52608">
        <ele>50.1</ele>
        <time>2020-09-03T08:23:27Z</time>
      </trkpt>
      <trkpt lat="45.16068" lon="-0.52608">
        <ele>50.1</ele>
        <time>2020-09-03T08:23:28Z</time>
      </trkpt>
      <trkpt lat="45.16066" lon="-0.52606">
        <ele>50.1</ele>
        <time>2020-09-03T08:23:30Z</time>
      </trkpt>
      <trkpt lat="45.16065" lon="-0.52606">
        <ele>50.1</ele>
        <time>2020-09-03T08:23:31Z</time>
      </trkpt>
      <trkpt lat="45.16063" lon="-0.52607">
        <ele>50.1</ele>
        <time>2020-09-03T08:23:32Z</time>
      </trkpt>
      <trkpt lat="45.16058" lon="-0.5261">
        <ele>50.1</ele>
        <time>2020-09-03T08:23:34Z</time>
      </trkpt>
      <trkpt lat="45.16056" lon="-0.52609">
        <ele>50</ele>
        <time>2020-09-03T08:23:36Z</time>
      </trkpt>
      <trkpt lat="45.16054" lon="-0.5261">
        <ele>50</ele>
        <time>2020-09-03T08:23:38Z</time>
      </trkpt>
      <trkpt lat="45.16051" lon="-0.52614">
        <ele>50</ele>
        <time>2020-09-03T08:23:39Z</time>
      </trkpt>
      <trkpt lat="45.1605" lon="-0.52615">
        <ele>50</ele>
        <time>2020-09-03T08:23:40Z</time>
      </trkpt>
      <trkpt lat="45.16047" lon="-0.52616">
        <ele>50</ele>
        <time>2020-09-03T08:23:41Z</time>
      </trkpt>
      <trkpt lat="45.16045" lon="-0.52618">
        <ele>50</ele>
        <time>2020-09-03T08:23:43Z</time>
      </trkpt>
      <trkpt lat="45.16043" lon="-0.5262">
        <ele>50</ele>
        <time>2020-09-03T08:23:44Z</time>
      </trkpt>
      <trkpt lat="45.1604" lon="-0.52621">
        <ele>50</ele>
        <time>2020-09-03T08:23:46Z</time>
      </trkpt>
      <trkpt lat="45.16038" lon="-0.52623">
        <ele>50</ele>
        <time>2020-09-03T08:23:47Z</time>
      </trkpt>
      <trkpt lat="45.16036" lon="-0.52624">
        <ele>50</ele>
        <time>2020-09-03T08:23:49Z</time>
      </trkpt>
      <trkpt lat="45.16034" lon="-0.52624">
        <ele>50</ele>
        <time>2020-09-03T08:23:50Z</time>
      </trkpt>
      <trkpt lat="45.16032" lon="-0.52625">
        <ele>50</ele>
        <time>2020-09-03T08:23:51Z</time>
      </trkpt>
      <trkpt lat="45.1603" lon="-0.52626">
        <ele>50</ele>
        <time>2020-09-03T08:23:53Z</time>
      </trkpt>
      <trkpt lat="45.16025" lon="-0.52627">
        <ele>50</ele>
        <time>2020-09-03T08:23:55Z</time>
      </trkpt>
      <trkpt lat="45.16023" lon="-0.52628">
        <ele>50</ele>
        <time>2020-09-03T08:23:56Z</time>
      </trkpt>
      <trkpt lat="45.1602" lon="-0.5263">
        <ele>50</ele>
        <time>2020-09-03T08:23:58Z</time>
      </trkpt>
      <trkpt lat="45.16019" lon="-0.5263">
        <ele>50</ele>
        <time>2020-09-03T08:23:59Z</time>
      </trkpt>
      <trkpt lat="45.16016" lon="-0.52631">
        <ele>50</ele>
        <time>2020-09-03T08:24:00Z</time>
      </trkpt>
      <trkpt lat="45.16015" lon="-0.52632">
        <ele>50</ele>
        <time>2020-09-03T08:24:01Z</time>
      </trkpt>
      <trkpt lat="45.16013" lon="-0.52632">
        <ele>50</ele>
        <time>2020-09-03T08:24:03Z</time>
      </trkpt>
      <trkpt lat="45.16011" lon="-0.52633">
        <ele>50</ele>
        <time>2020-09-03T08:24:05Z</time>
      </trkpt>
      <trkpt lat="45.16009" lon="-0.52634">
        <ele>50</ele>
        <time>2020-09-03T08:24:06Z</time>
      </trkpt>
      <trkpt lat="45.16008" lon="-0.52636">
        <ele>50</ele>
        <time>2020-09-03T08:24:08Z</time>
      </trkpt>
      <trkpt lat="45.16006" lon="-0.52638">
        <ele>50</ele>
        <time>2020-09-03T08:24:09Z</time>
      </trkpt>
      <trkpt lat="45.16004" lon="-0.52638">
        <ele>50</ele>
        <time>2020-09-03T08:24:11Z</time>
      </trkpt>
      <trkpt lat="45.16003" lon="-0.52638">
        <ele>50</ele>
        <time>2020-09-03T08:24:12Z</time>
      </trkpt>
      <trkpt lat="45.16" lon="-0.52638">
        <ele>50</ele>
        <time>2020-09-03T08:24:14Z</time>
      </trkpt>
      <trkpt lat="45.15999" lon="-0.52638">
        <ele>50</ele>
        <time>2020-09-03T08:24:16Z</time>
      </trkpt>
      <trkpt lat="45.15997" lon="-0.52638">
        <ele>50</ele>
        <time>2020-09-03T08:24:17Z</time>
      </trkpt>
      <trkpt lat="45.15993" lon="-0.52639">
        <ele>50</ele>
        <time>2020-09-03T08:24:19Z</time>
      </trkpt>
      <trkpt lat="45.15992" lon="-0.52639">
        <ele>50</ele>
        <time>2020-09-03T08:24:20Z</time>
      </trkpt>
      <trkpt lat="45.1599" lon="-0.52639">
        <ele>50</ele>
        <time>2020-09-03T08:24:22Z</time>
      </trkpt>
      <trkpt lat="45.15988" lon="-0.5264">
        <ele>50</ele>
        <time>2020-09-03T08:24:23Z</time>
      </trkpt>
      <trkpt lat="45.15986" lon="-0.5264">
        <ele>50</ele>
        <time>2020-09-03T08:24:25Z</time>
      </trkpt>
      <trkpt lat="45.15985" lon="-0.5264">
        <ele>50</ele>
        <time>2020-09-03T08:24:26Z</time>
      </trkpt>
      <trkpt lat="45.15983" lon="-0.5264">
        <ele>50</ele>
        <time>2020-09-03T08:24:27Z</time>
      </trkpt>
      <trkpt lat="45.15982" lon="-0.5264">
        <ele>50</ele>
        <time>2020-09-03T08:24:28Z</time>
      </trkpt>
      <trkpt lat="45.15977" lon="-0.52641">
        <ele>50</ele>
        <time>2020-09-03T08:24:30Z</time>
      </trkpt>
      <trkpt lat="45.15976" lon="-0.52641">
        <ele>50</ele>
        <time>2020-09-03T08:24:31Z</time>
      </trkpt>
      <trkpt lat="45.15975" lon="-0.52642">
        <ele>50</ele>
        <time>2020-09-03T08:24:33Z</time>
      </trkpt>
      <trkpt lat="45.15974" lon="-0.52642">
        <ele>50</ele>
        <time>2020-09-03T08:24:34Z</time>
      </trkpt>
      <trkpt lat="45.15972" lon="-0.52643">
        <ele>50</ele>
        <time>2020-09-03T08:24:35Z</time>
      </trkpt>
      <trkpt lat="45.15971" lon="-0.52644">
        <ele>50</ele>
        <time>2020-09-03T08:24:37Z</time>
      </trkpt>
      <trkpt lat="45.1597" lon="-0.52644">
        <ele>50</ele>
        <time>2020-09-03T08:24:38Z</time>
      </trkpt>
      <trkpt lat="45.15967" lon="-0.52645">
        <ele>50</ele>
        <time>2020-09-03T08:24:40Z</time>
      </trkpt>
      <trkpt lat="45.15967" lon="-0.52645">
        <ele>50</ele>
        <time>2020-09-03T08:24:41Z</time>
      </trkpt>
      <trkpt lat="45.15965" lon="-0.52646">
        <ele>50</ele>
        <time>2020-09-03T08:24:42Z</time>
      </trkpt>
      <trkpt lat="45.15963" lon="-0.52647">
        <ele>50</ele>
        <time>2020-09-03T08:24:44Z</time>
      </trkpt>
      <trkpt lat="45.1596" lon="-0.52648">
        <ele>50</ele>
        <time>2020-09-03T08:24:45Z</time>
      </trkpt>
      <trkpt lat="45.15959" lon="-0.52649">
        <ele>50</ele>
        <time>2020-09-03T08:24:47Z</time>
      </trkpt>
      <trkpt lat="45.15957" lon="-0.52649">
        <ele>50</ele>
        <time>2020-09-03T08:24:48Z</time>
      </trkpt>
      <trkpt lat="45.15956" lon="-0.52649">
        <ele>50</ele>
        <time>2020-09-03T08:24:49Z</time>
      </trkpt>
      <trkpt lat="45.15954" lon="-0.5265">
        <ele>50</ele>
        <time>2020-09-03T08:24:50Z</time>
      </trkpt>
      <trkpt lat="45.15953" lon="-0.5265">
        <ele>50</ele>
        <time>2020-09-03T08:24:52Z</time>
      </trkpt>
      <trkpt lat="45.15951" lon="-0.52651">
        <ele>50</ele>
        <time>2020-09-03T08:24:54Z</time>
      </trkpt>
      <trkpt lat="45.1595" lon="-0.52651">
        <ele>50</ele>
        <time>2020-09-03T08:24:55Z</time>
      </trkpt>
      <trkpt lat="45.15946" lon="-0.52653">
        <ele>50</ele>
        <time>2020-09-03T08:24:57Z</time>
      </trkpt>
      <trkpt lat="45.15945" lon="-0.52653">
        <ele>49.9</ele>
        <time>2020-09-03T08:24:58Z</time>
      </trkpt>
      <trkpt lat="45.15944" lon="-0.52654">
        <ele>49.9</ele>
        <time>2020-09-03T08:25:00Z</time>
      </trkpt>
      <trkpt lat="45.15942" lon="-0.52655">
        <ele>49.9</ele>
        <time>2020-09-03T08:25:01Z</time>
      </trkpt>
      <trkpt lat="45.15941" lon="-0.52656">
        <ele>49.9</ele>
        <time>2020-09-03T08:25:02Z</time>
      </trkpt>
      <trkpt lat="45.15939" lon="-0.52657">
        <ele>49.9</ele>
        <time>2020-09-03T08:25:03Z</time>
      </trkpt>
      <trkpt lat="45.15936" lon="-0.52659">
        <ele>49.9</ele>
        <time>2020-09-03T08:25:05Z</time>
      </trkpt>
      <trkpt lat="45.15935" lon="-0.5266">
        <ele>49.9</ele>
        <time>2020-09-03T08:25:06Z</time>
      </trkpt>
      <trkpt lat="45.15934" lon="-0.5266">
        <ele>49.9</ele>
        <time>2020-09-03T08:25:07Z</time>
      </trkpt>
      <trkpt lat="45.15933" lon="-0.52662">
        <ele>49.9</ele>
        <time>2020-09-03T08:25:08Z</time>
      </trkpt>
      <trkpt lat="45.1593" lon="-0.52664">
        <ele>49.9</ele>
        <time>2020-09-03T08:25:10Z</time>
      </trkpt>
      <trkpt lat="45.1593" lon="-0.52664">
        <ele>49.9</ele>
        <time>2020-09-03T08:25:11Z</time>
      </trkpt>
      <trkpt lat="45.15929" lon="-0.52665">
        <ele>49.9</ele>
        <time>2020-09-03T08:25:12Z</time>
      </trkpt>
      <trkpt lat="45.15928" lon="-0.52667">
        <ele>49.9</ele>
        <time>2020-09-03T08:25:14Z</time>
      </trkpt>
      <trkpt lat="45.15927" lon="-0.52669">
        <ele>49.9</ele>
        <time>2020-09-03T08:25:15Z</time>
      </trkpt>
      <trkpt lat="45.15925" lon="-0.52672">
        <ele>49.9</ele>
        <time>2020-09-03T08:25:17Z</time>
      </trkpt>
      <trkpt lat="45.15925" lon="-0.52674">
        <ele>49.8</ele>
        <time>2020-09-03T08:25:18Z</time>
      </trkpt>
      <trkpt lat="45.15924" lon="-0.52676">
        <ele>49.8</ele>
        <time>2020-09-03T08:25:20Z</time>
      </trkpt>
      <trkpt lat="45.15923" lon="-0.52678">
        <ele>49.8</ele>
        <time>2020-09-03T08:25:21Z</time>
      </trkpt>
      <trkpt lat="45.15923" lon="-0.52681">
        <ele>49.8</ele>
        <time>2020-09-03T08:25:23Z</time>
      </trkpt>
      <trkpt lat="45.15922" lon="-0.52686">
        <ele>49.7</ele>
        <time>2020-09-03T08:25:25Z</time>
      </trkpt>
      <trkpt lat="45.15922" lon="-0.52688">
        <ele>49.7</ele>
        <time>2020-09-03T08:25:26Z</time>
      </trkpt>
      <trkpt lat="45.15921" lon="-0.5269">
        <ele>49.7</ele>
        <time>2020-09-03T08:25:27Z</time>
      </trkpt>
      <trkpt lat="45.15921" lon="-0.52692">
        <ele>49.6</ele>
        <time>2020-09-03T08:25:29Z</time>
      </trkpt>
      <trkpt lat="45.1592" lon="-0.52697">
        <ele>49.6</ele>
        <time>2020-09-03T08:25:30Z</time>
      </trkpt>
      <trkpt lat="45.1592" lon="-0.52699">
        <ele>49.6</ele>
        <time>2020-09-03T08:25:31Z</time>
      </trkpt>
      <trkpt lat="45.15919" lon="-0.52703">
        <ele>49.5</ele>
        <time>2020-09-03T08:25:33Z</time>
      </trkpt>
      <trkpt lat="45.15919" lon="-0.52705">
        <ele>49.5</ele>
        <time>2020-09-03T08:25:34Z</time>
      </trkpt>
      <trkpt lat="45.15919" lon="-0.52707">
        <ele>49.5</ele>
        <time>2020-09-03T08:25:36Z</time>
      </trkpt>
      <trkpt lat="45.15918" lon="-0.52709">
        <ele>49.5</ele>
        <time>2020-09-03T08:25:37Z</time>
      </trkpt>
      <trkpt lat="45.15918" lon="-0.52712">
        <ele>49.5</ele>
        <time>2020-09-03T08:25:38Z</time>
      </trkpt>
      <trkpt lat="45.15918" lon="-0.52714">
        <ele>49.5</ele>
        <time>2020-09-03T08:25:39Z</time>
      </trkpt>
      <trkpt lat="45.15917" lon="-0.52718">
        <ele>49.5</ele>
        <time>2020-09-03T08:25:41Z</time>
      </trkpt>
      <trkpt lat="45.15917" lon="-0.5272">
        <ele>49.4</ele>
        <time>2020-09-03T08:25:42Z</time>
      </trkpt>
      <trkpt lat="45.15917" lon="-0.52722">
        <ele>49.4</ele>
        <time>2020-09-03T08:25:43Z</time>
      </trkpt>
      <trkpt lat="45.15916" lon="-0.52726">
        <ele>49.4</ele>
        <time>2020-09-03T08:25:44Z</time>
      </trkpt>
      <trkpt lat="45.15916" lon="-0.52727">
        <ele>49.4</ele>
        <time>2020-09-03T08:25:45Z</time>
      </trkpt>
      <trkpt lat="45.15916" lon="-0.52729">
        <ele>49.4</ele>
        <time>2020-09-03T08:25:47Z</time>
      </trkpt>
      <trkpt lat="45.15916" lon="-0.5273">
        <ele>49.4</ele>
        <time>2020-09-03T08:25:48Z</time>
      </trkpt>
      <trkpt lat="45.15916" lon="-0.52735">
        <ele>49.4</ele>
        <time>2020-09-03T08:25:49Z</time>
      </trkpt>
      <trkpt lat="45.15916" lon="-0.52736">
        <ele>49.4</ele>
        <time>2020-09-03T08:25:51Z</time>
      </trkpt>
      <trkpt lat="45.15916" lon="-0.52739">
        <ele>49.4</ele>
        <time>2020-09-03T08:25:52Z</time>
      </trkpt>
      <trkpt lat="45.15916" lon="-0.52742">
        <ele>49.4</ele>
        <time>2020-09-03T08:25:53Z</time>
      </trkpt>
      <trkpt lat="45.15917" lon="-0.52744">
        <ele>49.4</ele>
        <time>2020-09-03T08:25:55Z</time>
      </trkpt>
      <trkpt lat="45.15917" lon="-0.52746">
        <ele>49.4</ele>
        <time>2020-09-03T08:25:56Z</time>
      </trkpt>
      <trkpt lat="45.15917" lon="-0.52748">
        <ele>49.4</ele>
        <time>2020-09-03T08:25:58Z</time>
      </trkpt>
      <trkpt lat="45.15917" lon="-0.5275">
        <ele>49.4</ele>
        <time>2020-09-03T08:25:59Z</time>
      </trkpt>
      <trkpt lat="45.15917" lon="-0.52753">
        <ele>49.4</ele>
        <time>2020-09-03T08:26:00Z</time>
      </trkpt>
      <trkpt lat="45.15918" lon="-0.52754">
        <ele>49.3</ele>
        <time>2020-09-03T08:26:01Z</time>
      </trkpt>
      <trkpt lat="45.15918" lon="-0.52756">
        <ele>49.3</ele>
        <time>2020-09-03T08:26:02Z</time>
      </trkpt>
      <trkpt lat="45.15918" lon="-0.52758">
        <ele>49.3</ele>
        <time>2020-09-03T08:26:04Z</time>
      </trkpt>
      <trkpt lat="45.15918" lon="-0.52759">
        <ele>49.3</ele>
        <time>2020-09-03T08:26:05Z</time>
      </trkpt>
      <trkpt lat="45.15918" lon="-0.52762">
        <ele>49.3</ele>
        <time>2020-09-03T08:26:06Z</time>
      </trkpt>
      <trkpt lat="45.15919" lon="-0.52765">
        <ele>49.2</ele>
        <time>2020-09-03T08:26:08Z</time>
      </trkpt>
      <trkpt lat="45.15919" lon="-0.52769">
        <ele>49.3</ele>
        <time>2020-09-03T08:26:09Z</time>
      </trkpt>
      <trkpt lat="45.15919" lon="-0.52771">
        <ele>49.3</ele>
        <time>2020-09-03T08:26:10Z</time>
      </trkpt>
      <trkpt lat="45.1592" lon="-0.52775">
        <ele>49.3</ele>
        <time>2020-09-03T08:26:11Z</time>
      </trkpt>
      <trkpt lat="45.1592" lon="-0.52777">
        <ele>49.3</ele>
        <time>2020-09-03T08:26:13Z</time>
      </trkpt>
      <trkpt lat="45.1592" lon="-0.52779">
        <ele>49.3</ele>
        <time>2020-09-03T08:26:14Z</time>
      </trkpt>
      <trkpt lat="45.15921" lon="-0.52781">
        <ele>49.3</ele>
        <time>2020-09-03T08:26:15Z</time>
      </trkpt>
      <trkpt lat="45.15921" lon="-0.52784">
        <ele>49.3</ele>
        <time>2020-09-03T08:26:17Z</time>
      </trkpt>
      <trkpt lat="45.15921" lon="-0.52785">
        <ele>49.3</ele>
        <time>2020-09-03T08:26:18Z</time>
      </trkpt>
      <trkpt lat="45.15921" lon="-0.52789">
        <ele>49.3</ele>
        <time>2020-09-03T08:26:19Z</time>
      </trkpt>
      <trkpt lat="45.15921" lon="-0.52791">
        <ele>49.3</ele>
        <time>2020-09-03T08:26:21Z</time>
      </trkpt>
      <trkpt lat="45.15921" lon="-0.52793">
        <ele>49.4</ele>
        <time>2020-09-03T08:26:22Z</time>
      </trkpt>
      <trkpt lat="45.15921" lon="-0.52795">
        <ele>49.4</ele>
        <time>2020-09-03T08:26:24Z</time>
      </trkpt>
      <trkpt lat="45.15921" lon="-0.52797">
        <ele>49.4</ele>
        <time>2020-09-03T08:26:25Z</time>
      </trkpt>
      <trkpt lat="45.15921" lon="-0.52798">
        <ele>49.4</ele>
        <time>2020-09-03T08:26:26Z</time>
      </trkpt>
      <trkpt lat="45.15921" lon="-0.528">
        <ele>49.4</ele>
        <time>2020-09-03T08:26:27Z</time>
      </trkpt>
      <trkpt lat="45.1592" lon="-0.52801">
        <ele>49.4</ele>
        <time>2020-09-03T08:26:28Z</time>
      </trkpt>
      <trkpt lat="45.1592" lon="-0.52804">
        <ele>49.5</ele>
        <time>2020-09-03T08:26:29Z</time>
      </trkpt>
      <trkpt lat="45.1592" lon="-0.52808">
        <ele>49.4</ele>
        <time>2020-09-03T08:26:31Z</time>
      </trkpt>
      <trkpt lat="45.15919" lon="-0.5281">
        <ele>49.4</ele>
        <time>2020-09-03T08:26:32Z</time>
      </trkpt>
      <trkpt lat="45.15919" lon="-0.52812">
        <ele>49.4</ele>
        <time>2020-09-03T08:26:33Z</time>
      </trkpt>
      <trkpt lat="45.15919" lon="-0.52813">
        <ele>49.4</ele>
        <time>2020-09-03T08:26:34Z</time>
      </trkpt>
      <trkpt lat="45.15918" lon="-0.52816">
        <ele>49.4</ele>
        <time>2020-09-03T08:26:35Z</time>
      </trkpt>
      <trkpt lat="45.15918" lon="-0.52819">
        <ele>49.3</ele>
        <time>2020-09-03T08:26:37Z</time>
      </trkpt>
      <trkpt lat="45.15917" lon="-0.52822">
        <ele>49.3</ele>
        <time>2020-09-03T08:26:38Z</time>
      </trkpt>
      <trkpt lat="45.15916" lon="-0.52825">
        <ele>49.3</ele>
        <time>2020-09-03T08:26:40Z</time>
      </trkpt>
      <trkpt lat="45.15915" lon="-0.52827">
        <ele>49.2</ele>
        <time>2020-09-03T08:26:41Z</time>
      </trkpt>
      <trkpt lat="45.15914" lon="-0.52829">
        <ele>49.2</ele>
        <time>2020-09-03T08:26:42Z</time>
      </trkpt>
      <trkpt lat="45.15914" lon="-0.5283">
        <ele>49.2</ele>
        <time>2020-09-03T08:26:43Z</time>
      </trkpt>
      <trkpt lat="45.15913" lon="-0.52832">
        <ele>49.2</ele>
        <time>2020-09-03T08:26:44Z</time>
      </trkpt>
      <trkpt lat="45.15911" lon="-0.52834">
        <ele>49.2</ele>
        <time>2020-09-03T08:26:46Z</time>
      </trkpt>
      <trkpt lat="45.1591" lon="-0.52836">
        <ele>49.1</ele>
        <time>2020-09-03T08:26:47Z</time>
      </trkpt>
      <trkpt lat="45.15909" lon="-0.52839">
        <ele>49.1</ele>
        <time>2020-09-03T08:26:49Z</time>
      </trkpt>
      <trkpt lat="45.15908" lon="-0.5284">
        <ele>49.1</ele>
        <time>2020-09-03T08:26:50Z</time>
      </trkpt>
      <trkpt lat="45.15906" lon="-0.52843">
        <ele>49</ele>
        <time>2020-09-03T08:26:52Z</time>
      </trkpt>
      <trkpt lat="45.15904" lon="-0.52845">
        <ele>49</ele>
        <time>2020-09-03T08:26:53Z</time>
      </trkpt>
      <trkpt lat="45.15903" lon="-0.52846">
        <ele>49</ele>
        <time>2020-09-03T08:26:54Z</time>
      </trkpt>
      <trkpt lat="45.15903" lon="-0.52848">
        <ele>49</ele>
        <time>2020-09-03T08:26:55Z</time>
      </trkpt>
      <trkpt lat="45.15901" lon="-0.5285">
        <ele>48.9</ele>
        <time>2020-09-03T08:26:57Z</time>
      </trkpt>
      <trkpt lat="45.159" lon="-0.52851">
        <ele>48.9</ele>
        <time>2020-09-03T08:26:58Z</time>
      </trkpt>
      <trkpt lat="45.159" lon="-0.52852">
        <ele>48.9</ele>
        <time>2020-09-03T08:26:59Z</time>
      </trkpt>
      <trkpt lat="45.15898" lon="-0.52854">
        <ele>48.8</ele>
        <time>2020-09-03T08:27:01Z</time>
      </trkpt>
      <trkpt lat="45.15896" lon="-0.52856">
        <ele>48.7</ele>
        <time>2020-09-03T08:27:03Z</time>
      </trkpt>
      <trkpt lat="45.15895" lon="-0.52858">
        <ele>48.7</ele>
        <time>2020-09-03T08:27:04Z</time>
      </trkpt>
      <trkpt lat="45.15894" lon="-0.52859">
        <ele>48.6</ele>
        <time>2020-09-03T08:27:05Z</time>
      </trkpt>
      <trkpt lat="45.15892" lon="-0.52861">
        <ele>48.6</ele>
        <time>2020-09-03T08:27:06Z</time>
      </trkpt>
      <trkpt lat="45.15892" lon="-0.52862">
        <ele>48.5</ele>
        <time>2020-09-03T08:27:07Z</time>
      </trkpt>
      <trkpt lat="45.1589" lon="-0.52864">
        <ele>48.5</ele>
        <time>2020-09-03T08:27:08Z</time>
      </trkpt>
      <trkpt lat="45.15889" lon="-0.52866">
        <ele>48.4</ele>
        <time>2020-09-03T08:27:10Z</time>
      </trkpt>
      <trkpt lat="45.15888" lon="-0.52866">
        <ele>48.4</ele>
        <time>2020-09-03T08:27:11Z</time>
      </trkpt>
      <trkpt lat="45.15887" lon="-0.52867">
        <ele>48.4</ele>
        <time>2020-09-03T08:27:12Z</time>
      </trkpt>
      <trkpt lat="45.15885" lon="-0.52869">
        <ele>48.3</ele>
        <time>2020-09-03T08:27:14Z</time>
      </trkpt>
      <trkpt lat="45.15881" lon="-0.52872">
        <ele>48.1</ele>
        <time>2020-09-03T08:27:16Z</time>
      </trkpt>
      <trkpt lat="45.1588" lon="-0.52873">
        <ele>48.1</ele>
        <time>2020-09-03T08:27:17Z</time>
      </trkpt>
      <trkpt lat="45.1588" lon="-0.52873">
        <ele>48.1</ele>
        <time>2020-09-03T08:27:18Z</time>
      </trkpt>
      <trkpt lat="45.15879" lon="-0.52874">
        <ele>48</ele>
        <time>2020-09-03T08:27:19Z</time>
      </trkpt>
      <trkpt lat="45.15877" lon="-0.52875">
        <ele>48</ele>
        <time>2020-09-03T08:27:20Z</time>
      </trkpt>
      <trkpt lat="45.15876" lon="-0.52877">
        <ele>47.9</ele>
        <time>2020-09-03T08:27:21Z</time>
      </trkpt>
      <trkpt lat="45.15875" lon="-0.52878">
        <ele>47.9</ele>
        <time>2020-09-03T08:27:23Z</time>
      </trkpt>
      <trkpt lat="45.15874" lon="-0.52879">
        <ele>47.8</ele>
        <time>2020-09-03T08:27:24Z</time>
      </trkpt>
      <trkpt lat="45.15872" lon="-0.52881">
        <ele>47.7</ele>
        <time>2020-09-03T08:27:26Z</time>
      </trkpt>
      <trkpt lat="45.15871" lon="-0.52881">
        <ele>47.7</ele>
        <time>2020-09-03T08:27:27Z</time>
      </trkpt>
      <trkpt lat="45.15869" lon="-0.52883">
        <ele>47.7</ele>
        <time>2020-09-03T08:27:28Z</time>
      </trkpt>
      <trkpt lat="45.15868" lon="-0.52884">
        <ele>47.6</ele>
        <time>2020-09-03T08:27:30Z</time>
      </trkpt>
      <trkpt lat="45.15866" lon="-0.52887">
        <ele>47.5</ele>
        <time>2020-09-03T08:27:31Z</time>
      </trkpt>
      <trkpt lat="45.15865" lon="-0.52888">
        <ele>47.5</ele>
        <time>2020-09-03T08:27:33Z</time>
      </trkpt>
      <trkpt lat="45.15863" lon="-0.52891">
        <ele>47.4</ele>
        <time>2020-09-03T08:27:34Z</time>
      </trkpt>
      <trkpt lat="45.15862" lon="-0.52892">
        <ele>47.4</ele>
        <time>2020-09-03T08:27:35Z</time>
      </trkpt>
      <trkpt lat="45.15862" lon="-0.52893">
        <ele>47.4</ele>
        <time>2020-09-03T08:27:37Z</time>
      </trkpt>
      <trkpt lat="45.15861" lon="-0.52894">
        <ele>47.4</ele>
        <time>2020-09-03T08:27:38Z</time>
      </trkpt>
      <trkpt lat="45.1586" lon="-0.52895">
        <ele>47.3</ele>
        <time>2020-09-03T08:27:39Z</time>
      </trkpt>
      <trkpt lat="45.15857" lon="-0.52898">
        <ele>47.3</ele>
        <time>2020-09-03T08:27:41Z</time>
      </trkpt>
      <trkpt lat="45.15856" lon="-0.52898">
        <ele>47.2</ele>
        <time>2020-09-03T08:27:42Z</time>
      </trkpt>
      <trkpt lat="45.15855" lon="-0.52899">
        <ele>47.2</ele>
        <time>2020-09-03T08:27:44Z</time>
      </trkpt>
      <trkpt lat="45.15854" lon="-0.529">
        <ele>47.2</ele>
        <time>2020-09-03T08:27:45Z</time>
      </trkpt>
      <trkpt lat="45.15851" lon="-0.52902">
        <ele>47.1</ele>
        <time>2020-09-03T08:27:46Z</time>
      </trkpt>
      <trkpt lat="45.15851" lon="-0.52903">
        <ele>47.1</ele>
        <time>2020-09-03T08:27:47Z</time>
      </trkpt>
      <trkpt lat="45.1585" lon="-0.52903">
        <ele>47.1</ele>
        <time>2020-09-03T08:27:48Z</time>
      </trkpt>
      <trkpt lat="45.15848" lon="-0.52904">
        <ele>47</ele>
        <time>2020-09-03T08:27:49Z</time>
      </trkpt>
      <trkpt lat="45.15846" lon="-0.52905">
        <ele>47</ele>
        <time>2020-09-03T08:27:51Z</time>
      </trkpt>
      <trkpt lat="45.15845" lon="-0.52906">
        <ele>47</ele>
        <time>2020-09-03T08:27:52Z</time>
      </trkpt>
      <trkpt lat="45.15843" lon="-0.52908">
        <ele>46.9</ele>
        <time>2020-09-03T08:27:54Z</time>
      </trkpt>
      <trkpt lat="45.15842" lon="-0.52908">
        <ele>46.9</ele>
        <time>2020-09-03T08:27:55Z</time>
      </trkpt>
      <trkpt lat="45.1584" lon="-0.5291">
        <ele>46.9</ele>
        <time>2020-09-03T08:27:57Z</time>
      </trkpt>
      <trkpt lat="45.15838" lon="-0.52912">
        <ele>46.8</ele>
        <time>2020-09-03T08:27:59Z</time>
      </trkpt>
      <trkpt lat="45.15837" lon="-0.52913">
        <ele>46.8</ele>
        <time>2020-09-03T08:28:00Z</time>
      </trkpt>
      <trkpt lat="45.15836" lon="-0.52913">
        <ele>46.8</ele>
        <time>2020-09-03T08:28:01Z</time>
      </trkpt>
      <trkpt lat="45.15834" lon="-0.52915">
        <ele>46.7</ele>
        <time>2020-09-03T08:28:03Z</time>
      </trkpt>
      <trkpt lat="45.15832" lon="-0.52917">
        <ele>46.7</ele>
        <time>2020-09-03T08:28:04Z</time>
      </trkpt>
      <trkpt lat="45.15831" lon="-0.52918">
        <ele>46.7</ele>
        <time>2020-09-03T08:28:05Z</time>
      </trkpt>
      <trkpt lat="45.1583" lon="-0.52919">
        <ele>46.7</ele>
        <time>2020-09-03T08:28:06Z</time>
      </trkpt>
      <trkpt lat="45.15829" lon="-0.5292">
        <ele>46.6</ele>
        <time>2020-09-03T08:28:07Z</time>
      </trkpt>
      <trkpt lat="45.15828" lon="-0.52921">
        <ele>46.6</ele>
        <time>2020-09-03T08:28:08Z</time>
      </trkpt>
      <trkpt lat="45.15827" lon="-0.52922">
        <ele>46.6</ele>
        <time>2020-09-03T08:28:09Z</time>
      </trkpt>
      <trkpt lat="45.15823" lon="-0.52924">
        <ele>46.5</ele>
        <time>2020-09-03T08:28:11Z</time>
      </trkpt>
      <trkpt lat="45.15823" lon="-0.52925">
        <ele>46.5</ele>
        <time>2020-09-03T08:28:12Z</time>
      </trkpt>
      <trkpt lat="45.15822" lon="-0.52925">
        <ele>46.5</ele>
        <time>2020-09-03T08:28:13Z</time>
      </trkpt>
      <trkpt lat="45.15821" lon="-0.52926">
        <ele>46.4</ele>
        <time>2020-09-03T08:28:14Z</time>
      </trkpt>
      <trkpt lat="45.15818" lon="-0.52927">
        <ele>46.4</ele>
        <time>2020-09-03T08:28:15Z</time>
      </trkpt>
      <trkpt lat="45.15817" lon="-0.52928">
        <ele>46.4</ele>
        <time>2020-09-03T08:28:17Z</time>
      </trkpt>
      <trkpt lat="45.15814" lon="-0.52929">
        <ele>46.3</ele>
        <time>2020-09-03T08:28:18Z</time>
      </trkpt>
      <trkpt lat="45.15813" lon="-0.5293">
        <ele>46.3</ele>
        <time>2020-09-03T08:28:20Z</time>
      </trkpt>
      <trkpt lat="45.15812" lon="-0.5293">
        <ele>46.2</ele>
        <time>2020-09-03T08:28:21Z</time>
      </trkpt>
      <trkpt lat="45.15811" lon="-0.52931">
        <ele>46.2</ele>
        <time>2020-09-03T08:28:22Z</time>
      </trkpt>
      <trkpt lat="45.15809" lon="-0.52932">
        <ele>46.2</ele>
        <time>2020-09-03T08:28:24Z</time>
      </trkpt>
      <trkpt lat="45.15808" lon="-0.52932">
        <ele>46.1</ele>
        <time>2020-09-03T08:28:25Z</time>
      </trkpt>
      <trkpt lat="45.15806" lon="-0.52933">
        <ele>46.1</ele>
        <time>2020-09-03T08:28:26Z</time>
      </trkpt>
      <trkpt lat="45.15805" lon="-0.52933">
        <ele>46.1</ele>
        <time>2020-09-03T08:28:27Z</time>
      </trkpt>
      <trkpt lat="45.15803" lon="-0.52933">
        <ele>46.1</ele>
        <time>2020-09-03T08:28:29Z</time>
      </trkpt>
      <trkpt lat="45.15802" lon="-0.52934">
        <ele>46</ele>
        <time>2020-09-03T08:28:30Z</time>
      </trkpt>
      <trkpt lat="45.158" lon="-0.52934">
        <ele>46</ele>
        <time>2020-09-03T08:28:31Z</time>
      </trkpt>
      <trkpt lat="45.15799" lon="-0.52933">
        <ele>46</ele>
        <time>2020-09-03T08:28:32Z</time>
      </trkpt>
      <trkpt lat="45.15797" lon="-0.52933">
        <ele>45.9</ele>
        <time>2020-09-03T08:28:33Z</time>
      </trkpt>
      <trkpt lat="45.15795" lon="-0.52932">
        <ele>45.9</ele>
        <time>2020-09-03T08:28:34Z</time>
      </trkpt>
      <trkpt lat="45.15794" lon="-0.52932">
        <ele>45.9</ele>
        <time>2020-09-03T08:28:35Z</time>
      </trkpt>
      <trkpt lat="45.15793" lon="-0.52931">
        <ele>45.9</ele>
        <time>2020-09-03T08:28:37Z</time>
      </trkpt>
      <trkpt lat="45.15792" lon="-0.5293">
        <ele>45.9</ele>
        <time>2020-09-03T08:28:38Z</time>
      </trkpt>
      <trkpt lat="45.1579" lon="-0.5293">
        <ele>45.9</ele>
        <time>2020-09-03T08:28:39Z</time>
      </trkpt>
      <trkpt lat="45.15788" lon="-0.52929">
        <ele>45.8</ele>
        <time>2020-09-03T08:28:41Z</time>
      </trkpt>
      <trkpt lat="45.15787" lon="-0.52928">
        <ele>45.8</ele>
        <time>2020-09-03T08:28:42Z</time>
      </trkpt>
      <trkpt lat="45.15785" lon="-0.52927">
        <ele>45.8</ele>
        <time>2020-09-03T08:28:44Z</time>
      </trkpt>
      <trkpt lat="45.15783" lon="-0.52926">
        <ele>45.9</ele>
        <time>2020-09-03T08:28:46Z</time>
      </trkpt>
      <trkpt lat="45.15782" lon="-0.52925">
        <ele>45.9</ele>
        <time>2020-09-03T08:28:47Z</time>
      </trkpt>
      <trkpt lat="45.15781" lon="-0.52925">
        <ele>45.9</ele>
        <time>2020-09-03T08:28:48Z</time>
      </trkpt>
      <trkpt lat="45.1578" lon="-0.52923">
        <ele>45.9</ele>
        <time>2020-09-03T08:28:50Z</time>
      </trkpt>
      <trkpt lat="45.1578" lon="-0.52923">
        <ele>45.9</ele>
        <time>2020-09-03T08:28:51Z</time>
      </trkpt>
      <trkpt lat="45.15778" lon="-0.52921">
        <ele>45.9</ele>
        <time>2020-09-03T08:28:52Z</time>
      </trkpt>
      <trkpt lat="45.15777" lon="-0.5292">
        <ele>45.9</ele>
        <time>2020-09-03T08:28:53Z</time>
      </trkpt>
      <trkpt lat="45.15774" lon="-0.52918">
        <ele>45.9</ele>
        <time>2020-09-03T08:28:55Z</time>
      </trkpt>
      <trkpt lat="45.15773" lon="-0.52917">
        <ele>45.9</ele>
        <time>2020-09-03T08:28:56Z</time>
      </trkpt>
      <trkpt lat="45.15772" lon="-0.52916">
        <ele>45.9</ele>
        <time>2020-09-03T08:28:58Z</time>
      </trkpt>
      <trkpt lat="45.15771" lon="-0.52915">
        <ele>45.9</ele>
        <time>2020-09-03T08:28:59Z</time>
      </trkpt>
      <trkpt lat="45.15769" lon="-0.52914">
        <ele>45.9</ele>
        <time>2020-09-03T08:29:01Z</time>
      </trkpt>
      <trkpt lat="45.15768" lon="-0.52913">
        <ele>45.9</ele>
        <time>2020-09-03T08:29:02Z</time>
      </trkpt>
      <trkpt lat="45.15766" lon="-0.52912">
        <ele>45.9</ele>
        <time>2020-09-03T08:29:03Z</time>
      </trkpt>
      <trkpt lat="45.15763" lon="-0.52909">
        <ele>45.9</ele>
        <time>2020-09-03T08:29:05Z</time>
      </trkpt>
      <trkpt lat="45.15762" lon="-0.52908">
        <ele>45.9</ele>
        <time>2020-09-03T08:29:06Z</time>
      </trkpt>
      <trkpt lat="45.15761" lon="-0.52908">
        <ele>45.9</ele>
        <time>2020-09-03T08:29:07Z</time>
      </trkpt>
      <trkpt lat="45.1576" lon="-0.52907">
        <ele>45.9</ele>
        <time>2020-09-03T08:29:08Z</time>
      </trkpt>
      <trkpt lat="45.15757" lon="-0.52905">
        <ele>45.9</ele>
        <time>2020-09-03T08:29:10Z</time>
      </trkpt>
      <trkpt lat="45.15756" lon="-0.52904">
        <ele>45.9</ele>
        <time>2020-09-03T08:29:11Z</time>
      </trkpt>
      <trkpt lat="45.15753" lon="-0.52903">
        <ele>45.9</ele>
        <time>2020-09-03T08:29:12Z</time>
      </trkpt>
      <trkpt lat="45.15752" lon="-0.52902">
        <ele>45.9</ele>
        <time>2020-09-03T08:29:14Z</time>
      </trkpt>
      <trkpt lat="45.15751" lon="-0.52901">
        <ele>45.9</ele>
        <time>2020-09-03T08:29:15Z</time>
      </trkpt>
      <trkpt lat="45.15749" lon="-0.529">
        <ele>45.9</ele>
        <time>2020-09-03T08:29:16Z</time>
      </trkpt>
      <trkpt lat="45.15747" lon="-0.52899">
        <ele>45.9</ele>
        <time>2020-09-03T08:29:18Z</time>
      </trkpt>
      <trkpt lat="45.15746" lon="-0.52898">
        <ele>45.9</ele>
        <time>2020-09-03T08:29:19Z</time>
      </trkpt>
      <trkpt lat="45.15746" lon="-0.52898">
        <ele>45.9</ele>
        <time>2020-09-03T08:29:20Z</time>
      </trkpt>
      <trkpt lat="45.15743" lon="-0.52896">
        <ele>45.9</ele>
        <time>2020-09-03T08:29:22Z</time>
      </trkpt>
      <trkpt lat="45.15742" lon="-0.52896">
        <ele>45.9</ele>
        <time>2020-09-03T08:29:23Z</time>
      </trkpt>
      <trkpt lat="45.1574" lon="-0.52894">
        <ele>45.9</ele>
        <time>2020-09-03T08:29:24Z</time>
      </trkpt>
      <trkpt lat="45.15739" lon="-0.52893">
        <ele>45.9</ele>
        <time>2020-09-03T08:29:25Z</time>
      </trkpt>
      <trkpt lat="45.15738" lon="-0.52892">
        <ele>45.9</ele>
        <time>2020-09-03T08:29:26Z</time>
      </trkpt>
      <trkpt lat="45.15737" lon="-0.52891">
        <ele>45.9</ele>
        <time>2020-09-03T08:29:28Z</time>
      </trkpt>
      <trkpt lat="45.15736" lon="-0.5289">
        <ele>45.9</ele>
        <time>2020-09-03T08:29:29Z</time>
      </trkpt>
      <trkpt lat="45.15736" lon="-0.5289">
        <ele>45.9</ele>
        <time>2020-09-03T08:29:30Z</time>
      </trkpt>
      <trkpt lat="45.15733" lon="-0.52888">
        <ele>45.9</ele>
        <time>2020-09-03T08:29:31Z</time>
      </trkpt>
      <trkpt lat="45.15732" lon="-0.52887">
        <ele>45.9</ele>
        <time>2020-09-03T08:29:33Z</time>
      </trkpt>
      <trkpt lat="45.15731" lon="-0.52886">
        <ele>45.9</ele>
        <time>2020-09-03T08:29:34Z</time>
      </trkpt>
      <trkpt lat="45.1573" lon="-0.52885">
        <ele>45.9</ele>
        <time>2020-09-03T08:29:35Z</time>
      </trkpt>
      <trkpt lat="45.15729" lon="-0.52884">
        <ele>45.9</ele>
        <time>2020-09-03T08:29:36Z</time>
      </trkpt>
      <trkpt lat="45.15726" lon="-0.52883">
        <ele>45.8</ele>
        <time>2020-09-03T08:29:38Z</time>
      </trkpt>
      <trkpt lat="45.15725" lon="-0.52883">
        <ele>45.8</ele>
        <time>2020-09-03T08:29:39Z</time>
      </trkpt>
      <trkpt lat="45.15724" lon="-0.52882">
        <ele>45.8</ele>
        <time>2020-09-03T08:29:40Z</time>
      </trkpt>
      <trkpt lat="45.15721" lon="-0.52882">
        <ele>45.8</ele>
        <time>2020-09-03T08:29:42Z</time>
      </trkpt>
      <trkpt lat="45.1572" lon="-0.52882">
        <ele>45.8</ele>
        <time>2020-09-03T08:29:43Z</time>
      </trkpt>
      <trkpt lat="45.15718" lon="-0.52882">
        <ele>45.8</ele>
        <time>2020-09-03T08:29:44Z</time>
      </trkpt>
      <trkpt lat="45.15716" lon="-0.52882">
        <ele>45.7</ele>
        <time>2020-09-03T08:29:45Z</time>
      </trkpt>
      <trkpt lat="45.15713" lon="-0.52883">
        <ele>45.7</ele>
        <time>2020-09-03T08:29:47Z</time>
      </trkpt>
      <trkpt lat="45.15712" lon="-0.52884">
        <ele>45.7</ele>
        <time>2020-09-03T08:29:48Z</time>
      </trkpt>
      <trkpt lat="45.15709" lon="-0.52885">
        <ele>45.7</ele>
        <time>2020-09-03T08:29:50Z</time>
      </trkpt>
      <trkpt lat="45.15708" lon="-0.52885">
        <ele>45.7</ele>
        <time>2020-09-03T08:29:51Z</time>
      </trkpt>
      <trkpt lat="45.15706" lon="-0.52885">
        <ele>45.7</ele>
        <time>2020-09-03T08:29:53Z</time>
      </trkpt>
      <trkpt lat="45.15704" lon="-0.52886">
        <ele>45.6</ele>
        <time>2020-09-03T08:29:54Z</time>
      </trkpt>
      <trkpt lat="45.15703" lon="-0.52886">
        <ele>45.6</ele>
        <time>2020-09-03T08:29:55Z</time>
      </trkpt>
      <trkpt lat="45.15702" lon="-0.52887">
        <ele>45.6</ele>
        <time>2020-09-03T08:29:56Z</time>
      </trkpt>
      <trkpt lat="45.15699" lon="-0.52887">
        <ele>45.6</ele>
        <time>2020-09-03T08:29:58Z</time>
      </trkpt>
      <trkpt lat="45.15697" lon="-0.52887">
        <ele>45.6</ele>
        <time>2020-09-03T08:30:00Z</time>
      </trkpt>
      <trkpt lat="45.15693" lon="-0.52888">
        <ele>45.6</ele>
        <time>2020-09-03T08:30:02Z</time>
      </trkpt>
      <trkpt lat="45.15693" lon="-0.52888">
        <ele>45.6</ele>
        <time>2020-09-03T08:30:03Z</time>
      </trkpt>
      <trkpt lat="45.15689" lon="-0.52889">
        <ele>45.6</ele>
        <time>2020-09-03T08:30:05Z</time>
      </trkpt>
      <trkpt lat="45.15687" lon="-0.52889">
        <ele>45.6</ele>
        <time>2020-09-03T08:30:06Z</time>
      </trkpt>
      <trkpt lat="45.15686" lon="-0.52889">
        <ele>45.6</ele>
        <time>2020-09-03T08:30:07Z</time>
      </trkpt>
      <trkpt lat="45.15684" lon="-0.5289">
        <ele>45.5</ele>
        <time>2020-09-03T08:30:09Z</time>
      </trkpt>
      <trkpt lat="45.15683" lon="-0.5289">
        <ele>45.5</ele>
        <time>2020-09-03T08:30:10Z</time>
      </trkpt>
      <trkpt lat="45.15681" lon="-0.5289">
        <ele>45.5</ele>
        <time>2020-09-03T08:30:11Z</time>
      </trkpt>
      <trkpt lat="45.15678" lon="-0.5289">
        <ele>45.5</ele>
        <time>2020-09-03T08:30:13Z</time>
      </trkpt>
      <trkpt lat="45.15677" lon="-0.5289">
        <ele>45.5</ele>
        <time>2020-09-03T08:30:14Z</time>
      </trkpt>
      <trkpt lat="45.15676" lon="-0.52889">
        <ele>45.5</ele>
        <time>2020-09-03T08:30:15Z</time>
      </trkpt>
      <trkpt lat="45.15675" lon="-0.52888">
        <ele>45.5</ele>
        <time>2020-09-03T08:30:16Z</time>
      </trkpt>
      <trkpt lat="45.15673" lon="-0.52888">
        <ele>45.5</ele>
        <time>2020-09-03T08:30:18Z</time>
      </trkpt>
      <trkpt lat="45.15672" lon="-0.52887">
        <ele>45.5</ele>
        <time>2020-09-03T08:30:19Z</time>
      </trkpt>
      <trkpt lat="45.15667" lon="-0.52888">
        <ele>45.5</ele>
        <time>2020-09-03T08:30:21Z</time>
      </trkpt>
      <trkpt lat="45.15667" lon="-0.52888">
        <ele>45.5</ele>
        <time>2020-09-03T08:30:22Z</time>
      </trkpt>
      <trkpt lat="45.15666" lon="-0.52888">
        <ele>45.5</ele>
        <time>2020-09-03T08:30:23Z</time>
      </trkpt>
      <trkpt lat="45.15664" lon="-0.52888">
        <ele>45.5</ele>
        <time>2020-09-03T08:30:24Z</time>
      </trkpt>
      <trkpt lat="45.15661" lon="-0.52889">
        <ele>45.5</ele>
        <time>2020-09-03T08:30:26Z</time>
      </trkpt>
      <trkpt lat="45.1566" lon="-0.52889">
        <ele>45.5</ele>
        <time>2020-09-03T08:30:27Z</time>
      </trkpt>
      <trkpt lat="45.15658" lon="-0.52889">
        <ele>45.5</ele>
        <time>2020-09-03T08:30:29Z</time>
      </trkpt>
      <trkpt lat="45.15657" lon="-0.5289">
        <ele>45.5</ele>
        <time>2020-09-03T08:30:30Z</time>
      </trkpt>
      <trkpt lat="45.15655" lon="-0.5289">
        <ele>45.5</ele>
        <time>2020-09-03T08:30:31Z</time>
      </trkpt>
      <trkpt lat="45.15653" lon="-0.52891">
        <ele>45.5</ele>
        <time>2020-09-03T08:30:33Z</time>
      </trkpt>
      <trkpt lat="45.15652" lon="-0.52891">
        <ele>45.5</ele>
        <time>2020-09-03T08:30:34Z</time>
      </trkpt>
      <trkpt lat="45.15651" lon="-0.52891">
        <ele>45.5</ele>
        <time>2020-09-03T08:30:35Z</time>
      </trkpt>
      <trkpt lat="45.1565" lon="-0.52891">
        <ele>45.5</ele>
        <time>2020-09-03T08:30:36Z</time>
      </trkpt>
      <trkpt lat="45.15648" lon="-0.52892">
        <ele>45.5</ele>
        <time>2020-09-03T08:30:38Z</time>
      </trkpt>
      <trkpt lat="45.15646" lon="-0.52892">
        <ele>45.5</ele>
        <time>2020-09-03T08:30:39Z</time>
      </trkpt>
      <trkpt lat="45.15645" lon="-0.52892">
        <ele>45.5</ele>
        <time>2020-09-03T08:30:41Z</time>
      </trkpt>
      <trkpt lat="45.15643" lon="-0.52892">
        <ele>45.5</ele>
        <time>2020-09-03T08:30:42Z</time>
      </trkpt>
      <trkpt lat="45.15642" lon="-0.52892">
        <ele>45.5</ele>
        <time>2020-09-03T08:30:43Z</time>
      </trkpt>
      <trkpt lat="45.15641" lon="-0.52892">
        <ele>45.5</ele>
        <time>2020-09-03T08:30:44Z</time>
      </trkpt>
      <trkpt lat="45.15638" lon="-0.52892">
        <ele>45.6</ele>
        <time>2020-09-03T08:30:46Z</time>
      </trkpt>
      <trkpt lat="45.15637" lon="-0.52893">
        <ele>45.6</ele>
        <time>2020-09-03T08:30:47Z</time>
      </trkpt>
      <trkpt lat="45.15636" lon="-0.52893">
        <ele>45.6</ele>
        <time>2020-09-03T08:30:48Z</time>
      </trkpt>
      <trkpt lat="45.15633" lon="-0.52894">
        <ele>45.6</ele>
        <time>2020-09-03T08:30:49Z</time>
      </trkpt>
      <trkpt lat="45.15632" lon="-0.52894">
        <ele>45.6</ele>
        <time>2020-09-03T08:30:51Z</time>
      </trkpt>
      <trkpt lat="45.1563" lon="-0.52894">
        <ele>45.7</ele>
        <time>2020-09-03T08:30:53Z</time>
      </trkpt>
      <trkpt lat="45.15629" lon="-0.52894">
        <ele>45.7</ele>
        <time>2020-09-03T08:30:54Z</time>
      </trkpt>
      <trkpt lat="45.15628" lon="-0.52895">
        <ele>45.7</ele>
        <time>2020-09-03T08:30:55Z</time>
      </trkpt>
      <trkpt lat="45.15627" lon="-0.52895">
        <ele>45.7</ele>
        <time>2020-09-03T08:30:56Z</time>
      </trkpt>
      <trkpt lat="45.15625" lon="-0.52896">
        <ele>45.7</ele>
        <time>2020-09-03T08:30:58Z</time>
      </trkpt>
      <trkpt lat="45.15623" lon="-0.52896">
        <ele>45.8</ele>
        <time>2020-09-03T08:30:59Z</time>
      </trkpt>
      <trkpt lat="45.1562" lon="-0.52896">
        <ele>45.8</ele>
        <time>2020-09-03T08:31:01Z</time>
      </trkpt>
      <trkpt lat="45.15618" lon="-0.52897">
        <ele>45.8</ele>
        <time>2020-09-03T08:31:02Z</time>
      </trkpt>
      <trkpt lat="45.15617" lon="-0.52897">
        <ele>45.8</ele>
        <time>2020-09-03T08:31:03Z</time>
      </trkpt>
      <trkpt lat="45.15614" lon="-0.52897">
        <ele>45.8</ele>
        <time>2020-09-03T08:31:05Z</time>
      </trkpt>
      <trkpt lat="45.15612" lon="-0.52898">
        <ele>45.9</ele>
        <time>2020-09-03T08:31:06Z</time>
      </trkpt>
      <trkpt lat="45.1561" lon="-0.52898">
        <ele>45.9</ele>
        <time>2020-09-03T08:31:07Z</time>
      </trkpt>
      <trkpt lat="45.15609" lon="-0.52898">
        <ele>45.9</ele>
        <time>2020-09-03T08:31:08Z</time>
      </trkpt>
      <trkpt lat="45.15607" lon="-0.52898">
        <ele>45.9</ele>
        <time>2020-09-03T08:31:10Z</time>
      </trkpt>
      <trkpt lat="45.15604" lon="-0.52899">
        <ele>46</ele>
        <time>2020-09-03T08:31:12Z</time>
      </trkpt>
      <trkpt lat="45.15602" lon="-0.52899">
        <ele>46</ele>
        <time>2020-09-03T08:31:14Z</time>
      </trkpt>
      <trkpt lat="45.15601" lon="-0.52899">
        <ele>46</ele>
        <time>2020-09-03T08:31:15Z</time>
      </trkpt>
      <trkpt lat="45.15599" lon="-0.52899">
        <ele>46.1</ele>
        <time>2020-09-03T08:31:16Z</time>
      </trkpt>
      <trkpt lat="45.15597" lon="-0.52899">
        <ele>46.1</ele>
        <time>2020-09-03T08:31:18Z</time>
      </trkpt>
      <trkpt lat="45.15596" lon="-0.52899">
        <ele>46.1</ele>
        <time>2020-09-03T08:31:19Z</time>
      </trkpt>
      <trkpt lat="45.15595" lon="-0.52899">
        <ele>46.2</ele>
        <time>2020-09-03T08:31:20Z</time>
      </trkpt>
      <trkpt lat="45.15593" lon="-0.52897">
        <ele>46.2</ele>
        <time>2020-09-03T08:31:22Z</time>
      </trkpt>
      <trkpt lat="45.15591" lon="-0.52896">
        <ele>46.3</ele>
        <time>2020-09-03T08:31:23Z</time>
      </trkpt>
      <trkpt lat="45.15589" lon="-0.52895">
        <ele>46.3</ele>
        <time>2020-09-03T08:31:25Z</time>
      </trkpt>
      <trkpt lat="45.15587" lon="-0.52894">
        <ele>46.3</ele>
        <time>2020-09-03T08:31:26Z</time>
      </trkpt>
      <trkpt lat="45.15586" lon="-0.52894">
        <ele>46.3</ele>
        <time>2020-09-03T08:31:27Z</time>
      </trkpt>
      <trkpt lat="45.15585" lon="-0.52893">
        <ele>46.3</ele>
        <time>2020-09-03T08:31:28Z</time>
      </trkpt>
      <trkpt lat="45.15583" lon="-0.52893">
        <ele>46.3</ele>
        <time>2020-09-03T08:31:30Z</time>
      </trkpt>
      <trkpt lat="45.15582" lon="-0.52892">
        <ele>46.3</ele>
        <time>2020-09-03T08:31:32Z</time>
      </trkpt>
      <trkpt lat="45.1558" lon="-0.52892">
        <ele>46.3</ele>
        <time>2020-09-03T08:31:33Z</time>
      </trkpt>
      <trkpt lat="45.15578" lon="-0.52891">
        <ele>46.3</ele>
        <time>2020-09-03T08:31:35Z</time>
      </trkpt>
      <trkpt lat="45.15575" lon="-0.52889">
        <ele>46.3</ele>
        <time>2020-09-03T08:31:36Z</time>
      </trkpt>
      <trkpt lat="45.15575" lon="-0.52889">
        <ele>46.3</ele>
        <time>2020-09-03T08:31:37Z</time>
      </trkpt>
      <trkpt lat="45.15573" lon="-0.52889">
        <ele>46.3</ele>
        <time>2020-09-03T08:31:39Z</time>
      </trkpt>
      <trkpt lat="45.15572" lon="-0.5289">
        <ele>46.2</ele>
        <time>2020-09-03T08:31:40Z</time>
      </trkpt>
      <trkpt lat="45.1557" lon="-0.5289">
        <ele>46.2</ele>
        <time>2020-09-03T08:31:41Z</time>
      </trkpt>
      <trkpt lat="45.1557" lon="-0.5289">
        <ele>46.2</ele>
        <time>2020-09-03T08:31:42Z</time>
      </trkpt>
      <trkpt lat="45.15569" lon="-0.5289">
        <ele>46.2</ele>
        <time>2020-09-03T08:31:43Z</time>
      </trkpt>
      <trkpt lat="45.15568" lon="-0.5289">
        <ele>46.2</ele>
        <time>2020-09-03T08:31:44Z</time>
      </trkpt>
      <trkpt lat="45.15567" lon="-0.52891">
        <ele>46.3</ele>
        <time>2020-09-03T08:31:45Z</time>
      </trkpt>
      <trkpt lat="45.15566" lon="-0.52892">
        <ele>46.3</ele>
        <time>2020-09-03T08:31:46Z</time>
      </trkpt>
      <trkpt lat="45.15566" lon="-0.52893">
        <ele>46.3</ele>
        <time>2020-09-03T08:31:47Z</time>
      </trkpt>
      <trkpt lat="45.15564" lon="-0.52894">
        <ele>46.3</ele>
        <time>2020-09-03T08:31:48Z</time>
      </trkpt>
      <trkpt lat="45.15563" lon="-0.52894">
        <ele>46.3</ele>
        <time>2020-09-03T08:31:49Z</time>
      </trkpt>
      <trkpt lat="45.15562" lon="-0.52895">
        <ele>46.3</ele>
        <time>2020-09-03T08:31:50Z</time>
      </trkpt>
      <trkpt lat="45.1556" lon="-0.52896">
        <ele>46.4</ele>
        <time>2020-09-03T08:31:52Z</time>
      </trkpt>
      <trkpt lat="45.15559" lon="-0.52896">
        <ele>46.4</ele>
        <time>2020-09-03T08:31:53Z</time>
      </trkpt>
      <trkpt lat="45.15556" lon="-0.52896">
        <ele>46.4</ele>
        <time>2020-09-03T08:31:55Z</time>
      </trkpt>
      <trkpt lat="45.15555" lon="-0.52896">
        <ele>46.4</ele>
        <time>2020-09-03T08:31:56Z</time>
      </trkpt>
      <trkpt lat="45.15553" lon="-0.52894">
        <ele>46.4</ele>
        <time>2020-09-03T08:31:57Z</time>
      </trkpt>
      <trkpt lat="45.15552" lon="-0.52893">
        <ele>46.4</ele>
        <time>2020-09-03T08:31:59Z</time>
      </trkpt>
      <trkpt lat="45.15551" lon="-0.52893">
        <ele>46.4</ele>
        <time>2020-09-03T08:32:00Z</time>
      </trkpt>
      <trkpt lat="45.1555" lon="-0.52892">
        <ele>46.4</ele>
        <time>2020-09-03T08:32:01Z</time>
      </trkpt>
      <trkpt lat="45.15548" lon="-0.52891">
        <ele>46.3</ele>
        <time>2020-09-03T08:32:02Z</time>
      </trkpt>
      <trkpt lat="45.15547" lon="-0.52891">
        <ele>46.3</ele>
        <time>2020-09-03T08:32:03Z</time>
      </trkpt>
      <trkpt lat="45.15545" lon="-0.52891">
        <ele>46.3</ele>
        <time>2020-09-03T08:32:04Z</time>
      </trkpt>
      <trkpt lat="45.15543" lon="-0.52891">
        <ele>46.3</ele>
        <time>2020-09-03T08:32:06Z</time>
      </trkpt>
      <trkpt lat="45.15542" lon="-0.52892">
        <ele>46.3</ele>
        <time>2020-09-03T08:32:07Z</time>
      </trkpt>
      <trkpt lat="45.1554" lon="-0.52892">
        <ele>46.2</ele>
        <time>2020-09-03T08:32:08Z</time>
      </trkpt>
      <trkpt lat="45.15538" lon="-0.52892">
        <ele>46.2</ele>
        <time>2020-09-03T08:32:10Z</time>
      </trkpt>
      <trkpt lat="45.15534" lon="-0.52892">
        <ele>46.1</ele>
        <time>2020-09-03T08:32:11Z</time>
      </trkpt>
      <trkpt lat="45.15534" lon="-0.52893">
        <ele>46.1</ele>
        <time>2020-09-03T08:32:12Z</time>
      </trkpt>
      <trkpt lat="45.15532" lon="-0.52893">
        <ele>46.1</ele>
        <time>2020-09-03T08:32:13Z</time>
      </trkpt>
      <trkpt lat="45.1553" lon="-0.52893">
        <ele>46</ele>
        <time>2020-09-03T08:32:14Z</time>
      </trkpt>
      <trkpt lat="45.15528" lon="-0.52894">
        <ele>45.9</ele>
        <time>2020-09-03T08:32:16Z</time>
      </trkpt>
      <trkpt lat="45.15527" lon="-0.52894">
        <ele>45.9</ele>
        <time>2020-09-03T08:32:17Z</time>
      </trkpt>
      <trkpt lat="45.15524" lon="-0.52894">
        <ele>45.8</ele>
        <time>2020-09-03T08:32:18Z</time>
      </trkpt>
      <trkpt lat="45.15523" lon="-0.52895">
        <ele>45.8</ele>
        <time>2020-09-03T08:32:19Z</time>
      </trkpt>
      <trkpt lat="45.15522" lon="-0.52895">
        <ele>45.8</ele>
        <time>2020-09-03T08:32:20Z</time>
      </trkpt>
      <trkpt lat="45.1552" lon="-0.52895">
        <ele>45.7</ele>
        <time>2020-09-03T08:32:22Z</time>
      </trkpt>
      <trkpt lat="45.15519" lon="-0.52895">
        <ele>45.7</ele>
        <time>2020-09-03T08:32:23Z</time>
      </trkpt>
      <trkpt lat="45.15516" lon="-0.52896">
        <ele>45.6</ele>
        <time>2020-09-03T08:32:25Z</time>
      </trkpt>
      <trkpt lat="45.15514" lon="-0.52897">
        <ele>45.6</ele>
        <time>2020-09-03T08:32:26Z</time>
      </trkpt>
      <trkpt lat="45.15514" lon="-0.52897">
        <ele>45.6</ele>
        <time>2020-09-03T08:32:27Z</time>
      </trkpt>
      <trkpt lat="45.15512" lon="-0.52898">
        <ele>45.5</ele>
        <time>2020-09-03T08:32:28Z</time>
      </trkpt>
      <trkpt lat="45.15511" lon="-0.52898">
        <ele>45.5</ele>
        <time>2020-09-03T08:32:30Z</time>
      </trkpt>
      <trkpt lat="45.1551" lon="-0.52899">
        <ele>45.5</ele>
        <time>2020-09-03T08:32:31Z</time>
      </trkpt>
      <trkpt lat="45.15508" lon="-0.52901">
        <ele>45.4</ele>
        <time>2020-09-03T08:32:33Z</time>
      </trkpt>
      <trkpt lat="45.15508" lon="-0.52902">
        <ele>45.4</ele>
        <time>2020-09-03T08:32:34Z</time>
      </trkpt>
      <trkpt lat="45.15508" lon="-0.52903">
        <ele>45.4</ele>
        <time>2020-09-03T08:32:36Z</time>
      </trkpt>
      <trkpt lat="45.15508" lon="-0.52903">
        <ele>45.4</ele>
        <time>2020-09-03T08:32:37Z</time>
      </trkpt>
      <trkpt lat="45.15508" lon="-0.52904">
        <ele>45.4</ele>
        <time>2020-09-03T08:32:38Z</time>
      </trkpt>
      <trkpt lat="45.15506" lon="-0.52905">
        <ele>45.4</ele>
        <time>2020-09-03T08:32:40Z</time>
      </trkpt>
      <trkpt lat="45.15503" lon="-0.52907">
        <ele>45.3</ele>
        <time>2020-09-03T08:32:42Z</time>
      </trkpt>
      <trkpt lat="45.15501" lon="-0.52907">
        <ele>45.3</ele>
        <time>2020-09-03T08:32:43Z</time>
      </trkpt>
      <trkpt lat="45.155" lon="-0.52907">
        <ele>45.2</ele>
        <time>2020-09-03T08:32:44Z</time>
      </trkpt>
      <trkpt lat="45.15499" lon="-0.52907">
        <ele>45.2</ele>
        <time>2020-09-03T08:32:45Z</time>
      </trkpt>
      <trkpt lat="45.15499" lon="-0.52907">
        <ele>45.2</ele>
        <time>2020-09-03T08:32:46Z</time>
      </trkpt>
      <trkpt lat="45.15498" lon="-0.52907">
        <ele>45.2</ele>
        <time>2020-09-03T08:32:47Z</time>
      </trkpt>
      <trkpt lat="45.15497" lon="-0.52908">
        <ele>45.2</ele>
        <time>2020-09-03T08:32:48Z</time>
      </trkpt>
      <trkpt lat="45.15495" lon="-0.52908">
        <ele>45.1</ele>
        <time>2020-09-03T08:32:49Z</time>
      </trkpt>
      <trkpt lat="45.15494" lon="-0.52908">
        <ele>45.1</ele>
        <time>2020-09-03T08:32:51Z</time>
      </trkpt>
      <trkpt lat="45.15493" lon="-0.52909">
        <ele>45.1</ele>
        <time>2020-09-03T08:32:52Z</time>
      </trkpt>
      <trkpt lat="45.15492" lon="-0.52909">
        <ele>45</ele>
        <time>2020-09-03T08:32:53Z</time>
      </trkpt>
      <trkpt lat="45.1549" lon="-0.5291">
        <ele>45</ele>
        <time>2020-09-03T08:32:54Z</time>
      </trkpt>
      <trkpt lat="45.15488" lon="-0.52911">
        <ele>44.9</ele>
        <time>2020-09-03T08:32:55Z</time>
      </trkpt>
      <trkpt lat="45.15488" lon="-0.52912">
        <ele>44.9</ele>
        <time>2020-09-03T08:32:57Z</time>
      </trkpt>
      <trkpt lat="45.15487" lon="-0.52912">
        <ele>44.9</ele>
        <time>2020-09-03T08:32:58Z</time>
      </trkpt>
      <trkpt lat="45.15485" lon="-0.52914">
        <ele>44.8</ele>
        <time>2020-09-03T08:32:59Z</time>
      </trkpt>
      <trkpt lat="45.15483" lon="-0.52916">
        <ele>44.7</ele>
        <time>2020-09-03T08:33:01Z</time>
      </trkpt>
      <trkpt lat="45.15482" lon="-0.52917">
        <ele>44.7</ele>
        <time>2020-09-03T08:33:02Z</time>
      </trkpt>
      <trkpt lat="45.15481" lon="-0.52918">
        <ele>44.7</ele>
        <time>2020-09-03T08:33:03Z</time>
      </trkpt>
      <trkpt lat="45.1548" lon="-0.52921">
        <ele>44.6</ele>
        <time>2020-09-03T08:33:05Z</time>
      </trkpt>
      <trkpt lat="45.15479" lon="-0.52922">
        <ele>44.5</ele>
        <time>2020-09-03T08:33:06Z</time>
      </trkpt>
      <trkpt lat="45.15476" lon="-0.52924">
        <ele>44.4</ele>
        <time>2020-09-03T08:33:08Z</time>
      </trkpt>
      <trkpt lat="45.15475" lon="-0.52925">
        <ele>44.4</ele>
        <time>2020-09-03T08:33:09Z</time>
      </trkpt>
      <trkpt lat="45.15474" lon="-0.52926">
        <ele>44.3</ele>
        <time>2020-09-03T08:33:10Z</time>
      </trkpt>
      <trkpt lat="45.15471" lon="-0.52928">
        <ele>44.2</ele>
        <time>2020-09-03T08:33:12Z</time>
      </trkpt>
      <trkpt lat="45.15469" lon="-0.52929">
        <ele>44.2</ele>
        <time>2020-09-03T08:33:13Z</time>
      </trkpt>
      <trkpt lat="45.15468" lon="-0.5293">
        <ele>44.2</ele>
        <time>2020-09-03T08:33:14Z</time>
      </trkpt>
      <trkpt lat="45.15466" lon="-0.5293">
        <ele>44.1</ele>
        <time>2020-09-03T08:33:15Z</time>
      </trkpt>
      <trkpt lat="45.15463" lon="-0.5293">
        <ele>44.1</ele>
        <time>2020-09-03T08:33:17Z</time>
      </trkpt>
      <trkpt lat="45.15461" lon="-0.5293">
        <ele>44.1</ele>
        <time>2020-09-03T08:33:18Z</time>
      </trkpt>
      <trkpt lat="45.15459" lon="-0.52931">
        <ele>44</ele>
        <time>2020-09-03T08:33:19Z</time>
      </trkpt>
      <trkpt lat="45.15458" lon="-0.52931">
        <ele>44</ele>
        <time>2020-09-03T08:33:20Z</time>
      </trkpt>
      <trkpt lat="45.15456" lon="-0.52931">
        <ele>44</ele>
        <time>2020-09-03T08:33:21Z</time>
      </trkpt>
      <trkpt lat="45.15454" lon="-0.52931">
        <ele>44</ele>
        <time>2020-09-03T08:33:23Z</time>
      </trkpt>
      <trkpt lat="45.15453" lon="-0.52932">
        <ele>44</ele>
        <time>2020-09-03T08:33:24Z</time>
      </trkpt>
      <trkpt lat="45.15452" lon="-0.52932">
        <ele>43.9</ele>
        <time>2020-09-03T08:33:25Z</time>
      </trkpt>
      <trkpt lat="45.1545" lon="-0.52933">
        <ele>43.9</ele>
        <time>2020-09-03T08:33:26Z</time>
      </trkpt>
      <trkpt lat="45.15449" lon="-0.52934">
        <ele>43.9</ele>
        <time>2020-09-03T08:33:27Z</time>
      </trkpt>
      <trkpt lat="45.15448" lon="-0.52934">
        <ele>43.9</ele>
        <time>2020-09-03T08:33:29Z</time>
      </trkpt>
      <trkpt lat="45.15447" lon="-0.52935">
        <ele>43.9</ele>
        <time>2020-09-03T08:33:30Z</time>
      </trkpt>
      <trkpt lat="45.15446" lon="-0.52936">
        <ele>43.9</ele>
        <time>2020-09-03T08:33:32Z</time>
      </trkpt>
      <trkpt lat="45.15445" lon="-0.52936">
        <ele>43.9</ele>
        <time>2020-09-03T08:33:33Z</time>
      </trkpt>
      <trkpt lat="45.15444" lon="-0.52938">
        <ele>43.9</ele>
        <time>2020-09-03T08:33:34Z</time>
      </trkpt>
      <trkpt lat="45.15443" lon="-0.52939">
        <ele>43.9</ele>
        <time>2020-09-03T08:33:35Z</time>
      </trkpt>
      <trkpt lat="45.15442" lon="-0.5294">
        <ele>43.9</ele>
        <time>2020-09-03T08:33:37Z</time>
      </trkpt>
      <trkpt lat="45.15441" lon="-0.52941">
        <ele>43.9</ele>
        <time>2020-09-03T08:33:38Z</time>
      </trkpt>
      <trkpt lat="45.15439" lon="-0.52942">
        <ele>43.9</ele>
        <time>2020-09-03T08:33:40Z</time>
      </trkpt>
      <trkpt lat="45.15438" lon="-0.52943">
        <ele>43.9</ele>
        <time>2020-09-03T08:33:41Z</time>
      </trkpt>
      <trkpt lat="45.15437" lon="-0.52945">
        <ele>43.9</ele>
        <time>2020-09-03T08:33:42Z</time>
      </trkpt>
      <trkpt lat="45.15436" lon="-0.52945">
        <ele>43.8</ele>
        <time>2020-09-03T08:33:43Z</time>
      </trkpt>
      <trkpt lat="45.15435" lon="-0.52947">
        <ele>43.8</ele>
        <time>2020-09-03T08:33:45Z</time>
      </trkpt>
      <trkpt lat="45.15434" lon="-0.52948">
        <ele>43.8</ele>
        <time>2020-09-03T08:33:46Z</time>
      </trkpt>
      <trkpt lat="45.15432" lon="-0.52949">
        <ele>43.8</ele>
        <time>2020-09-03T08:33:47Z</time>
      </trkpt>
      <trkpt lat="45.15431" lon="-0.5295">
        <ele>43.8</ele>
        <time>2020-09-03T08:33:48Z</time>
      </trkpt>
      <trkpt lat="45.15429" lon="-0.52952">
        <ele>43.7</ele>
        <time>2020-09-03T08:33:50Z</time>
      </trkpt>
      <trkpt lat="45.15428" lon="-0.52953">
        <ele>43.7</ele>
        <time>2020-09-03T08:33:51Z</time>
      </trkpt>
      <trkpt lat="45.15427" lon="-0.52954">
        <ele>43.7</ele>
        <time>2020-09-03T08:33:52Z</time>
      </trkpt>
      <trkpt lat="45.15425" lon="-0.52955">
        <ele>43.7</ele>
        <time>2020-09-03T08:33:53Z</time>
      </trkpt>
      <trkpt lat="45.15424" lon="-0.52956">
        <ele>43.7</ele>
        <time>2020-09-03T08:33:55Z</time>
      </trkpt>
      <trkpt lat="45.15423" lon="-0.52957">
        <ele>43.7</ele>
        <time>2020-09-03T08:33:56Z</time>
      </trkpt>
      <trkpt lat="45.15421" lon="-0.52959">
        <ele>43.6</ele>
        <time>2020-09-03T08:33:57Z</time>
      </trkpt>
      <trkpt lat="45.15419" lon="-0.5296">
        <ele>43.6</ele>
        <time>2020-09-03T08:33:59Z</time>
      </trkpt>
      <trkpt lat="45.15418" lon="-0.5296">
        <ele>43.6</ele>
        <time>2020-09-03T08:34:00Z</time>
      </trkpt>
      <trkpt lat="45.15417" lon="-0.52961">
        <ele>43.6</ele>
        <time>2020-09-03T08:34:01Z</time>
      </trkpt>
      <trkpt lat="45.15415" lon="-0.52962">
        <ele>43.6</ele>
        <time>2020-09-03T08:34:02Z</time>
      </trkpt>
      <trkpt lat="45.15414" lon="-0.52963">
        <ele>43.6</ele>
        <time>2020-09-03T08:34:03Z</time>
      </trkpt>
      <trkpt lat="45.15413" lon="-0.52963">
        <ele>43.6</ele>
        <time>2020-09-03T08:34:04Z</time>
      </trkpt>
      <trkpt lat="45.15412" lon="-0.52964">
        <ele>43.6</ele>
        <time>2020-09-03T08:34:05Z</time>
      </trkpt>
      <trkpt lat="45.15409" lon="-0.52965">
        <ele>43.6</ele>
        <time>2020-09-03T08:34:07Z</time>
      </trkpt>
      <trkpt lat="45.15407" lon="-0.52966">
        <ele>43.5</ele>
        <time>2020-09-03T08:34:08Z</time>
      </trkpt>
      <trkpt lat="45.15405" lon="-0.52966">
        <ele>43.5</ele>
        <time>2020-09-03T08:34:10Z</time>
      </trkpt>
      <trkpt lat="45.15404" lon="-0.52967">
        <ele>43.5</ele>
        <time>2020-09-03T08:34:11Z</time>
      </trkpt>
      <trkpt lat="45.15402" lon="-0.52967">
        <ele>43.5</ele>
        <time>2020-09-03T08:34:12Z</time>
      </trkpt>
      <trkpt lat="45.15401" lon="-0.52968">
        <ele>43.5</ele>
        <time>2020-09-03T08:34:13Z</time>
      </trkpt>
      <trkpt lat="45.15399" lon="-0.52969">
        <ele>43.5</ele>
        <time>2020-09-03T08:34:15Z</time>
      </trkpt>
      <trkpt lat="45.15398" lon="-0.52969">
        <ele>43.5</ele>
        <time>2020-09-03T08:34:16Z</time>
      </trkpt>
      <trkpt lat="45.15397" lon="-0.5297">
        <ele>43.5</ele>
        <time>2020-09-03T08:34:17Z</time>
      </trkpt>
      <trkpt lat="45.15395" lon="-0.52971">
        <ele>43.4</ele>
        <time>2020-09-03T08:34:19Z</time>
      </trkpt>
      <trkpt lat="45.15394" lon="-0.52972">
        <ele>43.4</ele>
        <time>2020-09-03T08:34:20Z</time>
      </trkpt>
      <trkpt lat="45.15392" lon="-0.52973">
        <ele>43.4</ele>
        <time>2020-09-03T08:34:21Z</time>
      </trkpt>
      <trkpt lat="45.1539" lon="-0.52974">
        <ele>43.4</ele>
        <time>2020-09-03T08:34:23Z</time>
      </trkpt>
      <trkpt lat="45.15389" lon="-0.52975">
        <ele>43.4</ele>
        <time>2020-09-03T08:34:24Z</time>
      </trkpt>
      <trkpt lat="45.15388" lon="-0.52976">
        <ele>43.4</ele>
        <time>2020-09-03T08:34:25Z</time>
      </trkpt>
      <trkpt lat="45.15386" lon="-0.52977">
        <ele>43.3</ele>
        <time>2020-09-03T08:34:27Z</time>
      </trkpt>
      <trkpt lat="45.15385" lon="-0.52978">
        <ele>43.3</ele>
        <time>2020-09-03T08:34:28Z</time>
      </trkpt>
      <trkpt lat="45.15383" lon="-0.5298">
        <ele>43.3</ele>
        <time>2020-09-03T08:34:29Z</time>
      </trkpt>
      <trkpt lat="45.15382" lon="-0.5298">
        <ele>43.3</ele>
        <time>2020-09-03T08:34:31Z</time>
      </trkpt>
      <trkpt lat="45.1538" lon="-0.52982">
        <ele>43.3</ele>
        <time>2020-09-03T08:34:32Z</time>
      </trkpt>
      <trkpt lat="45.15379" lon="-0.52982">
        <ele>43.3</ele>
        <time>2020-09-03T08:34:33Z</time>
      </trkpt>
      <trkpt lat="45.15378" lon="-0.52983">
        <ele>43.3</ele>
        <time>2020-09-03T08:34:34Z</time>
      </trkpt>
      <trkpt lat="45.15377" lon="-0.52985">
        <ele>43.2</ele>
        <time>2020-09-03T08:34:36Z</time>
      </trkpt>
      <trkpt lat="45.15375" lon="-0.52986">
        <ele>43.2</ele>
        <time>2020-09-03T08:34:37Z</time>
      </trkpt>
      <trkpt lat="45.15374" lon="-0.52987">
        <ele>43.2</ele>
        <time>2020-09-03T08:34:38Z</time>
      </trkpt>
      <trkpt lat="45.15373" lon="-0.52987">
        <ele>43.2</ele>
        <time>2020-09-03T08:34:39Z</time>
      </trkpt>
      <trkpt lat="45.1537" lon="-0.52988">
        <ele>43.2</ele>
        <time>2020-09-03T08:34:41Z</time>
      </trkpt>
      <trkpt lat="45.15369" lon="-0.52989">
        <ele>43.2</ele>
        <time>2020-09-03T08:34:43Z</time>
      </trkpt>
      <trkpt lat="45.15368" lon="-0.5299">
        <ele>43.2</ele>
        <time>2020-09-03T08:34:44Z</time>
      </trkpt>
      <trkpt lat="45.15367" lon="-0.5299">
        <ele>43.2</ele>
        <time>2020-09-03T08:34:45Z</time>
      </trkpt>
      <trkpt lat="45.15366" lon="-0.52991">
        <ele>43.2</ele>
        <time>2020-09-03T08:34:46Z</time>
      </trkpt>
      <trkpt lat="45.15365" lon="-0.52992">
        <ele>43.2</ele>
        <time>2020-09-03T08:34:48Z</time>
      </trkpt>
      <trkpt lat="45.15363" lon="-0.52993">
        <ele>43.2</ele>
        <time>2020-09-03T08:34:50Z</time>
      </trkpt>
      <trkpt lat="45.15362" lon="-0.52994">
        <ele>43.2</ele>
        <time>2020-09-03T08:34:51Z</time>
      </trkpt>
      <trkpt lat="45.15359" lon="-0.52995">
        <ele>43.2</ele>
        <time>2020-09-03T08:34:52Z</time>
      </trkpt>
      <trkpt lat="45.15358" lon="-0.52996">
        <ele>43.1</ele>
        <time>2020-09-03T08:34:53Z</time>
      </trkpt>
      <trkpt lat="45.15358" lon="-0.52996">
        <ele>43.1</ele>
        <time>2020-09-03T08:34:54Z</time>
      </trkpt>
      <trkpt lat="45.15357" lon="-0.52996">
        <ele>43.1</ele>
        <time>2020-09-03T08:34:55Z</time>
      </trkpt>
      <trkpt lat="45.15356" lon="-0.52997">
        <ele>43.1</ele>
        <time>2020-09-03T08:34:56Z</time>
      </trkpt>
      <trkpt lat="45.15354" lon="-0.52998">
        <ele>43.1</ele>
        <time>2020-09-03T08:34:58Z</time>
      </trkpt>
      <trkpt lat="45.15353" lon="-0.52998">
        <ele>43.1</ele>
        <time>2020-09-03T08:34:59Z</time>
      </trkpt>
      <trkpt lat="45.15351" lon="-0.52999">
        <ele>43.1</ele>
        <time>2020-09-03T08:35:00Z</time>
      </trkpt>
      <trkpt lat="45.1535" lon="-0.53">
        <ele>43.1</ele>
        <time>2020-09-03T08:35:01Z</time>
      </trkpt>
      <trkpt lat="45.15348" lon="-0.53001">
        <ele>43.1</ele>
        <time>2020-09-03T08:35:03Z</time>
      </trkpt>
      <trkpt lat="45.15346" lon="-0.53002">
        <ele>43.1</ele>
        <time>2020-09-03T08:35:04Z</time>
      </trkpt>
      <trkpt lat="45.15345" lon="-0.53002">
        <ele>43.1</ele>
        <time>2020-09-03T08:35:06Z</time>
      </trkpt>
      <trkpt lat="45.15344" lon="-0.53002">
        <ele>43.1</ele>
        <time>2020-09-03T08:35:07Z</time>
      </trkpt>
      <trkpt lat="45.15342" lon="-0.53003">
        <ele>43.1</ele>
        <time>2020-09-03T08:35:08Z</time>
      </trkpt>
      <trkpt lat="45.1534" lon="-0.53004">
        <ele>43.1</ele>
        <time>2020-09-03T08:35:10Z</time>
      </trkpt>
      <trkpt lat="45.15337" lon="-0.53005">
        <ele>43.1</ele>
        <time>2020-09-03T08:35:11Z</time>
      </trkpt>
      <trkpt lat="45.15335" lon="-0.53006">
        <ele>43.1</ele>
        <time>2020-09-03T08:35:12Z</time>
      </trkpt>
      <trkpt lat="45.15333" lon="-0.53007">
        <ele>43.1</ele>
        <time>2020-09-03T08:35:13Z</time>
      </trkpt>
      <trkpt lat="45.15331" lon="-0.53007">
        <ele>43.1</ele>
        <time>2020-09-03T08:35:15Z</time>
      </trkpt>
      <trkpt lat="45.1533" lon="-0.53008">
        <ele>43.1</ele>
        <time>2020-09-03T08:35:16Z</time>
      </trkpt>
      <trkpt lat="45.15328" lon="-0.53008">
        <ele>43.1</ele>
        <time>2020-09-03T08:35:17Z</time>
      </trkpt>
      <trkpt lat="45.15327" lon="-0.53008">
        <ele>43.1</ele>
        <time>2020-09-03T08:35:19Z</time>
      </trkpt>
      <trkpt lat="45.15325" lon="-0.53008">
        <ele>43.1</ele>
        <time>2020-09-03T08:35:20Z</time>
      </trkpt>
      <trkpt lat="45.15323" lon="-0.53009">
        <ele>43.1</ele>
        <time>2020-09-03T08:35:22Z</time>
      </trkpt>
      <trkpt lat="45.15322" lon="-0.53009">
        <ele>43.1</ele>
        <time>2020-09-03T08:35:23Z</time>
      </trkpt>
      <trkpt lat="45.1532" lon="-0.5301">
        <ele>43.1</ele>
        <time>2020-09-03T08:35:24Z</time>
      </trkpt>
      <trkpt lat="45.15319" lon="-0.5301">
        <ele>43</ele>
        <time>2020-09-03T08:35:25Z</time>
      </trkpt>
      <trkpt lat="45.15318" lon="-0.53011">
        <ele>43</ele>
        <time>2020-09-03T08:35:26Z</time>
      </trkpt>
      <trkpt lat="45.15315" lon="-0.53012">
        <ele>43</ele>
        <time>2020-09-03T08:35:28Z</time>
      </trkpt>
      <trkpt lat="45.15314" lon="-0.53012">
        <ele>43</ele>
        <time>2020-09-03T08:35:29Z</time>
      </trkpt>
      <trkpt lat="45.15312" lon="-0.53013">
        <ele>43</ele>
        <time>2020-09-03T08:35:30Z</time>
      </trkpt>
      <trkpt lat="45.15311" lon="-0.53014">
        <ele>43</ele>
        <time>2020-09-03T08:35:31Z</time>
      </trkpt>
      <trkpt lat="45.15308" lon="-0.53014">
        <ele>43</ele>
        <time>2020-09-03T08:35:33Z</time>
      </trkpt>
      <trkpt lat="45.15307" lon="-0.53014">
        <ele>43</ele>
        <time>2020-09-03T08:35:34Z</time>
      </trkpt>
      <trkpt lat="45.15306" lon="-0.53015">
        <ele>43</ele>
        <time>2020-09-03T08:35:35Z</time>
      </trkpt>
      <trkpt lat="45.15303" lon="-0.53016">
        <ele>43</ele>
        <time>2020-09-03T08:35:37Z</time>
      </trkpt>
      <trkpt lat="45.15303" lon="-0.53016">
        <ele>43</ele>
        <time>2020-09-03T08:35:38Z</time>
      </trkpt>
      <trkpt lat="45.15302" lon="-0.53017">
        <ele>43</ele>
        <time>2020-09-03T08:35:39Z</time>
      </trkpt>
      <trkpt lat="45.15301" lon="-0.53017">
        <ele>43</ele>
        <time>2020-09-03T08:35:40Z</time>
      </trkpt>
      <trkpt lat="45.153" lon="-0.53017">
        <ele>43</ele>
        <time>2020-09-03T08:35:42Z</time>
      </trkpt>
      <trkpt lat="45.15298" lon="-0.53018">
        <ele>43</ele>
        <time>2020-09-03T08:35:43Z</time>
      </trkpt>
      <trkpt lat="45.15297" lon="-0.53019">
        <ele>43</ele>
        <time>2020-09-03T08:35:44Z</time>
      </trkpt>
      <trkpt lat="45.15294" lon="-0.5302">
        <ele>43</ele>
        <time>2020-09-03T08:35:46Z</time>
      </trkpt>
      <trkpt lat="45.15293" lon="-0.53021">
        <ele>42.9</ele>
        <time>2020-09-03T08:35:47Z</time>
      </trkpt>
      <trkpt lat="45.15292" lon="-0.53021">
        <ele>42.9</ele>
        <time>2020-09-03T08:35:48Z</time>
      </trkpt>
      <trkpt lat="45.15291" lon="-0.53022">
        <ele>42.9</ele>
        <time>2020-09-03T08:35:49Z</time>
      </trkpt>
      <trkpt lat="45.1529" lon="-0.53022">
        <ele>42.9</ele>
        <time>2020-09-03T08:35:50Z</time>
      </trkpt>
      <trkpt lat="45.15289" lon="-0.53022">
        <ele>42.9</ele>
        <time>2020-09-03T08:35:51Z</time>
      </trkpt>
      <trkpt lat="45.15288" lon="-0.53023">
        <ele>42.9</ele>
        <time>2020-09-03T08:35:52Z</time>
      </trkpt>
      <trkpt lat="45.15287" lon="-0.53023">
        <ele>42.9</ele>
        <time>2020-09-03T08:35:53Z</time>
      </trkpt>
      <trkpt lat="45.15286" lon="-0.53023">
        <ele>42.9</ele>
        <time>2020-09-03T08:35:54Z</time>
      </trkpt>
      <trkpt lat="45.15284" lon="-0.53023">
        <ele>42.9</ele>
        <time>2020-09-03T08:35:55Z</time>
      </trkpt>
      <trkpt lat="45.15283" lon="-0.53023">
        <ele>42.9</ele>
        <time>2020-09-03T08:35:56Z</time>
      </trkpt>
      <trkpt lat="45.15281" lon="-0.53023">
        <ele>42.9</ele>
        <time>2020-09-03T08:35:57Z</time>
      </trkpt>
      <trkpt lat="45.1528" lon="-0.53023">
        <ele>42.9</ele>
        <time>2020-09-03T08:35:59Z</time>
      </trkpt>
      <trkpt lat="45.15279" lon="-0.53023">
        <ele>42.9</ele>
        <time>2020-09-03T08:36:00Z</time>
      </trkpt>
      <trkpt lat="45.15278" lon="-0.53023">
        <ele>42.9</ele>
        <time>2020-09-03T08:36:02Z</time>
      </trkpt>
      <trkpt lat="45.15276" lon="-0.53023">
        <ele>42.9</ele>
        <time>2020-09-03T08:36:03Z</time>
      </trkpt>
      <trkpt lat="45.15275" lon="-0.53022">
        <ele>42.9</ele>
        <time>2020-09-03T08:36:05Z</time>
      </trkpt>
      <trkpt lat="45.15274" lon="-0.53022">
        <ele>42.9</ele>
        <time>2020-09-03T08:36:06Z</time>
      </trkpt>
      <trkpt lat="45.15274" lon="-0.53021">
        <ele>42.9</ele>
        <time>2020-09-03T08:36:07Z</time>
      </trkpt>
      <trkpt lat="45.15272" lon="-0.53021">
        <ele>42.9</ele>
        <time>2020-09-03T08:36:08Z</time>
      </trkpt>
      <trkpt lat="45.15271" lon="-0.5302">
        <ele>42.9</ele>
        <time>2020-09-03T08:36:09Z</time>
      </trkpt>
      <trkpt lat="45.15269" lon="-0.53019">
        <ele>42.9</ele>
        <time>2020-09-03T08:36:11Z</time>
      </trkpt>
      <trkpt lat="45.15267" lon="-0.53019">
        <ele>42.9</ele>
        <time>2020-09-03T08:36:12Z</time>
      </trkpt>
      <trkpt lat="45.15264" lon="-0.53019">
        <ele>42.9</ele>
        <time>2020-09-03T08:36:14Z</time>
      </trkpt>
      <trkpt lat="45.15262" lon="-0.53018">
        <ele>43</ele>
        <time>2020-09-03T08:36:15Z</time>
      </trkpt>
      <trkpt lat="45.15261" lon="-0.53018">
        <ele>43</ele>
        <time>2020-09-03T08:36:16Z</time>
      </trkpt>
      <trkpt lat="45.15259" lon="-0.53018">
        <ele>43</ele>
        <time>2020-09-03T08:36:17Z</time>
      </trkpt>
      <trkpt lat="45.15258" lon="-0.53017">
        <ele>43</ele>
        <time>2020-09-03T08:36:19Z</time>
      </trkpt>
      <trkpt lat="45.15257" lon="-0.53016">
        <ele>43</ele>
        <time>2020-09-03T08:36:20Z</time>
      </trkpt>
      <trkpt lat="45.15256" lon="-0.53016">
        <ele>43</ele>
        <time>2020-09-03T08:36:21Z</time>
      </trkpt>
      <trkpt lat="45.15252" lon="-0.53015">
        <ele>43.1</ele>
        <time>2020-09-03T08:36:23Z</time>
      </trkpt>
      <trkpt lat="45.15252" lon="-0.53015">
        <ele>43.2</ele>
        <time>2020-09-03T08:36:24Z</time>
      </trkpt>
      <trkpt lat="45.1525" lon="-0.53015">
        <ele>43.2</ele>
        <time>2020-09-03T08:36:26Z</time>
      </trkpt>
      <trkpt lat="45.15249" lon="-0.53015">
        <ele>43.2</ele>
        <time>2020-09-03T08:36:27Z</time>
      </trkpt>
      <trkpt lat="45.15247" lon="-0.53015">
        <ele>43.3</ele>
        <time>2020-09-03T08:36:28Z</time>
      </trkpt>
      <trkpt lat="45.15246" lon="-0.53015">
        <ele>43.3</ele>
        <time>2020-09-03T08:36:29Z</time>
      </trkpt>
      <trkpt lat="45.15243" lon="-0.53015">
        <ele>43.4</ele>
        <time>2020-09-03T08:36:30Z</time>
      </trkpt>
      <trkpt lat="45.15242" lon="-0.53015">
        <ele>43.4</ele>
        <time>2020-09-03T08:36:32Z</time>
      </trkpt>
      <trkpt lat="45.1524" lon="-0.53015">
        <ele>43.5</ele>
        <time>2020-09-03T08:36:33Z</time>
      </trkpt>
      <trkpt lat="45.15239" lon="-0.53014">
        <ele>43.5</ele>
        <time>2020-09-03T08:36:34Z</time>
      </trkpt>
      <trkpt lat="45.15237" lon="-0.53014">
        <ele>43.5</ele>
        <time>2020-09-03T08:36:36Z</time>
      </trkpt>
      <trkpt lat="45.15236" lon="-0.53014">
        <ele>43.5</ele>
        <time>2020-09-03T08:36:37Z</time>
      </trkpt>
      <trkpt lat="45.15234" lon="-0.53014">
        <ele>43.6</ele>
        <time>2020-09-03T08:36:38Z</time>
      </trkpt>
      <trkpt lat="45.15233" lon="-0.53014">
        <ele>43.6</ele>
        <time>2020-09-03T08:36:39Z</time>
      </trkpt>
      <trkpt lat="45.15231" lon="-0.53014">
        <ele>43.6</ele>
        <time>2020-09-03T08:36:41Z</time>
      </trkpt>
      <trkpt lat="45.1523" lon="-0.53014">
        <ele>43.6</ele>
        <time>2020-09-03T08:36:42Z</time>
      </trkpt>
      <trkpt lat="45.15228" lon="-0.53014">
        <ele>43.6</ele>
        <time>2020-09-03T08:36:44Z</time>
      </trkpt>
      <trkpt lat="45.15228" lon="-0.53014">
        <ele>43.6</ele>
        <time>2020-09-03T08:36:45Z</time>
      </trkpt>
      <trkpt lat="45.15227" lon="-0.53014">
        <ele>43.6</ele>
        <time>2020-09-03T08:36:46Z</time>
      </trkpt>
      <trkpt lat="45.15227" lon="-0.53013">
        <ele>43.6</ele>
        <time>2020-09-03T08:36:47Z</time>
      </trkpt>
      <trkpt lat="45.15225" lon="-0.53012">
        <ele>43.6</ele>
        <time>2020-09-03T08:36:48Z</time>
      </trkpt>
      <trkpt lat="45.15223" lon="-0.53011">
        <ele>43.7</ele>
        <time>2020-09-03T08:36:50Z</time>
      </trkpt>
      <trkpt lat="45.15221" lon="-0.53011">
        <ele>43.7</ele>
        <time>2020-09-03T08:36:51Z</time>
      </trkpt>
      <trkpt lat="45.15219" lon="-0.5301">
        <ele>43.7</ele>
        <time>2020-09-03T08:36:52Z</time>
      </trkpt>
      <trkpt lat="45.15218" lon="-0.5301">
        <ele>43.7</ele>
        <time>2020-09-03T08:36:53Z</time>
      </trkpt>
      <trkpt lat="45.15214" lon="-0.5301">
        <ele>43.7</ele>
        <time>2020-09-03T08:36:55Z</time>
      </trkpt>
      <trkpt lat="45.15212" lon="-0.5301">
        <ele>43.8</ele>
        <time>2020-09-03T08:36:57Z</time>
      </trkpt>
      <trkpt lat="45.15211" lon="-0.5301">
        <ele>43.8</ele>
        <time>2020-09-03T08:36:58Z</time>
      </trkpt>
      <trkpt lat="45.15209" lon="-0.5301">
        <ele>43.8</ele>
        <time>2020-09-03T08:36:59Z</time>
      </trkpt>
      <trkpt lat="45.15207" lon="-0.5301">
        <ele>43.8</ele>
        <time>2020-09-03T08:37:01Z</time>
      </trkpt>
      <trkpt lat="45.15205" lon="-0.5301">
        <ele>43.8</ele>
        <time>2020-09-03T08:37:02Z</time>
      </trkpt>
      <trkpt lat="45.15204" lon="-0.53011">
        <ele>43.8</ele>
        <time>2020-09-03T08:37:03Z</time>
      </trkpt>
      <trkpt lat="45.15202" lon="-0.53011">
        <ele>43.8</ele>
        <time>2020-09-03T08:37:04Z</time>
      </trkpt>
      <trkpt lat="45.15201" lon="-0.53012">
        <ele>43.9</ele>
        <time>2020-09-03T08:37:06Z</time>
      </trkpt>
      <trkpt lat="45.152" lon="-0.53012">
        <ele>43.9</ele>
        <time>2020-09-03T08:37:07Z</time>
      </trkpt>
      <trkpt lat="45.15198" lon="-0.53013">
        <ele>43.9</ele>
        <time>2020-09-03T08:37:08Z</time>
      </trkpt>
      <trkpt lat="45.15196" lon="-0.53013">
        <ele>44</ele>
        <time>2020-09-03T08:37:09Z</time>
      </trkpt>
      <trkpt lat="45.15194" lon="-0.53014">
        <ele>44</ele>
        <time>2020-09-03T08:37:11Z</time>
      </trkpt>
      <trkpt lat="45.15193" lon="-0.53014">
        <ele>44.1</ele>
        <time>2020-09-03T08:37:12Z</time>
      </trkpt>
      <trkpt lat="45.15192" lon="-0.53013">
        <ele>44.1</ele>
        <time>2020-09-03T08:37:13Z</time>
      </trkpt>
      <trkpt lat="45.1519" lon="-0.53013">
        <ele>44.2</ele>
        <time>2020-09-03T08:37:14Z</time>
      </trkpt>
      <trkpt lat="45.15189" lon="-0.53013">
        <ele>44.2</ele>
        <time>2020-09-03T08:37:15Z</time>
      </trkpt>
      <trkpt lat="45.15188" lon="-0.53013">
        <ele>44.2</ele>
        <time>2020-09-03T08:37:16Z</time>
      </trkpt>
      <trkpt lat="45.15187" lon="-0.53013">
        <ele>44.3</ele>
        <time>2020-09-03T08:37:17Z</time>
      </trkpt>
      <trkpt lat="45.15184" lon="-0.53013">
        <ele>44.3</ele>
        <time>2020-09-03T08:37:19Z</time>
      </trkpt>
      <trkpt lat="45.15182" lon="-0.53013">
        <ele>44.4</ele>
        <time>2020-09-03T08:37:20Z</time>
      </trkpt>
      <trkpt lat="45.1518" lon="-0.53013">
        <ele>44.4</ele>
        <time>2020-09-03T08:37:22Z</time>
      </trkpt>
      <trkpt lat="45.15178" lon="-0.53013">
        <ele>44.5</ele>
        <time>2020-09-03T08:37:23Z</time>
      </trkpt>
      <trkpt lat="45.15177" lon="-0.53013">
        <ele>44.5</ele>
        <time>2020-09-03T08:37:24Z</time>
      </trkpt>
      <trkpt lat="45.15176" lon="-0.53013">
        <ele>44.6</ele>
        <time>2020-09-03T08:37:25Z</time>
      </trkpt>
      <trkpt lat="45.15173" lon="-0.53013">
        <ele>44.6</ele>
        <time>2020-09-03T08:37:27Z</time>
      </trkpt>
      <trkpt lat="45.15172" lon="-0.53013">
        <ele>44.6</ele>
        <time>2020-09-03T08:37:28Z</time>
      </trkpt>
      <trkpt lat="45.1517" lon="-0.53013">
        <ele>44.7</ele>
        <time>2020-09-03T08:37:30Z</time>
      </trkpt>
      <trkpt lat="45.15169" lon="-0.53013">
        <ele>44.7</ele>
        <time>2020-09-03T08:37:31Z</time>
      </trkpt>
      <trkpt lat="45.15167" lon="-0.53013">
        <ele>44.7</ele>
        <time>2020-09-03T08:37:32Z</time>
      </trkpt>
      <trkpt lat="45.15166" lon="-0.53012">
        <ele>44.7</ele>
        <time>2020-09-03T08:37:34Z</time>
      </trkpt>
      <trkpt lat="45.15165" lon="-0.53012">
        <ele>44.7</ele>
        <time>2020-09-03T08:37:35Z</time>
      </trkpt>
      <trkpt lat="45.15164" lon="-0.53012">
        <ele>44.7</ele>
        <time>2020-09-03T08:37:36Z</time>
      </trkpt>
      <trkpt lat="45.15162" lon="-0.53011">
        <ele>44.7</ele>
        <time>2020-09-03T08:37:37Z</time>
      </trkpt>
      <trkpt lat="45.1516" lon="-0.5301">
        <ele>44.7</ele>
        <time>2020-09-03T08:37:39Z</time>
      </trkpt>
      <trkpt lat="45.15159" lon="-0.53009">
        <ele>44.7</ele>
        <time>2020-09-03T08:37:40Z</time>
      </trkpt>
      <trkpt lat="45.15157" lon="-0.53007">
        <ele>44.7</ele>
        <time>2020-09-03T08:37:41Z</time>
      </trkpt>
      <trkpt lat="45.15155" lon="-0.53006">
        <ele>44.7</ele>
        <time>2020-09-03T08:37:42Z</time>
      </trkpt>
      <trkpt lat="45.15153" lon="-0.53005">
        <ele>44.7</ele>
        <time>2020-09-03T08:37:43Z</time>
      </trkpt>
      <trkpt lat="45.15152" lon="-0.53004">
        <ele>44.7</ele>
        <time>2020-09-03T08:37:45Z</time>
      </trkpt>
      <trkpt lat="45.15151" lon="-0.53002">
        <ele>44.7</ele>
        <time>2020-09-03T08:37:46Z</time>
      </trkpt>
      <trkpt lat="45.15151" lon="-0.53001">
        <ele>44.7</ele>
        <time>2020-09-03T08:37:47Z</time>
      </trkpt>
      <trkpt lat="45.1515" lon="-0.52999">
        <ele>44.7</ele>
        <time>2020-09-03T08:37:48Z</time>
      </trkpt>
      <trkpt lat="45.15149" lon="-0.52998">
        <ele>44.7</ele>
        <time>2020-09-03T08:37:49Z</time>
      </trkpt>
      <trkpt lat="45.15148" lon="-0.52996">
        <ele>44.7</ele>
        <time>2020-09-03T08:37:50Z</time>
      </trkpt>
      <trkpt lat="45.15147" lon="-0.52994">
        <ele>44.7</ele>
        <time>2020-09-03T08:37:52Z</time>
      </trkpt>
      <trkpt lat="45.15145" lon="-0.52991">
        <ele>44.7</ele>
        <time>2020-09-03T08:37:54Z</time>
      </trkpt>
      <trkpt lat="45.15145" lon="-0.5299">
        <ele>44.7</ele>
        <time>2020-09-03T08:37:55Z</time>
      </trkpt>
      <trkpt lat="45.15145" lon="-0.52988">
        <ele>44.7</ele>
        <time>2020-09-03T08:37:56Z</time>
      </trkpt>
      <trkpt lat="45.15144" lon="-0.52986">
        <ele>44.7</ele>
        <time>2020-09-03T08:37:58Z</time>
      </trkpt>
      <trkpt lat="45.15144" lon="-0.52985">
        <ele>44.7</ele>
        <time>2020-09-03T08:37:59Z</time>
      </trkpt>
      <trkpt lat="45.15145" lon="-0.52985">
        <ele>44.7</ele>
        <time>2020-09-03T08:38:00Z</time>
      </trkpt>
      <trkpt lat="45.15145" lon="-0.52984">
        <ele>44.7</ele>
        <time>2020-09-03T08:38:01Z</time>
      </trkpt>
      <trkpt lat="45.15145" lon="-0.52982">
        <ele>44.7</ele>
        <time>2020-09-03T08:38:02Z</time>
      </trkpt>
      <trkpt lat="45.15145" lon="-0.52979">
        <ele>44.7</ele>
        <time>2020-09-03T08:38:04Z</time>
      </trkpt>
      <trkpt lat="45.15145" lon="-0.52978">
        <ele>44.7</ele>
        <time>2020-09-03T08:38:05Z</time>
      </trkpt>
      <trkpt lat="45.15145" lon="-0.52976">
        <ele>44.7</ele>
        <time>2020-09-03T08:38:06Z</time>
      </trkpt>
      <trkpt lat="45.15145" lon="-0.52974">
        <ele>44.7</ele>
        <time>2020-09-03T08:38:07Z</time>
      </trkpt>
      <trkpt lat="45.15144" lon="-0.52971">
        <ele>44.7</ele>
        <time>2020-09-03T08:38:08Z</time>
      </trkpt>
      <trkpt lat="45.15144" lon="-0.52968">
        <ele>44.7</ele>
        <time>2020-09-03T08:38:10Z</time>
      </trkpt>
      <trkpt lat="45.15144" lon="-0.52964">
        <ele>44.7</ele>
        <time>2020-09-03T08:38:11Z</time>
      </trkpt>
      <trkpt lat="45.15144" lon="-0.52962">
        <ele>44.7</ele>
        <time>2020-09-03T08:38:13Z</time>
      </trkpt>
      <trkpt lat="45.15144" lon="-0.5296">
        <ele>44.7</ele>
        <time>2020-09-03T08:38:14Z</time>
      </trkpt>
      <trkpt lat="45.15144" lon="-0.52958">
        <ele>44.7</ele>
        <time>2020-09-03T08:38:15Z</time>
      </trkpt>
      <trkpt lat="45.15144" lon="-0.52954">
        <ele>44.7</ele>
        <time>2020-09-03T08:38:17Z</time>
      </trkpt>
      <trkpt lat="45.15144" lon="-0.52952">
        <ele>44.7</ele>
        <time>2020-09-03T08:38:18Z</time>
      </trkpt>
      <trkpt lat="45.15144" lon="-0.52949">
        <ele>44.7</ele>
        <time>2020-09-03T08:38:19Z</time>
      </trkpt>
      <trkpt lat="45.15144" lon="-0.52948">
        <ele>44.7</ele>
        <time>2020-09-03T08:38:21Z</time>
      </trkpt>
      <trkpt lat="45.15144" lon="-0.52946">
        <ele>44.7</ele>
        <time>2020-09-03T08:38:22Z</time>
      </trkpt>
      <trkpt lat="45.15144" lon="-0.52944">
        <ele>44.7</ele>
        <time>2020-09-03T08:38:23Z</time>
      </trkpt>
      <trkpt lat="45.15144" lon="-0.52941">
        <ele>44.7</ele>
        <time>2020-09-03T08:38:24Z</time>
      </trkpt>
      <trkpt lat="45.15144" lon="-0.52938">
        <ele>44.7</ele>
        <time>2020-09-03T08:38:26Z</time>
      </trkpt>
      <trkpt lat="45.15145" lon="-0.52937">
        <ele>44.6</ele>
        <time>2020-09-03T08:38:27Z</time>
      </trkpt>
      <trkpt lat="45.15145" lon="-0.52934">
        <ele>44.6</ele>
        <time>2020-09-03T08:38:29Z</time>
      </trkpt>
      <trkpt lat="45.15145" lon="-0.52932">
        <ele>44.6</ele>
        <time>2020-09-03T08:38:30Z</time>
      </trkpt>
      <trkpt lat="45.15145" lon="-0.5293">
        <ele>44.6</ele>
        <time>2020-09-03T08:38:31Z</time>
      </trkpt>
      <trkpt lat="45.15145" lon="-0.52929">
        <ele>44.6</ele>
        <time>2020-09-03T08:38:32Z</time>
      </trkpt>
      <trkpt lat="45.15145" lon="-0.52924">
        <ele>44.6</ele>
        <time>2020-09-03T08:38:33Z</time>
      </trkpt>
      <trkpt lat="45.15146" lon="-0.52922">
        <ele>44.6</ele>
        <time>2020-09-03T08:38:35Z</time>
      </trkpt>
      <trkpt lat="45.15146" lon="-0.5292">
        <ele>44.5</ele>
        <time>2020-09-03T08:38:36Z</time>
      </trkpt>
      <trkpt lat="45.15146" lon="-0.52918">
        <ele>44.5</ele>
        <time>2020-09-03T08:38:37Z</time>
      </trkpt>
      <trkpt lat="45.15147" lon="-0.52914">
        <ele>44.5</ele>
        <time>2020-09-03T08:38:39Z</time>
      </trkpt>
      <trkpt lat="45.15148" lon="-0.5291">
        <ele>44.4</ele>
        <time>2020-09-03T08:38:40Z</time>
      </trkpt>
      <trkpt lat="45.15148" lon="-0.52908">
        <ele>44.4</ele>
        <time>2020-09-03T08:38:42Z</time>
      </trkpt>
      <trkpt lat="45.15149" lon="-0.52906">
        <ele>44.4</ele>
        <time>2020-09-03T08:38:43Z</time>
      </trkpt>
      <trkpt lat="45.15149" lon="-0.52904">
        <ele>44.4</ele>
        <time>2020-09-03T08:38:44Z</time>
      </trkpt>
      <trkpt lat="45.15149" lon="-0.52902">
        <ele>44.4</ele>
        <time>2020-09-03T08:38:46Z</time>
      </trkpt>
      <trkpt lat="45.1515" lon="-0.52899">
        <ele>44.3</ele>
        <time>2020-09-03T08:38:47Z</time>
      </trkpt>
      <trkpt lat="45.1515" lon="-0.52895">
        <ele>44.3</ele>
        <time>2020-09-03T08:38:49Z</time>
      </trkpt>
      <trkpt lat="45.1515" lon="-0.52894">
        <ele>44.3</ele>
        <time>2020-09-03T08:38:50Z</time>
      </trkpt>
      <trkpt lat="45.1515" lon="-0.52892">
        <ele>44.3</ele>
        <time>2020-09-03T08:38:51Z</time>
      </trkpt>
      <trkpt lat="45.1515" lon="-0.5289">
        <ele>44.3</ele>
        <time>2020-09-03T08:38:52Z</time>
      </trkpt>
      <trkpt lat="45.1515" lon="-0.52886">
        <ele>44.3</ele>
        <time>2020-09-03T08:38:54Z</time>
      </trkpt>
      <trkpt lat="45.15149" lon="-0.52884">
        <ele>44.3</ele>
        <time>2020-09-03T08:38:55Z</time>
      </trkpt>
      <trkpt lat="45.15149" lon="-0.52881">
        <ele>44.3</ele>
        <time>2020-09-03T08:38:56Z</time>
      </trkpt>
      <trkpt lat="45.1515" lon="-0.52877">
        <ele>44.3</ele>
        <time>2020-09-03T08:38:58Z</time>
      </trkpt>
      <trkpt lat="45.1515" lon="-0.52876">
        <ele>44.3</ele>
        <time>2020-09-03T08:38:59Z</time>
      </trkpt>
      <trkpt lat="45.1515" lon="-0.52873">
        <ele>44.3</ele>
        <time>2020-09-03T08:39:00Z</time>
      </trkpt>
      <trkpt lat="45.1515" lon="-0.52871">
        <ele>44.3</ele>
        <time>2020-09-03T08:39:02Z</time>
      </trkpt>
      <trkpt lat="45.1515" lon="-0.52867">
        <ele>44.3</ele>
        <time>2020-09-03T08:39:03Z</time>
      </trkpt>
      <trkpt lat="45.1515" lon="-0.52865">
        <ele>44.2</ele>
        <time>2020-09-03T08:39:05Z</time>
      </trkpt>
      <trkpt lat="45.1515" lon="-0.52864">
        <ele>44.2</ele>
        <time>2020-09-03T08:39:06Z</time>
      </trkpt>
      <trkpt lat="45.1515" lon="-0.52862">
        <ele>44.2</ele>
        <time>2020-09-03T08:39:07Z</time>
      </trkpt>
      <trkpt lat="45.15149" lon="-0.52859">
        <ele>44.2</ele>
        <time>2020-09-03T08:39:09Z</time>
      </trkpt>
      <trkpt lat="45.15149" lon="-0.52856">
        <ele>44.1</ele>
        <time>2020-09-03T08:39:10Z</time>
      </trkpt>
      <trkpt lat="45.15148" lon="-0.52855">
        <ele>44.1</ele>
        <time>2020-09-03T08:39:11Z</time>
      </trkpt>
      <trkpt lat="45.15147" lon="-0.52851">
        <ele>44.1</ele>
        <time>2020-09-03T08:39:13Z</time>
      </trkpt>
      <trkpt lat="45.15147" lon="-0.52849">
        <ele>44.1</ele>
        <time>2020-09-03T08:39:14Z</time>
      </trkpt>
      <trkpt lat="45.15147" lon="-0.52846">
        <ele>44.1</ele>
        <time>2020-09-03T08:39:16Z</time>
      </trkpt>
      <trkpt lat="45.15146" lon="-0.52844">
        <ele>44.1</ele>
        <time>2020-09-03T08:39:17Z</time>
      </trkpt>
      <trkpt lat="45.15146" lon="-0.52842">
        <ele>44.1</ele>
        <time>2020-09-03T08:39:18Z</time>
      </trkpt>
      <trkpt lat="45.15145" lon="-0.52838">
        <ele>44.1</ele>
        <time>2020-09-03T08:39:20Z</time>
      </trkpt>
      <trkpt lat="45.15144" lon="-0.52836">
        <ele>44.1</ele>
        <time>2020-09-03T08:39:21Z</time>
      </trkpt>
      <trkpt lat="45.15144" lon="-0.52834">
        <ele>44.1</ele>
        <time>2020-09-03T08:39:22Z</time>
      </trkpt>
      <trkpt lat="45.15143" lon="-0.5283">
        <ele>44.1</ele>
        <time>2020-09-03T08:39:24Z</time>
      </trkpt>
      <trkpt lat="45.15143" lon="-0.52828">
        <ele>44.1</ele>
        <time>2020-09-03T08:39:25Z</time>
      </trkpt>
      <trkpt lat="45.15142" lon="-0.52825">
        <ele>44</ele>
        <time>2020-09-03T08:39:27Z</time>
      </trkpt>
      <trkpt lat="45.15142" lon="-0.52823">
        <ele>44</ele>
        <time>2020-09-03T08:39:28Z</time>
      </trkpt>
      <trkpt lat="45.15142" lon="-0.52819">
        <ele>44</ele>
        <time>2020-09-03T08:39:30Z</time>
      </trkpt>
      <trkpt lat="45.15141" lon="-0.52817">
        <ele>44</ele>
        <time>2020-09-03T08:39:31Z</time>
      </trkpt>
      <trkpt lat="45.15141" lon="-0.52815">
        <ele>44</ele>
        <time>2020-09-03T08:39:33Z</time>
      </trkpt>
      <trkpt lat="45.1514" lon="-0.52813">
        <ele>44</ele>
        <time>2020-09-03T08:39:34Z</time>
      </trkpt>
      <trkpt lat="45.1514" lon="-0.52811">
        <ele>44</ele>
        <time>2020-09-03T08:39:35Z</time>
      </trkpt>
      <trkpt lat="45.15138" lon="-0.52807">
        <ele>44</ele>
        <time>2020-09-03T08:39:37Z</time>
      </trkpt>
      <trkpt lat="45.15138" lon="-0.52806">
        <ele>44</ele>
        <time>2020-09-03T08:39:38Z</time>
      </trkpt>
      <trkpt lat="45.15136" lon="-0.52801">
        <ele>44</ele>
        <time>2020-09-03T08:39:40Z</time>
      </trkpt>
      <trkpt lat="45.15135" lon="-0.52799">
        <ele>43.9</ele>
        <time>2020-09-03T08:39:41Z</time>
      </trkpt>
      <trkpt lat="45.15135" lon="-0.52798">
        <ele>43.9</ele>
        <time>2020-09-03T08:39:42Z</time>
      </trkpt>
      <trkpt lat="45.15134" lon="-0.52796">
        <ele>43.9</ele>
        <time>2020-09-03T08:39:43Z</time>
      </trkpt>
      <trkpt lat="45.15134" lon="-0.52795">
        <ele>43.9</ele>
        <time>2020-09-03T08:39:45Z</time>
      </trkpt>
      <trkpt lat="45.15132" lon="-0.52792">
        <ele>43.8</ele>
        <time>2020-09-03T08:39:47Z</time>
      </trkpt>
      <trkpt lat="45.15131" lon="-0.52789">
        <ele>43.7</ele>
        <time>2020-09-03T08:39:48Z</time>
      </trkpt>
      <trkpt lat="45.15131" lon="-0.52788">
        <ele>43.7</ele>
        <time>2020-09-03T08:39:50Z</time>
      </trkpt>
      <trkpt lat="45.15131" lon="-0.52785">
        <ele>43.7</ele>
        <time>2020-09-03T08:39:52Z</time>
      </trkpt>
      <trkpt lat="45.15131" lon="-0.52782">
        <ele>43.6</ele>
        <time>2020-09-03T08:39:53Z</time>
      </trkpt>
      <trkpt lat="45.15131" lon="-0.5278">
        <ele>43.6</ele>
        <time>2020-09-03T08:39:54Z</time>
      </trkpt>
      <trkpt lat="45.1513" lon="-0.52778">
        <ele>43.6</ele>
        <time>2020-09-03T08:39:55Z</time>
      </trkpt>
      <trkpt lat="45.15129" lon="-0.52777">
        <ele>43.6</ele>
        <time>2020-09-03T08:39:57Z</time>
      </trkpt>
      <trkpt lat="45.15129" lon="-0.52776">
        <ele>43.6</ele>
        <time>2020-09-03T08:39:58Z</time>
      </trkpt>
      <trkpt lat="45.15128" lon="-0.52774">
        <ele>43.6</ele>
        <time>2020-09-03T08:39:59Z</time>
      </trkpt>
      <trkpt lat="45.15127" lon="-0.52773">
        <ele>43.6</ele>
        <time>2020-09-03T08:40:00Z</time>
      </trkpt>
      <trkpt lat="45.15126" lon="-0.52772">
        <ele>43.6</ele>
        <time>2020-09-03T08:40:01Z</time>
      </trkpt>
      <trkpt lat="45.15124" lon="-0.52769">
        <ele>43.6</ele>
        <time>2020-09-03T08:40:02Z</time>
      </trkpt>
      <trkpt lat="45.15122" lon="-0.52767">
        <ele>43.6</ele>
        <time>2020-09-03T08:40:03Z</time>
      </trkpt>
      <trkpt lat="45.15121" lon="-0.52765">
        <ele>43.6</ele>
        <time>2020-09-03T08:40:05Z</time>
      </trkpt>
      <trkpt lat="45.1512" lon="-0.52764">
        <ele>43.6</ele>
        <time>2020-09-03T08:40:06Z</time>
      </trkpt>
      <trkpt lat="45.15117" lon="-0.52762">
        <ele>43.7</ele>
        <time>2020-09-03T08:40:08Z</time>
      </trkpt>
      <trkpt lat="45.15114" lon="-0.52761">
        <ele>43.7</ele>
        <time>2020-09-03T08:40:09Z</time>
      </trkpt>
      <trkpt lat="45.15112" lon="-0.5276">
        <ele>43.7</ele>
        <time>2020-09-03T08:40:10Z</time>
      </trkpt>
      <trkpt lat="45.1511" lon="-0.52759">
        <ele>43.7</ele>
        <time>2020-09-03T08:40:12Z</time>
      </trkpt>
      <trkpt lat="45.15107" lon="-0.52757">
        <ele>43.7</ele>
        <time>2020-09-03T08:40:14Z</time>
      </trkpt>
      <trkpt lat="45.15104" lon="-0.52758">
        <ele>43.7</ele>
        <time>2020-09-03T08:40:16Z</time>
      </trkpt>
      <trkpt lat="45.15103" lon="-0.52758">
        <ele>43.7</ele>
        <time>2020-09-03T08:40:17Z</time>
      </trkpt>
      <trkpt lat="45.151" lon="-0.52758">
        <ele>43.7</ele>
        <time>2020-09-03T08:40:18Z</time>
      </trkpt>
      <trkpt lat="45.15098" lon="-0.52758">
        <ele>43.7</ele>
        <time>2020-09-03T08:40:20Z</time>
      </trkpt>
      <trkpt lat="45.15097" lon="-0.52758">
        <ele>43.7</ele>
        <time>2020-09-03T08:40:21Z</time>
      </trkpt>
      <trkpt lat="45.15096" lon="-0.52759">
        <ele>43.7</ele>
        <time>2020-09-03T08:40:22Z</time>
      </trkpt>
      <trkpt lat="45.15093" lon="-0.5276">
        <ele>43.8</ele>
        <time>2020-09-03T08:40:23Z</time>
      </trkpt>
      <trkpt lat="45.15092" lon="-0.5276">
        <ele>43.8</ele>
        <time>2020-09-03T08:40:24Z</time>
      </trkpt>
      <trkpt lat="45.1509" lon="-0.52761">
        <ele>43.8</ele>
        <time>2020-09-03T08:40:25Z</time>
      </trkpt>
      <trkpt lat="45.15089" lon="-0.52762">
        <ele>43.8</ele>
        <time>2020-09-03T08:40:27Z</time>
      </trkpt>
      <trkpt lat="45.15087" lon="-0.52762">
        <ele>43.8</ele>
        <time>2020-09-03T08:40:28Z</time>
      </trkpt>
      <trkpt lat="45.15085" lon="-0.52763">
        <ele>43.9</ele>
        <time>2020-09-03T08:40:29Z</time>
      </trkpt>
      <trkpt lat="45.15085" lon="-0.52764">
        <ele>43.9</ele>
        <time>2020-09-03T08:40:30Z</time>
      </trkpt>
      <trkpt lat="45.15084" lon="-0.52764">
        <ele>43.9</ele>
        <time>2020-09-03T08:40:31Z</time>
      </trkpt>
      <trkpt lat="45.15082" lon="-0.52765">
        <ele>43.9</ele>
        <time>2020-09-03T08:40:33Z</time>
      </trkpt>
      <trkpt lat="45.1508" lon="-0.52765">
        <ele>43.9</ele>
        <time>2020-09-03T08:40:34Z</time>
      </trkpt>
      <trkpt lat="45.1508" lon="-0.52765">
        <ele>43.9</ele>
        <time>2020-09-03T08:40:35Z</time>
      </trkpt>
      <trkpt lat="45.1508" lon="-0.52765">
        <ele>43.9</ele>
        <time>2020-09-03T08:40:37Z</time>
      </trkpt>
      <trkpt lat="45.1508" lon="-0.52764">
        <ele>43.8</ele>
        <time>2020-09-03T08:40:38Z</time>
      </trkpt>
      <trkpt lat="45.15079" lon="-0.52764">
        <ele>43.8</ele>
        <time>2020-09-03T08:40:40Z</time>
      </trkpt>
      <trkpt lat="45.15077" lon="-0.52764">
        <ele>43.8</ele>
        <time>2020-09-03T08:40:41Z</time>
      </trkpt>
      <trkpt lat="45.15076" lon="-0.52765">
        <ele>43.8</ele>
        <time>2020-09-03T08:40:43Z</time>
      </trkpt>
      <trkpt lat="45.15073" lon="-0.52766">
        <ele>43.7</ele>
        <time>2020-09-03T08:40:44Z</time>
      </trkpt>
      <trkpt lat="45.15071" lon="-0.52766">
        <ele>43.7</ele>
        <time>2020-09-03T08:40:46Z</time>
      </trkpt>
      <trkpt lat="45.15068" lon="-0.52767">
        <ele>43.6</ele>
        <time>2020-09-03T08:40:47Z</time>
      </trkpt>
      <trkpt lat="45.15067" lon="-0.52768">
        <ele>43.6</ele>
        <time>2020-09-03T08:40:48Z</time>
      </trkpt>
      <trkpt lat="45.15066" lon="-0.52768">
        <ele>43.6</ele>
        <time>2020-09-03T08:40:50Z</time>
      </trkpt>
      <trkpt lat="45.15064" lon="-0.52769">
        <ele>43.6</ele>
        <time>2020-09-03T08:40:51Z</time>
      </trkpt>
      <trkpt lat="45.15062" lon="-0.52769">
        <ele>43.5</ele>
        <time>2020-09-03T08:40:52Z</time>
      </trkpt>
      <trkpt lat="45.15061" lon="-0.52769">
        <ele>43.5</ele>
        <time>2020-09-03T08:40:54Z</time>
      </trkpt>
      <trkpt lat="45.15059" lon="-0.52769">
        <ele>43.5</ele>
        <time>2020-09-03T08:40:55Z</time>
      </trkpt>
      <trkpt lat="45.15058" lon="-0.52769">
        <ele>43.5</ele>
        <time>2020-09-03T08:40:56Z</time>
      </trkpt>
      <trkpt lat="45.15057" lon="-0.52769">
        <ele>43.5</ele>
        <time>2020-09-03T08:40:57Z</time>
      </trkpt>
      <trkpt lat="45.15054" lon="-0.52769">
        <ele>43.5</ele>
        <time>2020-09-03T08:40:58Z</time>
      </trkpt>
      <trkpt lat="45.15054" lon="-0.52769">
        <ele>43.5</ele>
        <time>2020-09-03T08:40:59Z</time>
      </trkpt>
      <trkpt lat="45.15051" lon="-0.52769">
        <ele>43.5</ele>
        <time>2020-09-03T08:41:01Z</time>
      </trkpt>
      <trkpt lat="45.1505" lon="-0.52769">
        <ele>43.5</ele>
        <time>2020-09-03T08:41:02Z</time>
      </trkpt>
      <trkpt lat="45.15049" lon="-0.52769">
        <ele>43.5</ele>
        <time>2020-09-03T08:41:03Z</time>
      </trkpt>
      <trkpt lat="45.15047" lon="-0.52769">
        <ele>43.5</ele>
        <time>2020-09-03T08:41:05Z</time>
      </trkpt>
      <trkpt lat="45.15046" lon="-0.52769">
        <ele>43.5</ele>
        <time>2020-09-03T08:41:06Z</time>
      </trkpt>
      <trkpt lat="45.15045" lon="-0.52769">
        <ele>43.5</ele>
        <time>2020-09-03T08:41:07Z</time>
      </trkpt>
      <trkpt lat="45.15043" lon="-0.52769">
        <ele>43.5</ele>
        <time>2020-09-03T08:41:08Z</time>
      </trkpt>
      <trkpt lat="45.15041" lon="-0.52769">
        <ele>43.5</ele>
        <time>2020-09-03T08:41:09Z</time>
      </trkpt>
      <trkpt lat="45.1504" lon="-0.52769">
        <ele>43.5</ele>
        <time>2020-09-03T08:41:10Z</time>
      </trkpt>
      <trkpt lat="45.15039" lon="-0.52768">
        <ele>43.5</ele>
        <time>2020-09-03T08:41:12Z</time>
      </trkpt>
      <trkpt lat="45.15035" lon="-0.52768">
        <ele>43.5</ele>
        <time>2020-09-03T08:41:13Z</time>
      </trkpt>
      <trkpt lat="45.15033" lon="-0.52768">
        <ele>43.5</ele>
        <time>2020-09-03T08:41:15Z</time>
      </trkpt>
      <trkpt lat="45.15032" lon="-0.52768">
        <ele>43.5</ele>
        <time>2020-09-03T08:41:16Z</time>
      </trkpt>
      <trkpt lat="45.15032" lon="-0.52768">
        <ele>43.5</ele>
        <time>2020-09-03T08:41:17Z</time>
      </trkpt>
      <trkpt lat="45.15027" lon="-0.52767">
        <ele>43.5</ele>
        <time>2020-09-03T08:41:19Z</time>
      </trkpt>
      <trkpt lat="45.15026" lon="-0.52767">
        <ele>43.5</ele>
        <time>2020-09-03T08:41:20Z</time>
      </trkpt>
      <trkpt lat="45.15025" lon="-0.52767">
        <ele>43.5</ele>
        <time>2020-09-03T08:41:21Z</time>
      </trkpt>
      <trkpt lat="45.15024" lon="-0.52767">
        <ele>43.5</ele>
        <time>2020-09-03T08:41:22Z</time>
      </trkpt>
      <trkpt lat="45.15022" lon="-0.52766">
        <ele>43.4</ele>
        <time>2020-09-03T08:41:23Z</time>
      </trkpt>
      <trkpt lat="45.15021" lon="-0.52765">
        <ele>43.4</ele>
        <time>2020-09-03T08:41:25Z</time>
      </trkpt>
      <trkpt lat="45.15019" lon="-0.52765">
        <ele>43.4</ele>
        <time>2020-09-03T08:41:26Z</time>
      </trkpt>
      <trkpt lat="45.15017" lon="-0.52764">
        <ele>43.4</ele>
        <time>2020-09-03T08:41:28Z</time>
      </trkpt>
      <trkpt lat="45.15016" lon="-0.52764">
        <ele>43.4</ele>
        <time>2020-09-03T08:41:29Z</time>
      </trkpt>
      <trkpt lat="45.15013" lon="-0.52764">
        <ele>43.4</ele>
        <time>2020-09-03T08:41:31Z</time>
      </trkpt>
      <trkpt lat="45.15012" lon="-0.52764">
        <ele>43.4</ele>
        <time>2020-09-03T08:41:32Z</time>
      </trkpt>
      <trkpt lat="45.15011" lon="-0.52764">
        <ele>43.4</ele>
        <time>2020-09-03T08:41:33Z</time>
      </trkpt>
      <trkpt lat="45.15009" lon="-0.52764">
        <ele>43.4</ele>
        <time>2020-09-03T08:41:35Z</time>
      </trkpt>
      <trkpt lat="45.15007" lon="-0.52763">
        <ele>43.3</ele>
        <time>2020-09-03T08:41:36Z</time>
      </trkpt>
      <trkpt lat="45.15006" lon="-0.52763">
        <ele>43.3</ele>
        <time>2020-09-03T08:41:37Z</time>
      </trkpt>
      <trkpt lat="45.15004" lon="-0.52762">
        <ele>43.3</ele>
        <time>2020-09-03T08:41:38Z</time>
      </trkpt>
      <trkpt lat="45.15003" lon="-0.52762">
        <ele>43.3</ele>
        <time>2020-09-03T08:41:39Z</time>
      </trkpt>
      <trkpt lat="45.14999" lon="-0.52761">
        <ele>43.3</ele>
        <time>2020-09-03T08:41:41Z</time>
      </trkpt>
      <trkpt lat="45.14998" lon="-0.52761">
        <ele>43.3</ele>
        <time>2020-09-03T08:41:42Z</time>
      </trkpt>
      <trkpt lat="45.14996" lon="-0.5276">
        <ele>43.3</ele>
        <time>2020-09-03T08:41:44Z</time>
      </trkpt>
      <trkpt lat="45.14995" lon="-0.5276">
        <ele>43.3</ele>
        <time>2020-09-03T08:41:45Z</time>
      </trkpt>
      <trkpt lat="45.14994" lon="-0.52759">
        <ele>43.3</ele>
        <time>2020-09-03T08:41:46Z</time>
      </trkpt>
      <trkpt lat="45.14992" lon="-0.52759">
        <ele>43.3</ele>
        <time>2020-09-03T08:41:47Z</time>
      </trkpt>
      <trkpt lat="45.14991" lon="-0.52759">
        <ele>43.3</ele>
        <time>2020-09-03T08:41:48Z</time>
      </trkpt>
      <trkpt lat="45.1499" lon="-0.52758">
        <ele>43.4</ele>
        <time>2020-09-03T08:41:49Z</time>
      </trkpt>
      <trkpt lat="45.14988" lon="-0.52758">
        <ele>43.4</ele>
        <time>2020-09-03T08:41:51Z</time>
      </trkpt>
      <trkpt lat="45.14986" lon="-0.52758">
        <ele>43.4</ele>
        <time>2020-09-03T08:41:52Z</time>
      </trkpt>
      <trkpt lat="45.14985" lon="-0.52758">
        <ele>43.4</ele>
        <time>2020-09-03T08:41:53Z</time>
      </trkpt>
      <trkpt lat="45.14984" lon="-0.52758">
        <ele>43.4</ele>
        <time>2020-09-03T08:41:54Z</time>
      </trkpt>
      <trkpt lat="45.1498" lon="-0.52757">
        <ele>43.4</ele>
        <time>2020-09-03T08:41:56Z</time>
      </trkpt>
      <trkpt lat="45.14979" lon="-0.52756">
        <ele>43.4</ele>
        <time>2020-09-03T08:41:57Z</time>
      </trkpt>
      <trkpt lat="45.14978" lon="-0.52756">
        <ele>43.4</ele>
        <time>2020-09-03T08:41:59Z</time>
      </trkpt>
      <trkpt lat="45.14977" lon="-0.52755">
        <ele>43.4</ele>
        <time>2020-09-03T08:42:00Z</time>
      </trkpt>
      <trkpt lat="45.14974" lon="-0.52753">
        <ele>43.5</ele>
        <time>2020-09-03T08:42:01Z</time>
      </trkpt>
      <trkpt lat="45.14973" lon="-0.52753">
        <ele>43.5</ele>
        <time>2020-09-03T08:42:02Z</time>
      </trkpt>
      <trkpt lat="45.14972" lon="-0.52753">
        <ele>43.5</ele>
        <time>2020-09-03T08:42:03Z</time>
      </trkpt>
      <trkpt lat="45.1497" lon="-0.52752">
        <ele>43.5</ele>
        <time>2020-09-03T08:42:05Z</time>
      </trkpt>
      <trkpt lat="45.1497" lon="-0.52751">
        <ele>43.5</ele>
        <time>2020-09-03T08:42:06Z</time>
      </trkpt>
      <trkpt lat="45.14969" lon="-0.52751">
        <ele>43.5</ele>
        <time>2020-09-03T08:42:07Z</time>
      </trkpt>
      <trkpt lat="45.14968" lon="-0.5275">
        <ele>43.5</ele>
        <time>2020-09-03T08:42:08Z</time>
      </trkpt>
      <trkpt lat="45.14967" lon="-0.5275">
        <ele>43.5</ele>
        <time>2020-09-03T08:42:10Z</time>
      </trkpt>
      <trkpt lat="45.14965" lon="-0.52749">
        <ele>43.5</ele>
        <time>2020-09-03T08:42:11Z</time>
      </trkpt>
      <trkpt lat="45.14964" lon="-0.52749">
        <ele>43.5</ele>
        <time>2020-09-03T08:42:12Z</time>
      </trkpt>
      <trkpt lat="45.14961" lon="-0.52748">
        <ele>43.5</ele>
        <time>2020-09-03T08:42:13Z</time>
      </trkpt>
      <trkpt lat="45.1496" lon="-0.52748">
        <ele>43.5</ele>
        <time>2020-09-03T08:42:15Z</time>
      </trkpt>
      <trkpt lat="45.14958" lon="-0.52748">
        <ele>43.6</ele>
        <time>2020-09-03T08:42:16Z</time>
      </trkpt>
      <trkpt lat="45.14956" lon="-0.52747">
        <ele>43.6</ele>
        <time>2020-09-03T08:42:18Z</time>
      </trkpt>
      <trkpt lat="45.14955" lon="-0.52747">
        <ele>43.6</ele>
        <time>2020-09-03T08:42:19Z</time>
      </trkpt>
      <trkpt lat="45.14951" lon="-0.52746">
        <ele>43.6</ele>
        <time>2020-09-03T08:42:21Z</time>
      </trkpt>
      <trkpt lat="45.1495" lon="-0.52746">
        <ele>43.6</ele>
        <time>2020-09-03T08:42:22Z</time>
      </trkpt>
      <trkpt lat="45.14949" lon="-0.52745">
        <ele>43.7</ele>
        <time>2020-09-03T08:42:24Z</time>
      </trkpt>
      <trkpt lat="45.14947" lon="-0.52745">
        <ele>43.7</ele>
        <time>2020-09-03T08:42:25Z</time>
      </trkpt>
      <trkpt lat="45.14944" lon="-0.52745">
        <ele>43.7</ele>
        <time>2020-09-03T08:42:26Z</time>
      </trkpt>
      <trkpt lat="45.14943" lon="-0.52744">
        <ele>43.8</ele>
        <time>2020-09-03T08:42:27Z</time>
      </trkpt>
      <trkpt lat="45.14941" lon="-0.52744">
        <ele>43.8</ele>
        <time>2020-09-03T08:42:29Z</time>
      </trkpt>
      <trkpt lat="45.1494" lon="-0.52743">
        <ele>43.8</ele>
        <time>2020-09-03T08:42:30Z</time>
      </trkpt>
      <trkpt lat="45.14937" lon="-0.52742">
        <ele>43.9</ele>
        <time>2020-09-03T08:42:32Z</time>
      </trkpt>
      <trkpt lat="45.14936" lon="-0.52742">
        <ele>43.9</ele>
        <time>2020-09-03T08:42:33Z</time>
      </trkpt>
      <trkpt lat="45.14935" lon="-0.52742">
        <ele>43.9</ele>
        <time>2020-09-03T08:42:34Z</time>
      </trkpt>
      <trkpt lat="45.14933" lon="-0.52741">
        <ele>43.9</ele>
        <time>2020-09-03T08:42:35Z</time>
      </trkpt>
      <trkpt lat="45.14932" lon="-0.52741">
        <ele>44</ele>
        <time>2020-09-03T08:42:36Z</time>
      </trkpt>
      <trkpt lat="45.14931" lon="-0.5274">
        <ele>44</ele>
        <time>2020-09-03T08:42:37Z</time>
      </trkpt>
      <trkpt lat="45.1493" lon="-0.5274">
        <ele>44</ele>
        <time>2020-09-03T08:42:38Z</time>
      </trkpt>
      <trkpt lat="45.14928" lon="-0.5274">
        <ele>44</ele>
        <time>2020-09-03T08:42:39Z</time>
      </trkpt>
      <trkpt lat="45.14926" lon="-0.5274">
        <ele>44</ele>
        <time>2020-09-03T08:42:40Z</time>
      </trkpt>
      <trkpt lat="45.14926" lon="-0.52739">
        <ele>44</ele>
        <time>2020-09-03T08:42:41Z</time>
      </trkpt>
      <trkpt lat="45.14925" lon="-0.52739">
        <ele>44.1</ele>
        <time>2020-09-03T08:42:42Z</time>
      </trkpt>
      <trkpt lat="45.14922" lon="-0.52738">
        <ele>44.1</ele>
        <time>2020-09-03T08:42:43Z</time>
      </trkpt>
      <trkpt lat="45.14921" lon="-0.52738">
        <ele>44.1</ele>
        <time>2020-09-03T08:42:44Z</time>
      </trkpt>
      <trkpt lat="45.1492" lon="-0.52738">
        <ele>44.1</ele>
        <time>2020-09-03T08:42:45Z</time>
      </trkpt>
      <trkpt lat="45.14919" lon="-0.52737">
        <ele>44.1</ele>
        <time>2020-09-03T08:42:46Z</time>
      </trkpt>
      <trkpt lat="45.14918" lon="-0.52737">
        <ele>44.1</ele>
        <time>2020-09-03T08:42:47Z</time>
      </trkpt>
      <trkpt lat="45.14916" lon="-0.52737">
        <ele>44.1</ele>
        <time>2020-09-03T08:42:49Z</time>
      </trkpt>
      <trkpt lat="45.14914" lon="-0.52736">
        <ele>44.1</ele>
        <time>2020-09-03T08:42:50Z</time>
      </trkpt>
      <trkpt lat="45.14914" lon="-0.52736">
        <ele>44.1</ele>
        <time>2020-09-03T08:42:51Z</time>
      </trkpt>
      <trkpt lat="45.14912" lon="-0.52736">
        <ele>44.1</ele>
        <time>2020-09-03T08:42:52Z</time>
      </trkpt>
      <trkpt lat="45.14911" lon="-0.52736">
        <ele>44.1</ele>
        <time>2020-09-03T08:42:53Z</time>
      </trkpt>
      <trkpt lat="45.14908" lon="-0.52736">
        <ele>44.2</ele>
        <time>2020-09-03T08:42:55Z</time>
      </trkpt>
      <trkpt lat="45.14907" lon="-0.52736">
        <ele>44.2</ele>
        <time>2020-09-03T08:42:56Z</time>
      </trkpt>
      <trkpt lat="45.14906" lon="-0.52736">
        <ele>44.2</ele>
        <time>2020-09-03T08:42:57Z</time>
      </trkpt>
      <trkpt lat="45.14905" lon="-0.52736">
        <ele>44.2</ele>
        <time>2020-09-03T08:42:58Z</time>
      </trkpt>
      <trkpt lat="45.14904" lon="-0.52735">
        <ele>44.2</ele>
        <time>2020-09-03T08:42:59Z</time>
      </trkpt>
      <trkpt lat="45.14901" lon="-0.52735">
        <ele>44.2</ele>
        <time>2020-09-03T08:43:01Z</time>
      </trkpt>
      <trkpt lat="45.149" lon="-0.52735">
        <ele>44.3</ele>
        <time>2020-09-03T08:43:02Z</time>
      </trkpt>
      <trkpt lat="45.14899" lon="-0.52736">
        <ele>44.3</ele>
        <time>2020-09-03T08:43:03Z</time>
      </trkpt>
      <trkpt lat="45.14895" lon="-0.52737">
        <ele>44.4</ele>
        <time>2020-09-03T08:43:05Z</time>
      </trkpt>
      <trkpt lat="45.14894" lon="-0.52737">
        <ele>44.4</ele>
        <time>2020-09-03T08:43:06Z</time>
      </trkpt>
      <trkpt lat="45.14893" lon="-0.52737">
        <ele>44.4</ele>
        <time>2020-09-03T08:43:07Z</time>
      </trkpt>
      <trkpt lat="45.14892" lon="-0.52738">
        <ele>44.4</ele>
        <time>2020-09-03T08:43:08Z</time>
      </trkpt>
      <trkpt lat="45.14889" lon="-0.52738">
        <ele>44.5</ele>
        <time>2020-09-03T08:43:09Z</time>
      </trkpt>
      <trkpt lat="45.14887" lon="-0.52738">
        <ele>44.5</ele>
        <time>2020-09-03T08:43:10Z</time>
      </trkpt>
      <trkpt lat="45.14885" lon="-0.52738">
        <ele>44.6</ele>
        <time>2020-09-03T08:43:12Z</time>
      </trkpt>
      <trkpt lat="45.14884" lon="-0.52738">
        <ele>44.6</ele>
        <time>2020-09-03T08:43:13Z</time>
      </trkpt>
      <trkpt lat="45.14882" lon="-0.52738">
        <ele>44.6</ele>
        <time>2020-09-03T08:43:14Z</time>
      </trkpt>
      <trkpt lat="45.14881" lon="-0.52738">
        <ele>44.7</ele>
        <time>2020-09-03T08:43:16Z</time>
      </trkpt>
      <trkpt lat="45.1488" lon="-0.52738">
        <ele>44.7</ele>
        <time>2020-09-03T08:43:17Z</time>
      </trkpt>
      <trkpt lat="45.14877" lon="-0.52738">
        <ele>44.8</ele>
        <time>2020-09-03T08:43:18Z</time>
      </trkpt>
      <trkpt lat="45.14875" lon="-0.52738">
        <ele>44.8</ele>
        <time>2020-09-03T08:43:19Z</time>
      </trkpt>
      <trkpt lat="45.14874" lon="-0.52738">
        <ele>44.9</ele>
        <time>2020-09-03T08:43:20Z</time>
      </trkpt>
      <trkpt lat="45.14873" lon="-0.52738">
        <ele>44.9</ele>
        <time>2020-09-03T08:43:22Z</time>
      </trkpt>
      <trkpt lat="45.1487" lon="-0.52738">
        <ele>45</ele>
        <time>2020-09-03T08:43:24Z</time>
      </trkpt>
      <trkpt lat="45.14868" lon="-0.52739">
        <ele>45.1</ele>
        <time>2020-09-03T08:43:25Z</time>
      </trkpt>
      <trkpt lat="45.14867" lon="-0.52739">
        <ele>45.2</ele>
        <time>2020-09-03T08:43:26Z</time>
      </trkpt>
      <trkpt lat="45.14864" lon="-0.52739">
        <ele>45.3</ele>
        <time>2020-09-03T08:43:27Z</time>
      </trkpt>
      <trkpt lat="45.14863" lon="-0.52739">
        <ele>45.3</ele>
        <time>2020-09-03T08:43:28Z</time>
      </trkpt>
      <trkpt lat="45.1486" lon="-0.5274">
        <ele>45.4</ele>
        <time>2020-09-03T08:43:29Z</time>
      </trkpt>
      <trkpt lat="45.14859" lon="-0.5274">
        <ele>45.5</ele>
        <time>2020-09-03T08:43:31Z</time>
      </trkpt>
      <trkpt lat="45.14858" lon="-0.5274">
        <ele>45.6</ele>
        <time>2020-09-03T08:43:32Z</time>
      </trkpt>
      <trkpt lat="45.14857" lon="-0.5274">
        <ele>45.6</ele>
        <time>2020-09-03T08:43:33Z</time>
      </trkpt>
      <trkpt lat="45.14854" lon="-0.52741">
        <ele>45.7</ele>
        <time>2020-09-03T08:43:34Z</time>
      </trkpt>
      <trkpt lat="45.14852" lon="-0.52742">
        <ele>45.8</ele>
        <time>2020-09-03T08:43:36Z</time>
      </trkpt>
      <trkpt lat="45.14851" lon="-0.52742">
        <ele>45.8</ele>
        <time>2020-09-03T08:43:37Z</time>
      </trkpt>
      <trkpt lat="45.1485" lon="-0.52743">
        <ele>45.9</ele>
        <time>2020-09-03T08:43:38Z</time>
      </trkpt>
      <trkpt lat="45.14848" lon="-0.52744">
        <ele>46</ele>
        <time>2020-09-03T08:43:39Z</time>
      </trkpt>
      <trkpt lat="45.14847" lon="-0.52745">
        <ele>46</ele>
        <time>2020-09-03T08:43:40Z</time>
      </trkpt>
      <trkpt lat="45.14847" lon="-0.52745">
        <ele>46</ele>
        <time>2020-09-03T08:43:41Z</time>
      </trkpt>
      <trkpt lat="45.14846" lon="-0.52746">
        <ele>46</ele>
        <time>2020-09-03T08:43:42Z</time>
      </trkpt>
      <trkpt lat="45.14845" lon="-0.52748">
        <ele>46</ele>
        <time>2020-09-03T08:43:43Z</time>
      </trkpt>
      <trkpt lat="45.14844" lon="-0.5275">
        <ele>46.1</ele>
        <time>2020-09-03T08:43:44Z</time>
      </trkpt>
      <trkpt lat="45.14843" lon="-0.52752">
        <ele>46.1</ele>
        <time>2020-09-03T08:43:46Z</time>
      </trkpt>
      <trkpt lat="45.14842" lon="-0.52753">
        <ele>46.1</ele>
        <time>2020-09-03T08:43:47Z</time>
      </trkpt>
      <trkpt lat="45.14841" lon="-0.52755">
        <ele>46.1</ele>
        <time>2020-09-03T08:43:48Z</time>
      </trkpt>
      <trkpt lat="45.14839" lon="-0.52758">
        <ele>46</ele>
        <time>2020-09-03T08:43:50Z</time>
      </trkpt>
      <trkpt lat="45.14838" lon="-0.5276">
        <ele>46</ele>
        <time>2020-09-03T08:43:52Z</time>
      </trkpt>
      <trkpt lat="45.14837" lon="-0.52761">
        <ele>46</ele>
        <time>2020-09-03T08:43:53Z</time>
      </trkpt>
      <trkpt lat="45.14837" lon="-0.52762">
        <ele>46</ele>
        <time>2020-09-03T08:43:54Z</time>
      </trkpt>
      <trkpt lat="45.14836" lon="-0.52764">
        <ele>45.9</ele>
        <time>2020-09-03T08:43:55Z</time>
      </trkpt>
      <trkpt lat="45.14835" lon="-0.52765">
        <ele>45.9</ele>
        <time>2020-09-03T08:43:56Z</time>
      </trkpt>
      <trkpt lat="45.14834" lon="-0.52767">
        <ele>45.9</ele>
        <time>2020-09-03T08:43:57Z</time>
      </trkpt>
      <trkpt lat="45.14833" lon="-0.52768">
        <ele>45.9</ele>
        <time>2020-09-03T08:43:58Z</time>
      </trkpt>
      <trkpt lat="45.14833" lon="-0.52769">
        <ele>45.9</ele>
        <time>2020-09-03T08:43:59Z</time>
      </trkpt>
      <trkpt lat="45.14831" lon="-0.5277">
        <ele>45.9</ele>
        <time>2020-09-03T08:44:00Z</time>
      </trkpt>
      <trkpt lat="45.1483" lon="-0.52771">
        <ele>45.9</ele>
        <time>2020-09-03T08:44:01Z</time>
      </trkpt>
      <trkpt lat="45.14829" lon="-0.52771">
        <ele>45.9</ele>
        <time>2020-09-03T08:44:03Z</time>
      </trkpt>
      <trkpt lat="45.14829" lon="-0.52771">
        <ele>45.9</ele>
        <time>2020-09-03T08:44:04Z</time>
      </trkpt>
      <trkpt lat="45.14827" lon="-0.52772">
        <ele>45.9</ele>
        <time>2020-09-03T08:44:05Z</time>
      </trkpt>
      <trkpt lat="45.14826" lon="-0.52773">
        <ele>45.9</ele>
        <time>2020-09-03T08:44:06Z</time>
      </trkpt>
      <trkpt lat="45.14825" lon="-0.52774">
        <ele>45.9</ele>
        <time>2020-09-03T08:44:08Z</time>
      </trkpt>
      <trkpt lat="45.14822" lon="-0.52776">
        <ele>45.9</ele>
        <time>2020-09-03T08:44:10Z</time>
      </trkpt>
      <trkpt lat="45.14821" lon="-0.52776">
        <ele>45.9</ele>
        <time>2020-09-03T08:44:11Z</time>
      </trkpt>
      <trkpt lat="45.1482" lon="-0.52777">
        <ele>45.9</ele>
        <time>2020-09-03T08:44:12Z</time>
      </trkpt>
      <trkpt lat="45.14819" lon="-0.52778">
        <ele>45.9</ele>
        <time>2020-09-03T08:44:13Z</time>
      </trkpt>
      <trkpt lat="45.14817" lon="-0.5278">
        <ele>45.9</ele>
        <time>2020-09-03T08:44:15Z</time>
      </trkpt>
      <trkpt lat="45.14816" lon="-0.52781">
        <ele>45.9</ele>
        <time>2020-09-03T08:44:16Z</time>
      </trkpt>
      <trkpt lat="45.14814" lon="-0.52782">
        <ele>45.9</ele>
        <time>2020-09-03T08:44:17Z</time>
      </trkpt>
      <trkpt lat="45.14813" lon="-0.52782">
        <ele>45.9</ele>
        <time>2020-09-03T08:44:18Z</time>
      </trkpt>
      <trkpt lat="45.1481" lon="-0.52783">
        <ele>45.9</ele>
        <time>2020-09-03T08:44:20Z</time>
      </trkpt>
      <trkpt lat="45.14809" lon="-0.52783">
        <ele>45.9</ele>
        <time>2020-09-03T08:44:21Z</time>
      </trkpt>
      <trkpt lat="45.14806" lon="-0.52784">
        <ele>45.9</ele>
        <time>2020-09-03T08:44:23Z</time>
      </trkpt>
      <trkpt lat="45.14804" lon="-0.52785">
        <ele>45.8</ele>
        <time>2020-09-03T08:44:25Z</time>
      </trkpt>
      <trkpt lat="45.14803" lon="-0.52785">
        <ele>45.8</ele>
        <time>2020-09-03T08:44:26Z</time>
      </trkpt>
      <trkpt lat="45.14801" lon="-0.52785">
        <ele>45.8</ele>
        <time>2020-09-03T08:44:27Z</time>
      </trkpt>
      <trkpt lat="45.148" lon="-0.52785">
        <ele>45.7</ele>
        <time>2020-09-03T08:44:29Z</time>
      </trkpt>
      <trkpt lat="45.14798" lon="-0.52785">
        <ele>45.7</ele>
        <time>2020-09-03T08:44:30Z</time>
      </trkpt>
      <trkpt lat="45.14797" lon="-0.52785">
        <ele>45.7</ele>
        <time>2020-09-03T08:44:31Z</time>
      </trkpt>
      <trkpt lat="45.14795" lon="-0.52786">
        <ele>45.6</ele>
        <time>2020-09-03T08:44:32Z</time>
      </trkpt>
      <trkpt lat="45.14794" lon="-0.52786">
        <ele>45.6</ele>
        <time>2020-09-03T08:44:33Z</time>
      </trkpt>
      <trkpt lat="45.14793" lon="-0.52786">
        <ele>45.5</ele>
        <time>2020-09-03T08:44:34Z</time>
      </trkpt>
      <trkpt lat="45.14791" lon="-0.52787">
        <ele>45.4</ele>
        <time>2020-09-03T08:44:35Z</time>
      </trkpt>
      <trkpt lat="45.1479" lon="-0.52788">
        <ele>45.4</ele>
        <time>2020-09-03T08:44:37Z</time>
      </trkpt>
      <trkpt lat="45.14789" lon="-0.52788">
        <ele>45.4</ele>
        <time>2020-09-03T08:44:38Z</time>
      </trkpt>
      <trkpt lat="45.14787" lon="-0.52788">
        <ele>45.3</ele>
        <time>2020-09-03T08:44:40Z</time>
      </trkpt>
      <trkpt lat="45.14786" lon="-0.52789">
        <ele>45.3</ele>
        <time>2020-09-03T08:44:41Z</time>
      </trkpt>
      <trkpt lat="45.14784" lon="-0.52789">
        <ele>45.2</ele>
        <time>2020-09-03T08:44:42Z</time>
      </trkpt>
      <trkpt lat="45.14783" lon="-0.52789">
        <ele>45.2</ele>
        <time>2020-09-03T08:44:43Z</time>
      </trkpt>
      <trkpt lat="45.1478" lon="-0.52791">
        <ele>45.1</ele>
        <time>2020-09-03T08:44:45Z</time>
      </trkpt>
      <trkpt lat="45.14779" lon="-0.52791">
        <ele>45</ele>
        <time>2020-09-03T08:44:46Z</time>
      </trkpt>
      <trkpt lat="45.14776" lon="-0.52791">
        <ele>44.9</ele>
        <time>2020-09-03T08:44:48Z</time>
      </trkpt>
      <trkpt lat="45.14775" lon="-0.52792">
        <ele>44.9</ele>
        <time>2020-09-03T08:44:49Z</time>
      </trkpt>
      <trkpt lat="45.14773" lon="-0.52792">
        <ele>44.9</ele>
        <time>2020-09-03T08:44:50Z</time>
      </trkpt>
      <trkpt lat="45.14772" lon="-0.52792">
        <ele>44.8</ele>
        <time>2020-09-03T08:44:51Z</time>
      </trkpt>
      <trkpt lat="45.1477" lon="-0.52792">
        <ele>44.8</ele>
        <time>2020-09-03T08:44:52Z</time>
      </trkpt>
      <trkpt lat="45.14768" lon="-0.52792">
        <ele>44.7</ele>
        <time>2020-09-03T08:44:55Z</time>
      </trkpt>
      <trkpt lat="45.14767" lon="-0.52792">
        <ele>44.7</ele>
        <time>2020-09-03T08:44:56Z</time>
      </trkpt>
      <trkpt lat="45.14765" lon="-0.52793">
        <ele>44.7</ele>
        <time>2020-09-03T08:44:57Z</time>
      </trkpt>
      <trkpt lat="45.14763" lon="-0.52794">
        <ele>44.6</ele>
        <time>2020-09-03T08:44:59Z</time>
      </trkpt>
      <trkpt lat="45.14762" lon="-0.52795">
        <ele>44.6</ele>
        <time>2020-09-03T08:45:00Z</time>
      </trkpt>
      <trkpt lat="45.1476" lon="-0.52795">
        <ele>44.6</ele>
        <time>2020-09-03T08:45:01Z</time>
      </trkpt>
      <trkpt lat="45.14758" lon="-0.52796">
        <ele>44.5</ele>
        <time>2020-09-03T08:45:02Z</time>
      </trkpt>
      <trkpt lat="45.14756" lon="-0.52796">
        <ele>44.5</ele>
        <time>2020-09-03T08:45:04Z</time>
      </trkpt>
      <trkpt lat="45.14754" lon="-0.52797">
        <ele>44.4</ele>
        <time>2020-09-03T08:45:05Z</time>
      </trkpt>
      <trkpt lat="45.14753" lon="-0.52797">
        <ele>44.4</ele>
        <time>2020-09-03T08:45:06Z</time>
      </trkpt>
      <trkpt lat="45.1475" lon="-0.52798">
        <ele>44.4</ele>
        <time>2020-09-03T08:45:08Z</time>
      </trkpt>
      <trkpt lat="45.14749" lon="-0.52798">
        <ele>44.4</ele>
        <time>2020-09-03T08:45:09Z</time>
      </trkpt>
      <trkpt lat="45.14748" lon="-0.52799">
        <ele>44.3</ele>
        <time>2020-09-03T08:45:10Z</time>
      </trkpt>
      <trkpt lat="45.14747" lon="-0.528">
        <ele>44.3</ele>
        <time>2020-09-03T08:45:11Z</time>
      </trkpt>
      <trkpt lat="45.14745" lon="-0.52801">
        <ele>44.3</ele>
        <time>2020-09-03T08:45:13Z</time>
      </trkpt>
      <trkpt lat="45.14743" lon="-0.52801">
        <ele>44.2</ele>
        <time>2020-09-03T08:45:14Z</time>
      </trkpt>
      <trkpt lat="45.14742" lon="-0.52802">
        <ele>44.2</ele>
        <time>2020-09-03T08:45:15Z</time>
      </trkpt>
      <trkpt lat="45.14741" lon="-0.52802">
        <ele>44.2</ele>
        <time>2020-09-03T08:45:16Z</time>
      </trkpt>
      <trkpt lat="45.14739" lon="-0.52804">
        <ele>44.2</ele>
        <time>2020-09-03T08:45:18Z</time>
      </trkpt>
      <trkpt lat="45.14737" lon="-0.52804">
        <ele>44.1</ele>
        <time>2020-09-03T08:45:19Z</time>
      </trkpt>
      <trkpt lat="45.14736" lon="-0.52805">
        <ele>44.1</ele>
        <time>2020-09-03T08:45:20Z</time>
      </trkpt>
      <trkpt lat="45.14735" lon="-0.52805">
        <ele>44.1</ele>
        <time>2020-09-03T08:45:21Z</time>
      </trkpt>
      <trkpt lat="45.14732" lon="-0.52806">
        <ele>44.1</ele>
        <time>2020-09-03T08:45:23Z</time>
      </trkpt>
      <trkpt lat="45.14731" lon="-0.52807">
        <ele>44.1</ele>
        <time>2020-09-03T08:45:24Z</time>
      </trkpt>
      <trkpt lat="45.1473" lon="-0.52807">
        <ele>44.1</ele>
        <time>2020-09-03T08:45:25Z</time>
      </trkpt>
      <trkpt lat="45.14729" lon="-0.52808">
        <ele>44.1</ele>
        <time>2020-09-03T08:45:26Z</time>
      </trkpt>
      <trkpt lat="45.14727" lon="-0.52808">
        <ele>44.1</ele>
        <time>2020-09-03T08:45:28Z</time>
      </trkpt>
      <trkpt lat="45.14725" lon="-0.52809">
        <ele>44.1</ele>
        <time>2020-09-03T08:45:30Z</time>
      </trkpt>
      <trkpt lat="45.14724" lon="-0.5281">
        <ele>44.1</ele>
        <time>2020-09-03T08:45:31Z</time>
      </trkpt>
      <trkpt lat="45.14721" lon="-0.52811">
        <ele>44.1</ele>
        <time>2020-09-03T08:45:33Z</time>
      </trkpt>
      <trkpt lat="45.1472" lon="-0.52812">
        <ele>44.1</ele>
        <time>2020-09-03T08:45:34Z</time>
      </trkpt>
      <trkpt lat="45.14718" lon="-0.52813">
        <ele>44.1</ele>
        <time>2020-09-03T08:45:35Z</time>
      </trkpt>
      <trkpt lat="45.14717" lon="-0.52813">
        <ele>44.1</ele>
        <time>2020-09-03T08:45:37Z</time>
      </trkpt>
      <trkpt lat="45.14715" lon="-0.52814">
        <ele>44.1</ele>
        <time>2020-09-03T08:45:38Z</time>
      </trkpt>
      <trkpt lat="45.14713" lon="-0.52815">
        <ele>44.1</ele>
        <time>2020-09-03T08:45:39Z</time>
      </trkpt>
      <trkpt lat="45.14711" lon="-0.52816">
        <ele>44.1</ele>
        <time>2020-09-03T08:45:41Z</time>
      </trkpt>
      <trkpt lat="45.14709" lon="-0.52817">
        <ele>44.1</ele>
        <time>2020-09-03T08:45:43Z</time>
      </trkpt>
      <trkpt lat="45.14707" lon="-0.52817">
        <ele>44.1</ele>
        <time>2020-09-03T08:45:44Z</time>
      </trkpt>
      <trkpt lat="45.14706" lon="-0.52817">
        <ele>44.1</ele>
        <time>2020-09-03T08:45:45Z</time>
      </trkpt>
      <trkpt lat="45.14703" lon="-0.52816">
        <ele>44.1</ele>
        <time>2020-09-03T08:45:48Z</time>
      </trkpt>
      <trkpt lat="45.14701" lon="-0.52816">
        <ele>44.1</ele>
        <time>2020-09-03T08:45:49Z</time>
      </trkpt>
      <trkpt lat="45.147" lon="-0.52815">
        <ele>44.1</ele>
        <time>2020-09-03T08:45:50Z</time>
      </trkpt>
      <trkpt lat="45.14699" lon="-0.52815">
        <ele>44.1</ele>
        <time>2020-09-03T08:45:51Z</time>
      </trkpt>
      <trkpt lat="45.14697" lon="-0.52814">
        <ele>44.1</ele>
        <time>2020-09-03T08:45:52Z</time>
      </trkpt>
      <trkpt lat="45.14696" lon="-0.52813">
        <ele>44.1</ele>
        <time>2020-09-03T08:45:54Z</time>
      </trkpt>
      <trkpt lat="45.14694" lon="-0.52811">
        <ele>44.1</ele>
        <time>2020-09-03T08:45:55Z</time>
      </trkpt>
      <trkpt lat="45.14692" lon="-0.5281">
        <ele>44.2</ele>
        <time>2020-09-03T08:45:57Z</time>
      </trkpt>
      <trkpt lat="45.1469" lon="-0.52808">
        <ele>44.2</ele>
        <time>2020-09-03T08:45:58Z</time>
      </trkpt>
      <trkpt lat="45.14689" lon="-0.52807">
        <ele>44.2</ele>
        <time>2020-09-03T08:45:59Z</time>
      </trkpt>
      <trkpt lat="45.14688" lon="-0.52806">
        <ele>44.2</ele>
        <time>2020-09-03T08:46:00Z</time>
      </trkpt>
      <trkpt lat="45.14687" lon="-0.52805">
        <ele>44.2</ele>
        <time>2020-09-03T08:46:02Z</time>
      </trkpt>
      <trkpt lat="45.14685" lon="-0.52804">
        <ele>44.2</ele>
        <time>2020-09-03T08:46:03Z</time>
      </trkpt>
      <trkpt lat="45.14684" lon="-0.52803">
        <ele>44.2</ele>
        <time>2020-09-03T08:46:04Z</time>
      </trkpt>
      <trkpt lat="45.14682" lon="-0.52802">
        <ele>44.2</ele>
        <time>2020-09-03T08:46:05Z</time>
      </trkpt>
      <trkpt lat="45.14681" lon="-0.52802">
        <ele>44.2</ele>
        <time>2020-09-03T08:46:06Z</time>
      </trkpt>
      <trkpt lat="45.1468" lon="-0.52802">
        <ele>44.2</ele>
        <time>2020-09-03T08:46:07Z</time>
      </trkpt>
      <trkpt lat="45.14678" lon="-0.52801">
        <ele>44.2</ele>
        <time>2020-09-03T08:46:09Z</time>
      </trkpt>
      <trkpt lat="45.14677" lon="-0.52801">
        <ele>44.2</ele>
        <time>2020-09-03T08:46:10Z</time>
      </trkpt>
      <trkpt lat="45.14675" lon="-0.52801">
        <ele>44.2</ele>
        <time>2020-09-03T08:46:11Z</time>
      </trkpt>
      <trkpt lat="45.14674" lon="-0.528">
        <ele>44.2</ele>
        <time>2020-09-03T08:46:12Z</time>
      </trkpt>
      <trkpt lat="45.14671" lon="-0.528">
        <ele>44.3</ele>
        <time>2020-09-03T08:46:14Z</time>
      </trkpt>
      <trkpt lat="45.14669" lon="-0.52801">
        <ele>44.3</ele>
        <time>2020-09-03T08:46:15Z</time>
      </trkpt>
      <trkpt lat="45.14667" lon="-0.52801">
        <ele>44.4</ele>
        <time>2020-09-03T08:46:17Z</time>
      </trkpt>
      <trkpt lat="45.14665" lon="-0.52801">
        <ele>44.4</ele>
        <time>2020-09-03T08:46:18Z</time>
      </trkpt>
      <trkpt lat="45.14664" lon="-0.52802">
        <ele>44.4</ele>
        <time>2020-09-03T08:46:19Z</time>
      </trkpt>
      <trkpt lat="45.14661" lon="-0.52802">
        <ele>44.4</ele>
        <time>2020-09-03T08:46:21Z</time>
      </trkpt>
      <trkpt lat="45.1466" lon="-0.52802">
        <ele>44.5</ele>
        <time>2020-09-03T08:46:22Z</time>
      </trkpt>
      <trkpt lat="45.14657" lon="-0.52803">
        <ele>44.5</ele>
        <time>2020-09-03T08:46:24Z</time>
      </trkpt>
      <trkpt lat="45.14656" lon="-0.52804">
        <ele>44.5</ele>
        <time>2020-09-03T08:46:25Z</time>
      </trkpt>
      <trkpt lat="45.14655" lon="-0.52804">
        <ele>44.5</ele>
        <time>2020-09-03T08:46:26Z</time>
      </trkpt>
      <trkpt lat="45.14654" lon="-0.52805">
        <ele>44.5</ele>
        <time>2020-09-03T08:46:27Z</time>
      </trkpt>
      <trkpt lat="45.14651" lon="-0.52806">
        <ele>44.5</ele>
        <time>2020-09-03T08:46:29Z</time>
      </trkpt>
      <trkpt lat="45.14649" lon="-0.52807">
        <ele>44.5</ele>
        <time>2020-09-03T08:46:30Z</time>
      </trkpt>
      <trkpt lat="45.14648" lon="-0.52807">
        <ele>44.5</ele>
        <time>2020-09-03T08:46:31Z</time>
      </trkpt>
      <trkpt lat="45.14647" lon="-0.52808">
        <ele>44.5</ele>
        <time>2020-09-03T08:46:32Z</time>
      </trkpt>
      <trkpt lat="45.14645" lon="-0.52809">
        <ele>44.5</ele>
        <time>2020-09-03T08:46:34Z</time>
      </trkpt>
      <trkpt lat="45.14644" lon="-0.52809">
        <ele>44.5</ele>
        <time>2020-09-03T08:46:35Z</time>
      </trkpt>
      <trkpt lat="45.14643" lon="-0.5281">
        <ele>44.5</ele>
        <time>2020-09-03T08:46:36Z</time>
      </trkpt>
      <trkpt lat="45.1464" lon="-0.52811">
        <ele>44.5</ele>
        <time>2020-09-03T08:46:38Z</time>
      </trkpt>
      <trkpt lat="45.14639" lon="-0.52811">
        <ele>44.5</ele>
        <time>2020-09-03T08:46:39Z</time>
      </trkpt>
      <trkpt lat="45.14637" lon="-0.52812">
        <ele>44.5</ele>
        <time>2020-09-03T08:46:41Z</time>
      </trkpt>
      <trkpt lat="45.14635" lon="-0.52812">
        <ele>44.5</ele>
        <time>2020-09-03T08:46:42Z</time>
      </trkpt>
      <trkpt lat="45.14634" lon="-0.52813">
        <ele>44.5</ele>
        <time>2020-09-03T08:46:43Z</time>
      </trkpt>
      <trkpt lat="45.14632" lon="-0.52814">
        <ele>44.5</ele>
        <time>2020-09-03T08:46:45Z</time>
      </trkpt>
      <trkpt lat="45.14631" lon="-0.52814">
        <ele>44.5</ele>
        <time>2020-09-03T08:46:46Z</time>
      </trkpt>
      <trkpt lat="45.14629" lon="-0.52815">
        <ele>44.5</ele>
        <time>2020-09-03T08:46:47Z</time>
      </trkpt>
      <trkpt lat="45.14627" lon="-0.52816">
        <ele>44.5</ele>
        <time>2020-09-03T08:46:49Z</time>
      </trkpt>
      <trkpt lat="45.14625" lon="-0.52818">
        <ele>44.5</ele>
        <time>2020-09-03T08:46:50Z</time>
      </trkpt>
      <trkpt lat="45.14624" lon="-0.52819">
        <ele>44.5</ele>
        <time>2020-09-03T08:46:51Z</time>
      </trkpt>
      <trkpt lat="45.14623" lon="-0.52819">
        <ele>44.5</ele>
        <time>2020-09-03T08:46:53Z</time>
      </trkpt>
      <trkpt lat="45.14623" lon="-0.5282">
        <ele>44.5</ele>
        <time>2020-09-03T08:46:54Z</time>
      </trkpt>
      <trkpt lat="45.14624" lon="-0.52819">
        <ele>44.5</ele>
        <time>2020-09-03T08:46:56Z</time>
      </trkpt>
      <trkpt lat="45.14624" lon="-0.52819">
        <ele>44.5</ele>
        <time>2020-09-03T08:46:57Z</time>
      </trkpt>
      <trkpt lat="45.14624" lon="-0.52819">
        <ele>44.5</ele>
        <time>2020-09-03T08:46:59Z</time>
      </trkpt>
      <trkpt lat="45.14624" lon="-0.52819">
        <ele>44.5</ele>
        <time>2020-09-03T08:47:00Z</time>
      </trkpt>
      <trkpt lat="45.14624" lon="-0.52819">
        <ele>44.5</ele>
        <time>2020-09-03T08:47:01Z</time>
      </trkpt>
      <trkpt lat="45.14624" lon="-0.52819">
        <ele>44.5</ele>
        <time>2020-09-03T08:47:02Z</time>
      </trkpt>
      <trkpt lat="45.14624" lon="-0.5282">
        <ele>44.5</ele>
        <time>2020-09-03T08:47:03Z</time>
      </trkpt>
      <trkpt lat="45.14623" lon="-0.52821">
        <ele>44.5</ele>
        <time>2020-09-03T08:47:04Z</time>
      </trkpt>
      <trkpt lat="45.14621" lon="-0.52822">
        <ele>44.4</ele>
        <time>2020-09-03T08:47:05Z</time>
      </trkpt>
      <trkpt lat="45.1462" lon="-0.52824">
        <ele>44.4</ele>
        <time>2020-09-03T08:47:06Z</time>
      </trkpt>
      <trkpt lat="45.14619" lon="-0.52826">
        <ele>44.4</ele>
        <time>2020-09-03T08:47:08Z</time>
      </trkpt>
      <trkpt lat="45.14618" lon="-0.52828">
        <ele>44.4</ele>
        <time>2020-09-03T08:47:09Z</time>
      </trkpt>
      <trkpt lat="45.14617" lon="-0.52829">
        <ele>44.4</ele>
        <time>2020-09-03T08:47:10Z</time>
      </trkpt>
      <trkpt lat="45.14616" lon="-0.52832">
        <ele>44.4</ele>
        <time>2020-09-03T08:47:12Z</time>
      </trkpt>
      <trkpt lat="45.14615" lon="-0.52833">
        <ele>44.4</ele>
        <time>2020-09-03T08:47:13Z</time>
      </trkpt>
      <trkpt lat="45.14615" lon="-0.52834">
        <ele>44.5</ele>
        <time>2020-09-03T08:47:14Z</time>
      </trkpt>
      <trkpt lat="45.14614" lon="-0.52837">
        <ele>44.5</ele>
        <time>2020-09-03T08:47:16Z</time>
      </trkpt>
      <trkpt lat="45.14613" lon="-0.52839">
        <ele>44.5</ele>
        <time>2020-09-03T08:47:17Z</time>
      </trkpt>
      <trkpt lat="45.14613" lon="-0.52842">
        <ele>44.5</ele>
        <time>2020-09-03T08:47:19Z</time>
      </trkpt>
      <trkpt lat="45.14612" lon="-0.52844">
        <ele>44.5</ele>
        <time>2020-09-03T08:47:20Z</time>
      </trkpt>
      <trkpt lat="45.14612" lon="-0.52847">
        <ele>44.5</ele>
        <time>2020-09-03T08:47:22Z</time>
      </trkpt>
      <trkpt lat="45.14611" lon="-0.5285">
        <ele>44.5</ele>
        <time>2020-09-03T08:47:23Z</time>
      </trkpt>
      <trkpt lat="45.14609" lon="-0.52852">
        <ele>44.5</ele>
        <time>2020-09-03T08:47:25Z</time>
      </trkpt>
      <trkpt lat="45.14608" lon="-0.52853">
        <ele>44.5</ele>
        <time>2020-09-03T08:47:26Z</time>
      </trkpt>
      <trkpt lat="45.14606" lon="-0.52855">
        <ele>44.5</ele>
        <time>2020-09-03T08:47:28Z</time>
      </trkpt>
      <trkpt lat="45.14604" lon="-0.52856">
        <ele>44.6</ele>
        <time>2020-09-03T08:47:29Z</time>
      </trkpt>
      <trkpt lat="45.14602" lon="-0.52856">
        <ele>44.6</ele>
        <time>2020-09-03T08:47:31Z</time>
      </trkpt>
      <trkpt lat="45.14601" lon="-0.52856">
        <ele>44.6</ele>
        <time>2020-09-03T08:47:33Z</time>
      </trkpt>
      <trkpt lat="45.146" lon="-0.52856">
        <ele>44.6</ele>
        <time>2020-09-03T08:47:34Z</time>
      </trkpt>
      <trkpt lat="45.14598" lon="-0.52854">
        <ele>44.6</ele>
        <time>2020-09-03T08:47:35Z</time>
      </trkpt>
      <trkpt lat="45.14597" lon="-0.52854">
        <ele>44.6</ele>
        <time>2020-09-03T08:47:37Z</time>
      </trkpt>
      <trkpt lat="45.14595" lon="-0.52853">
        <ele>44.6</ele>
        <time>2020-09-03T08:47:38Z</time>
      </trkpt>
      <trkpt lat="45.14593" lon="-0.52853">
        <ele>44.6</ele>
        <time>2020-09-03T08:47:39Z</time>
      </trkpt>
      <trkpt lat="45.14591" lon="-0.52853">
        <ele>44.7</ele>
        <time>2020-09-03T08:47:41Z</time>
      </trkpt>
      <trkpt lat="45.14589" lon="-0.52853">
        <ele>44.7</ele>
        <time>2020-09-03T08:47:43Z</time>
      </trkpt>
      <trkpt lat="45.14586" lon="-0.52853">
        <ele>44.7</ele>
        <time>2020-09-03T08:47:44Z</time>
      </trkpt>
      <trkpt lat="45.14585" lon="-0.52853">
        <ele>44.7</ele>
        <time>2020-09-03T08:47:45Z</time>
      </trkpt>
      <trkpt lat="45.14584" lon="-0.52855">
        <ele>44.8</ele>
        <time>2020-09-03T08:47:46Z</time>
      </trkpt>
      <trkpt lat="45.14583" lon="-0.52856">
        <ele>44.8</ele>
        <time>2020-09-03T08:47:47Z</time>
      </trkpt>
      <trkpt lat="45.14581" lon="-0.52857">
        <ele>44.8</ele>
        <time>2020-09-03T08:47:48Z</time>
      </trkpt>
      <trkpt lat="45.1458" lon="-0.52858">
        <ele>44.8</ele>
        <time>2020-09-03T08:47:50Z</time>
      </trkpt>
      <trkpt lat="45.14577" lon="-0.5286">
        <ele>44.9</ele>
        <time>2020-09-03T08:47:51Z</time>
      </trkpt>
      <trkpt lat="45.14576" lon="-0.5286">
        <ele>44.9</ele>
        <time>2020-09-03T08:47:52Z</time>
      </trkpt>
      <trkpt lat="45.14573" lon="-0.52861">
        <ele>44.9</ele>
        <time>2020-09-03T08:47:54Z</time>
      </trkpt>
      <trkpt lat="45.14572" lon="-0.52861">
        <ele>44.9</ele>
        <time>2020-09-03T08:47:55Z</time>
      </trkpt>
      <trkpt lat="45.1457" lon="-0.52861">
        <ele>44.9</ele>
        <time>2020-09-03T08:47:56Z</time>
      </trkpt>
      <trkpt lat="45.14569" lon="-0.52862">
        <ele>44.9</ele>
        <time>2020-09-03T08:47:57Z</time>
      </trkpt>
      <trkpt lat="45.14568" lon="-0.52862">
        <ele>44.9</ele>
        <time>2020-09-03T08:47:58Z</time>
      </trkpt>
      <trkpt lat="45.14565" lon="-0.52862">
        <ele>44.9</ele>
        <time>2020-09-03T08:48:00Z</time>
      </trkpt>
      <trkpt lat="45.14564" lon="-0.52863">
        <ele>45</ele>
        <time>2020-09-03T08:48:02Z</time>
      </trkpt>
      <trkpt lat="45.1456" lon="-0.52863">
        <ele>45</ele>
        <time>2020-09-03T08:48:03Z</time>
      </trkpt>
      <trkpt lat="45.1456" lon="-0.52863">
        <ele>45</ele>
        <time>2020-09-03T08:48:04Z</time>
      </trkpt>
      <trkpt lat="45.14558" lon="-0.52864">
        <ele>45</ele>
        <time>2020-09-03T08:48:05Z</time>
      </trkpt>
      <trkpt lat="45.14556" lon="-0.52864">
        <ele>45.1</ele>
        <time>2020-09-03T08:48:07Z</time>
      </trkpt>
      <trkpt lat="45.14553" lon="-0.52863">
        <ele>45.1</ele>
        <time>2020-09-03T08:48:09Z</time>
      </trkpt>
      <trkpt lat="45.14552" lon="-0.52863">
        <ele>45.2</ele>
        <time>2020-09-03T08:48:10Z</time>
      </trkpt>
      <trkpt lat="45.14551" lon="-0.52863">
        <ele>45.2</ele>
        <time>2020-09-03T08:48:11Z</time>
      </trkpt>
      <trkpt lat="45.14548" lon="-0.52863">
        <ele>45.2</ele>
        <time>2020-09-03T08:48:13Z</time>
      </trkpt>
      <trkpt lat="45.14546" lon="-0.52864">
        <ele>45.3</ele>
        <time>2020-09-03T08:48:14Z</time>
      </trkpt>
      <trkpt lat="45.14545" lon="-0.52864">
        <ele>45.3</ele>
        <time>2020-09-03T08:48:15Z</time>
      </trkpt>
      <trkpt lat="45.14544" lon="-0.52864">
        <ele>45.3</ele>
        <time>2020-09-03T08:48:16Z</time>
      </trkpt>
      <trkpt lat="45.14542" lon="-0.52864">
        <ele>45.3</ele>
        <time>2020-09-03T08:48:17Z</time>
      </trkpt>
      <trkpt lat="45.14541" lon="-0.52864">
        <ele>45.3</ele>
        <time>2020-09-03T08:48:19Z</time>
      </trkpt>
      <trkpt lat="45.14539" lon="-0.52864">
        <ele>45.4</ele>
        <time>2020-09-03T08:48:20Z</time>
      </trkpt>
      <trkpt lat="45.14537" lon="-0.52865">
        <ele>45.4</ele>
        <time>2020-09-03T08:48:21Z</time>
      </trkpt>
      <trkpt lat="45.14536" lon="-0.52866">
        <ele>45.4</ele>
        <time>2020-09-03T08:48:22Z</time>
      </trkpt>
      <trkpt lat="45.14535" lon="-0.52867">
        <ele>45.4</ele>
        <time>2020-09-03T08:48:23Z</time>
      </trkpt>
      <trkpt lat="45.14534" lon="-0.52868">
        <ele>45.4</ele>
        <time>2020-09-03T08:48:25Z</time>
      </trkpt>
      <trkpt lat="45.14533" lon="-0.5287">
        <ele>45.5</ele>
        <time>2020-09-03T08:48:26Z</time>
      </trkpt>
      <trkpt lat="45.14533" lon="-0.52872">
        <ele>45.5</ele>
        <time>2020-09-03T08:48:27Z</time>
      </trkpt>
      <trkpt lat="45.14532" lon="-0.52875">
        <ele>45.5</ele>
        <time>2020-09-03T08:48:28Z</time>
      </trkpt>
      <trkpt lat="45.14532" lon="-0.52877">
        <ele>45.5</ele>
        <time>2020-09-03T08:48:30Z</time>
      </trkpt>
      <trkpt lat="45.14532" lon="-0.52879">
        <ele>45.5</ele>
        <time>2020-09-03T08:48:31Z</time>
      </trkpt>
      <trkpt lat="45.14532" lon="-0.52882">
        <ele>45.6</ele>
        <time>2020-09-03T08:48:32Z</time>
      </trkpt>
      <trkpt lat="45.14533" lon="-0.52885">
        <ele>45.6</ele>
        <time>2020-09-03T08:48:34Z</time>
      </trkpt>
      <trkpt lat="45.14533" lon="-0.52888">
        <ele>45.6</ele>
        <time>2020-09-03T08:48:35Z</time>
      </trkpt>
      <trkpt lat="45.14534" lon="-0.5289">
        <ele>45.6</ele>
        <time>2020-09-03T08:48:36Z</time>
      </trkpt>
      <trkpt lat="45.14534" lon="-0.52891">
        <ele>45.6</ele>
        <time>2020-09-03T08:48:38Z</time>
      </trkpt>
      <trkpt lat="45.14535" lon="-0.52894">
        <ele>45.7</ele>
        <time>2020-09-03T08:48:39Z</time>
      </trkpt>
      <trkpt lat="45.14535" lon="-0.52895">
        <ele>45.7</ele>
        <time>2020-09-03T08:48:41Z</time>
      </trkpt>
      <trkpt lat="45.14535" lon="-0.52896">
        <ele>45.7</ele>
        <time>2020-09-03T08:48:42Z</time>
      </trkpt>
      <trkpt lat="45.14535" lon="-0.52898">
        <ele>45.7</ele>
        <time>2020-09-03T08:48:43Z</time>
      </trkpt>
      <trkpt lat="45.14535" lon="-0.529">
        <ele>45.7</ele>
        <time>2020-09-03T08:48:44Z</time>
      </trkpt>
      <trkpt lat="45.14535" lon="-0.52902">
        <ele>45.7</ele>
        <time>2020-09-03T08:48:45Z</time>
      </trkpt>
      <trkpt lat="45.14535" lon="-0.52906">
        <ele>45.7</ele>
        <time>2020-09-03T08:48:46Z</time>
      </trkpt>
      <trkpt lat="45.14535" lon="-0.52907">
        <ele>45.8</ele>
        <time>2020-09-03T08:48:47Z</time>
      </trkpt>
      <trkpt lat="45.14536" lon="-0.5291">
        <ele>45.8</ele>
        <time>2020-09-03T08:48:48Z</time>
      </trkpt>
      <trkpt lat="45.14536" lon="-0.52912">
        <ele>45.8</ele>
        <time>2020-09-03T08:48:50Z</time>
      </trkpt>
      <trkpt lat="45.14536" lon="-0.52914">
        <ele>45.8</ele>
        <time>2020-09-03T08:48:51Z</time>
      </trkpt>
      <trkpt lat="45.14536" lon="-0.52917">
        <ele>45.8</ele>
        <time>2020-09-03T08:48:52Z</time>
      </trkpt>
      <trkpt lat="45.14537" lon="-0.52921">
        <ele>45.8</ele>
        <time>2020-09-03T08:48:54Z</time>
      </trkpt>
      <trkpt lat="45.14537" lon="-0.52922">
        <ele>45.8</ele>
        <time>2020-09-03T08:48:55Z</time>
      </trkpt>
      <trkpt lat="45.14537" lon="-0.52926">
        <ele>45.8</ele>
        <time>2020-09-03T08:48:57Z</time>
      </trkpt>
      <trkpt lat="45.14537" lon="-0.52928">
        <ele>45.8</ele>
        <time>2020-09-03T08:48:58Z</time>
      </trkpt>
      <trkpt lat="45.14537" lon="-0.52929">
        <ele>45.8</ele>
        <time>2020-09-03T08:49:00Z</time>
      </trkpt>
      <trkpt lat="45.14537" lon="-0.52932">
        <ele>45.8</ele>
        <time>2020-09-03T08:49:02Z</time>
      </trkpt>
      <trkpt lat="45.14537" lon="-0.52934">
        <ele>45.8</ele>
        <time>2020-09-03T08:49:03Z</time>
      </trkpt>
      <trkpt lat="45.14537" lon="-0.52937">
        <ele>45.9</ele>
        <time>2020-09-03T08:49:04Z</time>
      </trkpt>
      <trkpt lat="45.14537" lon="-0.52938">
        <ele>45.9</ele>
        <time>2020-09-03T08:49:05Z</time>
      </trkpt>
      <trkpt lat="45.14537" lon="-0.52941">
        <ele>45.9</ele>
        <time>2020-09-03T08:49:06Z</time>
      </trkpt>
      <trkpt lat="45.14537" lon="-0.52942">
        <ele>45.9</ele>
        <time>2020-09-03T08:49:07Z</time>
      </trkpt>
      <trkpt lat="45.14537" lon="-0.52945">
        <ele>45.9</ele>
        <time>2020-09-03T08:49:08Z</time>
      </trkpt>
      <trkpt lat="45.14537" lon="-0.52948">
        <ele>45.9</ele>
        <time>2020-09-03T08:49:10Z</time>
      </trkpt>
      <trkpt lat="45.14537" lon="-0.52949">
        <ele>45.9</ele>
        <time>2020-09-03T08:49:11Z</time>
      </trkpt>
      <trkpt lat="45.14537" lon="-0.52951">
        <ele>45.9</ele>
        <time>2020-09-03T08:49:12Z</time>
      </trkpt>
      <trkpt lat="45.14538" lon="-0.52954">
        <ele>45.9</ele>
        <time>2020-09-03T08:49:13Z</time>
      </trkpt>
      <trkpt lat="45.14538" lon="-0.52956">
        <ele>45.9</ele>
        <time>2020-09-03T08:49:15Z</time>
      </trkpt>
      <trkpt lat="45.14538" lon="-0.5296">
        <ele>45.9</ele>
        <time>2020-09-03T08:49:16Z</time>
      </trkpt>
      <trkpt lat="45.14539" lon="-0.52962">
        <ele>45.9</ele>
        <time>2020-09-03T08:49:18Z</time>
      </trkpt>
      <trkpt lat="45.14539" lon="-0.52963">
        <ele>45.9</ele>
        <time>2020-09-03T08:49:19Z</time>
      </trkpt>
      <trkpt lat="45.14539" lon="-0.52967">
        <ele>46</ele>
        <time>2020-09-03T08:49:20Z</time>
      </trkpt>
      <trkpt lat="45.1454" lon="-0.52969">
        <ele>46</ele>
        <time>2020-09-03T08:49:22Z</time>
      </trkpt>
      <trkpt lat="45.1454" lon="-0.52971">
        <ele>46</ele>
        <time>2020-09-03T08:49:24Z</time>
      </trkpt>
      <trkpt lat="45.1454" lon="-0.52973">
        <ele>46</ele>
        <time>2020-09-03T08:49:25Z</time>
      </trkpt>
      <trkpt lat="45.1454" lon="-0.52975">
        <ele>46</ele>
        <time>2020-09-03T08:49:26Z</time>
      </trkpt>
      <trkpt lat="45.14541" lon="-0.52977">
        <ele>46</ele>
        <time>2020-09-03T08:49:27Z</time>
      </trkpt>
      <trkpt lat="45.14541" lon="-0.5298">
        <ele>46</ele>
        <time>2020-09-03T08:49:28Z</time>
      </trkpt>
      <trkpt lat="45.14541" lon="-0.52982">
        <ele>46</ele>
        <time>2020-09-03T08:49:29Z</time>
      </trkpt>
      <trkpt lat="45.14541" lon="-0.52983">
        <ele>46</ele>
        <time>2020-09-03T08:49:30Z</time>
      </trkpt>
      <trkpt lat="45.14541" lon="-0.52985">
        <ele>46</ele>
        <time>2020-09-03T08:49:31Z</time>
      </trkpt>
      <trkpt lat="45.14541" lon="-0.52987">
        <ele>46</ele>
        <time>2020-09-03T08:49:33Z</time>
      </trkpt>
      <trkpt lat="45.14542" lon="-0.52991">
        <ele>46</ele>
        <time>2020-09-03T08:49:34Z</time>
      </trkpt>
      <trkpt lat="45.14542" lon="-0.52992">
        <ele>46</ele>
        <time>2020-09-03T08:49:35Z</time>
      </trkpt>
      <trkpt lat="45.14542" lon="-0.52996">
        <ele>46</ele>
        <time>2020-09-03T08:49:36Z</time>
      </trkpt>
      <trkpt lat="45.14543" lon="-0.52998">
        <ele>46</ele>
        <time>2020-09-03T08:49:38Z</time>
      </trkpt>
      <trkpt lat="45.14543" lon="-0.53">
        <ele>46</ele>
        <time>2020-09-03T08:49:39Z</time>
      </trkpt>
      <trkpt lat="45.14543" lon="-0.53001">
        <ele>46</ele>
        <time>2020-09-03T08:49:41Z</time>
      </trkpt>
      <trkpt lat="45.14544" lon="-0.53003">
        <ele>46</ele>
        <time>2020-09-03T08:49:42Z</time>
      </trkpt>
      <trkpt lat="45.14544" lon="-0.53006">
        <ele>46</ele>
        <time>2020-09-03T08:49:44Z</time>
      </trkpt>
      <trkpt lat="45.14545" lon="-0.53009">
        <ele>46</ele>
        <time>2020-09-03T08:49:45Z</time>
      </trkpt>
      <trkpt lat="45.14545" lon="-0.53011">
        <ele>46</ele>
        <time>2020-09-03T08:49:47Z</time>
      </trkpt>
      <trkpt lat="45.14545" lon="-0.53013">
        <ele>46</ele>
        <time>2020-09-03T08:49:48Z</time>
      </trkpt>
      <trkpt lat="45.14545" lon="-0.53016">
        <ele>46</ele>
        <time>2020-09-03T08:49:49Z</time>
      </trkpt>
      <trkpt lat="45.14545" lon="-0.53018">
        <ele>46</ele>
        <time>2020-09-03T08:49:50Z</time>
      </trkpt>
      <trkpt lat="45.14545" lon="-0.5302">
        <ele>46</ele>
        <time>2020-09-03T08:49:51Z</time>
      </trkpt>
      <trkpt lat="45.14545" lon="-0.53023">
        <ele>46</ele>
        <time>2020-09-03T08:49:53Z</time>
      </trkpt>
      <trkpt lat="45.14545" lon="-0.53025">
        <ele>46</ele>
        <time>2020-09-03T08:49:54Z</time>
      </trkpt>
      <trkpt lat="45.14545" lon="-0.53026">
        <ele>46</ele>
        <time>2020-09-03T08:49:55Z</time>
      </trkpt>
      <trkpt lat="45.14545" lon="-0.53028">
        <ele>46</ele>
        <time>2020-09-03T08:49:56Z</time>
      </trkpt>
      <trkpt lat="45.14545" lon="-0.5303">
        <ele>46</ele>
        <time>2020-09-03T08:49:57Z</time>
      </trkpt>
      <trkpt lat="45.14546" lon="-0.53034">
        <ele>46</ele>
        <time>2020-09-03T08:49:58Z</time>
      </trkpt>
      <trkpt lat="45.14546" lon="-0.53037">
        <ele>46</ele>
        <time>2020-09-03T08:49:59Z</time>
      </trkpt>
      <trkpt lat="45.14546" lon="-0.53038">
        <ele>46</ele>
        <time>2020-09-03T08:50:01Z</time>
      </trkpt>
      <trkpt lat="45.14546" lon="-0.53039">
        <ele>46</ele>
        <time>2020-09-03T08:50:02Z</time>
      </trkpt>
      <trkpt lat="45.14546" lon="-0.53044">
        <ele>46</ele>
        <time>2020-09-03T08:50:03Z</time>
      </trkpt>
      <trkpt lat="45.14546" lon="-0.53045">
        <ele>46</ele>
        <time>2020-09-03T08:50:04Z</time>
      </trkpt>
      <trkpt lat="45.14546" lon="-0.53048">
        <ele>46</ele>
        <time>2020-09-03T08:50:06Z</time>
      </trkpt>
      <trkpt lat="45.14546" lon="-0.5305">
        <ele>46</ele>
        <time>2020-09-03T08:50:07Z</time>
      </trkpt>
      <trkpt lat="45.14546" lon="-0.53052">
        <ele>46</ele>
        <time>2020-09-03T08:50:08Z</time>
      </trkpt>
      <trkpt lat="45.14546" lon="-0.53055">
        <ele>46</ele>
        <time>2020-09-03T08:50:09Z</time>
      </trkpt>
      <trkpt lat="45.14546" lon="-0.53056">
        <ele>46</ele>
        <time>2020-09-03T08:50:10Z</time>
      </trkpt>
      <trkpt lat="45.14547" lon="-0.53059">
        <ele>46</ele>
        <time>2020-09-03T08:50:11Z</time>
      </trkpt>
      <trkpt lat="45.14547" lon="-0.5306">
        <ele>46</ele>
        <time>2020-09-03T08:50:12Z</time>
      </trkpt>
      <trkpt lat="45.14547" lon="-0.53063">
        <ele>46</ele>
        <time>2020-09-03T08:50:14Z</time>
      </trkpt>
      <trkpt lat="45.14547" lon="-0.53066">
        <ele>46.1</ele>
        <time>2020-09-03T08:50:15Z</time>
      </trkpt>
      <trkpt lat="45.14547" lon="-0.53067">
        <ele>46.1</ele>
        <time>2020-09-03T08:50:16Z</time>
      </trkpt>
      <trkpt lat="45.14548" lon="-0.53068">
        <ele>46.1</ele>
        <time>2020-09-03T08:50:17Z</time>
      </trkpt>
      <trkpt lat="45.14548" lon="-0.53071">
        <ele>46.1</ele>
        <time>2020-09-03T08:50:18Z</time>
      </trkpt>
      <trkpt lat="45.14548" lon="-0.53072">
        <ele>46.1</ele>
        <time>2020-09-03T08:50:19Z</time>
      </trkpt>
      <trkpt lat="45.14548" lon="-0.53073">
        <ele>46.1</ele>
        <time>2020-09-03T08:50:20Z</time>
      </trkpt>
      <trkpt lat="45.14548" lon="-0.53075">
        <ele>46</ele>
        <time>2020-09-03T08:50:22Z</time>
      </trkpt>
      <trkpt lat="45.14548" lon="-0.53077">
        <ele>46</ele>
        <time>2020-09-03T08:50:23Z</time>
      </trkpt>
      <trkpt lat="45.14547" lon="-0.5308">
        <ele>46</ele>
        <time>2020-09-03T08:50:25Z</time>
      </trkpt>
      <trkpt lat="45.14546" lon="-0.5308">
        <ele>46</ele>
        <time>2020-09-03T08:50:26Z</time>
      </trkpt>
      <trkpt lat="45.14543" lon="-0.5308">
        <ele>46.1</ele>
        <time>2020-09-03T08:50:27Z</time>
      </trkpt>
      <trkpt lat="45.1454" lon="-0.5308">
        <ele>46.1</ele>
        <time>2020-09-03T08:50:29Z</time>
      </trkpt>
      <trkpt lat="45.14539" lon="-0.5308">
        <ele>46.2</ele>
        <time>2020-09-03T08:50:30Z</time>
      </trkpt>
      <trkpt lat="45.14537" lon="-0.53079">
        <ele>46.2</ele>
        <time>2020-09-03T08:50:32Z</time>
      </trkpt>
      <trkpt lat="45.14536" lon="-0.53078">
        <ele>46.2</ele>
        <time>2020-09-03T08:50:33Z</time>
      </trkpt>
      <trkpt lat="45.14534" lon="-0.53078">
        <ele>46.2</ele>
        <time>2020-09-03T08:50:34Z</time>
      </trkpt>
      <trkpt lat="45.14534" lon="-0.53078">
        <ele>46.2</ele>
        <time>2020-09-03T08:50:35Z</time>
      </trkpt>
      <trkpt lat="45.14533" lon="-0.53078">
        <ele>46.2</ele>
        <time>2020-09-03T08:50:37Z</time>
      </trkpt>
      <trkpt lat="45.14533" lon="-0.53079">
        <ele>46.2</ele>
        <time>2020-09-03T08:50:38Z</time>
      </trkpt>
      <trkpt lat="45.14533" lon="-0.53079">
        <ele>46.2</ele>
        <time>2020-09-03T08:50:39Z</time>
      </trkpt>
      <trkpt lat="45.14533" lon="-0.53078">
        <ele>46.2</ele>
        <time>2020-09-03T08:50:41Z</time>
      </trkpt>
      <trkpt lat="45.14534" lon="-0.53078">
        <ele>46.2</ele>
        <time>2020-09-03T08:50:43Z</time>
      </trkpt>
      <trkpt lat="45.14534" lon="-0.53078">
        <ele>46.2</ele>
        <time>2020-09-03T08:50:44Z</time>
      </trkpt>
      <trkpt lat="45.14534" lon="-0.53078">
        <ele>46.2</ele>
        <time>2020-09-03T08:50:46Z</time>
      </trkpt>
      <trkpt lat="45.14534" lon="-0.53078">
        <ele>46.2</ele>
        <time>2020-09-03T08:50:47Z</time>
      </trkpt>
      <trkpt lat="45.14534" lon="-0.53078">
        <ele>46.2</ele>
        <time>2020-09-03T08:50:48Z</time>
      </trkpt>
      <trkpt lat="45.14533" lon="-0.53078">
        <ele>46.2</ele>
        <time>2020-09-03T08:50:49Z</time>
      </trkpt>
      <trkpt lat="45.14532" lon="-0.53077">
        <ele>46.2</ele>
        <time>2020-09-03T08:50:50Z</time>
      </trkpt>
      <trkpt lat="45.1453" lon="-0.53077">
        <ele>46.3</ele>
        <time>2020-09-03T08:50:52Z</time>
      </trkpt>
      <trkpt lat="45.14528" lon="-0.53077">
        <ele>46.3</ele>
        <time>2020-09-03T08:50:53Z</time>
      </trkpt>
      <trkpt lat="45.14526" lon="-0.53077">
        <ele>46.3</ele>
        <time>2020-09-03T08:50:55Z</time>
      </trkpt>
      <trkpt lat="45.14523" lon="-0.53077">
        <ele>46.4</ele>
        <time>2020-09-03T08:50:56Z</time>
      </trkpt>
      <trkpt lat="45.14522" lon="-0.53077">
        <ele>46.4</ele>
        <time>2020-09-03T08:50:57Z</time>
      </trkpt>
      <trkpt lat="45.14521" lon="-0.53076">
        <ele>46.4</ele>
        <time>2020-09-03T08:50:58Z</time>
      </trkpt>
      <trkpt lat="45.1452" lon="-0.53076">
        <ele>46.4</ele>
        <time>2020-09-03T08:50:59Z</time>
      </trkpt>
      <trkpt lat="45.14519" lon="-0.53076">
        <ele>46.4</ele>
        <time>2020-09-03T08:51:01Z</time>
      </trkpt>
      <trkpt lat="45.14517" lon="-0.53076">
        <ele>46.6</ele>
        <time>2020-09-03T08:51:02Z</time>
      </trkpt>
      <trkpt lat="45.14515" lon="-0.53077">
        <ele>46.6</ele>
        <time>2020-09-03T08:51:03Z</time>
      </trkpt>
      <trkpt lat="45.14514" lon="-0.53077">
        <ele>46.6</ele>
        <time>2020-09-03T08:51:05Z</time>
      </trkpt>
      <trkpt lat="45.14513" lon="-0.53077">
        <ele>46.6</ele>
        <time>2020-09-03T08:51:06Z</time>
      </trkpt>
      <trkpt lat="45.14512" lon="-0.53078">
        <ele>46.7</ele>
        <time>2020-09-03T08:51:07Z</time>
      </trkpt>
      <trkpt lat="45.14511" lon="-0.53078">
        <ele>46.7</ele>
        <time>2020-09-03T08:51:08Z</time>
      </trkpt>
      <trkpt lat="45.14508" lon="-0.53078">
        <ele>46.7</ele>
        <time>2020-09-03T08:51:09Z</time>
      </trkpt>
      <trkpt lat="45.14507" lon="-0.53078">
        <ele>46.7</ele>
        <time>2020-09-03T08:51:10Z</time>
      </trkpt>
      <trkpt lat="45.14504" lon="-0.53079">
        <ele>46.8</ele>
        <time>2020-09-03T08:51:12Z</time>
      </trkpt>
      <trkpt lat="45.14503" lon="-0.53079">
        <ele>46.8</ele>
        <time>2020-09-03T08:51:13Z</time>
      </trkpt>
      <trkpt lat="45.14502" lon="-0.53079">
        <ele>46.8</ele>
        <time>2020-09-03T08:51:14Z</time>
      </trkpt>
      <trkpt lat="45.14501" lon="-0.5308">
        <ele>46.8</ele>
        <time>2020-09-03T08:51:15Z</time>
      </trkpt>
      <trkpt lat="45.145" lon="-0.5308">
        <ele>46.9</ele>
        <time>2020-09-03T08:51:16Z</time>
      </trkpt>
      <trkpt lat="45.14498" lon="-0.5308">
        <ele>46.9</ele>
        <time>2020-09-03T08:51:17Z</time>
      </trkpt>
      <trkpt lat="45.14497" lon="-0.53081">
        <ele>46.9</ele>
        <time>2020-09-03T08:51:18Z</time>
      </trkpt>
      <trkpt lat="45.14496" lon="-0.53081">
        <ele>46.9</ele>
        <time>2020-09-03T08:51:19Z</time>
      </trkpt>
      <trkpt lat="45.14495" lon="-0.53081">
        <ele>46.9</ele>
        <time>2020-09-03T08:51:21Z</time>
      </trkpt>
      <trkpt lat="45.14494" lon="-0.53081">
        <ele>47</ele>
        <time>2020-09-03T08:51:22Z</time>
      </trkpt>
      <trkpt lat="45.14491" lon="-0.53081">
        <ele>47</ele>
        <time>2020-09-03T08:51:24Z</time>
      </trkpt>
      <trkpt lat="45.14489" lon="-0.53081">
        <ele>47</ele>
        <time>2020-09-03T08:51:25Z</time>
      </trkpt>
      <trkpt lat="45.14488" lon="-0.53081">
        <ele>47</ele>
        <time>2020-09-03T08:51:26Z</time>
      </trkpt>
      <trkpt lat="45.14487" lon="-0.53081">
        <ele>47.1</ele>
        <time>2020-09-03T08:51:27Z</time>
      </trkpt>
      <trkpt lat="45.14484" lon="-0.53081">
        <ele>47.1</ele>
        <time>2020-09-03T08:51:29Z</time>
      </trkpt>
      <trkpt lat="45.14483" lon="-0.53081">
        <ele>47.1</ele>
        <time>2020-09-03T08:51:30Z</time>
      </trkpt>
      <trkpt lat="45.14481" lon="-0.53081">
        <ele>47.1</ele>
        <time>2020-09-03T08:51:31Z</time>
      </trkpt>
      <trkpt lat="45.1448" lon="-0.53081">
        <ele>47.2</ele>
        <time>2020-09-03T08:51:33Z</time>
      </trkpt>
      <trkpt lat="45.14478" lon="-0.53082">
        <ele>47.2</ele>
        <time>2020-09-03T08:51:34Z</time>
      </trkpt>
      <trkpt lat="45.14477" lon="-0.53082">
        <ele>47.2</ele>
        <time>2020-09-03T08:51:35Z</time>
      </trkpt>
      <trkpt lat="45.14475" lon="-0.53082">
        <ele>47.2</ele>
        <time>2020-09-03T08:51:36Z</time>
      </trkpt>
      <trkpt lat="45.14474" lon="-0.53083">
        <ele>47.2</ele>
        <time>2020-09-03T08:51:38Z</time>
      </trkpt>
      <trkpt lat="45.14472" lon="-0.53084">
        <ele>47.2</ele>
        <time>2020-09-03T08:51:39Z</time>
      </trkpt>
      <trkpt lat="45.14471" lon="-0.53085">
        <ele>47.2</ele>
        <time>2020-09-03T08:51:40Z</time>
      </trkpt>
      <trkpt lat="45.1447" lon="-0.53086">
        <ele>47.2</ele>
        <time>2020-09-03T08:51:41Z</time>
      </trkpt>
      <trkpt lat="45.14469" lon="-0.53087">
        <ele>47.2</ele>
        <time>2020-09-03T08:51:43Z</time>
      </trkpt>
      <trkpt lat="45.14467" lon="-0.53091">
        <ele>47.2</ele>
        <time>2020-09-03T08:51:45Z</time>
      </trkpt>
      <trkpt lat="45.14467" lon="-0.53093">
        <ele>47.2</ele>
        <time>2020-09-03T08:51:46Z</time>
      </trkpt>
      <trkpt lat="45.14468" lon="-0.53097">
        <ele>47.1</ele>
        <time>2020-09-03T08:51:48Z</time>
      </trkpt>
      <trkpt lat="45.14468" lon="-0.53101">
        <ele>47.2</ele>
        <time>2020-09-03T08:51:49Z</time>
      </trkpt>
      <trkpt lat="45.14468" lon="-0.53103">
        <ele>47.2</ele>
        <time>2020-09-03T08:51:50Z</time>
      </trkpt>
      <trkpt lat="45.14468" lon="-0.53105">
        <ele>47.1</ele>
        <time>2020-09-03T08:51:52Z</time>
      </trkpt>
      <trkpt lat="45.14468" lon="-0.53107">
        <ele>47.1</ele>
        <time>2020-09-03T08:51:53Z</time>
      </trkpt>
      <trkpt lat="45.14468" lon="-0.53109">
        <ele>47.1</ele>
        <time>2020-09-03T08:51:54Z</time>
      </trkpt>
      <trkpt lat="45.14469" lon="-0.53112">
        <ele>47.1</ele>
        <time>2020-09-03T08:51:55Z</time>
      </trkpt>
      <trkpt lat="45.14469" lon="-0.53114">
        <ele>47</ele>
        <time>2020-09-03T08:51:56Z</time>
      </trkpt>
      <trkpt lat="45.14469" lon="-0.53117">
        <ele>46.9</ele>
        <time>2020-09-03T08:51:58Z</time>
      </trkpt>
      <trkpt lat="45.1447" lon="-0.5312">
        <ele>46.9</ele>
        <time>2020-09-03T08:52:00Z</time>
      </trkpt>
      <trkpt lat="45.14469" lon="-0.53121">
        <ele>46.8</ele>
        <time>2020-09-03T08:52:01Z</time>
      </trkpt>
      <trkpt lat="45.1447" lon="-0.53124">
        <ele>46.8</ele>
        <time>2020-09-03T08:52:02Z</time>
      </trkpt>
      <trkpt lat="45.1447" lon="-0.53126">
        <ele>46.7</ele>
        <time>2020-09-03T08:52:04Z</time>
      </trkpt>
      <trkpt lat="45.1447" lon="-0.53129">
        <ele>46.6</ele>
        <time>2020-09-03T08:52:05Z</time>
      </trkpt>
      <trkpt lat="45.1447" lon="-0.53131">
        <ele>46.6</ele>
        <time>2020-09-03T08:52:07Z</time>
      </trkpt>
      <trkpt lat="45.1447" lon="-0.53133">
        <ele>46.6</ele>
        <time>2020-09-03T08:52:08Z</time>
      </trkpt>
      <trkpt lat="45.1447" lon="-0.53136">
        <ele>46.5</ele>
        <time>2020-09-03T08:52:10Z</time>
      </trkpt>
      <trkpt lat="45.1447" lon="-0.53137">
        <ele>46.5</ele>
        <time>2020-09-03T08:52:11Z</time>
      </trkpt>
      <trkpt lat="45.14471" lon="-0.53139">
        <ele>46.3</ele>
        <time>2020-09-03T08:52:12Z</time>
      </trkpt>
      <trkpt lat="45.14471" lon="-0.5314">
        <ele>46.3</ele>
        <time>2020-09-03T08:52:13Z</time>
      </trkpt>
      <trkpt lat="45.14471" lon="-0.53144">
        <ele>46.2</ele>
        <time>2020-09-03T08:52:14Z</time>
      </trkpt>
      <trkpt lat="45.14471" lon="-0.53146">
        <ele>46.2</ele>
        <time>2020-09-03T08:52:15Z</time>
      </trkpt>
      <trkpt lat="45.14471" lon="-0.53147">
        <ele>46.1</ele>
        <time>2020-09-03T08:52:16Z</time>
      </trkpt>
      <trkpt lat="45.14471" lon="-0.53149">
        <ele>46.1</ele>
        <time>2020-09-03T08:52:17Z</time>
      </trkpt>
      <trkpt lat="45.14471" lon="-0.5315">
        <ele>46.1</ele>
        <time>2020-09-03T08:52:19Z</time>
      </trkpt>
      <trkpt lat="45.14471" lon="-0.53152">
        <ele>45.9</ele>
        <time>2020-09-03T08:52:20Z</time>
      </trkpt>
      <trkpt lat="45.14472" lon="-0.53154">
        <ele>45.9</ele>
        <time>2020-09-03T08:52:21Z</time>
      </trkpt>
      <trkpt lat="45.14472" lon="-0.53155">
        <ele>45.7</ele>
        <time>2020-09-03T08:52:22Z</time>
      </trkpt>
      <trkpt lat="45.14473" lon="-0.53156">
        <ele>45.7</ele>
        <time>2020-09-03T08:52:23Z</time>
      </trkpt>
      <trkpt lat="45.14473" lon="-0.53159">
        <ele>45.6</ele>
        <time>2020-09-03T08:52:24Z</time>
      </trkpt>
      <trkpt lat="45.14474" lon="-0.53159">
        <ele>45.4</ele>
        <time>2020-09-03T08:52:26Z</time>
      </trkpt>
      <trkpt lat="45.14474" lon="-0.5316">
        <ele>45.4</ele>
        <time>2020-09-03T08:52:27Z</time>
      </trkpt>
      <trkpt lat="45.14474" lon="-0.53161">
        <ele>45.4</ele>
        <time>2020-09-03T08:52:28Z</time>
      </trkpt>
      <trkpt lat="45.14474" lon="-0.53163">
        <ele>45.4</ele>
        <time>2020-09-03T08:52:30Z</time>
      </trkpt>
      <trkpt lat="45.14474" lon="-0.53164">
        <ele>45.2</ele>
        <time>2020-09-03T08:52:31Z</time>
      </trkpt>
      <trkpt lat="45.14474" lon="-0.53166">
        <ele>45.2</ele>
        <time>2020-09-03T08:52:32Z</time>
      </trkpt>
      <trkpt lat="45.14474" lon="-0.53168">
        <ele>45.2</ele>
        <time>2020-09-03T08:52:33Z</time>
      </trkpt>
      <trkpt lat="45.14474" lon="-0.53171">
        <ele>45</ele>
        <time>2020-09-03T08:52:34Z</time>
      </trkpt>
      <trkpt lat="45.14474" lon="-0.53173">
        <ele>44.7</ele>
        <time>2020-09-03T08:52:35Z</time>
      </trkpt>
      <trkpt lat="45.14474" lon="-0.53174">
        <ele>44.7</ele>
        <time>2020-09-03T08:52:36Z</time>
      </trkpt>
      <trkpt lat="45.14474" lon="-0.53176">
        <ele>44.8</ele>
        <time>2020-09-03T08:52:37Z</time>
      </trkpt>
      <trkpt lat="45.14474" lon="-0.53177">
        <ele>44.6</ele>
        <time>2020-09-03T08:52:39Z</time>
      </trkpt>
      <trkpt lat="45.14474" lon="-0.5318">
        <ele>44.6</ele>
        <time>2020-09-03T08:52:40Z</time>
      </trkpt>
      <trkpt lat="45.14474" lon="-0.53182">
        <ele>44.4</ele>
        <time>2020-09-03T08:52:41Z</time>
      </trkpt>
      <trkpt lat="45.14474" lon="-0.53185">
        <ele>44.2</ele>
        <time>2020-09-03T08:52:42Z</time>
      </trkpt>
      <trkpt lat="45.14474" lon="-0.53186">
        <ele>44.2</ele>
        <time>2020-09-03T08:52:43Z</time>
      </trkpt>
      <trkpt lat="45.14474" lon="-0.53188">
        <ele>44.2</ele>
        <time>2020-09-03T08:52:44Z</time>
      </trkpt>
      <trkpt lat="45.14475" lon="-0.53189">
        <ele>44.2</ele>
        <time>2020-09-03T08:52:46Z</time>
      </trkpt>
      <trkpt lat="45.14475" lon="-0.5319">
        <ele>44</ele>
        <time>2020-09-03T08:52:47Z</time>
      </trkpt>
      <trkpt lat="45.14474" lon="-0.53192">
        <ele>44</ele>
        <time>2020-09-03T08:52:49Z</time>
      </trkpt>
      <trkpt lat="45.14474" lon="-0.53195">
        <ele>43.7</ele>
        <time>2020-09-03T08:52:50Z</time>
      </trkpt>
      <trkpt lat="45.14474" lon="-0.53196">
        <ele>43.7</ele>
        <time>2020-09-03T08:52:51Z</time>
      </trkpt>
      <trkpt lat="45.14473" lon="-0.53197">
        <ele>43.7</ele>
        <time>2020-09-03T08:52:52Z</time>
      </trkpt>
      <trkpt lat="45.14474" lon="-0.532">
        <ele>43.5</ele>
        <time>2020-09-03T08:52:53Z</time>
      </trkpt>
      <trkpt lat="45.14475" lon="-0.53203">
        <ele>43.3</ele>
        <time>2020-09-03T08:52:55Z</time>
      </trkpt>
      <trkpt lat="45.14475" lon="-0.53204">
        <ele>43.3</ele>
        <time>2020-09-03T08:52:57Z</time>
      </trkpt>
      <trkpt lat="45.14475" lon="-0.53206">
        <ele>43.3</ele>
        <time>2020-09-03T08:52:58Z</time>
      </trkpt>
      <trkpt lat="45.14475" lon="-0.53208">
        <ele>43.2</ele>
        <time>2020-09-03T08:53:00Z</time>
      </trkpt>
      <trkpt lat="45.14475" lon="-0.5321">
        <ele>43.2</ele>
        <time>2020-09-03T08:53:01Z</time>
      </trkpt>
      <trkpt lat="45.14475" lon="-0.53212">
        <ele>43</ele>
        <time>2020-09-03T08:53:02Z</time>
      </trkpt>
      <trkpt lat="45.14475" lon="-0.53215">
        <ele>43</ele>
        <time>2020-09-03T08:53:04Z</time>
      </trkpt>
      <trkpt lat="45.14475" lon="-0.53216">
        <ele>42.9</ele>
        <time>2020-09-03T08:53:05Z</time>
      </trkpt>
      <trkpt lat="45.14475" lon="-0.53217">
        <ele>42.9</ele>
        <time>2020-09-03T08:53:06Z</time>
      </trkpt>
      <trkpt lat="45.14475" lon="-0.53221">
        <ele>42.7</ele>
        <time>2020-09-03T08:53:08Z</time>
      </trkpt>
      <trkpt lat="45.14475" lon="-0.53222">
        <ele>42.7</ele>
        <time>2020-09-03T08:53:09Z</time>
      </trkpt>
      <trkpt lat="45.14475" lon="-0.53223">
        <ele>42.7</ele>
        <time>2020-09-03T08:53:10Z</time>
      </trkpt>
      <trkpt lat="45.14475" lon="-0.53224">
        <ele>42.6</ele>
        <time>2020-09-03T08:53:11Z</time>
      </trkpt>
      <trkpt lat="45.14476" lon="-0.53226">
        <ele>42.7</ele>
        <time>2020-09-03T08:53:12Z</time>
      </trkpt>
      <trkpt lat="45.14476" lon="-0.53227">
        <ele>42.7</ele>
        <time>2020-09-03T08:53:13Z</time>
      </trkpt>
      <trkpt lat="45.14477" lon="-0.53229">
        <ele>42.6</ele>
        <time>2020-09-03T08:53:14Z</time>
      </trkpt>
      <trkpt lat="45.14478" lon="-0.5323">
        <ele>42.6</ele>
        <time>2020-09-03T08:53:15Z</time>
      </trkpt>
      <trkpt lat="45.14479" lon="-0.53231">
        <ele>42.6</ele>
        <time>2020-09-03T08:53:17Z</time>
      </trkpt>
      <trkpt lat="45.14479" lon="-0.53232">
        <ele>42.6</ele>
        <time>2020-09-03T08:53:18Z</time>
      </trkpt>
      <trkpt lat="45.14481" lon="-0.53235">
        <ele>42.6</ele>
        <time>2020-09-03T08:53:20Z</time>
      </trkpt>
      <trkpt lat="45.14482" lon="-0.53236">
        <ele>42.6</ele>
        <time>2020-09-03T08:53:21Z</time>
      </trkpt>
      <trkpt lat="45.14484" lon="-0.53237">
        <ele>42.6</ele>
        <time>2020-09-03T08:53:22Z</time>
      </trkpt>
      <trkpt lat="45.14485" lon="-0.53237">
        <ele>42.6</ele>
        <time>2020-09-03T08:53:24Z</time>
      </trkpt>
      <trkpt lat="45.14488" lon="-0.53236">
        <ele>42.6</ele>
        <time>2020-09-03T08:53:25Z</time>
      </trkpt>
      <trkpt lat="45.14489" lon="-0.53236">
        <ele>42.6</ele>
        <time>2020-09-03T08:53:26Z</time>
      </trkpt>
      <trkpt lat="45.1449" lon="-0.53236">
        <ele>42.6</ele>
        <time>2020-09-03T08:53:27Z</time>
      </trkpt>
      <trkpt lat="45.14492" lon="-0.53236">
        <ele>42.7</ele>
        <time>2020-09-03T08:53:28Z</time>
      </trkpt>
      <trkpt lat="45.14493" lon="-0.53236">
        <ele>42.7</ele>
        <time>2020-09-03T08:53:30Z</time>
      </trkpt>
      <trkpt lat="45.14494" lon="-0.53236">
        <ele>42.7</ele>
        <time>2020-09-03T08:53:31Z</time>
      </trkpt>
      <trkpt lat="45.14495" lon="-0.53235">
        <ele>42.7</ele>
        <time>2020-09-03T08:53:32Z</time>
      </trkpt>
      <trkpt lat="45.14496" lon="-0.53235">
        <ele>42.7</ele>
        <time>2020-09-03T08:53:33Z</time>
      </trkpt>
      <trkpt lat="45.14498" lon="-0.53234">
        <ele>42.8</ele>
        <time>2020-09-03T08:53:35Z</time>
      </trkpt>
      <trkpt lat="45.14499" lon="-0.53234">
        <ele>42.8</ele>
        <time>2020-09-03T08:53:36Z</time>
      </trkpt>
      <trkpt lat="45.14501" lon="-0.53233">
        <ele>42.8</ele>
        <time>2020-09-03T08:53:37Z</time>
      </trkpt>
      <trkpt lat="45.14504" lon="-0.53233">
        <ele>42.8</ele>
        <time>2020-09-03T08:53:38Z</time>
      </trkpt>
      <trkpt lat="45.14505" lon="-0.53233">
        <ele>42.8</ele>
        <time>2020-09-03T08:53:39Z</time>
      </trkpt>
      <trkpt lat="45.14508" lon="-0.53233">
        <ele>42.9</ele>
        <time>2020-09-03T08:53:41Z</time>
      </trkpt>
      <trkpt lat="45.14509" lon="-0.53233">
        <ele>42.9</ele>
        <time>2020-09-03T08:53:42Z</time>
      </trkpt>
      <trkpt lat="45.1451" lon="-0.53233">
        <ele>43</ele>
        <time>2020-09-03T08:53:43Z</time>
      </trkpt>
      <trkpt lat="45.14512" lon="-0.53233">
        <ele>43</ele>
        <time>2020-09-03T08:53:44Z</time>
      </trkpt>
      <trkpt lat="45.14513" lon="-0.53233">
        <ele>43.1</ele>
        <time>2020-09-03T08:53:46Z</time>
      </trkpt>
      <trkpt lat="45.14513" lon="-0.53233">
        <ele>43.1</ele>
        <time>2020-09-03T08:53:47Z</time>
      </trkpt>
      <trkpt lat="45.14515" lon="-0.53233">
        <ele>43.1</ele>
        <time>2020-09-03T08:53:48Z</time>
      </trkpt>
      <trkpt lat="45.14517" lon="-0.53233">
        <ele>43.1</ele>
        <time>2020-09-03T08:53:50Z</time>
      </trkpt>
      <trkpt lat="45.14518" lon="-0.53232">
        <ele>43.1</ele>
        <time>2020-09-03T08:53:51Z</time>
      </trkpt>
      <trkpt lat="45.14519" lon="-0.53232">
        <ele>43.2</ele>
        <time>2020-09-03T08:53:52Z</time>
      </trkpt>
      <trkpt lat="45.1452" lon="-0.53232">
        <ele>43.3</ele>
        <time>2020-09-03T08:53:53Z</time>
      </trkpt>
      <trkpt lat="45.14522" lon="-0.53232">
        <ele>43.3</ele>
        <time>2020-09-03T08:53:54Z</time>
      </trkpt>
      <trkpt lat="45.14523" lon="-0.53232">
        <ele>43.3</ele>
        <time>2020-09-03T08:53:56Z</time>
      </trkpt>
      <trkpt lat="45.14524" lon="-0.53231">
        <ele>43.3</ele>
        <time>2020-09-03T08:53:57Z</time>
      </trkpt>
      <trkpt lat="45.14525" lon="-0.53231">
        <ele>43.4</ele>
        <time>2020-09-03T08:53:58Z</time>
      </trkpt>
      <trkpt lat="45.14527" lon="-0.53231">
        <ele>43.5</ele>
        <time>2020-09-03T08:53:59Z</time>
      </trkpt>
      <trkpt lat="45.1453" lon="-0.5323">
        <ele>43.5</ele>
        <time>2020-09-03T08:54:01Z</time>
      </trkpt>
      <trkpt lat="45.14531" lon="-0.5323">
        <ele>43.5</ele>
        <time>2020-09-03T08:54:02Z</time>
      </trkpt>
      <trkpt lat="45.14533" lon="-0.5323">
        <ele>43.5</ele>
        <time>2020-09-03T08:54:03Z</time>
      </trkpt>
      <trkpt lat="45.14534" lon="-0.5323">
        <ele>43.6</ele>
        <time>2020-09-03T08:54:04Z</time>
      </trkpt>
      <trkpt lat="45.14536" lon="-0.5323">
        <ele>43.6</ele>
        <time>2020-09-03T08:54:05Z</time>
      </trkpt>
      <trkpt lat="45.14537" lon="-0.5323">
        <ele>43.6</ele>
        <time>2020-09-03T08:54:07Z</time>
      </trkpt>
      <trkpt lat="45.1454" lon="-0.53229">
        <ele>43.6</ele>
        <time>2020-09-03T08:54:08Z</time>
      </trkpt>
      <trkpt lat="45.14541" lon="-0.53229">
        <ele>43.7</ele>
        <time>2020-09-03T08:54:09Z</time>
      </trkpt>
      <trkpt lat="45.14542" lon="-0.53229">
        <ele>43.7</ele>
        <time>2020-09-03T08:54:10Z</time>
      </trkpt>
      <trkpt lat="45.14543" lon="-0.53229">
        <ele>43.7</ele>
        <time>2020-09-03T08:54:11Z</time>
      </trkpt>
      <trkpt lat="45.14545" lon="-0.53229">
        <ele>43.7</ele>
        <time>2020-09-03T08:54:12Z</time>
      </trkpt>
      <trkpt lat="45.14547" lon="-0.53229">
        <ele>43.7</ele>
        <time>2020-09-03T08:54:13Z</time>
      </trkpt>
      <trkpt lat="45.14548" lon="-0.53229">
        <ele>43.7</ele>
        <time>2020-09-03T08:54:14Z</time>
      </trkpt>
      <trkpt lat="45.14549" lon="-0.53229">
        <ele>43.6</ele>
        <time>2020-09-03T08:54:15Z</time>
      </trkpt>
      <trkpt lat="45.14551" lon="-0.53229">
        <ele>43.6</ele>
        <time>2020-09-03T08:54:17Z</time>
      </trkpt>
      <trkpt lat="45.14552" lon="-0.53228">
        <ele>43.6</ele>
        <time>2020-09-03T08:54:18Z</time>
      </trkpt>
      <trkpt lat="45.14553" lon="-0.53228">
        <ele>43.6</ele>
        <time>2020-09-03T08:54:19Z</time>
      </trkpt>
      <trkpt lat="45.14554" lon="-0.53228">
        <ele>43.6</ele>
        <time>2020-09-03T08:54:20Z</time>
      </trkpt>
      <trkpt lat="45.14555" lon="-0.53228">
        <ele>43.5</ele>
        <time>2020-09-03T08:54:21Z</time>
      </trkpt>
      <trkpt lat="45.14556" lon="-0.53228">
        <ele>43.5</ele>
        <time>2020-09-03T08:54:22Z</time>
      </trkpt>
      <trkpt lat="45.14557" lon="-0.53228">
        <ele>43.6</ele>
        <time>2020-09-03T08:54:23Z</time>
      </trkpt>
      <trkpt lat="45.14558" lon="-0.53228">
        <ele>43.5</ele>
        <time>2020-09-03T08:54:24Z</time>
      </trkpt>
      <trkpt lat="45.14559" lon="-0.53228">
        <ele>43.5</ele>
        <time>2020-09-03T08:54:25Z</time>
      </trkpt>
      <trkpt lat="45.1456" lon="-0.53228">
        <ele>43.5</ele>
        <time>2020-09-03T08:54:27Z</time>
      </trkpt>
      <trkpt lat="45.14561" lon="-0.53227">
        <ele>43.4</ele>
        <time>2020-09-03T08:54:28Z</time>
      </trkpt>
      <trkpt lat="45.14563" lon="-0.53227">
        <ele>43.4</ele>
        <time>2020-09-03T08:54:29Z</time>
      </trkpt>
      <trkpt lat="45.14564" lon="-0.53227">
        <ele>43.3</ele>
        <time>2020-09-03T08:54:30Z</time>
      </trkpt>
      <trkpt lat="45.14566" lon="-0.53227">
        <ele>43.3</ele>
        <time>2020-09-03T08:54:32Z</time>
      </trkpt>
      <trkpt lat="45.14568" lon="-0.53227">
        <ele>43.2</ele>
        <time>2020-09-03T08:54:33Z</time>
      </trkpt>
      <trkpt lat="45.14569" lon="-0.53226">
        <ele>43.2</ele>
        <time>2020-09-03T08:54:34Z</time>
      </trkpt>
      <trkpt lat="45.1457" lon="-0.53226">
        <ele>43.1</ele>
        <time>2020-09-03T08:54:35Z</time>
      </trkpt>
      <trkpt lat="45.14572" lon="-0.53226">
        <ele>43.1</ele>
        <time>2020-09-03T08:54:36Z</time>
      </trkpt>
      <trkpt lat="45.14575" lon="-0.53226">
        <ele>42.9</ele>
        <time>2020-09-03T08:54:38Z</time>
      </trkpt>
      <trkpt lat="45.14576" lon="-0.53226">
        <ele>42.8</ele>
        <time>2020-09-03T08:54:39Z</time>
      </trkpt>
      <trkpt lat="45.14578" lon="-0.53226">
        <ele>42.8</ele>
        <time>2020-09-03T08:54:41Z</time>
      </trkpt>
      <trkpt lat="45.14579" lon="-0.53226">
        <ele>42.6</ele>
        <time>2020-09-03T08:54:42Z</time>
      </trkpt>
      <trkpt lat="45.14582" lon="-0.53226">
        <ele>42.5</ele>
        <time>2020-09-03T08:54:44Z</time>
      </trkpt>
      <trkpt lat="45.14584" lon="-0.53226">
        <ele>42.5</ele>
        <time>2020-09-03T08:54:45Z</time>
      </trkpt>
      <trkpt lat="45.14585" lon="-0.53226">
        <ele>42.3</ele>
        <time>2020-09-03T08:54:46Z</time>
      </trkpt>
      <trkpt lat="45.14586" lon="-0.53226">
        <ele>42.3</ele>
        <time>2020-09-03T08:54:47Z</time>
      </trkpt>
      <trkpt lat="45.14588" lon="-0.53226">
        <ele>42.2</ele>
        <time>2020-09-03T08:54:48Z</time>
      </trkpt>
      <trkpt lat="45.1459" lon="-0.53226">
        <ele>42.2</ele>
        <time>2020-09-03T08:54:50Z</time>
      </trkpt>
      <trkpt lat="45.14592" lon="-0.53226">
        <ele>42</ele>
        <time>2020-09-03T08:54:52Z</time>
      </trkpt>
      <trkpt lat="45.14593" lon="-0.53225">
        <ele>42</ele>
        <time>2020-09-03T08:54:53Z</time>
      </trkpt>
      <trkpt lat="45.14594" lon="-0.53225">
        <ele>41.9</ele>
        <time>2020-09-03T08:54:54Z</time>
      </trkpt>
      <trkpt lat="45.14595" lon="-0.53224">
        <ele>41.9</ele>
        <time>2020-09-03T08:54:55Z</time>
      </trkpt>
      <trkpt lat="45.14596" lon="-0.53224">
        <ele>41.9</ele>
        <time>2020-09-03T08:54:56Z</time>
      </trkpt>
      <trkpt lat="45.14598" lon="-0.53224">
        <ele>41.8</ele>
        <time>2020-09-03T08:54:58Z</time>
      </trkpt>
      <trkpt lat="45.14599" lon="-0.53223">
        <ele>41.8</ele>
        <time>2020-09-03T08:54:59Z</time>
      </trkpt>
      <trkpt lat="45.14601" lon="-0.53223">
        <ele>41.7</ele>
        <time>2020-09-03T08:55:00Z</time>
      </trkpt>
      <trkpt lat="45.14603" lon="-0.53222">
        <ele>41.6</ele>
        <time>2020-09-03T08:55:01Z</time>
      </trkpt>
      <trkpt lat="45.14604" lon="-0.53222">
        <ele>41.6</ele>
        <time>2020-09-03T08:55:03Z</time>
      </trkpt>
      <trkpt lat="45.14605" lon="-0.53222">
        <ele>41.6</ele>
        <time>2020-09-03T08:55:04Z</time>
      </trkpt>
      <trkpt lat="45.14607" lon="-0.53222">
        <ele>41.6</ele>
        <time>2020-09-03T08:55:05Z</time>
      </trkpt>
      <trkpt lat="45.14608" lon="-0.53221">
        <ele>41.6</ele>
        <time>2020-09-03T08:55:07Z</time>
      </trkpt>
      <trkpt lat="45.14609" lon="-0.53221">
        <ele>41.6</ele>
        <time>2020-09-03T08:55:08Z</time>
      </trkpt>
      <trkpt lat="45.14611" lon="-0.53221">
        <ele>41.5</ele>
        <time>2020-09-03T08:55:09Z</time>
      </trkpt>
      <trkpt lat="45.14612" lon="-0.53221">
        <ele>41.4</ele>
        <time>2020-09-03T08:55:11Z</time>
      </trkpt>
      <trkpt lat="45.14614" lon="-0.53221">
        <ele>41.4</ele>
        <time>2020-09-03T08:55:12Z</time>
      </trkpt>
      <trkpt lat="45.14617" lon="-0.5322">
        <ele>41.4</ele>
        <time>2020-09-03T08:55:14Z</time>
      </trkpt>
      <trkpt lat="45.14618" lon="-0.5322">
        <ele>41.4</ele>
        <time>2020-09-03T08:55:15Z</time>
      </trkpt>
      <trkpt lat="45.1462" lon="-0.5322">
        <ele>41.4</ele>
        <time>2020-09-03T08:55:16Z</time>
      </trkpt>
      <trkpt lat="45.14623" lon="-0.53219">
        <ele>41.4</ele>
        <time>2020-09-03T08:55:18Z</time>
      </trkpt>
      <trkpt lat="45.14624" lon="-0.53219">
        <ele>41.5</ele>
        <time>2020-09-03T08:55:19Z</time>
      </trkpt>
      <trkpt lat="45.14625" lon="-0.53218">
        <ele>41.5</ele>
        <time>2020-09-03T08:55:20Z</time>
      </trkpt>
      <trkpt lat="45.14627" lon="-0.53218">
        <ele>41.5</ele>
        <time>2020-09-03T08:55:22Z</time>
      </trkpt>
      <trkpt lat="45.14629" lon="-0.53218">
        <ele>41.5</ele>
        <time>2020-09-03T08:55:23Z</time>
      </trkpt>
      <trkpt lat="45.14632" lon="-0.53218">
        <ele>41.5</ele>
        <time>2020-09-03T08:55:25Z</time>
      </trkpt>
      <trkpt lat="45.14633" lon="-0.53218">
        <ele>41.5</ele>
        <time>2020-09-03T08:55:26Z</time>
      </trkpt>
      <trkpt lat="45.14634" lon="-0.53218">
        <ele>41.5</ele>
        <time>2020-09-03T08:55:27Z</time>
      </trkpt>
      <trkpt lat="45.14636" lon="-0.53218">
        <ele>41.5</ele>
        <time>2020-09-03T08:55:28Z</time>
      </trkpt>
      <trkpt lat="45.14638" lon="-0.53218">
        <ele>41.5</ele>
        <time>2020-09-03T08:55:29Z</time>
      </trkpt>
      <trkpt lat="45.1464" lon="-0.53218">
        <ele>41.5</ele>
        <time>2020-09-03T08:55:31Z</time>
      </trkpt>
      <trkpt lat="45.14641" lon="-0.53217">
        <ele>41.5</ele>
        <time>2020-09-03T08:55:32Z</time>
      </trkpt>
      <trkpt lat="45.14643" lon="-0.53217">
        <ele>41.6</ele>
        <time>2020-09-03T08:55:33Z</time>
      </trkpt>
      <trkpt lat="45.14645" lon="-0.53216">
        <ele>41.6</ele>
        <time>2020-09-03T08:55:35Z</time>
      </trkpt>
      <trkpt lat="45.14647" lon="-0.53216">
        <ele>41.6</ele>
        <time>2020-09-03T08:55:36Z</time>
      </trkpt>
      <trkpt lat="45.14648" lon="-0.53216">
        <ele>41.6</ele>
        <time>2020-09-03T08:55:37Z</time>
      </trkpt>
      <trkpt lat="45.14651" lon="-0.53215">
        <ele>41.6</ele>
        <time>2020-09-03T08:55:38Z</time>
      </trkpt>
      <trkpt lat="45.14652" lon="-0.53214">
        <ele>41.6</ele>
        <time>2020-09-03T08:55:39Z</time>
      </trkpt>
      <trkpt lat="45.14653" lon="-0.53214">
        <ele>41.6</ele>
        <time>2020-09-03T08:55:40Z</time>
      </trkpt>
      <trkpt lat="45.14654" lon="-0.53213">
        <ele>41.6</ele>
        <time>2020-09-03T08:55:41Z</time>
      </trkpt>
      <trkpt lat="45.14655" lon="-0.53213">
        <ele>41.6</ele>
        <time>2020-09-03T08:55:43Z</time>
      </trkpt>
      <trkpt lat="45.14657" lon="-0.53213">
        <ele>41.6</ele>
        <time>2020-09-03T08:55:44Z</time>
      </trkpt>
      <trkpt lat="45.14659" lon="-0.53213">
        <ele>41.6</ele>
        <time>2020-09-03T08:55:45Z</time>
      </trkpt>
      <trkpt lat="45.1466" lon="-0.53212">
        <ele>41.6</ele>
        <time>2020-09-03T08:55:46Z</time>
      </trkpt>
      <trkpt lat="45.1466" lon="-0.53212">
        <ele>41.6</ele>
        <time>2020-09-03T08:55:47Z</time>
      </trkpt>
      <trkpt lat="45.14661" lon="-0.53212">
        <ele>41.6</ele>
        <time>2020-09-03T08:55:48Z</time>
      </trkpt>
      <trkpt lat="45.14663" lon="-0.53212">
        <ele>41.6</ele>
        <time>2020-09-03T08:55:49Z</time>
      </trkpt>
      <trkpt lat="45.14664" lon="-0.53212">
        <ele>41.5</ele>
        <time>2020-09-03T08:55:50Z</time>
      </trkpt>
      <trkpt lat="45.14665" lon="-0.53211">
        <ele>41.5</ele>
        <time>2020-09-03T08:55:51Z</time>
      </trkpt>
      <trkpt lat="45.14666" lon="-0.53211">
        <ele>41.5</ele>
        <time>2020-09-03T08:55:52Z</time>
      </trkpt>
      <trkpt lat="45.14669" lon="-0.53211">
        <ele>41.5</ele>
        <time>2020-09-03T08:55:54Z</time>
      </trkpt>
      <trkpt lat="45.14671" lon="-0.53211">
        <ele>41.5</ele>
        <time>2020-09-03T08:55:56Z</time>
      </trkpt>
      <trkpt lat="45.14672" lon="-0.5321">
        <ele>41.5</ele>
        <time>2020-09-03T08:55:57Z</time>
      </trkpt>
      <trkpt lat="45.14673" lon="-0.5321">
        <ele>41.4</ele>
        <time>2020-09-03T08:55:58Z</time>
      </trkpt>
      <trkpt lat="45.14675" lon="-0.5321">
        <ele>41.4</ele>
        <time>2020-09-03T08:55:59Z</time>
      </trkpt>
      <trkpt lat="45.14676" lon="-0.5321">
        <ele>41.3</ele>
        <time>2020-09-03T08:56:00Z</time>
      </trkpt>
      <trkpt lat="45.14678" lon="-0.53209">
        <ele>41.3</ele>
        <time>2020-09-03T08:56:02Z</time>
      </trkpt>
      <trkpt lat="45.14679" lon="-0.53208">
        <ele>41.3</ele>
        <time>2020-09-03T08:56:03Z</time>
      </trkpt>
      <trkpt lat="45.14682" lon="-0.53208">
        <ele>41.3</ele>
        <time>2020-09-03T08:56:05Z</time>
      </trkpt>
      <trkpt lat="45.14683" lon="-0.53207">
        <ele>41.2</ele>
        <time>2020-09-03T08:56:06Z</time>
      </trkpt>
      <trkpt lat="45.14685" lon="-0.53207">
        <ele>41.2</ele>
        <time>2020-09-03T08:56:08Z</time>
      </trkpt>
      <trkpt lat="45.14686" lon="-0.53207">
        <ele>41.2</ele>
        <time>2020-09-03T08:56:09Z</time>
      </trkpt>
      <trkpt lat="45.14687" lon="-0.53207">
        <ele>41.2</ele>
        <time>2020-09-03T08:56:10Z</time>
      </trkpt>
      <trkpt lat="45.14688" lon="-0.53207">
        <ele>41.1</ele>
        <time>2020-09-03T08:56:12Z</time>
      </trkpt>
      <trkpt lat="45.14689" lon="-0.53207">
        <ele>41.1</ele>
        <time>2020-09-03T08:56:13Z</time>
      </trkpt>
      <trkpt lat="45.14692" lon="-0.53207">
        <ele>41.1</ele>
        <time>2020-09-03T08:56:14Z</time>
      </trkpt>
      <trkpt lat="45.14694" lon="-0.53206">
        <ele>41.1</ele>
        <time>2020-09-03T08:56:16Z</time>
      </trkpt>
      <trkpt lat="45.14695" lon="-0.53206">
        <ele>41.1</ele>
        <time>2020-09-03T08:56:17Z</time>
      </trkpt>
      <trkpt lat="45.14696" lon="-0.53206">
        <ele>41.1</ele>
        <time>2020-09-03T08:56:18Z</time>
      </trkpt>
      <trkpt lat="45.14699" lon="-0.53205">
        <ele>41.1</ele>
        <time>2020-09-03T08:56:20Z</time>
      </trkpt>
      <trkpt lat="45.147" lon="-0.53205">
        <ele>41.1</ele>
        <time>2020-09-03T08:56:21Z</time>
      </trkpt>
      <trkpt lat="45.14702" lon="-0.53204">
        <ele>41</ele>
        <time>2020-09-03T08:56:23Z</time>
      </trkpt>
      <trkpt lat="45.14704" lon="-0.53204">
        <ele>41</ele>
        <time>2020-09-03T08:56:24Z</time>
      </trkpt>
      <trkpt lat="45.14706" lon="-0.53203">
        <ele>41</ele>
        <time>2020-09-03T08:56:26Z</time>
      </trkpt>
      <trkpt lat="45.14707" lon="-0.53203">
        <ele>40.9</ele>
        <time>2020-09-03T08:56:27Z</time>
      </trkpt>
      <trkpt lat="45.14708" lon="-0.53202">
        <ele>40.9</ele>
        <time>2020-09-03T08:56:28Z</time>
      </trkpt>
      <trkpt lat="45.1471" lon="-0.53202">
        <ele>40.9</ele>
        <time>2020-09-03T08:56:29Z</time>
      </trkpt>
      <trkpt lat="45.14713" lon="-0.53203">
        <ele>40.8</ele>
        <time>2020-09-03T08:56:30Z</time>
      </trkpt>
      <trkpt lat="45.14714" lon="-0.53203">
        <ele>40.8</ele>
        <time>2020-09-03T08:56:32Z</time>
      </trkpt>
      <trkpt lat="45.14715" lon="-0.53203">
        <ele>40.7</ele>
        <time>2020-09-03T08:56:33Z</time>
      </trkpt>
      <trkpt lat="45.14717" lon="-0.53204">
        <ele>40.7</ele>
        <time>2020-09-03T08:56:34Z</time>
      </trkpt>
      <trkpt lat="45.14718" lon="-0.53204">
        <ele>40.7</ele>
        <time>2020-09-03T08:56:35Z</time>
      </trkpt>
      <trkpt lat="45.1472" lon="-0.53207">
        <ele>40.5</ele>
        <time>2020-09-03T08:56:38Z</time>
      </trkpt>
      <trkpt lat="45.14721" lon="-0.53209">
        <ele>40.5</ele>
        <time>2020-09-03T08:56:39Z</time>
      </trkpt>
      <trkpt lat="45.14721" lon="-0.53211">
        <ele>40.3</ele>
        <time>2020-09-03T08:56:40Z</time>
      </trkpt>
      <trkpt lat="45.14721" lon="-0.53213">
        <ele>40.3</ele>
        <time>2020-09-03T08:56:41Z</time>
      </trkpt>
      <trkpt lat="45.14721" lon="-0.53215">
        <ele>40.2</ele>
        <time>2020-09-03T08:56:42Z</time>
      </trkpt>
      <trkpt lat="45.14721" lon="-0.53217">
        <ele>40.2</ele>
        <time>2020-09-03T08:56:44Z</time>
      </trkpt>
      <trkpt lat="45.14721" lon="-0.53219">
        <ele>40.2</ele>
        <time>2020-09-03T08:56:45Z</time>
      </trkpt>
      <trkpt lat="45.1472" lon="-0.53221">
        <ele>40.1</ele>
        <time>2020-09-03T08:56:46Z</time>
      </trkpt>
      <trkpt lat="45.1472" lon="-0.53223">
        <ele>40.1</ele>
        <time>2020-09-03T08:56:48Z</time>
      </trkpt>
      <trkpt lat="45.14719" lon="-0.53225">
        <ele>40</ele>
        <time>2020-09-03T08:56:49Z</time>
      </trkpt>
      <trkpt lat="45.14719" lon="-0.53227">
        <ele>40</ele>
        <time>2020-09-03T08:56:50Z</time>
      </trkpt>
      <trkpt lat="45.14719" lon="-0.53229">
        <ele>39.9</ele>
        <time>2020-09-03T08:56:51Z</time>
      </trkpt>
      <trkpt lat="45.14718" lon="-0.53231">
        <ele>39.9</ele>
        <time>2020-09-03T08:56:53Z</time>
      </trkpt>
      <trkpt lat="45.14717" lon="-0.53234">
        <ele>39.8</ele>
        <time>2020-09-03T08:56:54Z</time>
      </trkpt>
      <trkpt lat="45.14717" lon="-0.53236">
        <ele>39.8</ele>
        <time>2020-09-03T08:56:56Z</time>
      </trkpt>
      <trkpt lat="45.14716" lon="-0.53239">
        <ele>39.8</ele>
        <time>2020-09-03T08:56:57Z</time>
      </trkpt>
      <trkpt lat="45.14714" lon="-0.53243">
        <ele>39.8</ele>
        <time>2020-09-03T08:56:59Z</time>
      </trkpt>
      <trkpt lat="45.14714" lon="-0.53244">
        <ele>39.8</ele>
        <time>2020-09-03T08:57:00Z</time>
      </trkpt>
      <trkpt lat="45.14713" lon="-0.53246">
        <ele>39.7</ele>
        <time>2020-09-03T08:57:01Z</time>
      </trkpt>
      <trkpt lat="45.14713" lon="-0.53247">
        <ele>39.7</ele>
        <time>2020-09-03T08:57:02Z</time>
      </trkpt>
      <trkpt lat="45.14712" lon="-0.53252">
        <ele>39.7</ele>
        <time>2020-09-03T08:57:04Z</time>
      </trkpt>
      <trkpt lat="45.14712" lon="-0.53254">
        <ele>39.7</ele>
        <time>2020-09-03T08:57:05Z</time>
      </trkpt>
      <trkpt lat="45.14711" lon="-0.53255">
        <ele>39.7</ele>
        <time>2020-09-03T08:57:06Z</time>
      </trkpt>
      <trkpt lat="45.14711" lon="-0.53256">
        <ele>39.7</ele>
        <time>2020-09-03T08:57:07Z</time>
      </trkpt>
      <trkpt lat="45.14711" lon="-0.53258">
        <ele>39.7</ele>
        <time>2020-09-03T08:57:09Z</time>
      </trkpt>
      <trkpt lat="45.1471" lon="-0.53261">
        <ele>39.7</ele>
        <time>2020-09-03T08:57:10Z</time>
      </trkpt>
      <trkpt lat="45.1471" lon="-0.53263">
        <ele>39.7</ele>
        <time>2020-09-03T08:57:11Z</time>
      </trkpt>
      <trkpt lat="45.1471" lon="-0.53265">
        <ele>39.7</ele>
        <time>2020-09-03T08:57:13Z</time>
      </trkpt>
      <trkpt lat="45.14709" lon="-0.53269">
        <ele>39.8</ele>
        <time>2020-09-03T08:57:14Z</time>
      </trkpt>
      <trkpt lat="45.14709" lon="-0.53271">
        <ele>39.8</ele>
        <time>2020-09-03T08:57:15Z</time>
      </trkpt>
      <trkpt lat="45.14709" lon="-0.53273">
        <ele>39.7</ele>
        <time>2020-09-03T08:57:17Z</time>
      </trkpt>
      <trkpt lat="45.14708" lon="-0.53276">
        <ele>39.7</ele>
        <time>2020-09-03T08:57:19Z</time>
      </trkpt>
      <trkpt lat="45.14707" lon="-0.53278">
        <ele>39.7</ele>
        <time>2020-09-03T08:57:20Z</time>
      </trkpt>
      <trkpt lat="45.14707" lon="-0.5328">
        <ele>39.7</ele>
        <time>2020-09-03T08:57:21Z</time>
      </trkpt>
      <trkpt lat="45.14707" lon="-0.53283">
        <ele>39.7</ele>
        <time>2020-09-03T08:57:23Z</time>
      </trkpt>
      <trkpt lat="45.14707" lon="-0.53287">
        <ele>39.7</ele>
        <time>2020-09-03T08:57:24Z</time>
      </trkpt>
      <trkpt lat="45.14707" lon="-0.53289">
        <ele>39.7</ele>
        <time>2020-09-03T08:57:26Z</time>
      </trkpt>
      <trkpt lat="45.14706" lon="-0.53292">
        <ele>39.7</ele>
        <time>2020-09-03T08:57:27Z</time>
      </trkpt>
      <trkpt lat="45.14706" lon="-0.53294">
        <ele>39.7</ele>
        <time>2020-09-03T08:57:28Z</time>
      </trkpt>
      <trkpt lat="45.14706" lon="-0.53295">
        <ele>39.7</ele>
        <time>2020-09-03T08:57:29Z</time>
      </trkpt>
      <trkpt lat="45.14706" lon="-0.53298">
        <ele>39.7</ele>
        <time>2020-09-03T08:57:30Z</time>
      </trkpt>
      <trkpt lat="45.14706" lon="-0.533">
        <ele>39.7</ele>
        <time>2020-09-03T08:57:32Z</time>
      </trkpt>
      <trkpt lat="45.14706" lon="-0.53301">
        <ele>39.7</ele>
        <time>2020-09-03T08:57:33Z</time>
      </trkpt>
      <trkpt lat="45.14705" lon="-0.53305">
        <ele>39.7</ele>
        <time>2020-09-03T08:57:34Z</time>
      </trkpt>
      <trkpt lat="45.14705" lon="-0.53307">
        <ele>39.7</ele>
        <time>2020-09-03T08:57:36Z</time>
      </trkpt>
      <trkpt lat="45.14705" lon="-0.53309">
        <ele>39.7</ele>
        <time>2020-09-03T08:57:37Z</time>
      </trkpt>
      <trkpt lat="45.14705" lon="-0.53313">
        <ele>39.7</ele>
        <time>2020-09-03T08:57:38Z</time>
      </trkpt>
      <trkpt lat="45.14705" lon="-0.53315">
        <ele>39.7</ele>
        <time>2020-09-03T08:57:40Z</time>
      </trkpt>
      <trkpt lat="45.14706" lon="-0.53317">
        <ele>39.7</ele>
        <time>2020-09-03T08:57:41Z</time>
      </trkpt>
      <trkpt lat="45.14706" lon="-0.5332">
        <ele>39.7</ele>
        <time>2020-09-03T08:57:43Z</time>
      </trkpt>
      <trkpt lat="45.14706" lon="-0.53322">
        <ele>39.7</ele>
        <time>2020-09-03T08:57:45Z</time>
      </trkpt>
      <trkpt lat="45.14706" lon="-0.53324">
        <ele>39.8</ele>
        <time>2020-09-03T08:57:46Z</time>
      </trkpt>
      <trkpt lat="45.14706" lon="-0.53326">
        <ele>39.8</ele>
        <time>2020-09-03T08:57:47Z</time>
      </trkpt>
      <trkpt lat="45.14706" lon="-0.53328">
        <ele>39.8</ele>
        <time>2020-09-03T08:57:48Z</time>
      </trkpt>
      <trkpt lat="45.14707" lon="-0.53332">
        <ele>39.8</ele>
        <time>2020-09-03T08:57:49Z</time>
      </trkpt>
      <trkpt lat="45.14707" lon="-0.53333">
        <ele>39.8</ele>
        <time>2020-09-03T08:57:51Z</time>
      </trkpt>
      <trkpt lat="45.14707" lon="-0.53336">
        <ele>39.8</ele>
        <time>2020-09-03T08:57:52Z</time>
      </trkpt>
      <trkpt lat="45.14707" lon="-0.53337">
        <ele>39.8</ele>
        <time>2020-09-03T08:57:53Z</time>
      </trkpt>
      <trkpt lat="45.14708" lon="-0.53339">
        <ele>39.8</ele>
        <time>2020-09-03T08:57:54Z</time>
      </trkpt>
      <trkpt lat="45.14708" lon="-0.53342">
        <ele>39.9</ele>
        <time>2020-09-03T08:57:56Z</time>
      </trkpt>
      <trkpt lat="45.14708" lon="-0.53344">
        <ele>39.9</ele>
        <time>2020-09-03T08:57:57Z</time>
      </trkpt>
      <trkpt lat="45.14709" lon="-0.53345">
        <ele>39.9</ele>
        <time>2020-09-03T08:57:58Z</time>
      </trkpt>
      <trkpt lat="45.14709" lon="-0.5335">
        <ele>39.9</ele>
        <time>2020-09-03T08:58:00Z</time>
      </trkpt>
      <trkpt lat="45.14709" lon="-0.53351">
        <ele>39.9</ele>
        <time>2020-09-03T08:58:01Z</time>
      </trkpt>
      <trkpt lat="45.14709" lon="-0.53354">
        <ele>39.9</ele>
        <time>2020-09-03T08:58:03Z</time>
      </trkpt>
      <trkpt lat="45.14709" lon="-0.53359">
        <ele>40</ele>
        <time>2020-09-03T08:58:05Z</time>
      </trkpt>
      <trkpt lat="45.14709" lon="-0.53362">
        <ele>40</ele>
        <time>2020-09-03T08:58:06Z</time>
      </trkpt>
      <trkpt lat="45.14709" lon="-0.53363">
        <ele>40</ele>
        <time>2020-09-03T08:58:07Z</time>
      </trkpt>
      <trkpt lat="45.1471" lon="-0.53365">
        <ele>40</ele>
        <time>2020-09-03T08:58:08Z</time>
      </trkpt>
      <trkpt lat="45.1471" lon="-0.53368">
        <ele>40</ele>
        <time>2020-09-03T08:58:09Z</time>
      </trkpt>
      <trkpt lat="45.1471" lon="-0.53369">
        <ele>40</ele>
        <time>2020-09-03T08:58:10Z</time>
      </trkpt>
      <trkpt lat="45.1471" lon="-0.53371">
        <ele>40.1</ele>
        <time>2020-09-03T08:58:11Z</time>
      </trkpt>
      <trkpt lat="45.1471" lon="-0.53372">
        <ele>40.1</ele>
        <time>2020-09-03T08:58:12Z</time>
      </trkpt>
      <trkpt lat="45.14709" lon="-0.53376">
        <ele>40.1</ele>
        <time>2020-09-03T08:58:13Z</time>
      </trkpt>
      <trkpt lat="45.14709" lon="-0.53377">
        <ele>40.1</ele>
        <time>2020-09-03T08:58:14Z</time>
      </trkpt>
      <trkpt lat="45.14709" lon="-0.53379">
        <ele>40.1</ele>
        <time>2020-09-03T08:58:15Z</time>
      </trkpt>
      <trkpt lat="45.1471" lon="-0.53381">
        <ele>40.1</ele>
        <time>2020-09-03T08:58:16Z</time>
      </trkpt>
      <trkpt lat="45.1471" lon="-0.53382">
        <ele>40.1</ele>
        <time>2020-09-03T08:58:17Z</time>
      </trkpt>
      <trkpt lat="45.1471" lon="-0.53384">
        <ele>40.1</ele>
        <time>2020-09-03T08:58:18Z</time>
      </trkpt>
      <trkpt lat="45.1471" lon="-0.53389">
        <ele>40.1</ele>
        <time>2020-09-03T08:58:21Z</time>
      </trkpt>
      <trkpt lat="45.1471" lon="-0.5339">
        <ele>40.1</ele>
        <time>2020-09-03T08:58:22Z</time>
      </trkpt>
      <trkpt lat="45.1471" lon="-0.53392">
        <ele>40.1</ele>
        <time>2020-09-03T08:58:23Z</time>
      </trkpt>
      <trkpt lat="45.1471" lon="-0.53393">
        <ele>40.1</ele>
        <time>2020-09-03T08:58:24Z</time>
      </trkpt>
      <trkpt lat="45.1471" lon="-0.53397">
        <ele>40.2</ele>
        <time>2020-09-03T08:58:25Z</time>
      </trkpt>
      <trkpt lat="45.1471" lon="-0.53398">
        <ele>40.2</ele>
        <time>2020-09-03T08:58:26Z</time>
      </trkpt>
      <trkpt lat="45.14709" lon="-0.53403">
        <ele>40.2</ele>
        <time>2020-09-03T08:58:28Z</time>
      </trkpt>
      <trkpt lat="45.14709" lon="-0.53404">
        <ele>40.1</ele>
        <time>2020-09-03T08:58:29Z</time>
      </trkpt>
      <trkpt lat="45.14708" lon="-0.53406">
        <ele>40.2</ele>
        <time>2020-09-03T08:58:30Z</time>
      </trkpt>
      <trkpt lat="45.14708" lon="-0.53408">
        <ele>40.2</ele>
        <time>2020-09-03T08:58:31Z</time>
      </trkpt>
      <trkpt lat="45.14708" lon="-0.5341">
        <ele>40.2</ele>
        <time>2020-09-03T08:58:32Z</time>
      </trkpt>
      <trkpt lat="45.14707" lon="-0.53415">
        <ele>40.2</ele>
        <time>2020-09-03T08:58:34Z</time>
      </trkpt>
      <trkpt lat="45.14707" lon="-0.53418">
        <ele>40.2</ele>
        <time>2020-09-03T08:58:35Z</time>
      </trkpt>
      <trkpt lat="45.14707" lon="-0.53419">
        <ele>40.2</ele>
        <time>2020-09-03T08:58:37Z</time>
      </trkpt>
      <trkpt lat="45.14707" lon="-0.53421">
        <ele>40.2</ele>
        <time>2020-09-03T08:58:38Z</time>
      </trkpt>
      <trkpt lat="45.14707" lon="-0.53424">
        <ele>40.2</ele>
        <time>2020-09-03T08:58:39Z</time>
      </trkpt>
      <trkpt lat="45.14707" lon="-0.53425">
        <ele>40.2</ele>
        <time>2020-09-03T08:58:40Z</time>
      </trkpt>
      <trkpt lat="45.14707" lon="-0.53427">
        <ele>40.2</ele>
        <time>2020-09-03T08:58:41Z</time>
      </trkpt>
      <trkpt lat="45.14707" lon="-0.53428">
        <ele>40.2</ele>
        <time>2020-09-03T08:58:42Z</time>
      </trkpt>
      <trkpt lat="45.14707" lon="-0.5343">
        <ele>40.2</ele>
        <time>2020-09-03T08:58:43Z</time>
      </trkpt>
      <trkpt lat="45.14707" lon="-0.53433">
        <ele>40.2</ele>
        <time>2020-09-03T08:58:45Z</time>
      </trkpt>
      <trkpt lat="45.14707" lon="-0.53435">
        <ele>40.2</ele>
        <time>2020-09-03T08:58:46Z</time>
      </trkpt>
      <trkpt lat="45.14707" lon="-0.53438">
        <ele>40.2</ele>
        <time>2020-09-03T08:58:48Z</time>
      </trkpt>
      <trkpt lat="45.14707" lon="-0.5344">
        <ele>40.2</ele>
        <time>2020-09-03T08:58:49Z</time>
      </trkpt>
      <trkpt lat="45.14707" lon="-0.53444">
        <ele>40.2</ele>
        <time>2020-09-03T08:58:50Z</time>
      </trkpt>
      <trkpt lat="45.14707" lon="-0.53445">
        <ele>40.2</ele>
        <time>2020-09-03T08:58:51Z</time>
      </trkpt>
      <trkpt lat="45.14707" lon="-0.53449">
        <ele>40.2</ele>
        <time>2020-09-03T08:58:53Z</time>
      </trkpt>
      <trkpt lat="45.14707" lon="-0.5345">
        <ele>40.2</ele>
        <time>2020-09-03T08:58:54Z</time>
      </trkpt>
      <trkpt lat="45.14707" lon="-0.53452">
        <ele>40.2</ele>
        <time>2020-09-03T08:58:55Z</time>
      </trkpt>
      <trkpt lat="45.14707" lon="-0.53454">
        <ele>40.2</ele>
        <time>2020-09-03T08:58:57Z</time>
      </trkpt>
      <trkpt lat="45.14707" lon="-0.53456">
        <ele>40.2</ele>
        <time>2020-09-03T08:58:58Z</time>
      </trkpt>
      <trkpt lat="45.14707" lon="-0.5346">
        <ele>40.2</ele>
        <time>2020-09-03T08:58:59Z</time>
      </trkpt>
      <trkpt lat="45.14707" lon="-0.53462">
        <ele>40.2</ele>
        <time>2020-09-03T08:59:00Z</time>
      </trkpt>
      <trkpt lat="45.14708" lon="-0.53465">
        <ele>40.3</ele>
        <time>2020-09-03T08:59:01Z</time>
      </trkpt>
      <trkpt lat="45.14708" lon="-0.53466">
        <ele>40.3</ele>
        <time>2020-09-03T08:59:03Z</time>
      </trkpt>
      <trkpt lat="45.14708" lon="-0.53467">
        <ele>40.3</ele>
        <time>2020-09-03T08:59:04Z</time>
      </trkpt>
      <trkpt lat="45.14708" lon="-0.5347">
        <ele>40.3</ele>
        <time>2020-09-03T08:59:05Z</time>
      </trkpt>
      <trkpt lat="45.14708" lon="-0.53472">
        <ele>40.3</ele>
        <time>2020-09-03T08:59:06Z</time>
      </trkpt>
      <trkpt lat="45.14708" lon="-0.53475">
        <ele>40.3</ele>
        <time>2020-09-03T08:59:07Z</time>
      </trkpt>
      <trkpt lat="45.14708" lon="-0.53477">
        <ele>40.3</ele>
        <time>2020-09-03T08:59:08Z</time>
      </trkpt>
      <trkpt lat="45.14708" lon="-0.53478">
        <ele>40.3</ele>
        <time>2020-09-03T08:59:09Z</time>
      </trkpt>
      <trkpt lat="45.14708" lon="-0.5348">
        <ele>40.3</ele>
        <time>2020-09-03T08:59:10Z</time>
      </trkpt>
      <trkpt lat="45.14708" lon="-0.53481">
        <ele>40.3</ele>
        <time>2020-09-03T08:59:11Z</time>
      </trkpt>
      <trkpt lat="45.14707" lon="-0.53483">
        <ele>40.3</ele>
        <time>2020-09-03T08:59:12Z</time>
      </trkpt>
      <trkpt lat="45.14707" lon="-0.53486">
        <ele>40.3</ele>
        <time>2020-09-03T08:59:13Z</time>
      </trkpt>
      <trkpt lat="45.14707" lon="-0.53487">
        <ele>40.3</ele>
        <time>2020-09-03T08:59:15Z</time>
      </trkpt>
      <trkpt lat="45.14707" lon="-0.53488">
        <ele>40.3</ele>
        <time>2020-09-03T08:59:16Z</time>
      </trkpt>
      <trkpt lat="45.14707" lon="-0.53491">
        <ele>40.3</ele>
        <time>2020-09-03T08:59:17Z</time>
      </trkpt>
      <trkpt lat="45.14707" lon="-0.53492">
        <ele>40.3</ele>
        <time>2020-09-03T08:59:18Z</time>
      </trkpt>
      <trkpt lat="45.14707" lon="-0.53493">
        <ele>40.3</ele>
        <time>2020-09-03T08:59:19Z</time>
      </trkpt>
      <trkpt lat="45.14707" lon="-0.53496">
        <ele>40.3</ele>
        <time>2020-09-03T08:59:20Z</time>
      </trkpt>
      <trkpt lat="45.14707" lon="-0.53498">
        <ele>40.3</ele>
        <time>2020-09-03T08:59:21Z</time>
      </trkpt>
      <trkpt lat="45.14707" lon="-0.535">
        <ele>40.4</ele>
        <time>2020-09-03T08:59:22Z</time>
      </trkpt>
      <trkpt lat="45.14707" lon="-0.53502">
        <ele>40.4</ele>
        <time>2020-09-03T08:59:23Z</time>
      </trkpt>
      <trkpt lat="45.14706" lon="-0.53505">
        <ele>40.4</ele>
        <time>2020-09-03T08:59:24Z</time>
      </trkpt>
      <trkpt lat="45.14705" lon="-0.53506">
        <ele>40.5</ele>
        <time>2020-09-03T08:59:26Z</time>
      </trkpt>
      <trkpt lat="45.14704" lon="-0.53508">
        <ele>40.5</ele>
        <time>2020-09-03T08:59:27Z</time>
      </trkpt>
      <trkpt lat="45.14703" lon="-0.53509">
        <ele>40.6</ele>
        <time>2020-09-03T08:59:28Z</time>
      </trkpt>
      <trkpt lat="45.14701" lon="-0.5351">
        <ele>40.6</ele>
        <time>2020-09-03T08:59:30Z</time>
      </trkpt>
      <trkpt lat="45.147" lon="-0.5351">
        <ele>40.6</ele>
        <time>2020-09-03T08:59:31Z</time>
      </trkpt>
      <trkpt lat="45.14698" lon="-0.5351">
        <ele>40.7</ele>
        <time>2020-09-03T08:59:32Z</time>
      </trkpt>
      <trkpt lat="45.14697" lon="-0.5351">
        <ele>40.7</ele>
        <time>2020-09-03T08:59:33Z</time>
      </trkpt>
      <trkpt lat="45.14694" lon="-0.53509">
        <ele>40.8</ele>
        <time>2020-09-03T08:59:35Z</time>
      </trkpt>
      <trkpt lat="45.14693" lon="-0.53509">
        <ele>40.8</ele>
        <time>2020-09-03T08:59:36Z</time>
      </trkpt>
      <trkpt lat="45.14691" lon="-0.53509">
        <ele>40.9</ele>
        <time>2020-09-03T08:59:38Z</time>
      </trkpt>
      <trkpt lat="45.14689" lon="-0.53508">
        <ele>40.9</ele>
        <time>2020-09-03T08:59:39Z</time>
      </trkpt>
      <trkpt lat="45.14687" lon="-0.53508">
        <ele>40.9</ele>
        <time>2020-09-03T08:59:40Z</time>
      </trkpt>
      <trkpt lat="45.14686" lon="-0.53508">
        <ele>41</ele>
        <time>2020-09-03T08:59:42Z</time>
      </trkpt>
      <trkpt lat="45.14685" lon="-0.53508">
        <ele>41</ele>
        <time>2020-09-03T08:59:43Z</time>
      </trkpt>
      <trkpt lat="45.14682" lon="-0.53508">
        <ele>41.1</ele>
        <time>2020-09-03T08:59:45Z</time>
      </trkpt>
      <trkpt lat="45.14679" lon="-0.53508">
        <ele>41.1</ele>
        <time>2020-09-03T08:59:46Z</time>
      </trkpt>
      <trkpt lat="45.14678" lon="-0.53508">
        <ele>41.2</ele>
        <time>2020-09-03T08:59:48Z</time>
      </trkpt>
      <trkpt lat="45.14676" lon="-0.53509">
        <ele>41.2</ele>
        <time>2020-09-03T08:59:50Z</time>
      </trkpt>
      <trkpt lat="45.14674" lon="-0.53509">
        <ele>41.2</ele>
        <time>2020-09-03T08:59:51Z</time>
      </trkpt>
      <trkpt lat="45.14672" lon="-0.53509">
        <ele>41.3</ele>
        <time>2020-09-03T08:59:52Z</time>
      </trkpt>
      <trkpt lat="45.14671" lon="-0.5351">
        <ele>41.3</ele>
        <time>2020-09-03T08:59:53Z</time>
      </trkpt>
      <trkpt lat="45.1467" lon="-0.5351">
        <ele>41.4</ele>
        <time>2020-09-03T08:59:54Z</time>
      </trkpt>
      <trkpt lat="45.14669" lon="-0.5351">
        <ele>41.4</ele>
        <time>2020-09-03T08:59:55Z</time>
      </trkpt>
      <trkpt lat="45.14668" lon="-0.5351">
        <ele>41.4</ele>
        <time>2020-09-03T08:59:56Z</time>
      </trkpt>
      <trkpt lat="45.14667" lon="-0.53511">
        <ele>41.4</ele>
        <time>2020-09-03T08:59:58Z</time>
      </trkpt>
      <trkpt lat="45.14665" lon="-0.53511">
        <ele>41.5</ele>
        <time>2020-09-03T08:59:59Z</time>
      </trkpt>
      <trkpt lat="45.14663" lon="-0.53512">
        <ele>41.5</ele>
        <time>2020-09-03T09:00:00Z</time>
      </trkpt>
      <trkpt lat="45.14661" lon="-0.53513">
        <ele>41.6</ele>
        <time>2020-09-03T09:00:01Z</time>
      </trkpt>
      <trkpt lat="45.14659" lon="-0.53513">
        <ele>41.6</ele>
        <time>2020-09-03T09:00:03Z</time>
      </trkpt>
      <trkpt lat="45.14658" lon="-0.53513">
        <ele>41.7</ele>
        <time>2020-09-03T09:00:04Z</time>
      </trkpt>
      <trkpt lat="45.14656" lon="-0.53514">
        <ele>41.7</ele>
        <time>2020-09-03T09:00:05Z</time>
      </trkpt>
      <trkpt lat="45.14655" lon="-0.53514">
        <ele>41.8</ele>
        <time>2020-09-03T09:00:06Z</time>
      </trkpt>
      <trkpt lat="45.14653" lon="-0.53514">
        <ele>41.8</ele>
        <time>2020-09-03T09:00:08Z</time>
      </trkpt>
      <trkpt lat="45.1465" lon="-0.53515">
        <ele>41.9</ele>
        <time>2020-09-03T09:00:09Z</time>
      </trkpt>
      <trkpt lat="45.14649" lon="-0.53516">
        <ele>41.9</ele>
        <time>2020-09-03T09:00:10Z</time>
      </trkpt>
      <trkpt lat="45.14647" lon="-0.53517">
        <ele>41.9</ele>
        <time>2020-09-03T09:00:11Z</time>
      </trkpt>
      <trkpt lat="45.14646" lon="-0.53518">
        <ele>42</ele>
        <time>2020-09-03T09:00:13Z</time>
      </trkpt>
      <trkpt lat="45.14645" lon="-0.53518">
        <ele>42</ele>
        <time>2020-09-03T09:00:14Z</time>
      </trkpt>
      <trkpt lat="45.14643" lon="-0.53519">
        <ele>42</ele>
        <time>2020-09-03T09:00:15Z</time>
      </trkpt>
      <trkpt lat="45.14642" lon="-0.5352">
        <ele>42.1</ele>
        <time>2020-09-03T09:00:16Z</time>
      </trkpt>
      <trkpt lat="45.1464" lon="-0.53521">
        <ele>42.1</ele>
        <time>2020-09-03T09:00:18Z</time>
      </trkpt>
      <trkpt lat="45.14639" lon="-0.53522">
        <ele>42.1</ele>
        <time>2020-09-03T09:00:19Z</time>
      </trkpt>
      <trkpt lat="45.14637" lon="-0.53524">
        <ele>42.2</ele>
        <time>2020-09-03T09:00:20Z</time>
      </trkpt>
      <trkpt lat="45.14636" lon="-0.53525">
        <ele>42.2</ele>
        <time>2020-09-03T09:00:22Z</time>
      </trkpt>
      <trkpt lat="45.14635" lon="-0.53525">
        <ele>42.2</ele>
        <time>2020-09-03T09:00:23Z</time>
      </trkpt>
      <trkpt lat="45.14633" lon="-0.53527">
        <ele>42.3</ele>
        <time>2020-09-03T09:00:24Z</time>
      </trkpt>
      <trkpt lat="45.14632" lon="-0.53528">
        <ele>42.3</ele>
        <time>2020-09-03T09:00:25Z</time>
      </trkpt>
      <trkpt lat="45.14631" lon="-0.53529">
        <ele>42.3</ele>
        <time>2020-09-03T09:00:26Z</time>
      </trkpt>
      <trkpt lat="45.1463" lon="-0.53529">
        <ele>42.3</ele>
        <time>2020-09-03T09:00:27Z</time>
      </trkpt>
      <trkpt lat="45.14629" lon="-0.5353">
        <ele>42.4</ele>
        <time>2020-09-03T09:00:28Z</time>
      </trkpt>
      <trkpt lat="45.14628" lon="-0.53531">
        <ele>42.4</ele>
        <time>2020-09-03T09:00:29Z</time>
      </trkpt>
      <trkpt lat="45.14625" lon="-0.53533">
        <ele>42.4</ele>
        <time>2020-09-03T09:00:31Z</time>
      </trkpt>
      <trkpt lat="45.14625" lon="-0.53534">
        <ele>42.4</ele>
        <time>2020-09-03T09:00:32Z</time>
      </trkpt>
      <trkpt lat="45.14623" lon="-0.53535">
        <ele>42.5</ele>
        <time>2020-09-03T09:00:33Z</time>
      </trkpt>
      <trkpt lat="45.14622" lon="-0.53536">
        <ele>42.5</ele>
        <time>2020-09-03T09:00:34Z</time>
      </trkpt>
      <trkpt lat="45.14621" lon="-0.53537">
        <ele>42.5</ele>
        <time>2020-09-03T09:00:35Z</time>
      </trkpt>
      <trkpt lat="45.14619" lon="-0.53539">
        <ele>42.5</ele>
        <time>2020-09-03T09:00:36Z</time>
      </trkpt>
      <trkpt lat="45.14618" lon="-0.53539">
        <ele>42.5</ele>
        <time>2020-09-03T09:00:38Z</time>
      </trkpt>
      <trkpt lat="45.14617" lon="-0.5354">
        <ele>42.5</ele>
        <time>2020-09-03T09:00:39Z</time>
      </trkpt>
      <trkpt lat="45.14615" lon="-0.53542">
        <ele>42.6</ele>
        <time>2020-09-03T09:00:40Z</time>
      </trkpt>
      <trkpt lat="45.14613" lon="-0.53543">
        <ele>42.6</ele>
        <time>2020-09-03T09:00:42Z</time>
      </trkpt>
      <trkpt lat="45.14612" lon="-0.53544">
        <ele>42.6</ele>
        <time>2020-09-03T09:00:43Z</time>
      </trkpt>
      <trkpt lat="45.1461" lon="-0.53545">
        <ele>42.6</ele>
        <time>2020-09-03T09:00:44Z</time>
      </trkpt>
      <trkpt lat="45.14608" lon="-0.53546">
        <ele>42.7</ele>
        <time>2020-09-03T09:00:45Z</time>
      </trkpt>
      <trkpt lat="45.14607" lon="-0.53547">
        <ele>42.7</ele>
        <time>2020-09-03T09:00:46Z</time>
      </trkpt>
      <trkpt lat="45.14606" lon="-0.53547">
        <ele>42.7</ele>
        <time>2020-09-03T09:00:47Z</time>
      </trkpt>
      <trkpt lat="45.14605" lon="-0.53548">
        <ele>42.7</ele>
        <time>2020-09-03T09:00:48Z</time>
      </trkpt>
      <trkpt lat="45.14604" lon="-0.53549">
        <ele>42.7</ele>
        <time>2020-09-03T09:00:50Z</time>
      </trkpt>
      <trkpt lat="45.14602" lon="-0.5355">
        <ele>42.8</ele>
        <time>2020-09-03T09:00:51Z</time>
      </trkpt>
      <trkpt lat="45.14602" lon="-0.53551">
        <ele>42.8</ele>
        <time>2020-09-03T09:00:52Z</time>
      </trkpt>
      <trkpt lat="45.146" lon="-0.53552">
        <ele>42.8</ele>
        <time>2020-09-03T09:00:54Z</time>
      </trkpt>
      <trkpt lat="45.14599" lon="-0.53553">
        <ele>42.8</ele>
        <time>2020-09-03T09:00:55Z</time>
      </trkpt>
      <trkpt lat="45.14597" lon="-0.53554">
        <ele>42.9</ele>
        <time>2020-09-03T09:00:56Z</time>
      </trkpt>
      <trkpt lat="45.14597" lon="-0.53554">
        <ele>42.9</ele>
        <time>2020-09-03T09:00:57Z</time>
      </trkpt>
      <trkpt lat="45.14595" lon="-0.53556">
        <ele>42.9</ele>
        <time>2020-09-03T09:00:59Z</time>
      </trkpt>
      <trkpt lat="45.14593" lon="-0.53557">
        <ele>43</ele>
        <time>2020-09-03T09:01:00Z</time>
      </trkpt>
      <trkpt lat="45.14592" lon="-0.53557">
        <ele>43</ele>
        <time>2020-09-03T09:01:01Z</time>
      </trkpt>
      <trkpt lat="45.1459" lon="-0.53559">
        <ele>43.1</ele>
        <time>2020-09-03T09:01:02Z</time>
      </trkpt>
      <trkpt lat="45.14589" lon="-0.53559">
        <ele>43.1</ele>
        <time>2020-09-03T09:01:04Z</time>
      </trkpt>
      <trkpt lat="45.14588" lon="-0.5356">
        <ele>43.1</ele>
        <time>2020-09-03T09:01:05Z</time>
      </trkpt>
      <trkpt lat="45.14586" lon="-0.53562">
        <ele>43.2</ele>
        <time>2020-09-03T09:01:06Z</time>
      </trkpt>
      <trkpt lat="45.14585" lon="-0.53563">
        <ele>43.2</ele>
        <time>2020-09-03T09:01:08Z</time>
      </trkpt>
      <trkpt lat="45.14584" lon="-0.53563">
        <ele>43.2</ele>
        <time>2020-09-03T09:01:09Z</time>
      </trkpt>
      <trkpt lat="45.14581" lon="-0.53565">
        <ele>43.3</ele>
        <time>2020-09-03T09:01:11Z</time>
      </trkpt>
      <trkpt lat="45.14581" lon="-0.53565">
        <ele>43.3</ele>
        <time>2020-09-03T09:01:12Z</time>
      </trkpt>
      <trkpt lat="45.14579" lon="-0.53566">
        <ele>43.3</ele>
        <time>2020-09-03T09:01:13Z</time>
      </trkpt>
      <trkpt lat="45.14578" lon="-0.53567">
        <ele>43.4</ele>
        <time>2020-09-03T09:01:15Z</time>
      </trkpt>
      <trkpt lat="45.14576" lon="-0.53568">
        <ele>43.4</ele>
        <time>2020-09-03T09:01:16Z</time>
      </trkpt>
      <trkpt lat="45.14575" lon="-0.53569">
        <ele>43.4</ele>
        <time>2020-09-03T09:01:17Z</time>
      </trkpt>
      <trkpt lat="45.14573" lon="-0.5357">
        <ele>43.5</ele>
        <time>2020-09-03T09:01:18Z</time>
      </trkpt>
      <trkpt lat="45.14572" lon="-0.5357">
        <ele>43.5</ele>
        <time>2020-09-03T09:01:20Z</time>
      </trkpt>
      <trkpt lat="45.14571" lon="-0.5357">
        <ele>43.5</ele>
        <time>2020-09-03T09:01:21Z</time>
      </trkpt>
      <trkpt lat="45.14569" lon="-0.53571">
        <ele>43.5</ele>
        <time>2020-09-03T09:01:22Z</time>
      </trkpt>
      <trkpt lat="45.14568" lon="-0.53571">
        <ele>43.5</ele>
        <time>2020-09-03T09:01:23Z</time>
      </trkpt>
      <trkpt lat="45.14567" lon="-0.53571">
        <ele>43.5</ele>
        <time>2020-09-03T09:01:24Z</time>
      </trkpt>
      <trkpt lat="45.14564" lon="-0.53572">
        <ele>43.6</ele>
        <time>2020-09-03T09:01:26Z</time>
      </trkpt>
      <trkpt lat="45.14562" lon="-0.53572">
        <ele>43.6</ele>
        <time>2020-09-03T09:01:27Z</time>
      </trkpt>
      <trkpt lat="45.14561" lon="-0.53572">
        <ele>43.6</ele>
        <time>2020-09-03T09:01:28Z</time>
      </trkpt>
      <trkpt lat="45.1456" lon="-0.53572">
        <ele>43.6</ele>
        <time>2020-09-03T09:01:29Z</time>
      </trkpt>
      <trkpt lat="45.14558" lon="-0.53572">
        <ele>43.7</ele>
        <time>2020-09-03T09:01:30Z</time>
      </trkpt>
      <trkpt lat="45.14557" lon="-0.53572">
        <ele>43.7</ele>
        <time>2020-09-03T09:01:31Z</time>
      </trkpt>
      <trkpt lat="45.14555" lon="-0.53573">
        <ele>43.7</ele>
        <time>2020-09-03T09:01:32Z</time>
      </trkpt>
      <trkpt lat="45.14554" lon="-0.53573">
        <ele>43.7</ele>
        <time>2020-09-03T09:01:33Z</time>
      </trkpt>
      <trkpt lat="45.14553" lon="-0.53573">
        <ele>43.7</ele>
        <time>2020-09-03T09:01:34Z</time>
      </trkpt>
      <trkpt lat="45.14551" lon="-0.53573">
        <ele>43.7</ele>
        <time>2020-09-03T09:01:35Z</time>
      </trkpt>
      <trkpt lat="45.1455" lon="-0.53573">
        <ele>43.7</ele>
        <time>2020-09-03T09:01:36Z</time>
      </trkpt>
      <trkpt lat="45.14549" lon="-0.53573">
        <ele>43.8</ele>
        <time>2020-09-03T09:01:38Z</time>
      </trkpt>
      <trkpt lat="45.14548" lon="-0.53573">
        <ele>43.8</ele>
        <time>2020-09-03T09:01:39Z</time>
      </trkpt>
      <trkpt lat="45.14547" lon="-0.53573">
        <ele>43.8</ele>
        <time>2020-09-03T09:01:40Z</time>
      </trkpt>
      <trkpt lat="45.14545" lon="-0.53573">
        <ele>43.8</ele>
        <time>2020-09-03T09:01:42Z</time>
      </trkpt>
      <trkpt lat="45.14543" lon="-0.53573">
        <ele>43.8</ele>
        <time>2020-09-03T09:01:43Z</time>
      </trkpt>
      <trkpt lat="45.14542" lon="-0.53573">
        <ele>43.8</ele>
        <time>2020-09-03T09:01:44Z</time>
      </trkpt>
      <trkpt lat="45.14539" lon="-0.53573">
        <ele>43.8</ele>
        <time>2020-09-03T09:01:46Z</time>
      </trkpt>
      <trkpt lat="45.14539" lon="-0.53573">
        <ele>43.8</ele>
        <time>2020-09-03T09:01:47Z</time>
      </trkpt>
      <trkpt lat="45.14538" lon="-0.53574">
        <ele>43.8</ele>
        <time>2020-09-03T09:01:49Z</time>
      </trkpt>
      <trkpt lat="45.14538" lon="-0.53574">
        <ele>43.8</ele>
        <time>2020-09-03T09:01:50Z</time>
      </trkpt>
      <trkpt lat="45.14538" lon="-0.53574">
        <ele>43.8</ele>
        <time>2020-09-03T09:01:51Z</time>
      </trkpt>
      <trkpt lat="45.14539" lon="-0.53574">
        <ele>43.8</ele>
        <time>2020-09-03T09:01:52Z</time>
      </trkpt>
      <trkpt lat="45.14539" lon="-0.53574">
        <ele>43.8</ele>
        <time>2020-09-03T09:01:53Z</time>
      </trkpt>
      <trkpt lat="45.14539" lon="-0.53574">
        <ele>43.8</ele>
        <time>2020-09-03T09:01:55Z</time>
      </trkpt>
      <trkpt lat="45.1454" lon="-0.53574">
        <ele>43.8</ele>
        <time>2020-09-03T09:01:56Z</time>
      </trkpt>
      <trkpt lat="45.14539" lon="-0.53574">
        <ele>43.8</ele>
        <time>2020-09-03T09:01:57Z</time>
      </trkpt>
      <trkpt lat="45.14538" lon="-0.53574">
        <ele>43.8</ele>
        <time>2020-09-03T09:01:58Z</time>
      </trkpt>
      <trkpt lat="45.14536" lon="-0.53573">
        <ele>43.8</ele>
        <time>2020-09-03T09:01:59Z</time>
      </trkpt>
      <trkpt lat="45.14534" lon="-0.53573">
        <ele>43.8</ele>
        <time>2020-09-03T09:02:00Z</time>
      </trkpt>
      <trkpt lat="45.14533" lon="-0.53573">
        <ele>43.8</ele>
        <time>2020-09-03T09:02:01Z</time>
      </trkpt>
      <trkpt lat="45.14532" lon="-0.53572">
        <ele>43.7</ele>
        <time>2020-09-03T09:02:03Z</time>
      </trkpt>
      <trkpt lat="45.1453" lon="-0.53572">
        <ele>43.7</ele>
        <time>2020-09-03T09:02:04Z</time>
      </trkpt>
      <trkpt lat="45.14529" lon="-0.53572">
        <ele>43.7</ele>
        <time>2020-09-03T09:02:05Z</time>
      </trkpt>
      <trkpt lat="45.14526" lon="-0.53572">
        <ele>43.7</ele>
        <time>2020-09-03T09:02:07Z</time>
      </trkpt>
      <trkpt lat="45.14525" lon="-0.53572">
        <ele>43.7</ele>
        <time>2020-09-03T09:02:08Z</time>
      </trkpt>
      <trkpt lat="45.14523" lon="-0.53571">
        <ele>43.7</ele>
        <time>2020-09-03T09:02:09Z</time>
      </trkpt>
      <trkpt lat="45.1452" lon="-0.53571">
        <ele>43.7</ele>
        <time>2020-09-03T09:02:11Z</time>
      </trkpt>
      <trkpt lat="45.14519" lon="-0.53571">
        <ele>43.7</ele>
        <time>2020-09-03T09:02:12Z</time>
      </trkpt>
      <trkpt lat="45.14518" lon="-0.53571">
        <ele>43.7</ele>
        <time>2020-09-03T09:02:13Z</time>
      </trkpt>
      <trkpt lat="45.14517" lon="-0.53571">
        <ele>43.7</ele>
        <time>2020-09-03T09:02:14Z</time>
      </trkpt>
      <trkpt lat="45.14516" lon="-0.5357">
        <ele>43.7</ele>
        <time>2020-09-03T09:02:16Z</time>
      </trkpt>
      <trkpt lat="45.14514" lon="-0.5357">
        <ele>43.7</ele>
        <time>2020-09-03T09:02:17Z</time>
      </trkpt>
      <trkpt lat="45.14513" lon="-0.5357">
        <ele>43.6</ele>
        <time>2020-09-03T09:02:18Z</time>
      </trkpt>
      <trkpt lat="45.14511" lon="-0.53569">
        <ele>43.6</ele>
        <time>2020-09-03T09:02:19Z</time>
      </trkpt>
      <trkpt lat="45.1451" lon="-0.53569">
        <ele>43.6</ele>
        <time>2020-09-03T09:02:21Z</time>
      </trkpt>
      <trkpt lat="45.14509" lon="-0.53569">
        <ele>43.6</ele>
        <time>2020-09-03T09:02:22Z</time>
      </trkpt>
      <trkpt lat="45.14507" lon="-0.53569">
        <ele>43.6</ele>
        <time>2020-09-03T09:02:23Z</time>
      </trkpt>
      <trkpt lat="45.14506" lon="-0.53569">
        <ele>43.6</ele>
        <time>2020-09-03T09:02:24Z</time>
      </trkpt>
      <trkpt lat="45.14502" lon="-0.53569">
        <ele>43.5</ele>
        <time>2020-09-03T09:02:26Z</time>
      </trkpt>
      <trkpt lat="45.14501" lon="-0.53569">
        <ele>43.5</ele>
        <time>2020-09-03T09:02:27Z</time>
      </trkpt>
      <trkpt lat="45.14499" lon="-0.53568">
        <ele>43.5</ele>
        <time>2020-09-03T09:02:29Z</time>
      </trkpt>
      <trkpt lat="45.14497" lon="-0.53568">
        <ele>43.5</ele>
        <time>2020-09-03T09:02:31Z</time>
      </trkpt>
      <trkpt lat="45.14496" lon="-0.53568">
        <ele>43.5</ele>
        <time>2020-09-03T09:02:32Z</time>
      </trkpt>
      <trkpt lat="45.14495" lon="-0.53568">
        <ele>43.5</ele>
        <time>2020-09-03T09:02:33Z</time>
      </trkpt>
      <trkpt lat="45.14494" lon="-0.53567">
        <ele>43.5</ele>
        <time>2020-09-03T09:02:34Z</time>
      </trkpt>
      <trkpt lat="45.14492" lon="-0.53567">
        <ele>43.5</ele>
        <time>2020-09-03T09:02:35Z</time>
      </trkpt>
      <trkpt lat="45.14491" lon="-0.53567">
        <ele>43.4</ele>
        <time>2020-09-03T09:02:36Z</time>
      </trkpt>
      <trkpt lat="45.14491" lon="-0.53566">
        <ele>43.4</ele>
        <time>2020-09-03T09:02:37Z</time>
      </trkpt>
      <trkpt lat="45.14489" lon="-0.53566">
        <ele>43.4</ele>
        <time>2020-09-03T09:02:38Z</time>
      </trkpt>
      <trkpt lat="45.14488" lon="-0.53565">
        <ele>43.4</ele>
        <time>2020-09-03T09:02:39Z</time>
      </trkpt>
      <trkpt lat="45.14486" lon="-0.53565">
        <ele>43.4</ele>
        <time>2020-09-03T09:02:40Z</time>
      </trkpt>
      <trkpt lat="45.14484" lon="-0.53565">
        <ele>43.4</ele>
        <time>2020-09-03T09:02:42Z</time>
      </trkpt>
      <trkpt lat="45.14482" lon="-0.53565">
        <ele>43.4</ele>
        <time>2020-09-03T09:02:43Z</time>
      </trkpt>
      <trkpt lat="45.14481" lon="-0.53565">
        <ele>43.3</ele>
        <time>2020-09-03T09:02:44Z</time>
      </trkpt>
      <trkpt lat="45.1448" lon="-0.53564">
        <ele>43.3</ele>
        <time>2020-09-03T09:02:45Z</time>
      </trkpt>
      <trkpt lat="45.14479" lon="-0.53564">
        <ele>43.3</ele>
        <time>2020-09-03T09:02:46Z</time>
      </trkpt>
      <trkpt lat="45.14477" lon="-0.53564">
        <ele>43.3</ele>
        <time>2020-09-03T09:02:47Z</time>
      </trkpt>
      <trkpt lat="45.14475" lon="-0.53564">
        <ele>43.3</ele>
        <time>2020-09-03T09:02:48Z</time>
      </trkpt>
      <trkpt lat="45.14474" lon="-0.53564">
        <ele>43.3</ele>
        <time>2020-09-03T09:02:50Z</time>
      </trkpt>
      <trkpt lat="45.14473" lon="-0.53564">
        <ele>43.3</ele>
        <time>2020-09-03T09:02:51Z</time>
      </trkpt>
      <trkpt lat="45.14472" lon="-0.53564">
        <ele>43.3</ele>
        <time>2020-09-03T09:02:52Z</time>
      </trkpt>
      <trkpt lat="45.1447" lon="-0.53564">
        <ele>43.3</ele>
        <time>2020-09-03T09:02:53Z</time>
      </trkpt>
      <trkpt lat="45.14469" lon="-0.53563">
        <ele>43.3</ele>
        <time>2020-09-03T09:02:55Z</time>
      </trkpt>
      <trkpt lat="45.14467" lon="-0.53563">
        <ele>43.2</ele>
        <time>2020-09-03T09:02:56Z</time>
      </trkpt>
      <trkpt lat="45.14466" lon="-0.53563">
        <ele>43.2</ele>
        <time>2020-09-03T09:02:58Z</time>
      </trkpt>
      <trkpt lat="45.14464" lon="-0.53563">
        <ele>43.2</ele>
        <time>2020-09-03T09:02:59Z</time>
      </trkpt>
      <trkpt lat="45.14462" lon="-0.53563">
        <ele>43.2</ele>
        <time>2020-09-03T09:03:00Z</time>
      </trkpt>
      <trkpt lat="45.14461" lon="-0.53563">
        <ele>43.2</ele>
        <time>2020-09-03T09:03:01Z</time>
      </trkpt>
      <trkpt lat="45.1446" lon="-0.53563">
        <ele>43.2</ele>
        <time>2020-09-03T09:03:02Z</time>
      </trkpt>
      <trkpt lat="45.14459" lon="-0.53563">
        <ele>43.2</ele>
        <time>2020-09-03T09:03:04Z</time>
      </trkpt>
      <trkpt lat="45.14458" lon="-0.53563">
        <ele>43.2</ele>
        <time>2020-09-03T09:03:05Z</time>
      </trkpt>
      <trkpt lat="45.14456" lon="-0.53562">
        <ele>43.2</ele>
        <time>2020-09-03T09:03:06Z</time>
      </trkpt>
      <trkpt lat="45.14455" lon="-0.53562">
        <ele>43.2</ele>
        <time>2020-09-03T09:03:07Z</time>
      </trkpt>
      <trkpt lat="45.14453" lon="-0.53563">
        <ele>43.2</ele>
        <time>2020-09-03T09:03:08Z</time>
      </trkpt>
      <trkpt lat="45.14452" lon="-0.53563">
        <ele>43.2</ele>
        <time>2020-09-03T09:03:09Z</time>
      </trkpt>
      <trkpt lat="45.1445" lon="-0.53563">
        <ele>43.2</ele>
        <time>2020-09-03T09:03:10Z</time>
      </trkpt>
      <trkpt lat="45.14447" lon="-0.53564">
        <ele>43.2</ele>
        <time>2020-09-03T09:03:12Z</time>
      </trkpt>
      <trkpt lat="45.14446" lon="-0.53564">
        <ele>43.2</ele>
        <time>2020-09-03T09:03:13Z</time>
      </trkpt>
      <trkpt lat="45.14444" lon="-0.53564">
        <ele>43.2</ele>
        <time>2020-09-03T09:03:14Z</time>
      </trkpt>
      <trkpt lat="45.14442" lon="-0.53565">
        <ele>43.2</ele>
        <time>2020-09-03T09:03:16Z</time>
      </trkpt>
      <trkpt lat="45.1444" lon="-0.53565">
        <ele>43.2</ele>
        <time>2020-09-03T09:03:17Z</time>
      </trkpt>
      <trkpt lat="45.14439" lon="-0.53566">
        <ele>43.2</ele>
        <time>2020-09-03T09:03:18Z</time>
      </trkpt>
      <trkpt lat="45.14436" lon="-0.53566">
        <ele>43.2</ele>
        <time>2020-09-03T09:03:20Z</time>
      </trkpt>
      <trkpt lat="45.14434" lon="-0.53567">
        <ele>43.2</ele>
        <time>2020-09-03T09:03:21Z</time>
      </trkpt>
      <trkpt lat="45.14432" lon="-0.53568">
        <ele>43.3</ele>
        <time>2020-09-03T09:03:23Z</time>
      </trkpt>
      <trkpt lat="45.14431" lon="-0.53568">
        <ele>43.3</ele>
        <time>2020-09-03T09:03:24Z</time>
      </trkpt>
      <trkpt lat="45.1443" lon="-0.53569">
        <ele>43.3</ele>
        <time>2020-09-03T09:03:25Z</time>
      </trkpt>
      <trkpt lat="45.14429" lon="-0.5357">
        <ele>43.3</ele>
        <time>2020-09-03T09:03:26Z</time>
      </trkpt>
      <trkpt lat="45.14428" lon="-0.5357">
        <ele>43.3</ele>
        <time>2020-09-03T09:03:27Z</time>
      </trkpt>
      <trkpt lat="45.14427" lon="-0.53571">
        <ele>43.3</ele>
        <time>2020-09-03T09:03:28Z</time>
      </trkpt>
      <trkpt lat="45.14426" lon="-0.53571">
        <ele>43.3</ele>
        <time>2020-09-03T09:03:30Z</time>
      </trkpt>
      <trkpt lat="45.14424" lon="-0.53573">
        <ele>43.3</ele>
        <time>2020-09-03T09:03:31Z</time>
      </trkpt>
      <trkpt lat="45.14423" lon="-0.53574">
        <ele>43.3</ele>
        <time>2020-09-03T09:03:32Z</time>
      </trkpt>
      <trkpt lat="45.14422" lon="-0.53574">
        <ele>43.3</ele>
        <time>2020-09-03T09:03:33Z</time>
      </trkpt>
      <trkpt lat="45.14421" lon="-0.53575">
        <ele>43.3</ele>
        <time>2020-09-03T09:03:34Z</time>
      </trkpt>
      <trkpt lat="45.14419" lon="-0.53577">
        <ele>43.3</ele>
        <time>2020-09-03T09:03:36Z</time>
      </trkpt>
      <trkpt lat="45.14418" lon="-0.53578">
        <ele>43.3</ele>
        <time>2020-09-03T09:03:37Z</time>
      </trkpt>
      <trkpt lat="45.14416" lon="-0.53581">
        <ele>43.3</ele>
        <time>2020-09-03T09:03:39Z</time>
      </trkpt>
      <trkpt lat="45.14415" lon="-0.53582">
        <ele>43.3</ele>
        <time>2020-09-03T09:03:40Z</time>
      </trkpt>
      <trkpt lat="45.14414" lon="-0.53583">
        <ele>43.3</ele>
        <time>2020-09-03T09:03:41Z</time>
      </trkpt>
      <trkpt lat="45.14413" lon="-0.53584">
        <ele>43.4</ele>
        <time>2020-09-03T09:03:42Z</time>
      </trkpt>
      <trkpt lat="45.14411" lon="-0.53586">
        <ele>43.4</ele>
        <time>2020-09-03T09:03:44Z</time>
      </trkpt>
      <trkpt lat="45.1441" lon="-0.53587">
        <ele>43.4</ele>
        <time>2020-09-03T09:03:45Z</time>
      </trkpt>
      <trkpt lat="45.14409" lon="-0.53589">
        <ele>43.4</ele>
        <time>2020-09-03T09:03:46Z</time>
      </trkpt>
      <trkpt lat="45.14408" lon="-0.5359">
        <ele>43.4</ele>
        <time>2020-09-03T09:03:48Z</time>
      </trkpt>
      <trkpt lat="45.14408" lon="-0.53591">
        <ele>43.4</ele>
        <time>2020-09-03T09:03:49Z</time>
      </trkpt>
      <trkpt lat="45.14407" lon="-0.53592">
        <ele>43.4</ele>
        <time>2020-09-03T09:03:50Z</time>
      </trkpt>
      <trkpt lat="45.14405" lon="-0.53594">
        <ele>43.4</ele>
        <time>2020-09-03T09:03:51Z</time>
      </trkpt>
      <trkpt lat="45.14403" lon="-0.53596">
        <ele>43.4</ele>
        <time>2020-09-03T09:03:52Z</time>
      </trkpt>
      <trkpt lat="45.14403" lon="-0.53597">
        <ele>43.4</ele>
        <time>2020-09-03T09:03:53Z</time>
      </trkpt>
      <trkpt lat="45.14402" lon="-0.53598">
        <ele>43.4</ele>
        <time>2020-09-03T09:03:54Z</time>
      </trkpt>
      <trkpt lat="45.14402" lon="-0.53599">
        <ele>43.5</ele>
        <time>2020-09-03T09:03:55Z</time>
      </trkpt>
      <trkpt lat="45.14401" lon="-0.53601">
        <ele>43.5</ele>
        <time>2020-09-03T09:03:57Z</time>
      </trkpt>
      <trkpt lat="45.144" lon="-0.53602">
        <ele>43.5</ele>
        <time>2020-09-03T09:03:58Z</time>
      </trkpt>
      <trkpt lat="45.14399" lon="-0.53604">
        <ele>43.6</ele>
        <time>2020-09-03T09:03:59Z</time>
      </trkpt>
      <trkpt lat="45.14398" lon="-0.53605">
        <ele>43.6</ele>
        <time>2020-09-03T09:04:01Z</time>
      </trkpt>
      <trkpt lat="45.14398" lon="-0.53607">
        <ele>43.6</ele>
        <time>2020-09-03T09:04:02Z</time>
      </trkpt>
      <trkpt lat="45.14397" lon="-0.53609">
        <ele>43.7</ele>
        <time>2020-09-03T09:04:03Z</time>
      </trkpt>
      <trkpt lat="45.14395" lon="-0.53611">
        <ele>43.8</ele>
        <time>2020-09-03T09:04:05Z</time>
      </trkpt>
      <trkpt lat="45.14394" lon="-0.53613">
        <ele>43.8</ele>
        <time>2020-09-03T09:04:06Z</time>
      </trkpt>
      <trkpt lat="45.14393" lon="-0.53615">
        <ele>43.9</ele>
        <time>2020-09-03T09:04:08Z</time>
      </trkpt>
      <trkpt lat="45.14392" lon="-0.53617">
        <ele>43.9</ele>
        <time>2020-09-03T09:04:09Z</time>
      </trkpt>
      <trkpt lat="45.1439" lon="-0.53621">
        <ele>44.1</ele>
        <time>2020-09-03T09:04:12Z</time>
      </trkpt>
      <trkpt lat="45.14389" lon="-0.53622">
        <ele>44.1</ele>
        <time>2020-09-03T09:04:13Z</time>
      </trkpt>
      <trkpt lat="45.14387" lon="-0.53624">
        <ele>44.1</ele>
        <time>2020-09-03T09:04:14Z</time>
      </trkpt>
      <trkpt lat="45.14386" lon="-0.53626">
        <ele>44.2</ele>
        <time>2020-09-03T09:04:15Z</time>
      </trkpt>
      <trkpt lat="45.14385" lon="-0.53628">
        <ele>44.2</ele>
        <time>2020-09-03T09:04:16Z</time>
      </trkpt>
      <trkpt lat="45.14384" lon="-0.53629">
        <ele>44.3</ele>
        <time>2020-09-03T09:04:17Z</time>
      </trkpt>
      <trkpt lat="45.14383" lon="-0.5363">
        <ele>44.3</ele>
        <time>2020-09-03T09:04:18Z</time>
      </trkpt>
      <trkpt lat="45.14382" lon="-0.53632">
        <ele>44.3</ele>
        <time>2020-09-03T09:04:20Z</time>
      </trkpt>
      <trkpt lat="45.14382" lon="-0.53634">
        <ele>44.3</ele>
        <time>2020-09-03T09:04:21Z</time>
      </trkpt>
      <trkpt lat="45.14381" lon="-0.53635">
        <ele>44.4</ele>
        <time>2020-09-03T09:04:22Z</time>
      </trkpt>
      <trkpt lat="45.1438" lon="-0.53637">
        <ele>44.4</ele>
        <time>2020-09-03T09:04:24Z</time>
      </trkpt>
      <trkpt lat="45.14379" lon="-0.53638">
        <ele>44.4</ele>
        <time>2020-09-03T09:04:25Z</time>
      </trkpt>
      <trkpt lat="45.14378" lon="-0.53639">
        <ele>44.4</ele>
        <time>2020-09-03T09:04:26Z</time>
      </trkpt>
      <trkpt lat="45.14377" lon="-0.5364">
        <ele>44.4</ele>
        <time>2020-09-03T09:04:27Z</time>
      </trkpt>
      <trkpt lat="45.14376" lon="-0.53642">
        <ele>44.4</ele>
        <time>2020-09-03T09:04:29Z</time>
      </trkpt>
      <trkpt lat="45.14375" lon="-0.53643">
        <ele>44.4</ele>
        <time>2020-09-03T09:04:30Z</time>
      </trkpt>
      <trkpt lat="45.14374" lon="-0.53645">
        <ele>44.5</ele>
        <time>2020-09-03T09:04:31Z</time>
      </trkpt>
      <trkpt lat="45.14373" lon="-0.53646">
        <ele>44.5</ele>
        <time>2020-09-03T09:04:32Z</time>
      </trkpt>
      <trkpt lat="45.14372" lon="-0.53648">
        <ele>44.5</ele>
        <time>2020-09-03T09:04:33Z</time>
      </trkpt>
      <trkpt lat="45.14371" lon="-0.53649">
        <ele>44.5</ele>
        <time>2020-09-03T09:04:35Z</time>
      </trkpt>
      <trkpt lat="45.14371" lon="-0.5365">
        <ele>44.5</ele>
        <time>2020-09-03T09:04:36Z</time>
      </trkpt>
      <trkpt lat="45.1437" lon="-0.53652">
        <ele>44.5</ele>
        <time>2020-09-03T09:04:38Z</time>
      </trkpt>
      <trkpt lat="45.1437" lon="-0.53653">
        <ele>44.5</ele>
        <time>2020-09-03T09:04:39Z</time>
      </trkpt>
      <trkpt lat="45.14369" lon="-0.53654">
        <ele>44.5</ele>
        <time>2020-09-03T09:04:41Z</time>
      </trkpt>
      <trkpt lat="45.14368" lon="-0.53655">
        <ele>44.5</ele>
        <time>2020-09-03T09:04:42Z</time>
      </trkpt>
      <trkpt lat="45.14368" lon="-0.53656">
        <ele>44.5</ele>
        <time>2020-09-03T09:04:43Z</time>
      </trkpt>
      <trkpt lat="45.14367" lon="-0.53657">
        <ele>44.5</ele>
        <time>2020-09-03T09:04:44Z</time>
      </trkpt>
      <trkpt lat="45.14367" lon="-0.53659">
        <ele>44.5</ele>
        <time>2020-09-03T09:04:45Z</time>
      </trkpt>
      <trkpt lat="45.14365" lon="-0.53662">
        <ele>44.5</ele>
        <time>2020-09-03T09:04:46Z</time>
      </trkpt>
      <trkpt lat="45.14365" lon="-0.53662">
        <ele>44.5</ele>
        <time>2020-09-03T09:04:47Z</time>
      </trkpt>
      <trkpt lat="45.14364" lon="-0.53663">
        <ele>44.5</ele>
        <time>2020-09-03T09:04:48Z</time>
      </trkpt>
      <trkpt lat="45.14363" lon="-0.53665">
        <ele>44.5</ele>
        <time>2020-09-03T09:04:49Z</time>
      </trkpt>
      <trkpt lat="45.14362" lon="-0.53666">
        <ele>44.6</ele>
        <time>2020-09-03T09:04:50Z</time>
      </trkpt>
      <trkpt lat="45.14362" lon="-0.53667">
        <ele>44.6</ele>
        <time>2020-09-03T09:04:52Z</time>
      </trkpt>
      <trkpt lat="45.14361" lon="-0.53668">
        <ele>44.6</ele>
        <time>2020-09-03T09:04:53Z</time>
      </trkpt>
      <trkpt lat="45.14361" lon="-0.53669">
        <ele>44.6</ele>
        <time>2020-09-03T09:04:55Z</time>
      </trkpt>
      <trkpt lat="45.1436" lon="-0.5367">
        <ele>44.6</ele>
        <time>2020-09-03T09:04:56Z</time>
      </trkpt>
      <trkpt lat="45.1436" lon="-0.53671">
        <ele>44.6</ele>
        <time>2020-09-03T09:04:57Z</time>
      </trkpt>
      <trkpt lat="45.14359" lon="-0.53671">
        <ele>44.6</ele>
        <time>2020-09-03T09:04:58Z</time>
      </trkpt>
      <trkpt lat="45.14358" lon="-0.53672">
        <ele>44.6</ele>
        <time>2020-09-03T09:05:00Z</time>
      </trkpt>
      <trkpt lat="45.14358" lon="-0.53673">
        <ele>44.6</ele>
        <time>2020-09-03T09:05:01Z</time>
      </trkpt>
      <trkpt lat="45.14357" lon="-0.53674">
        <ele>44.6</ele>
        <time>2020-09-03T09:05:02Z</time>
      </trkpt>
      <trkpt lat="45.14357" lon="-0.53675">
        <ele>44.6</ele>
        <time>2020-09-03T09:05:03Z</time>
      </trkpt>
      <trkpt lat="45.14356" lon="-0.53678">
        <ele>44.6</ele>
        <time>2020-09-03T09:05:05Z</time>
      </trkpt>
      <trkpt lat="45.14355" lon="-0.53679">
        <ele>44.6</ele>
        <time>2020-09-03T09:05:06Z</time>
      </trkpt>
      <trkpt lat="45.14355" lon="-0.53681">
        <ele>44.6</ele>
        <time>2020-09-03T09:05:07Z</time>
      </trkpt>
      <trkpt lat="45.14354" lon="-0.53683">
        <ele>44.6</ele>
        <time>2020-09-03T09:05:08Z</time>
      </trkpt>
      <trkpt lat="45.14353" lon="-0.53686">
        <ele>44.7</ele>
        <time>2020-09-03T09:05:10Z</time>
      </trkpt>
      <trkpt lat="45.14353" lon="-0.53688">
        <ele>44.7</ele>
        <time>2020-09-03T09:05:11Z</time>
      </trkpt>
      <trkpt lat="45.14352" lon="-0.53692">
        <ele>44.7</ele>
        <time>2020-09-03T09:05:12Z</time>
      </trkpt>
      <trkpt lat="45.14351" lon="-0.53692">
        <ele>44.7</ele>
        <time>2020-09-03T09:05:13Z</time>
      </trkpt>
      <trkpt lat="45.14351" lon="-0.53696">
        <ele>44.7</ele>
        <time>2020-09-03T09:05:14Z</time>
      </trkpt>
      <trkpt lat="45.1435" lon="-0.53697">
        <ele>44.7</ele>
        <time>2020-09-03T09:05:15Z</time>
      </trkpt>
      <trkpt lat="45.1435" lon="-0.53699">
        <ele>44.7</ele>
        <time>2020-09-03T09:05:16Z</time>
      </trkpt>
      <trkpt lat="45.14349" lon="-0.53701">
        <ele>44.7</ele>
        <time>2020-09-03T09:05:18Z</time>
      </trkpt>
      <trkpt lat="45.14349" lon="-0.53703">
        <ele>44.8</ele>
        <time>2020-09-03T09:05:19Z</time>
      </trkpt>
      <trkpt lat="45.14348" lon="-0.53704">
        <ele>44.8</ele>
        <time>2020-09-03T09:05:20Z</time>
      </trkpt>
      <trkpt lat="45.14348" lon="-0.53706">
        <ele>44.8</ele>
        <time>2020-09-03T09:05:21Z</time>
      </trkpt>
      <trkpt lat="45.14348" lon="-0.53707">
        <ele>44.8</ele>
        <time>2020-09-03T09:05:23Z</time>
      </trkpt>
      <trkpt lat="45.14348" lon="-0.53707">
        <ele>44.8</ele>
        <time>2020-09-03T09:05:25Z</time>
      </trkpt>
      <trkpt lat="45.14348" lon="-0.53707">
        <ele>44.8</ele>
        <time>2020-09-03T09:05:27Z</time>
      </trkpt>
      <trkpt lat="45.14348" lon="-0.53706">
        <ele>44.8</ele>
        <time>2020-09-03T09:05:29Z</time>
      </trkpt>
      <trkpt lat="45.14348" lon="-0.53706">
        <ele>44.8</ele>
        <time>2020-09-03T09:05:30Z</time>
      </trkpt>
      <trkpt lat="45.14347" lon="-0.53706">
        <ele>44.8</ele>
        <time>2020-09-03T09:05:31Z</time>
      </trkpt>
      <trkpt lat="45.14347" lon="-0.53705">
        <ele>44.8</ele>
        <time>2020-09-03T09:05:33Z</time>
      </trkpt>
      <trkpt lat="45.14347" lon="-0.53706">
        <ele>44.8</ele>
        <time>2020-09-03T09:05:34Z</time>
      </trkpt>
      <trkpt lat="45.14347" lon="-0.53707">
        <ele>44.8</ele>
        <time>2020-09-03T09:05:35Z</time>
      </trkpt>
      <trkpt lat="45.14347" lon="-0.53709">
        <ele>44.9</ele>
        <time>2020-09-03T09:05:36Z</time>
      </trkpt>
      <trkpt lat="45.14346" lon="-0.53711">
        <ele>44.9</ele>
        <time>2020-09-03T09:05:37Z</time>
      </trkpt>
      <trkpt lat="45.14346" lon="-0.53713">
        <ele>44.9</ele>
        <time>2020-09-03T09:05:38Z</time>
      </trkpt>
      <trkpt lat="45.14345" lon="-0.53716">
        <ele>45</ele>
        <time>2020-09-03T09:05:40Z</time>
      </trkpt>
      <trkpt lat="45.14345" lon="-0.53717">
        <ele>45</ele>
        <time>2020-09-03T09:05:41Z</time>
      </trkpt>
      <trkpt lat="45.14345" lon="-0.5372">
        <ele>45</ele>
        <time>2020-09-03T09:05:42Z</time>
      </trkpt>
      <trkpt lat="45.14345" lon="-0.53722">
        <ele>45.1</ele>
        <time>2020-09-03T09:05:43Z</time>
      </trkpt>
      <trkpt lat="45.14345" lon="-0.53724">
        <ele>45.1</ele>
        <time>2020-09-03T09:05:44Z</time>
      </trkpt>
      <trkpt lat="45.14345" lon="-0.53726">
        <ele>45.1</ele>
        <time>2020-09-03T09:05:45Z</time>
      </trkpt>
      <trkpt lat="45.14344" lon="-0.53729">
        <ele>45.2</ele>
        <time>2020-09-03T09:05:47Z</time>
      </trkpt>
      <trkpt lat="45.14344" lon="-0.53732">
        <ele>45.2</ele>
        <time>2020-09-03T09:05:48Z</time>
      </trkpt>
      <trkpt lat="45.14343" lon="-0.53733">
        <ele>45.2</ele>
        <time>2020-09-03T09:05:49Z</time>
      </trkpt>
      <trkpt lat="45.14343" lon="-0.53738">
        <ele>45.2</ele>
        <time>2020-09-03T09:05:51Z</time>
      </trkpt>
      <trkpt lat="45.14342" lon="-0.5374">
        <ele>45.3</ele>
        <time>2020-09-03T09:05:52Z</time>
      </trkpt>
      <trkpt lat="45.14342" lon="-0.53741">
        <ele>45.3</ele>
        <time>2020-09-03T09:05:54Z</time>
      </trkpt>
      <trkpt lat="45.14341" lon="-0.53743">
        <ele>45.3</ele>
        <time>2020-09-03T09:05:55Z</time>
      </trkpt>
      <trkpt lat="45.1434" lon="-0.53748">
        <ele>45.3</ele>
        <time>2020-09-03T09:05:57Z</time>
      </trkpt>
      <trkpt lat="45.14339" lon="-0.53749">
        <ele>45.3</ele>
        <time>2020-09-03T09:05:58Z</time>
      </trkpt>
      <trkpt lat="45.14339" lon="-0.5375">
        <ele>45.3</ele>
        <time>2020-09-03T09:05:59Z</time>
      </trkpt>
      <trkpt lat="45.14339" lon="-0.53752">
        <ele>45.3</ele>
        <time>2020-09-03T09:06:00Z</time>
      </trkpt>
      <trkpt lat="45.14338" lon="-0.53755">
        <ele>45.3</ele>
        <time>2020-09-03T09:06:02Z</time>
      </trkpt>
      <trkpt lat="45.14337" lon="-0.53757">
        <ele>45.3</ele>
        <time>2020-09-03T09:06:03Z</time>
      </trkpt>
      <trkpt lat="45.14337" lon="-0.53759">
        <ele>45.3</ele>
        <time>2020-09-03T09:06:05Z</time>
      </trkpt>
      <trkpt lat="45.14336" lon="-0.53761">
        <ele>45.3</ele>
        <time>2020-09-03T09:06:07Z</time>
      </trkpt>
      <trkpt lat="45.14335" lon="-0.53762">
        <ele>45.3</ele>
        <time>2020-09-03T09:06:08Z</time>
      </trkpt>
      <trkpt lat="45.14335" lon="-0.53765">
        <ele>45.3</ele>
        <time>2020-09-03T09:06:09Z</time>
      </trkpt>
      <trkpt lat="45.14334" lon="-0.53766">
        <ele>45.3</ele>
        <time>2020-09-03T09:06:10Z</time>
      </trkpt>
      <trkpt lat="45.14334" lon="-0.53768">
        <ele>45.3</ele>
        <time>2020-09-03T09:06:11Z</time>
      </trkpt>
      <trkpt lat="45.14333" lon="-0.5377">
        <ele>45.3</ele>
        <time>2020-09-03T09:06:13Z</time>
      </trkpt>
      <trkpt lat="45.14333" lon="-0.53772">
        <ele>45.3</ele>
        <time>2020-09-03T09:06:14Z</time>
      </trkpt>
      <trkpt lat="45.14332" lon="-0.53774">
        <ele>45.3</ele>
        <time>2020-09-03T09:06:15Z</time>
      </trkpt>
      <trkpt lat="45.14332" lon="-0.53776">
        <ele>45.3</ele>
        <time>2020-09-03T09:06:16Z</time>
      </trkpt>
      <trkpt lat="45.14331" lon="-0.53779">
        <ele>45.3</ele>
        <time>2020-09-03T09:06:17Z</time>
      </trkpt>
      <trkpt lat="45.14331" lon="-0.5378">
        <ele>45.3</ele>
        <time>2020-09-03T09:06:18Z</time>
      </trkpt>
      <trkpt lat="45.14331" lon="-0.53781">
        <ele>45.3</ele>
        <time>2020-09-03T09:06:19Z</time>
      </trkpt>
      <trkpt lat="45.14331" lon="-0.53783">
        <ele>45.3</ele>
        <time>2020-09-03T09:06:20Z</time>
      </trkpt>
      <trkpt lat="45.1433" lon="-0.53784">
        <ele>45.3</ele>
        <time>2020-09-03T09:06:21Z</time>
      </trkpt>
      <trkpt lat="45.1433" lon="-0.53786">
        <ele>45.3</ele>
        <time>2020-09-03T09:06:22Z</time>
      </trkpt>
      <trkpt lat="45.1433" lon="-0.53788">
        <ele>45.3</ele>
        <time>2020-09-03T09:06:23Z</time>
      </trkpt>
      <trkpt lat="45.1433" lon="-0.53789">
        <ele>45.3</ele>
        <time>2020-09-03T09:06:24Z</time>
      </trkpt>
      <trkpt lat="45.1433" lon="-0.5379">
        <ele>45.3</ele>
        <time>2020-09-03T09:06:25Z</time>
      </trkpt>
      <trkpt lat="45.14329" lon="-0.53792">
        <ele>45.3</ele>
        <time>2020-09-03T09:06:26Z</time>
      </trkpt>
      <trkpt lat="45.14329" lon="-0.53793">
        <ele>45.3</ele>
        <time>2020-09-03T09:06:27Z</time>
      </trkpt>
      <trkpt lat="45.14329" lon="-0.53795">
        <ele>45.3</ele>
        <time>2020-09-03T09:06:29Z</time>
      </trkpt>
      <trkpt lat="45.14328" lon="-0.53797">
        <ele>45.3</ele>
        <time>2020-09-03T09:06:30Z</time>
      </trkpt>
      <trkpt lat="45.14328" lon="-0.53798">
        <ele>45.3</ele>
        <time>2020-09-03T09:06:31Z</time>
      </trkpt>
      <trkpt lat="45.14328" lon="-0.538">
        <ele>45.3</ele>
        <time>2020-09-03T09:06:32Z</time>
      </trkpt>
      <trkpt lat="45.14327" lon="-0.53801">
        <ele>45.3</ele>
        <time>2020-09-03T09:06:33Z</time>
      </trkpt>
      <trkpt lat="45.14327" lon="-0.53804">
        <ele>45.3</ele>
        <time>2020-09-03T09:06:35Z</time>
      </trkpt>
      <trkpt lat="45.14327" lon="-0.53805">
        <ele>45.3</ele>
        <time>2020-09-03T09:06:36Z</time>
      </trkpt>
      <trkpt lat="45.14326" lon="-0.53806">
        <ele>45.3</ele>
        <time>2020-09-03T09:06:37Z</time>
      </trkpt>
      <trkpt lat="45.14326" lon="-0.53808">
        <ele>45.4</ele>
        <time>2020-09-03T09:06:38Z</time>
      </trkpt>
      <trkpt lat="45.14325" lon="-0.5381">
        <ele>45.4</ele>
        <time>2020-09-03T09:06:39Z</time>
      </trkpt>
      <trkpt lat="45.14325" lon="-0.53812">
        <ele>45.4</ele>
        <time>2020-09-03T09:06:40Z</time>
      </trkpt>
      <trkpt lat="45.14324" lon="-0.53815">
        <ele>45.4</ele>
        <time>2020-09-03T09:06:41Z</time>
      </trkpt>
      <trkpt lat="45.14323" lon="-0.53816">
        <ele>45.4</ele>
        <time>2020-09-03T09:06:42Z</time>
      </trkpt>
      <trkpt lat="45.14323" lon="-0.53819">
        <ele>45.4</ele>
        <time>2020-09-03T09:06:44Z</time>
      </trkpt>
      <trkpt lat="45.14322" lon="-0.5382">
        <ele>45.4</ele>
        <time>2020-09-03T09:06:45Z</time>
      </trkpt>
      <trkpt lat="45.14322" lon="-0.53823">
        <ele>45.4</ele>
        <time>2020-09-03T09:06:46Z</time>
      </trkpt>
      <trkpt lat="45.14322" lon="-0.53825">
        <ele>45.5</ele>
        <time>2020-09-03T09:06:47Z</time>
      </trkpt>
      <trkpt lat="45.14321" lon="-0.53827">
        <ele>45.5</ele>
        <time>2020-09-03T09:06:48Z</time>
      </trkpt>
      <trkpt lat="45.14321" lon="-0.53829">
        <ele>45.5</ele>
        <time>2020-09-03T09:06:49Z</time>
      </trkpt>
      <trkpt lat="45.14321" lon="-0.53831">
        <ele>45.5</ele>
        <time>2020-09-03T09:06:50Z</time>
      </trkpt>
      <trkpt lat="45.1432" lon="-0.53833">
        <ele>45.5</ele>
        <time>2020-09-03T09:06:51Z</time>
      </trkpt>
      <trkpt lat="45.1432" lon="-0.53835">
        <ele>45.5</ele>
        <time>2020-09-03T09:06:53Z</time>
      </trkpt>
      <trkpt lat="45.1432" lon="-0.53837">
        <ele>45.5</ele>
        <time>2020-09-03T09:06:54Z</time>
      </trkpt>
      <trkpt lat="45.14319" lon="-0.53839">
        <ele>45.5</ele>
        <time>2020-09-03T09:06:55Z</time>
      </trkpt>
      <trkpt lat="45.14319" lon="-0.53841">
        <ele>45.5</ele>
        <time>2020-09-03T09:06:56Z</time>
      </trkpt>
      <trkpt lat="45.14319" lon="-0.53842">
        <ele>45.5</ele>
        <time>2020-09-03T09:06:57Z</time>
      </trkpt>
      <trkpt lat="45.14319" lon="-0.53845">
        <ele>45.5</ele>
        <time>2020-09-03T09:06:59Z</time>
      </trkpt>
      <trkpt lat="45.14319" lon="-0.53847">
        <ele>45.5</ele>
        <time>2020-09-03T09:07:00Z</time>
      </trkpt>
      <trkpt lat="45.14319" lon="-0.53848">
        <ele>45.5</ele>
        <time>2020-09-03T09:07:01Z</time>
      </trkpt>
      <trkpt lat="45.14318" lon="-0.5385">
        <ele>45.5</ele>
        <time>2020-09-03T09:07:02Z</time>
      </trkpt>
      <trkpt lat="45.14318" lon="-0.53851">
        <ele>45.5</ele>
        <time>2020-09-03T09:07:03Z</time>
      </trkpt>
      <trkpt lat="45.14318" lon="-0.53854">
        <ele>45.5</ele>
        <time>2020-09-03T09:07:05Z</time>
      </trkpt>
      <trkpt lat="45.14318" lon="-0.53855">
        <ele>45.5</ele>
        <time>2020-09-03T09:07:06Z</time>
      </trkpt>
      <trkpt lat="45.14317" lon="-0.53856">
        <ele>45.5</ele>
        <time>2020-09-03T09:07:07Z</time>
      </trkpt>
      <trkpt lat="45.14317" lon="-0.53858">
        <ele>45.5</ele>
        <time>2020-09-03T09:07:08Z</time>
      </trkpt>
      <trkpt lat="45.14317" lon="-0.5386">
        <ele>45.5</ele>
        <time>2020-09-03T09:07:09Z</time>
      </trkpt>
      <trkpt lat="45.14317" lon="-0.53864">
        <ele>45.5</ele>
        <time>2020-09-03T09:07:11Z</time>
      </trkpt>
      <trkpt lat="45.14316" lon="-0.53866">
        <ele>45.5</ele>
        <time>2020-09-03T09:07:12Z</time>
      </trkpt>
      <trkpt lat="45.14316" lon="-0.53869">
        <ele>45.5</ele>
        <time>2020-09-03T09:07:14Z</time>
      </trkpt>
      <trkpt lat="45.14315" lon="-0.53872">
        <ele>45.5</ele>
        <time>2020-09-03T09:07:15Z</time>
      </trkpt>
      <trkpt lat="45.14315" lon="-0.53873">
        <ele>45.5</ele>
        <time>2020-09-03T09:07:16Z</time>
      </trkpt>
      <trkpt lat="45.14314" lon="-0.53876">
        <ele>45.5</ele>
        <time>2020-09-03T09:07:17Z</time>
      </trkpt>
      <trkpt lat="45.14314" lon="-0.53878">
        <ele>45.5</ele>
        <time>2020-09-03T09:07:18Z</time>
      </trkpt>
      <trkpt lat="45.14314" lon="-0.53879">
        <ele>45.5</ele>
        <time>2020-09-03T09:07:19Z</time>
      </trkpt>
      <trkpt lat="45.14314" lon="-0.53881">
        <ele>45.5</ele>
        <time>2020-09-03T09:07:21Z</time>
      </trkpt>
      <trkpt lat="45.14314" lon="-0.53883">
        <ele>45.5</ele>
        <time>2020-09-03T09:07:22Z</time>
      </trkpt>
      <trkpt lat="45.14313" lon="-0.53885">
        <ele>45.5</ele>
        <time>2020-09-03T09:07:23Z</time>
      </trkpt>
      <trkpt lat="45.14313" lon="-0.53887">
        <ele>45.5</ele>
        <time>2020-09-03T09:07:24Z</time>
      </trkpt>
      <trkpt lat="45.14313" lon="-0.53889">
        <ele>45.5</ele>
        <time>2020-09-03T09:07:25Z</time>
      </trkpt>
      <trkpt lat="45.14312" lon="-0.53891">
        <ele>45.5</ele>
        <time>2020-09-03T09:07:26Z</time>
      </trkpt>
      <trkpt lat="45.14312" lon="-0.53893">
        <ele>45.5</ele>
        <time>2020-09-03T09:07:27Z</time>
      </trkpt>
      <trkpt lat="45.14312" lon="-0.53895">
        <ele>45.5</ele>
        <time>2020-09-03T09:07:29Z</time>
      </trkpt>
      <trkpt lat="45.14312" lon="-0.53897">
        <ele>45.5</ele>
        <time>2020-09-03T09:07:30Z</time>
      </trkpt>
      <trkpt lat="45.14311" lon="-0.539">
        <ele>45.5</ele>
        <time>2020-09-03T09:07:32Z</time>
      </trkpt>
      <trkpt lat="45.1431" lon="-0.53902">
        <ele>45.5</ele>
        <time>2020-09-03T09:07:33Z</time>
      </trkpt>
      <trkpt lat="45.1431" lon="-0.53904">
        <ele>45.5</ele>
        <time>2020-09-03T09:07:35Z</time>
      </trkpt>
      <trkpt lat="45.14309" lon="-0.53907">
        <ele>45.5</ele>
        <time>2020-09-03T09:07:36Z</time>
      </trkpt>
      <trkpt lat="45.14309" lon="-0.53909">
        <ele>45.5</ele>
        <time>2020-09-03T09:07:38Z</time>
      </trkpt>
      <trkpt lat="45.14308" lon="-0.53911">
        <ele>45.5</ele>
        <time>2020-09-03T09:07:39Z</time>
      </trkpt>
      <trkpt lat="45.14308" lon="-0.53912">
        <ele>45.5</ele>
        <time>2020-09-03T09:07:40Z</time>
      </trkpt>
      <trkpt lat="45.14307" lon="-0.53913">
        <ele>45.5</ele>
        <time>2020-09-03T09:07:41Z</time>
      </trkpt>
      <trkpt lat="45.14305" lon="-0.53914">
        <ele>45.5</ele>
        <time>2020-09-03T09:07:42Z</time>
      </trkpt>
      <trkpt lat="45.14305" lon="-0.53915">
        <ele>45.5</ele>
        <time>2020-09-03T09:07:44Z</time>
      </trkpt>
      <trkpt lat="45.14304" lon="-0.53916">
        <ele>45.4</ele>
        <time>2020-09-03T09:07:45Z</time>
      </trkpt>
      <trkpt lat="45.14303" lon="-0.53918">
        <ele>45.4</ele>
        <time>2020-09-03T09:07:46Z</time>
      </trkpt>
      <trkpt lat="45.14302" lon="-0.53919">
        <ele>45.4</ele>
        <time>2020-09-03T09:07:47Z</time>
      </trkpt>
      <trkpt lat="45.143" lon="-0.53922">
        <ele>45.4</ele>
        <time>2020-09-03T09:07:48Z</time>
      </trkpt>
      <trkpt lat="45.14299" lon="-0.53923">
        <ele>45.4</ele>
        <time>2020-09-03T09:07:50Z</time>
      </trkpt>
      <trkpt lat="45.14298" lon="-0.53925">
        <ele>45.4</ele>
        <time>2020-09-03T09:07:51Z</time>
      </trkpt>
      <trkpt lat="45.14297" lon="-0.53926">
        <ele>45.4</ele>
        <time>2020-09-03T09:07:52Z</time>
      </trkpt>
      <trkpt lat="45.14295" lon="-0.5393">
        <ele>45.4</ele>
        <time>2020-09-03T09:07:54Z</time>
      </trkpt>
      <trkpt lat="45.14294" lon="-0.53931">
        <ele>45.4</ele>
        <time>2020-09-03T09:07:55Z</time>
      </trkpt>
      <trkpt lat="45.14294" lon="-0.53933">
        <ele>45.4</ele>
        <time>2020-09-03T09:07:56Z</time>
      </trkpt>
      <trkpt lat="45.14293" lon="-0.53936">
        <ele>45.4</ele>
        <time>2020-09-03T09:07:57Z</time>
      </trkpt>
      <trkpt lat="45.14293" lon="-0.53939">
        <ele>45.4</ele>
        <time>2020-09-03T09:07:58Z</time>
      </trkpt>
      <trkpt lat="45.14292" lon="-0.5394">
        <ele>45.4</ele>
        <time>2020-09-03T09:07:59Z</time>
      </trkpt>
      <trkpt lat="45.14292" lon="-0.53941">
        <ele>45.4</ele>
        <time>2020-09-03T09:08:00Z</time>
      </trkpt>
      <trkpt lat="45.14292" lon="-0.53942">
        <ele>45.4</ele>
        <time>2020-09-03T09:08:01Z</time>
      </trkpt>
      <trkpt lat="45.14291" lon="-0.53944">
        <ele>45.4</ele>
        <time>2020-09-03T09:08:02Z</time>
      </trkpt>
      <trkpt lat="45.14291" lon="-0.53945">
        <ele>45.4</ele>
        <time>2020-09-03T09:08:03Z</time>
      </trkpt>
      <trkpt lat="45.1429" lon="-0.53947">
        <ele>45.4</ele>
        <time>2020-09-03T09:08:04Z</time>
      </trkpt>
      <trkpt lat="45.14289" lon="-0.53948">
        <ele>45.4</ele>
        <time>2020-09-03T09:08:05Z</time>
      </trkpt>
      <trkpt lat="45.14289" lon="-0.5395">
        <ele>45.4</ele>
        <time>2020-09-03T09:08:07Z</time>
      </trkpt>
      <trkpt lat="45.14288" lon="-0.53954">
        <ele>45.4</ele>
        <time>2020-09-03T09:08:08Z</time>
      </trkpt>
      <trkpt lat="45.14288" lon="-0.53955">
        <ele>45.4</ele>
        <time>2020-09-03T09:08:09Z</time>
      </trkpt>
      <trkpt lat="45.14287" lon="-0.53958">
        <ele>45.4</ele>
        <time>2020-09-03T09:08:11Z</time>
      </trkpt>
      <trkpt lat="45.14287" lon="-0.53959">
        <ele>45.4</ele>
        <time>2020-09-03T09:08:12Z</time>
      </trkpt>
      <trkpt lat="45.14286" lon="-0.53961">
        <ele>45.4</ele>
        <time>2020-09-03T09:08:13Z</time>
      </trkpt>
      <trkpt lat="45.14285" lon="-0.53964">
        <ele>45.4</ele>
        <time>2020-09-03T09:08:15Z</time>
      </trkpt>
      <trkpt lat="45.14284" lon="-0.53966">
        <ele>45.4</ele>
        <time>2020-09-03T09:08:16Z</time>
      </trkpt>
      <trkpt lat="45.14284" lon="-0.53967">
        <ele>45.4</ele>
        <time>2020-09-03T09:08:17Z</time>
      </trkpt>
      <trkpt lat="45.14283" lon="-0.53969">
        <ele>45.4</ele>
        <time>2020-09-03T09:08:18Z</time>
      </trkpt>
      <trkpt lat="45.14282" lon="-0.53971">
        <ele>45.4</ele>
        <time>2020-09-03T09:08:20Z</time>
      </trkpt>
      <trkpt lat="45.14281" lon="-0.53974">
        <ele>45.3</ele>
        <time>2020-09-03T09:08:21Z</time>
      </trkpt>
      <trkpt lat="45.14281" lon="-0.53975">
        <ele>45.3</ele>
        <time>2020-09-03T09:08:22Z</time>
      </trkpt>
      <trkpt lat="45.14281" lon="-0.53977">
        <ele>45.3</ele>
        <time>2020-09-03T09:08:23Z</time>
      </trkpt>
      <trkpt lat="45.14281" lon="-0.53979">
        <ele>45.3</ele>
        <time>2020-09-03T09:08:24Z</time>
      </trkpt>
      <trkpt lat="45.1428" lon="-0.5398">
        <ele>45.3</ele>
        <time>2020-09-03T09:08:26Z</time>
      </trkpt>
      <trkpt lat="45.1428" lon="-0.53981">
        <ele>45.3</ele>
        <time>2020-09-03T09:08:27Z</time>
      </trkpt>
      <trkpt lat="45.14279" lon="-0.53983">
        <ele>45.3</ele>
        <time>2020-09-03T09:08:28Z</time>
      </trkpt>
      <trkpt lat="45.14279" lon="-0.53984">
        <ele>45.3</ele>
        <time>2020-09-03T09:08:29Z</time>
      </trkpt>
      <trkpt lat="45.14278" lon="-0.53986">
        <ele>45.3</ele>
        <time>2020-09-03T09:08:30Z</time>
      </trkpt>
      <trkpt lat="45.14277" lon="-0.53987">
        <ele>45.2</ele>
        <time>2020-09-03T09:08:31Z</time>
      </trkpt>
      <trkpt lat="45.14277" lon="-0.53989">
        <ele>45.2</ele>
        <time>2020-09-03T09:08:33Z</time>
      </trkpt>
      <trkpt lat="45.14276" lon="-0.53992">
        <ele>45.2</ele>
        <time>2020-09-03T09:08:34Z</time>
      </trkpt>
      <trkpt lat="45.14276" lon="-0.53993">
        <ele>45.2</ele>
        <time>2020-09-03T09:08:35Z</time>
      </trkpt>
      <trkpt lat="45.14276" lon="-0.53994">
        <ele>45.2</ele>
        <time>2020-09-03T09:08:36Z</time>
      </trkpt>
      <trkpt lat="45.14275" lon="-0.53995">
        <ele>45.2</ele>
        <time>2020-09-03T09:08:37Z</time>
      </trkpt>
      <trkpt lat="45.14275" lon="-0.53997">
        <ele>45.2</ele>
        <time>2020-09-03T09:08:38Z</time>
      </trkpt>
      <trkpt lat="45.14274" lon="-0.53998">
        <ele>45.2</ele>
        <time>2020-09-03T09:08:39Z</time>
      </trkpt>
      <trkpt lat="45.14273" lon="-0.54001">
        <ele>45.2</ele>
        <time>2020-09-03T09:08:41Z</time>
      </trkpt>
      <trkpt lat="45.14273" lon="-0.54002">
        <ele>45.2</ele>
        <time>2020-09-03T09:08:42Z</time>
      </trkpt>
      <trkpt lat="45.14273" lon="-0.54003">
        <ele>45.2</ele>
        <time>2020-09-03T09:08:43Z</time>
      </trkpt>
      <trkpt lat="45.14272" lon="-0.54005">
        <ele>45.2</ele>
        <time>2020-09-03T09:08:44Z</time>
      </trkpt>
      <trkpt lat="45.14272" lon="-0.54007">
        <ele>45.2</ele>
        <time>2020-09-03T09:08:45Z</time>
      </trkpt>
      <trkpt lat="45.14271" lon="-0.54009">
        <ele>45.2</ele>
        <time>2020-09-03T09:08:46Z</time>
      </trkpt>
      <trkpt lat="45.14271" lon="-0.54012">
        <ele>45.2</ele>
        <time>2020-09-03T09:08:48Z</time>
      </trkpt>
      <trkpt lat="45.1427" lon="-0.54015">
        <ele>45.2</ele>
        <time>2020-09-03T09:08:49Z</time>
      </trkpt>
      <trkpt lat="45.1427" lon="-0.54016">
        <ele>45.1</ele>
        <time>2020-09-03T09:08:50Z</time>
      </trkpt>
      <trkpt lat="45.14269" lon="-0.54018">
        <ele>45.1</ele>
        <time>2020-09-03T09:08:51Z</time>
      </trkpt>
      <trkpt lat="45.14269" lon="-0.54019">
        <ele>45.1</ele>
        <time>2020-09-03T09:08:53Z</time>
      </trkpt>
      <trkpt lat="45.14268" lon="-0.54022">
        <ele>45.1</ele>
        <time>2020-09-03T09:08:54Z</time>
      </trkpt>
      <trkpt lat="45.14267" lon="-0.54023">
        <ele>45.1</ele>
        <time>2020-09-03T09:08:55Z</time>
      </trkpt>
      <trkpt lat="45.14267" lon="-0.54025">
        <ele>45.1</ele>
        <time>2020-09-03T09:08:57Z</time>
      </trkpt>
      <trkpt lat="45.14266" lon="-0.54027">
        <ele>45.1</ele>
        <time>2020-09-03T09:08:59Z</time>
      </trkpt>
      <trkpt lat="45.14265" lon="-0.54028">
        <ele>45.1</ele>
        <time>2020-09-03T09:09:00Z</time>
      </trkpt>
      <trkpt lat="45.14264" lon="-0.54031">
        <ele>45.1</ele>
        <time>2020-09-03T09:09:02Z</time>
      </trkpt>
      <trkpt lat="45.14263" lon="-0.54032">
        <ele>45.1</ele>
        <time>2020-09-03T09:09:03Z</time>
      </trkpt>
      <trkpt lat="45.14263" lon="-0.54034">
        <ele>45.2</ele>
        <time>2020-09-03T09:09:04Z</time>
      </trkpt>
      <trkpt lat="45.14262" lon="-0.54036">
        <ele>45.2</ele>
        <time>2020-09-03T09:09:06Z</time>
      </trkpt>
      <trkpt lat="45.14262" lon="-0.54037">
        <ele>45.2</ele>
        <time>2020-09-03T09:09:07Z</time>
      </trkpt>
      <trkpt lat="45.14261" lon="-0.5404">
        <ele>45.2</ele>
        <time>2020-09-03T09:09:09Z</time>
      </trkpt>
      <trkpt lat="45.1426" lon="-0.54042">
        <ele>45.2</ele>
        <time>2020-09-03T09:09:10Z</time>
      </trkpt>
      <trkpt lat="45.14259" lon="-0.54044">
        <ele>45.2</ele>
        <time>2020-09-03T09:09:11Z</time>
      </trkpt>
      <trkpt lat="45.14258" lon="-0.54046">
        <ele>45.2</ele>
        <time>2020-09-03T09:09:12Z</time>
      </trkpt>
      <trkpt lat="45.14258" lon="-0.54047">
        <ele>45.2</ele>
        <time>2020-09-03T09:09:13Z</time>
      </trkpt>
      <trkpt lat="45.14256" lon="-0.54051">
        <ele>45.3</ele>
        <time>2020-09-03T09:09:14Z</time>
      </trkpt>
      <trkpt lat="45.14255" lon="-0.54052">
        <ele>45.3</ele>
        <time>2020-09-03T09:09:16Z</time>
      </trkpt>
      <trkpt lat="45.14255" lon="-0.54054">
        <ele>45.3</ele>
        <time>2020-09-03T09:09:17Z</time>
      </trkpt>
      <trkpt lat="45.14254" lon="-0.54055">
        <ele>45.3</ele>
        <time>2020-09-03T09:09:18Z</time>
      </trkpt>
      <trkpt lat="45.14252" lon="-0.54058">
        <ele>45.3</ele>
        <time>2020-09-03T09:09:20Z</time>
      </trkpt>
      <trkpt lat="45.14251" lon="-0.5406">
        <ele>45.3</ele>
        <time>2020-09-03T09:09:21Z</time>
      </trkpt>
      <trkpt lat="45.1425" lon="-0.54061">
        <ele>45.3</ele>
        <time>2020-09-03T09:09:22Z</time>
      </trkpt>
      <trkpt lat="45.1425" lon="-0.54062">
        <ele>45.3</ele>
        <time>2020-09-03T09:09:23Z</time>
      </trkpt>
      <trkpt lat="45.14249" lon="-0.54064">
        <ele>45.3</ele>
        <time>2020-09-03T09:09:25Z</time>
      </trkpt>
      <trkpt lat="45.14248" lon="-0.54064">
        <ele>45.3</ele>
        <time>2020-09-03T09:09:26Z</time>
      </trkpt>
      <trkpt lat="45.14247" lon="-0.54065">
        <ele>45.3</ele>
        <time>2020-09-03T09:09:27Z</time>
      </trkpt>
      <trkpt lat="45.14245" lon="-0.54066">
        <ele>45.3</ele>
        <time>2020-09-03T09:09:29Z</time>
      </trkpt>
      <trkpt lat="45.14244" lon="-0.54068">
        <ele>45.3</ele>
        <time>2020-09-03T09:09:30Z</time>
      </trkpt>
      <trkpt lat="45.14243" lon="-0.54068">
        <ele>45.3</ele>
        <time>2020-09-03T09:09:31Z</time>
      </trkpt>
      <trkpt lat="45.14242" lon="-0.54069">
        <ele>45.3</ele>
        <time>2020-09-03T09:09:32Z</time>
      </trkpt>
      <trkpt lat="45.14241" lon="-0.54071">
        <ele>45.3</ele>
        <time>2020-09-03T09:09:34Z</time>
      </trkpt>
      <trkpt lat="45.1424" lon="-0.54072">
        <ele>45.2</ele>
        <time>2020-09-03T09:09:35Z</time>
      </trkpt>
      <trkpt lat="45.14238" lon="-0.54072">
        <ele>45.2</ele>
        <time>2020-09-03T09:09:36Z</time>
      </trkpt>
      <trkpt lat="45.14237" lon="-0.54073">
        <ele>45.1</ele>
        <time>2020-09-03T09:09:38Z</time>
      </trkpt>
      <trkpt lat="45.14235" lon="-0.54074">
        <ele>45.1</ele>
        <time>2020-09-03T09:09:39Z</time>
      </trkpt>
      <trkpt lat="45.14233" lon="-0.54075">
        <ele>45</ele>
        <time>2020-09-03T09:09:40Z</time>
      </trkpt>
      <trkpt lat="45.14232" lon="-0.54076">
        <ele>45</ele>
        <time>2020-09-03T09:09:41Z</time>
      </trkpt>
      <trkpt lat="45.14231" lon="-0.54077">
        <ele>45</ele>
        <time>2020-09-03T09:09:43Z</time>
      </trkpt>
      <trkpt lat="45.1423" lon="-0.54079">
        <ele>44.9</ele>
        <time>2020-09-03T09:09:44Z</time>
      </trkpt>
      <trkpt lat="45.14229" lon="-0.54079">
        <ele>44.9</ele>
        <time>2020-09-03T09:09:45Z</time>
      </trkpt>
      <trkpt lat="45.14228" lon="-0.54081">
        <ele>44.8</ele>
        <time>2020-09-03T09:09:46Z</time>
      </trkpt>
      <trkpt lat="45.14226" lon="-0.54083">
        <ele>44.8</ele>
        <time>2020-09-03T09:09:48Z</time>
      </trkpt>
      <trkpt lat="45.14225" lon="-0.54085">
        <ele>44.7</ele>
        <time>2020-09-03T09:09:50Z</time>
      </trkpt>
      <trkpt lat="45.14224" lon="-0.54086">
        <ele>44.7</ele>
        <time>2020-09-03T09:09:51Z</time>
      </trkpt>
      <trkpt lat="45.14222" lon="-0.54087">
        <ele>44.7</ele>
        <time>2020-09-03T09:09:52Z</time>
      </trkpt>
      <trkpt lat="45.14222" lon="-0.54088">
        <ele>44.6</ele>
        <time>2020-09-03T09:09:53Z</time>
      </trkpt>
      <trkpt lat="45.14221" lon="-0.5409">
        <ele>44.6</ele>
        <time>2020-09-03T09:09:55Z</time>
      </trkpt>
      <trkpt lat="45.1422" lon="-0.54091">
        <ele>44.6</ele>
        <time>2020-09-03T09:09:56Z</time>
      </trkpt>
      <trkpt lat="45.14219" lon="-0.54091">
        <ele>44.5</ele>
        <time>2020-09-03T09:09:57Z</time>
      </trkpt>
      <trkpt lat="45.14217" lon="-0.54093">
        <ele>44.5</ele>
        <time>2020-09-03T09:09:59Z</time>
      </trkpt>
      <trkpt lat="45.14216" lon="-0.54093">
        <ele>44.5</ele>
        <time>2020-09-03T09:10:00Z</time>
      </trkpt>
      <trkpt lat="45.14215" lon="-0.54094">
        <ele>44.4</ele>
        <time>2020-09-03T09:10:01Z</time>
      </trkpt>
      <trkpt lat="45.14214" lon="-0.54095">
        <ele>44.4</ele>
        <time>2020-09-03T09:10:02Z</time>
      </trkpt>
      <trkpt lat="45.14213" lon="-0.54096">
        <ele>44.4</ele>
        <time>2020-09-03T09:10:03Z</time>
      </trkpt>
      <trkpt lat="45.14212" lon="-0.54098">
        <ele>44.4</ele>
        <time>2020-09-03T09:10:04Z</time>
      </trkpt>
      <trkpt lat="45.1421" lon="-0.54099">
        <ele>44.3</ele>
        <time>2020-09-03T09:10:06Z</time>
      </trkpt>
      <trkpt lat="45.14209" lon="-0.541">
        <ele>44.3</ele>
        <time>2020-09-03T09:10:07Z</time>
      </trkpt>
      <trkpt lat="45.14209" lon="-0.54101">
        <ele>44.3</ele>
        <time>2020-09-03T09:10:08Z</time>
      </trkpt>
      <trkpt lat="45.14207" lon="-0.54102">
        <ele>44.3</ele>
        <time>2020-09-03T09:10:09Z</time>
      </trkpt>
      <trkpt lat="45.14206" lon="-0.54104">
        <ele>44.2</ele>
        <time>2020-09-03T09:10:11Z</time>
      </trkpt>
      <trkpt lat="45.14205" lon="-0.54105">
        <ele>44.2</ele>
        <time>2020-09-03T09:10:12Z</time>
      </trkpt>
      <trkpt lat="45.14203" lon="-0.54107">
        <ele>44.2</ele>
        <time>2020-09-03T09:10:13Z</time>
      </trkpt>
      <trkpt lat="45.14201" lon="-0.54108">
        <ele>44.2</ele>
        <time>2020-09-03T09:10:15Z</time>
      </trkpt>
      <trkpt lat="45.14201" lon="-0.54109">
        <ele>44.2</ele>
        <time>2020-09-03T09:10:16Z</time>
      </trkpt>
      <trkpt lat="45.142" lon="-0.54109">
        <ele>44.2</ele>
        <time>2020-09-03T09:10:17Z</time>
      </trkpt>
      <trkpt lat="45.14198" lon="-0.54111">
        <ele>44.2</ele>
        <time>2020-09-03T09:10:18Z</time>
      </trkpt>
      <trkpt lat="45.14197" lon="-0.54112">
        <ele>44.2</ele>
        <time>2020-09-03T09:10:19Z</time>
      </trkpt>
      <trkpt lat="45.14196" lon="-0.54112">
        <ele>44.2</ele>
        <time>2020-09-03T09:10:21Z</time>
      </trkpt>
      <trkpt lat="45.14195" lon="-0.54113">
        <ele>44.2</ele>
        <time>2020-09-03T09:10:22Z</time>
      </trkpt>
      <trkpt lat="45.14195" lon="-0.54114">
        <ele>44.2</ele>
        <time>2020-09-03T09:10:23Z</time>
      </trkpt>
      <trkpt lat="45.14194" lon="-0.54114">
        <ele>44.2</ele>
        <time>2020-09-03T09:10:24Z</time>
      </trkpt>
      <trkpt lat="45.14193" lon="-0.54115">
        <ele>44.2</ele>
        <time>2020-09-03T09:10:25Z</time>
      </trkpt>
      <trkpt lat="45.14191" lon="-0.54116">
        <ele>44.1</ele>
        <time>2020-09-03T09:10:26Z</time>
      </trkpt>
      <trkpt lat="45.1419" lon="-0.54117">
        <ele>44.1</ele>
        <time>2020-09-03T09:10:27Z</time>
      </trkpt>
      <trkpt lat="45.14188" lon="-0.54118">
        <ele>44.1</ele>
        <time>2020-09-03T09:10:28Z</time>
      </trkpt>
      <trkpt lat="45.14186" lon="-0.5412">
        <ele>44.1</ele>
        <time>2020-09-03T09:10:29Z</time>
      </trkpt>
      <trkpt lat="45.14185" lon="-0.54121">
        <ele>44.1</ele>
        <time>2020-09-03T09:10:31Z</time>
      </trkpt>
      <trkpt lat="45.14184" lon="-0.54121">
        <ele>44.1</ele>
        <time>2020-09-03T09:10:32Z</time>
      </trkpt>
      <trkpt lat="45.14183" lon="-0.54122">
        <ele>44.1</ele>
        <time>2020-09-03T09:10:33Z</time>
      </trkpt>
      <trkpt lat="45.14182" lon="-0.54122">
        <ele>44.1</ele>
        <time>2020-09-03T09:10:34Z</time>
      </trkpt>
      <trkpt lat="45.1418" lon="-0.54124">
        <ele>44.1</ele>
        <time>2020-09-03T09:10:35Z</time>
      </trkpt>
      <trkpt lat="45.1418" lon="-0.54125">
        <ele>44.1</ele>
        <time>2020-09-03T09:10:36Z</time>
      </trkpt>
      <trkpt lat="45.14179" lon="-0.54126">
        <ele>44.1</ele>
        <time>2020-09-03T09:10:37Z</time>
      </trkpt>
      <trkpt lat="45.14177" lon="-0.54127">
        <ele>44.1</ele>
        <time>2020-09-03T09:10:38Z</time>
      </trkpt>
      <trkpt lat="45.14176" lon="-0.54128">
        <ele>44.1</ele>
        <time>2020-09-03T09:10:40Z</time>
      </trkpt>
      <trkpt lat="45.14176" lon="-0.54129">
        <ele>44.1</ele>
        <time>2020-09-03T09:10:41Z</time>
      </trkpt>
      <trkpt lat="45.14174" lon="-0.5413">
        <ele>44.1</ele>
        <time>2020-09-03T09:10:43Z</time>
      </trkpt>
      <trkpt lat="45.14173" lon="-0.5413">
        <ele>44.1</ele>
        <time>2020-09-03T09:10:44Z</time>
      </trkpt>
      <trkpt lat="45.14172" lon="-0.54131">
        <ele>44.1</ele>
        <time>2020-09-03T09:10:45Z</time>
      </trkpt>
      <trkpt lat="45.14171" lon="-0.54132">
        <ele>44.1</ele>
        <time>2020-09-03T09:10:46Z</time>
      </trkpt>
      <trkpt lat="45.1417" lon="-0.54133">
        <ele>44.2</ele>
        <time>2020-09-03T09:10:48Z</time>
      </trkpt>
      <trkpt lat="45.14169" lon="-0.54134">
        <ele>44.2</ele>
        <time>2020-09-03T09:10:49Z</time>
      </trkpt>
      <trkpt lat="45.14167" lon="-0.54135">
        <ele>44.2</ele>
        <time>2020-09-03T09:10:50Z</time>
      </trkpt>
      <trkpt lat="45.14166" lon="-0.54137">
        <ele>44.2</ele>
        <time>2020-09-03T09:10:51Z</time>
      </trkpt>
      <trkpt lat="45.14165" lon="-0.54138">
        <ele>44.2</ele>
        <time>2020-09-03T09:10:52Z</time>
      </trkpt>
      <trkpt lat="45.14163" lon="-0.5414">
        <ele>44.2</ele>
        <time>2020-09-03T09:10:53Z</time>
      </trkpt>
      <trkpt lat="45.14162" lon="-0.5414">
        <ele>44.2</ele>
        <time>2020-09-03T09:10:54Z</time>
      </trkpt>
      <trkpt lat="45.1416" lon="-0.54142">
        <ele>44.2</ele>
        <time>2020-09-03T09:10:56Z</time>
      </trkpt>
      <trkpt lat="45.14159" lon="-0.54142">
        <ele>44.2</ele>
        <time>2020-09-03T09:10:57Z</time>
      </trkpt>
      <trkpt lat="45.14157" lon="-0.54143">
        <ele>44.2</ele>
        <time>2020-09-03T09:10:58Z</time>
      </trkpt>
      <trkpt lat="45.14156" lon="-0.54144">
        <ele>44.2</ele>
        <time>2020-09-03T09:10:59Z</time>
      </trkpt>
      <trkpt lat="45.14154" lon="-0.54145">
        <ele>44.3</ele>
        <time>2020-09-03T09:11:01Z</time>
      </trkpt>
      <trkpt lat="45.14153" lon="-0.54146">
        <ele>44.3</ele>
        <time>2020-09-03T09:11:02Z</time>
      </trkpt>
      <trkpt lat="45.14152" lon="-0.54147">
        <ele>44.3</ele>
        <time>2020-09-03T09:11:03Z</time>
      </trkpt>
      <trkpt lat="45.14151" lon="-0.54148">
        <ele>44.3</ele>
        <time>2020-09-03T09:11:04Z</time>
      </trkpt>
      <trkpt lat="45.1415" lon="-0.54149">
        <ele>44.3</ele>
        <time>2020-09-03T09:11:05Z</time>
      </trkpt>
      <trkpt lat="45.14149" lon="-0.5415">
        <ele>44.3</ele>
        <time>2020-09-03T09:11:06Z</time>
      </trkpt>
      <trkpt lat="45.14149" lon="-0.54151">
        <ele>44.3</ele>
        <time>2020-09-03T09:11:07Z</time>
      </trkpt>
      <trkpt lat="45.14147" lon="-0.54152">
        <ele>44.3</ele>
        <time>2020-09-03T09:11:08Z</time>
      </trkpt>
      <trkpt lat="45.14146" lon="-0.54154">
        <ele>44.3</ele>
        <time>2020-09-03T09:11:09Z</time>
      </trkpt>
      <trkpt lat="45.14145" lon="-0.54154">
        <ele>44.3</ele>
        <time>2020-09-03T09:11:10Z</time>
      </trkpt>
      <trkpt lat="45.14144" lon="-0.54155">
        <ele>44.3</ele>
        <time>2020-09-03T09:11:11Z</time>
      </trkpt>
      <trkpt lat="45.14143" lon="-0.54156">
        <ele>44.4</ele>
        <time>2020-09-03T09:11:12Z</time>
      </trkpt>
      <trkpt lat="45.14142" lon="-0.54157">
        <ele>44.4</ele>
        <time>2020-09-03T09:11:13Z</time>
      </trkpt>
      <trkpt lat="45.14141" lon="-0.54157">
        <ele>44.4</ele>
        <time>2020-09-03T09:11:14Z</time>
      </trkpt>
      <trkpt lat="45.14139" lon="-0.54159">
        <ele>44.4</ele>
        <time>2020-09-03T09:11:15Z</time>
      </trkpt>
      <trkpt lat="45.14139" lon="-0.5416">
        <ele>44.4</ele>
        <time>2020-09-03T09:11:16Z</time>
      </trkpt>
      <trkpt lat="45.14138" lon="-0.5416">
        <ele>44.4</ele>
        <time>2020-09-03T09:11:18Z</time>
      </trkpt>
      <trkpt lat="45.14137" lon="-0.54161">
        <ele>44.4</ele>
        <time>2020-09-03T09:11:19Z</time>
      </trkpt>
      <trkpt lat="45.14136" lon="-0.54162">
        <ele>44.5</ele>
        <time>2020-09-03T09:11:20Z</time>
      </trkpt>
      <trkpt lat="45.14135" lon="-0.54162">
        <ele>44.5</ele>
        <time>2020-09-03T09:11:21Z</time>
      </trkpt>
      <trkpt lat="45.14133" lon="-0.54163">
        <ele>44.5</ele>
        <time>2020-09-03T09:11:22Z</time>
      </trkpt>
      <trkpt lat="45.14132" lon="-0.54164">
        <ele>44.5</ele>
        <time>2020-09-03T09:11:24Z</time>
      </trkpt>
      <trkpt lat="45.14131" lon="-0.54165">
        <ele>44.6</ele>
        <time>2020-09-03T09:11:25Z</time>
      </trkpt>
      <trkpt lat="45.1413" lon="-0.54165">
        <ele>44.6</ele>
        <time>2020-09-03T09:11:26Z</time>
      </trkpt>
      <trkpt lat="45.14128" lon="-0.54166">
        <ele>44.6</ele>
        <time>2020-09-03T09:11:28Z</time>
      </trkpt>
      <trkpt lat="45.14127" lon="-0.54167">
        <ele>44.6</ele>
        <time>2020-09-03T09:11:29Z</time>
      </trkpt>
      <trkpt lat="45.14126" lon="-0.54169">
        <ele>44.7</ele>
        <time>2020-09-03T09:11:30Z</time>
      </trkpt>
      <trkpt lat="45.14124" lon="-0.5417">
        <ele>44.7</ele>
        <time>2020-09-03T09:11:31Z</time>
      </trkpt>
      <trkpt lat="45.14123" lon="-0.54171">
        <ele>44.7</ele>
        <time>2020-09-03T09:11:32Z</time>
      </trkpt>
      <trkpt lat="45.14122" lon="-0.54172">
        <ele>44.7</ele>
        <time>2020-09-03T09:11:33Z</time>
      </trkpt>
      <trkpt lat="45.14121" lon="-0.54173">
        <ele>44.7</ele>
        <time>2020-09-03T09:11:35Z</time>
      </trkpt>
      <trkpt lat="45.14119" lon="-0.54174">
        <ele>44.7</ele>
        <time>2020-09-03T09:11:36Z</time>
      </trkpt>
      <trkpt lat="45.14118" lon="-0.54175">
        <ele>44.7</ele>
        <time>2020-09-03T09:11:37Z</time>
      </trkpt>
      <trkpt lat="45.14117" lon="-0.54176">
        <ele>44.7</ele>
        <time>2020-09-03T09:11:38Z</time>
      </trkpt>
      <trkpt lat="45.14115" lon="-0.54177">
        <ele>44.8</ele>
        <time>2020-09-03T09:11:39Z</time>
      </trkpt>
      <trkpt lat="45.14114" lon="-0.54178">
        <ele>44.8</ele>
        <time>2020-09-03T09:11:40Z</time>
      </trkpt>
      <trkpt lat="45.14112" lon="-0.5418">
        <ele>44.8</ele>
        <time>2020-09-03T09:11:41Z</time>
      </trkpt>
      <trkpt lat="45.14111" lon="-0.5418">
        <ele>44.8</ele>
        <time>2020-09-03T09:11:43Z</time>
      </trkpt>
      <trkpt lat="45.1411" lon="-0.54181">
        <ele>44.8</ele>
        <time>2020-09-03T09:11:44Z</time>
      </trkpt>
      <trkpt lat="45.14109" lon="-0.54181">
        <ele>44.8</ele>
        <time>2020-09-03T09:11:45Z</time>
      </trkpt>
      <trkpt lat="45.14108" lon="-0.54182">
        <ele>44.8</ele>
        <time>2020-09-03T09:11:46Z</time>
      </trkpt>
      <trkpt lat="45.14106" lon="-0.54182">
        <ele>44.8</ele>
        <time>2020-09-03T09:11:47Z</time>
      </trkpt>
      <trkpt lat="45.14105" lon="-0.54183">
        <ele>44.8</ele>
        <time>2020-09-03T09:11:48Z</time>
      </trkpt>
      <trkpt lat="45.14103" lon="-0.54184">
        <ele>44.9</ele>
        <time>2020-09-03T09:11:50Z</time>
      </trkpt>
      <trkpt lat="45.14102" lon="-0.54186">
        <ele>44.9</ele>
        <time>2020-09-03T09:11:51Z</time>
      </trkpt>
      <trkpt lat="45.14101" lon="-0.54187">
        <ele>44.9</ele>
        <time>2020-09-03T09:11:52Z</time>
      </trkpt>
      <trkpt lat="45.14098" lon="-0.54189">
        <ele>44.9</ele>
        <time>2020-09-03T09:11:54Z</time>
      </trkpt>
      <trkpt lat="45.14097" lon="-0.5419">
        <ele>45</ele>
        <time>2020-09-03T09:11:55Z</time>
      </trkpt>
      <trkpt lat="45.14095" lon="-0.54191">
        <ele>45</ele>
        <time>2020-09-03T09:11:56Z</time>
      </trkpt>
      <trkpt lat="45.14093" lon="-0.54191">
        <ele>45</ele>
        <time>2020-09-03T09:11:57Z</time>
      </trkpt>
      <trkpt lat="45.14093" lon="-0.54192">
        <ele>45</ele>
        <time>2020-09-03T09:11:58Z</time>
      </trkpt>
      <trkpt lat="45.14092" lon="-0.54192">
        <ele>45</ele>
        <time>2020-09-03T09:11:59Z</time>
      </trkpt>
      <trkpt lat="45.14089" lon="-0.54192">
        <ele>45</ele>
        <time>2020-09-03T09:12:01Z</time>
      </trkpt>
      <trkpt lat="45.14088" lon="-0.54192">
        <ele>45</ele>
        <time>2020-09-03T09:12:02Z</time>
      </trkpt>
      <trkpt lat="45.14087" lon="-0.54192">
        <ele>45.1</ele>
        <time>2020-09-03T09:12:03Z</time>
      </trkpt>
      <trkpt lat="45.14086" lon="-0.54192">
        <ele>45.1</ele>
        <time>2020-09-03T09:12:05Z</time>
      </trkpt>
      <trkpt lat="45.14085" lon="-0.54192">
        <ele>45.1</ele>
        <time>2020-09-03T09:12:06Z</time>
      </trkpt>
      <trkpt lat="45.14083" lon="-0.54193">
        <ele>45.1</ele>
        <time>2020-09-03T09:12:07Z</time>
      </trkpt>
      <trkpt lat="45.14082" lon="-0.54193">
        <ele>45.1</ele>
        <time>2020-09-03T09:12:09Z</time>
      </trkpt>
      <trkpt lat="45.14081" lon="-0.54194">
        <ele>45.1</ele>
        <time>2020-09-03T09:12:10Z</time>
      </trkpt>
      <trkpt lat="45.1408" lon="-0.54194">
        <ele>45.1</ele>
        <time>2020-09-03T09:12:11Z</time>
      </trkpt>
      <trkpt lat="45.14078" lon="-0.54195">
        <ele>45.2</ele>
        <time>2020-09-03T09:12:12Z</time>
      </trkpt>
      <trkpt lat="45.14077" lon="-0.54196">
        <ele>45.2</ele>
        <time>2020-09-03T09:12:13Z</time>
      </trkpt>
      <trkpt lat="45.14076" lon="-0.54197">
        <ele>45.2</ele>
        <time>2020-09-03T09:12:14Z</time>
      </trkpt>
      <trkpt lat="45.14075" lon="-0.54198">
        <ele>45.2</ele>
        <time>2020-09-03T09:12:16Z</time>
      </trkpt>
      <trkpt lat="45.14073" lon="-0.54199">
        <ele>45.2</ele>
        <time>2020-09-03T09:12:17Z</time>
      </trkpt>
      <trkpt lat="45.14072" lon="-0.542">
        <ele>45.2</ele>
        <time>2020-09-03T09:12:18Z</time>
      </trkpt>
      <trkpt lat="45.14071" lon="-0.54201">
        <ele>45.2</ele>
        <time>2020-09-03T09:12:19Z</time>
      </trkpt>
      <trkpt lat="45.1407" lon="-0.54201">
        <ele>45.2</ele>
        <time>2020-09-03T09:12:20Z</time>
      </trkpt>
      <trkpt lat="45.14069" lon="-0.54202">
        <ele>45.2</ele>
        <time>2020-09-03T09:12:22Z</time>
      </trkpt>
      <trkpt lat="45.14066" lon="-0.54203">
        <ele>45.2</ele>
        <time>2020-09-03T09:12:23Z</time>
      </trkpt>
      <trkpt lat="45.14066" lon="-0.54203">
        <ele>45.2</ele>
        <time>2020-09-03T09:12:24Z</time>
      </trkpt>
      <trkpt lat="45.14065" lon="-0.54204">
        <ele>45.2</ele>
        <time>2020-09-03T09:12:25Z</time>
      </trkpt>
      <trkpt lat="45.14063" lon="-0.54204">
        <ele>45.2</ele>
        <time>2020-09-03T09:12:26Z</time>
      </trkpt>
      <trkpt lat="45.14062" lon="-0.54204">
        <ele>45.3</ele>
        <time>2020-09-03T09:12:28Z</time>
      </trkpt>
      <trkpt lat="45.14061" lon="-0.54204">
        <ele>45.3</ele>
        <time>2020-09-03T09:12:29Z</time>
      </trkpt>
      <trkpt lat="45.14059" lon="-0.54204">
        <ele>45.3</ele>
        <time>2020-09-03T09:12:30Z</time>
      </trkpt>
      <trkpt lat="45.14057" lon="-0.54204">
        <ele>45.3</ele>
        <time>2020-09-03T09:12:32Z</time>
      </trkpt>
      <trkpt lat="45.14056" lon="-0.54205">
        <ele>45.3</ele>
        <time>2020-09-03T09:12:33Z</time>
      </trkpt>
      <trkpt lat="45.14055" lon="-0.54205">
        <ele>45.3</ele>
        <time>2020-09-03T09:12:34Z</time>
      </trkpt>
      <trkpt lat="45.14054" lon="-0.54205">
        <ele>45.3</ele>
        <time>2020-09-03T09:12:35Z</time>
      </trkpt>
      <trkpt lat="45.14053" lon="-0.54206">
        <ele>45.3</ele>
        <time>2020-09-03T09:12:36Z</time>
      </trkpt>
      <trkpt lat="45.14052" lon="-0.54206">
        <ele>45.3</ele>
        <time>2020-09-03T09:12:37Z</time>
      </trkpt>
      <trkpt lat="45.14051" lon="-0.54206">
        <ele>45.3</ele>
        <time>2020-09-03T09:12:38Z</time>
      </trkpt>
      <trkpt lat="45.1405" lon="-0.54207">
        <ele>45.3</ele>
        <time>2020-09-03T09:12:39Z</time>
      </trkpt>
      <trkpt lat="45.14049" lon="-0.54208">
        <ele>45.3</ele>
        <time>2020-09-03T09:12:40Z</time>
      </trkpt>
      <trkpt lat="45.14047" lon="-0.54209">
        <ele>45.3</ele>
        <time>2020-09-03T09:12:41Z</time>
      </trkpt>
      <trkpt lat="45.14047" lon="-0.5421">
        <ele>45.3</ele>
        <time>2020-09-03T09:12:43Z</time>
      </trkpt>
      <trkpt lat="45.14045" lon="-0.54214">
        <ele>45.3</ele>
        <time>2020-09-03T09:12:45Z</time>
      </trkpt>
      <trkpt lat="45.14045" lon="-0.54216">
        <ele>45.3</ele>
        <time>2020-09-03T09:12:46Z</time>
      </trkpt>
      <trkpt lat="45.14045" lon="-0.54218">
        <ele>45.3</ele>
        <time>2020-09-03T09:12:47Z</time>
      </trkpt>
      <trkpt lat="45.14045" lon="-0.5422">
        <ele>45.2</ele>
        <time>2020-09-03T09:12:48Z</time>
      </trkpt>
      <trkpt lat="45.14045" lon="-0.54225">
        <ele>45.2</ele>
        <time>2020-09-03T09:12:50Z</time>
      </trkpt>
      <trkpt lat="45.14045" lon="-0.54229">
        <ele>45.1</ele>
        <time>2020-09-03T09:12:51Z</time>
      </trkpt>
      <trkpt lat="45.14044" lon="-0.54233">
        <ele>45</ele>
        <time>2020-09-03T09:12:52Z</time>
      </trkpt>
      <trkpt lat="45.14044" lon="-0.54234">
        <ele>45</ele>
        <time>2020-09-03T09:12:53Z</time>
      </trkpt>
      <trkpt lat="45.14044" lon="-0.54238">
        <ele>44.9</ele>
        <time>2020-09-03T09:12:55Z</time>
      </trkpt>
      <trkpt lat="45.14044" lon="-0.54239">
        <ele>44.9</ele>
        <time>2020-09-03T09:12:56Z</time>
      </trkpt>
      <trkpt lat="45.14044" lon="-0.54241">
        <ele>44.8</ele>
        <time>2020-09-03T09:12:57Z</time>
      </trkpt>
      <trkpt lat="45.14044" lon="-0.54243">
        <ele>44.8</ele>
        <time>2020-09-03T09:12:58Z</time>
      </trkpt>
      <trkpt lat="45.14044" lon="-0.54245">
        <ele>44.7</ele>
        <time>2020-09-03T09:12:59Z</time>
      </trkpt>
      <trkpt lat="45.14044" lon="-0.54247">
        <ele>44.7</ele>
        <time>2020-09-03T09:13:01Z</time>
      </trkpt>
      <trkpt lat="45.14044" lon="-0.5425">
        <ele>44.6</ele>
        <time>2020-09-03T09:13:02Z</time>
      </trkpt>
      <trkpt lat="45.14043" lon="-0.54252">
        <ele>44.6</ele>
        <time>2020-09-03T09:13:03Z</time>
      </trkpt>
      <trkpt lat="45.14044" lon="-0.54254">
        <ele>44.5</ele>
        <time>2020-09-03T09:13:04Z</time>
      </trkpt>
      <trkpt lat="45.14044" lon="-0.54256">
        <ele>44.5</ele>
        <time>2020-09-03T09:13:05Z</time>
      </trkpt>
      <trkpt lat="45.14044" lon="-0.54258">
        <ele>44.5</ele>
        <time>2020-09-03T09:13:07Z</time>
      </trkpt>
      <trkpt lat="45.14043" lon="-0.54261">
        <ele>44.4</ele>
        <time>2020-09-03T09:13:09Z</time>
      </trkpt>
      <trkpt lat="45.14043" lon="-0.54263">
        <ele>44.2</ele>
        <time>2020-09-03T09:13:10Z</time>
      </trkpt>
      <trkpt lat="45.14043" lon="-0.54265">
        <ele>44.2</ele>
        <time>2020-09-03T09:13:11Z</time>
      </trkpt>
      <trkpt lat="45.14043" lon="-0.54267">
        <ele>44.1</ele>
        <time>2020-09-03T09:13:13Z</time>
      </trkpt>
      <trkpt lat="45.14043" lon="-0.54268">
        <ele>44.1</ele>
        <time>2020-09-03T09:13:14Z</time>
      </trkpt>
      <trkpt lat="45.14043" lon="-0.5427">
        <ele>44.1</ele>
        <time>2020-09-03T09:13:15Z</time>
      </trkpt>
      <trkpt lat="45.14042" lon="-0.54273">
        <ele>44</ele>
        <time>2020-09-03T09:13:16Z</time>
      </trkpt>
      <trkpt lat="45.14042" lon="-0.54274">
        <ele>44</ele>
        <time>2020-09-03T09:13:18Z</time>
      </trkpt>
      <trkpt lat="45.14041" lon="-0.54276">
        <ele>43.8</ele>
        <time>2020-09-03T09:13:19Z</time>
      </trkpt>
      <trkpt lat="45.14041" lon="-0.54278">
        <ele>43.8</ele>
        <time>2020-09-03T09:13:20Z</time>
      </trkpt>
      <trkpt lat="45.1404" lon="-0.5428">
        <ele>43.6</ele>
        <time>2020-09-03T09:13:21Z</time>
      </trkpt>
      <trkpt lat="45.1404" lon="-0.54281">
        <ele>43.6</ele>
        <time>2020-09-03T09:13:22Z</time>
      </trkpt>
      <trkpt lat="45.1404" lon="-0.54283">
        <ele>43.7</ele>
        <time>2020-09-03T09:13:23Z</time>
      </trkpt>
      <trkpt lat="45.14039" lon="-0.54285">
        <ele>43.6</ele>
        <time>2020-09-03T09:13:25Z</time>
      </trkpt>
      <trkpt lat="45.14038" lon="-0.54286">
        <ele>43.6</ele>
        <time>2020-09-03T09:13:26Z</time>
      </trkpt>
      <trkpt lat="45.14038" lon="-0.54288">
        <ele>43.6</ele>
        <time>2020-09-03T09:13:27Z</time>
      </trkpt>
      <trkpt lat="45.14038" lon="-0.54289">
        <ele>43.4</ele>
        <time>2020-09-03T09:13:28Z</time>
      </trkpt>
      <trkpt lat="45.14038" lon="-0.54292">
        <ele>43.4</ele>
        <time>2020-09-03T09:13:30Z</time>
      </trkpt>
      <trkpt lat="45.14038" lon="-0.5429">
        <ele>43.4</ele>
        <time>2020-09-03T09:13:32Z</time>
      </trkpt>
      <trkpt lat="45.14038" lon="-0.5429">
        <ele>43.4</ele>
        <time>2020-09-03T09:13:33Z</time>
      </trkpt>
      <trkpt lat="45.14038" lon="-0.5429">
        <ele>43.4</ele>
        <time>2020-09-03T09:13:34Z</time>
      </trkpt>
      <trkpt lat="45.14038" lon="-0.5429">
        <ele>43.4</ele>
        <time>2020-09-03T09:13:35Z</time>
      </trkpt>
      <trkpt lat="45.14037" lon="-0.54289">
        <ele>43.4</ele>
        <time>2020-09-03T09:13:37Z</time>
      </trkpt>
      <trkpt lat="45.14037" lon="-0.54289">
        <ele>43.4</ele>
        <time>2020-09-03T09:13:39Z</time>
      </trkpt>
      <trkpt lat="45.14037" lon="-0.54289">
        <ele>43.5</ele>
        <time>2020-09-03T09:13:41Z</time>
      </trkpt>
      <trkpt lat="45.14036" lon="-0.54289">
        <ele>43.5</ele>
        <time>2020-09-03T09:13:42Z</time>
      </trkpt>
      <trkpt lat="45.14036" lon="-0.54288">
        <ele>43.7</ele>
        <time>2020-09-03T09:13:43Z</time>
      </trkpt>
      <trkpt lat="45.14036" lon="-0.54286">
        <ele>43.7</ele>
        <time>2020-09-03T09:13:44Z</time>
      </trkpt>
      <trkpt lat="45.14035" lon="-0.54286">
        <ele>43.7</ele>
        <time>2020-09-03T09:13:45Z</time>
      </trkpt>
      <trkpt lat="45.14034" lon="-0.54285">
        <ele>43.7</ele>
        <time>2020-09-03T09:13:46Z</time>
      </trkpt>
      <trkpt lat="45.14033" lon="-0.54284">
        <ele>43.7</ele>
        <time>2020-09-03T09:13:47Z</time>
      </trkpt>
      <trkpt lat="45.1403" lon="-0.54283">
        <ele>44</ele>
        <time>2020-09-03T09:13:48Z</time>
      </trkpt>
      <trkpt lat="45.14028" lon="-0.54282">
        <ele>44</ele>
        <time>2020-09-03T09:13:50Z</time>
      </trkpt>
      <trkpt lat="45.14027" lon="-0.54282">
        <ele>44.1</ele>
        <time>2020-09-03T09:13:51Z</time>
      </trkpt>
      <trkpt lat="45.14025" lon="-0.54281">
        <ele>44.1</ele>
        <time>2020-09-03T09:13:52Z</time>
      </trkpt>
      <trkpt lat="45.14023" lon="-0.54281">
        <ele>44.2</ele>
        <time>2020-09-03T09:13:53Z</time>
      </trkpt>
      <trkpt lat="45.14021" lon="-0.5428">
        <ele>44.2</ele>
        <time>2020-09-03T09:13:55Z</time>
      </trkpt>
      <trkpt lat="45.14018" lon="-0.54278">
        <ele>44.4</ele>
        <time>2020-09-03T09:13:56Z</time>
      </trkpt>
      <trkpt lat="45.14018" lon="-0.54277">
        <ele>44.4</ele>
        <time>2020-09-03T09:13:57Z</time>
      </trkpt>
      <trkpt lat="45.14016" lon="-0.54277">
        <ele>44.4</ele>
        <time>2020-09-03T09:13:58Z</time>
      </trkpt>
      <trkpt lat="45.14015" lon="-0.54277">
        <ele>44.5</ele>
        <time>2020-09-03T09:13:59Z</time>
      </trkpt>
      <trkpt lat="45.14012" lon="-0.54277">
        <ele>44.5</ele>
        <time>2020-09-03T09:14:00Z</time>
      </trkpt>
      <trkpt lat="45.14012" lon="-0.54277">
        <ele>44.5</ele>
        <time>2020-09-03T09:14:02Z</time>
      </trkpt>
      <trkpt lat="45.14011" lon="-0.54277">
        <ele>44.5</ele>
        <time>2020-09-03T09:14:03Z</time>
      </trkpt>
      <trkpt lat="45.14011" lon="-0.54277">
        <ele>44.5</ele>
        <time>2020-09-03T09:14:04Z</time>
      </trkpt>
      <trkpt lat="45.1401" lon="-0.54277">
        <ele>44.5</ele>
        <time>2020-09-03T09:14:06Z</time>
      </trkpt>
      <trkpt lat="45.14009" lon="-0.54277">
        <ele>44.6</ele>
        <time>2020-09-03T09:14:07Z</time>
      </trkpt>
      <trkpt lat="45.14009" lon="-0.54277">
        <ele>44.6</ele>
        <time>2020-09-03T09:14:09Z</time>
      </trkpt>
      <trkpt lat="45.14008" lon="-0.54277">
        <ele>44.6</ele>
        <time>2020-09-03T09:14:11Z</time>
      </trkpt>
      <trkpt lat="45.14008" lon="-0.54277">
        <ele>44.6</ele>
        <time>2020-09-03T09:14:12Z</time>
      </trkpt>
      <trkpt lat="45.14007" lon="-0.54277">
        <ele>44.6</ele>
        <time>2020-09-03T09:14:13Z</time>
      </trkpt>
      <trkpt lat="45.14006" lon="-0.54277">
        <ele>44.6</ele>
        <time>2020-09-03T09:14:14Z</time>
      </trkpt>
      <trkpt lat="45.14003" lon="-0.54277">
        <ele>44.6</ele>
        <time>2020-09-03T09:14:16Z</time>
      </trkpt>
      <trkpt lat="45.14002" lon="-0.54276">
        <ele>44.6</ele>
        <time>2020-09-03T09:14:17Z</time>
      </trkpt>
      <trkpt lat="45.14002" lon="-0.54276">
        <ele>44.6</ele>
        <time>2020-09-03T09:14:19Z</time>
      </trkpt>
      <trkpt lat="45.14001" lon="-0.54276">
        <ele>44.6</ele>
        <time>2020-09-03T09:14:20Z</time>
      </trkpt>
      <trkpt lat="45.14" lon="-0.54276">
        <ele>44.7</ele>
        <time>2020-09-03T09:14:21Z</time>
      </trkpt>
      <trkpt lat="45.14" lon="-0.54276">
        <ele>44.7</ele>
        <time>2020-09-03T09:14:23Z</time>
      </trkpt>
      <trkpt lat="45.14" lon="-0.54276">
        <ele>44.7</ele>
        <time>2020-09-03T09:14:24Z</time>
      </trkpt>
      <trkpt lat="45.14" lon="-0.54277">
        <ele>44.7</ele>
        <time>2020-09-03T09:14:26Z</time>
      </trkpt>
      <trkpt lat="45.14" lon="-0.54277">
        <ele>44.7</ele>
        <time>2020-09-03T09:14:27Z</time>
      </trkpt>
      <trkpt lat="45.13999" lon="-0.54277">
        <ele>44.7</ele>
        <time>2020-09-03T09:14:28Z</time>
      </trkpt>
      <trkpt lat="45.13999" lon="-0.54278">
        <ele>44.7</ele>
        <time>2020-09-03T09:14:30Z</time>
      </trkpt>
      <trkpt lat="45.13999" lon="-0.54278">
        <ele>44.7</ele>
        <time>2020-09-03T09:14:32Z</time>
      </trkpt>
      <trkpt lat="45.13999" lon="-0.54278">
        <ele>44.7</ele>
        <time>2020-09-03T09:14:33Z</time>
      </trkpt>
      <trkpt lat="45.13999" lon="-0.54279">
        <ele>44.7</ele>
        <time>2020-09-03T09:14:34Z</time>
      </trkpt>
      <trkpt lat="45.13999" lon="-0.54279">
        <ele>44.7</ele>
        <time>2020-09-03T09:14:35Z</time>
      </trkpt>
      <trkpt lat="45.13999" lon="-0.54279">
        <ele>44.7</ele>
        <time>2020-09-03T09:14:36Z</time>
      </trkpt>
      <trkpt lat="45.13999" lon="-0.5428">
        <ele>44.6</ele>
        <time>2020-09-03T09:14:38Z</time>
      </trkpt>
      <trkpt lat="45.13999" lon="-0.5428">
        <ele>44.6</ele>
        <time>2020-09-03T09:14:39Z</time>
      </trkpt>
      <trkpt lat="45.13998" lon="-0.5428">
        <ele>44.6</ele>
        <time>2020-09-03T09:14:40Z</time>
      </trkpt>
      <trkpt lat="45.13998" lon="-0.54281">
        <ele>44.6</ele>
        <time>2020-09-03T09:14:41Z</time>
      </trkpt>
      <trkpt lat="45.13998" lon="-0.54281">
        <ele>44.6</ele>
        <time>2020-09-03T09:14:43Z</time>
      </trkpt>
      <trkpt lat="45.13998" lon="-0.54281">
        <ele>44.6</ele>
        <time>2020-09-03T09:14:44Z</time>
      </trkpt>
      <trkpt lat="45.13997" lon="-0.54283">
        <ele>44.6</ele>
        <time>2020-09-03T09:14:45Z</time>
      </trkpt>
      <trkpt lat="45.13997" lon="-0.54284">
        <ele>44.5</ele>
        <time>2020-09-03T09:14:46Z</time>
      </trkpt>
      <trkpt lat="45.13996" lon="-0.54285">
        <ele>44.5</ele>
        <time>2020-09-03T09:14:47Z</time>
      </trkpt>
      <trkpt lat="45.13996" lon="-0.54287">
        <ele>44.5</ele>
        <time>2020-09-03T09:14:49Z</time>
      </trkpt>
      <trkpt lat="45.13995" lon="-0.54287">
        <ele>44.5</ele>
        <time>2020-09-03T09:14:51Z</time>
      </trkpt>
      <trkpt lat="45.13995" lon="-0.54287">
        <ele>44.5</ele>
        <time>2020-09-03T09:14:53Z</time>
      </trkpt>
      <trkpt lat="45.13994" lon="-0.54286">
        <ele>44.5</ele>
        <time>2020-09-03T09:14:54Z</time>
      </trkpt>
      <trkpt lat="45.13994" lon="-0.54286">
        <ele>44.5</ele>
        <time>2020-09-03T09:14:55Z</time>
      </trkpt>
    </trkseg>
  </trk>
</gpx>